<?xml version="1.0" encoding="UTF-8" standalone="no" ?>
<gpx xmlns="http://www.topografix.com/GPX/1/1" xmlns:xsi="http://www.w3.org/2001/XMLSchema-instance" xsi:schemaLocation="http://www.topografix.com/GPX/1/1 http://www.topografix.com/GPX/1/1/gpx.xsd" version="1.1" creator="VisuGPX - https://www.visugpx.com">
  <metadata>
    <name>Chateaux de Mercuès et Calamane</name>
  </metadata>
  <trk>
    <name><![CDATA[Sortie VTT le matin_1]]></name>
    <desc><![CDATA[]]></desc>
    <extensions>
      <line xmlns="http://www.topografix.com/GPX/gpx_style/0/2">
        <color>0000FF</color>
        <width>4</width>
      </line>
    </extensions>
    <trkseg>
      <trkpt lat="44.49791" lon="1.38822">
        <ele>148.8</ele>
        <time>2025-05-29T08:39:33Z</time>
      </trkpt>
      <trkpt lat="44.49791" lon="1.38822">
        <ele>148.8</ele>
        <time>2025-05-29T08:39:34Z</time>
      </trkpt>
      <trkpt lat="44.49787" lon="1.3882">
        <ele>149</ele>
        <time>2025-05-29T08:40:10Z</time>
      </trkpt>
      <trkpt lat="44.49786" lon="1.38819">
        <ele>149</ele>
        <time>2025-05-29T08:40:11Z</time>
      </trkpt>
      <trkpt lat="44.49786" lon="1.38817">
        <ele>148.8</ele>
        <time>2025-05-29T08:40:12Z</time>
      </trkpt>
      <trkpt lat="44.49786" lon="1.38815">
        <ele>148.8</ele>
        <time>2025-05-29T08:40:13Z</time>
      </trkpt>
      <trkpt lat="44.49787" lon="1.38812">
        <ele>148.8</ele>
        <time>2025-05-29T08:40:14Z</time>
      </trkpt>
      <trkpt lat="44.49787" lon="1.38809">
        <ele>148.8</ele>
        <time>2025-05-29T08:40:15Z</time>
      </trkpt>
      <trkpt lat="44.49785" lon="1.38807">
        <ele>148.6</ele>
        <time>2025-05-29T08:40:16Z</time>
      </trkpt>
      <trkpt lat="44.49783" lon="1.38808">
        <ele>148.6</ele>
        <time>2025-05-29T08:40:17Z</time>
      </trkpt>
      <trkpt lat="44.49783" lon="1.38809">
        <ele>148.6</ele>
        <time>2025-05-29T08:40:18Z</time>
      </trkpt>
      <trkpt lat="44.49783" lon="1.38812">
        <ele>148.8</ele>
        <time>2025-05-29T08:40:19Z</time>
      </trkpt>
      <trkpt lat="44.49783" lon="1.38814">
        <ele>149</ele>
        <time>2025-05-29T08:40:20Z</time>
      </trkpt>
      <trkpt lat="44.49783" lon="1.38816">
        <ele>149.2</ele>
        <time>2025-05-29T08:40:21Z</time>
      </trkpt>
      <trkpt lat="44.49784" lon="1.38817">
        <ele>149.4</ele>
        <time>2025-05-29T08:40:22Z</time>
      </trkpt>
      <trkpt lat="44.49784" lon="1.38819">
        <ele>149.4</ele>
        <time>2025-05-29T08:40:23Z</time>
      </trkpt>
      <trkpt lat="44.49785" lon="1.38821">
        <ele>149.4</ele>
        <time>2025-05-29T08:40:24Z</time>
      </trkpt>
      <trkpt lat="44.49786" lon="1.38822">
        <ele>149.4</ele>
        <time>2025-05-29T08:40:25Z</time>
      </trkpt>
      <trkpt lat="44.49786" lon="1.38824">
        <ele>149.4</ele>
        <time>2025-05-29T08:40:26Z</time>
      </trkpt>
      <trkpt lat="44.49787" lon="1.38826">
        <ele>149.4</ele>
        <time>2025-05-29T08:40:27Z</time>
      </trkpt>
      <trkpt lat="44.49787" lon="1.38828">
        <ele>149.4</ele>
        <time>2025-05-29T08:40:28Z</time>
      </trkpt>
      <trkpt lat="44.49787" lon="1.3883">
        <ele>149.4</ele>
        <time>2025-05-29T08:40:29Z</time>
      </trkpt>
      <trkpt lat="44.49787" lon="1.38833">
        <ele>149.6</ele>
        <time>2025-05-29T08:40:30Z</time>
      </trkpt>
      <trkpt lat="44.49787" lon="1.38835">
        <ele>149.6</ele>
        <time>2025-05-29T08:40:31Z</time>
      </trkpt>
      <trkpt lat="44.49785" lon="1.38836">
        <ele>149.6</ele>
        <time>2025-05-29T08:40:32Z</time>
      </trkpt>
      <trkpt lat="44.49783" lon="1.38837">
        <ele>149.8</ele>
        <time>2025-05-29T08:40:33Z</time>
      </trkpt>
      <trkpt lat="44.49782" lon="1.38837">
        <ele>149.8</ele>
        <time>2025-05-29T08:40:34Z</time>
      </trkpt>
      <trkpt lat="44.4978" lon="1.38837">
        <ele>150</ele>
        <time>2025-05-29T08:40:35Z</time>
      </trkpt>
      <trkpt lat="44.49779" lon="1.38837">
        <ele>150</ele>
        <time>2025-05-29T08:40:36Z</time>
      </trkpt>
      <trkpt lat="44.49778" lon="1.38838">
        <ele>150</ele>
        <time>2025-05-29T08:40:37Z</time>
      </trkpt>
      <trkpt lat="44.49776" lon="1.3884">
        <ele>149.8</ele>
        <time>2025-05-29T08:40:38Z</time>
      </trkpt>
      <trkpt lat="44.49775" lon="1.3884">
        <ele>150</ele>
        <time>2025-05-29T08:40:39Z</time>
      </trkpt>
      <trkpt lat="44.49773" lon="1.38841">
        <ele>150</ele>
        <time>2025-05-29T08:40:40Z</time>
      </trkpt>
      <trkpt lat="44.49771" lon="1.3884">
        <ele>150</ele>
        <time>2025-05-29T08:40:41Z</time>
      </trkpt>
      <trkpt lat="44.49769" lon="1.3884">
        <ele>149.8</ele>
        <time>2025-05-29T08:40:42Z</time>
      </trkpt>
      <trkpt lat="44.49767" lon="1.38839">
        <ele>149.8</ele>
        <time>2025-05-29T08:40:43Z</time>
      </trkpt>
      <trkpt lat="44.49766" lon="1.38839">
        <ele>149.8</ele>
        <time>2025-05-29T08:40:44Z</time>
      </trkpt>
      <trkpt lat="44.49764" lon="1.38839">
        <ele>149.8</ele>
        <time>2025-05-29T08:40:45Z</time>
      </trkpt>
      <trkpt lat="44.49763" lon="1.38839">
        <ele>149.8</ele>
        <time>2025-05-29T08:40:46Z</time>
      </trkpt>
      <trkpt lat="44.4976" lon="1.38839">
        <ele>149.8</ele>
        <time>2025-05-29T08:40:47Z</time>
      </trkpt>
      <trkpt lat="44.49758" lon="1.38839">
        <ele>149.8</ele>
        <time>2025-05-29T08:40:48Z</time>
      </trkpt>
      <trkpt lat="44.49755" lon="1.3884">
        <ele>149.6</ele>
        <time>2025-05-29T08:40:49Z</time>
      </trkpt>
      <trkpt lat="44.49753" lon="1.3884">
        <ele>149.6</ele>
        <time>2025-05-29T08:40:50Z</time>
      </trkpt>
      <trkpt lat="44.49751" lon="1.3884">
        <ele>149.6</ele>
        <time>2025-05-29T08:40:51Z</time>
      </trkpt>
      <trkpt lat="44.49748" lon="1.38839">
        <ele>149.8</ele>
        <time>2025-05-29T08:40:52Z</time>
      </trkpt>
      <trkpt lat="44.49746" lon="1.38839">
        <ele>149.8</ele>
        <time>2025-05-29T08:40:53Z</time>
      </trkpt>
      <trkpt lat="44.49743" lon="1.38839">
        <ele>150</ele>
        <time>2025-05-29T08:40:54Z</time>
      </trkpt>
      <trkpt lat="44.4974" lon="1.38839">
        <ele>150.2</ele>
        <time>2025-05-29T08:40:55Z</time>
      </trkpt>
      <trkpt lat="44.49738" lon="1.3884">
        <ele>150.2</ele>
        <time>2025-05-29T08:40:56Z</time>
      </trkpt>
      <trkpt lat="44.49735" lon="1.3884">
        <ele>150.6</ele>
        <time>2025-05-29T08:40:57Z</time>
      </trkpt>
      <trkpt lat="44.49733" lon="1.3884">
        <ele>151</ele>
        <time>2025-05-29T08:40:58Z</time>
      </trkpt>
      <trkpt lat="44.4973" lon="1.38839">
        <ele>151.6</ele>
        <time>2025-05-29T08:40:59Z</time>
      </trkpt>
      <trkpt lat="44.49728" lon="1.38839">
        <ele>151.4</ele>
        <time>2025-05-29T08:41:00Z</time>
      </trkpt>
      <trkpt lat="44.49725" lon="1.38839">
        <ele>151.4</ele>
        <time>2025-05-29T08:41:01Z</time>
      </trkpt>
      <trkpt lat="44.49723" lon="1.38839">
        <ele>151.2</ele>
        <time>2025-05-29T08:41:02Z</time>
      </trkpt>
      <trkpt lat="44.4972" lon="1.38839">
        <ele>151</ele>
        <time>2025-05-29T08:41:03Z</time>
      </trkpt>
      <trkpt lat="44.49718" lon="1.38839">
        <ele>151</ele>
        <time>2025-05-29T08:41:04Z</time>
      </trkpt>
      <trkpt lat="44.49715" lon="1.38839">
        <ele>151</ele>
        <time>2025-05-29T08:41:05Z</time>
      </trkpt>
      <trkpt lat="44.49712" lon="1.38839">
        <ele>151</ele>
        <time>2025-05-29T08:41:06Z</time>
      </trkpt>
      <trkpt lat="44.4971" lon="1.38839">
        <ele>151.2</ele>
        <time>2025-05-29T08:41:07Z</time>
      </trkpt>
      <trkpt lat="44.49707" lon="1.38839">
        <ele>151.4</ele>
        <time>2025-05-29T08:41:08Z</time>
      </trkpt>
      <trkpt lat="44.49705" lon="1.38839">
        <ele>151.6</ele>
        <time>2025-05-29T08:41:09Z</time>
      </trkpt>
      <trkpt lat="44.49702" lon="1.38838">
        <ele>151.6</ele>
        <time>2025-05-29T08:41:10Z</time>
      </trkpt>
      <trkpt lat="44.49699" lon="1.38838">
        <ele>151.8</ele>
        <time>2025-05-29T08:41:11Z</time>
      </trkpt>
      <trkpt lat="44.49696" lon="1.38838">
        <ele>151.8</ele>
        <time>2025-05-29T08:41:12Z</time>
      </trkpt>
      <trkpt lat="44.49693" lon="1.38838">
        <ele>151.8</ele>
        <time>2025-05-29T08:41:13Z</time>
      </trkpt>
      <trkpt lat="44.4969" lon="1.38838">
        <ele>151.8</ele>
        <time>2025-05-29T08:41:14Z</time>
      </trkpt>
      <trkpt lat="44.49688" lon="1.38838">
        <ele>151.8</ele>
        <time>2025-05-29T08:41:15Z</time>
      </trkpt>
      <trkpt lat="44.49686" lon="1.38839">
        <ele>151.6</ele>
        <time>2025-05-29T08:41:16Z</time>
      </trkpt>
      <trkpt lat="44.49685" lon="1.3884">
        <ele>151.6</ele>
        <time>2025-05-29T08:41:17Z</time>
      </trkpt>
      <trkpt lat="44.49684" lon="1.38843">
        <ele>151.6</ele>
        <time>2025-05-29T08:41:18Z</time>
      </trkpt>
      <trkpt lat="44.49684" lon="1.38847">
        <ele>151.6</ele>
        <time>2025-05-29T08:41:19Z</time>
      </trkpt>
      <trkpt lat="44.49684" lon="1.3885">
        <ele>151.8</ele>
        <time>2025-05-29T08:41:20Z</time>
      </trkpt>
      <trkpt lat="44.49683" lon="1.38854">
        <ele>151.8</ele>
        <time>2025-05-29T08:41:21Z</time>
      </trkpt>
      <trkpt lat="44.49683" lon="1.38858">
        <ele>152</ele>
        <time>2025-05-29T08:41:22Z</time>
      </trkpt>
      <trkpt lat="44.49683" lon="1.38861">
        <ele>152</ele>
        <time>2025-05-29T08:41:23Z</time>
      </trkpt>
      <trkpt lat="44.49682" lon="1.38864">
        <ele>152</ele>
        <time>2025-05-29T08:41:24Z</time>
      </trkpt>
      <trkpt lat="44.49682" lon="1.38868">
        <ele>152</ele>
        <time>2025-05-29T08:41:25Z</time>
      </trkpt>
      <trkpt lat="44.49682" lon="1.38871">
        <ele>152</ele>
        <time>2025-05-29T08:41:26Z</time>
      </trkpt>
      <trkpt lat="44.49681" lon="1.38874">
        <ele>152</ele>
        <time>2025-05-29T08:41:27Z</time>
      </trkpt>
      <trkpt lat="44.49681" lon="1.38878">
        <ele>152.2</ele>
        <time>2025-05-29T08:41:28Z</time>
      </trkpt>
      <trkpt lat="44.49681" lon="1.38882">
        <ele>152.2</ele>
        <time>2025-05-29T08:41:29Z</time>
      </trkpt>
      <trkpt lat="44.49681" lon="1.38886">
        <ele>152.4</ele>
        <time>2025-05-29T08:41:30Z</time>
      </trkpt>
      <trkpt lat="44.4968" lon="1.38891">
        <ele>152.6</ele>
        <time>2025-05-29T08:41:31Z</time>
      </trkpt>
      <trkpt lat="44.49679" lon="1.38895">
        <ele>152.8</ele>
        <time>2025-05-29T08:41:32Z</time>
      </trkpt>
      <trkpt lat="44.49679" lon="1.38898">
        <ele>153</ele>
        <time>2025-05-29T08:41:33Z</time>
      </trkpt>
      <trkpt lat="44.49678" lon="1.38902">
        <ele>153</ele>
        <time>2025-05-29T08:41:34Z</time>
      </trkpt>
      <trkpt lat="44.49677" lon="1.38905">
        <ele>153.4</ele>
        <time>2025-05-29T08:41:35Z</time>
      </trkpt>
      <trkpt lat="44.49676" lon="1.38909">
        <ele>153.4</ele>
        <time>2025-05-29T08:41:36Z</time>
      </trkpt>
      <trkpt lat="44.49675" lon="1.38913">
        <ele>153.6</ele>
        <time>2025-05-29T08:41:37Z</time>
      </trkpt>
      <trkpt lat="44.49674" lon="1.38917">
        <ele>153.8</ele>
        <time>2025-05-29T08:41:38Z</time>
      </trkpt>
      <trkpt lat="44.49673" lon="1.3892">
        <ele>153.8</ele>
        <time>2025-05-29T08:41:39Z</time>
      </trkpt>
      <trkpt lat="44.49673" lon="1.38923">
        <ele>154</ele>
        <time>2025-05-29T08:41:40Z</time>
      </trkpt>
      <trkpt lat="44.49673" lon="1.38926">
        <ele>154</ele>
        <time>2025-05-29T08:41:41Z</time>
      </trkpt>
      <trkpt lat="44.49672" lon="1.38929">
        <ele>154.2</ele>
        <time>2025-05-29T08:41:42Z</time>
      </trkpt>
      <trkpt lat="44.49672" lon="1.38932">
        <ele>154.4</ele>
        <time>2025-05-29T08:41:43Z</time>
      </trkpt>
      <trkpt lat="44.49671" lon="1.38935">
        <ele>154.6</ele>
        <time>2025-05-29T08:41:44Z</time>
      </trkpt>
      <trkpt lat="44.4967" lon="1.38939">
        <ele>154.6</ele>
        <time>2025-05-29T08:41:45Z</time>
      </trkpt>
      <trkpt lat="44.4967" lon="1.38942">
        <ele>154.8</ele>
        <time>2025-05-29T08:41:46Z</time>
      </trkpt>
      <trkpt lat="44.4967" lon="1.38945">
        <ele>155</ele>
        <time>2025-05-29T08:41:47Z</time>
      </trkpt>
      <trkpt lat="44.49669" lon="1.38948">
        <ele>155</ele>
        <time>2025-05-29T08:41:48Z</time>
      </trkpt>
      <trkpt lat="44.49668" lon="1.38951">
        <ele>155.2</ele>
        <time>2025-05-29T08:41:49Z</time>
      </trkpt>
      <trkpt lat="44.49667" lon="1.38954">
        <ele>155.6</ele>
        <time>2025-05-29T08:41:50Z</time>
      </trkpt>
      <trkpt lat="44.49667" lon="1.38957">
        <ele>155.8</ele>
        <time>2025-05-29T08:41:51Z</time>
      </trkpt>
      <trkpt lat="44.49666" lon="1.3896">
        <ele>156.4</ele>
        <time>2025-05-29T08:41:52Z</time>
      </trkpt>
      <trkpt lat="44.49666" lon="1.38963">
        <ele>156.8</ele>
        <time>2025-05-29T08:41:53Z</time>
      </trkpt>
      <trkpt lat="44.49665" lon="1.38966">
        <ele>157.4</ele>
        <time>2025-05-29T08:41:54Z</time>
      </trkpt>
      <trkpt lat="44.49664" lon="1.38969">
        <ele>157.4</ele>
        <time>2025-05-29T08:41:55Z</time>
      </trkpt>
      <trkpt lat="44.49664" lon="1.38972">
        <ele>157.4</ele>
        <time>2025-05-29T08:41:56Z</time>
      </trkpt>
      <trkpt lat="44.49664" lon="1.38975">
        <ele>157.4</ele>
        <time>2025-05-29T08:41:57Z</time>
      </trkpt>
      <trkpt lat="44.49663" lon="1.38978">
        <ele>156.2</ele>
        <time>2025-05-29T08:41:58Z</time>
      </trkpt>
      <trkpt lat="44.49663" lon="1.38981">
        <ele>155</ele>
        <time>2025-05-29T08:41:59Z</time>
      </trkpt>
      <trkpt lat="44.49662" lon="1.38984">
        <ele>154.8</ele>
        <time>2025-05-29T08:42:00Z</time>
      </trkpt>
      <trkpt lat="44.49662" lon="1.38987">
        <ele>154.6</ele>
        <time>2025-05-29T08:42:01Z</time>
      </trkpt>
      <trkpt lat="44.49661" lon="1.3899">
        <ele>155.2</ele>
        <time>2025-05-29T08:42:02Z</time>
      </trkpt>
      <trkpt lat="44.4966" lon="1.38993">
        <ele>155.6</ele>
        <time>2025-05-29T08:42:03Z</time>
      </trkpt>
      <trkpt lat="44.4966" lon="1.38996">
        <ele>155.8</ele>
        <time>2025-05-29T08:42:04Z</time>
      </trkpt>
      <trkpt lat="44.49659" lon="1.38999">
        <ele>156.2</ele>
        <time>2025-05-29T08:42:05Z</time>
      </trkpt>
      <trkpt lat="44.49659" lon="1.39001">
        <ele>156</ele>
        <time>2025-05-29T08:42:06Z</time>
      </trkpt>
      <trkpt lat="44.49658" lon="1.39004">
        <ele>155.6</ele>
        <time>2025-05-29T08:42:07Z</time>
      </trkpt>
      <trkpt lat="44.49657" lon="1.39007">
        <ele>155.6</ele>
        <time>2025-05-29T08:42:08Z</time>
      </trkpt>
      <trkpt lat="44.49657" lon="1.3901">
        <ele>156</ele>
        <time>2025-05-29T08:42:09Z</time>
      </trkpt>
      <trkpt lat="44.49656" lon="1.39013">
        <ele>156.6</ele>
        <time>2025-05-29T08:42:10Z</time>
      </trkpt>
      <trkpt lat="44.49656" lon="1.39016">
        <ele>157</ele>
        <time>2025-05-29T08:42:11Z</time>
      </trkpt>
      <trkpt lat="44.49656" lon="1.39019">
        <ele>157.6</ele>
        <time>2025-05-29T08:42:12Z</time>
      </trkpt>
      <trkpt lat="44.49655" lon="1.39022">
        <ele>157.8</ele>
        <time>2025-05-29T08:42:13Z</time>
      </trkpt>
      <trkpt lat="44.49654" lon="1.39024">
        <ele>158.2</ele>
        <time>2025-05-29T08:42:14Z</time>
      </trkpt>
      <trkpt lat="44.49654" lon="1.39027">
        <ele>158.4</ele>
        <time>2025-05-29T08:42:15Z</time>
      </trkpt>
      <trkpt lat="44.49654" lon="1.3903">
        <ele>158.8</ele>
        <time>2025-05-29T08:42:16Z</time>
      </trkpt>
      <trkpt lat="44.49654" lon="1.39033">
        <ele>159</ele>
        <time>2025-05-29T08:42:17Z</time>
      </trkpt>
      <trkpt lat="44.49653" lon="1.39035">
        <ele>159</ele>
        <time>2025-05-29T08:42:18Z</time>
      </trkpt>
      <trkpt lat="44.49653" lon="1.39038">
        <ele>159.4</ele>
        <time>2025-05-29T08:42:19Z</time>
      </trkpt>
      <trkpt lat="44.49652" lon="1.3904">
        <ele>159.4</ele>
        <time>2025-05-29T08:42:20Z</time>
      </trkpt>
      <trkpt lat="44.49652" lon="1.39043">
        <ele>159.6</ele>
        <time>2025-05-29T08:42:21Z</time>
      </trkpt>
      <trkpt lat="44.49651" lon="1.39045">
        <ele>160</ele>
        <time>2025-05-29T08:42:22Z</time>
      </trkpt>
      <trkpt lat="44.49651" lon="1.39048">
        <ele>160.2</ele>
        <time>2025-05-29T08:42:23Z</time>
      </trkpt>
      <trkpt lat="44.4965" lon="1.3905">
        <ele>160.4</ele>
        <time>2025-05-29T08:42:24Z</time>
      </trkpt>
      <trkpt lat="44.4965" lon="1.39052">
        <ele>160.6</ele>
        <time>2025-05-29T08:42:25Z</time>
      </trkpt>
      <trkpt lat="44.49649" lon="1.39053">
        <ele>160.6</ele>
        <time>2025-05-29T08:42:26Z</time>
      </trkpt>
      <trkpt lat="44.49649" lon="1.39056">
        <ele>160.8</ele>
        <time>2025-05-29T08:42:27Z</time>
      </trkpt>
      <trkpt lat="44.49648" lon="1.39058">
        <ele>161</ele>
        <time>2025-05-29T08:42:28Z</time>
      </trkpt>
      <trkpt lat="44.49648" lon="1.39059">
        <ele>161</ele>
        <time>2025-05-29T08:42:29Z</time>
      </trkpt>
      <trkpt lat="44.49647" lon="1.39061">
        <ele>161.2</ele>
        <time>2025-05-29T08:42:30Z</time>
      </trkpt>
      <trkpt lat="44.49646" lon="1.39063">
        <ele>161.2</ele>
        <time>2025-05-29T08:42:31Z</time>
      </trkpt>
      <trkpt lat="44.49645" lon="1.39065">
        <ele>161.4</ele>
        <time>2025-05-29T08:42:32Z</time>
      </trkpt>
      <trkpt lat="44.49645" lon="1.39066">
        <ele>161.4</ele>
        <time>2025-05-29T08:42:33Z</time>
      </trkpt>
      <trkpt lat="44.49645" lon="1.39068">
        <ele>161.6</ele>
        <time>2025-05-29T08:42:34Z</time>
      </trkpt>
      <trkpt lat="44.49644" lon="1.3907">
        <ele>161.8</ele>
        <time>2025-05-29T08:42:35Z</time>
      </trkpt>
      <trkpt lat="44.49644" lon="1.39071">
        <ele>162</ele>
        <time>2025-05-29T08:42:36Z</time>
      </trkpt>
      <trkpt lat="44.49643" lon="1.39073">
        <ele>162.2</ele>
        <time>2025-05-29T08:42:37Z</time>
      </trkpt>
      <trkpt lat="44.49643" lon="1.39075">
        <ele>162.4</ele>
        <time>2025-05-29T08:42:38Z</time>
      </trkpt>
      <trkpt lat="44.49642" lon="1.39076">
        <ele>162.6</ele>
        <time>2025-05-29T08:42:39Z</time>
      </trkpt>
      <trkpt lat="44.49642" lon="1.39078">
        <ele>162.6</ele>
        <time>2025-05-29T08:42:40Z</time>
      </trkpt>
      <trkpt lat="44.49641" lon="1.3908">
        <ele>162.8</ele>
        <time>2025-05-29T08:42:41Z</time>
      </trkpt>
      <trkpt lat="44.49641" lon="1.39081">
        <ele>163</ele>
        <time>2025-05-29T08:42:42Z</time>
      </trkpt>
      <trkpt lat="44.4964" lon="1.39083">
        <ele>163.2</ele>
        <time>2025-05-29T08:42:43Z</time>
      </trkpt>
      <trkpt lat="44.4964" lon="1.39084">
        <ele>163.6</ele>
        <time>2025-05-29T08:42:44Z</time>
      </trkpt>
      <trkpt lat="44.4964" lon="1.39086">
        <ele>163.8</ele>
        <time>2025-05-29T08:42:45Z</time>
      </trkpt>
      <trkpt lat="44.49639" lon="1.39088">
        <ele>164</ele>
        <time>2025-05-29T08:42:46Z</time>
      </trkpt>
      <trkpt lat="44.49639" lon="1.39089">
        <ele>164.4</ele>
        <time>2025-05-29T08:42:47Z</time>
      </trkpt>
      <trkpt lat="44.49639" lon="1.39091">
        <ele>164.6</ele>
        <time>2025-05-29T08:42:48Z</time>
      </trkpt>
      <trkpt lat="44.49638" lon="1.39092">
        <ele>164.6</ele>
        <time>2025-05-29T08:42:49Z</time>
      </trkpt>
      <trkpt lat="44.49638" lon="1.39094">
        <ele>164.8</ele>
        <time>2025-05-29T08:42:50Z</time>
      </trkpt>
      <trkpt lat="44.49638" lon="1.39096">
        <ele>165</ele>
        <time>2025-05-29T08:42:51Z</time>
      </trkpt>
      <trkpt lat="44.49638" lon="1.39098">
        <ele>165.2</ele>
        <time>2025-05-29T08:42:52Z</time>
      </trkpt>
      <trkpt lat="44.49637" lon="1.391">
        <ele>165.4</ele>
        <time>2025-05-29T08:42:53Z</time>
      </trkpt>
      <trkpt lat="44.49637" lon="1.39102">
        <ele>165.6</ele>
        <time>2025-05-29T08:42:54Z</time>
      </trkpt>
      <trkpt lat="44.49636" lon="1.39104">
        <ele>165.8</ele>
        <time>2025-05-29T08:42:55Z</time>
      </trkpt>
      <trkpt lat="44.49636" lon="1.39106">
        <ele>166</ele>
        <time>2025-05-29T08:42:56Z</time>
      </trkpt>
      <trkpt lat="44.49635" lon="1.39108">
        <ele>166</ele>
        <time>2025-05-29T08:42:57Z</time>
      </trkpt>
      <trkpt lat="44.49635" lon="1.39109">
        <ele>166.2</ele>
        <time>2025-05-29T08:42:58Z</time>
      </trkpt>
      <trkpt lat="44.49635" lon="1.39111">
        <ele>166.4</ele>
        <time>2025-05-29T08:42:59Z</time>
      </trkpt>
      <trkpt lat="44.49635" lon="1.39113">
        <ele>166.6</ele>
        <time>2025-05-29T08:43:00Z</time>
      </trkpt>
      <trkpt lat="44.49634" lon="1.39114">
        <ele>166.6</ele>
        <time>2025-05-29T08:43:01Z</time>
      </trkpt>
      <trkpt lat="44.49633" lon="1.39116">
        <ele>166.8</ele>
        <time>2025-05-29T08:43:02Z</time>
      </trkpt>
      <trkpt lat="44.49633" lon="1.39118">
        <ele>166.8</ele>
        <time>2025-05-29T08:43:03Z</time>
      </trkpt>
      <trkpt lat="44.49632" lon="1.3912">
        <ele>166.6</ele>
        <time>2025-05-29T08:43:04Z</time>
      </trkpt>
      <trkpt lat="44.49632" lon="1.39122">
        <ele>166.6</ele>
        <time>2025-05-29T08:43:05Z</time>
      </trkpt>
      <trkpt lat="44.49632" lon="1.39124">
        <ele>166.6</ele>
        <time>2025-05-29T08:43:06Z</time>
      </trkpt>
      <trkpt lat="44.49631" lon="1.39125">
        <ele>166.6</ele>
        <time>2025-05-29T08:43:07Z</time>
      </trkpt>
      <trkpt lat="44.49631" lon="1.39127">
        <ele>166.8</ele>
        <time>2025-05-29T08:43:08Z</time>
      </trkpt>
      <trkpt lat="44.4963" lon="1.39129">
        <ele>167</ele>
        <time>2025-05-29T08:43:09Z</time>
      </trkpt>
      <trkpt lat="44.4963" lon="1.39131">
        <ele>167.2</ele>
        <time>2025-05-29T08:43:10Z</time>
      </trkpt>
      <trkpt lat="44.4963" lon="1.39132">
        <ele>167.4</ele>
        <time>2025-05-29T08:43:11Z</time>
      </trkpt>
      <trkpt lat="44.49629" lon="1.39134">
        <ele>167.6</ele>
        <time>2025-05-29T08:43:12Z</time>
      </trkpt>
      <trkpt lat="44.49629" lon="1.39135">
        <ele>167.6</ele>
        <time>2025-05-29T08:43:13Z</time>
      </trkpt>
      <trkpt lat="44.49628" lon="1.39137">
        <ele>167.8</ele>
        <time>2025-05-29T08:43:14Z</time>
      </trkpt>
      <trkpt lat="44.49628" lon="1.39138">
        <ele>168</ele>
        <time>2025-05-29T08:43:15Z</time>
      </trkpt>
      <trkpt lat="44.49627" lon="1.3914">
        <ele>168</ele>
        <time>2025-05-29T08:43:16Z</time>
      </trkpt>
      <trkpt lat="44.49627" lon="1.39142">
        <ele>168.2</ele>
        <time>2025-05-29T08:43:17Z</time>
      </trkpt>
      <trkpt lat="44.49626" lon="1.39143">
        <ele>168.4</ele>
        <time>2025-05-29T08:43:18Z</time>
      </trkpt>
      <trkpt lat="44.49626" lon="1.39145">
        <ele>168.4</ele>
        <time>2025-05-29T08:43:19Z</time>
      </trkpt>
      <trkpt lat="44.49625" lon="1.39147">
        <ele>168.6</ele>
        <time>2025-05-29T08:43:20Z</time>
      </trkpt>
      <trkpt lat="44.49625" lon="1.39149">
        <ele>168.8</ele>
        <time>2025-05-29T08:43:21Z</time>
      </trkpt>
      <trkpt lat="44.49625" lon="1.3915">
        <ele>169</ele>
        <time>2025-05-29T08:43:22Z</time>
      </trkpt>
      <trkpt lat="44.49625" lon="1.39152">
        <ele>169.2</ele>
        <time>2025-05-29T08:43:23Z</time>
      </trkpt>
      <trkpt lat="44.49624" lon="1.39154">
        <ele>169.4</ele>
        <time>2025-05-29T08:43:24Z</time>
      </trkpt>
      <trkpt lat="44.49624" lon="1.39155">
        <ele>169.4</ele>
        <time>2025-05-29T08:43:25Z</time>
      </trkpt>
      <trkpt lat="44.49624" lon="1.39157">
        <ele>169.6</ele>
        <time>2025-05-29T08:43:26Z</time>
      </trkpt>
      <trkpt lat="44.49624" lon="1.3916">
        <ele>169.8</ele>
        <time>2025-05-29T08:43:27Z</time>
      </trkpt>
      <trkpt lat="44.49623" lon="1.39162">
        <ele>169.8</ele>
        <time>2025-05-29T08:43:28Z</time>
      </trkpt>
      <trkpt lat="44.49623" lon="1.39163">
        <ele>170</ele>
        <time>2025-05-29T08:43:29Z</time>
      </trkpt>
      <trkpt lat="44.49623" lon="1.39165">
        <ele>170.2</ele>
        <time>2025-05-29T08:43:30Z</time>
      </trkpt>
      <trkpt lat="44.49622" lon="1.39167">
        <ele>170.2</ele>
        <time>2025-05-29T08:43:31Z</time>
      </trkpt>
      <trkpt lat="44.49622" lon="1.39169">
        <ele>170.4</ele>
        <time>2025-05-29T08:43:32Z</time>
      </trkpt>
      <trkpt lat="44.49621" lon="1.39171">
        <ele>170.6</ele>
        <time>2025-05-29T08:43:33Z</time>
      </trkpt>
      <trkpt lat="44.49621" lon="1.39173">
        <ele>170.8</ele>
        <time>2025-05-29T08:43:34Z</time>
      </trkpt>
      <trkpt lat="44.4962" lon="1.39174">
        <ele>170.8</ele>
        <time>2025-05-29T08:43:35Z</time>
      </trkpt>
      <trkpt lat="44.49619" lon="1.39176">
        <ele>171</ele>
        <time>2025-05-29T08:43:36Z</time>
      </trkpt>
      <trkpt lat="44.49619" lon="1.39177">
        <ele>171.2</ele>
        <time>2025-05-29T08:43:37Z</time>
      </trkpt>
      <trkpt lat="44.49618" lon="1.39179">
        <ele>171.4</ele>
        <time>2025-05-29T08:43:38Z</time>
      </trkpt>
      <trkpt lat="44.49618" lon="1.39181">
        <ele>171.6</ele>
        <time>2025-05-29T08:43:39Z</time>
      </trkpt>
      <trkpt lat="44.49618" lon="1.39183">
        <ele>171.8</ele>
        <time>2025-05-29T08:43:40Z</time>
      </trkpt>
      <trkpt lat="44.49617" lon="1.39184">
        <ele>172</ele>
        <time>2025-05-29T08:43:41Z</time>
      </trkpt>
      <trkpt lat="44.49616" lon="1.39186">
        <ele>172.2</ele>
        <time>2025-05-29T08:43:42Z</time>
      </trkpt>
      <trkpt lat="44.49616" lon="1.39187">
        <ele>172.4</ele>
        <time>2025-05-29T08:43:43Z</time>
      </trkpt>
      <trkpt lat="44.49616" lon="1.39189">
        <ele>172.6</ele>
        <time>2025-05-29T08:43:44Z</time>
      </trkpt>
      <trkpt lat="44.49616" lon="1.39192">
        <ele>172.8</ele>
        <time>2025-05-29T08:43:45Z</time>
      </trkpt>
      <trkpt lat="44.49617" lon="1.39194">
        <ele>173</ele>
        <time>2025-05-29T08:43:46Z</time>
      </trkpt>
      <trkpt lat="44.49617" lon="1.39196">
        <ele>173.2</ele>
        <time>2025-05-29T08:43:47Z</time>
      </trkpt>
      <trkpt lat="44.49618" lon="1.39197">
        <ele>173.4</ele>
        <time>2025-05-29T08:43:48Z</time>
      </trkpt>
      <trkpt lat="44.49619" lon="1.39198">
        <ele>173.6</ele>
        <time>2025-05-29T08:43:49Z</time>
      </trkpt>
      <trkpt lat="44.4962" lon="1.39199">
        <ele>173.6</ele>
        <time>2025-05-29T08:43:50Z</time>
      </trkpt>
      <trkpt lat="44.4962" lon="1.392">
        <ele>173.8</ele>
        <time>2025-05-29T08:43:51Z</time>
      </trkpt>
      <trkpt lat="44.49621" lon="1.39201">
        <ele>173.8</ele>
        <time>2025-05-29T08:43:52Z</time>
      </trkpt>
      <trkpt lat="44.49622" lon="1.39202">
        <ele>173.8</ele>
        <time>2025-05-29T08:43:53Z</time>
      </trkpt>
      <trkpt lat="44.49623" lon="1.39202">
        <ele>173.8</ele>
        <time>2025-05-29T08:43:54Z</time>
      </trkpt>
      <trkpt lat="44.49624" lon="1.39202">
        <ele>174</ele>
        <time>2025-05-29T08:43:55Z</time>
      </trkpt>
      <trkpt lat="44.49624" lon="1.39202">
        <ele>174.2</ele>
        <time>2025-05-29T08:43:56Z</time>
      </trkpt>
      <trkpt lat="44.4962" lon="1.39198">
        <ele>174.2</ele>
        <time>2025-05-29T08:44:03Z</time>
      </trkpt>
      <trkpt lat="44.49618" lon="1.39197">
        <ele>174</ele>
        <time>2025-05-29T08:44:04Z</time>
      </trkpt>
      <trkpt lat="44.49617" lon="1.39197">
        <ele>173.8</ele>
        <time>2025-05-29T08:44:05Z</time>
      </trkpt>
      <trkpt lat="44.49616" lon="1.39198">
        <ele>173.8</ele>
        <time>2025-05-29T08:44:06Z</time>
      </trkpt>
      <trkpt lat="44.49615" lon="1.39199">
        <ele>173.8</ele>
        <time>2025-05-29T08:44:07Z</time>
      </trkpt>
      <trkpt lat="44.49615" lon="1.39201">
        <ele>173.8</ele>
        <time>2025-05-29T08:44:08Z</time>
      </trkpt>
      <trkpt lat="44.49615" lon="1.39203">
        <ele>174</ele>
        <time>2025-05-29T08:44:09Z</time>
      </trkpt>
      <trkpt lat="44.49615" lon="1.39205">
        <ele>174.2</ele>
        <time>2025-05-29T08:44:10Z</time>
      </trkpt>
      <trkpt lat="44.49614" lon="1.39206">
        <ele>174.4</ele>
        <time>2025-05-29T08:44:11Z</time>
      </trkpt>
      <trkpt lat="44.49614" lon="1.39208">
        <ele>174.6</ele>
        <time>2025-05-29T08:44:12Z</time>
      </trkpt>
      <trkpt lat="44.49613" lon="1.3921">
        <ele>175</ele>
        <time>2025-05-29T08:44:13Z</time>
      </trkpt>
      <trkpt lat="44.49613" lon="1.39212">
        <ele>175.2</ele>
        <time>2025-05-29T08:44:14Z</time>
      </trkpt>
      <trkpt lat="44.49614" lon="1.39214">
        <ele>175.4</ele>
        <time>2025-05-29T08:44:15Z</time>
      </trkpt>
      <trkpt lat="44.49614" lon="1.39216">
        <ele>175.8</ele>
        <time>2025-05-29T08:44:16Z</time>
      </trkpt>
      <trkpt lat="44.49615" lon="1.39217">
        <ele>176.2</ele>
        <time>2025-05-29T08:44:17Z</time>
      </trkpt>
      <trkpt lat="44.49615" lon="1.39219">
        <ele>176.4</ele>
        <time>2025-05-29T08:44:18Z</time>
      </trkpt>
      <trkpt lat="44.49615" lon="1.39221">
        <ele>176.6</ele>
        <time>2025-05-29T08:44:19Z</time>
      </trkpt>
      <trkpt lat="44.49616" lon="1.39223">
        <ele>177</ele>
        <time>2025-05-29T08:44:20Z</time>
      </trkpt>
      <trkpt lat="44.49618" lon="1.39223">
        <ele>177.4</ele>
        <time>2025-05-29T08:44:21Z</time>
      </trkpt>
      <trkpt lat="44.49618" lon="1.39224">
        <ele>177.6</ele>
        <time>2025-05-29T08:44:22Z</time>
      </trkpt>
      <trkpt lat="44.4962" lon="1.39224">
        <ele>178</ele>
        <time>2025-05-29T08:44:23Z</time>
      </trkpt>
      <trkpt lat="44.49622" lon="1.39224">
        <ele>178.2</ele>
        <time>2025-05-29T08:44:24Z</time>
      </trkpt>
      <trkpt lat="44.49623" lon="1.39225">
        <ele>178.4</ele>
        <time>2025-05-29T08:44:25Z</time>
      </trkpt>
      <trkpt lat="44.49624" lon="1.39227">
        <ele>178.8</ele>
        <time>2025-05-29T08:44:26Z</time>
      </trkpt>
      <trkpt lat="44.49625" lon="1.39227">
        <ele>179</ele>
        <time>2025-05-29T08:44:27Z</time>
      </trkpt>
      <trkpt lat="44.49627" lon="1.39228">
        <ele>179</ele>
        <time>2025-05-29T08:44:28Z</time>
      </trkpt>
      <trkpt lat="44.49627" lon="1.39228">
        <ele>179.2</ele>
        <time>2025-05-29T08:44:29Z</time>
      </trkpt>
      <trkpt lat="44.49628" lon="1.39229">
        <ele>179.4</ele>
        <time>2025-05-29T08:44:30Z</time>
      </trkpt>
      <trkpt lat="44.49628" lon="1.3923">
        <ele>179.4</ele>
        <time>2025-05-29T08:44:31Z</time>
      </trkpt>
      <trkpt lat="44.49629" lon="1.39231">
        <ele>179.6</ele>
        <time>2025-05-29T08:44:32Z</time>
      </trkpt>
      <trkpt lat="44.49629" lon="1.39231">
        <ele>179.8</ele>
        <time>2025-05-29T08:44:33Z</time>
      </trkpt>
      <trkpt lat="44.49629" lon="1.39231">
        <ele>179.8</ele>
        <time>2025-05-29T08:44:34Z</time>
      </trkpt>
      <trkpt lat="44.49625" lon="1.39228">
        <ele>179.8</ele>
        <time>2025-05-29T08:44:45Z</time>
      </trkpt>
      <trkpt lat="44.49624" lon="1.39227">
        <ele>179.6</ele>
        <time>2025-05-29T08:44:46Z</time>
      </trkpt>
      <trkpt lat="44.49622" lon="1.39227">
        <ele>179.4</ele>
        <time>2025-05-29T08:44:47Z</time>
      </trkpt>
      <trkpt lat="44.4962" lon="1.39228">
        <ele>179.4</ele>
        <time>2025-05-29T08:44:48Z</time>
      </trkpt>
      <trkpt lat="44.49619" lon="1.39227">
        <ele>179.4</ele>
        <time>2025-05-29T08:44:49Z</time>
      </trkpt>
      <trkpt lat="44.49617" lon="1.39227">
        <ele>179.4</ele>
        <time>2025-05-29T08:44:50Z</time>
      </trkpt>
      <trkpt lat="44.49616" lon="1.39228">
        <ele>179.6</ele>
        <time>2025-05-29T08:44:51Z</time>
      </trkpt>
      <trkpt lat="44.49614" lon="1.3923">
        <ele>179.6</ele>
        <time>2025-05-29T08:44:52Z</time>
      </trkpt>
      <trkpt lat="44.49613" lon="1.39233">
        <ele>179.6</ele>
        <time>2025-05-29T08:44:53Z</time>
      </trkpt>
      <trkpt lat="44.49612" lon="1.39235">
        <ele>179.4</ele>
        <time>2025-05-29T08:44:54Z</time>
      </trkpt>
      <trkpt lat="44.4961" lon="1.39238">
        <ele>179.2</ele>
        <time>2025-05-29T08:44:55Z</time>
      </trkpt>
      <trkpt lat="44.49608" lon="1.39241">
        <ele>179</ele>
        <time>2025-05-29T08:44:56Z</time>
      </trkpt>
      <trkpt lat="44.49607" lon="1.39244">
        <ele>178.8</ele>
        <time>2025-05-29T08:44:57Z</time>
      </trkpt>
      <trkpt lat="44.49606" lon="1.39249">
        <ele>178.4</ele>
        <time>2025-05-29T08:44:58Z</time>
      </trkpt>
      <trkpt lat="44.49606" lon="1.39252">
        <ele>178.4</ele>
        <time>2025-05-29T08:44:59Z</time>
      </trkpt>
      <trkpt lat="44.49607" lon="1.39254">
        <ele>178.2</ele>
        <time>2025-05-29T08:45:00Z</time>
      </trkpt>
      <trkpt lat="44.49607" lon="1.39257">
        <ele>178.2</ele>
        <time>2025-05-29T08:45:01Z</time>
      </trkpt>
      <trkpt lat="44.49607" lon="1.39259">
        <ele>178.2</ele>
        <time>2025-05-29T08:45:02Z</time>
      </trkpt>
      <trkpt lat="44.49607" lon="1.39261">
        <ele>178.4</ele>
        <time>2025-05-29T08:45:03Z</time>
      </trkpt>
      <trkpt lat="44.49608" lon="1.39264">
        <ele>178.6</ele>
        <time>2025-05-29T08:45:04Z</time>
      </trkpt>
      <trkpt lat="44.49608" lon="1.39266">
        <ele>178.8</ele>
        <time>2025-05-29T08:45:05Z</time>
      </trkpt>
      <trkpt lat="44.49609" lon="1.39269">
        <ele>178.8</ele>
        <time>2025-05-29T08:45:06Z</time>
      </trkpt>
      <trkpt lat="44.49609" lon="1.39271">
        <ele>179</ele>
        <time>2025-05-29T08:45:07Z</time>
      </trkpt>
      <trkpt lat="44.49609" lon="1.39272">
        <ele>179.2</ele>
        <time>2025-05-29T08:45:08Z</time>
      </trkpt>
      <trkpt lat="44.4961" lon="1.39273">
        <ele>179.4</ele>
        <time>2025-05-29T08:45:09Z</time>
      </trkpt>
      <trkpt lat="44.4961" lon="1.39276">
        <ele>179.4</ele>
        <time>2025-05-29T08:45:10Z</time>
      </trkpt>
      <trkpt lat="44.4961" lon="1.39279">
        <ele>179.6</ele>
        <time>2025-05-29T08:45:11Z</time>
      </trkpt>
      <trkpt lat="44.4961" lon="1.39281">
        <ele>179.6</ele>
        <time>2025-05-29T08:45:12Z</time>
      </trkpt>
      <trkpt lat="44.4961" lon="1.39284">
        <ele>179.8</ele>
        <time>2025-05-29T08:45:13Z</time>
      </trkpt>
      <trkpt lat="44.49609" lon="1.39288">
        <ele>179.8</ele>
        <time>2025-05-29T08:45:14Z</time>
      </trkpt>
      <trkpt lat="44.49609" lon="1.39291">
        <ele>179.8</ele>
        <time>2025-05-29T08:45:15Z</time>
      </trkpt>
      <trkpt lat="44.49609" lon="1.39293">
        <ele>179.8</ele>
        <time>2025-05-29T08:45:16Z</time>
      </trkpt>
      <trkpt lat="44.49608" lon="1.39294">
        <ele>179.8</ele>
        <time>2025-05-29T08:45:17Z</time>
      </trkpt>
      <trkpt lat="44.49607" lon="1.39295">
        <ele>179.8</ele>
        <time>2025-05-29T08:45:18Z</time>
      </trkpt>
      <trkpt lat="44.49607" lon="1.39296">
        <ele>180</ele>
        <time>2025-05-29T08:45:19Z</time>
      </trkpt>
      <trkpt lat="44.49607" lon="1.39298">
        <ele>180.2</ele>
        <time>2025-05-29T08:45:20Z</time>
      </trkpt>
      <trkpt lat="44.49607" lon="1.39299">
        <ele>180.2</ele>
        <time>2025-05-29T08:45:21Z</time>
      </trkpt>
      <trkpt lat="44.49606" lon="1.39301">
        <ele>180.2</ele>
        <time>2025-05-29T08:45:22Z</time>
      </trkpt>
      <trkpt lat="44.49605" lon="1.39303">
        <ele>180</ele>
        <time>2025-05-29T08:45:23Z</time>
      </trkpt>
      <trkpt lat="44.49605" lon="1.39304">
        <ele>180</ele>
        <time>2025-05-29T08:45:24Z</time>
      </trkpt>
      <trkpt lat="44.49605" lon="1.39304">
        <ele>180</ele>
        <time>2025-05-29T08:45:25Z</time>
      </trkpt>
      <trkpt lat="44.49605" lon="1.39313">
        <ele>179.4</ele>
        <time>2025-05-29T08:46:54Z</time>
      </trkpt>
      <trkpt lat="44.49606" lon="1.39316">
        <ele>179.4</ele>
        <time>2025-05-29T08:46:55Z</time>
      </trkpt>
      <trkpt lat="44.49607" lon="1.39319">
        <ele>179.2</ele>
        <time>2025-05-29T08:46:56Z</time>
      </trkpt>
      <trkpt lat="44.49607" lon="1.39322">
        <ele>179.2</ele>
        <time>2025-05-29T08:46:57Z</time>
      </trkpt>
      <trkpt lat="44.49607" lon="1.39325">
        <ele>179</ele>
        <time>2025-05-29T08:46:58Z</time>
      </trkpt>
      <trkpt lat="44.49606" lon="1.39328">
        <ele>179</ele>
        <time>2025-05-29T08:46:59Z</time>
      </trkpt>
      <trkpt lat="44.49606" lon="1.39332">
        <ele>179</ele>
        <time>2025-05-29T08:47:00Z</time>
      </trkpt>
      <trkpt lat="44.49606" lon="1.39336">
        <ele>179</ele>
        <time>2025-05-29T08:47:01Z</time>
      </trkpt>
      <trkpt lat="44.49605" lon="1.39339">
        <ele>179</ele>
        <time>2025-05-29T08:47:02Z</time>
      </trkpt>
      <trkpt lat="44.49605" lon="1.39342">
        <ele>179</ele>
        <time>2025-05-29T08:47:03Z</time>
      </trkpt>
      <trkpt lat="44.49605" lon="1.39345">
        <ele>179</ele>
        <time>2025-05-29T08:47:04Z</time>
      </trkpt>
      <trkpt lat="44.49606" lon="1.39348">
        <ele>179</ele>
        <time>2025-05-29T08:47:05Z</time>
      </trkpt>
      <trkpt lat="44.49606" lon="1.39351">
        <ele>179.2</ele>
        <time>2025-05-29T08:47:06Z</time>
      </trkpt>
      <trkpt lat="44.49606" lon="1.39353">
        <ele>179.2</ele>
        <time>2025-05-29T08:47:07Z</time>
      </trkpt>
      <trkpt lat="44.49607" lon="1.39355">
        <ele>179.4</ele>
        <time>2025-05-29T08:47:08Z</time>
      </trkpt>
      <trkpt lat="44.49607" lon="1.39357">
        <ele>179.4</ele>
        <time>2025-05-29T08:47:09Z</time>
      </trkpt>
      <trkpt lat="44.49608" lon="1.39359">
        <ele>179.6</ele>
        <time>2025-05-29T08:47:10Z</time>
      </trkpt>
      <trkpt lat="44.49607" lon="1.39361">
        <ele>179.8</ele>
        <time>2025-05-29T08:47:11Z</time>
      </trkpt>
      <trkpt lat="44.49608" lon="1.39365">
        <ele>180</ele>
        <time>2025-05-29T08:47:12Z</time>
      </trkpt>
      <trkpt lat="44.49609" lon="1.39368">
        <ele>180.2</ele>
        <time>2025-05-29T08:47:13Z</time>
      </trkpt>
      <trkpt lat="44.49609" lon="1.39369">
        <ele>180.6</ele>
        <time>2025-05-29T08:47:14Z</time>
      </trkpt>
      <trkpt lat="44.49608" lon="1.39372">
        <ele>180.8</ele>
        <time>2025-05-29T08:47:15Z</time>
      </trkpt>
      <trkpt lat="44.49608" lon="1.39375">
        <ele>181</ele>
        <time>2025-05-29T08:47:16Z</time>
      </trkpt>
      <trkpt lat="44.49607" lon="1.39378">
        <ele>181.4</ele>
        <time>2025-05-29T08:47:17Z</time>
      </trkpt>
      <trkpt lat="44.49606" lon="1.3938">
        <ele>181.6</ele>
        <time>2025-05-29T08:47:18Z</time>
      </trkpt>
      <trkpt lat="44.49606" lon="1.39384">
        <ele>181.8</ele>
        <time>2025-05-29T08:47:19Z</time>
      </trkpt>
      <trkpt lat="44.49604" lon="1.39386">
        <ele>181.8</ele>
        <time>2025-05-29T08:47:20Z</time>
      </trkpt>
      <trkpt lat="44.49603" lon="1.39389">
        <ele>182</ele>
        <time>2025-05-29T08:47:21Z</time>
      </trkpt>
      <trkpt lat="44.49602" lon="1.39392">
        <ele>182.2</ele>
        <time>2025-05-29T08:47:22Z</time>
      </trkpt>
      <trkpt lat="44.496" lon="1.39395">
        <ele>182.4</ele>
        <time>2025-05-29T08:47:23Z</time>
      </trkpt>
      <trkpt lat="44.49598" lon="1.39397">
        <ele>182.4</ele>
        <time>2025-05-29T08:47:24Z</time>
      </trkpt>
      <trkpt lat="44.49597" lon="1.39398">
        <ele>182.6</ele>
        <time>2025-05-29T08:47:25Z</time>
      </trkpt>
      <trkpt lat="44.49595" lon="1.39401">
        <ele>182.6</ele>
        <time>2025-05-29T08:47:26Z</time>
      </trkpt>
      <trkpt lat="44.49594" lon="1.39403">
        <ele>182.8</ele>
        <time>2025-05-29T08:47:27Z</time>
      </trkpt>
      <trkpt lat="44.49594" lon="1.39405">
        <ele>183</ele>
        <time>2025-05-29T08:47:28Z</time>
      </trkpt>
      <trkpt lat="44.49594" lon="1.39408">
        <ele>183.2</ele>
        <time>2025-05-29T08:47:29Z</time>
      </trkpt>
      <trkpt lat="44.49595" lon="1.3941">
        <ele>183.4</ele>
        <time>2025-05-29T08:47:30Z</time>
      </trkpt>
      <trkpt lat="44.49595" lon="1.39413">
        <ele>183.6</ele>
        <time>2025-05-29T08:47:31Z</time>
      </trkpt>
      <trkpt lat="44.49594" lon="1.39415">
        <ele>183.8</ele>
        <time>2025-05-29T08:47:32Z</time>
      </trkpt>
      <trkpt lat="44.49594" lon="1.39417">
        <ele>184</ele>
        <time>2025-05-29T08:47:33Z</time>
      </trkpt>
      <trkpt lat="44.49593" lon="1.39419">
        <ele>184</ele>
        <time>2025-05-29T08:47:34Z</time>
      </trkpt>
      <trkpt lat="44.49593" lon="1.39421">
        <ele>184.2</ele>
        <time>2025-05-29T08:47:35Z</time>
      </trkpt>
      <trkpt lat="44.49593" lon="1.39422">
        <ele>184.4</ele>
        <time>2025-05-29T08:47:36Z</time>
      </trkpt>
      <trkpt lat="44.49593" lon="1.39423">
        <ele>184.6</ele>
        <time>2025-05-29T08:47:37Z</time>
      </trkpt>
      <trkpt lat="44.49593" lon="1.39423">
        <ele>184.6</ele>
        <time>2025-05-29T08:47:38Z</time>
      </trkpt>
      <trkpt lat="44.49595" lon="1.39427">
        <ele>184.4</ele>
        <time>2025-05-29T08:47:51Z</time>
      </trkpt>
      <trkpt lat="44.49596" lon="1.39428">
        <ele>184.4</ele>
        <time>2025-05-29T08:47:52Z</time>
      </trkpt>
      <trkpt lat="44.49598" lon="1.39431">
        <ele>184.4</ele>
        <time>2025-05-29T08:47:53Z</time>
      </trkpt>
      <trkpt lat="44.49599" lon="1.39433">
        <ele>184.6</ele>
        <time>2025-05-29T08:47:54Z</time>
      </trkpt>
      <trkpt lat="44.496" lon="1.39435">
        <ele>184.6</ele>
        <time>2025-05-29T08:47:55Z</time>
      </trkpt>
      <trkpt lat="44.49602" lon="1.39437">
        <ele>184.8</ele>
        <time>2025-05-29T08:47:56Z</time>
      </trkpt>
      <trkpt lat="44.49603" lon="1.39439">
        <ele>185</ele>
        <time>2025-05-29T08:47:57Z</time>
      </trkpt>
      <trkpt lat="44.49603" lon="1.39442">
        <ele>185.2</ele>
        <time>2025-05-29T08:47:58Z</time>
      </trkpt>
      <trkpt lat="44.49603" lon="1.39445">
        <ele>185.4</ele>
        <time>2025-05-29T08:47:59Z</time>
      </trkpt>
      <trkpt lat="44.49603" lon="1.39447">
        <ele>185.6</ele>
        <time>2025-05-29T08:48:00Z</time>
      </trkpt>
      <trkpt lat="44.49602" lon="1.3945">
        <ele>185.8</ele>
        <time>2025-05-29T08:48:01Z</time>
      </trkpt>
      <trkpt lat="44.496" lon="1.39452">
        <ele>185.8</ele>
        <time>2025-05-29T08:48:02Z</time>
      </trkpt>
      <trkpt lat="44.49599" lon="1.39456">
        <ele>186</ele>
        <time>2025-05-29T08:48:03Z</time>
      </trkpt>
      <trkpt lat="44.49598" lon="1.39459">
        <ele>186</ele>
        <time>2025-05-29T08:48:04Z</time>
      </trkpt>
      <trkpt lat="44.49596" lon="1.39461">
        <ele>186</ele>
        <time>2025-05-29T08:48:05Z</time>
      </trkpt>
      <trkpt lat="44.49595" lon="1.39463">
        <ele>186.2</ele>
        <time>2025-05-29T08:48:06Z</time>
      </trkpt>
      <trkpt lat="44.49593" lon="1.39464">
        <ele>186.2</ele>
        <time>2025-05-29T08:48:07Z</time>
      </trkpt>
      <trkpt lat="44.49592" lon="1.39465">
        <ele>186.2</ele>
        <time>2025-05-29T08:48:08Z</time>
      </trkpt>
      <trkpt lat="44.49591" lon="1.39467">
        <ele>186.4</ele>
        <time>2025-05-29T08:48:09Z</time>
      </trkpt>
      <trkpt lat="44.4959" lon="1.39469">
        <ele>186.4</ele>
        <time>2025-05-29T08:48:10Z</time>
      </trkpt>
      <trkpt lat="44.49589" lon="1.39471">
        <ele>186.4</ele>
        <time>2025-05-29T08:48:11Z</time>
      </trkpt>
      <trkpt lat="44.49588" lon="1.39474">
        <ele>186.4</ele>
        <time>2025-05-29T08:48:12Z</time>
      </trkpt>
      <trkpt lat="44.49587" lon="1.39476">
        <ele>186.6</ele>
        <time>2025-05-29T08:48:13Z</time>
      </trkpt>
      <trkpt lat="44.49586" lon="1.39478">
        <ele>186.6</ele>
        <time>2025-05-29T08:48:14Z</time>
      </trkpt>
      <trkpt lat="44.49586" lon="1.39481">
        <ele>186.6</ele>
        <time>2025-05-29T08:48:15Z</time>
      </trkpt>
      <trkpt lat="44.49587" lon="1.39484">
        <ele>186.8</ele>
        <time>2025-05-29T08:48:16Z</time>
      </trkpt>
      <trkpt lat="44.49588" lon="1.39487">
        <ele>186.8</ele>
        <time>2025-05-29T08:48:17Z</time>
      </trkpt>
      <trkpt lat="44.49588" lon="1.3949">
        <ele>187</ele>
        <time>2025-05-29T08:48:18Z</time>
      </trkpt>
      <trkpt lat="44.49589" lon="1.39493">
        <ele>187.2</ele>
        <time>2025-05-29T08:48:19Z</time>
      </trkpt>
      <trkpt lat="44.49589" lon="1.39495">
        <ele>187.2</ele>
        <time>2025-05-29T08:48:20Z</time>
      </trkpt>
      <trkpt lat="44.4959" lon="1.39497">
        <ele>187.4</ele>
        <time>2025-05-29T08:48:21Z</time>
      </trkpt>
      <trkpt lat="44.49591" lon="1.39499">
        <ele>187.6</ele>
        <time>2025-05-29T08:48:22Z</time>
      </trkpt>
      <trkpt lat="44.49592" lon="1.39501">
        <ele>187.6</ele>
        <time>2025-05-29T08:48:23Z</time>
      </trkpt>
      <trkpt lat="44.49593" lon="1.39504">
        <ele>187.8</ele>
        <time>2025-05-29T08:48:24Z</time>
      </trkpt>
      <trkpt lat="44.49594" lon="1.39505">
        <ele>188</ele>
        <time>2025-05-29T08:48:25Z</time>
      </trkpt>
      <trkpt lat="44.49595" lon="1.39508">
        <ele>188.2</ele>
        <time>2025-05-29T08:48:26Z</time>
      </trkpt>
      <trkpt lat="44.49596" lon="1.39511">
        <ele>188.4</ele>
        <time>2025-05-29T08:48:27Z</time>
      </trkpt>
      <trkpt lat="44.49597" lon="1.39514">
        <ele>188.4</ele>
        <time>2025-05-29T08:48:28Z</time>
      </trkpt>
      <trkpt lat="44.49599" lon="1.39517">
        <ele>188.6</ele>
        <time>2025-05-29T08:48:29Z</time>
      </trkpt>
      <trkpt lat="44.49601" lon="1.3952">
        <ele>188.6</ele>
        <time>2025-05-29T08:48:30Z</time>
      </trkpt>
      <trkpt lat="44.49602" lon="1.39524">
        <ele>188.6</ele>
        <time>2025-05-29T08:48:31Z</time>
      </trkpt>
      <trkpt lat="44.49603" lon="1.39527">
        <ele>188.4</ele>
        <time>2025-05-29T08:48:32Z</time>
      </trkpt>
      <trkpt lat="44.49602" lon="1.3953">
        <ele>188.4</ele>
        <time>2025-05-29T08:48:33Z</time>
      </trkpt>
      <trkpt lat="44.49601" lon="1.39533">
        <ele>188.4</ele>
        <time>2025-05-29T08:48:34Z</time>
      </trkpt>
      <trkpt lat="44.496" lon="1.39535">
        <ele>188.4</ele>
        <time>2025-05-29T08:48:35Z</time>
      </trkpt>
      <trkpt lat="44.49599" lon="1.39538">
        <ele>188.4</ele>
        <time>2025-05-29T08:48:36Z</time>
      </trkpt>
      <trkpt lat="44.49598" lon="1.3954">
        <ele>188.4</ele>
        <time>2025-05-29T08:48:37Z</time>
      </trkpt>
      <trkpt lat="44.49599" lon="1.39543">
        <ele>188.4</ele>
        <time>2025-05-29T08:48:38Z</time>
      </trkpt>
      <trkpt lat="44.49599" lon="1.39546">
        <ele>188.4</ele>
        <time>2025-05-29T08:48:39Z</time>
      </trkpt>
      <trkpt lat="44.496" lon="1.39549">
        <ele>188.6</ele>
        <time>2025-05-29T08:48:40Z</time>
      </trkpt>
      <trkpt lat="44.496" lon="1.39551">
        <ele>188.6</ele>
        <time>2025-05-29T08:48:41Z</time>
      </trkpt>
      <trkpt lat="44.496" lon="1.39554">
        <ele>188.8</ele>
        <time>2025-05-29T08:48:42Z</time>
      </trkpt>
      <trkpt lat="44.49599" lon="1.39557">
        <ele>188.8</ele>
        <time>2025-05-29T08:48:43Z</time>
      </trkpt>
      <trkpt lat="44.49598" lon="1.39559">
        <ele>189</ele>
        <time>2025-05-29T08:48:44Z</time>
      </trkpt>
      <trkpt lat="44.49597" lon="1.39562">
        <ele>189</ele>
        <time>2025-05-29T08:48:45Z</time>
      </trkpt>
      <trkpt lat="44.49595" lon="1.39563">
        <ele>189.2</ele>
        <time>2025-05-29T08:48:46Z</time>
      </trkpt>
      <trkpt lat="44.49593" lon="1.39566">
        <ele>189.2</ele>
        <time>2025-05-29T08:48:47Z</time>
      </trkpt>
      <trkpt lat="44.49592" lon="1.39568">
        <ele>189.2</ele>
        <time>2025-05-29T08:48:48Z</time>
      </trkpt>
      <trkpt lat="44.4959" lon="1.39569">
        <ele>189.4</ele>
        <time>2025-05-29T08:48:49Z</time>
      </trkpt>
      <trkpt lat="44.49588" lon="1.3957">
        <ele>189.4</ele>
        <time>2025-05-29T08:48:50Z</time>
      </trkpt>
      <trkpt lat="44.49586" lon="1.39571">
        <ele>189.4</ele>
        <time>2025-05-29T08:48:51Z</time>
      </trkpt>
      <trkpt lat="44.49584" lon="1.39572">
        <ele>189.6</ele>
        <time>2025-05-29T08:48:52Z</time>
      </trkpt>
      <trkpt lat="44.49581" lon="1.39573">
        <ele>189.4</ele>
        <time>2025-05-29T08:48:53Z</time>
      </trkpt>
      <trkpt lat="44.49579" lon="1.39575">
        <ele>189.4</ele>
        <time>2025-05-29T08:48:54Z</time>
      </trkpt>
      <trkpt lat="44.49578" lon="1.39578">
        <ele>189.4</ele>
        <time>2025-05-29T08:48:55Z</time>
      </trkpt>
      <trkpt lat="44.49577" lon="1.3958">
        <ele>189.2</ele>
        <time>2025-05-29T08:48:56Z</time>
      </trkpt>
      <trkpt lat="44.49577" lon="1.39582">
        <ele>189.2</ele>
        <time>2025-05-29T08:48:57Z</time>
      </trkpt>
      <trkpt lat="44.49576" lon="1.39584">
        <ele>189.4</ele>
        <time>2025-05-29T08:48:58Z</time>
      </trkpt>
      <trkpt lat="44.49577" lon="1.39584">
        <ele>189.4</ele>
        <time>2025-05-29T08:48:59Z</time>
      </trkpt>
      <trkpt lat="44.49577" lon="1.39584">
        <ele>189.6</ele>
        <time>2025-05-29T08:49:00Z</time>
      </trkpt>
      <trkpt lat="44.49576" lon="1.39589">
        <ele>189.4</ele>
        <time>2025-05-29T08:49:09Z</time>
      </trkpt>
      <trkpt lat="44.49575" lon="1.39592">
        <ele>189.4</ele>
        <time>2025-05-29T08:49:10Z</time>
      </trkpt>
      <trkpt lat="44.49574" lon="1.39594">
        <ele>189.4</ele>
        <time>2025-05-29T08:49:11Z</time>
      </trkpt>
      <trkpt lat="44.49574" lon="1.39596">
        <ele>189.2</ele>
        <time>2025-05-29T08:49:12Z</time>
      </trkpt>
      <trkpt lat="44.49574" lon="1.39598">
        <ele>189.4</ele>
        <time>2025-05-29T08:49:13Z</time>
      </trkpt>
      <trkpt lat="44.49573" lon="1.39601">
        <ele>189.4</ele>
        <time>2025-05-29T08:49:14Z</time>
      </trkpt>
      <trkpt lat="44.49571" lon="1.39604">
        <ele>189.4</ele>
        <time>2025-05-29T08:49:15Z</time>
      </trkpt>
      <trkpt lat="44.4957" lon="1.39608">
        <ele>189.4</ele>
        <time>2025-05-29T08:49:16Z</time>
      </trkpt>
      <trkpt lat="44.49569" lon="1.39611">
        <ele>189.2</ele>
        <time>2025-05-29T08:49:17Z</time>
      </trkpt>
      <trkpt lat="44.49569" lon="1.39615">
        <ele>189.2</ele>
        <time>2025-05-29T08:49:18Z</time>
      </trkpt>
      <trkpt lat="44.49569" lon="1.39618">
        <ele>189.2</ele>
        <time>2025-05-29T08:49:19Z</time>
      </trkpt>
      <trkpt lat="44.4957" lon="1.39621">
        <ele>189.2</ele>
        <time>2025-05-29T08:49:20Z</time>
      </trkpt>
      <trkpt lat="44.4957" lon="1.39624">
        <ele>189.2</ele>
        <time>2025-05-29T08:49:21Z</time>
      </trkpt>
      <trkpt lat="44.49571" lon="1.39627">
        <ele>189.2</ele>
        <time>2025-05-29T08:49:22Z</time>
      </trkpt>
      <trkpt lat="44.49571" lon="1.3963">
        <ele>189.2</ele>
        <time>2025-05-29T08:49:23Z</time>
      </trkpt>
      <trkpt lat="44.49571" lon="1.39632">
        <ele>189.4</ele>
        <time>2025-05-29T08:49:24Z</time>
      </trkpt>
      <trkpt lat="44.4957" lon="1.39636">
        <ele>189.4</ele>
        <time>2025-05-29T08:49:25Z</time>
      </trkpt>
      <trkpt lat="44.49568" lon="1.3964">
        <ele>189.4</ele>
        <time>2025-05-29T08:49:26Z</time>
      </trkpt>
      <trkpt lat="44.49566" lon="1.39642">
        <ele>189.2</ele>
        <time>2025-05-29T08:49:27Z</time>
      </trkpt>
      <trkpt lat="44.49564" lon="1.39646">
        <ele>189.2</ele>
        <time>2025-05-29T08:49:28Z</time>
      </trkpt>
      <trkpt lat="44.49561" lon="1.3965">
        <ele>189</ele>
        <time>2025-05-29T08:49:29Z</time>
      </trkpt>
      <trkpt lat="44.4956" lon="1.39653">
        <ele>188.8</ele>
        <time>2025-05-29T08:49:30Z</time>
      </trkpt>
      <trkpt lat="44.49559" lon="1.39657">
        <ele>188.8</ele>
        <time>2025-05-29T08:49:31Z</time>
      </trkpt>
      <trkpt lat="44.49559" lon="1.3966">
        <ele>188.8</ele>
        <time>2025-05-29T08:49:32Z</time>
      </trkpt>
      <trkpt lat="44.49559" lon="1.39664">
        <ele>188.8</ele>
        <time>2025-05-29T08:49:33Z</time>
      </trkpt>
      <trkpt lat="44.49559" lon="1.39667">
        <ele>189</ele>
        <time>2025-05-29T08:49:34Z</time>
      </trkpt>
      <trkpt lat="44.4956" lon="1.39669">
        <ele>189.2</ele>
        <time>2025-05-29T08:49:35Z</time>
      </trkpt>
      <trkpt lat="44.49561" lon="1.39672">
        <ele>189.4</ele>
        <time>2025-05-29T08:49:36Z</time>
      </trkpt>
      <trkpt lat="44.49561" lon="1.39675">
        <ele>189.6</ele>
        <time>2025-05-29T08:49:37Z</time>
      </trkpt>
      <trkpt lat="44.49562" lon="1.39677">
        <ele>190</ele>
        <time>2025-05-29T08:49:38Z</time>
      </trkpt>
      <trkpt lat="44.49562" lon="1.3968">
        <ele>190.4</ele>
        <time>2025-05-29T08:49:39Z</time>
      </trkpt>
      <trkpt lat="44.49562" lon="1.39682">
        <ele>190.6</ele>
        <time>2025-05-29T08:49:40Z</time>
      </trkpt>
      <trkpt lat="44.49562" lon="1.39684">
        <ele>190.8</ele>
        <time>2025-05-29T08:49:41Z</time>
      </trkpt>
      <trkpt lat="44.49563" lon="1.39687">
        <ele>191.2</ele>
        <time>2025-05-29T08:49:42Z</time>
      </trkpt>
      <trkpt lat="44.49563" lon="1.39689">
        <ele>191.4</ele>
        <time>2025-05-29T08:49:43Z</time>
      </trkpt>
      <trkpt lat="44.49563" lon="1.39691">
        <ele>191.8</ele>
        <time>2025-05-29T08:49:44Z</time>
      </trkpt>
      <trkpt lat="44.49563" lon="1.39693">
        <ele>192</ele>
        <time>2025-05-29T08:49:45Z</time>
      </trkpt>
      <trkpt lat="44.49562" lon="1.39695">
        <ele>192.4</ele>
        <time>2025-05-29T08:49:46Z</time>
      </trkpt>
      <trkpt lat="44.49561" lon="1.39697">
        <ele>192.8</ele>
        <time>2025-05-29T08:49:47Z</time>
      </trkpt>
      <trkpt lat="44.49561" lon="1.39699">
        <ele>193.2</ele>
        <time>2025-05-29T08:49:48Z</time>
      </trkpt>
      <trkpt lat="44.4956" lon="1.39702">
        <ele>193.4</ele>
        <time>2025-05-29T08:49:49Z</time>
      </trkpt>
      <trkpt lat="44.4956" lon="1.39704">
        <ele>193.6</ele>
        <time>2025-05-29T08:49:50Z</time>
      </trkpt>
      <trkpt lat="44.4956" lon="1.39706">
        <ele>194</ele>
        <time>2025-05-29T08:49:51Z</time>
      </trkpt>
      <trkpt lat="44.49561" lon="1.39708">
        <ele>194.2</ele>
        <time>2025-05-29T08:49:52Z</time>
      </trkpt>
      <trkpt lat="44.49561" lon="1.39711">
        <ele>194.4</ele>
        <time>2025-05-29T08:49:53Z</time>
      </trkpt>
      <trkpt lat="44.49562" lon="1.39713">
        <ele>194.6</ele>
        <time>2025-05-29T08:49:54Z</time>
      </trkpt>
      <trkpt lat="44.49563" lon="1.39715">
        <ele>194.8</ele>
        <time>2025-05-29T08:49:55Z</time>
      </trkpt>
      <trkpt lat="44.49564" lon="1.39717">
        <ele>195</ele>
        <time>2025-05-29T08:49:56Z</time>
      </trkpt>
      <trkpt lat="44.49565" lon="1.39719">
        <ele>195</ele>
        <time>2025-05-29T08:49:57Z</time>
      </trkpt>
      <trkpt lat="44.49565" lon="1.3972">
        <ele>195.2</ele>
        <time>2025-05-29T08:49:58Z</time>
      </trkpt>
      <trkpt lat="44.49566" lon="1.39723">
        <ele>195.2</ele>
        <time>2025-05-29T08:49:59Z</time>
      </trkpt>
      <trkpt lat="44.49567" lon="1.39724">
        <ele>195.2</ele>
        <time>2025-05-29T08:50:00Z</time>
      </trkpt>
      <trkpt lat="44.49568" lon="1.39725">
        <ele>195.2</ele>
        <time>2025-05-29T08:50:01Z</time>
      </trkpt>
      <trkpt lat="44.4957" lon="1.39726">
        <ele>195.2</ele>
        <time>2025-05-29T08:50:02Z</time>
      </trkpt>
      <trkpt lat="44.49571" lon="1.39727">
        <ele>195.2</ele>
        <time>2025-05-29T08:50:03Z</time>
      </trkpt>
      <trkpt lat="44.49572" lon="1.39729">
        <ele>195.2</ele>
        <time>2025-05-29T08:50:04Z</time>
      </trkpt>
      <trkpt lat="44.49573" lon="1.3973">
        <ele>195.4</ele>
        <time>2025-05-29T08:50:05Z</time>
      </trkpt>
      <trkpt lat="44.49573" lon="1.39732">
        <ele>195.4</ele>
        <time>2025-05-29T08:50:06Z</time>
      </trkpt>
      <trkpt lat="44.49574" lon="1.39734">
        <ele>195.6</ele>
        <time>2025-05-29T08:50:07Z</time>
      </trkpt>
      <trkpt lat="44.49574" lon="1.39735">
        <ele>195.8</ele>
        <time>2025-05-29T08:50:08Z</time>
      </trkpt>
      <trkpt lat="44.49575" lon="1.39737">
        <ele>196</ele>
        <time>2025-05-29T08:50:09Z</time>
      </trkpt>
      <trkpt lat="44.49575" lon="1.39739">
        <ele>196.4</ele>
        <time>2025-05-29T08:50:10Z</time>
      </trkpt>
      <trkpt lat="44.49576" lon="1.39741">
        <ele>196.8</ele>
        <time>2025-05-29T08:50:11Z</time>
      </trkpt>
      <trkpt lat="44.49576" lon="1.39742">
        <ele>197</ele>
        <time>2025-05-29T08:50:12Z</time>
      </trkpt>
      <trkpt lat="44.49577" lon="1.39743">
        <ele>197.4</ele>
        <time>2025-05-29T08:50:13Z</time>
      </trkpt>
      <trkpt lat="44.49577" lon="1.39744">
        <ele>197.8</ele>
        <time>2025-05-29T08:50:14Z</time>
      </trkpt>
      <trkpt lat="44.49577" lon="1.39744">
        <ele>198</ele>
        <time>2025-05-29T08:50:15Z</time>
      </trkpt>
      <trkpt lat="44.49577" lon="1.39744">
        <ele>198.2</ele>
        <time>2025-05-29T08:50:16Z</time>
      </trkpt>
      <trkpt lat="44.49583" lon="1.39767">
        <ele>200.8</ele>
        <time>2025-05-29T08:50:40Z</time>
      </trkpt>
      <trkpt lat="44.49583" lon="1.3977">
        <ele>200.8</ele>
        <time>2025-05-29T08:50:41Z</time>
      </trkpt>
      <trkpt lat="44.49582" lon="1.39773">
        <ele>200.8</ele>
        <time>2025-05-29T08:50:42Z</time>
      </trkpt>
      <trkpt lat="44.49581" lon="1.39776">
        <ele>200.8</ele>
        <time>2025-05-29T08:50:43Z</time>
      </trkpt>
      <trkpt lat="44.4958" lon="1.39778">
        <ele>200.8</ele>
        <time>2025-05-29T08:50:44Z</time>
      </trkpt>
      <trkpt lat="44.49578" lon="1.39781">
        <ele>200.6</ele>
        <time>2025-05-29T08:50:45Z</time>
      </trkpt>
      <trkpt lat="44.49576" lon="1.39785">
        <ele>200.6</ele>
        <time>2025-05-29T08:50:46Z</time>
      </trkpt>
      <trkpt lat="44.49574" lon="1.3979">
        <ele>200.4</ele>
        <time>2025-05-29T08:50:47Z</time>
      </trkpt>
      <trkpt lat="44.49572" lon="1.39794">
        <ele>200.2</ele>
        <time>2025-05-29T08:50:48Z</time>
      </trkpt>
      <trkpt lat="44.4957" lon="1.39798">
        <ele>200</ele>
        <time>2025-05-29T08:50:49Z</time>
      </trkpt>
      <trkpt lat="44.49567" lon="1.39804">
        <ele>198.6</ele>
      </trkpt>
      <trkpt lat="44.49565" lon="1.39807">
        <ele>199.1</ele>
      </trkpt>
      <trkpt lat="44.49564" lon="1.3981">
        <ele>199.4</ele>
      </trkpt>
      <trkpt lat="44.49561" lon="1.39814">
        <ele>199.7</ele>
      </trkpt>
      <trkpt lat="44.49559" lon="1.39819">
        <ele>200.2</ele>
      </trkpt>
      <trkpt lat="44.49556" lon="1.39823">
        <ele>200.9</ele>
      </trkpt>
      <trkpt lat="44.49556" lon="1.39828">
        <ele>201.4</ele>
      </trkpt>
      <trkpt lat="44.49555" lon="1.39831">
        <ele>201.1</ele>
      </trkpt>
      <trkpt lat="44.49553" lon="1.39838">
        <ele>200.4</ele>
      </trkpt>
      <trkpt lat="44.49553" lon="1.39844">
        <ele>200.9</ele>
      </trkpt>
      <trkpt lat="44.49555" lon="1.39849">
        <ele>202</ele>
      </trkpt>
      <trkpt lat="44.49555" lon="1.39854">
        <ele>202.6</ele>
      </trkpt>
      <trkpt lat="44.49557" lon="1.3986">
        <ele>202.9</ele>
      </trkpt>
      <trkpt lat="44.49559" lon="1.39864">
        <ele>203.2</ele>
      </trkpt>
      <trkpt lat="44.49561" lon="1.39865">
        <ele>203.3</ele>
      </trkpt>
      <trkpt lat="44.49563" lon="1.39868">
        <ele>203.5</ele>
      </trkpt>
      <trkpt lat="44.49565" lon="1.3987">
        <ele>203.7</ele>
      </trkpt>
      <trkpt lat="44.49566" lon="1.39872">
        <ele>203.9</ele>
      </trkpt>
      <trkpt lat="44.49567" lon="1.39872">
        <ele>202.6</ele>
        <time>2025-05-29T09:00:16Z</time>
      </trkpt>
      <trkpt lat="44.49569" lon="1.39874">
        <ele>202.4</ele>
        <time>2025-05-29T09:00:17Z</time>
      </trkpt>
      <trkpt lat="44.49571" lon="1.39876">
        <ele>202.2</ele>
        <time>2025-05-29T09:00:18Z</time>
      </trkpt>
      <trkpt lat="44.49573" lon="1.39878">
        <ele>202.4</ele>
        <time>2025-05-29T09:00:19Z</time>
      </trkpt>
      <trkpt lat="44.49575" lon="1.39879">
        <ele>202.6</ele>
        <time>2025-05-29T09:00:20Z</time>
      </trkpt>
      <trkpt lat="44.49577" lon="1.3988">
        <ele>202.6</ele>
        <time>2025-05-29T09:00:21Z</time>
      </trkpt>
      <trkpt lat="44.4958" lon="1.39881">
        <ele>202.8</ele>
        <time>2025-05-29T09:00:22Z</time>
      </trkpt>
      <trkpt lat="44.49582" lon="1.39881">
        <ele>203</ele>
        <time>2025-05-29T09:00:23Z</time>
      </trkpt>
      <trkpt lat="44.49585" lon="1.39881">
        <ele>203</ele>
        <time>2025-05-29T09:00:24Z</time>
      </trkpt>
      <trkpt lat="44.49588" lon="1.39881">
        <ele>203</ele>
        <time>2025-05-29T09:00:25Z</time>
      </trkpt>
      <trkpt lat="44.49591" lon="1.39881">
        <ele>203</ele>
        <time>2025-05-29T09:00:26Z</time>
      </trkpt>
      <trkpt lat="44.49594" lon="1.39881">
        <ele>203</ele>
        <time>2025-05-29T09:00:27Z</time>
      </trkpt>
      <trkpt lat="44.49597" lon="1.3988">
        <ele>203</ele>
        <time>2025-05-29T09:00:28Z</time>
      </trkpt>
      <trkpt lat="44.49599" lon="1.3988">
        <ele>203</ele>
        <time>2025-05-29T09:00:29Z</time>
      </trkpt>
      <trkpt lat="44.49602" lon="1.39878">
        <ele>202.8</ele>
        <time>2025-05-29T09:00:30Z</time>
      </trkpt>
      <trkpt lat="44.49605" lon="1.39876">
        <ele>202.8</ele>
        <time>2025-05-29T09:00:31Z</time>
      </trkpt>
      <trkpt lat="44.4961" lon="1.39875">
        <ele>202.6</ele>
        <time>2025-05-29T09:00:32Z</time>
      </trkpt>
      <trkpt lat="44.49614" lon="1.39872">
        <ele>202.2</ele>
        <time>2025-05-29T09:00:33Z</time>
      </trkpt>
      <trkpt lat="44.49619" lon="1.39869">
        <ele>201.8</ele>
        <time>2025-05-29T09:00:34Z</time>
      </trkpt>
      <trkpt lat="44.49623" lon="1.39866">
        <ele>201.4</ele>
        <time>2025-05-29T09:00:35Z</time>
      </trkpt>
      <trkpt lat="44.49629" lon="1.39862">
        <ele>200.8</ele>
        <time>2025-05-29T09:00:36Z</time>
      </trkpt>
      <trkpt lat="44.49634" lon="1.39857">
        <ele>200.2</ele>
        <time>2025-05-29T09:00:37Z</time>
      </trkpt>
      <trkpt lat="44.4964" lon="1.39853">
        <ele>199.4</ele>
        <time>2025-05-29T09:00:38Z</time>
      </trkpt>
      <trkpt lat="44.49646" lon="1.39848">
        <ele>198.8</ele>
        <time>2025-05-29T09:00:39Z</time>
      </trkpt>
      <trkpt lat="44.49651" lon="1.39843">
        <ele>198.2</ele>
        <time>2025-05-29T09:00:40Z</time>
      </trkpt>
      <trkpt lat="44.49657" lon="1.39839">
        <ele>197.6</ele>
        <time>2025-05-29T09:00:41Z</time>
      </trkpt>
      <trkpt lat="44.49663" lon="1.39834">
        <ele>197</ele>
        <time>2025-05-29T09:00:42Z</time>
      </trkpt>
      <trkpt lat="44.49669" lon="1.39829">
        <ele>196.6</ele>
        <time>2025-05-29T09:00:43Z</time>
      </trkpt>
      <trkpt lat="44.49675" lon="1.39824">
        <ele>196</ele>
        <time>2025-05-29T09:00:44Z</time>
      </trkpt>
      <trkpt lat="44.49681" lon="1.39818">
        <ele>195.6</ele>
        <time>2025-05-29T09:00:45Z</time>
      </trkpt>
      <trkpt lat="44.49688" lon="1.39813">
        <ele>195</ele>
        <time>2025-05-29T09:00:46Z</time>
      </trkpt>
      <trkpt lat="44.49694" lon="1.39809">
        <ele>194.4</ele>
        <time>2025-05-29T09:00:47Z</time>
      </trkpt>
      <trkpt lat="44.49701" lon="1.39804">
        <ele>193.8</ele>
        <time>2025-05-29T09:00:48Z</time>
      </trkpt>
      <trkpt lat="44.49709" lon="1.39799">
        <ele>192.8</ele>
        <time>2025-05-29T09:00:49Z</time>
      </trkpt>
      <trkpt lat="44.49718" lon="1.39795">
        <ele>192</ele>
        <time>2025-05-29T09:00:50Z</time>
      </trkpt>
      <trkpt lat="44.49727" lon="1.39793">
        <ele>191</ele>
        <time>2025-05-29T09:00:51Z</time>
      </trkpt>
      <trkpt lat="44.49737" lon="1.3979">
        <ele>189.6</ele>
        <time>2025-05-29T09:00:52Z</time>
      </trkpt>
      <trkpt lat="44.49746" lon="1.39787">
        <ele>188.2</ele>
        <time>2025-05-29T09:00:53Z</time>
      </trkpt>
      <trkpt lat="44.49755" lon="1.39783">
        <ele>186.6</ele>
        <time>2025-05-29T09:00:54Z</time>
      </trkpt>
      <trkpt lat="44.49763" lon="1.39777">
        <ele>185.4</ele>
        <time>2025-05-29T09:00:55Z</time>
      </trkpt>
      <trkpt lat="44.49771" lon="1.39771">
        <ele>184.4</ele>
        <time>2025-05-29T09:00:56Z</time>
      </trkpt>
      <trkpt lat="44.49778" lon="1.39762">
        <ele>183.4</ele>
        <time>2025-05-29T09:00:57Z</time>
      </trkpt>
      <trkpt lat="44.49784" lon="1.39752">
        <ele>182.4</ele>
        <time>2025-05-29T09:00:58Z</time>
      </trkpt>
      <trkpt lat="44.4979" lon="1.3974">
        <ele>181.4</ele>
        <time>2025-05-29T09:00:59Z</time>
      </trkpt>
      <trkpt lat="44.49795" lon="1.3973">
        <ele>180</ele>
        <time>2025-05-29T09:01:00Z</time>
      </trkpt>
      <trkpt lat="44.498" lon="1.39719">
        <ele>179</ele>
        <time>2025-05-29T09:01:01Z</time>
      </trkpt>
      <trkpt lat="44.49806" lon="1.39708">
        <ele>178</ele>
        <time>2025-05-29T09:01:02Z</time>
      </trkpt>
      <trkpt lat="44.49811" lon="1.39696">
        <ele>176.6</ele>
        <time>2025-05-29T09:01:03Z</time>
      </trkpt>
      <trkpt lat="44.49816" lon="1.39686">
        <ele>175.4</ele>
        <time>2025-05-29T09:01:04Z</time>
      </trkpt>
      <trkpt lat="44.49821" lon="1.39675">
        <ele>174.2</ele>
        <time>2025-05-29T09:01:05Z</time>
      </trkpt>
      <trkpt lat="44.49826" lon="1.39663">
        <ele>172.8</ele>
        <time>2025-05-29T09:01:06Z</time>
      </trkpt>
      <trkpt lat="44.49831" lon="1.39651">
        <ele>171.8</ele>
        <time>2025-05-29T09:01:07Z</time>
      </trkpt>
      <trkpt lat="44.49837" lon="1.3964">
        <ele>171.2</ele>
        <time>2025-05-29T09:01:08Z</time>
      </trkpt>
      <trkpt lat="44.49843" lon="1.39628">
        <ele>170.4</ele>
        <time>2025-05-29T09:01:09Z</time>
      </trkpt>
      <trkpt lat="44.49848" lon="1.39616">
        <ele>169.8</ele>
        <time>2025-05-29T09:01:10Z</time>
      </trkpt>
      <trkpt lat="44.49854" lon="1.39604">
        <ele>168.8</ele>
        <time>2025-05-29T09:01:11Z</time>
      </trkpt>
      <trkpt lat="44.4986" lon="1.39591">
        <ele>168</ele>
        <time>2025-05-29T09:01:12Z</time>
      </trkpt>
      <trkpt lat="44.49865" lon="1.39579">
        <ele>167.2</ele>
        <time>2025-05-29T09:01:13Z</time>
      </trkpt>
      <trkpt lat="44.4987" lon="1.39567">
        <ele>166.4</ele>
        <time>2025-05-29T09:01:14Z</time>
      </trkpt>
      <trkpt lat="44.49875" lon="1.39557">
        <ele>165.8</ele>
        <time>2025-05-29T09:01:15Z</time>
      </trkpt>
      <trkpt lat="44.49879" lon="1.39548">
        <ele>165.6</ele>
        <time>2025-05-29T09:01:16Z</time>
      </trkpt>
      <trkpt lat="44.49881" lon="1.39539">
        <ele>165.6</ele>
        <time>2025-05-29T09:01:17Z</time>
      </trkpt>
      <trkpt lat="44.49884" lon="1.3953">
        <ele>165.8</ele>
        <time>2025-05-29T09:01:18Z</time>
      </trkpt>
      <trkpt lat="44.49885" lon="1.39521">
        <ele>166</ele>
        <time>2025-05-29T09:01:19Z</time>
      </trkpt>
      <trkpt lat="44.49886" lon="1.39512">
        <ele>166</ele>
        <time>2025-05-29T09:01:20Z</time>
      </trkpt>
      <trkpt lat="44.49886" lon="1.39504">
        <ele>166.2</ele>
        <time>2025-05-29T09:01:21Z</time>
      </trkpt>
      <trkpt lat="44.49886" lon="1.39495">
        <ele>166.2</ele>
        <time>2025-05-29T09:01:22Z</time>
      </trkpt>
      <trkpt lat="44.49886" lon="1.39488">
        <ele>166</ele>
        <time>2025-05-29T09:01:23Z</time>
      </trkpt>
      <trkpt lat="44.49886" lon="1.39481">
        <ele>166</ele>
        <time>2025-05-29T09:01:24Z</time>
      </trkpt>
      <trkpt lat="44.49886" lon="1.39476">
        <ele>165.8</ele>
        <time>2025-05-29T09:01:25Z</time>
      </trkpt>
      <trkpt lat="44.49889" lon="1.39472">
        <ele>165.8</ele>
        <time>2025-05-29T09:01:26Z</time>
      </trkpt>
      <trkpt lat="44.49891" lon="1.39472">
        <ele>166</ele>
        <time>2025-05-29T09:01:27Z</time>
      </trkpt>
      <trkpt lat="44.49893" lon="1.39474">
        <ele>166.2</ele>
        <time>2025-05-29T09:01:28Z</time>
      </trkpt>
      <trkpt lat="44.49895" lon="1.39475">
        <ele>166.4</ele>
        <time>2025-05-29T09:01:29Z</time>
      </trkpt>
      <trkpt lat="44.49896" lon="1.39477">
        <ele>166.6</ele>
        <time>2025-05-29T09:01:30Z</time>
      </trkpt>
      <trkpt lat="44.49899" lon="1.39479">
        <ele>166.8</ele>
        <time>2025-05-29T09:01:31Z</time>
      </trkpt>
      <trkpt lat="44.49901" lon="1.39481">
        <ele>166.8</ele>
        <time>2025-05-29T09:01:32Z</time>
      </trkpt>
      <trkpt lat="44.49903" lon="1.39483">
        <ele>167</ele>
        <time>2025-05-29T09:01:33Z</time>
      </trkpt>
      <trkpt lat="44.49906" lon="1.39485">
        <ele>167</ele>
        <time>2025-05-29T09:01:34Z</time>
      </trkpt>
      <trkpt lat="44.49908" lon="1.39487">
        <ele>167.2</ele>
        <time>2025-05-29T09:01:35Z</time>
      </trkpt>
      <trkpt lat="44.4991" lon="1.39489">
        <ele>167.2</ele>
        <time>2025-05-29T09:01:36Z</time>
      </trkpt>
      <trkpt lat="44.49912" lon="1.39492">
        <ele>167.4</ele>
        <time>2025-05-29T09:01:37Z</time>
      </trkpt>
      <trkpt lat="44.49915" lon="1.39494">
        <ele>167.6</ele>
        <time>2025-05-29T09:01:38Z</time>
      </trkpt>
      <trkpt lat="44.49917" lon="1.39496">
        <ele>167.6</ele>
        <time>2025-05-29T09:01:39Z</time>
      </trkpt>
      <trkpt lat="44.4992" lon="1.39498">
        <ele>167.8</ele>
        <time>2025-05-29T09:01:40Z</time>
      </trkpt>
      <trkpt lat="44.49922" lon="1.395">
        <ele>167.8</ele>
        <time>2025-05-29T09:01:41Z</time>
      </trkpt>
      <trkpt lat="44.49924" lon="1.39502">
        <ele>168</ele>
        <time>2025-05-29T09:01:42Z</time>
      </trkpt>
      <trkpt lat="44.49926" lon="1.39504">
        <ele>168.2</ele>
        <time>2025-05-29T09:01:43Z</time>
      </trkpt>
      <trkpt lat="44.49928" lon="1.39507">
        <ele>168.4</ele>
        <time>2025-05-29T09:01:44Z</time>
      </trkpt>
      <trkpt lat="44.4993" lon="1.3951">
        <ele>168.6</ele>
        <time>2025-05-29T09:01:45Z</time>
      </trkpt>
      <trkpt lat="44.49932" lon="1.39513">
        <ele>168.8</ele>
        <time>2025-05-29T09:01:46Z</time>
      </trkpt>
      <trkpt lat="44.49934" lon="1.39515">
        <ele>169</ele>
        <time>2025-05-29T09:01:47Z</time>
      </trkpt>
      <trkpt lat="44.49936" lon="1.39519">
        <ele>169.2</ele>
        <time>2025-05-29T09:01:48Z</time>
      </trkpt>
      <trkpt lat="44.49937" lon="1.39521">
        <ele>169.2</ele>
        <time>2025-05-29T09:01:49Z</time>
      </trkpt>
      <trkpt lat="44.49939" lon="1.39524">
        <ele>169.4</ele>
        <time>2025-05-29T09:01:50Z</time>
      </trkpt>
      <trkpt lat="44.49941" lon="1.39526">
        <ele>169.6</ele>
        <time>2025-05-29T09:01:51Z</time>
      </trkpt>
      <trkpt lat="44.49943" lon="1.39529">
        <ele>169.8</ele>
        <time>2025-05-29T09:01:52Z</time>
      </trkpt>
      <trkpt lat="44.49944" lon="1.39532">
        <ele>169.8</ele>
        <time>2025-05-29T09:01:53Z</time>
      </trkpt>
      <trkpt lat="44.49946" lon="1.39535">
        <ele>170</ele>
        <time>2025-05-29T09:01:54Z</time>
      </trkpt>
      <trkpt lat="44.49948" lon="1.39538">
        <ele>170</ele>
        <time>2025-05-29T09:01:55Z</time>
      </trkpt>
      <trkpt lat="44.4995" lon="1.39541">
        <ele>170</ele>
        <time>2025-05-29T09:01:56Z</time>
      </trkpt>
      <trkpt lat="44.49952" lon="1.39544">
        <ele>170.2</ele>
        <time>2025-05-29T09:01:57Z</time>
      </trkpt>
      <trkpt lat="44.49953" lon="1.39547">
        <ele>170.4</ele>
        <time>2025-05-29T09:01:58Z</time>
      </trkpt>
      <trkpt lat="44.49955" lon="1.3955">
        <ele>170.4</ele>
        <time>2025-05-29T09:01:59Z</time>
      </trkpt>
      <trkpt lat="44.49956" lon="1.39553">
        <ele>170.8</ele>
        <time>2025-05-29T09:02:00Z</time>
      </trkpt>
      <trkpt lat="44.49958" lon="1.39556">
        <ele>171</ele>
        <time>2025-05-29T09:02:01Z</time>
      </trkpt>
      <trkpt lat="44.4996" lon="1.39559">
        <ele>171.2</ele>
        <time>2025-05-29T09:02:02Z</time>
      </trkpt>
      <trkpt lat="44.49961" lon="1.39562">
        <ele>171.4</ele>
        <time>2025-05-29T09:02:03Z</time>
      </trkpt>
      <trkpt lat="44.49963" lon="1.39565">
        <ele>171.8</ele>
        <time>2025-05-29T09:02:04Z</time>
      </trkpt>
      <trkpt lat="44.49964" lon="1.39569">
        <ele>172</ele>
        <time>2025-05-29T09:02:05Z</time>
      </trkpt>
      <trkpt lat="44.49966" lon="1.39572">
        <ele>172</ele>
        <time>2025-05-29T09:02:06Z</time>
      </trkpt>
      <trkpt lat="44.49968" lon="1.39575">
        <ele>172.2</ele>
        <time>2025-05-29T09:02:07Z</time>
      </trkpt>
      <trkpt lat="44.49969" lon="1.39578">
        <ele>172.4</ele>
        <time>2025-05-29T09:02:08Z</time>
      </trkpt>
      <trkpt lat="44.4997" lon="1.39582">
        <ele>172.4</ele>
        <time>2025-05-29T09:02:09Z</time>
      </trkpt>
      <trkpt lat="44.49971" lon="1.39585">
        <ele>172.6</ele>
        <time>2025-05-29T09:02:10Z</time>
      </trkpt>
      <trkpt lat="44.49972" lon="1.39589">
        <ele>172.8</ele>
        <time>2025-05-29T09:02:11Z</time>
      </trkpt>
      <trkpt lat="44.49973" lon="1.39593">
        <ele>173</ele>
        <time>2025-05-29T09:02:12Z</time>
      </trkpt>
      <trkpt lat="44.49973" lon="1.39597">
        <ele>173</ele>
        <time>2025-05-29T09:02:13Z</time>
      </trkpt>
      <trkpt lat="44.49974" lon="1.39601">
        <ele>173.2</ele>
        <time>2025-05-29T09:02:14Z</time>
      </trkpt>
      <trkpt lat="44.49975" lon="1.39604">
        <ele>173.2</ele>
        <time>2025-05-29T09:02:15Z</time>
      </trkpt>
      <trkpt lat="44.49976" lon="1.39607">
        <ele>173.2</ele>
        <time>2025-05-29T09:02:16Z</time>
      </trkpt>
      <trkpt lat="44.49977" lon="1.3961">
        <ele>173.2</ele>
        <time>2025-05-29T09:02:17Z</time>
      </trkpt>
      <trkpt lat="44.49977" lon="1.39615">
        <ele>173.2</ele>
        <time>2025-05-29T09:02:18Z</time>
      </trkpt>
      <trkpt lat="44.49978" lon="1.39619">
        <ele>173.2</ele>
        <time>2025-05-29T09:02:19Z</time>
      </trkpt>
      <trkpt lat="44.49979" lon="1.39622">
        <ele>173.4</ele>
        <time>2025-05-29T09:02:20Z</time>
      </trkpt>
      <trkpt lat="44.4998" lon="1.39626">
        <ele>173.6</ele>
        <time>2025-05-29T09:02:21Z</time>
      </trkpt>
      <trkpt lat="44.49981" lon="1.3963">
        <ele>174</ele>
        <time>2025-05-29T09:02:22Z</time>
      </trkpt>
      <trkpt lat="44.49982" lon="1.39634">
        <ele>174.2</ele>
        <time>2025-05-29T09:02:23Z</time>
      </trkpt>
      <trkpt lat="44.49983" lon="1.39637">
        <ele>174.4</ele>
        <time>2025-05-29T09:02:24Z</time>
      </trkpt>
      <trkpt lat="44.49983" lon="1.39641">
        <ele>174.6</ele>
        <time>2025-05-29T09:02:25Z</time>
      </trkpt>
      <trkpt lat="44.49984" lon="1.39645">
        <ele>174.6</ele>
        <time>2025-05-29T09:02:26Z</time>
      </trkpt>
      <trkpt lat="44.49985" lon="1.39649">
        <ele>174.8</ele>
        <time>2025-05-29T09:02:27Z</time>
      </trkpt>
      <trkpt lat="44.49986" lon="1.39653">
        <ele>175</ele>
        <time>2025-05-29T09:02:28Z</time>
      </trkpt>
      <trkpt lat="44.49987" lon="1.39657">
        <ele>175.2</ele>
        <time>2025-05-29T09:02:29Z</time>
      </trkpt>
      <trkpt lat="44.49988" lon="1.3966">
        <ele>175.4</ele>
        <time>2025-05-29T09:02:30Z</time>
      </trkpt>
      <trkpt lat="44.49989" lon="1.39664">
        <ele>175.6</ele>
        <time>2025-05-29T09:02:31Z</time>
      </trkpt>
      <trkpt lat="44.4999" lon="1.39667">
        <ele>175.8</ele>
        <time>2025-05-29T09:02:32Z</time>
      </trkpt>
      <trkpt lat="44.49992" lon="1.3967">
        <ele>176</ele>
        <time>2025-05-29T09:02:33Z</time>
      </trkpt>
      <trkpt lat="44.49993" lon="1.39674">
        <ele>176.2</ele>
        <time>2025-05-29T09:02:34Z</time>
      </trkpt>
      <trkpt lat="44.49995" lon="1.39677">
        <ele>176.2</ele>
        <time>2025-05-29T09:02:35Z</time>
      </trkpt>
      <trkpt lat="44.49997" lon="1.3968">
        <ele>176.4</ele>
        <time>2025-05-29T09:02:36Z</time>
      </trkpt>
      <trkpt lat="44.49998" lon="1.39683">
        <ele>176.4</ele>
        <time>2025-05-29T09:02:37Z</time>
      </trkpt>
      <trkpt lat="44.5" lon="1.39686">
        <ele>176.4</ele>
        <time>2025-05-29T09:02:38Z</time>
      </trkpt>
      <trkpt lat="44.50002" lon="1.39688">
        <ele>176.6</ele>
        <time>2025-05-29T09:02:39Z</time>
      </trkpt>
      <trkpt lat="44.50005" lon="1.3969">
        <ele>176.8</ele>
        <time>2025-05-29T09:02:40Z</time>
      </trkpt>
      <trkpt lat="44.50007" lon="1.3969">
        <ele>176.8</ele>
        <time>2025-05-29T09:02:41Z</time>
      </trkpt>
      <trkpt lat="44.5001" lon="1.3969">
        <ele>177</ele>
        <time>2025-05-29T09:02:42Z</time>
      </trkpt>
      <trkpt lat="44.5001" lon="1.39691">
        <ele>177.4</ele>
        <time>2025-05-29T09:04:00Z</time>
      </trkpt>
      <trkpt lat="44.50009" lon="1.39694">
        <ele>177.2</ele>
        <time>2025-05-29T09:04:01Z</time>
      </trkpt>
      <trkpt lat="44.50008" lon="1.39696">
        <ele>177.2</ele>
        <time>2025-05-29T09:04:02Z</time>
      </trkpt>
      <trkpt lat="44.50008" lon="1.39699">
        <ele>177</ele>
        <time>2025-05-29T09:04:03Z</time>
      </trkpt>
      <trkpt lat="44.50007" lon="1.39702">
        <ele>177.2</ele>
        <time>2025-05-29T09:04:04Z</time>
      </trkpt>
      <trkpt lat="44.50006" lon="1.39705">
        <ele>177.2</ele>
        <time>2025-05-29T09:04:05Z</time>
      </trkpt>
      <trkpt lat="44.50006" lon="1.39708">
        <ele>177.4</ele>
        <time>2025-05-29T09:04:06Z</time>
      </trkpt>
      <trkpt lat="44.50005" lon="1.3971">
        <ele>177.6</ele>
        <time>2025-05-29T09:04:07Z</time>
      </trkpt>
      <trkpt lat="44.50004" lon="1.39712">
        <ele>177.8</ele>
        <time>2025-05-29T09:04:08Z</time>
      </trkpt>
      <trkpt lat="44.50004" lon="1.39714">
        <ele>178</ele>
        <time>2025-05-29T09:04:09Z</time>
      </trkpt>
      <trkpt lat="44.50003" lon="1.39717">
        <ele>178.2</ele>
        <time>2025-05-29T09:04:10Z</time>
      </trkpt>
      <trkpt lat="44.50002" lon="1.39719">
        <ele>178.4</ele>
        <time>2025-05-29T09:04:11Z</time>
      </trkpt>
      <trkpt lat="44.50002" lon="1.39722">
        <ele>178.4</ele>
        <time>2025-05-29T09:04:12Z</time>
      </trkpt>
      <trkpt lat="44.50001" lon="1.39724">
        <ele>178.6</ele>
        <time>2025-05-29T09:04:13Z</time>
      </trkpt>
      <trkpt lat="44.5" lon="1.39726">
        <ele>178.8</ele>
        <time>2025-05-29T09:04:14Z</time>
      </trkpt>
      <trkpt lat="44.49999" lon="1.39728">
        <ele>178.8</ele>
        <time>2025-05-29T09:04:15Z</time>
      </trkpt>
      <trkpt lat="44.49998" lon="1.39731">
        <ele>179</ele>
        <time>2025-05-29T09:04:16Z</time>
      </trkpt>
      <trkpt lat="44.49998" lon="1.39733">
        <ele>179.2</ele>
        <time>2025-05-29T09:04:17Z</time>
      </trkpt>
      <trkpt lat="44.49997" lon="1.39736">
        <ele>179.4</ele>
        <time>2025-05-29T09:04:18Z</time>
      </trkpt>
      <trkpt lat="44.49996" lon="1.39738">
        <ele>179.6</ele>
        <time>2025-05-29T09:04:19Z</time>
      </trkpt>
      <trkpt lat="44.49995" lon="1.39741">
        <ele>179.8</ele>
        <time>2025-05-29T09:04:20Z</time>
      </trkpt>
      <trkpt lat="44.49994" lon="1.39743">
        <ele>180</ele>
        <time>2025-05-29T09:04:21Z</time>
      </trkpt>
      <trkpt lat="44.49993" lon="1.39745">
        <ele>180</ele>
        <time>2025-05-29T09:04:22Z</time>
      </trkpt>
      <trkpt lat="44.49992" lon="1.39748">
        <ele>180.2</ele>
        <time>2025-05-29T09:04:23Z</time>
      </trkpt>
      <trkpt lat="44.49991" lon="1.3975">
        <ele>180.4</ele>
        <time>2025-05-29T09:04:24Z</time>
      </trkpt>
      <trkpt lat="44.4999" lon="1.39752">
        <ele>180.6</ele>
        <time>2025-05-29T09:04:25Z</time>
      </trkpt>
      <trkpt lat="44.49989" lon="1.39755">
        <ele>180.6</ele>
        <time>2025-05-29T09:04:26Z</time>
      </trkpt>
      <trkpt lat="44.49989" lon="1.39757">
        <ele>180.8</ele>
        <time>2025-05-29T09:04:27Z</time>
      </trkpt>
      <trkpt lat="44.49988" lon="1.3976">
        <ele>181</ele>
        <time>2025-05-29T09:04:28Z</time>
      </trkpt>
      <trkpt lat="44.49988" lon="1.39762">
        <ele>181</ele>
        <time>2025-05-29T09:04:29Z</time>
      </trkpt>
      <trkpt lat="44.49986" lon="1.39764">
        <ele>181.2</ele>
        <time>2025-05-29T09:04:30Z</time>
      </trkpt>
      <trkpt lat="44.49986" lon="1.39767">
        <ele>181.4</ele>
        <time>2025-05-29T09:04:31Z</time>
      </trkpt>
      <trkpt lat="44.49985" lon="1.39769">
        <ele>181.6</ele>
        <time>2025-05-29T09:04:32Z</time>
      </trkpt>
      <trkpt lat="44.49984" lon="1.39771">
        <ele>181.6</ele>
        <time>2025-05-29T09:04:33Z</time>
      </trkpt>
      <trkpt lat="44.49983" lon="1.39774">
        <ele>181.8</ele>
        <time>2025-05-29T09:04:34Z</time>
      </trkpt>
      <trkpt lat="44.49982" lon="1.39776">
        <ele>182</ele>
        <time>2025-05-29T09:04:35Z</time>
      </trkpt>
      <trkpt lat="44.49981" lon="1.39779">
        <ele>182</ele>
        <time>2025-05-29T09:04:36Z</time>
      </trkpt>
      <trkpt lat="44.49981" lon="1.39781">
        <ele>182.2</ele>
        <time>2025-05-29T09:04:37Z</time>
      </trkpt>
      <trkpt lat="44.4998" lon="1.39783">
        <ele>182.4</ele>
        <time>2025-05-29T09:04:38Z</time>
      </trkpt>
      <trkpt lat="44.4998" lon="1.39786">
        <ele>182.6</ele>
        <time>2025-05-29T09:04:39Z</time>
      </trkpt>
      <trkpt lat="44.49979" lon="1.39788">
        <ele>182.8</ele>
        <time>2025-05-29T09:04:40Z</time>
      </trkpt>
      <trkpt lat="44.49978" lon="1.39791">
        <ele>183</ele>
        <time>2025-05-29T09:04:41Z</time>
      </trkpt>
      <trkpt lat="44.49978" lon="1.39794">
        <ele>183.2</ele>
        <time>2025-05-29T09:04:42Z</time>
      </trkpt>
      <trkpt lat="44.49977" lon="1.39796">
        <ele>183.4</ele>
        <time>2025-05-29T09:04:43Z</time>
      </trkpt>
      <trkpt lat="44.49977" lon="1.39799">
        <ele>183.6</ele>
        <time>2025-05-29T09:04:44Z</time>
      </trkpt>
      <trkpt lat="44.49976" lon="1.39802">
        <ele>183.8</ele>
        <time>2025-05-29T09:04:45Z</time>
      </trkpt>
      <trkpt lat="44.49976" lon="1.39804">
        <ele>184</ele>
        <time>2025-05-29T09:04:46Z</time>
      </trkpt>
      <trkpt lat="44.49975" lon="1.39807">
        <ele>184.2</ele>
        <time>2025-05-29T09:04:47Z</time>
      </trkpt>
      <trkpt lat="44.49975" lon="1.39809">
        <ele>184.4</ele>
        <time>2025-05-29T09:04:48Z</time>
      </trkpt>
      <trkpt lat="44.49974" lon="1.39812">
        <ele>184.6</ele>
        <time>2025-05-29T09:04:49Z</time>
      </trkpt>
      <trkpt lat="44.49974" lon="1.39815">
        <ele>184.6</ele>
        <time>2025-05-29T09:04:50Z</time>
      </trkpt>
      <trkpt lat="44.49973" lon="1.39817">
        <ele>184.8</ele>
        <time>2025-05-29T09:04:51Z</time>
      </trkpt>
      <trkpt lat="44.49973" lon="1.39821">
        <ele>185</ele>
        <time>2025-05-29T09:04:52Z</time>
      </trkpt>
      <trkpt lat="44.49972" lon="1.39823">
        <ele>185.2</ele>
        <time>2025-05-29T09:04:53Z</time>
      </trkpt>
      <trkpt lat="44.49971" lon="1.39826">
        <ele>185.2</ele>
        <time>2025-05-29T09:04:54Z</time>
      </trkpt>
      <trkpt lat="44.49971" lon="1.39828">
        <ele>185.4</ele>
        <time>2025-05-29T09:04:55Z</time>
      </trkpt>
      <trkpt lat="44.49971" lon="1.39831">
        <ele>185.6</ele>
        <time>2025-05-29T09:04:56Z</time>
      </trkpt>
      <trkpt lat="44.49971" lon="1.39833">
        <ele>185.8</ele>
        <time>2025-05-29T09:04:57Z</time>
      </trkpt>
      <trkpt lat="44.49971" lon="1.39836">
        <ele>185.8</ele>
        <time>2025-05-29T09:04:58Z</time>
      </trkpt>
      <trkpt lat="44.4997" lon="1.39838">
        <ele>186</ele>
        <time>2025-05-29T09:04:59Z</time>
      </trkpt>
      <trkpt lat="44.49971" lon="1.39841">
        <ele>186</ele>
        <time>2025-05-29T09:05:00Z</time>
      </trkpt>
      <trkpt lat="44.49971" lon="1.39843">
        <ele>186.2</ele>
        <time>2025-05-29T09:05:01Z</time>
      </trkpt>
      <trkpt lat="44.49971" lon="1.39846">
        <ele>186.4</ele>
        <time>2025-05-29T09:05:02Z</time>
      </trkpt>
      <trkpt lat="44.49971" lon="1.39849">
        <ele>186.6</ele>
        <time>2025-05-29T09:05:03Z</time>
      </trkpt>
      <trkpt lat="44.4997" lon="1.39851">
        <ele>186.6</ele>
        <time>2025-05-29T09:05:04Z</time>
      </trkpt>
      <trkpt lat="44.4997" lon="1.39854">
        <ele>186.8</ele>
        <time>2025-05-29T09:05:05Z</time>
      </trkpt>
      <trkpt lat="44.4997" lon="1.39857">
        <ele>187</ele>
        <time>2025-05-29T09:05:06Z</time>
      </trkpt>
      <trkpt lat="44.4997" lon="1.3986">
        <ele>187.2</ele>
        <time>2025-05-29T09:05:07Z</time>
      </trkpt>
      <trkpt lat="44.4997" lon="1.39863">
        <ele>187.4</ele>
        <time>2025-05-29T09:05:08Z</time>
      </trkpt>
      <trkpt lat="44.4997" lon="1.39866">
        <ele>187.4</ele>
        <time>2025-05-29T09:05:09Z</time>
      </trkpt>
      <trkpt lat="44.4997" lon="1.39869">
        <ele>187.4</ele>
        <time>2025-05-29T09:05:10Z</time>
      </trkpt>
      <trkpt lat="44.4997" lon="1.39872">
        <ele>187.6</ele>
        <time>2025-05-29T09:05:11Z</time>
      </trkpt>
      <trkpt lat="44.4997" lon="1.39875">
        <ele>187.6</ele>
        <time>2025-05-29T09:05:12Z</time>
      </trkpt>
      <trkpt lat="44.4997" lon="1.39878">
        <ele>187.6</ele>
        <time>2025-05-29T09:05:13Z</time>
      </trkpt>
      <trkpt lat="44.4997" lon="1.39881">
        <ele>187.6</ele>
        <time>2025-05-29T09:05:14Z</time>
      </trkpt>
      <trkpt lat="44.49971" lon="1.39883">
        <ele>187.6</ele>
        <time>2025-05-29T09:05:15Z</time>
      </trkpt>
      <trkpt lat="44.49971" lon="1.39886">
        <ele>187.8</ele>
        <time>2025-05-29T09:05:16Z</time>
      </trkpt>
      <trkpt lat="44.49972" lon="1.39888">
        <ele>187.8</ele>
        <time>2025-05-29T09:05:17Z</time>
      </trkpt>
      <trkpt lat="44.49972" lon="1.3989">
        <ele>188</ele>
        <time>2025-05-29T09:05:18Z</time>
      </trkpt>
      <trkpt lat="44.49972" lon="1.39892">
        <ele>188.2</ele>
        <time>2025-05-29T09:05:19Z</time>
      </trkpt>
      <trkpt lat="44.49973" lon="1.39895">
        <ele>188.4</ele>
        <time>2025-05-29T09:05:20Z</time>
      </trkpt>
      <trkpt lat="44.49973" lon="1.39898">
        <ele>188.6</ele>
        <time>2025-05-29T09:05:21Z</time>
      </trkpt>
      <trkpt lat="44.49974" lon="1.399">
        <ele>188.8</ele>
        <time>2025-05-29T09:05:22Z</time>
      </trkpt>
      <trkpt lat="44.49975" lon="1.39903">
        <ele>188.8</ele>
        <time>2025-05-29T09:05:23Z</time>
      </trkpt>
      <trkpt lat="44.49976" lon="1.39906">
        <ele>189</ele>
        <time>2025-05-29T09:05:24Z</time>
      </trkpt>
      <trkpt lat="44.49977" lon="1.39908">
        <ele>189.2</ele>
        <time>2025-05-29T09:05:25Z</time>
      </trkpt>
      <trkpt lat="44.49977" lon="1.3991">
        <ele>189.4</ele>
        <time>2025-05-29T09:05:26Z</time>
      </trkpt>
      <trkpt lat="44.49978" lon="1.39913">
        <ele>189.6</ele>
        <time>2025-05-29T09:05:27Z</time>
      </trkpt>
      <trkpt lat="44.49978" lon="1.39916">
        <ele>189.6</ele>
        <time>2025-05-29T09:05:28Z</time>
      </trkpt>
      <trkpt lat="44.49979" lon="1.39918">
        <ele>189.8</ele>
        <time>2025-05-29T09:05:29Z</time>
      </trkpt>
      <trkpt lat="44.49979" lon="1.39921">
        <ele>190</ele>
        <time>2025-05-29T09:05:30Z</time>
      </trkpt>
      <trkpt lat="44.49979" lon="1.39923">
        <ele>190.2</ele>
        <time>2025-05-29T09:05:31Z</time>
      </trkpt>
      <trkpt lat="44.4998" lon="1.39925">
        <ele>190.4</ele>
        <time>2025-05-29T09:05:32Z</time>
      </trkpt>
      <trkpt lat="44.4998" lon="1.39928">
        <ele>190.6</ele>
        <time>2025-05-29T09:05:33Z</time>
      </trkpt>
      <trkpt lat="44.49981" lon="1.3993">
        <ele>190.8</ele>
        <time>2025-05-29T09:05:34Z</time>
      </trkpt>
      <trkpt lat="44.49982" lon="1.39932">
        <ele>191</ele>
        <time>2025-05-29T09:05:35Z</time>
      </trkpt>
      <trkpt lat="44.49983" lon="1.39934">
        <ele>191.2</ele>
        <time>2025-05-29T09:05:36Z</time>
      </trkpt>
      <trkpt lat="44.49984" lon="1.39937">
        <ele>191.2</ele>
        <time>2025-05-29T09:05:37Z</time>
      </trkpt>
      <trkpt lat="44.49984" lon="1.39939">
        <ele>191.4</ele>
        <time>2025-05-29T09:05:38Z</time>
      </trkpt>
      <trkpt lat="44.49985" lon="1.39941">
        <ele>191.6</ele>
        <time>2025-05-29T09:05:39Z</time>
      </trkpt>
      <trkpt lat="44.49986" lon="1.39943">
        <ele>191.6</ele>
        <time>2025-05-29T09:05:40Z</time>
      </trkpt>
      <trkpt lat="44.49986" lon="1.39945">
        <ele>191.8</ele>
        <time>2025-05-29T09:05:41Z</time>
      </trkpt>
      <trkpt lat="44.49987" lon="1.39947">
        <ele>192</ele>
        <time>2025-05-29T09:05:42Z</time>
      </trkpt>
      <trkpt lat="44.49988" lon="1.39949">
        <ele>192.2</ele>
        <time>2025-05-29T09:05:43Z</time>
      </trkpt>
      <trkpt lat="44.49989" lon="1.39951">
        <ele>192.4</ele>
        <time>2025-05-29T09:05:44Z</time>
      </trkpt>
      <trkpt lat="44.4999" lon="1.39953">
        <ele>192.6</ele>
        <time>2025-05-29T09:05:45Z</time>
      </trkpt>
      <trkpt lat="44.49991" lon="1.39955">
        <ele>192.8</ele>
        <time>2025-05-29T09:05:46Z</time>
      </trkpt>
      <trkpt lat="44.49992" lon="1.39957">
        <ele>193.2</ele>
        <time>2025-05-29T09:05:47Z</time>
      </trkpt>
      <trkpt lat="44.49994" lon="1.39959">
        <ele>193.4</ele>
        <time>2025-05-29T09:05:48Z</time>
      </trkpt>
      <trkpt lat="44.49994" lon="1.3996">
        <ele>193.6</ele>
        <time>2025-05-29T09:05:49Z</time>
      </trkpt>
      <trkpt lat="44.49995" lon="1.39962">
        <ele>193.8</ele>
        <time>2025-05-29T09:05:50Z</time>
      </trkpt>
      <trkpt lat="44.49996" lon="1.39964">
        <ele>194.2</ele>
        <time>2025-05-29T09:05:51Z</time>
      </trkpt>
      <trkpt lat="44.49997" lon="1.39966">
        <ele>194.4</ele>
        <time>2025-05-29T09:05:52Z</time>
      </trkpt>
      <trkpt lat="44.49998" lon="1.39969">
        <ele>194.6</ele>
        <time>2025-05-29T09:05:53Z</time>
      </trkpt>
      <trkpt lat="44.49998" lon="1.39971">
        <ele>194.8</ele>
        <time>2025-05-29T09:05:54Z</time>
      </trkpt>
      <trkpt lat="44.49999" lon="1.39973">
        <ele>195.2</ele>
        <time>2025-05-29T09:05:55Z</time>
      </trkpt>
      <trkpt lat="44.49999" lon="1.39976">
        <ele>195.4</ele>
        <time>2025-05-29T09:05:56Z</time>
      </trkpt>
      <trkpt lat="44.5" lon="1.39978">
        <ele>195.6</ele>
        <time>2025-05-29T09:05:57Z</time>
      </trkpt>
      <trkpt lat="44.50001" lon="1.39981">
        <ele>195.8</ele>
        <time>2025-05-29T09:05:58Z</time>
      </trkpt>
      <trkpt lat="44.50001" lon="1.39983">
        <ele>196</ele>
        <time>2025-05-29T09:05:59Z</time>
      </trkpt>
      <trkpt lat="44.50002" lon="1.39986">
        <ele>196.2</ele>
        <time>2025-05-29T09:06:00Z</time>
      </trkpt>
      <trkpt lat="44.50002" lon="1.39989">
        <ele>196.4</ele>
        <time>2025-05-29T09:06:01Z</time>
      </trkpt>
      <trkpt lat="44.50003" lon="1.39991">
        <ele>196.6</ele>
        <time>2025-05-29T09:06:02Z</time>
      </trkpt>
      <trkpt lat="44.50003" lon="1.39994">
        <ele>196.8</ele>
        <time>2025-05-29T09:06:03Z</time>
      </trkpt>
      <trkpt lat="44.50004" lon="1.39996">
        <ele>197</ele>
        <time>2025-05-29T09:06:04Z</time>
      </trkpt>
      <trkpt lat="44.50004" lon="1.39999">
        <ele>197.2</ele>
        <time>2025-05-29T09:06:05Z</time>
      </trkpt>
      <trkpt lat="44.50005" lon="1.40001">
        <ele>197.2</ele>
        <time>2025-05-29T09:06:06Z</time>
      </trkpt>
      <trkpt lat="44.50005" lon="1.40004">
        <ele>197.4</ele>
        <time>2025-05-29T09:06:07Z</time>
      </trkpt>
      <trkpt lat="44.50006" lon="1.40006">
        <ele>197.6</ele>
        <time>2025-05-29T09:06:08Z</time>
      </trkpt>
      <trkpt lat="44.50006" lon="1.40009">
        <ele>197.8</ele>
        <time>2025-05-29T09:06:09Z</time>
      </trkpt>
      <trkpt lat="44.50007" lon="1.40011">
        <ele>198</ele>
        <time>2025-05-29T09:06:10Z</time>
      </trkpt>
      <trkpt lat="44.50008" lon="1.40014">
        <ele>198</ele>
        <time>2025-05-29T09:06:11Z</time>
      </trkpt>
      <trkpt lat="44.50008" lon="1.40016">
        <ele>198.2</ele>
        <time>2025-05-29T09:06:12Z</time>
      </trkpt>
      <trkpt lat="44.50009" lon="1.40018">
        <ele>198.2</ele>
        <time>2025-05-29T09:06:13Z</time>
      </trkpt>
      <trkpt lat="44.5001" lon="1.40021">
        <ele>198.4</ele>
        <time>2025-05-29T09:06:14Z</time>
      </trkpt>
      <trkpt lat="44.5001" lon="1.40023">
        <ele>198.6</ele>
        <time>2025-05-29T09:06:15Z</time>
      </trkpt>
      <trkpt lat="44.5001" lon="1.40026">
        <ele>198.8</ele>
        <time>2025-05-29T09:06:16Z</time>
      </trkpt>
      <trkpt lat="44.5001" lon="1.40028">
        <ele>198.8</ele>
        <time>2025-05-29T09:06:17Z</time>
      </trkpt>
      <trkpt lat="44.50011" lon="1.40031">
        <ele>199</ele>
        <time>2025-05-29T09:06:18Z</time>
      </trkpt>
      <trkpt lat="44.50011" lon="1.40033">
        <ele>199.2</ele>
        <time>2025-05-29T09:06:19Z</time>
      </trkpt>
      <trkpt lat="44.50011" lon="1.40036">
        <ele>199.2</ele>
        <time>2025-05-29T09:06:20Z</time>
      </trkpt>
      <trkpt lat="44.50012" lon="1.40038">
        <ele>199.4</ele>
        <time>2025-05-29T09:06:21Z</time>
      </trkpt>
      <trkpt lat="44.50012" lon="1.4004">
        <ele>199.6</ele>
        <time>2025-05-29T09:06:22Z</time>
      </trkpt>
      <trkpt lat="44.50012" lon="1.40042">
        <ele>199.8</ele>
        <time>2025-05-29T09:06:23Z</time>
      </trkpt>
      <trkpt lat="44.50012" lon="1.40045">
        <ele>200</ele>
        <time>2025-05-29T09:06:24Z</time>
      </trkpt>
      <trkpt lat="44.50013" lon="1.40048">
        <ele>200.2</ele>
        <time>2025-05-29T09:06:25Z</time>
      </trkpt>
      <trkpt lat="44.50013" lon="1.4005">
        <ele>200.4</ele>
        <time>2025-05-29T09:06:26Z</time>
      </trkpt>
      <trkpt lat="44.50013" lon="1.40053">
        <ele>200.6</ele>
        <time>2025-05-29T09:06:27Z</time>
      </trkpt>
      <trkpt lat="44.50013" lon="1.40056">
        <ele>200.8</ele>
        <time>2025-05-29T09:06:28Z</time>
      </trkpt>
      <trkpt lat="44.50014" lon="1.40058">
        <ele>201</ele>
        <time>2025-05-29T09:06:29Z</time>
      </trkpt>
      <trkpt lat="44.50014" lon="1.4006">
        <ele>201.2</ele>
        <time>2025-05-29T09:06:30Z</time>
      </trkpt>
      <trkpt lat="44.50014" lon="1.40063">
        <ele>201.4</ele>
        <time>2025-05-29T09:06:31Z</time>
      </trkpt>
      <trkpt lat="44.50014" lon="1.40065">
        <ele>201.6</ele>
        <time>2025-05-29T09:06:32Z</time>
      </trkpt>
      <trkpt lat="44.50014" lon="1.40068">
        <ele>201.8</ele>
        <time>2025-05-29T09:06:33Z</time>
      </trkpt>
      <trkpt lat="44.50014" lon="1.4007">
        <ele>201.8</ele>
        <time>2025-05-29T09:06:34Z</time>
      </trkpt>
      <trkpt lat="44.50013" lon="1.40073">
        <ele>202</ele>
        <time>2025-05-29T09:06:35Z</time>
      </trkpt>
      <trkpt lat="44.50013" lon="1.40076">
        <ele>202.2</ele>
        <time>2025-05-29T09:06:36Z</time>
      </trkpt>
      <trkpt lat="44.50013" lon="1.40078">
        <ele>202.2</ele>
        <time>2025-05-29T09:06:37Z</time>
      </trkpt>
      <trkpt lat="44.50013" lon="1.4008">
        <ele>202.2</ele>
        <time>2025-05-29T09:06:38Z</time>
      </trkpt>
      <trkpt lat="44.50013" lon="1.40081">
        <ele>202.4</ele>
        <time>2025-05-29T09:06:39Z</time>
      </trkpt>
      <trkpt lat="44.50013" lon="1.40083">
        <ele>202.4</ele>
        <time>2025-05-29T09:06:40Z</time>
      </trkpt>
      <trkpt lat="44.50013" lon="1.40085">
        <ele>202.6</ele>
        <time>2025-05-29T09:06:41Z</time>
      </trkpt>
      <trkpt lat="44.50012" lon="1.40086">
        <ele>202.8</ele>
        <time>2025-05-29T09:06:42Z</time>
      </trkpt>
      <trkpt lat="44.50011" lon="1.40088">
        <ele>202.8</ele>
        <time>2025-05-29T09:06:43Z</time>
      </trkpt>
      <trkpt lat="44.50009" lon="1.40089">
        <ele>203</ele>
        <time>2025-05-29T09:06:44Z</time>
      </trkpt>
      <trkpt lat="44.50007" lon="1.40089">
        <ele>203</ele>
        <time>2025-05-29T09:06:45Z</time>
      </trkpt>
      <trkpt lat="44.50005" lon="1.4009">
        <ele>203.2</ele>
        <time>2025-05-29T09:06:46Z</time>
      </trkpt>
      <trkpt lat="44.50003" lon="1.4009">
        <ele>203.2</ele>
        <time>2025-05-29T09:06:47Z</time>
      </trkpt>
      <trkpt lat="44.50002" lon="1.4009">
        <ele>203.2</ele>
        <time>2025-05-29T09:06:48Z</time>
      </trkpt>
      <trkpt lat="44.5" lon="1.4009">
        <ele>203.4</ele>
        <time>2025-05-29T09:06:49Z</time>
      </trkpt>
      <trkpt lat="44.49999" lon="1.40089">
        <ele>203.6</ele>
        <time>2025-05-29T09:06:50Z</time>
      </trkpt>
      <trkpt lat="44.49998" lon="1.40088">
        <ele>203.6</ele>
        <time>2025-05-29T09:06:51Z</time>
      </trkpt>
      <trkpt lat="44.49996" lon="1.40087">
        <ele>204</ele>
        <time>2025-05-29T09:06:52Z</time>
      </trkpt>
      <trkpt lat="44.49996" lon="1.40086">
        <ele>204</ele>
        <time>2025-05-29T09:06:53Z</time>
      </trkpt>
      <trkpt lat="44.49995" lon="1.40084">
        <ele>204.2</ele>
        <time>2025-05-29T09:06:54Z</time>
      </trkpt>
      <trkpt lat="44.49995" lon="1.40081">
        <ele>204.2</ele>
        <time>2025-05-29T09:06:55Z</time>
      </trkpt>
      <trkpt lat="44.49995" lon="1.40079">
        <ele>204.2</ele>
        <time>2025-05-29T09:06:56Z</time>
      </trkpt>
      <trkpt lat="44.49994" lon="1.40076">
        <ele>204</ele>
        <time>2025-05-29T09:06:57Z</time>
      </trkpt>
      <trkpt lat="44.49993" lon="1.40073">
        <ele>203.8</ele>
        <time>2025-05-29T09:06:58Z</time>
      </trkpt>
      <trkpt lat="44.49993" lon="1.40071">
        <ele>203.6</ele>
        <time>2025-05-29T09:06:59Z</time>
      </trkpt>
      <trkpt lat="44.49993" lon="1.40068">
        <ele>203.4</ele>
        <time>2025-05-29T09:07:00Z</time>
      </trkpt>
      <trkpt lat="44.49992" lon="1.40064">
        <ele>203.2</ele>
        <time>2025-05-29T09:07:01Z</time>
      </trkpt>
      <trkpt lat="44.49992" lon="1.4006">
        <ele>203</ele>
        <time>2025-05-29T09:07:02Z</time>
      </trkpt>
      <trkpt lat="44.4999" lon="1.40057">
        <ele>202.8</ele>
        <time>2025-05-29T09:07:03Z</time>
      </trkpt>
      <trkpt lat="44.49989" lon="1.40055">
        <ele>202.6</ele>
        <time>2025-05-29T09:07:04Z</time>
      </trkpt>
      <trkpt lat="44.49987" lon="1.40052">
        <ele>202.4</ele>
        <time>2025-05-29T09:07:05Z</time>
      </trkpt>
      <trkpt lat="44.49986" lon="1.4005">
        <ele>202.4</ele>
        <time>2025-05-29T09:07:06Z</time>
      </trkpt>
      <trkpt lat="44.49985" lon="1.40047">
        <ele>202.4</ele>
        <time>2025-05-29T09:07:07Z</time>
      </trkpt>
      <trkpt lat="44.49984" lon="1.40044">
        <ele>202.4</ele>
        <time>2025-05-29T09:07:08Z</time>
      </trkpt>
      <trkpt lat="44.49983" lon="1.40041">
        <ele>202.4</ele>
        <time>2025-05-29T09:07:09Z</time>
      </trkpt>
      <trkpt lat="44.49981" lon="1.40039">
        <ele>202.4</ele>
        <time>2025-05-29T09:07:10Z</time>
      </trkpt>
      <trkpt lat="44.4998" lon="1.40036">
        <ele>202.2</ele>
        <time>2025-05-29T09:07:11Z</time>
      </trkpt>
      <trkpt lat="44.4998" lon="1.40032">
        <ele>202.2</ele>
        <time>2025-05-29T09:07:12Z</time>
      </trkpt>
      <trkpt lat="44.49979" lon="1.40028">
        <ele>202</ele>
        <time>2025-05-29T09:07:13Z</time>
      </trkpt>
      <trkpt lat="44.49978" lon="1.40023">
        <ele>201.6</ele>
        <time>2025-05-29T09:07:14Z</time>
      </trkpt>
      <trkpt lat="44.49977" lon="1.40017">
        <ele>201.2</ele>
        <time>2025-05-29T09:07:15Z</time>
      </trkpt>
      <trkpt lat="44.49976" lon="1.40012">
        <ele>200.8</ele>
        <time>2025-05-29T09:07:16Z</time>
      </trkpt>
      <trkpt lat="44.49974" lon="1.40006">
        <ele>200.4</ele>
        <time>2025-05-29T09:07:17Z</time>
      </trkpt>
      <trkpt lat="44.49972" lon="1.40002">
        <ele>200</ele>
        <time>2025-05-29T09:07:18Z</time>
      </trkpt>
      <trkpt lat="44.49969" lon="1.39998">
        <ele>199.6</ele>
        <time>2025-05-29T09:07:19Z</time>
      </trkpt>
      <trkpt lat="44.49966" lon="1.39995">
        <ele>199.6</ele>
        <time>2025-05-29T09:07:20Z</time>
      </trkpt>
      <trkpt lat="44.49965" lon="1.39992">
        <ele>199.4</ele>
        <time>2025-05-29T09:07:21Z</time>
      </trkpt>
      <trkpt lat="44.49964" lon="1.39987">
        <ele>199.4</ele>
        <time>2025-05-29T09:07:22Z</time>
      </trkpt>
      <trkpt lat="44.49963" lon="1.39982">
        <ele>199.2</ele>
        <time>2025-05-29T09:07:23Z</time>
      </trkpt>
      <trkpt lat="44.49962" lon="1.39977">
        <ele>198.8</ele>
        <time>2025-05-29T09:07:24Z</time>
      </trkpt>
      <trkpt lat="44.49961" lon="1.39973">
        <ele>198.8</ele>
        <time>2025-05-29T09:07:25Z</time>
      </trkpt>
      <trkpt lat="44.49959" lon="1.3997">
        <ele>198.6</ele>
        <time>2025-05-29T09:07:26Z</time>
      </trkpt>
      <trkpt lat="44.49957" lon="1.39968">
        <ele>198.4</ele>
        <time>2025-05-29T09:07:27Z</time>
      </trkpt>
      <trkpt lat="44.49955" lon="1.39967">
        <ele>198.2</ele>
        <time>2025-05-29T09:07:28Z</time>
      </trkpt>
      <trkpt lat="44.49953" lon="1.39965">
        <ele>198.2</ele>
        <time>2025-05-29T09:07:29Z</time>
      </trkpt>
      <trkpt lat="44.49951" lon="1.39963">
        <ele>198.2</ele>
        <time>2025-05-29T09:07:30Z</time>
      </trkpt>
      <trkpt lat="44.4995" lon="1.39961">
        <ele>198.2</ele>
        <time>2025-05-29T09:07:31Z</time>
      </trkpt>
      <trkpt lat="44.49948" lon="1.3996">
        <ele>198.2</ele>
        <time>2025-05-29T09:07:32Z</time>
      </trkpt>
      <trkpt lat="44.49947" lon="1.39958">
        <ele>198.4</ele>
        <time>2025-05-29T09:07:33Z</time>
      </trkpt>
      <trkpt lat="44.49945" lon="1.39958">
        <ele>198.6</ele>
        <time>2025-05-29T09:07:34Z</time>
      </trkpt>
      <trkpt lat="44.49944" lon="1.39958">
        <ele>198.8</ele>
        <time>2025-05-29T09:07:35Z</time>
      </trkpt>
      <trkpt lat="44.49942" lon="1.39957">
        <ele>199</ele>
        <time>2025-05-29T09:07:36Z</time>
      </trkpt>
      <trkpt lat="44.4994" lon="1.39957">
        <ele>199.4</ele>
        <time>2025-05-29T09:07:37Z</time>
      </trkpt>
      <trkpt lat="44.49939" lon="1.39956">
        <ele>199.6</ele>
        <time>2025-05-29T09:07:38Z</time>
      </trkpt>
      <trkpt lat="44.49937" lon="1.39956">
        <ele>199.8</ele>
        <time>2025-05-29T09:07:39Z</time>
      </trkpt>
      <trkpt lat="44.49936" lon="1.39956">
        <ele>200</ele>
        <time>2025-05-29T09:07:40Z</time>
      </trkpt>
      <trkpt lat="44.49934" lon="1.39956">
        <ele>200.2</ele>
        <time>2025-05-29T09:07:41Z</time>
      </trkpt>
      <trkpt lat="44.49931" lon="1.39956">
        <ele>200.2</ele>
        <time>2025-05-29T09:07:42Z</time>
      </trkpt>
      <trkpt lat="44.49929" lon="1.39956">
        <ele>200.4</ele>
        <time>2025-05-29T09:07:43Z</time>
      </trkpt>
      <trkpt lat="44.49928" lon="1.39957">
        <ele>200.4</ele>
        <time>2025-05-29T09:07:44Z</time>
      </trkpt>
      <trkpt lat="44.49927" lon="1.39956">
        <ele>200.6</ele>
        <time>2025-05-29T09:07:45Z</time>
      </trkpt>
      <trkpt lat="44.49925" lon="1.39955">
        <ele>200.8</ele>
        <time>2025-05-29T09:07:46Z</time>
      </trkpt>
      <trkpt lat="44.49923" lon="1.39954">
        <ele>200.8</ele>
        <time>2025-05-29T09:07:47Z</time>
      </trkpt>
      <trkpt lat="44.4992" lon="1.39954">
        <ele>201</ele>
        <time>2025-05-29T09:07:48Z</time>
      </trkpt>
      <trkpt lat="44.49918" lon="1.39954">
        <ele>201</ele>
        <time>2025-05-29T09:07:49Z</time>
      </trkpt>
      <trkpt lat="44.49917" lon="1.39953">
        <ele>201</ele>
        <time>2025-05-29T09:07:50Z</time>
      </trkpt>
      <trkpt lat="44.49915" lon="1.39953">
        <ele>201</ele>
        <time>2025-05-29T09:07:51Z</time>
      </trkpt>
      <trkpt lat="44.49913" lon="1.39952">
        <ele>201</ele>
        <time>2025-05-29T09:07:52Z</time>
      </trkpt>
      <trkpt lat="44.49911" lon="1.3995">
        <ele>201</ele>
        <time>2025-05-29T09:07:53Z</time>
      </trkpt>
      <trkpt lat="44.4991" lon="1.39948">
        <ele>201</ele>
        <time>2025-05-29T09:07:54Z</time>
      </trkpt>
      <trkpt lat="44.49908" lon="1.39947">
        <ele>201</ele>
        <time>2025-05-29T09:07:55Z</time>
      </trkpt>
      <trkpt lat="44.49907" lon="1.39945">
        <ele>201</ele>
        <time>2025-05-29T09:07:56Z</time>
      </trkpt>
      <trkpt lat="44.49905" lon="1.39944">
        <ele>201</ele>
        <time>2025-05-29T09:07:57Z</time>
      </trkpt>
      <trkpt lat="44.49903" lon="1.39942">
        <ele>201</ele>
        <time>2025-05-29T09:07:58Z</time>
      </trkpt>
      <trkpt lat="44.49902" lon="1.39939">
        <ele>201</ele>
        <time>2025-05-29T09:07:59Z</time>
      </trkpt>
      <trkpt lat="44.49901" lon="1.39937">
        <ele>201</ele>
        <time>2025-05-29T09:08:00Z</time>
      </trkpt>
      <trkpt lat="44.499" lon="1.39935">
        <ele>201.2</ele>
        <time>2025-05-29T09:08:01Z</time>
      </trkpt>
      <trkpt lat="44.49898" lon="1.39933">
        <ele>201.4</ele>
        <time>2025-05-29T09:08:02Z</time>
      </trkpt>
      <trkpt lat="44.49897" lon="1.39931">
        <ele>201.6</ele>
        <time>2025-05-29T09:08:03Z</time>
      </trkpt>
      <trkpt lat="44.49896" lon="1.39929">
        <ele>201.6</ele>
        <time>2025-05-29T09:08:04Z</time>
      </trkpt>
      <trkpt lat="44.49895" lon="1.39928">
        <ele>201.8</ele>
        <time>2025-05-29T09:08:05Z</time>
      </trkpt>
      <trkpt lat="44.49894" lon="1.39925">
        <ele>202</ele>
        <time>2025-05-29T09:08:06Z</time>
      </trkpt>
      <trkpt lat="44.49892" lon="1.39924">
        <ele>202.4</ele>
        <time>2025-05-29T09:08:07Z</time>
      </trkpt>
      <trkpt lat="44.49892" lon="1.39921">
        <ele>202.6</ele>
        <time>2025-05-29T09:08:08Z</time>
      </trkpt>
      <trkpt lat="44.49892" lon="1.39918">
        <ele>202.8</ele>
        <time>2025-05-29T09:08:09Z</time>
      </trkpt>
      <trkpt lat="44.49891" lon="1.39915">
        <ele>203</ele>
        <time>2025-05-29T09:08:10Z</time>
      </trkpt>
      <trkpt lat="44.4989" lon="1.39913">
        <ele>203.2</ele>
        <time>2025-05-29T09:08:11Z</time>
      </trkpt>
      <trkpt lat="44.49889" lon="1.39911">
        <ele>203.2</ele>
        <time>2025-05-29T09:08:12Z</time>
      </trkpt>
      <trkpt lat="44.49889" lon="1.39908">
        <ele>203.2</ele>
        <time>2025-05-29T09:08:13Z</time>
      </trkpt>
      <trkpt lat="44.49889" lon="1.39905">
        <ele>203.2</ele>
        <time>2025-05-29T09:08:14Z</time>
      </trkpt>
      <trkpt lat="44.49888" lon="1.39902">
        <ele>203</ele>
        <time>2025-05-29T09:08:15Z</time>
      </trkpt>
      <trkpt lat="44.49887" lon="1.399">
        <ele>203</ele>
        <time>2025-05-29T09:08:16Z</time>
      </trkpt>
      <trkpt lat="44.49886" lon="1.39899">
        <ele>203</ele>
        <time>2025-05-29T09:08:17Z</time>
      </trkpt>
      <trkpt lat="44.49884" lon="1.39897">
        <ele>203.2</ele>
        <time>2025-05-29T09:08:18Z</time>
      </trkpt>
      <trkpt lat="44.49883" lon="1.39896">
        <ele>203.2</ele>
        <time>2025-05-29T09:08:19Z</time>
      </trkpt>
      <trkpt lat="44.49881" lon="1.39895">
        <ele>203.4</ele>
        <time>2025-05-29T09:08:20Z</time>
      </trkpt>
      <trkpt lat="44.4988" lon="1.39894">
        <ele>203.6</ele>
        <time>2025-05-29T09:08:21Z</time>
      </trkpt>
      <trkpt lat="44.49879" lon="1.39893">
        <ele>203.8</ele>
        <time>2025-05-29T09:08:22Z</time>
      </trkpt>
      <trkpt lat="44.49878" lon="1.39893">
        <ele>204.2</ele>
        <time>2025-05-29T09:08:23Z</time>
      </trkpt>
      <trkpt lat="44.49877" lon="1.39892">
        <ele>204.4</ele>
        <time>2025-05-29T09:08:24Z</time>
      </trkpt>
      <trkpt lat="44.49875" lon="1.39891">
        <ele>204.6</ele>
        <time>2025-05-29T09:08:25Z</time>
      </trkpt>
      <trkpt lat="44.49874" lon="1.3989">
        <ele>204.8</ele>
        <time>2025-05-29T09:08:26Z</time>
      </trkpt>
      <trkpt lat="44.49872" lon="1.39889">
        <ele>205</ele>
        <time>2025-05-29T09:08:27Z</time>
      </trkpt>
      <trkpt lat="44.49871" lon="1.39889">
        <ele>205.2</ele>
        <time>2025-05-29T09:08:28Z</time>
      </trkpt>
      <trkpt lat="44.4987" lon="1.39888">
        <ele>205.4</ele>
        <time>2025-05-29T09:08:29Z</time>
      </trkpt>
      <trkpt lat="44.49868" lon="1.39888">
        <ele>205.4</ele>
        <time>2025-05-29T09:08:30Z</time>
      </trkpt>
      <trkpt lat="44.49866" lon="1.39888">
        <ele>205.6</ele>
        <time>2025-05-29T09:08:31Z</time>
      </trkpt>
      <trkpt lat="44.49865" lon="1.39889">
        <ele>205.8</ele>
        <time>2025-05-29T09:08:32Z</time>
      </trkpt>
      <trkpt lat="44.49865" lon="1.3989">
        <ele>206.2</ele>
        <time>2025-05-29T09:08:33Z</time>
      </trkpt>
      <trkpt lat="44.49865" lon="1.39892">
        <ele>206.4</ele>
        <time>2025-05-29T09:08:34Z</time>
      </trkpt>
      <trkpt lat="44.49865" lon="1.39894">
        <ele>206.8</ele>
        <time>2025-05-29T09:08:35Z</time>
      </trkpt>
      <trkpt lat="44.49865" lon="1.39896">
        <ele>207</ele>
        <time>2025-05-29T09:08:36Z</time>
      </trkpt>
      <trkpt lat="44.49865" lon="1.39898">
        <ele>207.4</ele>
        <time>2025-05-29T09:08:37Z</time>
      </trkpt>
      <trkpt lat="44.49865" lon="1.39899">
        <ele>207.6</ele>
        <time>2025-05-29T09:08:38Z</time>
      </trkpt>
      <trkpt lat="44.49865" lon="1.39902">
        <ele>207.8</ele>
        <time>2025-05-29T09:08:39Z</time>
      </trkpt>
      <trkpt lat="44.49865" lon="1.39904">
        <ele>208</ele>
        <time>2025-05-29T09:08:40Z</time>
      </trkpt>
      <trkpt lat="44.49864" lon="1.39905">
        <ele>208.2</ele>
        <time>2025-05-29T09:08:41Z</time>
      </trkpt>
      <trkpt lat="44.49863" lon="1.39906">
        <ele>208.2</ele>
        <time>2025-05-29T09:08:42Z</time>
      </trkpt>
      <trkpt lat="44.49861" lon="1.39906">
        <ele>208.4</ele>
        <time>2025-05-29T09:08:43Z</time>
      </trkpt>
      <trkpt lat="44.4986" lon="1.39905">
        <ele>208.4</ele>
        <time>2025-05-29T09:08:44Z</time>
      </trkpt>
      <trkpt lat="44.49859" lon="1.39904">
        <ele>208.6</ele>
        <time>2025-05-29T09:08:45Z</time>
      </trkpt>
      <trkpt lat="44.49857" lon="1.39903">
        <ele>208.6</ele>
        <time>2025-05-29T09:08:46Z</time>
      </trkpt>
      <trkpt lat="44.49856" lon="1.39902">
        <ele>208.6</ele>
        <time>2025-05-29T09:08:47Z</time>
      </trkpt>
      <trkpt lat="44.49854" lon="1.399">
        <ele>208.6</ele>
        <time>2025-05-29T09:08:48Z</time>
      </trkpt>
      <trkpt lat="44.49852" lon="1.39898">
        <ele>208.6</ele>
        <time>2025-05-29T09:08:49Z</time>
      </trkpt>
      <trkpt lat="44.4985" lon="1.39896">
        <ele>208.6</ele>
        <time>2025-05-29T09:08:50Z</time>
      </trkpt>
      <trkpt lat="44.49847" lon="1.39893">
        <ele>208.4</ele>
        <time>2025-05-29T09:08:51Z</time>
      </trkpt>
      <trkpt lat="44.49844" lon="1.39893">
        <ele>208.4</ele>
        <time>2025-05-29T09:08:52Z</time>
      </trkpt>
      <trkpt lat="44.49842" lon="1.39893">
        <ele>208.2</ele>
        <time>2025-05-29T09:08:53Z</time>
      </trkpt>
      <trkpt lat="44.4984" lon="1.39893">
        <ele>208.2</ele>
        <time>2025-05-29T09:08:54Z</time>
      </trkpt>
      <trkpt lat="44.49837" lon="1.39893">
        <ele>207.8</ele>
        <time>2025-05-29T09:11:39Z</time>
      </trkpt>
      <trkpt lat="44.49835" lon="1.39893">
        <ele>207.8</ele>
        <time>2025-05-29T09:11:40Z</time>
      </trkpt>
      <trkpt lat="44.49833" lon="1.39893">
        <ele>208</ele>
        <time>2025-05-29T09:11:41Z</time>
      </trkpt>
      <trkpt lat="44.49831" lon="1.39894">
        <ele>208.2</ele>
        <time>2025-05-29T09:11:42Z</time>
      </trkpt>
      <trkpt lat="44.4983" lon="1.39896">
        <ele>208.4</ele>
        <time>2025-05-29T09:11:43Z</time>
      </trkpt>
      <trkpt lat="44.49829" lon="1.39898">
        <ele>208.6</ele>
        <time>2025-05-29T09:11:44Z</time>
      </trkpt>
      <trkpt lat="44.49828" lon="1.399">
        <ele>208.8</ele>
        <time>2025-05-29T09:11:45Z</time>
      </trkpt>
      <trkpt lat="44.49827" lon="1.39902">
        <ele>209</ele>
        <time>2025-05-29T09:11:46Z</time>
      </trkpt>
      <trkpt lat="44.49825" lon="1.39904">
        <ele>209.2</ele>
        <time>2025-05-29T09:11:47Z</time>
      </trkpt>
      <trkpt lat="44.49824" lon="1.39905">
        <ele>209.6</ele>
        <time>2025-05-29T09:11:48Z</time>
      </trkpt>
      <trkpt lat="44.49822" lon="1.39907">
        <ele>210</ele>
        <time>2025-05-29T09:11:49Z</time>
      </trkpt>
      <trkpt lat="44.49821" lon="1.39909">
        <ele>210.2</ele>
        <time>2025-05-29T09:11:50Z</time>
      </trkpt>
      <trkpt lat="44.49819" lon="1.39911">
        <ele>210.6</ele>
        <time>2025-05-29T09:11:51Z</time>
      </trkpt>
      <trkpt lat="44.49818" lon="1.39913">
        <ele>210.8</ele>
        <time>2025-05-29T09:11:52Z</time>
      </trkpt>
      <trkpt lat="44.49816" lon="1.39914">
        <ele>211</ele>
        <time>2025-05-29T09:11:53Z</time>
      </trkpt>
      <trkpt lat="44.49815" lon="1.39914">
        <ele>211.4</ele>
        <time>2025-05-29T09:11:54Z</time>
      </trkpt>
      <trkpt lat="44.49815" lon="1.39915">
        <ele>211.6</ele>
        <time>2025-05-29T09:11:55Z</time>
      </trkpt>
      <trkpt lat="44.49814" lon="1.39916">
        <ele>211.8</ele>
        <time>2025-05-29T09:11:56Z</time>
      </trkpt>
      <trkpt lat="44.49813" lon="1.39916">
        <ele>212</ele>
        <time>2025-05-29T09:11:57Z</time>
      </trkpt>
      <trkpt lat="44.49811" lon="1.39916">
        <ele>212.2</ele>
        <time>2025-05-29T09:11:58Z</time>
      </trkpt>
      <trkpt lat="44.49809" lon="1.39915">
        <ele>212.4</ele>
        <time>2025-05-29T09:11:59Z</time>
      </trkpt>
      <trkpt lat="44.49807" lon="1.39913">
        <ele>212.2</ele>
        <time>2025-05-29T09:12:00Z</time>
      </trkpt>
      <trkpt lat="44.49804" lon="1.39912">
        <ele>212</ele>
        <time>2025-05-29T09:12:01Z</time>
      </trkpt>
      <trkpt lat="44.49802" lon="1.39914">
        <ele>211.6</ele>
        <time>2025-05-29T09:12:02Z</time>
      </trkpt>
      <trkpt lat="44.49801" lon="1.39916">
        <ele>211.4</ele>
        <time>2025-05-29T09:12:03Z</time>
      </trkpt>
      <trkpt lat="44.49801" lon="1.39918">
        <ele>211.2</ele>
        <time>2025-05-29T09:12:04Z</time>
      </trkpt>
      <trkpt lat="44.498" lon="1.39919">
        <ele>211.2</ele>
        <time>2025-05-29T09:12:05Z</time>
      </trkpt>
      <trkpt lat="44.49799" lon="1.3992">
        <ele>211.4</ele>
        <time>2025-05-29T09:12:06Z</time>
      </trkpt>
      <trkpt lat="44.49798" lon="1.39921">
        <ele>211.4</ele>
        <time>2025-05-29T09:12:07Z</time>
      </trkpt>
      <trkpt lat="44.49796" lon="1.39921">
        <ele>211.8</ele>
        <time>2025-05-29T09:12:08Z</time>
      </trkpt>
      <trkpt lat="44.49795" lon="1.39922">
        <ele>212</ele>
        <time>2025-05-29T09:12:09Z</time>
      </trkpt>
      <trkpt lat="44.49793" lon="1.39923">
        <ele>212.2</ele>
        <time>2025-05-29T09:12:10Z</time>
      </trkpt>
      <trkpt lat="44.49791" lon="1.39924">
        <ele>212.2</ele>
        <time>2025-05-29T09:12:11Z</time>
      </trkpt>
      <trkpt lat="44.49789" lon="1.39924">
        <ele>212.2</ele>
        <time>2025-05-29T09:12:12Z</time>
      </trkpt>
      <trkpt lat="44.49787" lon="1.39926">
        <ele>212.2</ele>
        <time>2025-05-29T09:12:13Z</time>
      </trkpt>
      <trkpt lat="44.49785" lon="1.39927">
        <ele>212.2</ele>
        <time>2025-05-29T09:12:14Z</time>
      </trkpt>
      <trkpt lat="44.49783" lon="1.39928">
        <ele>212.2</ele>
        <time>2025-05-29T09:12:15Z</time>
      </trkpt>
      <trkpt lat="44.49782" lon="1.39929">
        <ele>212.2</ele>
        <time>2025-05-29T09:12:16Z</time>
      </trkpt>
      <trkpt lat="44.4978" lon="1.39929">
        <ele>212.4</ele>
        <time>2025-05-29T09:12:17Z</time>
      </trkpt>
      <trkpt lat="44.49778" lon="1.3993">
        <ele>212.4</ele>
        <time>2025-05-29T09:12:18Z</time>
      </trkpt>
      <trkpt lat="44.49776" lon="1.3993">
        <ele>212.4</ele>
        <time>2025-05-29T09:12:19Z</time>
      </trkpt>
      <trkpt lat="44.49775" lon="1.3993">
        <ele>212.6</ele>
        <time>2025-05-29T09:12:20Z</time>
      </trkpt>
      <trkpt lat="44.49773" lon="1.3993">
        <ele>212.8</ele>
        <time>2025-05-29T09:12:21Z</time>
      </trkpt>
      <trkpt lat="44.49771" lon="1.39929">
        <ele>212.8</ele>
        <time>2025-05-29T09:12:22Z</time>
      </trkpt>
      <trkpt lat="44.49769" lon="1.39929">
        <ele>212.8</ele>
        <time>2025-05-29T09:12:23Z</time>
      </trkpt>
      <trkpt lat="44.49767" lon="1.3993">
        <ele>213</ele>
        <time>2025-05-29T09:12:24Z</time>
      </trkpt>
      <trkpt lat="44.49765" lon="1.3993">
        <ele>213</ele>
        <time>2025-05-29T09:12:25Z</time>
      </trkpt>
      <trkpt lat="44.49764" lon="1.39929">
        <ele>213.2</ele>
        <time>2025-05-29T09:12:26Z</time>
      </trkpt>
      <trkpt lat="44.49762" lon="1.39929">
        <ele>213.4</ele>
        <time>2025-05-29T09:12:27Z</time>
      </trkpt>
      <trkpt lat="44.4976" lon="1.39928">
        <ele>213.4</ele>
        <time>2025-05-29T09:12:28Z</time>
      </trkpt>
      <trkpt lat="44.49758" lon="1.39928">
        <ele>213.4</ele>
        <time>2025-05-29T09:12:29Z</time>
      </trkpt>
      <trkpt lat="44.49757" lon="1.39927">
        <ele>213.6</ele>
        <time>2025-05-29T09:12:30Z</time>
      </trkpt>
      <trkpt lat="44.49756" lon="1.39927">
        <ele>213.8</ele>
        <time>2025-05-29T09:12:31Z</time>
      </trkpt>
      <trkpt lat="44.49755" lon="1.39926">
        <ele>213.8</ele>
        <time>2025-05-29T09:12:32Z</time>
      </trkpt>
      <trkpt lat="44.49754" lon="1.39923">
        <ele>213.8</ele>
        <time>2025-05-29T09:12:33Z</time>
      </trkpt>
      <trkpt lat="44.49751" lon="1.39921">
        <ele>213.8</ele>
        <time>2025-05-29T09:12:34Z</time>
      </trkpt>
      <trkpt lat="44.49749" lon="1.39919">
        <ele>213.6</ele>
        <time>2025-05-29T09:12:35Z</time>
      </trkpt>
      <trkpt lat="44.49746" lon="1.39917">
        <ele>213.4</ele>
        <time>2025-05-29T09:12:36Z</time>
      </trkpt>
      <trkpt lat="44.49744" lon="1.39916">
        <ele>213.2</ele>
        <time>2025-05-29T09:12:37Z</time>
      </trkpt>
      <trkpt lat="44.49742" lon="1.39917">
        <ele>213</ele>
        <time>2025-05-29T09:12:38Z</time>
      </trkpt>
      <trkpt lat="44.4974" lon="1.39917">
        <ele>213.2</ele>
        <time>2025-05-29T09:12:39Z</time>
      </trkpt>
      <trkpt lat="44.49738" lon="1.39917">
        <ele>213.4</ele>
        <time>2025-05-29T09:12:40Z</time>
      </trkpt>
      <trkpt lat="44.49736" lon="1.39918">
        <ele>213.4</ele>
        <time>2025-05-29T09:12:41Z</time>
      </trkpt>
      <trkpt lat="44.49734" lon="1.39919">
        <ele>213.8</ele>
        <time>2025-05-29T09:12:42Z</time>
      </trkpt>
      <trkpt lat="44.49733" lon="1.3992">
        <ele>214</ele>
        <time>2025-05-29T09:12:43Z</time>
      </trkpt>
      <trkpt lat="44.49732" lon="1.3992">
        <ele>214.2</ele>
        <time>2025-05-29T09:12:44Z</time>
      </trkpt>
      <trkpt lat="44.4973" lon="1.39921">
        <ele>214.6</ele>
        <time>2025-05-29T09:12:45Z</time>
      </trkpt>
      <trkpt lat="44.49727" lon="1.39922">
        <ele>214.8</ele>
        <time>2025-05-29T09:12:46Z</time>
      </trkpt>
      <trkpt lat="44.49725" lon="1.39922">
        <ele>214.8</ele>
        <time>2025-05-29T09:12:47Z</time>
      </trkpt>
      <trkpt lat="44.49723" lon="1.39922">
        <ele>215</ele>
        <time>2025-05-29T09:12:48Z</time>
      </trkpt>
      <trkpt lat="44.49722" lon="1.3992">
        <ele>215.2</ele>
        <time>2025-05-29T09:12:49Z</time>
      </trkpt>
      <trkpt lat="44.4972" lon="1.39918">
        <ele>215</ele>
        <time>2025-05-29T09:12:50Z</time>
      </trkpt>
      <trkpt lat="44.49718" lon="1.39917">
        <ele>215</ele>
        <time>2025-05-29T09:12:51Z</time>
      </trkpt>
      <trkpt lat="44.49716" lon="1.39916">
        <ele>214.8</ele>
        <time>2025-05-29T09:12:52Z</time>
      </trkpt>
      <trkpt lat="44.49713" lon="1.39915">
        <ele>214.4</ele>
        <time>2025-05-29T09:12:53Z</time>
      </trkpt>
      <trkpt lat="44.49711" lon="1.39913">
        <ele>214.2</ele>
        <time>2025-05-29T09:12:54Z</time>
      </trkpt>
      <trkpt lat="44.49708" lon="1.39911">
        <ele>213.8</ele>
        <time>2025-05-29T09:12:55Z</time>
      </trkpt>
      <trkpt lat="44.49705" lon="1.39909">
        <ele>213.6</ele>
        <time>2025-05-29T09:12:56Z</time>
      </trkpt>
      <trkpt lat="44.49703" lon="1.39908">
        <ele>213.2</ele>
        <time>2025-05-29T09:12:57Z</time>
      </trkpt>
      <trkpt lat="44.49701" lon="1.39908">
        <ele>213</ele>
        <time>2025-05-29T09:12:58Z</time>
      </trkpt>
      <trkpt lat="44.49699" lon="1.39909">
        <ele>212.6</ele>
        <time>2025-05-29T09:12:59Z</time>
      </trkpt>
      <trkpt lat="44.49698" lon="1.3991">
        <ele>212.6</ele>
        <time>2025-05-29T09:13:00Z</time>
      </trkpt>
      <trkpt lat="44.49696" lon="1.39912">
        <ele>212.6</ele>
        <time>2025-05-29T09:13:01Z</time>
      </trkpt>
      <trkpt lat="44.49694" lon="1.39913">
        <ele>212.6</ele>
        <time>2025-05-29T09:13:02Z</time>
      </trkpt>
      <trkpt lat="44.49692" lon="1.39914">
        <ele>212.6</ele>
        <time>2025-05-29T09:13:03Z</time>
      </trkpt>
      <trkpt lat="44.49689" lon="1.39916">
        <ele>212.8</ele>
        <time>2025-05-29T09:13:04Z</time>
      </trkpt>
      <trkpt lat="44.49687" lon="1.39917">
        <ele>213</ele>
        <time>2025-05-29T09:13:05Z</time>
      </trkpt>
      <trkpt lat="44.49685" lon="1.39918">
        <ele>213</ele>
        <time>2025-05-29T09:13:06Z</time>
      </trkpt>
      <trkpt lat="44.49684" lon="1.39919">
        <ele>213.2</ele>
        <time>2025-05-29T09:13:07Z</time>
      </trkpt>
      <trkpt lat="44.49682" lon="1.39921">
        <ele>213.4</ele>
        <time>2025-05-29T09:13:08Z</time>
      </trkpt>
      <trkpt lat="44.4968" lon="1.39923">
        <ele>213.6</ele>
        <time>2025-05-29T09:13:09Z</time>
      </trkpt>
      <trkpt lat="44.49678" lon="1.39924">
        <ele>213.8</ele>
        <time>2025-05-29T09:13:10Z</time>
      </trkpt>
      <trkpt lat="44.49675" lon="1.39925">
        <ele>213.8</ele>
        <time>2025-05-29T09:13:11Z</time>
      </trkpt>
      <trkpt lat="44.49674" lon="1.39926">
        <ele>214</ele>
        <time>2025-05-29T09:13:12Z</time>
      </trkpt>
      <trkpt lat="44.49672" lon="1.39927">
        <ele>214.2</ele>
        <time>2025-05-29T09:13:13Z</time>
      </trkpt>
      <trkpt lat="44.4967" lon="1.39928">
        <ele>214.2</ele>
        <time>2025-05-29T09:13:14Z</time>
      </trkpt>
      <trkpt lat="44.49668" lon="1.3993">
        <ele>214.4</ele>
        <time>2025-05-29T09:13:15Z</time>
      </trkpt>
      <trkpt lat="44.49666" lon="1.39931">
        <ele>214.6</ele>
        <time>2025-05-29T09:13:16Z</time>
      </trkpt>
      <trkpt lat="44.49664" lon="1.39933">
        <ele>214.8</ele>
        <time>2025-05-29T09:13:17Z</time>
      </trkpt>
      <trkpt lat="44.49662" lon="1.39934">
        <ele>214.8</ele>
        <time>2025-05-29T09:13:18Z</time>
      </trkpt>
      <trkpt lat="44.4966" lon="1.39936">
        <ele>215</ele>
        <time>2025-05-29T09:13:19Z</time>
      </trkpt>
      <trkpt lat="44.49658" lon="1.39937">
        <ele>215.2</ele>
        <time>2025-05-29T09:13:20Z</time>
      </trkpt>
      <trkpt lat="44.49656" lon="1.39939">
        <ele>215.2</ele>
        <time>2025-05-29T09:13:21Z</time>
      </trkpt>
      <trkpt lat="44.49654" lon="1.3994">
        <ele>215.4</ele>
        <time>2025-05-29T09:13:22Z</time>
      </trkpt>
      <trkpt lat="44.49652" lon="1.39941">
        <ele>215.4</ele>
        <time>2025-05-29T09:13:23Z</time>
      </trkpt>
      <trkpt lat="44.49651" lon="1.39943">
        <ele>215.6</ele>
        <time>2025-05-29T09:13:24Z</time>
      </trkpt>
      <trkpt lat="44.49649" lon="1.39945">
        <ele>215.6</ele>
        <time>2025-05-29T09:13:25Z</time>
      </trkpt>
      <trkpt lat="44.49648" lon="1.39947">
        <ele>215.8</ele>
        <time>2025-05-29T09:13:26Z</time>
      </trkpt>
      <trkpt lat="44.49646" lon="1.39949">
        <ele>216</ele>
        <time>2025-05-29T09:13:27Z</time>
      </trkpt>
      <trkpt lat="44.49644" lon="1.3995">
        <ele>216.2</ele>
        <time>2025-05-29T09:13:28Z</time>
      </trkpt>
      <trkpt lat="44.49642" lon="1.39951">
        <ele>216.4</ele>
        <time>2025-05-29T09:13:29Z</time>
      </trkpt>
      <trkpt lat="44.4964" lon="1.39952">
        <ele>216.4</ele>
        <time>2025-05-29T09:13:30Z</time>
      </trkpt>
      <trkpt lat="44.49638" lon="1.39954">
        <ele>216.6</ele>
        <time>2025-05-29T09:13:31Z</time>
      </trkpt>
      <trkpt lat="44.49636" lon="1.39955">
        <ele>216.8</ele>
        <time>2025-05-29T09:13:32Z</time>
      </trkpt>
      <trkpt lat="44.49634" lon="1.39957">
        <ele>217</ele>
        <time>2025-05-29T09:13:33Z</time>
      </trkpt>
      <trkpt lat="44.49633" lon="1.39959">
        <ele>217.4</ele>
        <time>2025-05-29T09:13:34Z</time>
      </trkpt>
      <trkpt lat="44.49631" lon="1.39961">
        <ele>217.6</ele>
        <time>2025-05-29T09:13:35Z</time>
      </trkpt>
      <trkpt lat="44.49629" lon="1.39961">
        <ele>217.8</ele>
        <time>2025-05-29T09:13:36Z</time>
      </trkpt>
      <trkpt lat="44.49627" lon="1.39963">
        <ele>218</ele>
        <time>2025-05-29T09:13:37Z</time>
      </trkpt>
      <trkpt lat="44.49625" lon="1.39964">
        <ele>218.2</ele>
        <time>2025-05-29T09:13:38Z</time>
      </trkpt>
      <trkpt lat="44.49623" lon="1.39965">
        <ele>218.4</ele>
        <time>2025-05-29T09:13:39Z</time>
      </trkpt>
      <trkpt lat="44.49621" lon="1.39966">
        <ele>218.6</ele>
        <time>2025-05-29T09:13:40Z</time>
      </trkpt>
      <trkpt lat="44.49619" lon="1.39967">
        <ele>218.6</ele>
        <time>2025-05-29T09:13:41Z</time>
      </trkpt>
      <trkpt lat="44.49617" lon="1.39968">
        <ele>218.8</ele>
        <time>2025-05-29T09:13:42Z</time>
      </trkpt>
      <trkpt lat="44.49615" lon="1.3997">
        <ele>219</ele>
        <time>2025-05-29T09:13:43Z</time>
      </trkpt>
      <trkpt lat="44.49613" lon="1.39971">
        <ele>219.2</ele>
        <time>2025-05-29T09:13:44Z</time>
      </trkpt>
      <trkpt lat="44.49611" lon="1.39973">
        <ele>219.2</ele>
        <time>2025-05-29T09:13:45Z</time>
      </trkpt>
      <trkpt lat="44.49609" lon="1.39974">
        <ele>219.4</ele>
        <time>2025-05-29T09:13:46Z</time>
      </trkpt>
      <trkpt lat="44.49607" lon="1.39976">
        <ele>219.6</ele>
        <time>2025-05-29T09:13:47Z</time>
      </trkpt>
      <trkpt lat="44.49605" lon="1.39977">
        <ele>220</ele>
        <time>2025-05-29T09:13:48Z</time>
      </trkpt>
      <trkpt lat="44.49603" lon="1.39978">
        <ele>220.2</ele>
        <time>2025-05-29T09:13:49Z</time>
      </trkpt>
      <trkpt lat="44.49601" lon="1.39979">
        <ele>220.2</ele>
        <time>2025-05-29T09:13:50Z</time>
      </trkpt>
      <trkpt lat="44.49599" lon="1.39981">
        <ele>220.4</ele>
        <time>2025-05-29T09:13:51Z</time>
      </trkpt>
      <trkpt lat="44.49597" lon="1.39982">
        <ele>220.6</ele>
        <time>2025-05-29T09:13:52Z</time>
      </trkpt>
      <trkpt lat="44.49596" lon="1.39984">
        <ele>220.8</ele>
        <time>2025-05-29T09:13:53Z</time>
      </trkpt>
      <trkpt lat="44.49595" lon="1.39985">
        <ele>221</ele>
        <time>2025-05-29T09:13:54Z</time>
      </trkpt>
      <trkpt lat="44.49593" lon="1.39986">
        <ele>221.2</ele>
        <time>2025-05-29T09:13:55Z</time>
      </trkpt>
      <trkpt lat="44.49591" lon="1.39987">
        <ele>221.4</ele>
        <time>2025-05-29T09:13:56Z</time>
      </trkpt>
      <trkpt lat="44.49589" lon="1.39988">
        <ele>221.4</ele>
        <time>2025-05-29T09:13:57Z</time>
      </trkpt>
      <trkpt lat="44.49587" lon="1.3999">
        <ele>221.6</ele>
        <time>2025-05-29T09:13:58Z</time>
      </trkpt>
      <trkpt lat="44.49584" lon="1.39991">
        <ele>221.6</ele>
        <time>2025-05-29T09:13:59Z</time>
      </trkpt>
      <trkpt lat="44.49582" lon="1.39992">
        <ele>221.6</ele>
        <time>2025-05-29T09:14:00Z</time>
      </trkpt>
      <trkpt lat="44.49581" lon="1.39994">
        <ele>221.8</ele>
        <time>2025-05-29T09:14:01Z</time>
      </trkpt>
      <trkpt lat="44.49579" lon="1.39996">
        <ele>222</ele>
        <time>2025-05-29T09:14:02Z</time>
      </trkpt>
      <trkpt lat="44.49577" lon="1.39997">
        <ele>222</ele>
        <time>2025-05-29T09:14:03Z</time>
      </trkpt>
      <trkpt lat="44.49575" lon="1.39998">
        <ele>222.4</ele>
        <time>2025-05-29T09:14:04Z</time>
      </trkpt>
      <trkpt lat="44.49572" lon="1.39999">
        <ele>222.4</ele>
        <time>2025-05-29T09:14:05Z</time>
      </trkpt>
      <trkpt lat="44.4957" lon="1.40001">
        <ele>222.6</ele>
        <time>2025-05-29T09:14:06Z</time>
      </trkpt>
      <trkpt lat="44.49569" lon="1.40002">
        <ele>222.8</ele>
        <time>2025-05-29T09:14:07Z</time>
      </trkpt>
      <trkpt lat="44.49567" lon="1.40004">
        <ele>223</ele>
        <time>2025-05-29T09:14:08Z</time>
      </trkpt>
      <trkpt lat="44.49565" lon="1.40006">
        <ele>223</ele>
        <time>2025-05-29T09:14:09Z</time>
      </trkpt>
      <trkpt lat="44.49563" lon="1.40007">
        <ele>223.2</ele>
        <time>2025-05-29T09:14:10Z</time>
      </trkpt>
      <trkpt lat="44.49561" lon="1.40008">
        <ele>223.4</ele>
        <time>2025-05-29T09:14:11Z</time>
      </trkpt>
      <trkpt lat="44.4956" lon="1.40009">
        <ele>223.4</ele>
        <time>2025-05-29T09:14:12Z</time>
      </trkpt>
      <trkpt lat="44.49558" lon="1.4001">
        <ele>223.4</ele>
        <time>2025-05-29T09:14:13Z</time>
      </trkpt>
      <trkpt lat="44.49557" lon="1.40012">
        <ele>223.6</ele>
        <time>2025-05-29T09:14:14Z</time>
      </trkpt>
      <trkpt lat="44.49555" lon="1.40014">
        <ele>223.8</ele>
        <time>2025-05-29T09:14:15Z</time>
      </trkpt>
      <trkpt lat="44.49553" lon="1.40017">
        <ele>224</ele>
        <time>2025-05-29T09:14:16Z</time>
      </trkpt>
      <trkpt lat="44.49552" lon="1.40019">
        <ele>224.2</ele>
        <time>2025-05-29T09:14:17Z</time>
      </trkpt>
      <trkpt lat="44.49551" lon="1.40021">
        <ele>224.4</ele>
        <time>2025-05-29T09:14:18Z</time>
      </trkpt>
      <trkpt lat="44.4955" lon="1.40023">
        <ele>224.6</ele>
        <time>2025-05-29T09:14:19Z</time>
      </trkpt>
      <trkpt lat="44.49549" lon="1.40025">
        <ele>225</ele>
        <time>2025-05-29T09:14:20Z</time>
      </trkpt>
      <trkpt lat="44.49548" lon="1.40027">
        <ele>225.2</ele>
        <time>2025-05-29T09:14:21Z</time>
      </trkpt>
      <trkpt lat="44.49547" lon="1.40029">
        <ele>225.2</ele>
        <time>2025-05-29T09:14:22Z</time>
      </trkpt>
      <trkpt lat="44.49545" lon="1.40031">
        <ele>225.4</ele>
        <time>2025-05-29T09:14:23Z</time>
      </trkpt>
      <trkpt lat="44.49543" lon="1.40033">
        <ele>225.6</ele>
        <time>2025-05-29T09:14:24Z</time>
      </trkpt>
      <trkpt lat="44.49542" lon="1.40035">
        <ele>225.6</ele>
        <time>2025-05-29T09:14:25Z</time>
      </trkpt>
      <trkpt lat="44.4954" lon="1.40037">
        <ele>225.6</ele>
        <time>2025-05-29T09:14:26Z</time>
      </trkpt>
      <trkpt lat="44.49539" lon="1.4004">
        <ele>225.8</ele>
        <time>2025-05-29T09:14:27Z</time>
      </trkpt>
      <trkpt lat="44.49539" lon="1.40043">
        <ele>225.8</ele>
        <time>2025-05-29T09:14:28Z</time>
      </trkpt>
      <trkpt lat="44.49538" lon="1.40047">
        <ele>225.8</ele>
        <time>2025-05-29T09:14:29Z</time>
      </trkpt>
      <trkpt lat="44.49537" lon="1.4005">
        <ele>226</ele>
        <time>2025-05-29T09:14:30Z</time>
      </trkpt>
      <trkpt lat="44.49536" lon="1.40054">
        <ele>226.2</ele>
        <time>2025-05-29T09:14:31Z</time>
      </trkpt>
      <trkpt lat="44.49534" lon="1.40056">
        <ele>226.2</ele>
        <time>2025-05-29T09:14:32Z</time>
      </trkpt>
      <trkpt lat="44.49533" lon="1.40059">
        <ele>226.4</ele>
        <time>2025-05-29T09:14:33Z</time>
      </trkpt>
      <trkpt lat="44.49532" lon="1.40061">
        <ele>226.4</ele>
        <time>2025-05-29T09:14:34Z</time>
      </trkpt>
      <trkpt lat="44.4953" lon="1.40064">
        <ele>226.6</ele>
        <time>2025-05-29T09:14:35Z</time>
      </trkpt>
      <trkpt lat="44.49529" lon="1.40067">
        <ele>226.8</ele>
        <time>2025-05-29T09:14:36Z</time>
      </trkpt>
      <trkpt lat="44.49528" lon="1.40071">
        <ele>227</ele>
        <time>2025-05-29T09:14:37Z</time>
      </trkpt>
      <trkpt lat="44.49527" lon="1.40074">
        <ele>227.2</ele>
        <time>2025-05-29T09:14:38Z</time>
      </trkpt>
      <trkpt lat="44.49526" lon="1.40077">
        <ele>227.4</ele>
        <time>2025-05-29T09:14:39Z</time>
      </trkpt>
      <trkpt lat="44.49524" lon="1.4008">
        <ele>227.4</ele>
        <time>2025-05-29T09:14:40Z</time>
      </trkpt>
      <trkpt lat="44.49523" lon="1.40083">
        <ele>227.6</ele>
        <time>2025-05-29T09:14:41Z</time>
      </trkpt>
      <trkpt lat="44.49522" lon="1.40086">
        <ele>227.6</ele>
        <time>2025-05-29T09:14:42Z</time>
      </trkpt>
      <trkpt lat="44.49521" lon="1.40088">
        <ele>227.8</ele>
        <time>2025-05-29T09:14:43Z</time>
      </trkpt>
      <trkpt lat="44.49521" lon="1.4009">
        <ele>227.8</ele>
        <time>2025-05-29T09:14:44Z</time>
      </trkpt>
      <trkpt lat="44.4952" lon="1.40091">
        <ele>228</ele>
        <time>2025-05-29T09:14:45Z</time>
      </trkpt>
      <trkpt lat="44.49518" lon="1.40091">
        <ele>228</ele>
        <time>2025-05-29T09:14:46Z</time>
      </trkpt>
      <trkpt lat="44.49517" lon="1.4009">
        <ele>228</ele>
        <time>2025-05-29T09:14:47Z</time>
      </trkpt>
      <trkpt lat="44.49515" lon="1.40089">
        <ele>227.8</ele>
        <time>2025-05-29T09:14:48Z</time>
      </trkpt>
      <trkpt lat="44.49512" lon="1.4009">
        <ele>227.8</ele>
        <time>2025-05-29T09:14:49Z</time>
      </trkpt>
      <trkpt lat="44.49511" lon="1.40091">
        <ele>227.6</ele>
        <time>2025-05-29T09:14:50Z</time>
      </trkpt>
      <trkpt lat="44.4951" lon="1.40092">
        <ele>227.4</ele>
        <time>2025-05-29T09:14:51Z</time>
      </trkpt>
      <trkpt lat="44.4951" lon="1.40093">
        <ele>227.2</ele>
        <time>2025-05-29T09:14:52Z</time>
      </trkpt>
      <trkpt lat="44.4951" lon="1.40093">
        <ele>227.2</ele>
        <time>2025-05-29T09:14:53Z</time>
      </trkpt>
      <trkpt lat="44.4951" lon="1.40097">
        <ele>226</ele>
        <time>2025-05-29T09:16:10Z</time>
      </trkpt>
      <trkpt lat="44.49511" lon="1.401">
        <ele>226</ele>
        <time>2025-05-29T09:16:11Z</time>
      </trkpt>
      <trkpt lat="44.49512" lon="1.40102">
        <ele>226</ele>
        <time>2025-05-29T09:16:12Z</time>
      </trkpt>
      <trkpt lat="44.49513" lon="1.40104">
        <ele>226</ele>
        <time>2025-05-29T09:16:13Z</time>
      </trkpt>
      <trkpt lat="44.49513" lon="1.40107">
        <ele>226</ele>
        <time>2025-05-29T09:16:14Z</time>
      </trkpt>
      <trkpt lat="44.49512" lon="1.4011">
        <ele>226</ele>
        <time>2025-05-29T09:16:15Z</time>
      </trkpt>
      <trkpt lat="44.49511" lon="1.40113">
        <ele>226</ele>
        <time>2025-05-29T09:16:16Z</time>
      </trkpt>
      <trkpt lat="44.49509" lon="1.40117">
        <ele>226</ele>
        <time>2025-05-29T09:16:17Z</time>
      </trkpt>
      <trkpt lat="44.49508" lon="1.40121">
        <ele>226</ele>
        <time>2025-05-29T09:16:18Z</time>
      </trkpt>
      <trkpt lat="44.49506" lon="1.40126">
        <ele>225.8</ele>
        <time>2025-05-29T09:16:19Z</time>
      </trkpt>
      <trkpt lat="44.49503" lon="1.4013">
        <ele>225.8</ele>
        <time>2025-05-29T09:16:20Z</time>
      </trkpt>
      <trkpt lat="44.49501" lon="1.40134">
        <ele>225.4</ele>
        <time>2025-05-29T09:16:21Z</time>
      </trkpt>
      <trkpt lat="44.49499" lon="1.4014">
        <ele>225.2</ele>
        <time>2025-05-29T09:16:22Z</time>
      </trkpt>
      <trkpt lat="44.49497" lon="1.40145">
        <ele>225</ele>
        <time>2025-05-29T09:16:23Z</time>
      </trkpt>
      <trkpt lat="44.49494" lon="1.40151">
        <ele>224.8</ele>
        <time>2025-05-29T09:16:24Z</time>
      </trkpt>
      <trkpt lat="44.49491" lon="1.40156">
        <ele>224.6</ele>
        <time>2025-05-29T09:16:25Z</time>
      </trkpt>
      <trkpt lat="44.49488" lon="1.40162">
        <ele>224.4</ele>
        <time>2025-05-29T09:16:26Z</time>
      </trkpt>
      <trkpt lat="44.49485" lon="1.40167">
        <ele>224</ele>
        <time>2025-05-29T09:16:27Z</time>
      </trkpt>
      <trkpt lat="44.49482" lon="1.40172">
        <ele>223.8</ele>
        <time>2025-05-29T09:16:28Z</time>
      </trkpt>
      <trkpt lat="44.49479" lon="1.40178">
        <ele>223.6</ele>
        <time>2025-05-29T09:16:29Z</time>
      </trkpt>
      <trkpt lat="44.49476" lon="1.40185">
        <ele>223.2</ele>
        <time>2025-05-29T09:16:30Z</time>
      </trkpt>
      <trkpt lat="44.49472" lon="1.4019">
        <ele>222.6</ele>
        <time>2025-05-29T09:16:31Z</time>
      </trkpt>
      <trkpt lat="44.49468" lon="1.40197">
        <ele>222.2</ele>
        <time>2025-05-29T09:16:32Z</time>
      </trkpt>
      <trkpt lat="44.49463" lon="1.402">
        <ele>221.8</ele>
        <time>2025-05-29T09:16:33Z</time>
      </trkpt>
      <trkpt lat="44.4946" lon="1.40203">
        <ele>221.6</ele>
        <time>2025-05-29T09:16:34Z</time>
      </trkpt>
      <trkpt lat="44.49458" lon="1.40206">
        <ele>221.6</ele>
        <time>2025-05-29T09:16:35Z</time>
      </trkpt>
      <trkpt lat="44.49457" lon="1.40208">
        <ele>221.6</ele>
        <time>2025-05-29T09:16:36Z</time>
      </trkpt>
      <trkpt lat="44.49456" lon="1.40212">
        <ele>221.8</ele>
        <time>2025-05-29T09:16:37Z</time>
      </trkpt>
      <trkpt lat="44.49455" lon="1.40216">
        <ele>221.8</ele>
        <time>2025-05-29T09:16:38Z</time>
      </trkpt>
      <trkpt lat="44.49453" lon="1.4022">
        <ele>221.6</ele>
        <time>2025-05-29T09:16:39Z</time>
      </trkpt>
      <trkpt lat="44.49451" lon="1.40224">
        <ele>221.4</ele>
        <time>2025-05-29T09:16:40Z</time>
      </trkpt>
      <trkpt lat="44.4945" lon="1.4023">
        <ele>220.8</ele>
        <time>2025-05-29T09:16:41Z</time>
      </trkpt>
      <trkpt lat="44.49447" lon="1.40234">
        <ele>219.6</ele>
        <time>2025-05-29T09:16:42Z</time>
      </trkpt>
      <trkpt lat="44.49446" lon="1.40236">
        <ele>218.2</ele>
        <time>2025-05-29T09:16:43Z</time>
      </trkpt>
      <trkpt lat="44.49443" lon="1.4024">
        <ele>217.2</ele>
        <time>2025-05-29T09:16:44Z</time>
      </trkpt>
      <trkpt lat="44.49441" lon="1.40243">
        <ele>216.4</ele>
        <time>2025-05-29T09:16:45Z</time>
      </trkpt>
      <trkpt lat="44.4944" lon="1.40247">
        <ele>215.4</ele>
        <time>2025-05-29T09:16:46Z</time>
      </trkpt>
      <trkpt lat="44.49437" lon="1.40251">
        <ele>214.8</ele>
        <time>2025-05-29T09:16:47Z</time>
      </trkpt>
      <trkpt lat="44.49435" lon="1.40255">
        <ele>214</ele>
        <time>2025-05-29T09:16:48Z</time>
      </trkpt>
      <trkpt lat="44.49434" lon="1.40259">
        <ele>213.2</ele>
        <time>2025-05-29T09:16:49Z</time>
      </trkpt>
      <trkpt lat="44.49433" lon="1.40263">
        <ele>212.4</ele>
        <time>2025-05-29T09:16:50Z</time>
      </trkpt>
      <trkpt lat="44.49433" lon="1.40267">
        <ele>211.4</ele>
        <time>2025-05-29T09:16:51Z</time>
      </trkpt>
      <trkpt lat="44.49431" lon="1.4027">
        <ele>210.6</ele>
        <time>2025-05-29T09:16:52Z</time>
      </trkpt>
      <trkpt lat="44.4943" lon="1.40274">
        <ele>209.8</ele>
        <time>2025-05-29T09:16:53Z</time>
      </trkpt>
      <trkpt lat="44.49428" lon="1.40279">
        <ele>209</ele>
        <time>2025-05-29T09:16:54Z</time>
      </trkpt>
      <trkpt lat="44.49426" lon="1.40284">
        <ele>208</ele>
        <time>2025-05-29T09:16:55Z</time>
      </trkpt>
      <trkpt lat="44.49424" lon="1.40286">
        <ele>206.4</ele>
        <time>2025-05-29T09:16:56Z</time>
      </trkpt>
      <trkpt lat="44.49421" lon="1.40288">
        <ele>205</ele>
        <time>2025-05-29T09:16:57Z</time>
      </trkpt>
      <trkpt lat="44.49421" lon="1.40288">
        <ele>204</ele>
        <time>2025-05-29T09:16:58Z</time>
      </trkpt>
      <trkpt lat="44.49421" lon="1.40288">
        <ele>203.4</ele>
        <time>2025-05-29T09:16:59Z</time>
      </trkpt>
      <trkpt lat="44.49418" lon="1.40292">
        <ele>202.2</ele>
        <time>2025-05-29T09:17:31Z</time>
      </trkpt>
      <trkpt lat="44.49418" lon="1.40295">
        <ele>202</ele>
        <time>2025-05-29T09:17:32Z</time>
      </trkpt>
      <trkpt lat="44.49418" lon="1.40299">
        <ele>201.6</ele>
        <time>2025-05-29T09:17:33Z</time>
      </trkpt>
      <trkpt lat="44.49417" lon="1.40302">
        <ele>201</ele>
        <time>2025-05-29T09:17:34Z</time>
      </trkpt>
      <trkpt lat="44.49416" lon="1.40305">
        <ele>200.4</ele>
        <time>2025-05-29T09:17:35Z</time>
      </trkpt>
      <trkpt lat="44.49413" lon="1.40307">
        <ele>199.8</ele>
        <time>2025-05-29T09:17:36Z</time>
      </trkpt>
      <trkpt lat="44.49411" lon="1.40309">
        <ele>199</ele>
        <time>2025-05-29T09:17:37Z</time>
      </trkpt>
      <trkpt lat="44.49409" lon="1.40312">
        <ele>198.2</ele>
        <time>2025-05-29T09:17:38Z</time>
      </trkpt>
      <trkpt lat="44.49407" lon="1.40316">
        <ele>197.4</ele>
        <time>2025-05-29T09:17:39Z</time>
      </trkpt>
      <trkpt lat="44.49405" lon="1.40319">
        <ele>196.8</ele>
        <time>2025-05-29T09:17:40Z</time>
      </trkpt>
      <trkpt lat="44.49403" lon="1.40321">
        <ele>196</ele>
        <time>2025-05-29T09:17:41Z</time>
      </trkpt>
      <trkpt lat="44.49401" lon="1.40323">
        <ele>195.6</ele>
        <time>2025-05-29T09:17:42Z</time>
      </trkpt>
      <trkpt lat="44.49398" lon="1.40326">
        <ele>195</ele>
        <time>2025-05-29T09:17:43Z</time>
      </trkpt>
      <trkpt lat="44.49397" lon="1.40329">
        <ele>194.4</ele>
        <time>2025-05-29T09:17:44Z</time>
      </trkpt>
      <trkpt lat="44.49395" lon="1.40332">
        <ele>193.6</ele>
        <time>2025-05-29T09:17:45Z</time>
      </trkpt>
      <trkpt lat="44.49393" lon="1.40335">
        <ele>192.8</ele>
        <time>2025-05-29T09:17:46Z</time>
      </trkpt>
      <trkpt lat="44.49392" lon="1.40338">
        <ele>192.2</ele>
        <time>2025-05-29T09:17:47Z</time>
      </trkpt>
      <trkpt lat="44.49391" lon="1.4034">
        <ele>191.6</ele>
        <time>2025-05-29T09:17:48Z</time>
      </trkpt>
      <trkpt lat="44.4939" lon="1.40342">
        <ele>190.8</ele>
        <time>2025-05-29T09:17:49Z</time>
      </trkpt>
      <trkpt lat="44.49389" lon="1.40344">
        <ele>190.2</ele>
        <time>2025-05-29T09:17:50Z</time>
      </trkpt>
      <trkpt lat="44.49388" lon="1.40346">
        <ele>189.6</ele>
        <time>2025-05-29T09:17:51Z</time>
      </trkpt>
      <trkpt lat="44.49387" lon="1.40349">
        <ele>189</ele>
        <time>2025-05-29T09:17:52Z</time>
      </trkpt>
      <trkpt lat="44.49387" lon="1.40352">
        <ele>188.2</ele>
        <time>2025-05-29T09:17:53Z</time>
      </trkpt>
      <trkpt lat="44.49387" lon="1.40356">
        <ele>187.4</ele>
        <time>2025-05-29T09:17:54Z</time>
      </trkpt>
      <trkpt lat="44.49388" lon="1.4036">
        <ele>186.6</ele>
        <time>2025-05-29T09:17:55Z</time>
      </trkpt>
      <trkpt lat="44.49387" lon="1.40364">
        <ele>185.8</ele>
        <time>2025-05-29T09:17:56Z</time>
      </trkpt>
      <trkpt lat="44.49387" lon="1.40368">
        <ele>184.8</ele>
        <time>2025-05-29T09:17:57Z</time>
      </trkpt>
      <trkpt lat="44.49386" lon="1.40372">
        <ele>184</ele>
        <time>2025-05-29T09:17:58Z</time>
      </trkpt>
      <trkpt lat="44.49384" lon="1.40375">
        <ele>183</ele>
        <time>2025-05-29T09:17:59Z</time>
      </trkpt>
      <trkpt lat="44.49382" lon="1.40377">
        <ele>182.2</ele>
        <time>2025-05-29T09:18:00Z</time>
      </trkpt>
      <trkpt lat="44.4938" lon="1.40379">
        <ele>181.2</ele>
        <time>2025-05-29T09:18:01Z</time>
      </trkpt>
      <trkpt lat="44.49378" lon="1.40382">
        <ele>180.4</ele>
        <time>2025-05-29T09:18:02Z</time>
      </trkpt>
      <trkpt lat="44.49377" lon="1.40384">
        <ele>179.6</ele>
        <time>2025-05-29T09:18:03Z</time>
      </trkpt>
      <trkpt lat="44.49375" lon="1.40384">
        <ele>179</ele>
        <time>2025-05-29T09:18:04Z</time>
      </trkpt>
      <trkpt lat="44.49373" lon="1.40385">
        <ele>178.4</ele>
        <time>2025-05-29T09:18:05Z</time>
      </trkpt>
      <trkpt lat="44.49371" lon="1.40387">
        <ele>177.6</ele>
        <time>2025-05-29T09:18:06Z</time>
      </trkpt>
      <trkpt lat="44.49368" lon="1.4039">
        <ele>177</ele>
        <time>2025-05-29T09:18:07Z</time>
      </trkpt>
      <trkpt lat="44.49366" lon="1.40393">
        <ele>176.2</ele>
        <time>2025-05-29T09:18:08Z</time>
      </trkpt>
      <trkpt lat="44.49364" lon="1.40397">
        <ele>175.4</ele>
        <time>2025-05-29T09:18:09Z</time>
      </trkpt>
      <trkpt lat="44.49362" lon="1.40401">
        <ele>174.6</ele>
        <time>2025-05-29T09:18:10Z</time>
      </trkpt>
      <trkpt lat="44.4936" lon="1.40404">
        <ele>173.8</ele>
        <time>2025-05-29T09:18:11Z</time>
      </trkpt>
      <trkpt lat="44.49358" lon="1.40407">
        <ele>173</ele>
        <time>2025-05-29T09:18:12Z</time>
      </trkpt>
      <trkpt lat="44.49356" lon="1.4041">
        <ele>172.4</ele>
        <time>2025-05-29T09:18:13Z</time>
      </trkpt>
      <trkpt lat="44.49354" lon="1.40412">
        <ele>171.8</ele>
        <time>2025-05-29T09:18:14Z</time>
      </trkpt>
      <trkpt lat="44.49353" lon="1.40415">
        <ele>171</ele>
        <time>2025-05-29T09:18:15Z</time>
      </trkpt>
      <trkpt lat="44.49352" lon="1.40418">
        <ele>170.2</ele>
        <time>2025-05-29T09:18:16Z</time>
      </trkpt>
      <trkpt lat="44.49352" lon="1.40422">
        <ele>169.4</ele>
        <time>2025-05-29T09:18:17Z</time>
      </trkpt>
      <trkpt lat="44.49352" lon="1.40425">
        <ele>168.8</ele>
        <time>2025-05-29T09:18:18Z</time>
      </trkpt>
      <trkpt lat="44.49356" lon="1.40421">
        <ele>166.1</ele>
      </trkpt>
      <trkpt lat="44.49357" lon="1.40417">
        <ele>167.8</ele>
      </trkpt>
      <trkpt lat="44.4936" lon="1.40414">
        <ele>169.2</ele>
      </trkpt>
      <trkpt lat="44.49361" lon="1.40411">
        <ele>170</ele>
      </trkpt>
      <trkpt lat="44.49363" lon="1.4041">
        <ele>170</ele>
        <time>2025-05-29T09:20:08Z</time>
      </trkpt>
      <trkpt lat="44.49364" lon="1.40413">
        <ele>169.8</ele>
        <time>2025-05-29T09:20:09Z</time>
      </trkpt>
      <trkpt lat="44.49366" lon="1.40416">
        <ele>169.4</ele>
        <time>2025-05-29T09:20:10Z</time>
      </trkpt>
      <trkpt lat="44.49368" lon="1.40419">
        <ele>169.2</ele>
        <time>2025-05-29T09:20:11Z</time>
      </trkpt>
      <trkpt lat="44.49369" lon="1.40422">
        <ele>168.6</ele>
        <time>2025-05-29T09:20:12Z</time>
      </trkpt>
      <trkpt lat="44.49371" lon="1.40425">
        <ele>168.2</ele>
        <time>2025-05-29T09:20:13Z</time>
      </trkpt>
      <trkpt lat="44.49374" lon="1.40428">
        <ele>167.6</ele>
        <time>2025-05-29T09:20:14Z</time>
      </trkpt>
      <trkpt lat="44.49377" lon="1.40431">
        <ele>167</ele>
        <time>2025-05-29T09:20:15Z</time>
      </trkpt>
      <trkpt lat="44.49378" lon="1.40434">
        <ele>166.4</ele>
        <time>2025-05-29T09:20:16Z</time>
      </trkpt>
      <trkpt lat="44.4938" lon="1.40439">
        <ele>165.8</ele>
        <time>2025-05-29T09:20:17Z</time>
      </trkpt>
      <trkpt lat="44.49383" lon="1.40442">
        <ele>165</ele>
        <time>2025-05-29T09:20:18Z</time>
      </trkpt>
      <trkpt lat="44.49386" lon="1.40442">
        <ele>164.2</ele>
        <time>2025-05-29T09:20:19Z</time>
      </trkpt>
      <trkpt lat="44.49388" lon="1.4044">
        <ele>163.6</ele>
        <time>2025-05-29T09:20:20Z</time>
      </trkpt>
      <trkpt lat="44.4939" lon="1.40439">
        <ele>163</ele>
        <time>2025-05-29T09:20:21Z</time>
      </trkpt>
      <trkpt lat="44.49392" lon="1.40439">
        <ele>162.6</ele>
        <time>2025-05-29T09:20:22Z</time>
      </trkpt>
      <trkpt lat="44.49396" lon="1.40439">
        <ele>162.2</ele>
        <time>2025-05-29T09:20:23Z</time>
      </trkpt>
      <trkpt lat="44.494" lon="1.40438">
        <ele>161.8</ele>
        <time>2025-05-29T09:20:24Z</time>
      </trkpt>
      <trkpt lat="44.49404" lon="1.40437">
        <ele>161.4</ele>
        <time>2025-05-29T09:20:25Z</time>
      </trkpt>
      <trkpt lat="44.49409" lon="1.40436">
        <ele>160.8</ele>
        <time>2025-05-29T09:20:26Z</time>
      </trkpt>
      <trkpt lat="44.49413" lon="1.40436">
        <ele>160</ele>
        <time>2025-05-29T09:20:27Z</time>
      </trkpt>
      <trkpt lat="44.49417" lon="1.40434">
        <ele>159.2</ele>
        <time>2025-05-29T09:20:28Z</time>
      </trkpt>
      <trkpt lat="44.49421" lon="1.40432">
        <ele>158.4</ele>
        <time>2025-05-29T09:20:29Z</time>
      </trkpt>
      <trkpt lat="44.49426" lon="1.40431">
        <ele>157.2</ele>
        <time>2025-05-29T09:20:30Z</time>
      </trkpt>
      <trkpt lat="44.49431" lon="1.40427">
        <ele>156.4</ele>
        <time>2025-05-29T09:20:31Z</time>
      </trkpt>
      <trkpt lat="44.49435" lon="1.40424">
        <ele>155.4</ele>
        <time>2025-05-29T09:20:32Z</time>
      </trkpt>
      <trkpt lat="44.49439" lon="1.4042">
        <ele>154.8</ele>
        <time>2025-05-29T09:20:33Z</time>
      </trkpt>
      <trkpt lat="44.49441" lon="1.40419">
        <ele>154</ele>
        <time>2025-05-29T09:20:34Z</time>
      </trkpt>
      <trkpt lat="44.49444" lon="1.40419">
        <ele>153.4</ele>
        <time>2025-05-29T09:20:35Z</time>
      </trkpt>
      <trkpt lat="44.49446" lon="1.40421">
        <ele>152.8</ele>
        <time>2025-05-29T09:20:36Z</time>
      </trkpt>
      <trkpt lat="44.4945" lon="1.40422">
        <ele>152</ele>
        <time>2025-05-29T09:20:37Z</time>
      </trkpt>
      <trkpt lat="44.49453" lon="1.40423">
        <ele>151.2</ele>
        <time>2025-05-29T09:20:38Z</time>
      </trkpt>
      <trkpt lat="44.49455" lon="1.40423">
        <ele>150.2</ele>
        <time>2025-05-29T09:20:39Z</time>
      </trkpt>
      <trkpt lat="44.49456" lon="1.40423">
        <ele>149.2</ele>
        <time>2025-05-29T09:20:40Z</time>
      </trkpt>
      <trkpt lat="44.49462" lon="1.40428">
        <ele>146.8</ele>
        <time>2025-05-29T09:20:48Z</time>
      </trkpt>
      <trkpt lat="44.49464" lon="1.40431">
        <ele>146.4</ele>
        <time>2025-05-29T09:20:49Z</time>
      </trkpt>
      <trkpt lat="44.49464" lon="1.40435">
        <ele>145.8</ele>
        <time>2025-05-29T09:20:50Z</time>
      </trkpt>
      <trkpt lat="44.49464" lon="1.40438">
        <ele>145</ele>
        <time>2025-05-29T09:20:51Z</time>
      </trkpt>
      <trkpt lat="44.49465" lon="1.40441">
        <ele>144.2</ele>
        <time>2025-05-29T09:20:52Z</time>
      </trkpt>
      <trkpt lat="44.49465" lon="1.40441">
        <ele>143.8</ele>
        <time>2025-05-29T09:20:53Z</time>
      </trkpt>
      <trkpt lat="44.49466" lon="1.40442">
        <ele>143.4</ele>
        <time>2025-05-29T09:20:54Z</time>
      </trkpt>
      <trkpt lat="44.49465" lon="1.40451">
        <ele>143.2</ele>
        <time>2025-05-29T09:21:00Z</time>
      </trkpt>
      <trkpt lat="44.49465" lon="1.40454">
        <ele>143</ele>
        <time>2025-05-29T09:21:01Z</time>
      </trkpt>
      <trkpt lat="44.49466" lon="1.40457">
        <ele>142.8</ele>
        <time>2025-05-29T09:21:02Z</time>
      </trkpt>
      <trkpt lat="44.49466" lon="1.40459">
        <ele>142.8</ele>
        <time>2025-05-29T09:21:03Z</time>
      </trkpt>
      <trkpt lat="44.49466" lon="1.40461">
        <ele>142.6</ele>
        <time>2025-05-29T09:21:04Z</time>
      </trkpt>
      <trkpt lat="44.49466" lon="1.40464">
        <ele>142.6</ele>
        <time>2025-05-29T09:21:05Z</time>
      </trkpt>
      <trkpt lat="44.49466" lon="1.40467">
        <ele>142.4</ele>
        <time>2025-05-29T09:21:06Z</time>
      </trkpt>
      <trkpt lat="44.49465" lon="1.4047">
        <ele>142.4</ele>
        <time>2025-05-29T09:21:07Z</time>
      </trkpt>
      <trkpt lat="44.49463" lon="1.40471">
        <ele>142.2</ele>
        <time>2025-05-29T09:21:08Z</time>
      </trkpt>
      <trkpt lat="44.49461" lon="1.40471">
        <ele>142</ele>
        <time>2025-05-29T09:21:09Z</time>
      </trkpt>
      <trkpt lat="44.49459" lon="1.40473">
        <ele>141.6</ele>
        <time>2025-05-29T09:21:10Z</time>
      </trkpt>
      <trkpt lat="44.49456" lon="1.40475">
        <ele>141.2</ele>
        <time>2025-05-29T09:21:11Z</time>
      </trkpt>
      <trkpt lat="44.49454" lon="1.40478">
        <ele>140.8</ele>
        <time>2025-05-29T09:21:12Z</time>
      </trkpt>
      <trkpt lat="44.49453" lon="1.40482">
        <ele>140</ele>
        <time>2025-05-29T09:21:13Z</time>
      </trkpt>
      <trkpt lat="44.49453" lon="1.40487">
        <ele>139.4</ele>
        <time>2025-05-29T09:21:14Z</time>
      </trkpt>
      <trkpt lat="44.49452" lon="1.40491">
        <ele>138.8</ele>
        <time>2025-05-29T09:21:15Z</time>
      </trkpt>
      <trkpt lat="44.49452" lon="1.40495">
        <ele>138.2</ele>
        <time>2025-05-29T09:21:16Z</time>
      </trkpt>
      <trkpt lat="44.49451" lon="1.40499">
        <ele>137.8</ele>
        <time>2025-05-29T09:21:17Z</time>
      </trkpt>
      <trkpt lat="44.49448" lon="1.40501">
        <ele>137.4</ele>
        <time>2025-05-29T09:21:18Z</time>
      </trkpt>
      <trkpt lat="44.49446" lon="1.40505">
        <ele>137</ele>
        <time>2025-05-29T09:21:19Z</time>
      </trkpt>
      <trkpt lat="44.49445" lon="1.4051">
        <ele>136.6</ele>
        <time>2025-05-29T09:21:20Z</time>
      </trkpt>
      <trkpt lat="44.49443" lon="1.40516">
        <ele>136.2</ele>
        <time>2025-05-29T09:21:21Z</time>
      </trkpt>
      <trkpt lat="44.49441" lon="1.40521">
        <ele>135.4</ele>
        <time>2025-05-29T09:21:22Z</time>
      </trkpt>
      <trkpt lat="44.49439" lon="1.40527">
        <ele>134.8</ele>
        <time>2025-05-29T09:21:23Z</time>
      </trkpt>
      <trkpt lat="44.49436" lon="1.40534">
        <ele>133.8</ele>
        <time>2025-05-29T09:21:24Z</time>
      </trkpt>
      <trkpt lat="44.49433" lon="1.4054">
        <ele>132.8</ele>
        <time>2025-05-29T09:21:25Z</time>
      </trkpt>
      <trkpt lat="44.49431" lon="1.40546">
        <ele>132</ele>
        <time>2025-05-29T09:21:26Z</time>
      </trkpt>
      <trkpt lat="44.49429" lon="1.40553">
        <ele>131.2</ele>
        <time>2025-05-29T09:21:27Z</time>
      </trkpt>
      <trkpt lat="44.49428" lon="1.40559">
        <ele>130.4</ele>
        <time>2025-05-29T09:21:28Z</time>
      </trkpt>
      <trkpt lat="44.49427" lon="1.40566">
        <ele>129.2</ele>
        <time>2025-05-29T09:21:29Z</time>
      </trkpt>
      <trkpt lat="44.49426" lon="1.40573">
        <ele>128.4</ele>
        <time>2025-05-29T09:21:30Z</time>
      </trkpt>
      <trkpt lat="44.49425" lon="1.4058">
        <ele>127.6</ele>
        <time>2025-05-29T09:21:31Z</time>
      </trkpt>
      <trkpt lat="44.49424" lon="1.40585">
        <ele>126.8</ele>
        <time>2025-05-29T09:21:32Z</time>
      </trkpt>
      <trkpt lat="44.49421" lon="1.4059">
        <ele>126</ele>
        <time>2025-05-29T09:21:33Z</time>
      </trkpt>
      <trkpt lat="44.49418" lon="1.40594">
        <ele>125.2</ele>
        <time>2025-05-29T09:21:34Z</time>
      </trkpt>
      <trkpt lat="44.49415" lon="1.40597">
        <ele>124.4</ele>
        <time>2025-05-29T09:21:35Z</time>
      </trkpt>
      <trkpt lat="44.49413" lon="1.40599">
        <ele>123.8</ele>
        <time>2025-05-29T09:21:36Z</time>
      </trkpt>
      <trkpt lat="44.49409" lon="1.40601">
        <ele>123.2</ele>
        <time>2025-05-29T09:21:37Z</time>
      </trkpt>
      <trkpt lat="44.49404" lon="1.40602">
        <ele>122.6</ele>
        <time>2025-05-29T09:21:38Z</time>
      </trkpt>
      <trkpt lat="44.494" lon="1.40601">
        <ele>121.8</ele>
        <time>2025-05-29T09:21:39Z</time>
      </trkpt>
      <trkpt lat="44.49396" lon="1.40599">
        <ele>121.2</ele>
        <time>2025-05-29T09:21:40Z</time>
      </trkpt>
      <trkpt lat="44.49391" lon="1.40597">
        <ele>120.6</ele>
        <time>2025-05-29T09:21:41Z</time>
      </trkpt>
      <trkpt lat="44.49386" lon="1.40594">
        <ele>120.2</ele>
        <time>2025-05-29T09:21:42Z</time>
      </trkpt>
      <trkpt lat="44.49381" lon="1.40592">
        <ele>119.6</ele>
        <time>2025-05-29T09:21:43Z</time>
      </trkpt>
      <trkpt lat="44.49375" lon="1.4059">
        <ele>119.2</ele>
        <time>2025-05-29T09:21:44Z</time>
      </trkpt>
      <trkpt lat="44.49369" lon="1.40588">
        <ele>118.8</ele>
        <time>2025-05-29T09:21:45Z</time>
      </trkpt>
      <trkpt lat="44.49364" lon="1.40586">
        <ele>118.6</ele>
        <time>2025-05-29T09:21:46Z</time>
      </trkpt>
      <trkpt lat="44.49359" lon="1.40583">
        <ele>118.2</ele>
        <time>2025-05-29T09:21:47Z</time>
      </trkpt>
      <trkpt lat="44.49353" lon="1.4058">
        <ele>118.2</ele>
        <time>2025-05-29T09:21:48Z</time>
      </trkpt>
      <trkpt lat="44.49348" lon="1.40577">
        <ele>118</ele>
        <time>2025-05-29T09:21:49Z</time>
      </trkpt>
      <trkpt lat="44.49342" lon="1.40576">
        <ele>117.8</ele>
        <time>2025-05-29T09:21:50Z</time>
      </trkpt>
      <trkpt lat="44.49337" lon="1.40574">
        <ele>117.6</ele>
        <time>2025-05-29T09:21:51Z</time>
      </trkpt>
      <trkpt lat="44.49331" lon="1.40572">
        <ele>117.4</ele>
        <time>2025-05-29T09:21:52Z</time>
      </trkpt>
      <trkpt lat="44.49326" lon="1.40571">
        <ele>117.4</ele>
        <time>2025-05-29T09:21:53Z</time>
      </trkpt>
      <trkpt lat="44.49319" lon="1.40569">
        <ele>117.2</ele>
        <time>2025-05-29T09:21:54Z</time>
      </trkpt>
      <trkpt lat="44.49313" lon="1.40567">
        <ele>117</ele>
        <time>2025-05-29T09:21:55Z</time>
      </trkpt>
      <trkpt lat="44.49307" lon="1.40566">
        <ele>116.8</ele>
        <time>2025-05-29T09:21:56Z</time>
      </trkpt>
      <trkpt lat="44.49301" lon="1.40564">
        <ele>116.6</ele>
        <time>2025-05-29T09:21:57Z</time>
      </trkpt>
      <trkpt lat="44.49296" lon="1.40561">
        <ele>116.2</ele>
        <time>2025-05-29T09:21:58Z</time>
      </trkpt>
      <trkpt lat="44.49291" lon="1.4056">
        <ele>116</ele>
        <time>2025-05-29T09:21:59Z</time>
      </trkpt>
      <trkpt lat="44.49286" lon="1.40558">
        <ele>116</ele>
        <time>2025-05-29T09:22:00Z</time>
      </trkpt>
      <trkpt lat="44.49283" lon="1.40555">
        <ele>116</ele>
        <time>2025-05-29T09:22:01Z</time>
      </trkpt>
      <trkpt lat="44.49281" lon="1.40553">
        <ele>116</ele>
        <time>2025-05-29T09:22:02Z</time>
      </trkpt>
      <trkpt lat="44.49281" lon="1.40552">
        <ele>116.2</ele>
        <time>2025-05-29T09:22:03Z</time>
      </trkpt>
      <trkpt lat="44.49281" lon="1.40552">
        <ele>116.4</ele>
        <time>2025-05-29T09:22:04Z</time>
      </trkpt>
      <trkpt lat="44.49281" lon="1.40552">
        <ele>116.4</ele>
        <time>2025-05-29T09:22:05Z</time>
      </trkpt>
      <trkpt lat="44.49277" lon="1.40552">
        <ele>115.8</ele>
        <time>2025-05-29T09:22:48Z</time>
      </trkpt>
      <trkpt lat="44.49276" lon="1.40554">
        <ele>115.8</ele>
        <time>2025-05-29T09:22:49Z</time>
      </trkpt>
      <trkpt lat="44.49275" lon="1.40557">
        <ele>115.6</ele>
        <time>2025-05-29T09:22:50Z</time>
      </trkpt>
      <trkpt lat="44.49274" lon="1.4056">
        <ele>115.6</ele>
        <time>2025-05-29T09:22:51Z</time>
      </trkpt>
      <trkpt lat="44.49272" lon="1.40563">
        <ele>115.6</ele>
        <time>2025-05-29T09:22:52Z</time>
      </trkpt>
      <trkpt lat="44.49269" lon="1.40568">
        <ele>117.7</ele>
      </trkpt>
      <trkpt lat="44.49268" lon="1.4057">
        <ele>117.9</ele>
      </trkpt>
      <trkpt lat="44.49267" lon="1.40572">
        <ele>118</ele>
      </trkpt>
      <trkpt lat="44.49265" lon="1.40573">
        <ele>118.2</ele>
      </trkpt>
      <trkpt lat="44.49263" lon="1.40576">
        <ele>118.4</ele>
      </trkpt>
      <trkpt lat="44.49262" lon="1.40577">
        <ele>118.5</ele>
      </trkpt>
      <trkpt lat="44.4926" lon="1.4058">
        <ele>118.6</ele>
      </trkpt>
      <trkpt lat="44.49258" lon="1.40583">
        <ele>118.4</ele>
      </trkpt>
      <trkpt lat="44.49256" lon="1.40585">
        <ele>118.5</ele>
      </trkpt>
      <trkpt lat="44.49253" lon="1.40588">
        <ele>118.6</ele>
      </trkpt>
      <trkpt lat="44.49251" lon="1.40591">
        <ele>118.4</ele>
      </trkpt>
      <trkpt lat="44.4925" lon="1.40594">
        <ele>118.2</ele>
      </trkpt>
      <trkpt lat="44.49248" lon="1.40597">
        <ele>118.3</ele>
      </trkpt>
      <trkpt lat="44.49247" lon="1.406">
        <ele>118.1</ele>
      </trkpt>
      <trkpt lat="44.49245" lon="1.40601">
        <ele>118.4</ele>
      </trkpt>
      <trkpt lat="44.49243" lon="1.40603">
        <ele>118.6</ele>
      </trkpt>
      <trkpt lat="44.4924" lon="1.40607">
        <ele>119.2</ele>
      </trkpt>
      <trkpt lat="44.49238" lon="1.40609">
        <ele>119.7</ele>
      </trkpt>
      <trkpt lat="44.49236" lon="1.40611">
        <ele>120</ele>
      </trkpt>
      <trkpt lat="44.49234" lon="1.40612">
        <ele>120.7</ele>
      </trkpt>
      <trkpt lat="44.49232" lon="1.40616">
        <ele>121.3</ele>
      </trkpt>
      <trkpt lat="44.49229" lon="1.40617">
        <ele>122.1</ele>
      </trkpt>
      <trkpt lat="44.49227" lon="1.4062">
        <ele>122.7</ele>
      </trkpt>
      <trkpt lat="44.49225" lon="1.40622">
        <ele>123</ele>
      </trkpt>
      <trkpt lat="44.49224" lon="1.40623">
        <ele>123.4</ele>
      </trkpt>
      <trkpt lat="44.49221" lon="1.40625">
        <ele>123.6</ele>
      </trkpt>
      <trkpt lat="44.49219" lon="1.40627">
        <ele>123.6</ele>
      </trkpt>
      <trkpt lat="44.49217" lon="1.40628">
        <ele>123.6</ele>
      </trkpt>
      <trkpt lat="44.49215" lon="1.40629">
        <ele>123.7</ele>
      </trkpt>
      <trkpt lat="44.49213" lon="1.40631">
        <ele>123.9</ele>
      </trkpt>
      <trkpt lat="44.4921" lon="1.40634">
        <ele>124.2</ele>
      </trkpt>
      <trkpt lat="44.49208" lon="1.40635">
        <ele>124.5</ele>
      </trkpt>
      <trkpt lat="44.49206" lon="1.40637">
        <ele>124.8</ele>
      </trkpt>
      <trkpt lat="44.49204" lon="1.40638">
        <ele>125.1</ele>
      </trkpt>
      <trkpt lat="44.49202" lon="1.40639">
        <ele>125.7</ele>
      </trkpt>
      <trkpt lat="44.49201" lon="1.4064">
        <ele>126.2</ele>
      </trkpt>
      <trkpt lat="44.49199" lon="1.40642">
        <ele>126.8</ele>
      </trkpt>
      <trkpt lat="44.49197" lon="1.40644">
        <ele>127.4</ele>
      </trkpt>
      <trkpt lat="44.49198" lon="1.40645">
        <ele>126.2</ele>
        <time>2025-05-29T09:29:24Z</time>
      </trkpt>
      <trkpt lat="44.49194" lon="1.4065">
        <ele>126.4</ele>
        <time>2025-05-29T09:29:25Z</time>
      </trkpt>
      <trkpt lat="44.4919" lon="1.40654">
        <ele>126.8</ele>
        <time>2025-05-29T09:29:26Z</time>
      </trkpt>
      <trkpt lat="44.49187" lon="1.40658">
        <ele>127</ele>
        <time>2025-05-29T09:29:27Z</time>
      </trkpt>
      <trkpt lat="44.49184" lon="1.40662">
        <ele>127.4</ele>
        <time>2025-05-29T09:29:28Z</time>
      </trkpt>
      <trkpt lat="44.49181" lon="1.40666">
        <ele>127.6</ele>
        <time>2025-05-29T09:29:29Z</time>
      </trkpt>
      <trkpt lat="44.49178" lon="1.4067">
        <ele>133.4</ele>
        <time>2025-05-29T09:32:33Z</time>
      </trkpt>
      <trkpt lat="44.49175" lon="1.40674">
        <ele>133</ele>
        <time>2025-05-29T09:32:34Z</time>
      </trkpt>
      <trkpt lat="44.49173" lon="1.40677">
        <ele>132.8</ele>
        <time>2025-05-29T09:32:35Z</time>
      </trkpt>
      <trkpt lat="44.49173" lon="1.4068">
        <ele>132.6</ele>
        <time>2025-05-29T09:32:36Z</time>
      </trkpt>
      <trkpt lat="44.49171" lon="1.40682">
        <ele>132.6</ele>
        <time>2025-05-29T09:32:37Z</time>
      </trkpt>
      <trkpt lat="44.49169" lon="1.40685">
        <ele>132.4</ele>
        <time>2025-05-29T09:32:38Z</time>
      </trkpt>
      <trkpt lat="44.49168" lon="1.40686">
        <ele>132.4</ele>
        <time>2025-05-29T09:32:39Z</time>
      </trkpt>
      <trkpt lat="44.49168" lon="1.40685">
        <ele>132.4</ele>
        <time>2025-05-29T09:32:40Z</time>
      </trkpt>
      <trkpt lat="44.49168" lon="1.40685">
        <ele>132.2</ele>
        <time>2025-05-29T09:32:41Z</time>
      </trkpt>
      <trkpt lat="44.4917" lon="1.40682">
        <ele>132.2</ele>
        <time>2025-05-29T09:34:07Z</time>
      </trkpt>
      <trkpt lat="44.49172" lon="1.4068">
        <ele>132.2</ele>
        <time>2025-05-29T09:34:08Z</time>
      </trkpt>
      <trkpt lat="44.49173" lon="1.40679">
        <ele>132.2</ele>
        <time>2025-05-29T09:34:09Z</time>
      </trkpt>
      <trkpt lat="44.49174" lon="1.40676">
        <ele>132.4</ele>
        <time>2025-05-29T09:34:10Z</time>
      </trkpt>
      <trkpt lat="44.49175" lon="1.40673">
        <ele>132.6</ele>
        <time>2025-05-29T09:34:11Z</time>
      </trkpt>
      <trkpt lat="44.49178" lon="1.4067">
        <ele>132.6</ele>
        <time>2025-05-29T09:34:12Z</time>
      </trkpt>
      <trkpt lat="44.49179" lon="1.40668">
        <ele>132.8</ele>
        <time>2025-05-29T09:34:13Z</time>
      </trkpt>
      <trkpt lat="44.4918" lon="1.40666">
        <ele>132.8</ele>
        <time>2025-05-29T09:34:14Z</time>
      </trkpt>
      <trkpt lat="44.49181" lon="1.40665">
        <ele>133</ele>
        <time>2025-05-29T09:34:15Z</time>
      </trkpt>
      <trkpt lat="44.49182" lon="1.40665">
        <ele>133.2</ele>
        <time>2025-05-29T09:34:16Z</time>
      </trkpt>
      <trkpt lat="44.49183" lon="1.40665">
        <ele>133.4</ele>
        <time>2025-05-29T09:34:17Z</time>
      </trkpt>
      <trkpt lat="44.49185" lon="1.40666">
        <ele>133.6</ele>
        <time>2025-05-29T09:34:18Z</time>
      </trkpt>
      <trkpt lat="44.49187" lon="1.40666">
        <ele>133.6</ele>
        <time>2025-05-29T09:34:19Z</time>
      </trkpt>
      <trkpt lat="44.49189" lon="1.40667">
        <ele>133.6</ele>
        <time>2025-05-29T09:34:20Z</time>
      </trkpt>
      <trkpt lat="44.49191" lon="1.40668">
        <ele>133.6</ele>
        <time>2025-05-29T09:34:21Z</time>
      </trkpt>
      <trkpt lat="44.49193" lon="1.40668">
        <ele>133.6</ele>
        <time>2025-05-29T09:34:22Z</time>
      </trkpt>
      <trkpt lat="44.49195" lon="1.40668">
        <ele>133.6</ele>
        <time>2025-05-29T09:34:23Z</time>
      </trkpt>
      <trkpt lat="44.49197" lon="1.40669">
        <ele>133.6</ele>
        <time>2025-05-29T09:34:24Z</time>
      </trkpt>
      <trkpt lat="44.49199" lon="1.40669">
        <ele>133.4</ele>
        <time>2025-05-29T09:34:25Z</time>
      </trkpt>
      <trkpt lat="44.49202" lon="1.4067">
        <ele>133.4</ele>
        <time>2025-05-29T09:34:26Z</time>
      </trkpt>
      <trkpt lat="44.49205" lon="1.40672">
        <ele>133.4</ele>
        <time>2025-05-29T09:34:27Z</time>
      </trkpt>
      <trkpt lat="44.49206" lon="1.40673">
        <ele>133.4</ele>
        <time>2025-05-29T09:34:28Z</time>
      </trkpt>
      <trkpt lat="44.49209" lon="1.40674">
        <ele>133.4</ele>
        <time>2025-05-29T09:34:29Z</time>
      </trkpt>
      <trkpt lat="44.49212" lon="1.40675">
        <ele>133.4</ele>
        <time>2025-05-29T09:34:30Z</time>
      </trkpt>
      <trkpt lat="44.49215" lon="1.40675">
        <ele>133.4</ele>
        <time>2025-05-29T09:34:31Z</time>
      </trkpt>
      <trkpt lat="44.49218" lon="1.40677">
        <ele>133.2</ele>
        <time>2025-05-29T09:34:32Z</time>
      </trkpt>
      <trkpt lat="44.49221" lon="1.4068">
        <ele>133.2</ele>
        <time>2025-05-29T09:34:33Z</time>
      </trkpt>
      <trkpt lat="44.49224" lon="1.40682">
        <ele>133</ele>
        <time>2025-05-29T09:34:34Z</time>
      </trkpt>
      <trkpt lat="44.49226" lon="1.40684">
        <ele>132.8</ele>
        <time>2025-05-29T09:34:35Z</time>
      </trkpt>
      <trkpt lat="44.49227" lon="1.40685">
        <ele>132.8</ele>
        <time>2025-05-29T09:34:36Z</time>
      </trkpt>
      <trkpt lat="44.49229" lon="1.40687">
        <ele>133</ele>
        <time>2025-05-29T09:34:37Z</time>
      </trkpt>
      <trkpt lat="44.4923" lon="1.40689">
        <ele>133</ele>
        <time>2025-05-29T09:34:38Z</time>
      </trkpt>
      <trkpt lat="44.49232" lon="1.40691">
        <ele>133.4</ele>
        <time>2025-05-29T09:34:39Z</time>
      </trkpt>
      <trkpt lat="44.49235" lon="1.40692">
        <ele>133.6</ele>
        <time>2025-05-29T09:34:40Z</time>
      </trkpt>
      <trkpt lat="44.49237" lon="1.40694">
        <ele>133.8</ele>
        <time>2025-05-29T09:34:41Z</time>
      </trkpt>
      <trkpt lat="44.49239" lon="1.40696">
        <ele>133.8</ele>
        <time>2025-05-29T09:34:42Z</time>
      </trkpt>
      <trkpt lat="44.49241" lon="1.40696">
        <ele>133.8</ele>
        <time>2025-05-29T09:34:43Z</time>
      </trkpt>
      <trkpt lat="44.49243" lon="1.40696">
        <ele>133.8</ele>
        <time>2025-05-29T09:34:44Z</time>
      </trkpt>
      <trkpt lat="44.49246" lon="1.40696">
        <ele>133.8</ele>
        <time>2025-05-29T09:34:45Z</time>
      </trkpt>
      <trkpt lat="44.49249" lon="1.40697">
        <ele>133.8</ele>
        <time>2025-05-29T09:34:46Z</time>
      </trkpt>
      <trkpt lat="44.49252" lon="1.40698">
        <ele>133.6</ele>
        <time>2025-05-29T09:34:47Z</time>
      </trkpt>
      <trkpt lat="44.49255" lon="1.40699">
        <ele>133.4</ele>
        <time>2025-05-29T09:34:48Z</time>
      </trkpt>
      <trkpt lat="44.49258" lon="1.40699">
        <ele>133</ele>
        <time>2025-05-29T09:34:49Z</time>
      </trkpt>
      <trkpt lat="44.49262" lon="1.40699">
        <ele>132.6</ele>
        <time>2025-05-29T09:34:50Z</time>
      </trkpt>
      <trkpt lat="44.49265" lon="1.40697">
        <ele>132.2</ele>
        <time>2025-05-29T09:34:51Z</time>
      </trkpt>
      <trkpt lat="44.49268" lon="1.40697">
        <ele>131.6</ele>
        <time>2025-05-29T09:34:52Z</time>
      </trkpt>
      <trkpt lat="44.4927" lon="1.40697">
        <ele>131.4</ele>
        <time>2025-05-29T09:34:53Z</time>
      </trkpt>
      <trkpt lat="44.49272" lon="1.40698">
        <ele>131.2</ele>
        <time>2025-05-29T09:34:54Z</time>
      </trkpt>
      <trkpt lat="44.49274" lon="1.40699">
        <ele>131</ele>
        <time>2025-05-29T09:34:55Z</time>
      </trkpt>
      <trkpt lat="44.49276" lon="1.40701">
        <ele>131</ele>
        <time>2025-05-29T09:34:56Z</time>
      </trkpt>
      <trkpt lat="44.49277" lon="1.40702">
        <ele>131.2</ele>
        <time>2025-05-29T09:34:57Z</time>
      </trkpt>
      <trkpt lat="44.49279" lon="1.40703">
        <ele>131.4</ele>
        <time>2025-05-29T09:34:58Z</time>
      </trkpt>
      <trkpt lat="44.49281" lon="1.40704">
        <ele>131.4</ele>
        <time>2025-05-29T09:34:59Z</time>
      </trkpt>
      <trkpt lat="44.49282" lon="1.40705">
        <ele>131.6</ele>
        <time>2025-05-29T09:35:00Z</time>
      </trkpt>
      <trkpt lat="44.49283" lon="1.40706">
        <ele>131.6</ele>
        <time>2025-05-29T09:35:01Z</time>
      </trkpt>
      <trkpt lat="44.49285" lon="1.40707">
        <ele>131.8</ele>
        <time>2025-05-29T09:35:02Z</time>
      </trkpt>
      <trkpt lat="44.49286" lon="1.40709">
        <ele>131.8</ele>
        <time>2025-05-29T09:35:03Z</time>
      </trkpt>
      <trkpt lat="44.49288" lon="1.4071">
        <ele>131.8</ele>
        <time>2025-05-29T09:35:04Z</time>
      </trkpt>
      <trkpt lat="44.4929" lon="1.4071">
        <ele>132</ele>
        <time>2025-05-29T09:35:05Z</time>
      </trkpt>
      <trkpt lat="44.49292" lon="1.40711">
        <ele>132</ele>
        <time>2025-05-29T09:35:06Z</time>
      </trkpt>
      <trkpt lat="44.49294" lon="1.40712">
        <ele>132.2</ele>
        <time>2025-05-29T09:35:07Z</time>
      </trkpt>
      <trkpt lat="44.49296" lon="1.40713">
        <ele>132</ele>
        <time>2025-05-29T09:35:08Z</time>
      </trkpt>
      <trkpt lat="44.49299" lon="1.40713">
        <ele>132</ele>
        <time>2025-05-29T09:35:09Z</time>
      </trkpt>
      <trkpt lat="44.49301" lon="1.40714">
        <ele>132</ele>
        <time>2025-05-29T09:35:10Z</time>
      </trkpt>
      <trkpt lat="44.49303" lon="1.40715">
        <ele>132</ele>
        <time>2025-05-29T09:35:11Z</time>
      </trkpt>
      <trkpt lat="44.49304" lon="1.40717">
        <ele>132</ele>
        <time>2025-05-29T09:35:12Z</time>
      </trkpt>
      <trkpt lat="44.49306" lon="1.40717">
        <ele>132</ele>
        <time>2025-05-29T09:35:13Z</time>
      </trkpt>
      <trkpt lat="44.49308" lon="1.40718">
        <ele>132.2</ele>
        <time>2025-05-29T09:35:14Z</time>
      </trkpt>
      <trkpt lat="44.4931" lon="1.40719">
        <ele>132.4</ele>
        <time>2025-05-29T09:35:15Z</time>
      </trkpt>
      <trkpt lat="44.49312" lon="1.4072">
        <ele>132.6</ele>
        <time>2025-05-29T09:35:16Z</time>
      </trkpt>
      <trkpt lat="44.49314" lon="1.40721">
        <ele>132.8</ele>
        <time>2025-05-29T09:35:17Z</time>
      </trkpt>
      <trkpt lat="44.49316" lon="1.40721">
        <ele>132.6</ele>
        <time>2025-05-29T09:35:18Z</time>
      </trkpt>
      <trkpt lat="44.49318" lon="1.40722">
        <ele>132.6</ele>
        <time>2025-05-29T09:35:19Z</time>
      </trkpt>
      <trkpt lat="44.4932" lon="1.40724">
        <ele>132.4</ele>
        <time>2025-05-29T09:35:20Z</time>
      </trkpt>
      <trkpt lat="44.49323" lon="1.40725">
        <ele>132.4</ele>
        <time>2025-05-29T09:35:21Z</time>
      </trkpt>
      <trkpt lat="44.49324" lon="1.40727">
        <ele>132.4</ele>
        <time>2025-05-29T09:35:22Z</time>
      </trkpt>
      <trkpt lat="44.49326" lon="1.40729">
        <ele>132.4</ele>
        <time>2025-05-29T09:35:23Z</time>
      </trkpt>
      <trkpt lat="44.49328" lon="1.4073">
        <ele>132.4</ele>
        <time>2025-05-29T09:35:24Z</time>
      </trkpt>
      <trkpt lat="44.4933" lon="1.40731">
        <ele>132.6</ele>
        <time>2025-05-29T09:35:25Z</time>
      </trkpt>
      <trkpt lat="44.49333" lon="1.4073">
        <ele>132.4</ele>
        <time>2025-05-29T09:35:26Z</time>
      </trkpt>
      <trkpt lat="44.49335" lon="1.40729">
        <ele>132.4</ele>
        <time>2025-05-29T09:35:27Z</time>
      </trkpt>
      <trkpt lat="44.49338" lon="1.4073">
        <ele>132.2</ele>
        <time>2025-05-29T09:35:28Z</time>
      </trkpt>
      <trkpt lat="44.4934" lon="1.40732">
        <ele>132</ele>
        <time>2025-05-29T09:35:29Z</time>
      </trkpt>
      <trkpt lat="44.49342" lon="1.40734">
        <ele>131.8</ele>
        <time>2025-05-29T09:35:30Z</time>
      </trkpt>
      <trkpt lat="44.49344" lon="1.40735">
        <ele>131.6</ele>
        <time>2025-05-29T09:35:31Z</time>
      </trkpt>
      <trkpt lat="44.49346" lon="1.40736">
        <ele>131.6</ele>
        <time>2025-05-29T09:35:32Z</time>
      </trkpt>
      <trkpt lat="44.49348" lon="1.40736">
        <ele>131.4</ele>
        <time>2025-05-29T09:35:33Z</time>
      </trkpt>
      <trkpt lat="44.4935" lon="1.40734">
        <ele>131.4</ele>
        <time>2025-05-29T09:35:34Z</time>
      </trkpt>
      <trkpt lat="44.49353" lon="1.40733">
        <ele>131.4</ele>
        <time>2025-05-29T09:35:35Z</time>
      </trkpt>
      <trkpt lat="44.49356" lon="1.40733">
        <ele>131</ele>
        <time>2025-05-29T09:35:36Z</time>
      </trkpt>
      <trkpt lat="44.49359" lon="1.40734">
        <ele>130.8</ele>
        <time>2025-05-29T09:35:37Z</time>
      </trkpt>
      <trkpt lat="44.49363" lon="1.40735">
        <ele>130.4</ele>
        <time>2025-05-29T09:35:38Z</time>
      </trkpt>
      <trkpt lat="44.49366" lon="1.40736">
        <ele>129.8</ele>
        <time>2025-05-29T09:35:39Z</time>
      </trkpt>
      <trkpt lat="44.4937" lon="1.40736">
        <ele>129.4</ele>
        <time>2025-05-29T09:35:40Z</time>
      </trkpt>
      <trkpt lat="44.49373" lon="1.40736">
        <ele>129</ele>
        <time>2025-05-29T09:35:41Z</time>
      </trkpt>
      <trkpt lat="44.49375" lon="1.40739">
        <ele>128.6</ele>
        <time>2025-05-29T09:35:42Z</time>
      </trkpt>
      <trkpt lat="44.49377" lon="1.40739">
        <ele>128.4</ele>
        <time>2025-05-29T09:35:43Z</time>
      </trkpt>
      <trkpt lat="44.49379" lon="1.4074">
        <ele>128.2</ele>
        <time>2025-05-29T09:35:44Z</time>
      </trkpt>
      <trkpt lat="44.49381" lon="1.40741">
        <ele>128</ele>
        <time>2025-05-29T09:35:45Z</time>
      </trkpt>
      <trkpt lat="44.49382" lon="1.40743">
        <ele>127.8</ele>
        <time>2025-05-29T09:35:46Z</time>
      </trkpt>
      <trkpt lat="44.49384" lon="1.40744">
        <ele>127.8</ele>
        <time>2025-05-29T09:35:47Z</time>
      </trkpt>
      <trkpt lat="44.49387" lon="1.40745">
        <ele>127.8</ele>
        <time>2025-05-29T09:35:48Z</time>
      </trkpt>
      <trkpt lat="44.49389" lon="1.40746">
        <ele>127.8</ele>
        <time>2025-05-29T09:35:49Z</time>
      </trkpt>
      <trkpt lat="44.49392" lon="1.40747">
        <ele>127.6</ele>
        <time>2025-05-29T09:35:50Z</time>
      </trkpt>
      <trkpt lat="44.49394" lon="1.40747">
        <ele>127.6</ele>
        <time>2025-05-29T09:35:51Z</time>
      </trkpt>
      <trkpt lat="44.49397" lon="1.40749">
        <ele>127.6</ele>
        <time>2025-05-29T09:35:52Z</time>
      </trkpt>
      <trkpt lat="44.49399" lon="1.4075">
        <ele>127.4</ele>
        <time>2025-05-29T09:35:53Z</time>
      </trkpt>
      <trkpt lat="44.49401" lon="1.4075">
        <ele>127.6</ele>
        <time>2025-05-29T09:35:54Z</time>
      </trkpt>
      <trkpt lat="44.49403" lon="1.4075">
        <ele>127.6</ele>
        <time>2025-05-29T09:35:55Z</time>
      </trkpt>
      <trkpt lat="44.49405" lon="1.4075">
        <ele>127.8</ele>
        <time>2025-05-29T09:35:56Z</time>
      </trkpt>
      <trkpt lat="44.49407" lon="1.40749">
        <ele>128</ele>
        <time>2025-05-29T09:35:57Z</time>
      </trkpt>
      <trkpt lat="44.49408" lon="1.40748">
        <ele>128.2</ele>
        <time>2025-05-29T09:35:58Z</time>
      </trkpt>
      <trkpt lat="44.49409" lon="1.40746">
        <ele>128.4</ele>
        <time>2025-05-29T09:35:59Z</time>
      </trkpt>
      <trkpt lat="44.4941" lon="1.40744">
        <ele>128.6</ele>
        <time>2025-05-29T09:36:00Z</time>
      </trkpt>
      <trkpt lat="44.4941" lon="1.40742">
        <ele>128.6</ele>
        <time>2025-05-29T09:36:01Z</time>
      </trkpt>
      <trkpt lat="44.49411" lon="1.40741">
        <ele>128.4</ele>
        <time>2025-05-29T09:36:02Z</time>
      </trkpt>
      <trkpt lat="44.49411" lon="1.40741">
        <ele>128.4</ele>
        <time>2025-05-29T09:36:03Z</time>
      </trkpt>
      <trkpt lat="44.49422" lon="1.40778">
        <ele>134</ele>
        <time>2025-05-29T09:37:30Z</time>
      </trkpt>
      <trkpt lat="44.49424" lon="1.4078">
        <ele>134.2</ele>
        <time>2025-05-29T09:37:31Z</time>
      </trkpt>
      <trkpt lat="44.49425" lon="1.40781">
        <ele>134.2</ele>
        <time>2025-05-29T09:37:32Z</time>
      </trkpt>
      <trkpt lat="44.49426" lon="1.40783">
        <ele>134.6</ele>
        <time>2025-05-29T09:37:33Z</time>
      </trkpt>
      <trkpt lat="44.49428" lon="1.40784">
        <ele>134.8</ele>
        <time>2025-05-29T09:37:34Z</time>
      </trkpt>
      <trkpt lat="44.49429" lon="1.40786">
        <ele>135.2</ele>
        <time>2025-05-29T09:37:35Z</time>
      </trkpt>
      <trkpt lat="44.49431" lon="1.40787">
        <ele>135.6</ele>
        <time>2025-05-29T09:37:36Z</time>
      </trkpt>
      <trkpt lat="44.49432" lon="1.40788">
        <ele>136</ele>
        <time>2025-05-29T09:37:37Z</time>
      </trkpt>
      <trkpt lat="44.49433" lon="1.4079">
        <ele>136.2</ele>
        <time>2025-05-29T09:37:38Z</time>
      </trkpt>
      <trkpt lat="44.49435" lon="1.40791">
        <ele>136.4</ele>
        <time>2025-05-29T09:37:39Z</time>
      </trkpt>
      <trkpt lat="44.49436" lon="1.40792">
        <ele>136.8</ele>
        <time>2025-05-29T09:37:40Z</time>
      </trkpt>
      <trkpt lat="44.49437" lon="1.40792">
        <ele>137</ele>
        <time>2025-05-29T09:37:41Z</time>
      </trkpt>
      <trkpt lat="44.4944" lon="1.40793">
        <ele>137</ele>
        <time>2025-05-29T09:37:42Z</time>
      </trkpt>
      <trkpt lat="44.49441" lon="1.40794">
        <ele>137</ele>
        <time>2025-05-29T09:37:43Z</time>
      </trkpt>
      <trkpt lat="44.49442" lon="1.40796">
        <ele>136.8</ele>
        <time>2025-05-29T09:37:44Z</time>
      </trkpt>
      <trkpt lat="44.49444" lon="1.40798">
        <ele>136.8</ele>
        <time>2025-05-29T09:37:45Z</time>
      </trkpt>
      <trkpt lat="44.49444" lon="1.40799">
        <ele>137</ele>
        <time>2025-05-29T09:37:46Z</time>
      </trkpt>
      <trkpt lat="44.49445" lon="1.408">
        <ele>137.2</ele>
        <time>2025-05-29T09:37:47Z</time>
      </trkpt>
      <trkpt lat="44.49446" lon="1.40801">
        <ele>137.4</ele>
        <time>2025-05-29T09:37:48Z</time>
      </trkpt>
      <trkpt lat="44.49447" lon="1.40802">
        <ele>137.8</ele>
        <time>2025-05-29T09:37:49Z</time>
      </trkpt>
      <trkpt lat="44.49449" lon="1.40803">
        <ele>138.2</ele>
        <time>2025-05-29T09:37:50Z</time>
      </trkpt>
      <trkpt lat="44.4945" lon="1.40804">
        <ele>138.6</ele>
        <time>2025-05-29T09:37:51Z</time>
      </trkpt>
      <trkpt lat="44.49451" lon="1.40805">
        <ele>138.8</ele>
        <time>2025-05-29T09:37:52Z</time>
      </trkpt>
      <trkpt lat="44.49453" lon="1.40806">
        <ele>139</ele>
        <time>2025-05-29T09:37:53Z</time>
      </trkpt>
      <trkpt lat="44.49454" lon="1.40808">
        <ele>139.2</ele>
        <time>2025-05-29T09:37:54Z</time>
      </trkpt>
      <trkpt lat="44.49455" lon="1.40808">
        <ele>139.2</ele>
        <time>2025-05-29T09:37:55Z</time>
      </trkpt>
      <trkpt lat="44.49457" lon="1.40809">
        <ele>139.4</ele>
        <time>2025-05-29T09:37:56Z</time>
      </trkpt>
      <trkpt lat="44.49459" lon="1.40811">
        <ele>139.6</ele>
        <time>2025-05-29T09:37:57Z</time>
      </trkpt>
      <trkpt lat="44.4946" lon="1.40812">
        <ele>139.6</ele>
        <time>2025-05-29T09:37:58Z</time>
      </trkpt>
      <trkpt lat="44.49461" lon="1.40812">
        <ele>139.6</ele>
        <time>2025-05-29T09:37:59Z</time>
      </trkpt>
      <trkpt lat="44.49462" lon="1.40814">
        <ele>139.6</ele>
        <time>2025-05-29T09:38:00Z</time>
      </trkpt>
      <trkpt lat="44.49464" lon="1.40815">
        <ele>139.6</ele>
        <time>2025-05-29T09:38:01Z</time>
      </trkpt>
      <trkpt lat="44.49465" lon="1.40816">
        <ele>139.8</ele>
        <time>2025-05-29T09:38:02Z</time>
      </trkpt>
      <trkpt lat="44.49466" lon="1.40817">
        <ele>139.8</ele>
        <time>2025-05-29T09:38:03Z</time>
      </trkpt>
      <trkpt lat="44.49467" lon="1.40819">
        <ele>140</ele>
        <time>2025-05-29T09:38:04Z</time>
      </trkpt>
      <trkpt lat="44.49468" lon="1.40821">
        <ele>140</ele>
        <time>2025-05-29T09:38:05Z</time>
      </trkpt>
      <trkpt lat="44.49469" lon="1.40823">
        <ele>140.2</ele>
        <time>2025-05-29T09:38:06Z</time>
      </trkpt>
      <trkpt lat="44.4947" lon="1.40825">
        <ele>140.6</ele>
        <time>2025-05-29T09:38:07Z</time>
      </trkpt>
      <trkpt lat="44.49471" lon="1.40827">
        <ele>140.8</ele>
        <time>2025-05-29T09:38:08Z</time>
      </trkpt>
      <trkpt lat="44.49472" lon="1.40828">
        <ele>141.2</ele>
        <time>2025-05-29T09:38:09Z</time>
      </trkpt>
      <trkpt lat="44.49473" lon="1.40829">
        <ele>141.4</ele>
        <time>2025-05-29T09:38:10Z</time>
      </trkpt>
      <trkpt lat="44.49474" lon="1.40831">
        <ele>141.6</ele>
        <time>2025-05-29T09:38:11Z</time>
      </trkpt>
      <trkpt lat="44.49474" lon="1.40831">
        <ele>142</ele>
        <time>2025-05-29T09:38:12Z</time>
      </trkpt>
      <trkpt lat="44.49477" lon="1.40834">
        <ele>142.2</ele>
        <time>2025-05-29T09:38:13Z</time>
      </trkpt>
      <trkpt lat="44.49478" lon="1.40836">
        <ele>142.4</ele>
        <time>2025-05-29T09:38:14Z</time>
      </trkpt>
      <trkpt lat="44.49479" lon="1.40837">
        <ele>142.6</ele>
        <time>2025-05-29T09:38:15Z</time>
      </trkpt>
      <trkpt lat="44.4948" lon="1.40839">
        <ele>142.8</ele>
        <time>2025-05-29T09:38:16Z</time>
      </trkpt>
      <trkpt lat="44.49481" lon="1.40841">
        <ele>143</ele>
        <time>2025-05-29T09:38:17Z</time>
      </trkpt>
      <trkpt lat="44.49483" lon="1.40842">
        <ele>143.2</ele>
        <time>2025-05-29T09:38:18Z</time>
      </trkpt>
      <trkpt lat="44.49484" lon="1.40844">
        <ele>143.2</ele>
        <time>2025-05-29T09:38:19Z</time>
      </trkpt>
      <trkpt lat="44.49484" lon="1.40846">
        <ele>143.4</ele>
        <time>2025-05-29T09:38:20Z</time>
      </trkpt>
      <trkpt lat="44.49485" lon="1.40848">
        <ele>143.4</ele>
        <time>2025-05-29T09:38:21Z</time>
      </trkpt>
      <trkpt lat="44.49486" lon="1.4085">
        <ele>143.4</ele>
        <time>2025-05-29T09:38:22Z</time>
      </trkpt>
      <trkpt lat="44.49487" lon="1.40851">
        <ele>143.6</ele>
        <time>2025-05-29T09:38:23Z</time>
      </trkpt>
      <trkpt lat="44.49487" lon="1.40853">
        <ele>143.8</ele>
        <time>2025-05-29T09:38:24Z</time>
      </trkpt>
      <trkpt lat="44.49488" lon="1.40855">
        <ele>143.8</ele>
        <time>2025-05-29T09:38:25Z</time>
      </trkpt>
      <trkpt lat="44.49489" lon="1.40857">
        <ele>144</ele>
        <time>2025-05-29T09:38:26Z</time>
      </trkpt>
      <trkpt lat="44.49491" lon="1.40859">
        <ele>144</ele>
        <time>2025-05-29T09:38:27Z</time>
      </trkpt>
      <trkpt lat="44.49493" lon="1.40863">
        <ele>143.8</ele>
        <time>2025-05-29T09:38:28Z</time>
      </trkpt>
      <trkpt lat="44.49495" lon="1.40867">
        <ele>143.6</ele>
        <time>2025-05-29T09:38:29Z</time>
      </trkpt>
      <trkpt lat="44.49496" lon="1.40871">
        <ele>143.4</ele>
        <time>2025-05-29T09:38:30Z</time>
      </trkpt>
      <trkpt lat="44.49498" lon="1.40875">
        <ele>143.2</ele>
        <time>2025-05-29T09:38:31Z</time>
      </trkpt>
      <trkpt lat="44.495" lon="1.4088">
        <ele>142.8</ele>
        <time>2025-05-29T09:38:32Z</time>
      </trkpt>
      <trkpt lat="44.49502" lon="1.40884">
        <ele>142.4</ele>
        <time>2025-05-29T09:38:33Z</time>
      </trkpt>
      <trkpt lat="44.49502" lon="1.40889">
        <ele>142</ele>
        <time>2025-05-29T09:38:34Z</time>
      </trkpt>
      <trkpt lat="44.49501" lon="1.40894">
        <ele>141.6</ele>
        <time>2025-05-29T09:38:35Z</time>
      </trkpt>
      <trkpt lat="44.49501" lon="1.40897">
        <ele>141.4</ele>
        <time>2025-05-29T09:38:36Z</time>
      </trkpt>
      <trkpt lat="44.49501" lon="1.409">
        <ele>141.2</ele>
        <time>2025-05-29T09:38:37Z</time>
      </trkpt>
      <trkpt lat="44.49501" lon="1.40904">
        <ele>141</ele>
        <time>2025-05-29T09:38:38Z</time>
      </trkpt>
      <trkpt lat="44.495" lon="1.40907">
        <ele>141</ele>
        <time>2025-05-29T09:38:39Z</time>
      </trkpt>
      <trkpt lat="44.495" lon="1.4091">
        <ele>141</ele>
        <time>2025-05-29T09:38:40Z</time>
      </trkpt>
      <trkpt lat="44.49499" lon="1.40913">
        <ele>141</ele>
        <time>2025-05-29T09:38:41Z</time>
      </trkpt>
      <trkpt lat="44.49498" lon="1.40916">
        <ele>141</ele>
        <time>2025-05-29T09:38:42Z</time>
      </trkpt>
      <trkpt lat="44.49497" lon="1.40918">
        <ele>141.2</ele>
        <time>2025-05-29T09:38:43Z</time>
      </trkpt>
      <trkpt lat="44.49497" lon="1.40921">
        <ele>141.4</ele>
        <time>2025-05-29T09:38:44Z</time>
      </trkpt>
      <trkpt lat="44.49497" lon="1.40925">
        <ele>141.4</ele>
        <time>2025-05-29T09:38:45Z</time>
      </trkpt>
      <trkpt lat="44.49498" lon="1.40928">
        <ele>141.4</ele>
        <time>2025-05-29T09:38:46Z</time>
      </trkpt>
      <trkpt lat="44.49497" lon="1.40932">
        <ele>141.2</ele>
        <time>2025-05-29T09:38:47Z</time>
      </trkpt>
      <trkpt lat="44.49496" lon="1.40936">
        <ele>141.2</ele>
        <time>2025-05-29T09:38:48Z</time>
      </trkpt>
      <trkpt lat="44.49495" lon="1.4094">
        <ele>141</ele>
        <time>2025-05-29T09:38:49Z</time>
      </trkpt>
      <trkpt lat="44.49495" lon="1.40945">
        <ele>140.8</ele>
        <time>2025-05-29T09:38:50Z</time>
      </trkpt>
      <trkpt lat="44.49494" lon="1.40949">
        <ele>140.8</ele>
        <time>2025-05-29T09:38:51Z</time>
      </trkpt>
      <trkpt lat="44.49494" lon="1.40953">
        <ele>140.6</ele>
        <time>2025-05-29T09:38:52Z</time>
      </trkpt>
      <trkpt lat="44.49494" lon="1.40955">
        <ele>140.6</ele>
        <time>2025-05-29T09:38:53Z</time>
      </trkpt>
      <trkpt lat="44.49494" lon="1.40959">
        <ele>140.6</ele>
        <time>2025-05-29T09:38:54Z</time>
      </trkpt>
      <trkpt lat="44.49493" lon="1.40963">
        <ele>140.4</ele>
        <time>2025-05-29T09:38:55Z</time>
      </trkpt>
      <trkpt lat="44.49492" lon="1.40967">
        <ele>140.2</ele>
        <time>2025-05-29T09:38:56Z</time>
      </trkpt>
      <trkpt lat="44.4949" lon="1.40969">
        <ele>140.2</ele>
        <time>2025-05-29T09:38:57Z</time>
      </trkpt>
      <trkpt lat="44.49489" lon="1.40972">
        <ele>140</ele>
        <time>2025-05-29T09:38:58Z</time>
      </trkpt>
      <trkpt lat="44.49489" lon="1.40974">
        <ele>140</ele>
        <time>2025-05-29T09:38:59Z</time>
      </trkpt>
      <trkpt lat="44.49488" lon="1.40978">
        <ele>140.2</ele>
        <time>2025-05-29T09:39:00Z</time>
      </trkpt>
      <trkpt lat="44.49487" lon="1.4098">
        <ele>140.2</ele>
        <time>2025-05-29T09:39:01Z</time>
      </trkpt>
      <trkpt lat="44.49486" lon="1.40983">
        <ele>140.4</ele>
        <time>2025-05-29T09:39:02Z</time>
      </trkpt>
      <trkpt lat="44.49485" lon="1.40986">
        <ele>140.6</ele>
        <time>2025-05-29T09:39:03Z</time>
      </trkpt>
      <trkpt lat="44.49485" lon="1.40989">
        <ele>140.8</ele>
        <time>2025-05-29T09:39:04Z</time>
      </trkpt>
      <trkpt lat="44.49484" lon="1.40992">
        <ele>140.8</ele>
        <time>2025-05-29T09:39:05Z</time>
      </trkpt>
      <trkpt lat="44.49483" lon="1.40997">
        <ele>141</ele>
        <time>2025-05-29T09:39:06Z</time>
      </trkpt>
      <trkpt lat="44.49482" lon="1.41002">
        <ele>141</ele>
        <time>2025-05-29T09:39:07Z</time>
      </trkpt>
      <trkpt lat="44.49482" lon="1.41006">
        <ele>140.8</ele>
        <time>2025-05-29T09:39:08Z</time>
      </trkpt>
      <trkpt lat="44.49481" lon="1.41008">
        <ele>140.8</ele>
        <time>2025-05-29T09:39:09Z</time>
      </trkpt>
      <trkpt lat="44.4948" lon="1.4101">
        <ele>140.8</ele>
        <time>2025-05-29T09:39:10Z</time>
      </trkpt>
      <trkpt lat="44.49479" lon="1.41013">
        <ele>140.8</ele>
        <time>2025-05-29T09:39:11Z</time>
      </trkpt>
      <trkpt lat="44.49478" lon="1.41015">
        <ele>141</ele>
        <time>2025-05-29T09:39:12Z</time>
      </trkpt>
      <trkpt lat="44.49477" lon="1.41017">
        <ele>141.2</ele>
        <time>2025-05-29T09:39:13Z</time>
      </trkpt>
      <trkpt lat="44.49476" lon="1.41019">
        <ele>141.4</ele>
        <time>2025-05-29T09:39:14Z</time>
      </trkpt>
      <trkpt lat="44.49475" lon="1.41021">
        <ele>141.6</ele>
        <time>2025-05-29T09:39:15Z</time>
      </trkpt>
      <trkpt lat="44.49473" lon="1.41023">
        <ele>141.8</ele>
        <time>2025-05-29T09:39:16Z</time>
      </trkpt>
      <trkpt lat="44.49472" lon="1.41025">
        <ele>142</ele>
        <time>2025-05-29T09:39:17Z</time>
      </trkpt>
      <trkpt lat="44.49472" lon="1.41027">
        <ele>142.2</ele>
        <time>2025-05-29T09:39:18Z</time>
      </trkpt>
      <trkpt lat="44.49471" lon="1.4103">
        <ele>142.4</ele>
        <time>2025-05-29T09:39:19Z</time>
      </trkpt>
      <trkpt lat="44.4947" lon="1.41032">
        <ele>142.8</ele>
        <time>2025-05-29T09:39:20Z</time>
      </trkpt>
      <trkpt lat="44.49469" lon="1.41034">
        <ele>143</ele>
        <time>2025-05-29T09:39:21Z</time>
      </trkpt>
      <trkpt lat="44.49469" lon="1.41037">
        <ele>143.2</ele>
        <time>2025-05-29T09:39:22Z</time>
      </trkpt>
      <trkpt lat="44.49468" lon="1.41039">
        <ele>143.4</ele>
        <time>2025-05-29T09:39:23Z</time>
      </trkpt>
      <trkpt lat="44.49467" lon="1.41041">
        <ele>143.6</ele>
        <time>2025-05-29T09:39:24Z</time>
      </trkpt>
      <trkpt lat="44.49466" lon="1.41042">
        <ele>143.6</ele>
        <time>2025-05-29T09:39:25Z</time>
      </trkpt>
      <trkpt lat="44.49465" lon="1.41043">
        <ele>144</ele>
        <time>2025-05-29T09:39:26Z</time>
      </trkpt>
      <trkpt lat="44.49464" lon="1.41045">
        <ele>144</ele>
        <time>2025-05-29T09:39:27Z</time>
      </trkpt>
      <trkpt lat="44.49463" lon="1.41047">
        <ele>144.2</ele>
        <time>2025-05-29T09:39:28Z</time>
      </trkpt>
      <trkpt lat="44.49463" lon="1.41049">
        <ele>144.4</ele>
        <time>2025-05-29T09:39:29Z</time>
      </trkpt>
      <trkpt lat="44.49462" lon="1.41051">
        <ele>144.6</ele>
        <time>2025-05-29T09:39:30Z</time>
      </trkpt>
      <trkpt lat="44.49461" lon="1.41053">
        <ele>144.6</ele>
        <time>2025-05-29T09:39:31Z</time>
      </trkpt>
      <trkpt lat="44.49461" lon="1.41056">
        <ele>144.8</ele>
        <time>2025-05-29T09:39:32Z</time>
      </trkpt>
      <trkpt lat="44.4946" lon="1.41059">
        <ele>145</ele>
        <time>2025-05-29T09:39:33Z</time>
      </trkpt>
      <trkpt lat="44.49459" lon="1.41062">
        <ele>145</ele>
        <time>2025-05-29T09:39:34Z</time>
      </trkpt>
      <trkpt lat="44.49459" lon="1.41065">
        <ele>145.2</ele>
        <time>2025-05-29T09:39:35Z</time>
      </trkpt>
      <trkpt lat="44.49458" lon="1.41068">
        <ele>145.4</ele>
        <time>2025-05-29T09:39:36Z</time>
      </trkpt>
      <trkpt lat="44.49457" lon="1.41069">
        <ele>145.6</ele>
        <time>2025-05-29T09:39:37Z</time>
      </trkpt>
      <trkpt lat="44.49455" lon="1.41072">
        <ele>145.8</ele>
        <time>2025-05-29T09:39:38Z</time>
      </trkpt>
      <trkpt lat="44.49454" lon="1.41075">
        <ele>146</ele>
        <time>2025-05-29T09:39:39Z</time>
      </trkpt>
      <trkpt lat="44.49453" lon="1.41077">
        <ele>146.2</ele>
        <time>2025-05-29T09:39:40Z</time>
      </trkpt>
      <trkpt lat="44.49452" lon="1.41078">
        <ele>146.4</ele>
        <time>2025-05-29T09:39:41Z</time>
      </trkpt>
      <trkpt lat="44.4945" lon="1.41079">
        <ele>146.8</ele>
        <time>2025-05-29T09:39:42Z</time>
      </trkpt>
      <trkpt lat="44.49449" lon="1.4108">
        <ele>147</ele>
        <time>2025-05-29T09:39:43Z</time>
      </trkpt>
      <trkpt lat="44.49449" lon="1.41081">
        <ele>147.2</ele>
        <time>2025-05-29T09:39:44Z</time>
      </trkpt>
      <trkpt lat="44.49448" lon="1.41083">
        <ele>147.4</ele>
        <time>2025-05-29T09:39:45Z</time>
      </trkpt>
      <trkpt lat="44.49447" lon="1.41084">
        <ele>147.6</ele>
        <time>2025-05-29T09:39:46Z</time>
      </trkpt>
      <trkpt lat="44.49445" lon="1.41086">
        <ele>148</ele>
        <time>2025-05-29T09:39:47Z</time>
      </trkpt>
      <trkpt lat="44.49444" lon="1.41087">
        <ele>148.2</ele>
        <time>2025-05-29T09:39:48Z</time>
      </trkpt>
      <trkpt lat="44.49442" lon="1.41087">
        <ele>148.4</ele>
        <time>2025-05-29T09:39:49Z</time>
      </trkpt>
      <trkpt lat="44.49442" lon="1.41088">
        <ele>148.6</ele>
        <time>2025-05-29T09:39:50Z</time>
      </trkpt>
      <trkpt lat="44.4944" lon="1.4109">
        <ele>149</ele>
        <time>2025-05-29T09:39:51Z</time>
      </trkpt>
      <trkpt lat="44.4944" lon="1.41093">
        <ele>149.4</ele>
        <time>2025-05-29T09:39:52Z</time>
      </trkpt>
      <trkpt lat="44.49439" lon="1.41095">
        <ele>149.6</ele>
        <time>2025-05-29T09:39:53Z</time>
      </trkpt>
      <trkpt lat="44.49438" lon="1.41097">
        <ele>150</ele>
        <time>2025-05-29T09:39:54Z</time>
      </trkpt>
      <trkpt lat="44.49438" lon="1.41099">
        <ele>150</ele>
        <time>2025-05-29T09:39:55Z</time>
      </trkpt>
      <trkpt lat="44.49437" lon="1.41101">
        <ele>150.2</ele>
        <time>2025-05-29T09:39:56Z</time>
      </trkpt>
      <trkpt lat="44.49436" lon="1.41103">
        <ele>150.2</ele>
        <time>2025-05-29T09:39:57Z</time>
      </trkpt>
      <trkpt lat="44.49435" lon="1.41105">
        <ele>150.2</ele>
        <time>2025-05-29T09:39:58Z</time>
      </trkpt>
      <trkpt lat="44.49433" lon="1.41107">
        <ele>150.4</ele>
        <time>2025-05-29T09:39:59Z</time>
      </trkpt>
      <trkpt lat="44.49433" lon="1.41109">
        <ele>150.4</ele>
        <time>2025-05-29T09:40:00Z</time>
      </trkpt>
      <trkpt lat="44.49431" lon="1.41113">
        <ele>150.4</ele>
        <time>2025-05-29T09:40:01Z</time>
      </trkpt>
      <trkpt lat="44.49431" lon="1.41116">
        <ele>150.4</ele>
        <time>2025-05-29T09:40:02Z</time>
      </trkpt>
      <trkpt lat="44.4943" lon="1.41119">
        <ele>150.4</ele>
        <time>2025-05-29T09:40:03Z</time>
      </trkpt>
      <trkpt lat="44.49429" lon="1.41122">
        <ele>150.2</ele>
        <time>2025-05-29T09:40:04Z</time>
      </trkpt>
      <trkpt lat="44.49427" lon="1.41124">
        <ele>150.2</ele>
        <time>2025-05-29T09:40:05Z</time>
      </trkpt>
      <trkpt lat="44.49426" lon="1.41126">
        <ele>150.2</ele>
        <time>2025-05-29T09:40:06Z</time>
      </trkpt>
      <trkpt lat="44.49425" lon="1.41128">
        <ele>150.4</ele>
        <time>2025-05-29T09:40:07Z</time>
      </trkpt>
      <trkpt lat="44.49424" lon="1.4113">
        <ele>150.6</ele>
        <time>2025-05-29T09:40:08Z</time>
      </trkpt>
      <trkpt lat="44.49423" lon="1.4113">
        <ele>150.8</ele>
        <time>2025-05-29T09:40:09Z</time>
      </trkpt>
      <trkpt lat="44.49423" lon="1.4113">
        <ele>151</ele>
        <time>2025-05-29T09:40:10Z</time>
      </trkpt>
      <trkpt lat="44.49416" lon="1.41139">
        <ele>151.6</ele>
        <time>2025-05-29T09:40:34Z</time>
      </trkpt>
      <trkpt lat="44.49416" lon="1.41142">
        <ele>151.6</ele>
        <time>2025-05-29T09:40:35Z</time>
      </trkpt>
      <trkpt lat="44.49415" lon="1.41144">
        <ele>151.8</ele>
        <time>2025-05-29T09:40:36Z</time>
      </trkpt>
      <trkpt lat="44.49414" lon="1.41145">
        <ele>152</ele>
        <time>2025-05-29T09:40:37Z</time>
      </trkpt>
      <trkpt lat="44.49413" lon="1.41147">
        <ele>152</ele>
        <time>2025-05-29T09:40:38Z</time>
      </trkpt>
      <trkpt lat="44.49411" lon="1.41148">
        <ele>152.2</ele>
        <time>2025-05-29T09:40:39Z</time>
      </trkpt>
      <trkpt lat="44.4941" lon="1.4115">
        <ele>152.4</ele>
        <time>2025-05-29T09:40:40Z</time>
      </trkpt>
      <trkpt lat="44.49408" lon="1.4115">
        <ele>152.6</ele>
        <time>2025-05-29T09:40:41Z</time>
      </trkpt>
      <trkpt lat="44.49407" lon="1.41152">
        <ele>152.8</ele>
        <time>2025-05-29T09:40:42Z</time>
      </trkpt>
      <trkpt lat="44.49406" lon="1.41154">
        <ele>153.2</ele>
        <time>2025-05-29T09:40:43Z</time>
      </trkpt>
      <trkpt lat="44.49405" lon="1.41155">
        <ele>153.4</ele>
        <time>2025-05-29T09:40:44Z</time>
      </trkpt>
      <trkpt lat="44.49405" lon="1.41156">
        <ele>153.6</ele>
        <time>2025-05-29T09:40:45Z</time>
      </trkpt>
      <trkpt lat="44.49404" lon="1.41157">
        <ele>153.8</ele>
        <time>2025-05-29T09:40:46Z</time>
      </trkpt>
      <trkpt lat="44.49404" lon="1.41156">
        <ele>154</ele>
        <time>2025-05-29T09:40:47Z</time>
      </trkpt>
      <trkpt lat="44.49405" lon="1.4117">
        <ele>154</ele>
        <time>2025-05-29T09:40:54Z</time>
      </trkpt>
      <trkpt lat="44.49406" lon="1.41173">
        <ele>153.8</ele>
        <time>2025-05-29T09:40:55Z</time>
      </trkpt>
      <trkpt lat="44.49407" lon="1.41177">
        <ele>153.4</ele>
        <time>2025-05-29T09:40:56Z</time>
      </trkpt>
      <trkpt lat="44.49408" lon="1.41179">
        <ele>153.2</ele>
        <time>2025-05-29T09:40:57Z</time>
      </trkpt>
      <trkpt lat="44.49409" lon="1.41181">
        <ele>153.4</ele>
        <time>2025-05-29T09:40:58Z</time>
      </trkpt>
      <trkpt lat="44.4941" lon="1.41183">
        <ele>153.6</ele>
        <time>2025-05-29T09:40:59Z</time>
      </trkpt>
      <trkpt lat="44.49411" lon="1.41184">
        <ele>154</ele>
        <time>2025-05-29T09:41:00Z</time>
      </trkpt>
      <trkpt lat="44.4941" lon="1.41186">
        <ele>154.4</ele>
        <time>2025-05-29T09:41:01Z</time>
      </trkpt>
      <trkpt lat="44.4941" lon="1.41188">
        <ele>154.6</ele>
        <time>2025-05-29T09:41:02Z</time>
      </trkpt>
      <trkpt lat="44.49409" lon="1.4119">
        <ele>155</ele>
        <time>2025-05-29T09:41:03Z</time>
      </trkpt>
      <trkpt lat="44.49409" lon="1.41192">
        <ele>155.2</ele>
        <time>2025-05-29T09:41:04Z</time>
      </trkpt>
      <trkpt lat="44.49409" lon="1.41192">
        <ele>155.4</ele>
        <time>2025-05-29T09:41:05Z</time>
      </trkpt>
      <trkpt lat="44.49409" lon="1.41192">
        <ele>155.6</ele>
        <time>2025-05-29T09:41:06Z</time>
      </trkpt>
      <trkpt lat="44.49409" lon="1.41191">
        <ele>155.6</ele>
        <time>2025-05-29T09:41:07Z</time>
      </trkpt>
      <trkpt lat="44.49409" lon="1.41189">
        <ele>155.8</ele>
        <time>2025-05-29T09:41:08Z</time>
      </trkpt>
      <trkpt lat="44.4941" lon="1.41188">
        <ele>155.8</ele>
        <time>2025-05-29T09:41:09Z</time>
      </trkpt>
      <trkpt lat="44.4941" lon="1.41186">
        <ele>155.6</ele>
        <time>2025-05-29T09:41:10Z</time>
      </trkpt>
      <trkpt lat="44.49411" lon="1.41185">
        <ele>155.4</ele>
        <time>2025-05-29T09:41:11Z</time>
      </trkpt>
      <trkpt lat="44.4941" lon="1.41183">
        <ele>155</ele>
        <time>2025-05-29T09:41:12Z</time>
      </trkpt>
      <trkpt lat="44.4941" lon="1.41182">
        <ele>154.8</ele>
        <time>2025-05-29T09:41:13Z</time>
      </trkpt>
      <trkpt lat="44.49409" lon="1.41181">
        <ele>154.6</ele>
        <time>2025-05-29T09:41:14Z</time>
      </trkpt>
      <trkpt lat="44.49409" lon="1.41181">
        <ele>154.4</ele>
        <time>2025-05-29T09:41:15Z</time>
      </trkpt>
      <trkpt lat="44.49408" lon="1.4118">
        <ele>154.4</ele>
        <time>2025-05-29T09:41:16Z</time>
      </trkpt>
      <trkpt lat="44.49408" lon="1.4118">
        <ele>154.4</ele>
        <time>2025-05-29T09:41:17Z</time>
      </trkpt>
      <trkpt lat="44.49411" lon="1.41184">
        <ele>154.8</ele>
        <time>2025-05-29T09:41:44Z</time>
      </trkpt>
      <trkpt lat="44.49411" lon="1.41187">
        <ele>154.8</ele>
        <time>2025-05-29T09:41:45Z</time>
      </trkpt>
      <trkpt lat="44.49411" lon="1.41188">
        <ele>154.8</ele>
        <time>2025-05-29T09:41:46Z</time>
      </trkpt>
      <trkpt lat="44.4941" lon="1.4119">
        <ele>154.8</ele>
        <time>2025-05-29T09:41:47Z</time>
      </trkpt>
      <trkpt lat="44.4941" lon="1.41192">
        <ele>155</ele>
        <time>2025-05-29T09:41:48Z</time>
      </trkpt>
      <trkpt lat="44.49408" lon="1.41194">
        <ele>155.2</ele>
        <time>2025-05-29T09:41:49Z</time>
      </trkpt>
      <trkpt lat="44.49407" lon="1.41196">
        <ele>155.4</ele>
        <time>2025-05-29T09:41:50Z</time>
      </trkpt>
      <trkpt lat="44.49406" lon="1.41198">
        <ele>155.4</ele>
        <time>2025-05-29T09:41:51Z</time>
      </trkpt>
      <trkpt lat="44.49405" lon="1.412">
        <ele>155.6</ele>
        <time>2025-05-29T09:41:52Z</time>
      </trkpt>
      <trkpt lat="44.49404" lon="1.41202">
        <ele>155.8</ele>
        <time>2025-05-29T09:41:53Z</time>
      </trkpt>
      <trkpt lat="44.49404" lon="1.41204">
        <ele>156</ele>
        <time>2025-05-29T09:41:54Z</time>
      </trkpt>
      <trkpt lat="44.49404" lon="1.41206">
        <ele>156.2</ele>
        <time>2025-05-29T09:41:55Z</time>
      </trkpt>
      <trkpt lat="44.49403" lon="1.41208">
        <ele>156.6</ele>
        <time>2025-05-29T09:41:56Z</time>
      </trkpt>
      <trkpt lat="44.49403" lon="1.4121">
        <ele>156.8</ele>
        <time>2025-05-29T09:41:57Z</time>
      </trkpt>
      <trkpt lat="44.49403" lon="1.41212">
        <ele>157</ele>
        <time>2025-05-29T09:41:58Z</time>
      </trkpt>
      <trkpt lat="44.49402" lon="1.41214">
        <ele>157.2</ele>
        <time>2025-05-29T09:41:59Z</time>
      </trkpt>
      <trkpt lat="44.49401" lon="1.41215">
        <ele>157.6</ele>
        <time>2025-05-29T09:42:00Z</time>
      </trkpt>
      <trkpt lat="44.49399" lon="1.41217">
        <ele>157.6</ele>
        <time>2025-05-29T09:42:01Z</time>
      </trkpt>
      <trkpt lat="44.49397" lon="1.41218">
        <ele>157.8</ele>
        <time>2025-05-29T09:42:02Z</time>
      </trkpt>
      <trkpt lat="44.49395" lon="1.4122">
        <ele>157.8</ele>
        <time>2025-05-29T09:42:03Z</time>
      </trkpt>
      <trkpt lat="44.49394" lon="1.41222">
        <ele>157.8</ele>
        <time>2025-05-29T09:42:04Z</time>
      </trkpt>
      <trkpt lat="44.49393" lon="1.41224">
        <ele>157.8</ele>
        <time>2025-05-29T09:42:05Z</time>
      </trkpt>
      <trkpt lat="44.49391" lon="1.41226">
        <ele>157.8</ele>
        <time>2025-05-29T09:42:06Z</time>
      </trkpt>
      <trkpt lat="44.4939" lon="1.41228">
        <ele>157.8</ele>
        <time>2025-05-29T09:42:07Z</time>
      </trkpt>
      <trkpt lat="44.49388" lon="1.41229">
        <ele>158</ele>
        <time>2025-05-29T09:42:08Z</time>
      </trkpt>
      <trkpt lat="44.49387" lon="1.4123">
        <ele>158.2</ele>
        <time>2025-05-29T09:42:09Z</time>
      </trkpt>
      <trkpt lat="44.49386" lon="1.41231">
        <ele>158.4</ele>
        <time>2025-05-29T09:42:10Z</time>
      </trkpt>
      <trkpt lat="44.49385" lon="1.41232">
        <ele>158.8</ele>
        <time>2025-05-29T09:42:11Z</time>
      </trkpt>
      <trkpt lat="44.49384" lon="1.41234">
        <ele>159</ele>
        <time>2025-05-29T09:42:12Z</time>
      </trkpt>
      <trkpt lat="44.49383" lon="1.41235">
        <ele>159.2</ele>
        <time>2025-05-29T09:42:13Z</time>
      </trkpt>
      <trkpt lat="44.49383" lon="1.41237">
        <ele>159.6</ele>
        <time>2025-05-29T09:42:14Z</time>
      </trkpt>
      <trkpt lat="44.49383" lon="1.41238">
        <ele>159.8</ele>
        <time>2025-05-29T09:42:15Z</time>
      </trkpt>
      <trkpt lat="44.49382" lon="1.4124">
        <ele>160.2</ele>
        <time>2025-05-29T09:42:16Z</time>
      </trkpt>
      <trkpt lat="44.49381" lon="1.41242">
        <ele>160.4</ele>
        <time>2025-05-29T09:42:17Z</time>
      </trkpt>
      <trkpt lat="44.4938" lon="1.41244">
        <ele>160.8</ele>
        <time>2025-05-29T09:42:18Z</time>
      </trkpt>
      <trkpt lat="44.4938" lon="1.41246">
        <ele>161</ele>
        <time>2025-05-29T09:42:19Z</time>
      </trkpt>
      <trkpt lat="44.4938" lon="1.41248">
        <ele>161.2</ele>
        <time>2025-05-29T09:42:20Z</time>
      </trkpt>
      <trkpt lat="44.4938" lon="1.4125">
        <ele>161.4</ele>
        <time>2025-05-29T09:42:21Z</time>
      </trkpt>
      <trkpt lat="44.49381" lon="1.41253">
        <ele>161.6</ele>
        <time>2025-05-29T09:42:22Z</time>
      </trkpt>
      <trkpt lat="44.49382" lon="1.41255">
        <ele>161.6</ele>
        <time>2025-05-29T09:42:23Z</time>
      </trkpt>
      <trkpt lat="44.49383" lon="1.41258">
        <ele>161.6</ele>
        <time>2025-05-29T09:42:24Z</time>
      </trkpt>
      <trkpt lat="44.49382" lon="1.4126">
        <ele>161.6</ele>
        <time>2025-05-29T09:42:25Z</time>
      </trkpt>
      <trkpt lat="44.49381" lon="1.41262">
        <ele>161.4</ele>
        <time>2025-05-29T09:42:26Z</time>
      </trkpt>
      <trkpt lat="44.4938" lon="1.41264">
        <ele>161.4</ele>
        <time>2025-05-29T09:42:27Z</time>
      </trkpt>
      <trkpt lat="44.4938" lon="1.41266">
        <ele>161.4</ele>
        <time>2025-05-29T09:42:28Z</time>
      </trkpt>
      <trkpt lat="44.49379" lon="1.41268">
        <ele>161.6</ele>
        <time>2025-05-29T09:42:29Z</time>
      </trkpt>
      <trkpt lat="44.49378" lon="1.4127">
        <ele>161.8</ele>
        <time>2025-05-29T09:42:30Z</time>
      </trkpt>
      <trkpt lat="44.49377" lon="1.41271">
        <ele>162</ele>
        <time>2025-05-29T09:42:31Z</time>
      </trkpt>
      <trkpt lat="44.49376" lon="1.41272">
        <ele>162.4</ele>
        <time>2025-05-29T09:42:32Z</time>
      </trkpt>
      <trkpt lat="44.49375" lon="1.41272">
        <ele>162.6</ele>
        <time>2025-05-29T09:42:33Z</time>
      </trkpt>
      <trkpt lat="44.49374" lon="1.41272">
        <ele>163</ele>
        <time>2025-05-29T09:42:34Z</time>
      </trkpt>
      <trkpt lat="44.49373" lon="1.41273">
        <ele>163.2</ele>
        <time>2025-05-29T09:42:35Z</time>
      </trkpt>
      <trkpt lat="44.49373" lon="1.41275">
        <ele>163.6</ele>
        <time>2025-05-29T09:42:36Z</time>
      </trkpt>
      <trkpt lat="44.49372" lon="1.41276">
        <ele>164</ele>
        <time>2025-05-29T09:42:37Z</time>
      </trkpt>
      <trkpt lat="44.49372" lon="1.41277">
        <ele>164.2</ele>
        <time>2025-05-29T09:42:38Z</time>
      </trkpt>
      <trkpt lat="44.49371" lon="1.41278">
        <ele>164.4</ele>
        <time>2025-05-29T09:42:39Z</time>
      </trkpt>
      <trkpt lat="44.4937" lon="1.4128">
        <ele>164.6</ele>
        <time>2025-05-29T09:42:40Z</time>
      </trkpt>
      <trkpt lat="44.49369" lon="1.41281">
        <ele>164.8</ele>
        <time>2025-05-29T09:42:41Z</time>
      </trkpt>
      <trkpt lat="44.49369" lon="1.41283">
        <ele>165.2</ele>
        <time>2025-05-29T09:42:42Z</time>
      </trkpt>
      <trkpt lat="44.49369" lon="1.41286">
        <ele>165.4</ele>
        <time>2025-05-29T09:42:43Z</time>
      </trkpt>
      <trkpt lat="44.49369" lon="1.41287">
        <ele>165.6</ele>
        <time>2025-05-29T09:42:44Z</time>
      </trkpt>
      <trkpt lat="44.49369" lon="1.4129">
        <ele>165.6</ele>
        <time>2025-05-29T09:42:45Z</time>
      </trkpt>
      <trkpt lat="44.49369" lon="1.41292">
        <ele>165.8</ele>
        <time>2025-05-29T09:42:46Z</time>
      </trkpt>
      <trkpt lat="44.49369" lon="1.41294">
        <ele>165.8</ele>
        <time>2025-05-29T09:42:47Z</time>
      </trkpt>
      <trkpt lat="44.49368" lon="1.41297">
        <ele>166</ele>
        <time>2025-05-29T09:42:48Z</time>
      </trkpt>
      <trkpt lat="44.49368" lon="1.413">
        <ele>166</ele>
        <time>2025-05-29T09:42:49Z</time>
      </trkpt>
      <trkpt lat="44.49367" lon="1.41303">
        <ele>166.2</ele>
        <time>2025-05-29T09:42:50Z</time>
      </trkpt>
      <trkpt lat="44.49366" lon="1.41305">
        <ele>166.2</ele>
        <time>2025-05-29T09:42:51Z</time>
      </trkpt>
      <trkpt lat="44.49366" lon="1.41307">
        <ele>166.4</ele>
        <time>2025-05-29T09:42:52Z</time>
      </trkpt>
      <trkpt lat="44.49366" lon="1.4131">
        <ele>166.6</ele>
        <time>2025-05-29T09:42:53Z</time>
      </trkpt>
      <trkpt lat="44.49366" lon="1.41313">
        <ele>166.6</ele>
        <time>2025-05-29T09:42:54Z</time>
      </trkpt>
      <trkpt lat="44.49366" lon="1.41315">
        <ele>166.8</ele>
        <time>2025-05-29T09:42:55Z</time>
      </trkpt>
      <trkpt lat="44.49365" lon="1.41315">
        <ele>166.8</ele>
        <time>2025-05-29T09:42:56Z</time>
      </trkpt>
      <trkpt lat="44.49363" lon="1.41316">
        <ele>167</ele>
        <time>2025-05-29T09:42:57Z</time>
      </trkpt>
      <trkpt lat="44.49362" lon="1.41317">
        <ele>167.2</ele>
        <time>2025-05-29T09:42:58Z</time>
      </trkpt>
      <trkpt lat="44.49362" lon="1.41318">
        <ele>167.4</ele>
        <time>2025-05-29T09:42:59Z</time>
      </trkpt>
      <trkpt lat="44.49361" lon="1.4132">
        <ele>167.4</ele>
        <time>2025-05-29T09:43:00Z</time>
      </trkpt>
      <trkpt lat="44.49361" lon="1.41322">
        <ele>167.6</ele>
        <time>2025-05-29T09:43:01Z</time>
      </trkpt>
      <trkpt lat="44.49361" lon="1.41324">
        <ele>167.8</ele>
        <time>2025-05-29T09:43:02Z</time>
      </trkpt>
      <trkpt lat="44.4936" lon="1.41326">
        <ele>168</ele>
        <time>2025-05-29T09:43:03Z</time>
      </trkpt>
      <trkpt lat="44.49359" lon="1.41327">
        <ele>168.2</ele>
        <time>2025-05-29T09:43:04Z</time>
      </trkpt>
      <trkpt lat="44.49359" lon="1.41328">
        <ele>168.2</ele>
        <time>2025-05-29T09:43:05Z</time>
      </trkpt>
      <trkpt lat="44.49358" lon="1.4133">
        <ele>168.4</ele>
        <time>2025-05-29T09:43:06Z</time>
      </trkpt>
      <trkpt lat="44.49357" lon="1.41332">
        <ele>168.6</ele>
        <time>2025-05-29T09:43:07Z</time>
      </trkpt>
      <trkpt lat="44.49356" lon="1.41333">
        <ele>169</ele>
        <time>2025-05-29T09:43:08Z</time>
      </trkpt>
      <trkpt lat="44.49355" lon="1.41335">
        <ele>169.2</ele>
        <time>2025-05-29T09:43:09Z</time>
      </trkpt>
      <trkpt lat="44.49354" lon="1.41336">
        <ele>169.4</ele>
        <time>2025-05-29T09:43:10Z</time>
      </trkpt>
      <trkpt lat="44.49354" lon="1.41339">
        <ele>169.6</ele>
        <time>2025-05-29T09:43:11Z</time>
      </trkpt>
      <trkpt lat="44.49353" lon="1.41341">
        <ele>169.8</ele>
        <time>2025-05-29T09:43:12Z</time>
      </trkpt>
      <trkpt lat="44.49352" lon="1.41342">
        <ele>170</ele>
        <time>2025-05-29T09:43:13Z</time>
      </trkpt>
      <trkpt lat="44.49352" lon="1.41343">
        <ele>170.4</ele>
        <time>2025-05-29T09:43:14Z</time>
      </trkpt>
      <trkpt lat="44.49351" lon="1.41343">
        <ele>170.6</ele>
        <time>2025-05-29T09:43:15Z</time>
      </trkpt>
      <trkpt lat="44.4935" lon="1.41343">
        <ele>170.8</ele>
        <time>2025-05-29T09:43:16Z</time>
      </trkpt>
      <trkpt lat="44.49348" lon="1.41343">
        <ele>171</ele>
        <time>2025-05-29T09:43:17Z</time>
      </trkpt>
      <trkpt lat="44.49347" lon="1.41342">
        <ele>171.2</ele>
        <time>2025-05-29T09:43:18Z</time>
      </trkpt>
      <trkpt lat="44.49346" lon="1.41343">
        <ele>171.6</ele>
        <time>2025-05-29T09:43:19Z</time>
      </trkpt>
      <trkpt lat="44.49345" lon="1.41343">
        <ele>171.8</ele>
        <time>2025-05-29T09:43:20Z</time>
      </trkpt>
      <trkpt lat="44.49344" lon="1.41344">
        <ele>172</ele>
        <time>2025-05-29T09:43:21Z</time>
      </trkpt>
      <trkpt lat="44.49344" lon="1.41345">
        <ele>172.4</ele>
        <time>2025-05-29T09:43:22Z</time>
      </trkpt>
      <trkpt lat="44.49344" lon="1.41347">
        <ele>172.6</ele>
        <time>2025-05-29T09:43:23Z</time>
      </trkpt>
      <trkpt lat="44.49343" lon="1.41348">
        <ele>173</ele>
        <time>2025-05-29T09:43:24Z</time>
      </trkpt>
      <trkpt lat="44.49342" lon="1.41349">
        <ele>173.2</ele>
        <time>2025-05-29T09:43:25Z</time>
      </trkpt>
      <trkpt lat="44.49341" lon="1.4135">
        <ele>173.4</ele>
        <time>2025-05-29T09:43:26Z</time>
      </trkpt>
      <trkpt lat="44.49341" lon="1.41351">
        <ele>173.6</ele>
        <time>2025-05-29T09:43:27Z</time>
      </trkpt>
      <trkpt lat="44.4934" lon="1.41353">
        <ele>173.8</ele>
        <time>2025-05-29T09:43:28Z</time>
      </trkpt>
      <trkpt lat="44.49339" lon="1.41354">
        <ele>174</ele>
        <time>2025-05-29T09:43:29Z</time>
      </trkpt>
      <trkpt lat="44.49339" lon="1.41356">
        <ele>174.2</ele>
        <time>2025-05-29T09:43:30Z</time>
      </trkpt>
      <trkpt lat="44.49338" lon="1.41357">
        <ele>174.4</ele>
        <time>2025-05-29T09:43:31Z</time>
      </trkpt>
      <trkpt lat="44.49337" lon="1.41358">
        <ele>174.6</ele>
        <time>2025-05-29T09:43:32Z</time>
      </trkpt>
      <trkpt lat="44.49337" lon="1.4136">
        <ele>174.8</ele>
        <time>2025-05-29T09:43:33Z</time>
      </trkpt>
      <trkpt lat="44.49335" lon="1.41362">
        <ele>175</ele>
        <time>2025-05-29T09:43:34Z</time>
      </trkpt>
      <trkpt lat="44.49335" lon="1.41364">
        <ele>175.2</ele>
        <time>2025-05-29T09:43:35Z</time>
      </trkpt>
      <trkpt lat="44.49334" lon="1.41365">
        <ele>175.4</ele>
        <time>2025-05-29T09:43:36Z</time>
      </trkpt>
      <trkpt lat="44.49334" lon="1.41367">
        <ele>175.6</ele>
        <time>2025-05-29T09:43:37Z</time>
      </trkpt>
      <trkpt lat="44.49334" lon="1.41369">
        <ele>175.8</ele>
        <time>2025-05-29T09:43:38Z</time>
      </trkpt>
      <trkpt lat="44.49333" lon="1.41371">
        <ele>175.8</ele>
        <time>2025-05-29T09:43:39Z</time>
      </trkpt>
      <trkpt lat="44.49333" lon="1.41373">
        <ele>175.8</ele>
        <time>2025-05-29T09:43:40Z</time>
      </trkpt>
      <trkpt lat="44.49333" lon="1.41375">
        <ele>175.8</ele>
        <time>2025-05-29T09:43:41Z</time>
      </trkpt>
      <trkpt lat="44.49332" lon="1.41377">
        <ele>176</ele>
        <time>2025-05-29T09:43:42Z</time>
      </trkpt>
      <trkpt lat="44.49332" lon="1.41378">
        <ele>176</ele>
        <time>2025-05-29T09:43:43Z</time>
      </trkpt>
      <trkpt lat="44.4933" lon="1.4138">
        <ele>176.2</ele>
        <time>2025-05-29T09:43:44Z</time>
      </trkpt>
      <trkpt lat="44.4933" lon="1.41381">
        <ele>176.4</ele>
        <time>2025-05-29T09:43:45Z</time>
      </trkpt>
      <trkpt lat="44.49329" lon="1.41383">
        <ele>176.6</ele>
        <time>2025-05-29T09:43:46Z</time>
      </trkpt>
      <trkpt lat="44.49328" lon="1.41385">
        <ele>176.8</ele>
        <time>2025-05-29T09:43:47Z</time>
      </trkpt>
      <trkpt lat="44.49326" lon="1.41386">
        <ele>177</ele>
        <time>2025-05-29T09:43:48Z</time>
      </trkpt>
      <trkpt lat="44.49326" lon="1.41387">
        <ele>177.2</ele>
        <time>2025-05-29T09:43:49Z</time>
      </trkpt>
      <trkpt lat="44.49325" lon="1.41388">
        <ele>177.4</ele>
        <time>2025-05-29T09:43:50Z</time>
      </trkpt>
      <trkpt lat="44.49324" lon="1.41389">
        <ele>177.8</ele>
        <time>2025-05-29T09:43:51Z</time>
      </trkpt>
      <trkpt lat="44.49323" lon="1.4139">
        <ele>178</ele>
        <time>2025-05-29T09:43:52Z</time>
      </trkpt>
      <trkpt lat="44.49323" lon="1.41392">
        <ele>178.2</ele>
        <time>2025-05-29T09:43:53Z</time>
      </trkpt>
      <trkpt lat="44.49322" lon="1.41393">
        <ele>178.4</ele>
        <time>2025-05-29T09:43:54Z</time>
      </trkpt>
      <trkpt lat="44.49321" lon="1.41395">
        <ele>178.6</ele>
        <time>2025-05-29T09:43:55Z</time>
      </trkpt>
      <trkpt lat="44.49321" lon="1.41396">
        <ele>178.8</ele>
        <time>2025-05-29T09:43:56Z</time>
      </trkpt>
      <trkpt lat="44.4932" lon="1.41398">
        <ele>178.8</ele>
        <time>2025-05-29T09:43:57Z</time>
      </trkpt>
      <trkpt lat="44.49319" lon="1.414">
        <ele>179</ele>
        <time>2025-05-29T09:43:58Z</time>
      </trkpt>
      <trkpt lat="44.49318" lon="1.41402">
        <ele>179</ele>
        <time>2025-05-29T09:43:59Z</time>
      </trkpt>
      <trkpt lat="44.49318" lon="1.41404">
        <ele>179.2</ele>
        <time>2025-05-29T09:44:00Z</time>
      </trkpt>
      <trkpt lat="44.49317" lon="1.41406">
        <ele>179.2</ele>
        <time>2025-05-29T09:44:01Z</time>
      </trkpt>
      <trkpt lat="44.49316" lon="1.41407">
        <ele>179.4</ele>
        <time>2025-05-29T09:44:02Z</time>
      </trkpt>
      <trkpt lat="44.49314" lon="1.41407">
        <ele>179.4</ele>
        <time>2025-05-29T09:44:03Z</time>
      </trkpt>
      <trkpt lat="44.49313" lon="1.41408">
        <ele>179.6</ele>
        <time>2025-05-29T09:44:04Z</time>
      </trkpt>
      <trkpt lat="44.49312" lon="1.41408">
        <ele>179.6</ele>
        <time>2025-05-29T09:44:05Z</time>
      </trkpt>
      <trkpt lat="44.49311" lon="1.41409">
        <ele>179.8</ele>
        <time>2025-05-29T09:44:06Z</time>
      </trkpt>
      <trkpt lat="44.49309" lon="1.4141">
        <ele>180.2</ele>
        <time>2025-05-29T09:44:07Z</time>
      </trkpt>
      <trkpt lat="44.49308" lon="1.41411">
        <ele>180.4</ele>
        <time>2025-05-29T09:44:08Z</time>
      </trkpt>
      <trkpt lat="44.49307" lon="1.41411">
        <ele>180.6</ele>
        <time>2025-05-29T09:44:09Z</time>
      </trkpt>
      <trkpt lat="44.49306" lon="1.41411">
        <ele>180.8</ele>
        <time>2025-05-29T09:44:10Z</time>
      </trkpt>
      <trkpt lat="44.49305" lon="1.41411">
        <ele>181</ele>
        <time>2025-05-29T09:44:11Z</time>
      </trkpt>
      <trkpt lat="44.49304" lon="1.41412">
        <ele>181.2</ele>
        <time>2025-05-29T09:44:12Z</time>
      </trkpt>
      <trkpt lat="44.49302" lon="1.41412">
        <ele>181.4</ele>
        <time>2025-05-29T09:44:13Z</time>
      </trkpt>
      <trkpt lat="44.49301" lon="1.41413">
        <ele>181.6</ele>
        <time>2025-05-29T09:44:14Z</time>
      </trkpt>
      <trkpt lat="44.49301" lon="1.41414">
        <ele>181.8</ele>
        <time>2025-05-29T09:44:15Z</time>
      </trkpt>
      <trkpt lat="44.493" lon="1.41416">
        <ele>182</ele>
        <time>2025-05-29T09:44:16Z</time>
      </trkpt>
      <trkpt lat="44.49299" lon="1.41417">
        <ele>182.4</ele>
        <time>2025-05-29T09:44:17Z</time>
      </trkpt>
      <trkpt lat="44.49299" lon="1.41419">
        <ele>182.4</ele>
        <time>2025-05-29T09:44:18Z</time>
      </trkpt>
      <trkpt lat="44.49298" lon="1.41422">
        <ele>182.6</ele>
        <time>2025-05-29T09:44:19Z</time>
      </trkpt>
      <trkpt lat="44.49298" lon="1.41424">
        <ele>182.6</ele>
        <time>2025-05-29T09:44:20Z</time>
      </trkpt>
      <trkpt lat="44.49298" lon="1.41427">
        <ele>182.6</ele>
        <time>2025-05-29T09:44:21Z</time>
      </trkpt>
      <trkpt lat="44.49297" lon="1.4143">
        <ele>182.6</ele>
        <time>2025-05-29T09:44:22Z</time>
      </trkpt>
      <trkpt lat="44.49298" lon="1.41432">
        <ele>182.6</ele>
        <time>2025-05-29T09:44:23Z</time>
      </trkpt>
      <trkpt lat="44.49298" lon="1.41435">
        <ele>182.4</ele>
        <time>2025-05-29T09:44:24Z</time>
      </trkpt>
      <trkpt lat="44.49297" lon="1.41436">
        <ele>182.6</ele>
        <time>2025-05-29T09:44:25Z</time>
      </trkpt>
      <trkpt lat="44.49295" lon="1.41437">
        <ele>182.6</ele>
        <time>2025-05-29T09:44:26Z</time>
      </trkpt>
      <trkpt lat="44.49294" lon="1.41437">
        <ele>182.8</ele>
        <time>2025-05-29T09:44:27Z</time>
      </trkpt>
      <trkpt lat="44.49293" lon="1.41437">
        <ele>183.2</ele>
        <time>2025-05-29T09:44:28Z</time>
      </trkpt>
      <trkpt lat="44.49292" lon="1.41437">
        <ele>183.4</ele>
        <time>2025-05-29T09:44:29Z</time>
      </trkpt>
      <trkpt lat="44.4929" lon="1.41438">
        <ele>183.6</ele>
        <time>2025-05-29T09:44:30Z</time>
      </trkpt>
      <trkpt lat="44.49289" lon="1.4144">
        <ele>183.8</ele>
        <time>2025-05-29T09:44:31Z</time>
      </trkpt>
      <trkpt lat="44.49288" lon="1.41441">
        <ele>183.8</ele>
        <time>2025-05-29T09:44:32Z</time>
      </trkpt>
      <trkpt lat="44.49288" lon="1.41443">
        <ele>184</ele>
        <time>2025-05-29T09:44:33Z</time>
      </trkpt>
      <trkpt lat="44.49287" lon="1.41445">
        <ele>184.2</ele>
        <time>2025-05-29T09:44:34Z</time>
      </trkpt>
      <trkpt lat="44.49287" lon="1.41446">
        <ele>184.4</ele>
        <time>2025-05-29T09:44:35Z</time>
      </trkpt>
      <trkpt lat="44.49287" lon="1.41448">
        <ele>184.4</ele>
        <time>2025-05-29T09:44:36Z</time>
      </trkpt>
      <trkpt lat="44.49286" lon="1.41449">
        <ele>184.6</ele>
        <time>2025-05-29T09:44:37Z</time>
      </trkpt>
      <trkpt lat="44.49286" lon="1.41451">
        <ele>184.8</ele>
        <time>2025-05-29T09:44:38Z</time>
      </trkpt>
      <trkpt lat="44.49286" lon="1.41453">
        <ele>185</ele>
        <time>2025-05-29T09:44:39Z</time>
      </trkpt>
      <trkpt lat="44.49285" lon="1.41455">
        <ele>185.2</ele>
        <time>2025-05-29T09:44:40Z</time>
      </trkpt>
      <trkpt lat="44.49284" lon="1.41457">
        <ele>185.2</ele>
        <time>2025-05-29T09:44:41Z</time>
      </trkpt>
      <trkpt lat="44.49284" lon="1.41458">
        <ele>185.4</ele>
        <time>2025-05-29T09:44:42Z</time>
      </trkpt>
      <trkpt lat="44.49283" lon="1.41459">
        <ele>185.6</ele>
        <time>2025-05-29T09:44:43Z</time>
      </trkpt>
      <trkpt lat="44.49282" lon="1.4146">
        <ele>186</ele>
        <time>2025-05-29T09:44:44Z</time>
      </trkpt>
      <trkpt lat="44.49281" lon="1.4146">
        <ele>186.2</ele>
        <time>2025-05-29T09:44:45Z</time>
      </trkpt>
      <trkpt lat="44.4928" lon="1.4146">
        <ele>186.4</ele>
        <time>2025-05-29T09:44:46Z</time>
      </trkpt>
      <trkpt lat="44.49278" lon="1.41461">
        <ele>186.6</ele>
        <time>2025-05-29T09:44:47Z</time>
      </trkpt>
      <trkpt lat="44.49277" lon="1.41461">
        <ele>186.6</ele>
        <time>2025-05-29T09:44:48Z</time>
      </trkpt>
      <trkpt lat="44.49275" lon="1.41461">
        <ele>186.8</ele>
        <time>2025-05-29T09:44:49Z</time>
      </trkpt>
      <trkpt lat="44.49274" lon="1.41461">
        <ele>187</ele>
        <time>2025-05-29T09:44:50Z</time>
      </trkpt>
      <trkpt lat="44.49272" lon="1.41461">
        <ele>187</ele>
        <time>2025-05-29T09:44:51Z</time>
      </trkpt>
      <trkpt lat="44.49271" lon="1.41461">
        <ele>187.2</ele>
        <time>2025-05-29T09:44:52Z</time>
      </trkpt>
      <trkpt lat="44.4927" lon="1.41462">
        <ele>187.4</ele>
        <time>2025-05-29T09:44:53Z</time>
      </trkpt>
      <trkpt lat="44.49269" lon="1.41464">
        <ele>187.6</ele>
        <time>2025-05-29T09:44:54Z</time>
      </trkpt>
      <trkpt lat="44.49269" lon="1.41465">
        <ele>187.8</ele>
        <time>2025-05-29T09:44:55Z</time>
      </trkpt>
      <trkpt lat="44.4927" lon="1.41467">
        <ele>188</ele>
        <time>2025-05-29T09:44:56Z</time>
      </trkpt>
      <trkpt lat="44.4927" lon="1.41469">
        <ele>188</ele>
        <time>2025-05-29T09:44:57Z</time>
      </trkpt>
      <trkpt lat="44.4927" lon="1.41471">
        <ele>188.2</ele>
        <time>2025-05-29T09:44:58Z</time>
      </trkpt>
      <trkpt lat="44.4927" lon="1.41472">
        <ele>188.2</ele>
        <time>2025-05-29T09:44:59Z</time>
      </trkpt>
      <trkpt lat="44.49271" lon="1.41474">
        <ele>188.4</ele>
        <time>2025-05-29T09:45:00Z</time>
      </trkpt>
      <trkpt lat="44.49271" lon="1.41476">
        <ele>188.6</ele>
        <time>2025-05-29T09:45:01Z</time>
      </trkpt>
      <trkpt lat="44.4927" lon="1.41478">
        <ele>188.8</ele>
        <time>2025-05-29T09:45:02Z</time>
      </trkpt>
      <trkpt lat="44.49269" lon="1.41479">
        <ele>189.2</ele>
        <time>2025-05-29T09:45:03Z</time>
      </trkpt>
      <trkpt lat="44.49268" lon="1.41479">
        <ele>189.4</ele>
        <time>2025-05-29T09:45:04Z</time>
      </trkpt>
      <trkpt lat="44.49267" lon="1.4148">
        <ele>189.6</ele>
        <time>2025-05-29T09:45:05Z</time>
      </trkpt>
      <trkpt lat="44.49266" lon="1.41481">
        <ele>189.8</ele>
        <time>2025-05-29T09:45:06Z</time>
      </trkpt>
      <trkpt lat="44.49266" lon="1.41483">
        <ele>189.8</ele>
        <time>2025-05-29T09:45:07Z</time>
      </trkpt>
      <trkpt lat="44.49266" lon="1.41485">
        <ele>190</ele>
        <time>2025-05-29T09:45:08Z</time>
      </trkpt>
      <trkpt lat="44.49266" lon="1.41486">
        <ele>190</ele>
        <time>2025-05-29T09:45:09Z</time>
      </trkpt>
      <trkpt lat="44.49267" lon="1.41487">
        <ele>190.2</ele>
        <time>2025-05-29T09:45:10Z</time>
      </trkpt>
      <trkpt lat="44.49267" lon="1.41488">
        <ele>190.4</ele>
        <time>2025-05-29T09:45:11Z</time>
      </trkpt>
      <trkpt lat="44.49266" lon="1.4149">
        <ele>190.6</ele>
        <time>2025-05-29T09:45:12Z</time>
      </trkpt>
      <trkpt lat="44.49266" lon="1.41492">
        <ele>190.8</ele>
        <time>2025-05-29T09:45:13Z</time>
      </trkpt>
      <trkpt lat="44.49265" lon="1.41493">
        <ele>191.2</ele>
        <time>2025-05-29T09:45:14Z</time>
      </trkpt>
      <trkpt lat="44.49264" lon="1.41494">
        <ele>191.4</ele>
        <time>2025-05-29T09:45:15Z</time>
      </trkpt>
      <trkpt lat="44.49263" lon="1.41495">
        <ele>191.6</ele>
        <time>2025-05-29T09:45:16Z</time>
      </trkpt>
      <trkpt lat="44.49262" lon="1.41496">
        <ele>191.8</ele>
        <time>2025-05-29T09:45:17Z</time>
      </trkpt>
      <trkpt lat="44.49261" lon="1.41497">
        <ele>192</ele>
        <time>2025-05-29T09:45:18Z</time>
      </trkpt>
      <trkpt lat="44.4926" lon="1.41499">
        <ele>192.2</ele>
        <time>2025-05-29T09:45:19Z</time>
      </trkpt>
      <trkpt lat="44.49259" lon="1.415">
        <ele>192.2</ele>
        <time>2025-05-29T09:45:20Z</time>
      </trkpt>
      <trkpt lat="44.49258" lon="1.41502">
        <ele>192.4</ele>
        <time>2025-05-29T09:45:21Z</time>
      </trkpt>
      <trkpt lat="44.49257" lon="1.41503">
        <ele>192.6</ele>
        <time>2025-05-29T09:45:22Z</time>
      </trkpt>
      <trkpt lat="44.49257" lon="1.41504">
        <ele>192.8</ele>
        <time>2025-05-29T09:45:23Z</time>
      </trkpt>
      <trkpt lat="44.49257" lon="1.41505">
        <ele>193.2</ele>
        <time>2025-05-29T09:45:24Z</time>
      </trkpt>
      <trkpt lat="44.49256" lon="1.41507">
        <ele>193.4</ele>
        <time>2025-05-29T09:45:25Z</time>
      </trkpt>
      <trkpt lat="44.49255" lon="1.41509">
        <ele>193.6</ele>
        <time>2025-05-29T09:45:26Z</time>
      </trkpt>
      <trkpt lat="44.49254" lon="1.4151">
        <ele>193.8</ele>
        <time>2025-05-29T09:45:27Z</time>
      </trkpt>
      <trkpt lat="44.49253" lon="1.41511">
        <ele>194</ele>
        <time>2025-05-29T09:45:28Z</time>
      </trkpt>
      <trkpt lat="44.49252" lon="1.41512">
        <ele>194.2</ele>
        <time>2025-05-29T09:45:29Z</time>
      </trkpt>
      <trkpt lat="44.49251" lon="1.41513">
        <ele>194.4</ele>
        <time>2025-05-29T09:45:30Z</time>
      </trkpt>
      <trkpt lat="44.49249" lon="1.41513">
        <ele>194.6</ele>
        <time>2025-05-29T09:45:31Z</time>
      </trkpt>
      <trkpt lat="44.49248" lon="1.41514">
        <ele>194.8</ele>
        <time>2025-05-29T09:45:32Z</time>
      </trkpt>
      <trkpt lat="44.49246" lon="1.41515">
        <ele>195</ele>
        <time>2025-05-29T09:45:33Z</time>
      </trkpt>
      <trkpt lat="44.49245" lon="1.41516">
        <ele>195.2</ele>
        <time>2025-05-29T09:45:34Z</time>
      </trkpt>
      <trkpt lat="44.49244" lon="1.41516">
        <ele>195.4</ele>
        <time>2025-05-29T09:45:35Z</time>
      </trkpt>
      <trkpt lat="44.49243" lon="1.41517">
        <ele>195.6</ele>
        <time>2025-05-29T09:45:36Z</time>
      </trkpt>
      <trkpt lat="44.49242" lon="1.41519">
        <ele>195.8</ele>
        <time>2025-05-29T09:45:37Z</time>
      </trkpt>
      <trkpt lat="44.49242" lon="1.4152">
        <ele>196.2</ele>
        <time>2025-05-29T09:45:38Z</time>
      </trkpt>
      <trkpt lat="44.49242" lon="1.41522">
        <ele>196.4</ele>
        <time>2025-05-29T09:45:39Z</time>
      </trkpt>
      <trkpt lat="44.49242" lon="1.41523">
        <ele>196.6</ele>
        <time>2025-05-29T09:45:40Z</time>
      </trkpt>
      <trkpt lat="44.49241" lon="1.41525">
        <ele>196.8</ele>
        <time>2025-05-29T09:45:41Z</time>
      </trkpt>
      <trkpt lat="44.49241" lon="1.41526">
        <ele>197</ele>
        <time>2025-05-29T09:45:42Z</time>
      </trkpt>
      <trkpt lat="44.4924" lon="1.41528">
        <ele>197.2</ele>
        <time>2025-05-29T09:45:43Z</time>
      </trkpt>
      <trkpt lat="44.49239" lon="1.41529">
        <ele>197.4</ele>
        <time>2025-05-29T09:45:44Z</time>
      </trkpt>
      <trkpt lat="44.49239" lon="1.4153">
        <ele>197.6</ele>
        <time>2025-05-29T09:45:45Z</time>
      </trkpt>
      <trkpt lat="44.49238" lon="1.41532">
        <ele>197.6</ele>
        <time>2025-05-29T09:45:46Z</time>
      </trkpt>
      <trkpt lat="44.49238" lon="1.41533">
        <ele>197.8</ele>
        <time>2025-05-29T09:45:47Z</time>
      </trkpt>
      <trkpt lat="44.49237" lon="1.41534">
        <ele>198</ele>
        <time>2025-05-29T09:45:48Z</time>
      </trkpt>
      <trkpt lat="44.49237" lon="1.41535">
        <ele>198.2</ele>
        <time>2025-05-29T09:45:49Z</time>
      </trkpt>
      <trkpt lat="44.49237" lon="1.41536">
        <ele>198.4</ele>
        <time>2025-05-29T09:45:50Z</time>
      </trkpt>
      <trkpt lat="44.49236" lon="1.41537">
        <ele>198.6</ele>
        <time>2025-05-29T09:45:51Z</time>
      </trkpt>
      <trkpt lat="44.49235" lon="1.41539">
        <ele>198.8</ele>
        <time>2025-05-29T09:45:52Z</time>
      </trkpt>
      <trkpt lat="44.49235" lon="1.41541">
        <ele>199</ele>
        <time>2025-05-29T09:45:53Z</time>
      </trkpt>
      <trkpt lat="44.49234" lon="1.41541">
        <ele>199.2</ele>
        <time>2025-05-29T09:45:54Z</time>
      </trkpt>
      <trkpt lat="44.49233" lon="1.41543">
        <ele>199.6</ele>
        <time>2025-05-29T09:45:55Z</time>
      </trkpt>
      <trkpt lat="44.49233" lon="1.41544">
        <ele>199.8</ele>
        <time>2025-05-29T09:45:56Z</time>
      </trkpt>
      <trkpt lat="44.49232" lon="1.41545">
        <ele>200</ele>
        <time>2025-05-29T09:45:57Z</time>
      </trkpt>
      <trkpt lat="44.49231" lon="1.41547">
        <ele>200.4</ele>
        <time>2025-05-29T09:45:58Z</time>
      </trkpt>
      <trkpt lat="44.49231" lon="1.41548">
        <ele>200.6</ele>
        <time>2025-05-29T09:45:59Z</time>
      </trkpt>
      <trkpt lat="44.49231" lon="1.4155">
        <ele>200.8</ele>
        <time>2025-05-29T09:46:00Z</time>
      </trkpt>
      <trkpt lat="44.49231" lon="1.41551">
        <ele>200.8</ele>
        <time>2025-05-29T09:46:01Z</time>
      </trkpt>
      <trkpt lat="44.49232" lon="1.41553">
        <ele>201</ele>
        <time>2025-05-29T09:46:02Z</time>
      </trkpt>
      <trkpt lat="44.49232" lon="1.41554">
        <ele>201.2</ele>
        <time>2025-05-29T09:46:03Z</time>
      </trkpt>
      <trkpt lat="44.49232" lon="1.41556">
        <ele>201.2</ele>
        <time>2025-05-29T09:46:04Z</time>
      </trkpt>
      <trkpt lat="44.49233" lon="1.41558">
        <ele>201.4</ele>
        <time>2025-05-29T09:46:05Z</time>
      </trkpt>
      <trkpt lat="44.49232" lon="1.4156">
        <ele>201.4</ele>
        <time>2025-05-29T09:46:06Z</time>
      </trkpt>
      <trkpt lat="44.49231" lon="1.41561">
        <ele>201.6</ele>
        <time>2025-05-29T09:46:07Z</time>
      </trkpt>
      <trkpt lat="44.49231" lon="1.41561">
        <ele>201.8</ele>
        <time>2025-05-29T09:46:08Z</time>
      </trkpt>
      <trkpt lat="44.4923" lon="1.41562">
        <ele>202</ele>
        <time>2025-05-29T09:46:09Z</time>
      </trkpt>
      <trkpt lat="44.49229" lon="1.41563">
        <ele>202.2</ele>
        <time>2025-05-29T09:46:10Z</time>
      </trkpt>
      <trkpt lat="44.49228" lon="1.41564">
        <ele>202.4</ele>
        <time>2025-05-29T09:46:11Z</time>
      </trkpt>
      <trkpt lat="44.49227" lon="1.41565">
        <ele>202.6</ele>
        <time>2025-05-29T09:46:12Z</time>
      </trkpt>
      <trkpt lat="44.49226" lon="1.41565">
        <ele>202.8</ele>
        <time>2025-05-29T09:46:13Z</time>
      </trkpt>
      <trkpt lat="44.49225" lon="1.41565">
        <ele>203</ele>
        <time>2025-05-29T09:46:14Z</time>
      </trkpt>
      <trkpt lat="44.49224" lon="1.41565">
        <ele>203.2</ele>
        <time>2025-05-29T09:46:15Z</time>
      </trkpt>
      <trkpt lat="44.49223" lon="1.41567">
        <ele>203.4</ele>
        <time>2025-05-29T09:46:16Z</time>
      </trkpt>
      <trkpt lat="44.49222" lon="1.41568">
        <ele>203.6</ele>
        <time>2025-05-29T09:46:17Z</time>
      </trkpt>
      <trkpt lat="44.49222" lon="1.4157">
        <ele>203.8</ele>
        <time>2025-05-29T09:46:18Z</time>
      </trkpt>
      <trkpt lat="44.49222" lon="1.41571">
        <ele>204</ele>
        <time>2025-05-29T09:46:19Z</time>
      </trkpt>
      <trkpt lat="44.49222" lon="1.41572">
        <ele>204.2</ele>
        <time>2025-05-29T09:46:20Z</time>
      </trkpt>
      <trkpt lat="44.49222" lon="1.41573">
        <ele>204.2</ele>
        <time>2025-05-29T09:46:21Z</time>
      </trkpt>
      <trkpt lat="44.49222" lon="1.41575">
        <ele>204.4</ele>
        <time>2025-05-29T09:46:22Z</time>
      </trkpt>
      <trkpt lat="44.49223" lon="1.41577">
        <ele>204.6</ele>
        <time>2025-05-29T09:46:23Z</time>
      </trkpt>
      <trkpt lat="44.49223" lon="1.41578">
        <ele>204.6</ele>
        <time>2025-05-29T09:46:24Z</time>
      </trkpt>
      <trkpt lat="44.49223" lon="1.4158">
        <ele>204.8</ele>
        <time>2025-05-29T09:46:25Z</time>
      </trkpt>
      <trkpt lat="44.49223" lon="1.41582">
        <ele>205</ele>
        <time>2025-05-29T09:46:26Z</time>
      </trkpt>
      <trkpt lat="44.49222" lon="1.41583">
        <ele>205.2</ele>
        <time>2025-05-29T09:46:27Z</time>
      </trkpt>
      <trkpt lat="44.49222" lon="1.41584">
        <ele>205.2</ele>
        <time>2025-05-29T09:46:28Z</time>
      </trkpt>
      <trkpt lat="44.49221" lon="1.41585">
        <ele>205.4</ele>
        <time>2025-05-29T09:46:29Z</time>
      </trkpt>
      <trkpt lat="44.4922" lon="1.41586">
        <ele>205.6</ele>
        <time>2025-05-29T09:46:30Z</time>
      </trkpt>
      <trkpt lat="44.4922" lon="1.41587">
        <ele>205.8</ele>
        <time>2025-05-29T09:46:31Z</time>
      </trkpt>
      <trkpt lat="44.4922" lon="1.41588">
        <ele>206</ele>
        <time>2025-05-29T09:46:32Z</time>
      </trkpt>
      <trkpt lat="44.4922" lon="1.41589">
        <ele>206.2</ele>
        <time>2025-05-29T09:46:33Z</time>
      </trkpt>
      <trkpt lat="44.49219" lon="1.4159">
        <ele>206.4</ele>
        <time>2025-05-29T09:46:34Z</time>
      </trkpt>
      <trkpt lat="44.49218" lon="1.41591">
        <ele>206.6</ele>
        <time>2025-05-29T09:46:35Z</time>
      </trkpt>
      <trkpt lat="44.49217" lon="1.41591">
        <ele>206.8</ele>
        <time>2025-05-29T09:46:36Z</time>
      </trkpt>
      <trkpt lat="44.49216" lon="1.41591">
        <ele>207</ele>
        <time>2025-05-29T09:46:37Z</time>
      </trkpt>
      <trkpt lat="44.49215" lon="1.41591">
        <ele>207.2</ele>
        <time>2025-05-29T09:46:38Z</time>
      </trkpt>
      <trkpt lat="44.49214" lon="1.41592">
        <ele>207.4</ele>
        <time>2025-05-29T09:46:39Z</time>
      </trkpt>
      <trkpt lat="44.49213" lon="1.41592">
        <ele>207.6</ele>
        <time>2025-05-29T09:46:40Z</time>
      </trkpt>
      <trkpt lat="44.49212" lon="1.41593">
        <ele>207.8</ele>
        <time>2025-05-29T09:46:41Z</time>
      </trkpt>
      <trkpt lat="44.49211" lon="1.41592">
        <ele>208.2</ele>
        <time>2025-05-29T09:46:42Z</time>
      </trkpt>
      <trkpt lat="44.4921" lon="1.41592">
        <ele>208.2</ele>
        <time>2025-05-29T09:46:43Z</time>
      </trkpt>
      <trkpt lat="44.49209" lon="1.41592">
        <ele>208.6</ele>
        <time>2025-05-29T09:46:44Z</time>
      </trkpt>
      <trkpt lat="44.49208" lon="1.41592">
        <ele>208.8</ele>
        <time>2025-05-29T09:46:45Z</time>
      </trkpt>
      <trkpt lat="44.49207" lon="1.41592">
        <ele>209</ele>
        <time>2025-05-29T09:46:46Z</time>
      </trkpt>
      <trkpt lat="44.49206" lon="1.41593">
        <ele>209.2</ele>
        <time>2025-05-29T09:46:47Z</time>
      </trkpt>
      <trkpt lat="44.49206" lon="1.41594">
        <ele>209.4</ele>
        <time>2025-05-29T09:46:48Z</time>
      </trkpt>
      <trkpt lat="44.49205" lon="1.41595">
        <ele>209.6</ele>
        <time>2025-05-29T09:46:49Z</time>
      </trkpt>
      <trkpt lat="44.49205" lon="1.41596">
        <ele>209.8</ele>
        <time>2025-05-29T09:46:50Z</time>
      </trkpt>
      <trkpt lat="44.49205" lon="1.41597">
        <ele>210.2</ele>
        <time>2025-05-29T09:46:51Z</time>
      </trkpt>
      <trkpt lat="44.49206" lon="1.41597">
        <ele>210.4</ele>
        <time>2025-05-29T09:46:52Z</time>
      </trkpt>
      <trkpt lat="44.49206" lon="1.41597">
        <ele>210.6</ele>
        <time>2025-05-29T09:46:53Z</time>
      </trkpt>
      <trkpt lat="44.49206" lon="1.41598">
        <ele>210.8</ele>
        <time>2025-05-29T09:46:54Z</time>
      </trkpt>
      <trkpt lat="44.49206" lon="1.41598">
        <ele>211</ele>
        <time>2025-05-29T09:46:55Z</time>
      </trkpt>
      <trkpt lat="44.49209" lon="1.416">
        <ele>211</ele>
        <time>2025-05-29T09:47:02Z</time>
      </trkpt>
      <trkpt lat="44.49209" lon="1.41602">
        <ele>210.8</ele>
        <time>2025-05-29T09:47:03Z</time>
      </trkpt>
      <trkpt lat="44.49209" lon="1.41604">
        <ele>210.8</ele>
        <time>2025-05-29T09:47:04Z</time>
      </trkpt>
      <trkpt lat="44.49208" lon="1.41606">
        <ele>211</ele>
        <time>2025-05-29T09:47:05Z</time>
      </trkpt>
      <trkpt lat="44.49209" lon="1.41608">
        <ele>211</ele>
        <time>2025-05-29T09:47:06Z</time>
      </trkpt>
      <trkpt lat="44.49209" lon="1.41609">
        <ele>211.2</ele>
        <time>2025-05-29T09:47:07Z</time>
      </trkpt>
      <trkpt lat="44.4921" lon="1.41611">
        <ele>211.4</ele>
        <time>2025-05-29T09:47:08Z</time>
      </trkpt>
      <trkpt lat="44.49212" lon="1.41612">
        <ele>211.6</ele>
        <time>2025-05-29T09:47:09Z</time>
      </trkpt>
      <trkpt lat="44.49212" lon="1.41613">
        <ele>211.6</ele>
        <time>2025-05-29T09:47:10Z</time>
      </trkpt>
      <trkpt lat="44.49213" lon="1.41613">
        <ele>211.8</ele>
        <time>2025-05-29T09:47:11Z</time>
      </trkpt>
      <trkpt lat="44.49214" lon="1.41613">
        <ele>211.8</ele>
        <time>2025-05-29T09:47:12Z</time>
      </trkpt>
      <trkpt lat="44.49215" lon="1.41614">
        <ele>212</ele>
        <time>2025-05-29T09:47:13Z</time>
      </trkpt>
      <trkpt lat="44.49217" lon="1.41614">
        <ele>212</ele>
        <time>2025-05-29T09:47:14Z</time>
      </trkpt>
      <trkpt lat="44.49217" lon="1.41615">
        <ele>212.2</ele>
        <time>2025-05-29T09:47:15Z</time>
      </trkpt>
      <trkpt lat="44.49217" lon="1.41617">
        <ele>212.2</ele>
        <time>2025-05-29T09:47:16Z</time>
      </trkpt>
      <trkpt lat="44.49217" lon="1.41618">
        <ele>212.4</ele>
        <time>2025-05-29T09:47:17Z</time>
      </trkpt>
      <trkpt lat="44.49216" lon="1.41619">
        <ele>212.6</ele>
        <time>2025-05-29T09:47:18Z</time>
      </trkpt>
      <trkpt lat="44.49215" lon="1.41619">
        <ele>212.8</ele>
        <time>2025-05-29T09:47:19Z</time>
      </trkpt>
      <trkpt lat="44.49214" lon="1.41619">
        <ele>213</ele>
        <time>2025-05-29T09:47:20Z</time>
      </trkpt>
      <trkpt lat="44.49213" lon="1.4162">
        <ele>213</ele>
        <time>2025-05-29T09:47:21Z</time>
      </trkpt>
      <trkpt lat="44.49212" lon="1.4162">
        <ele>213.2</ele>
        <time>2025-05-29T09:47:22Z</time>
      </trkpt>
      <trkpt lat="44.49211" lon="1.4162">
        <ele>213.2</ele>
        <time>2025-05-29T09:47:23Z</time>
      </trkpt>
      <trkpt lat="44.4921" lon="1.4162">
        <ele>213.2</ele>
        <time>2025-05-29T09:47:24Z</time>
      </trkpt>
      <trkpt lat="44.49208" lon="1.4162">
        <ele>213.4</ele>
        <time>2025-05-29T09:47:25Z</time>
      </trkpt>
      <trkpt lat="44.49207" lon="1.41621">
        <ele>213.4</ele>
        <time>2025-05-29T09:47:26Z</time>
      </trkpt>
      <trkpt lat="44.49206" lon="1.4162">
        <ele>213.6</ele>
        <time>2025-05-29T09:47:27Z</time>
      </trkpt>
      <trkpt lat="44.49205" lon="1.4162">
        <ele>213.8</ele>
        <time>2025-05-29T09:47:28Z</time>
      </trkpt>
      <trkpt lat="44.49204" lon="1.4162">
        <ele>214</ele>
        <time>2025-05-29T09:47:29Z</time>
      </trkpt>
      <trkpt lat="44.49203" lon="1.4162">
        <ele>214.2</ele>
        <time>2025-05-29T09:47:30Z</time>
      </trkpt>
      <trkpt lat="44.49202" lon="1.41618">
        <ele>214.4</ele>
        <time>2025-05-29T09:47:31Z</time>
      </trkpt>
      <trkpt lat="44.492" lon="1.41617">
        <ele>214.4</ele>
        <time>2025-05-29T09:47:32Z</time>
      </trkpt>
      <trkpt lat="44.49199" lon="1.41616">
        <ele>214.6</ele>
        <time>2025-05-29T09:47:33Z</time>
      </trkpt>
      <trkpt lat="44.49198" lon="1.41615">
        <ele>214.8</ele>
        <time>2025-05-29T09:47:34Z</time>
      </trkpt>
      <trkpt lat="44.49197" lon="1.41613">
        <ele>214.8</ele>
        <time>2025-05-29T09:47:35Z</time>
      </trkpt>
      <trkpt lat="44.49197" lon="1.41612">
        <ele>215</ele>
        <time>2025-05-29T09:47:36Z</time>
      </trkpt>
      <trkpt lat="44.49196" lon="1.41609">
        <ele>215.2</ele>
        <time>2025-05-29T09:47:37Z</time>
      </trkpt>
      <trkpt lat="44.49195" lon="1.41607">
        <ele>215.4</ele>
        <time>2025-05-29T09:47:38Z</time>
      </trkpt>
      <trkpt lat="44.49194" lon="1.41606">
        <ele>215.4</ele>
        <time>2025-05-29T09:47:39Z</time>
      </trkpt>
      <trkpt lat="44.49192" lon="1.41607">
        <ele>215.6</ele>
        <time>2025-05-29T09:47:40Z</time>
      </trkpt>
      <trkpt lat="44.49192" lon="1.41607">
        <ele>215.8</ele>
        <time>2025-05-29T09:47:41Z</time>
      </trkpt>
      <trkpt lat="44.49192" lon="1.41608">
        <ele>216</ele>
        <time>2025-05-29T09:47:42Z</time>
      </trkpt>
      <trkpt lat="44.49192" lon="1.4161">
        <ele>216.2</ele>
        <time>2025-05-29T09:47:43Z</time>
      </trkpt>
      <trkpt lat="44.49193" lon="1.41611">
        <ele>216.4</ele>
        <time>2025-05-29T09:47:44Z</time>
      </trkpt>
      <trkpt lat="44.49193" lon="1.41613">
        <ele>216.6</ele>
        <time>2025-05-29T09:47:45Z</time>
      </trkpt>
      <trkpt lat="44.49193" lon="1.41615">
        <ele>216.8</ele>
        <time>2025-05-29T09:47:46Z</time>
      </trkpt>
      <trkpt lat="44.49193" lon="1.41617">
        <ele>217</ele>
        <time>2025-05-29T09:47:47Z</time>
      </trkpt>
      <trkpt lat="44.49193" lon="1.41619">
        <ele>217</ele>
        <time>2025-05-29T09:47:48Z</time>
      </trkpt>
      <trkpt lat="44.49194" lon="1.4162">
        <ele>217.2</ele>
        <time>2025-05-29T09:47:49Z</time>
      </trkpt>
      <trkpt lat="44.49194" lon="1.41621">
        <ele>217.2</ele>
        <time>2025-05-29T09:47:50Z</time>
      </trkpt>
      <trkpt lat="44.49194" lon="1.41622">
        <ele>217.4</ele>
        <time>2025-05-29T09:47:51Z</time>
      </trkpt>
      <trkpt lat="44.49195" lon="1.41624">
        <ele>217.4</ele>
        <time>2025-05-29T09:47:52Z</time>
      </trkpt>
      <trkpt lat="44.49195" lon="1.41626">
        <ele>217.6</ele>
        <time>2025-05-29T09:47:53Z</time>
      </trkpt>
      <trkpt lat="44.49195" lon="1.41627">
        <ele>217.6</ele>
        <time>2025-05-29T09:47:54Z</time>
      </trkpt>
      <trkpt lat="44.49196" lon="1.41628">
        <ele>217.8</ele>
        <time>2025-05-29T09:47:55Z</time>
      </trkpt>
      <trkpt lat="44.49197" lon="1.41629">
        <ele>217.8</ele>
        <time>2025-05-29T09:47:56Z</time>
      </trkpt>
      <trkpt lat="44.49197" lon="1.41631">
        <ele>218</ele>
        <time>2025-05-29T09:47:57Z</time>
      </trkpt>
      <trkpt lat="44.49198" lon="1.41633">
        <ele>218.2</ele>
        <time>2025-05-29T09:47:58Z</time>
      </trkpt>
      <trkpt lat="44.49197" lon="1.41634">
        <ele>218.4</ele>
        <time>2025-05-29T09:47:59Z</time>
      </trkpt>
      <trkpt lat="44.49196" lon="1.41634">
        <ele>218.6</ele>
        <time>2025-05-29T09:48:00Z</time>
      </trkpt>
      <trkpt lat="44.49195" lon="1.41635">
        <ele>219</ele>
        <time>2025-05-29T09:48:01Z</time>
      </trkpt>
      <trkpt lat="44.49194" lon="1.41634">
        <ele>219.2</ele>
        <time>2025-05-29T09:48:02Z</time>
      </trkpt>
      <trkpt lat="44.49193" lon="1.41634">
        <ele>219.6</ele>
        <time>2025-05-29T09:48:03Z</time>
      </trkpt>
      <trkpt lat="44.49192" lon="1.41634">
        <ele>219.8</ele>
        <time>2025-05-29T09:48:04Z</time>
      </trkpt>
      <trkpt lat="44.49191" lon="1.41633">
        <ele>220</ele>
        <time>2025-05-29T09:48:05Z</time>
      </trkpt>
      <trkpt lat="44.4919" lon="1.41631">
        <ele>220.2</ele>
        <time>2025-05-29T09:48:06Z</time>
      </trkpt>
      <trkpt lat="44.49189" lon="1.4163">
        <ele>220.2</ele>
        <time>2025-05-29T09:48:07Z</time>
      </trkpt>
      <trkpt lat="44.49188" lon="1.41629">
        <ele>220.4</ele>
        <time>2025-05-29T09:48:08Z</time>
      </trkpt>
      <trkpt lat="44.49187" lon="1.41628">
        <ele>220.4</ele>
        <time>2025-05-29T09:48:09Z</time>
      </trkpt>
      <trkpt lat="44.49186" lon="1.41627">
        <ele>220.6</ele>
        <time>2025-05-29T09:48:10Z</time>
      </trkpt>
      <trkpt lat="44.49185" lon="1.41626">
        <ele>220.6</ele>
        <time>2025-05-29T09:48:11Z</time>
      </trkpt>
      <trkpt lat="44.49185" lon="1.41624">
        <ele>220.8</ele>
        <time>2025-05-29T09:48:12Z</time>
      </trkpt>
      <trkpt lat="44.49184" lon="1.41622">
        <ele>221</ele>
        <time>2025-05-29T09:48:13Z</time>
      </trkpt>
      <trkpt lat="44.49183" lon="1.41621">
        <ele>221.2</ele>
        <time>2025-05-29T09:48:14Z</time>
      </trkpt>
      <trkpt lat="44.49181" lon="1.4162">
        <ele>221.2</ele>
        <time>2025-05-29T09:48:15Z</time>
      </trkpt>
      <trkpt lat="44.49181" lon="1.4162">
        <ele>221.4</ele>
        <time>2025-05-29T09:48:16Z</time>
      </trkpt>
      <trkpt lat="44.49182" lon="1.4162">
        <ele>221.6</ele>
        <time>2025-05-29T09:48:17Z</time>
      </trkpt>
      <trkpt lat="44.49182" lon="1.41628">
        <ele>222.8</ele>
        <time>2025-05-29T09:49:14Z</time>
      </trkpt>
      <trkpt lat="44.49182" lon="1.41629">
        <ele>222.6</ele>
        <time>2025-05-29T09:49:15Z</time>
      </trkpt>
      <trkpt lat="44.49182" lon="1.41631">
        <ele>222.6</ele>
        <time>2025-05-29T09:49:16Z</time>
      </trkpt>
      <trkpt lat="44.49182" lon="1.41633">
        <ele>222.6</ele>
        <time>2025-05-29T09:49:17Z</time>
      </trkpt>
      <trkpt lat="44.49183" lon="1.41635">
        <ele>222.6</ele>
        <time>2025-05-29T09:49:18Z</time>
      </trkpt>
      <trkpt lat="44.49184" lon="1.41637">
        <ele>222.8</ele>
        <time>2025-05-29T09:49:19Z</time>
      </trkpt>
      <trkpt lat="44.49185" lon="1.41639">
        <ele>223</ele>
        <time>2025-05-29T09:49:20Z</time>
      </trkpt>
      <trkpt lat="44.49186" lon="1.4164">
        <ele>223</ele>
        <time>2025-05-29T09:49:21Z</time>
      </trkpt>
      <trkpt lat="44.49187" lon="1.41642">
        <ele>223.2</ele>
        <time>2025-05-29T09:49:22Z</time>
      </trkpt>
      <trkpt lat="44.49188" lon="1.41644">
        <ele>223.2</ele>
        <time>2025-05-29T09:49:23Z</time>
      </trkpt>
      <trkpt lat="44.49189" lon="1.41645">
        <ele>223.2</ele>
        <time>2025-05-29T09:49:24Z</time>
      </trkpt>
      <trkpt lat="44.49191" lon="1.41647">
        <ele>223.2</ele>
        <time>2025-05-29T09:49:25Z</time>
      </trkpt>
      <trkpt lat="44.49192" lon="1.41648">
        <ele>223.4</ele>
        <time>2025-05-29T09:49:26Z</time>
      </trkpt>
      <trkpt lat="44.49193" lon="1.4165">
        <ele>223.4</ele>
        <time>2025-05-29T09:49:27Z</time>
      </trkpt>
      <trkpt lat="44.49194" lon="1.41651">
        <ele>223.6</ele>
        <time>2025-05-29T09:49:28Z</time>
      </trkpt>
      <trkpt lat="44.49196" lon="1.41653">
        <ele>223.8</ele>
        <time>2025-05-29T09:49:29Z</time>
      </trkpt>
      <trkpt lat="44.49196" lon="1.41654">
        <ele>224</ele>
        <time>2025-05-29T09:49:30Z</time>
      </trkpt>
      <trkpt lat="44.49196" lon="1.41656">
        <ele>224.2</ele>
        <time>2025-05-29T09:49:31Z</time>
      </trkpt>
      <trkpt lat="44.49196" lon="1.41658">
        <ele>224.4</ele>
        <time>2025-05-29T09:49:32Z</time>
      </trkpt>
      <trkpt lat="44.49195" lon="1.41659">
        <ele>224.8</ele>
        <time>2025-05-29T09:49:33Z</time>
      </trkpt>
      <trkpt lat="44.49194" lon="1.41659">
        <ele>225.2</ele>
        <time>2025-05-29T09:49:34Z</time>
      </trkpt>
      <trkpt lat="44.49193" lon="1.41658">
        <ele>225.4</ele>
        <time>2025-05-29T09:49:35Z</time>
      </trkpt>
      <trkpt lat="44.49192" lon="1.41658">
        <ele>225.6</ele>
        <time>2025-05-29T09:49:36Z</time>
      </trkpt>
      <trkpt lat="44.49191" lon="1.41657">
        <ele>225.8</ele>
        <time>2025-05-29T09:49:37Z</time>
      </trkpt>
      <trkpt lat="44.49189" lon="1.41656">
        <ele>225.8</ele>
        <time>2025-05-29T09:49:38Z</time>
      </trkpt>
      <trkpt lat="44.49188" lon="1.41656">
        <ele>225.8</ele>
        <time>2025-05-29T09:49:39Z</time>
      </trkpt>
      <trkpt lat="44.49186" lon="1.41655">
        <ele>225.8</ele>
        <time>2025-05-29T09:49:40Z</time>
      </trkpt>
      <trkpt lat="44.49185" lon="1.41655">
        <ele>226</ele>
        <time>2025-05-29T09:49:41Z</time>
      </trkpt>
      <trkpt lat="44.49184" lon="1.41655">
        <ele>226.2</ele>
        <time>2025-05-29T09:49:42Z</time>
      </trkpt>
      <trkpt lat="44.49183" lon="1.41654">
        <ele>226.2</ele>
        <time>2025-05-29T09:49:43Z</time>
      </trkpt>
      <trkpt lat="44.49182" lon="1.41653">
        <ele>226.6</ele>
        <time>2025-05-29T09:49:44Z</time>
      </trkpt>
      <trkpt lat="44.49181" lon="1.41652">
        <ele>226.8</ele>
        <time>2025-05-29T09:49:45Z</time>
      </trkpt>
      <trkpt lat="44.4918" lon="1.41651">
        <ele>226.8</ele>
        <time>2025-05-29T09:49:46Z</time>
      </trkpt>
      <trkpt lat="44.49178" lon="1.4165">
        <ele>227</ele>
        <time>2025-05-29T09:49:47Z</time>
      </trkpt>
      <trkpt lat="44.49177" lon="1.41649">
        <ele>227.2</ele>
        <time>2025-05-29T09:49:48Z</time>
      </trkpt>
      <trkpt lat="44.49176" lon="1.41648">
        <ele>227.2</ele>
        <time>2025-05-29T09:49:49Z</time>
      </trkpt>
      <trkpt lat="44.49175" lon="1.41646">
        <ele>227.4</ele>
        <time>2025-05-29T09:49:50Z</time>
      </trkpt>
      <trkpt lat="44.49174" lon="1.41645">
        <ele>227.4</ele>
        <time>2025-05-29T09:49:51Z</time>
      </trkpt>
      <trkpt lat="44.49173" lon="1.41643">
        <ele>227.6</ele>
        <time>2025-05-29T09:49:52Z</time>
      </trkpt>
      <trkpt lat="44.49173" lon="1.41641">
        <ele>227.8</ele>
        <time>2025-05-29T09:49:53Z</time>
      </trkpt>
      <trkpt lat="44.49172" lon="1.4164">
        <ele>228</ele>
        <time>2025-05-29T09:49:54Z</time>
      </trkpt>
      <trkpt lat="44.49171" lon="1.41639">
        <ele>228</ele>
        <time>2025-05-29T09:49:55Z</time>
      </trkpt>
      <trkpt lat="44.4917" lon="1.4164">
        <ele>228.2</ele>
        <time>2025-05-29T09:49:56Z</time>
      </trkpt>
      <trkpt lat="44.49171" lon="1.4164">
        <ele>228.4</ele>
        <time>2025-05-29T09:49:57Z</time>
      </trkpt>
      <trkpt lat="44.4917" lon="1.4164">
        <ele>228.6</ele>
        <time>2025-05-29T09:49:58Z</time>
      </trkpt>
      <trkpt lat="44.49172" lon="1.41658">
        <ele>230.2</ele>
        <time>2025-05-29T09:50:23Z</time>
      </trkpt>
      <trkpt lat="44.49173" lon="1.4166">
        <ele>230.2</ele>
        <time>2025-05-29T09:50:24Z</time>
      </trkpt>
      <trkpt lat="44.49172" lon="1.41662">
        <ele>230.4</ele>
        <time>2025-05-29T09:50:25Z</time>
      </trkpt>
      <trkpt lat="44.49173" lon="1.41664">
        <ele>230.6</ele>
        <time>2025-05-29T09:50:26Z</time>
      </trkpt>
      <trkpt lat="44.49174" lon="1.41666">
        <ele>230.8</ele>
        <time>2025-05-29T09:50:27Z</time>
      </trkpt>
      <trkpt lat="44.49175" lon="1.41667">
        <ele>231</ele>
        <time>2025-05-29T09:50:28Z</time>
      </trkpt>
      <trkpt lat="44.49176" lon="1.41668">
        <ele>231.2</ele>
        <time>2025-05-29T09:50:29Z</time>
      </trkpt>
      <trkpt lat="44.49177" lon="1.4167">
        <ele>231.4</ele>
        <time>2025-05-29T09:50:30Z</time>
      </trkpt>
      <trkpt lat="44.49178" lon="1.41671">
        <ele>231.6</ele>
        <time>2025-05-29T09:50:31Z</time>
      </trkpt>
      <trkpt lat="44.4918" lon="1.41672">
        <ele>231.6</ele>
        <time>2025-05-29T09:50:32Z</time>
      </trkpt>
      <trkpt lat="44.49182" lon="1.41672">
        <ele>231.8</ele>
        <time>2025-05-29T09:50:33Z</time>
      </trkpt>
      <trkpt lat="44.49183" lon="1.41673">
        <ele>231.8</ele>
        <time>2025-05-29T09:50:34Z</time>
      </trkpt>
      <trkpt lat="44.49185" lon="1.41674">
        <ele>231.8</ele>
        <time>2025-05-29T09:50:35Z</time>
      </trkpt>
      <trkpt lat="44.49185" lon="1.41676">
        <ele>231.8</ele>
        <time>2025-05-29T09:50:36Z</time>
      </trkpt>
      <trkpt lat="44.49185" lon="1.41678">
        <ele>231.8</ele>
        <time>2025-05-29T09:50:37Z</time>
      </trkpt>
      <trkpt lat="44.49184" lon="1.41679">
        <ele>232</ele>
        <time>2025-05-29T09:50:38Z</time>
      </trkpt>
      <trkpt lat="44.49183" lon="1.41679">
        <ele>232.2</ele>
        <time>2025-05-29T09:50:39Z</time>
      </trkpt>
      <trkpt lat="44.49183" lon="1.4168">
        <ele>232.4</ele>
        <time>2025-05-29T09:50:40Z</time>
      </trkpt>
      <trkpt lat="44.49182" lon="1.41679">
        <ele>232.6</ele>
        <time>2025-05-29T09:50:41Z</time>
      </trkpt>
      <trkpt lat="44.49181" lon="1.4168">
        <ele>232.8</ele>
        <time>2025-05-29T09:50:42Z</time>
      </trkpt>
      <trkpt lat="44.4918" lon="1.4168">
        <ele>233</ele>
        <time>2025-05-29T09:50:43Z</time>
      </trkpt>
      <trkpt lat="44.49179" lon="1.41682">
        <ele>233.2</ele>
        <time>2025-05-29T09:50:44Z</time>
      </trkpt>
      <trkpt lat="44.49178" lon="1.41682">
        <ele>233.4</ele>
        <time>2025-05-29T09:50:45Z</time>
      </trkpt>
      <trkpt lat="44.49178" lon="1.41682">
        <ele>233.6</ele>
        <time>2025-05-29T09:50:46Z</time>
      </trkpt>
      <trkpt lat="44.49173" lon="1.4168">
        <ele>234.2</ele>
        <time>2025-05-29T09:50:55Z</time>
      </trkpt>
      <trkpt lat="44.49172" lon="1.41679">
        <ele>234.2</ele>
        <time>2025-05-29T09:50:56Z</time>
      </trkpt>
      <trkpt lat="44.49171" lon="1.41678">
        <ele>234.4</ele>
        <time>2025-05-29T09:50:57Z</time>
      </trkpt>
      <trkpt lat="44.4917" lon="1.41677">
        <ele>234.6</ele>
        <time>2025-05-29T09:50:58Z</time>
      </trkpt>
      <trkpt lat="44.49169" lon="1.41675">
        <ele>234.8</ele>
        <time>2025-05-29T09:50:59Z</time>
      </trkpt>
      <trkpt lat="44.49167" lon="1.41673">
        <ele>234.8</ele>
        <time>2025-05-29T09:51:00Z</time>
      </trkpt>
      <trkpt lat="44.49166" lon="1.41671">
        <ele>235</ele>
        <time>2025-05-29T09:51:01Z</time>
      </trkpt>
      <trkpt lat="44.49165" lon="1.4167">
        <ele>235.2</ele>
        <time>2025-05-29T09:51:02Z</time>
      </trkpt>
      <trkpt lat="44.49165" lon="1.41668">
        <ele>235.4</ele>
        <time>2025-05-29T09:51:03Z</time>
      </trkpt>
      <trkpt lat="44.49164" lon="1.41667">
        <ele>235.4</ele>
        <time>2025-05-29T09:51:04Z</time>
      </trkpt>
      <trkpt lat="44.49163" lon="1.41665">
        <ele>235.6</ele>
        <time>2025-05-29T09:51:05Z</time>
      </trkpt>
      <trkpt lat="44.49162" lon="1.41664">
        <ele>235.8</ele>
        <time>2025-05-29T09:51:06Z</time>
      </trkpt>
      <trkpt lat="44.49161" lon="1.41663">
        <ele>236</ele>
        <time>2025-05-29T09:51:07Z</time>
      </trkpt>
      <trkpt lat="44.4916" lon="1.41661">
        <ele>236.2</ele>
        <time>2025-05-29T09:51:08Z</time>
      </trkpt>
      <trkpt lat="44.49159" lon="1.41659">
        <ele>236.4</ele>
        <time>2025-05-29T09:51:09Z</time>
      </trkpt>
      <trkpt lat="44.49158" lon="1.41658">
        <ele>236.4</ele>
        <time>2025-05-29T09:51:10Z</time>
      </trkpt>
      <trkpt lat="44.49157" lon="1.41657">
        <ele>236.6</ele>
        <time>2025-05-29T09:51:11Z</time>
      </trkpt>
      <trkpt lat="44.49157" lon="1.41656">
        <ele>236.8</ele>
        <time>2025-05-29T09:51:12Z</time>
      </trkpt>
      <trkpt lat="44.49156" lon="1.41654">
        <ele>237.2</ele>
        <time>2025-05-29T09:51:13Z</time>
      </trkpt>
      <trkpt lat="44.49155" lon="1.41653">
        <ele>237.4</ele>
        <time>2025-05-29T09:51:14Z</time>
      </trkpt>
      <trkpt lat="44.49154" lon="1.41652">
        <ele>237.8</ele>
        <time>2025-05-29T09:51:15Z</time>
      </trkpt>
      <trkpt lat="44.49153" lon="1.41651">
        <ele>238.2</ele>
        <time>2025-05-29T09:51:16Z</time>
      </trkpt>
      <trkpt lat="44.49152" lon="1.41649">
        <ele>238.4</ele>
        <time>2025-05-29T09:51:17Z</time>
      </trkpt>
      <trkpt lat="44.49151" lon="1.41648">
        <ele>238.8</ele>
        <time>2025-05-29T09:51:18Z</time>
      </trkpt>
      <trkpt lat="44.49151" lon="1.41646">
        <ele>239</ele>
        <time>2025-05-29T09:51:19Z</time>
      </trkpt>
      <trkpt lat="44.4915" lon="1.41646">
        <ele>239.4</ele>
        <time>2025-05-29T09:51:20Z</time>
      </trkpt>
      <trkpt lat="44.4915" lon="1.41645">
        <ele>239.6</ele>
        <time>2025-05-29T09:51:21Z</time>
      </trkpt>
      <trkpt lat="44.49144" lon="1.41675">
        <ele>243.6</ele>
        <time>2025-05-29T09:52:21Z</time>
      </trkpt>
      <trkpt lat="44.49144" lon="1.41677">
        <ele>243.8</ele>
        <time>2025-05-29T09:52:22Z</time>
      </trkpt>
      <trkpt lat="44.49144" lon="1.4168">
        <ele>243.8</ele>
        <time>2025-05-29T09:52:23Z</time>
      </trkpt>
      <trkpt lat="44.49144" lon="1.41681">
        <ele>244</ele>
        <time>2025-05-29T09:52:24Z</time>
      </trkpt>
      <trkpt lat="44.49145" lon="1.41684">
        <ele>244</ele>
        <time>2025-05-29T09:52:25Z</time>
      </trkpt>
      <trkpt lat="44.49146" lon="1.41685">
        <ele>244.2</ele>
        <time>2025-05-29T09:52:26Z</time>
      </trkpt>
      <trkpt lat="44.49148" lon="1.41687">
        <ele>244.2</ele>
        <time>2025-05-29T09:52:27Z</time>
      </trkpt>
      <trkpt lat="44.49149" lon="1.41691">
        <ele>244</ele>
        <time>2025-05-29T09:52:28Z</time>
      </trkpt>
      <trkpt lat="44.49151" lon="1.41694">
        <ele>244</ele>
        <time>2025-05-29T09:52:29Z</time>
      </trkpt>
      <trkpt lat="44.49151" lon="1.41696">
        <ele>243.8</ele>
        <time>2025-05-29T09:52:30Z</time>
      </trkpt>
      <trkpt lat="44.49152" lon="1.41699">
        <ele>243.8</ele>
        <time>2025-05-29T09:52:31Z</time>
      </trkpt>
      <trkpt lat="44.49153" lon="1.417">
        <ele>243.8</ele>
        <time>2025-05-29T09:52:32Z</time>
      </trkpt>
      <trkpt lat="44.49154" lon="1.41702">
        <ele>244</ele>
        <time>2025-05-29T09:52:33Z</time>
      </trkpt>
      <trkpt lat="44.49155" lon="1.41704">
        <ele>244.2</ele>
        <time>2025-05-29T09:52:34Z</time>
      </trkpt>
      <trkpt lat="44.49156" lon="1.41706">
        <ele>244.2</ele>
        <time>2025-05-29T09:52:35Z</time>
      </trkpt>
      <trkpt lat="44.49157" lon="1.41708">
        <ele>244.4</ele>
        <time>2025-05-29T09:52:36Z</time>
      </trkpt>
      <trkpt lat="44.49158" lon="1.4171">
        <ele>244.6</ele>
        <time>2025-05-29T09:52:37Z</time>
      </trkpt>
      <trkpt lat="44.4916" lon="1.41712">
        <ele>244.6</ele>
        <time>2025-05-29T09:52:38Z</time>
      </trkpt>
      <trkpt lat="44.49161" lon="1.41715">
        <ele>244.8</ele>
        <time>2025-05-29T09:52:39Z</time>
      </trkpt>
      <trkpt lat="44.49163" lon="1.41716">
        <ele>245</ele>
        <time>2025-05-29T09:52:40Z</time>
      </trkpt>
      <trkpt lat="44.49163" lon="1.41718">
        <ele>245.2</ele>
        <time>2025-05-29T09:52:41Z</time>
      </trkpt>
      <trkpt lat="44.49164" lon="1.4172">
        <ele>245.2</ele>
        <time>2025-05-29T09:52:42Z</time>
      </trkpt>
      <trkpt lat="44.49165" lon="1.41722">
        <ele>245.6</ele>
        <time>2025-05-29T09:52:43Z</time>
      </trkpt>
      <trkpt lat="44.49166" lon="1.41723">
        <ele>245.8</ele>
        <time>2025-05-29T09:52:44Z</time>
      </trkpt>
      <trkpt lat="44.49166" lon="1.41724">
        <ele>246.2</ele>
        <time>2025-05-29T09:52:45Z</time>
      </trkpt>
      <trkpt lat="44.49167" lon="1.41726">
        <ele>246.4</ele>
        <time>2025-05-29T09:52:46Z</time>
      </trkpt>
      <trkpt lat="44.49167" lon="1.41727">
        <ele>246.6</ele>
        <time>2025-05-29T09:52:47Z</time>
      </trkpt>
      <trkpt lat="44.49168" lon="1.41729">
        <ele>246.6</ele>
        <time>2025-05-29T09:52:48Z</time>
      </trkpt>
      <trkpt lat="44.49168" lon="1.4173">
        <ele>246.8</ele>
        <time>2025-05-29T09:52:49Z</time>
      </trkpt>
      <trkpt lat="44.49168" lon="1.4173">
        <ele>247</ele>
        <time>2025-05-29T09:52:50Z</time>
      </trkpt>
      <trkpt lat="44.49168" lon="1.4173">
        <ele>247.2</ele>
        <time>2025-05-29T09:52:51Z</time>
      </trkpt>
      <trkpt lat="44.49171" lon="1.41742">
        <ele>248.2</ele>
        <time>2025-05-29T09:53:11Z</time>
      </trkpt>
      <trkpt lat="44.49172" lon="1.41743">
        <ele>248.4</ele>
        <time>2025-05-29T09:53:12Z</time>
      </trkpt>
      <trkpt lat="44.49173" lon="1.41744">
        <ele>248.4</ele>
        <time>2025-05-29T09:53:13Z</time>
      </trkpt>
      <trkpt lat="44.49175" lon="1.41745">
        <ele>248.4</ele>
        <time>2025-05-29T09:53:14Z</time>
      </trkpt>
      <trkpt lat="44.49176" lon="1.41747">
        <ele>248.6</ele>
        <time>2025-05-29T09:53:15Z</time>
      </trkpt>
      <trkpt lat="44.49177" lon="1.41748">
        <ele>248.8</ele>
        <time>2025-05-29T09:53:16Z</time>
      </trkpt>
      <trkpt lat="44.49177" lon="1.41749">
        <ele>249</ele>
        <time>2025-05-29T09:53:17Z</time>
      </trkpt>
      <trkpt lat="44.49177" lon="1.4175">
        <ele>249.2</ele>
        <time>2025-05-29T09:53:18Z</time>
      </trkpt>
      <trkpt lat="44.49178" lon="1.41751">
        <ele>249.4</ele>
        <time>2025-05-29T09:53:19Z</time>
      </trkpt>
      <trkpt lat="44.49179" lon="1.41751">
        <ele>249.8</ele>
        <time>2025-05-29T09:53:20Z</time>
      </trkpt>
      <trkpt lat="44.49181" lon="1.41751">
        <ele>250</ele>
        <time>2025-05-29T09:53:21Z</time>
      </trkpt>
      <trkpt lat="44.49182" lon="1.41751">
        <ele>250</ele>
        <time>2025-05-29T09:53:22Z</time>
      </trkpt>
      <trkpt lat="44.49183" lon="1.41751">
        <ele>250.2</ele>
        <time>2025-05-29T09:53:23Z</time>
      </trkpt>
      <trkpt lat="44.49185" lon="1.41751">
        <ele>250.2</ele>
        <time>2025-05-29T09:53:24Z</time>
      </trkpt>
      <trkpt lat="44.49186" lon="1.4175">
        <ele>250.2</ele>
        <time>2025-05-29T09:53:25Z</time>
      </trkpt>
      <trkpt lat="44.49187" lon="1.4175">
        <ele>250.2</ele>
        <time>2025-05-29T09:53:26Z</time>
      </trkpt>
      <trkpt lat="44.49189" lon="1.41749">
        <ele>250.4</ele>
        <time>2025-05-29T09:53:27Z</time>
      </trkpt>
      <trkpt lat="44.49191" lon="1.41748">
        <ele>250.4</ele>
        <time>2025-05-29T09:53:28Z</time>
      </trkpt>
      <trkpt lat="44.49192" lon="1.41748">
        <ele>250.4</ele>
        <time>2025-05-29T09:53:29Z</time>
      </trkpt>
      <trkpt lat="44.49194" lon="1.41748">
        <ele>250.4</ele>
        <time>2025-05-29T09:53:30Z</time>
      </trkpt>
      <trkpt lat="44.49196" lon="1.41748">
        <ele>250.6</ele>
        <time>2025-05-29T09:53:31Z</time>
      </trkpt>
      <trkpt lat="44.49197" lon="1.41747">
        <ele>250.6</ele>
        <time>2025-05-29T09:53:32Z</time>
      </trkpt>
      <trkpt lat="44.49198" lon="1.41746">
        <ele>250.8</ele>
        <time>2025-05-29T09:53:33Z</time>
      </trkpt>
      <trkpt lat="44.492" lon="1.41746">
        <ele>250.8</ele>
        <time>2025-05-29T09:53:34Z</time>
      </trkpt>
      <trkpt lat="44.49202" lon="1.41746">
        <ele>251</ele>
        <time>2025-05-29T09:53:35Z</time>
      </trkpt>
      <trkpt lat="44.49203" lon="1.41746">
        <ele>251</ele>
        <time>2025-05-29T09:53:36Z</time>
      </trkpt>
      <trkpt lat="44.49205" lon="1.41745">
        <ele>251.2</ele>
        <time>2025-05-29T09:53:37Z</time>
      </trkpt>
      <trkpt lat="44.49206" lon="1.41745">
        <ele>251.2</ele>
        <time>2025-05-29T09:53:38Z</time>
      </trkpt>
      <trkpt lat="44.49207" lon="1.41744">
        <ele>251.4</ele>
        <time>2025-05-29T09:53:39Z</time>
      </trkpt>
      <trkpt lat="44.49209" lon="1.41743">
        <ele>251.6</ele>
        <time>2025-05-29T09:53:40Z</time>
      </trkpt>
      <trkpt lat="44.4921" lon="1.41742">
        <ele>251.6</ele>
        <time>2025-05-29T09:53:41Z</time>
      </trkpt>
      <trkpt lat="44.49211" lon="1.41741">
        <ele>251.6</ele>
        <time>2025-05-29T09:53:42Z</time>
      </trkpt>
      <trkpt lat="44.49213" lon="1.4174">
        <ele>251.8</ele>
        <time>2025-05-29T09:53:43Z</time>
      </trkpt>
      <trkpt lat="44.49214" lon="1.41739">
        <ele>251.8</ele>
        <time>2025-05-29T09:53:44Z</time>
      </trkpt>
      <trkpt lat="44.49216" lon="1.41739">
        <ele>251.8</ele>
        <time>2025-05-29T09:53:45Z</time>
      </trkpt>
      <trkpt lat="44.49218" lon="1.41738">
        <ele>252</ele>
        <time>2025-05-29T09:53:46Z</time>
      </trkpt>
      <trkpt lat="44.49219" lon="1.41738">
        <ele>252</ele>
        <time>2025-05-29T09:53:47Z</time>
      </trkpt>
      <trkpt lat="44.4922" lon="1.41738">
        <ele>252.2</ele>
        <time>2025-05-29T09:53:48Z</time>
      </trkpt>
      <trkpt lat="44.49221" lon="1.41738">
        <ele>252.4</ele>
        <time>2025-05-29T09:53:49Z</time>
      </trkpt>
      <trkpt lat="44.49221" lon="1.41738">
        <ele>252.4</ele>
        <time>2025-05-29T09:53:50Z</time>
      </trkpt>
      <trkpt lat="44.49221" lon="1.41738">
        <ele>252.6</ele>
        <time>2025-05-29T09:53:51Z</time>
      </trkpt>
      <trkpt lat="44.49224" lon="1.41735">
        <ele>252.8</ele>
        <time>2025-05-29T09:54:02Z</time>
      </trkpt>
      <trkpt lat="44.49226" lon="1.41734">
        <ele>252.6</ele>
        <time>2025-05-29T09:54:03Z</time>
      </trkpt>
      <trkpt lat="44.49228" lon="1.41733">
        <ele>252.6</ele>
        <time>2025-05-29T09:54:04Z</time>
      </trkpt>
      <trkpt lat="44.4923" lon="1.41732">
        <ele>252.4</ele>
        <time>2025-05-29T09:54:05Z</time>
      </trkpt>
      <trkpt lat="44.49231" lon="1.41731">
        <ele>252.4</ele>
        <time>2025-05-29T09:54:06Z</time>
      </trkpt>
      <trkpt lat="44.49234" lon="1.41729">
        <ele>252.4</ele>
        <time>2025-05-29T09:54:07Z</time>
      </trkpt>
      <trkpt lat="44.49236" lon="1.41728">
        <ele>252.4</ele>
        <time>2025-05-29T09:54:08Z</time>
      </trkpt>
      <trkpt lat="44.49238" lon="1.41728">
        <ele>252.4</ele>
        <time>2025-05-29T09:54:09Z</time>
      </trkpt>
      <trkpt lat="44.4924" lon="1.41727">
        <ele>252.4</ele>
        <time>2025-05-29T09:54:10Z</time>
      </trkpt>
      <trkpt lat="44.49242" lon="1.41726">
        <ele>252.4</ele>
        <time>2025-05-29T09:54:11Z</time>
      </trkpt>
      <trkpt lat="44.49244" lon="1.41725">
        <ele>252.6</ele>
        <time>2025-05-29T09:54:12Z</time>
      </trkpt>
      <trkpt lat="44.49245" lon="1.41724">
        <ele>252.6</ele>
        <time>2025-05-29T09:54:13Z</time>
      </trkpt>
      <trkpt lat="44.49247" lon="1.41723">
        <ele>252.6</ele>
        <time>2025-05-29T09:54:14Z</time>
      </trkpt>
      <trkpt lat="44.49249" lon="1.41722">
        <ele>252.6</ele>
        <time>2025-05-29T09:54:15Z</time>
      </trkpt>
      <trkpt lat="44.4925" lon="1.41722">
        <ele>252.6</ele>
        <time>2025-05-29T09:54:16Z</time>
      </trkpt>
      <trkpt lat="44.49251" lon="1.41722">
        <ele>252.8</ele>
        <time>2025-05-29T09:54:17Z</time>
      </trkpt>
      <trkpt lat="44.49253" lon="1.41723">
        <ele>253</ele>
        <time>2025-05-29T09:54:18Z</time>
      </trkpt>
      <trkpt lat="44.49254" lon="1.41723">
        <ele>253.2</ele>
        <time>2025-05-29T09:54:19Z</time>
      </trkpt>
      <trkpt lat="44.49255" lon="1.41722">
        <ele>253.4</ele>
        <time>2025-05-29T09:54:20Z</time>
      </trkpt>
      <trkpt lat="44.49257" lon="1.41722">
        <ele>253.6</ele>
        <time>2025-05-29T09:54:21Z</time>
      </trkpt>
      <trkpt lat="44.49258" lon="1.41721">
        <ele>253.8</ele>
        <time>2025-05-29T09:54:22Z</time>
      </trkpt>
      <trkpt lat="44.4926" lon="1.4172">
        <ele>254</ele>
        <time>2025-05-29T09:54:23Z</time>
      </trkpt>
      <trkpt lat="44.49261" lon="1.4172">
        <ele>254</ele>
        <time>2025-05-29T09:54:24Z</time>
      </trkpt>
      <trkpt lat="44.49263" lon="1.4172">
        <ele>254.2</ele>
        <time>2025-05-29T09:54:25Z</time>
      </trkpt>
      <trkpt lat="44.49265" lon="1.4172">
        <ele>254.2</ele>
        <time>2025-05-29T09:54:26Z</time>
      </trkpt>
      <trkpt lat="44.49266" lon="1.41719">
        <ele>254.4</ele>
        <time>2025-05-29T09:54:27Z</time>
      </trkpt>
      <trkpt lat="44.49268" lon="1.41718">
        <ele>254.6</ele>
        <time>2025-05-29T09:54:28Z</time>
      </trkpt>
      <trkpt lat="44.49269" lon="1.41717">
        <ele>254.6</ele>
        <time>2025-05-29T09:54:29Z</time>
      </trkpt>
      <trkpt lat="44.49271" lon="1.41715">
        <ele>254.6</ele>
        <time>2025-05-29T09:54:30Z</time>
      </trkpt>
      <trkpt lat="44.49273" lon="1.41713">
        <ele>254.6</ele>
        <time>2025-05-29T09:54:31Z</time>
      </trkpt>
      <trkpt lat="44.49275" lon="1.41713">
        <ele>254.4</ele>
        <time>2025-05-29T09:54:32Z</time>
      </trkpt>
      <trkpt lat="44.49277" lon="1.41712">
        <ele>254.4</ele>
        <time>2025-05-29T09:54:33Z</time>
      </trkpt>
      <trkpt lat="44.49279" lon="1.41712">
        <ele>254.6</ele>
        <time>2025-05-29T09:54:34Z</time>
      </trkpt>
      <trkpt lat="44.4928" lon="1.41712">
        <ele>254.6</ele>
        <time>2025-05-29T09:54:35Z</time>
      </trkpt>
      <trkpt lat="44.49281" lon="1.41712">
        <ele>255</ele>
        <time>2025-05-29T09:54:36Z</time>
      </trkpt>
      <trkpt lat="44.49282" lon="1.41711">
        <ele>255.2</ele>
        <time>2025-05-29T09:54:37Z</time>
      </trkpt>
      <trkpt lat="44.49284" lon="1.41711">
        <ele>255.2</ele>
        <time>2025-05-29T09:54:38Z</time>
      </trkpt>
      <trkpt lat="44.49285" lon="1.41709">
        <ele>255.4</ele>
        <time>2025-05-29T09:54:39Z</time>
      </trkpt>
      <trkpt lat="44.49287" lon="1.41708">
        <ele>255.6</ele>
        <time>2025-05-29T09:54:40Z</time>
      </trkpt>
      <trkpt lat="44.49288" lon="1.41707">
        <ele>255.6</ele>
        <time>2025-05-29T09:54:41Z</time>
      </trkpt>
      <trkpt lat="44.4929" lon="1.41706">
        <ele>255.6</ele>
        <time>2025-05-29T09:54:42Z</time>
      </trkpt>
      <trkpt lat="44.49291" lon="1.41705">
        <ele>255.4</ele>
        <time>2025-05-29T09:54:43Z</time>
      </trkpt>
      <trkpt lat="44.49293" lon="1.41704">
        <ele>255.4</ele>
        <time>2025-05-29T09:54:44Z</time>
      </trkpt>
      <trkpt lat="44.49294" lon="1.41702">
        <ele>255.4</ele>
        <time>2025-05-29T09:54:45Z</time>
      </trkpt>
      <trkpt lat="44.49297" lon="1.417">
        <ele>255.4</ele>
        <time>2025-05-29T09:54:46Z</time>
      </trkpt>
      <trkpt lat="44.49299" lon="1.41698">
        <ele>255.4</ele>
        <time>2025-05-29T09:54:47Z</time>
      </trkpt>
      <trkpt lat="44.49301" lon="1.41697">
        <ele>255.4</ele>
        <time>2025-05-29T09:54:48Z</time>
      </trkpt>
      <trkpt lat="44.49302" lon="1.41697">
        <ele>255.6</ele>
        <time>2025-05-29T09:54:49Z</time>
      </trkpt>
      <trkpt lat="44.49303" lon="1.41696">
        <ele>255.6</ele>
        <time>2025-05-29T09:54:50Z</time>
      </trkpt>
      <trkpt lat="44.49305" lon="1.41696">
        <ele>255.8</ele>
        <time>2025-05-29T09:54:51Z</time>
      </trkpt>
      <trkpt lat="44.49306" lon="1.41696">
        <ele>256</ele>
        <time>2025-05-29T09:54:52Z</time>
      </trkpt>
      <trkpt lat="44.49308" lon="1.41696">
        <ele>256.4</ele>
        <time>2025-05-29T09:54:53Z</time>
      </trkpt>
      <trkpt lat="44.49309" lon="1.41697">
        <ele>256.6</ele>
        <time>2025-05-29T09:54:54Z</time>
      </trkpt>
      <trkpt lat="44.4931" lon="1.41697">
        <ele>256.8</ele>
        <time>2025-05-29T09:54:55Z</time>
      </trkpt>
      <trkpt lat="44.49311" lon="1.41697">
        <ele>257.2</ele>
        <time>2025-05-29T09:54:56Z</time>
      </trkpt>
      <trkpt lat="44.49313" lon="1.41697">
        <ele>257.4</ele>
        <time>2025-05-29T09:54:57Z</time>
      </trkpt>
      <trkpt lat="44.49314" lon="1.41696">
        <ele>257.8</ele>
        <time>2025-05-29T09:54:58Z</time>
      </trkpt>
      <trkpt lat="44.49316" lon="1.41695">
        <ele>258</ele>
        <time>2025-05-29T09:54:59Z</time>
      </trkpt>
      <trkpt lat="44.49317" lon="1.41694">
        <ele>258</ele>
        <time>2025-05-29T09:55:00Z</time>
      </trkpt>
      <trkpt lat="44.49319" lon="1.41693">
        <ele>258.2</ele>
        <time>2025-05-29T09:55:01Z</time>
      </trkpt>
      <trkpt lat="44.4932" lon="1.41692">
        <ele>258.2</ele>
        <time>2025-05-29T09:55:02Z</time>
      </trkpt>
      <trkpt lat="44.49322" lon="1.4169">
        <ele>258.4</ele>
        <time>2025-05-29T09:55:03Z</time>
      </trkpt>
      <trkpt lat="44.49323" lon="1.4169">
        <ele>258.4</ele>
        <time>2025-05-29T09:55:04Z</time>
      </trkpt>
      <trkpt lat="44.49325" lon="1.41689">
        <ele>258.6</ele>
        <time>2025-05-29T09:55:05Z</time>
      </trkpt>
      <trkpt lat="44.49326" lon="1.41688">
        <ele>258.8</ele>
        <time>2025-05-29T09:55:06Z</time>
      </trkpt>
      <trkpt lat="44.49328" lon="1.41687">
        <ele>258.8</ele>
        <time>2025-05-29T09:55:07Z</time>
      </trkpt>
      <trkpt lat="44.49329" lon="1.41686">
        <ele>259</ele>
        <time>2025-05-29T09:55:08Z</time>
      </trkpt>
      <trkpt lat="44.49331" lon="1.41685">
        <ele>259</ele>
        <time>2025-05-29T09:55:09Z</time>
      </trkpt>
      <trkpt lat="44.49332" lon="1.41684">
        <ele>259.2</ele>
        <time>2025-05-29T09:55:10Z</time>
      </trkpt>
      <trkpt lat="44.49333" lon="1.41683">
        <ele>259.4</ele>
        <time>2025-05-29T09:55:11Z</time>
      </trkpt>
      <trkpt lat="44.49335" lon="1.41682">
        <ele>259.4</ele>
        <time>2025-05-29T09:55:12Z</time>
      </trkpt>
      <trkpt lat="44.49336" lon="1.41681">
        <ele>259.6</ele>
        <time>2025-05-29T09:55:13Z</time>
      </trkpt>
      <trkpt lat="44.49337" lon="1.4168">
        <ele>259.8</ele>
        <time>2025-05-29T09:55:14Z</time>
      </trkpt>
      <trkpt lat="44.49339" lon="1.4168">
        <ele>259.8</ele>
        <time>2025-05-29T09:55:15Z</time>
      </trkpt>
      <trkpt lat="44.4934" lon="1.41678">
        <ele>259.8</ele>
        <time>2025-05-29T09:55:16Z</time>
      </trkpt>
      <trkpt lat="44.49342" lon="1.41677">
        <ele>259.8</ele>
        <time>2025-05-29T09:55:17Z</time>
      </trkpt>
      <trkpt lat="44.49343" lon="1.41676">
        <ele>259.8</ele>
        <time>2025-05-29T09:55:18Z</time>
      </trkpt>
      <trkpt lat="44.49345" lon="1.41676">
        <ele>260</ele>
        <time>2025-05-29T09:55:19Z</time>
      </trkpt>
      <trkpt lat="44.49346" lon="1.41675">
        <ele>260</ele>
        <time>2025-05-29T09:55:20Z</time>
      </trkpt>
      <trkpt lat="44.49348" lon="1.41674">
        <ele>260.2</ele>
        <time>2025-05-29T09:55:21Z</time>
      </trkpt>
      <trkpt lat="44.49349" lon="1.41673">
        <ele>260.2</ele>
        <time>2025-05-29T09:55:22Z</time>
      </trkpt>
      <trkpt lat="44.49351" lon="1.41673">
        <ele>260.4</ele>
        <time>2025-05-29T09:55:23Z</time>
      </trkpt>
      <trkpt lat="44.49352" lon="1.41672">
        <ele>260.6</ele>
        <time>2025-05-29T09:55:24Z</time>
      </trkpt>
      <trkpt lat="44.49354" lon="1.41671">
        <ele>260.6</ele>
        <time>2025-05-29T09:55:25Z</time>
      </trkpt>
      <trkpt lat="44.49355" lon="1.4167">
        <ele>260.8</ele>
        <time>2025-05-29T09:55:26Z</time>
      </trkpt>
      <trkpt lat="44.49357" lon="1.41669">
        <ele>260.8</ele>
        <time>2025-05-29T09:55:27Z</time>
      </trkpt>
      <trkpt lat="44.49358" lon="1.41668">
        <ele>261</ele>
        <time>2025-05-29T09:55:28Z</time>
      </trkpt>
      <trkpt lat="44.4936" lon="1.41667">
        <ele>261</ele>
        <time>2025-05-29T09:55:29Z</time>
      </trkpt>
      <trkpt lat="44.49361" lon="1.41666">
        <ele>261</ele>
        <time>2025-05-29T09:55:30Z</time>
      </trkpt>
      <trkpt lat="44.49363" lon="1.41666">
        <ele>261.2</ele>
        <time>2025-05-29T09:55:31Z</time>
      </trkpt>
      <trkpt lat="44.49364" lon="1.41665">
        <ele>261.2</ele>
        <time>2025-05-29T09:55:32Z</time>
      </trkpt>
      <trkpt lat="44.49366" lon="1.41665">
        <ele>261.4</ele>
        <time>2025-05-29T09:55:33Z</time>
      </trkpt>
      <trkpt lat="44.49367" lon="1.41664">
        <ele>261.6</ele>
        <time>2025-05-29T09:55:34Z</time>
      </trkpt>
      <trkpt lat="44.49369" lon="1.41663">
        <ele>261.8</ele>
        <time>2025-05-29T09:55:35Z</time>
      </trkpt>
      <trkpt lat="44.4937" lon="1.41663">
        <ele>261.8</ele>
        <time>2025-05-29T09:55:36Z</time>
      </trkpt>
      <trkpt lat="44.49371" lon="1.41662">
        <ele>262</ele>
        <time>2025-05-29T09:55:37Z</time>
      </trkpt>
      <trkpt lat="44.49373" lon="1.41661">
        <ele>262.2</ele>
        <time>2025-05-29T09:55:38Z</time>
      </trkpt>
      <trkpt lat="44.49375" lon="1.41661">
        <ele>262.2</ele>
        <time>2025-05-29T09:55:39Z</time>
      </trkpt>
      <trkpt lat="44.49376" lon="1.4166">
        <ele>262.4</ele>
        <time>2025-05-29T09:55:40Z</time>
      </trkpt>
      <trkpt lat="44.49377" lon="1.41659">
        <ele>262.6</ele>
        <time>2025-05-29T09:55:41Z</time>
      </trkpt>
      <trkpt lat="44.49378" lon="1.41658">
        <ele>262.8</ele>
        <time>2025-05-29T09:55:42Z</time>
      </trkpt>
      <trkpt lat="44.4938" lon="1.41656">
        <ele>262.8</ele>
        <time>2025-05-29T09:55:43Z</time>
      </trkpt>
      <trkpt lat="44.49382" lon="1.41655">
        <ele>262.8</ele>
        <time>2025-05-29T09:55:44Z</time>
      </trkpt>
      <trkpt lat="44.49383" lon="1.41654">
        <ele>262.8</ele>
        <time>2025-05-29T09:55:45Z</time>
      </trkpt>
      <trkpt lat="44.49385" lon="1.41654">
        <ele>263</ele>
        <time>2025-05-29T09:55:46Z</time>
      </trkpt>
      <trkpt lat="44.49386" lon="1.41653">
        <ele>263</ele>
        <time>2025-05-29T09:55:47Z</time>
      </trkpt>
      <trkpt lat="44.49388" lon="1.41652">
        <ele>263</ele>
        <time>2025-05-29T09:55:48Z</time>
      </trkpt>
      <trkpt lat="44.49389" lon="1.41652">
        <ele>263.2</ele>
        <time>2025-05-29T09:55:49Z</time>
      </trkpt>
      <trkpt lat="44.49391" lon="1.41651">
        <ele>263.2</ele>
        <time>2025-05-29T09:55:50Z</time>
      </trkpt>
      <trkpt lat="44.49392" lon="1.4165">
        <ele>263.4</ele>
        <time>2025-05-29T09:55:51Z</time>
      </trkpt>
      <trkpt lat="44.49394" lon="1.41649">
        <ele>263.6</ele>
        <time>2025-05-29T09:55:52Z</time>
      </trkpt>
      <trkpt lat="44.49395" lon="1.41648">
        <ele>263.6</ele>
        <time>2025-05-29T09:55:53Z</time>
      </trkpt>
      <trkpt lat="44.49396" lon="1.41647">
        <ele>263.8</ele>
        <time>2025-05-29T09:55:54Z</time>
      </trkpt>
      <trkpt lat="44.49398" lon="1.41646">
        <ele>263.8</ele>
        <time>2025-05-29T09:55:55Z</time>
      </trkpt>
      <trkpt lat="44.49399" lon="1.41644">
        <ele>264</ele>
        <time>2025-05-29T09:55:56Z</time>
      </trkpt>
      <trkpt lat="44.494" lon="1.41643">
        <ele>264</ele>
        <time>2025-05-29T09:55:57Z</time>
      </trkpt>
      <trkpt lat="44.49401" lon="1.41641">
        <ele>264</ele>
        <time>2025-05-29T09:55:58Z</time>
      </trkpt>
      <trkpt lat="44.49402" lon="1.41637">
        <ele>264</ele>
        <time>2025-05-29T09:55:59Z</time>
      </trkpt>
      <trkpt lat="44.49403" lon="1.41633">
        <ele>263.8</ele>
        <time>2025-05-29T09:56:00Z</time>
      </trkpt>
      <trkpt lat="44.49405" lon="1.41629">
        <ele>263.6</ele>
        <time>2025-05-29T09:56:01Z</time>
      </trkpt>
      <trkpt lat="44.49407" lon="1.41625">
        <ele>263.2</ele>
        <time>2025-05-29T09:56:02Z</time>
      </trkpt>
      <trkpt lat="44.49411" lon="1.41622">
        <ele>262.8</ele>
        <time>2025-05-29T09:56:03Z</time>
      </trkpt>
      <trkpt lat="44.49414" lon="1.41619">
        <ele>262.4</ele>
        <time>2025-05-29T09:56:04Z</time>
      </trkpt>
      <trkpt lat="44.49417" lon="1.41617">
        <ele>262</ele>
        <time>2025-05-29T09:56:05Z</time>
      </trkpt>
      <trkpt lat="44.49419" lon="1.41615">
        <ele>261.8</ele>
        <time>2025-05-29T09:56:06Z</time>
      </trkpt>
      <trkpt lat="44.49422" lon="1.41613">
        <ele>261.6</ele>
        <time>2025-05-29T09:56:07Z</time>
      </trkpt>
      <trkpt lat="44.49424" lon="1.41613">
        <ele>261.6</ele>
        <time>2025-05-29T09:56:08Z</time>
      </trkpt>
      <trkpt lat="44.49425" lon="1.41612">
        <ele>261.8</ele>
        <time>2025-05-29T09:56:09Z</time>
      </trkpt>
      <trkpt lat="44.49427" lon="1.41611">
        <ele>262</ele>
        <time>2025-05-29T09:56:10Z</time>
      </trkpt>
      <trkpt lat="44.49428" lon="1.41612">
        <ele>262.2</ele>
        <time>2025-05-29T09:56:11Z</time>
      </trkpt>
      <trkpt lat="44.4943" lon="1.41611">
        <ele>262.6</ele>
        <time>2025-05-29T09:56:12Z</time>
      </trkpt>
      <trkpt lat="44.4943" lon="1.41611">
        <ele>262.8</ele>
        <time>2025-05-29T09:56:13Z</time>
      </trkpt>
      <trkpt lat="44.4943" lon="1.41611">
        <ele>263</ele>
        <time>2025-05-29T09:56:14Z</time>
      </trkpt>
      <trkpt lat="44.4943" lon="1.41611">
        <ele>263.4</ele>
        <time>2025-05-29T09:56:15Z</time>
      </trkpt>
      <trkpt lat="44.49431" lon="1.41613">
        <ele>265</ele>
        <time>2025-05-29T10:00:05Z</time>
      </trkpt>
      <trkpt lat="44.4943" lon="1.41617">
        <ele>265</ele>
        <time>2025-05-29T10:00:06Z</time>
      </trkpt>
      <trkpt lat="44.4943" lon="1.41619">
        <ele>265</ele>
        <time>2025-05-29T10:00:07Z</time>
      </trkpt>
      <trkpt lat="44.4943" lon="1.41621">
        <ele>265</ele>
        <time>2025-05-29T10:00:08Z</time>
      </trkpt>
      <trkpt lat="44.4943" lon="1.41623">
        <ele>265</ele>
        <time>2025-05-29T10:00:09Z</time>
      </trkpt>
      <trkpt lat="44.49431" lon="1.41625">
        <ele>265</ele>
        <time>2025-05-29T10:00:10Z</time>
      </trkpt>
      <trkpt lat="44.49431" lon="1.41627">
        <ele>265.2</ele>
        <time>2025-05-29T10:00:11Z</time>
      </trkpt>
      <trkpt lat="44.49431" lon="1.41629">
        <ele>265.4</ele>
        <time>2025-05-29T10:00:12Z</time>
      </trkpt>
      <trkpt lat="44.49432" lon="1.41631">
        <ele>265.8</ele>
        <time>2025-05-29T10:00:13Z</time>
      </trkpt>
      <trkpt lat="44.49432" lon="1.41633">
        <ele>266</ele>
        <time>2025-05-29T10:00:14Z</time>
      </trkpt>
      <trkpt lat="44.49432" lon="1.41635">
        <ele>266.2</ele>
        <time>2025-05-29T10:00:15Z</time>
      </trkpt>
      <trkpt lat="44.4943" lon="1.41637">
        <ele>266.4</ele>
        <time>2025-05-29T10:00:16Z</time>
      </trkpt>
      <trkpt lat="44.49429" lon="1.41638">
        <ele>266.6</ele>
        <time>2025-05-29T10:00:17Z</time>
      </trkpt>
      <trkpt lat="44.49428" lon="1.4164">
        <ele>266.8</ele>
        <time>2025-05-29T10:00:18Z</time>
      </trkpt>
      <trkpt lat="44.49427" lon="1.41642">
        <ele>267</ele>
        <time>2025-05-29T10:00:19Z</time>
      </trkpt>
      <trkpt lat="44.49425" lon="1.41645">
        <ele>267</ele>
        <time>2025-05-29T10:00:20Z</time>
      </trkpt>
      <trkpt lat="44.49424" lon="1.41647">
        <ele>267.2</ele>
        <time>2025-05-29T10:00:21Z</time>
      </trkpt>
      <trkpt lat="44.49423" lon="1.4165">
        <ele>267.4</ele>
        <time>2025-05-29T10:00:22Z</time>
      </trkpt>
      <trkpt lat="44.49422" lon="1.41651">
        <ele>267.6</ele>
        <time>2025-05-29T10:00:23Z</time>
      </trkpt>
      <trkpt lat="44.49421" lon="1.41653">
        <ele>267.8</ele>
        <time>2025-05-29T10:00:24Z</time>
      </trkpt>
      <trkpt lat="44.4942" lon="1.41655">
        <ele>268</ele>
        <time>2025-05-29T10:00:25Z</time>
      </trkpt>
      <trkpt lat="44.49419" lon="1.41657">
        <ele>268.4</ele>
        <time>2025-05-29T10:00:26Z</time>
      </trkpt>
      <trkpt lat="44.49417" lon="1.41658">
        <ele>268.4</ele>
        <time>2025-05-29T10:00:27Z</time>
      </trkpt>
      <trkpt lat="44.49416" lon="1.4166">
        <ele>268.6</ele>
        <time>2025-05-29T10:00:28Z</time>
      </trkpt>
      <trkpt lat="44.49414" lon="1.41662">
        <ele>268.6</ele>
        <time>2025-05-29T10:00:29Z</time>
      </trkpt>
      <trkpt lat="44.49412" lon="1.41663">
        <ele>268.6</ele>
        <time>2025-05-29T10:00:30Z</time>
      </trkpt>
      <trkpt lat="44.4941" lon="1.41664">
        <ele>268.6</ele>
        <time>2025-05-29T10:00:31Z</time>
      </trkpt>
      <trkpt lat="44.49408" lon="1.41665">
        <ele>268.6</ele>
        <time>2025-05-29T10:00:32Z</time>
      </trkpt>
      <trkpt lat="44.49405" lon="1.41666">
        <ele>268.6</ele>
        <time>2025-05-29T10:00:33Z</time>
      </trkpt>
      <trkpt lat="44.49403" lon="1.41667">
        <ele>268.6</ele>
        <time>2025-05-29T10:00:34Z</time>
      </trkpt>
      <trkpt lat="44.494" lon="1.41668">
        <ele>268.6</ele>
        <time>2025-05-29T10:00:35Z</time>
      </trkpt>
      <trkpt lat="44.49398" lon="1.41669">
        <ele>268.6</ele>
        <time>2025-05-29T10:00:36Z</time>
      </trkpt>
      <trkpt lat="44.49396" lon="1.41672">
        <ele>268.6</ele>
        <time>2025-05-29T10:00:37Z</time>
      </trkpt>
      <trkpt lat="44.49394" lon="1.41674">
        <ele>268.6</ele>
        <time>2025-05-29T10:00:38Z</time>
      </trkpt>
      <trkpt lat="44.49392" lon="1.41677">
        <ele>268.8</ele>
        <time>2025-05-29T10:00:39Z</time>
      </trkpt>
      <trkpt lat="44.49391" lon="1.41679">
        <ele>269</ele>
        <time>2025-05-29T10:00:40Z</time>
      </trkpt>
      <trkpt lat="44.4939" lon="1.41682">
        <ele>269.2</ele>
        <time>2025-05-29T10:00:41Z</time>
      </trkpt>
      <trkpt lat="44.49389" lon="1.41685">
        <ele>269.2</ele>
        <time>2025-05-29T10:00:42Z</time>
      </trkpt>
      <trkpt lat="44.49389" lon="1.41687">
        <ele>269.4</ele>
        <time>2025-05-29T10:00:43Z</time>
      </trkpt>
      <trkpt lat="44.49388" lon="1.4169">
        <ele>269.6</ele>
        <time>2025-05-29T10:00:44Z</time>
      </trkpt>
      <trkpt lat="44.49387" lon="1.41693">
        <ele>269.8</ele>
        <time>2025-05-29T10:00:45Z</time>
      </trkpt>
      <trkpt lat="44.49386" lon="1.41696">
        <ele>270</ele>
        <time>2025-05-29T10:00:46Z</time>
      </trkpt>
      <trkpt lat="44.49384" lon="1.41698">
        <ele>270.2</ele>
        <time>2025-05-29T10:00:47Z</time>
      </trkpt>
      <trkpt lat="44.49382" lon="1.417">
        <ele>270.4</ele>
        <time>2025-05-29T10:00:48Z</time>
      </trkpt>
      <trkpt lat="44.49381" lon="1.41702">
        <ele>270.4</ele>
        <time>2025-05-29T10:00:49Z</time>
      </trkpt>
      <trkpt lat="44.49378" lon="1.41704">
        <ele>270.6</ele>
        <time>2025-05-29T10:00:50Z</time>
      </trkpt>
      <trkpt lat="44.49376" lon="1.41706">
        <ele>270.6</ele>
        <time>2025-05-29T10:00:51Z</time>
      </trkpt>
      <trkpt lat="44.49374" lon="1.41707">
        <ele>270.6</ele>
        <time>2025-05-29T10:00:52Z</time>
      </trkpt>
      <trkpt lat="44.49372" lon="1.41708">
        <ele>270.6</ele>
        <time>2025-05-29T10:00:53Z</time>
      </trkpt>
      <trkpt lat="44.4937" lon="1.4171">
        <ele>270.8</ele>
        <time>2025-05-29T10:00:54Z</time>
      </trkpt>
      <trkpt lat="44.49368" lon="1.41711">
        <ele>270.8</ele>
        <time>2025-05-29T10:00:55Z</time>
      </trkpt>
      <trkpt lat="44.49366" lon="1.41713">
        <ele>271</ele>
        <time>2025-05-29T10:00:56Z</time>
      </trkpt>
      <trkpt lat="44.49364" lon="1.41715">
        <ele>271.2</ele>
        <time>2025-05-29T10:00:57Z</time>
      </trkpt>
      <trkpt lat="44.49362" lon="1.41718">
        <ele>271.4</ele>
        <time>2025-05-29T10:00:58Z</time>
      </trkpt>
      <trkpt lat="44.49361" lon="1.4172">
        <ele>271.6</ele>
        <time>2025-05-29T10:00:59Z</time>
      </trkpt>
      <trkpt lat="44.49361" lon="1.41723">
        <ele>271.8</ele>
        <time>2025-05-29T10:01:00Z</time>
      </trkpt>
      <trkpt lat="44.49361" lon="1.41725">
        <ele>272</ele>
        <time>2025-05-29T10:01:01Z</time>
      </trkpt>
      <trkpt lat="44.4936" lon="1.41728">
        <ele>272.2</ele>
        <time>2025-05-29T10:01:02Z</time>
      </trkpt>
      <trkpt lat="44.49359" lon="1.41731">
        <ele>272.4</ele>
        <time>2025-05-29T10:01:03Z</time>
      </trkpt>
      <trkpt lat="44.49358" lon="1.41733">
        <ele>272.6</ele>
        <time>2025-05-29T10:01:04Z</time>
      </trkpt>
      <trkpt lat="44.49357" lon="1.41735">
        <ele>272.8</ele>
        <time>2025-05-29T10:01:05Z</time>
      </trkpt>
      <trkpt lat="44.49356" lon="1.41737">
        <ele>273</ele>
        <time>2025-05-29T10:01:06Z</time>
      </trkpt>
      <trkpt lat="44.49355" lon="1.41739">
        <ele>273</ele>
        <time>2025-05-29T10:01:07Z</time>
      </trkpt>
      <trkpt lat="44.49353" lon="1.41741">
        <ele>273</ele>
        <time>2025-05-29T10:01:08Z</time>
      </trkpt>
      <trkpt lat="44.49352" lon="1.41743">
        <ele>273.2</ele>
        <time>2025-05-29T10:01:09Z</time>
      </trkpt>
      <trkpt lat="44.4935" lon="1.41745">
        <ele>273.2</ele>
        <time>2025-05-29T10:01:10Z</time>
      </trkpt>
      <trkpt lat="44.49348" lon="1.41746">
        <ele>273.2</ele>
        <time>2025-05-29T10:01:11Z</time>
      </trkpt>
      <trkpt lat="44.49347" lon="1.41748">
        <ele>273.2</ele>
        <time>2025-05-29T10:01:12Z</time>
      </trkpt>
      <trkpt lat="44.49346" lon="1.41751">
        <ele>273.4</ele>
        <time>2025-05-29T10:01:13Z</time>
      </trkpt>
      <trkpt lat="44.49345" lon="1.41753">
        <ele>273.6</ele>
        <time>2025-05-29T10:01:14Z</time>
      </trkpt>
      <trkpt lat="44.49344" lon="1.41755">
        <ele>273.6</ele>
        <time>2025-05-29T10:01:15Z</time>
      </trkpt>
      <trkpt lat="44.49343" lon="1.41758">
        <ele>274</ele>
        <time>2025-05-29T10:01:16Z</time>
      </trkpt>
      <trkpt lat="44.49343" lon="1.4176">
        <ele>274.2</ele>
        <time>2025-05-29T10:01:17Z</time>
      </trkpt>
      <trkpt lat="44.49342" lon="1.41763">
        <ele>274.4</ele>
        <time>2025-05-29T10:01:18Z</time>
      </trkpt>
      <trkpt lat="44.49342" lon="1.41765">
        <ele>274.6</ele>
        <time>2025-05-29T10:01:19Z</time>
      </trkpt>
      <trkpt lat="44.49342" lon="1.41767">
        <ele>274.8</ele>
        <time>2025-05-29T10:01:20Z</time>
      </trkpt>
      <trkpt lat="44.49342" lon="1.4177">
        <ele>275</ele>
        <time>2025-05-29T10:01:21Z</time>
      </trkpt>
      <trkpt lat="44.49341" lon="1.41772">
        <ele>275.2</ele>
        <time>2025-05-29T10:01:22Z</time>
      </trkpt>
      <trkpt lat="44.49341" lon="1.41775">
        <ele>275.4</ele>
        <time>2025-05-29T10:01:23Z</time>
      </trkpt>
      <trkpt lat="44.4934" lon="1.41777">
        <ele>275.4</ele>
        <time>2025-05-29T10:01:24Z</time>
      </trkpt>
      <trkpt lat="44.49339" lon="1.4178">
        <ele>275.4</ele>
        <time>2025-05-29T10:01:25Z</time>
      </trkpt>
      <trkpt lat="44.49338" lon="1.41783">
        <ele>275.6</ele>
        <time>2025-05-29T10:01:26Z</time>
      </trkpt>
      <trkpt lat="44.49337" lon="1.41785">
        <ele>275.6</ele>
        <time>2025-05-29T10:01:27Z</time>
      </trkpt>
      <trkpt lat="44.49336" lon="1.41788">
        <ele>275.8</ele>
        <time>2025-05-29T10:01:28Z</time>
      </trkpt>
      <trkpt lat="44.49336" lon="1.41791">
        <ele>275.8</ele>
        <time>2025-05-29T10:01:29Z</time>
      </trkpt>
      <trkpt lat="44.49336" lon="1.41794">
        <ele>276</ele>
        <time>2025-05-29T10:01:30Z</time>
      </trkpt>
      <trkpt lat="44.49336" lon="1.41797">
        <ele>276</ele>
        <time>2025-05-29T10:01:31Z</time>
      </trkpt>
      <trkpt lat="44.49337" lon="1.41801">
        <ele>276</ele>
        <time>2025-05-29T10:01:32Z</time>
      </trkpt>
      <trkpt lat="44.49337" lon="1.41803">
        <ele>276.2</ele>
        <time>2025-05-29T10:01:33Z</time>
      </trkpt>
      <trkpt lat="44.49338" lon="1.41806">
        <ele>276.4</ele>
        <time>2025-05-29T10:01:34Z</time>
      </trkpt>
      <trkpt lat="44.49338" lon="1.41809">
        <ele>276.6</ele>
        <time>2025-05-29T10:01:35Z</time>
      </trkpt>
      <trkpt lat="44.49338" lon="1.41813">
        <ele>276.8</ele>
        <time>2025-05-29T10:01:36Z</time>
      </trkpt>
      <trkpt lat="44.49338" lon="1.41816">
        <ele>277</ele>
        <time>2025-05-29T10:01:37Z</time>
      </trkpt>
      <trkpt lat="44.49337" lon="1.41819">
        <ele>277.2</ele>
        <time>2025-05-29T10:01:38Z</time>
      </trkpt>
      <trkpt lat="44.49336" lon="1.41822">
        <ele>277.2</ele>
        <time>2025-05-29T10:01:39Z</time>
      </trkpt>
      <trkpt lat="44.49334" lon="1.41825">
        <ele>277.4</ele>
        <time>2025-05-29T10:01:40Z</time>
      </trkpt>
      <trkpt lat="44.49333" lon="1.41828">
        <ele>277.4</ele>
        <time>2025-05-29T10:01:41Z</time>
      </trkpt>
      <trkpt lat="44.49331" lon="1.41831">
        <ele>277.4</ele>
        <time>2025-05-29T10:01:42Z</time>
      </trkpt>
      <trkpt lat="44.4933" lon="1.41834">
        <ele>277.6</ele>
        <time>2025-05-29T10:01:43Z</time>
      </trkpt>
      <trkpt lat="44.49329" lon="1.41836">
        <ele>277.6</ele>
        <time>2025-05-29T10:01:44Z</time>
      </trkpt>
      <trkpt lat="44.49327" lon="1.41839">
        <ele>277.6</ele>
        <time>2025-05-29T10:01:45Z</time>
      </trkpt>
      <trkpt lat="44.49324" lon="1.41842">
        <ele>277.6</ele>
        <time>2025-05-29T10:01:46Z</time>
      </trkpt>
      <trkpt lat="44.49322" lon="1.41846">
        <ele>277.6</ele>
        <time>2025-05-29T10:01:47Z</time>
      </trkpt>
      <trkpt lat="44.4932" lon="1.41849">
        <ele>277.6</ele>
        <time>2025-05-29T10:01:48Z</time>
      </trkpt>
      <trkpt lat="44.49318" lon="1.41853">
        <ele>277.4</ele>
        <time>2025-05-29T10:01:49Z</time>
      </trkpt>
      <trkpt lat="44.49316" lon="1.41857">
        <ele>277.4</ele>
        <time>2025-05-29T10:01:50Z</time>
      </trkpt>
      <trkpt lat="44.49314" lon="1.41861">
        <ele>277.4</ele>
        <time>2025-05-29T10:01:51Z</time>
      </trkpt>
      <trkpt lat="44.49311" lon="1.41864">
        <ele>277.2</ele>
        <time>2025-05-29T10:01:52Z</time>
      </trkpt>
      <trkpt lat="44.49308" lon="1.41868">
        <ele>277.2</ele>
        <time>2025-05-29T10:01:53Z</time>
      </trkpt>
      <trkpt lat="44.49306" lon="1.41872">
        <ele>277</ele>
        <time>2025-05-29T10:01:54Z</time>
      </trkpt>
      <trkpt lat="44.49302" lon="1.41877">
        <ele>276.8</ele>
        <time>2025-05-29T10:01:55Z</time>
      </trkpt>
      <trkpt lat="44.49299" lon="1.41882">
        <ele>276.6</ele>
        <time>2025-05-29T10:01:56Z</time>
      </trkpt>
      <trkpt lat="44.49295" lon="1.41888">
        <ele>276.2</ele>
        <time>2025-05-29T10:01:57Z</time>
      </trkpt>
      <trkpt lat="44.49291" lon="1.41893">
        <ele>275.8</ele>
        <time>2025-05-29T10:01:58Z</time>
      </trkpt>
      <trkpt lat="44.49288" lon="1.41899">
        <ele>275.6</ele>
        <time>2025-05-29T10:01:59Z</time>
      </trkpt>
      <trkpt lat="44.49284" lon="1.41905">
        <ele>275</ele>
        <time>2025-05-29T10:02:00Z</time>
      </trkpt>
      <trkpt lat="44.49282" lon="1.41907">
        <ele>276.3</ele>
      </trkpt>
      <trkpt lat="44.49282" lon="1.41908">
        <ele>276.2</ele>
      </trkpt>
      <trkpt lat="44.49283" lon="1.4191">
        <ele>275</ele>
        <time>2025-05-29T10:03:00Z</time>
      </trkpt>
      <trkpt lat="44.49284" lon="1.41911">
        <ele>275.2</ele>
        <time>2025-05-29T10:03:01Z</time>
      </trkpt>
      <trkpt lat="44.49285" lon="1.41913">
        <ele>275.2</ele>
        <time>2025-05-29T10:03:02Z</time>
      </trkpt>
      <trkpt lat="44.49286" lon="1.41917">
        <ele>275.4</ele>
        <time>2025-05-29T10:03:03Z</time>
      </trkpt>
      <trkpt lat="44.49287" lon="1.4192">
        <ele>275.4</ele>
        <time>2025-05-29T10:03:04Z</time>
      </trkpt>
      <trkpt lat="44.49289" lon="1.41923">
        <ele>275.2</ele>
        <time>2025-05-29T10:03:05Z</time>
      </trkpt>
      <trkpt lat="44.49292" lon="1.41925">
        <ele>275</ele>
        <time>2025-05-29T10:03:06Z</time>
      </trkpt>
      <trkpt lat="44.49297" lon="1.41926">
        <ele>274.6</ele>
        <time>2025-05-29T10:03:07Z</time>
      </trkpt>
      <trkpt lat="44.49302" lon="1.41926">
        <ele>273.8</ele>
        <time>2025-05-29T10:03:08Z</time>
      </trkpt>
      <trkpt lat="44.49307" lon="1.41925">
        <ele>273.4</ele>
        <time>2025-05-29T10:03:09Z</time>
      </trkpt>
      <trkpt lat="44.49312" lon="1.41925">
        <ele>272.6</ele>
        <time>2025-05-29T10:03:10Z</time>
      </trkpt>
      <trkpt lat="44.49317" lon="1.41925">
        <ele>272</ele>
        <time>2025-05-29T10:03:11Z</time>
      </trkpt>
      <trkpt lat="44.49322" lon="1.41927">
        <ele>271.4</ele>
        <time>2025-05-29T10:03:12Z</time>
      </trkpt>
      <trkpt lat="44.49328" lon="1.41929">
        <ele>270.6</ele>
        <time>2025-05-29T10:03:13Z</time>
      </trkpt>
      <trkpt lat="44.49333" lon="1.41932">
        <ele>269.6</ele>
        <time>2025-05-29T10:03:14Z</time>
      </trkpt>
      <trkpt lat="44.49339" lon="1.41934">
        <ele>268.6</ele>
        <time>2025-05-29T10:03:15Z</time>
      </trkpt>
      <trkpt lat="44.49345" lon="1.41935">
        <ele>267.6</ele>
        <time>2025-05-29T10:03:16Z</time>
      </trkpt>
      <trkpt lat="44.49352" lon="1.41937">
        <ele>266.6</ele>
        <time>2025-05-29T10:03:17Z</time>
      </trkpt>
      <trkpt lat="44.49358" lon="1.41939">
        <ele>265.2</ele>
        <time>2025-05-29T10:03:18Z</time>
      </trkpt>
      <trkpt lat="44.49363" lon="1.41942">
        <ele>264.2</ele>
        <time>2025-05-29T10:03:19Z</time>
      </trkpt>
      <trkpt lat="44.49367" lon="1.41944">
        <ele>263.2</ele>
        <time>2025-05-29T10:03:20Z</time>
      </trkpt>
      <trkpt lat="44.49372" lon="1.41946">
        <ele>262.6</ele>
        <time>2025-05-29T10:03:21Z</time>
      </trkpt>
      <trkpt lat="44.49377" lon="1.41949">
        <ele>262</ele>
        <time>2025-05-29T10:03:22Z</time>
      </trkpt>
      <trkpt lat="44.49382" lon="1.41953">
        <ele>261.4</ele>
        <time>2025-05-29T10:03:23Z</time>
      </trkpt>
      <trkpt lat="44.49387" lon="1.41957">
        <ele>260.6</ele>
        <time>2025-05-29T10:03:24Z</time>
      </trkpt>
      <trkpt lat="44.49393" lon="1.41962">
        <ele>260</ele>
        <time>2025-05-29T10:03:25Z</time>
      </trkpt>
      <trkpt lat="44.49398" lon="1.41966">
        <ele>259.4</ele>
        <time>2025-05-29T10:03:26Z</time>
      </trkpt>
      <trkpt lat="44.49404" lon="1.41971">
        <ele>258.6</ele>
        <time>2025-05-29T10:03:27Z</time>
      </trkpt>
      <trkpt lat="44.4941" lon="1.41975">
        <ele>257.6</ele>
        <time>2025-05-29T10:03:28Z</time>
      </trkpt>
      <trkpt lat="44.49415" lon="1.4198">
        <ele>257</ele>
        <time>2025-05-29T10:03:29Z</time>
      </trkpt>
      <trkpt lat="44.4942" lon="1.41984">
        <ele>256.6</ele>
        <time>2025-05-29T10:03:30Z</time>
      </trkpt>
      <trkpt lat="44.49425" lon="1.41989">
        <ele>256.6</ele>
        <time>2025-05-29T10:03:31Z</time>
      </trkpt>
      <trkpt lat="44.49428" lon="1.41995">
        <ele>256.4</ele>
        <time>2025-05-29T10:03:32Z</time>
      </trkpt>
      <trkpt lat="44.49431" lon="1.42">
        <ele>256.4</ele>
        <time>2025-05-29T10:03:33Z</time>
      </trkpt>
      <trkpt lat="44.49433" lon="1.42006">
        <ele>256.4</ele>
        <time>2025-05-29T10:03:34Z</time>
      </trkpt>
      <trkpt lat="44.49435" lon="1.42012">
        <ele>256.4</ele>
        <time>2025-05-29T10:03:35Z</time>
      </trkpt>
      <trkpt lat="44.49437" lon="1.42018">
        <ele>256.6</ele>
        <time>2025-05-29T10:03:36Z</time>
      </trkpt>
      <trkpt lat="44.49438" lon="1.42023">
        <ele>256.6</ele>
        <time>2025-05-29T10:03:37Z</time>
      </trkpt>
      <trkpt lat="44.49439" lon="1.42027">
        <ele>256.8</ele>
        <time>2025-05-29T10:03:38Z</time>
      </trkpt>
      <trkpt lat="44.4944" lon="1.42031">
        <ele>257</ele>
        <time>2025-05-29T10:03:39Z</time>
      </trkpt>
      <trkpt lat="44.49441" lon="1.42035">
        <ele>257.2</ele>
        <time>2025-05-29T10:03:40Z</time>
      </trkpt>
      <trkpt lat="44.49442" lon="1.42039">
        <ele>257.4</ele>
        <time>2025-05-29T10:03:41Z</time>
      </trkpt>
      <trkpt lat="44.49444" lon="1.42043">
        <ele>257.6</ele>
        <time>2025-05-29T10:03:42Z</time>
      </trkpt>
      <trkpt lat="44.49445" lon="1.42047">
        <ele>257.8</ele>
        <time>2025-05-29T10:03:43Z</time>
      </trkpt>
      <trkpt lat="44.49446" lon="1.42052">
        <ele>257.8</ele>
        <time>2025-05-29T10:03:44Z</time>
      </trkpt>
      <trkpt lat="44.49447" lon="1.42057">
        <ele>257.6</ele>
        <time>2025-05-29T10:03:45Z</time>
      </trkpt>
      <trkpt lat="44.49449" lon="1.42063">
        <ele>257.6</ele>
        <time>2025-05-29T10:03:46Z</time>
      </trkpt>
      <trkpt lat="44.49451" lon="1.42069">
        <ele>257.2</ele>
        <time>2025-05-29T10:03:47Z</time>
      </trkpt>
      <trkpt lat="44.49452" lon="1.42076">
        <ele>256.8</ele>
        <time>2025-05-29T10:03:48Z</time>
      </trkpt>
      <trkpt lat="44.49454" lon="1.42083">
        <ele>256.6</ele>
        <time>2025-05-29T10:03:49Z</time>
      </trkpt>
      <trkpt lat="44.49455" lon="1.4209">
        <ele>255.8</ele>
        <time>2025-05-29T10:03:50Z</time>
      </trkpt>
      <trkpt lat="44.49458" lon="1.42098">
        <ele>255.4</ele>
        <time>2025-05-29T10:03:51Z</time>
      </trkpt>
      <trkpt lat="44.4946" lon="1.42106">
        <ele>254.8</ele>
        <time>2025-05-29T10:03:52Z</time>
      </trkpt>
      <trkpt lat="44.49461" lon="1.42115">
        <ele>254.4</ele>
        <time>2025-05-29T10:03:53Z</time>
      </trkpt>
      <trkpt lat="44.49463" lon="1.42124">
        <ele>253.8</ele>
        <time>2025-05-29T10:03:54Z</time>
      </trkpt>
      <trkpt lat="44.49465" lon="1.42133">
        <ele>253</ele>
        <time>2025-05-29T10:03:55Z</time>
      </trkpt>
      <trkpt lat="44.49467" lon="1.42142">
        <ele>252.4</ele>
        <time>2025-05-29T10:03:56Z</time>
      </trkpt>
      <trkpt lat="44.49468" lon="1.42151">
        <ele>252</ele>
        <time>2025-05-29T10:03:57Z</time>
      </trkpt>
      <trkpt lat="44.4947" lon="1.42159">
        <ele>251.8</ele>
        <time>2025-05-29T10:03:58Z</time>
      </trkpt>
      <trkpt lat="44.49472" lon="1.42166">
        <ele>251.8</ele>
        <time>2025-05-29T10:03:59Z</time>
      </trkpt>
      <trkpt lat="44.49473" lon="1.42173">
        <ele>251.8</ele>
        <time>2025-05-29T10:04:00Z</time>
      </trkpt>
      <trkpt lat="44.49476" lon="1.42179">
        <ele>252</ele>
        <time>2025-05-29T10:04:01Z</time>
      </trkpt>
      <trkpt lat="44.49477" lon="1.42185">
        <ele>252.2</ele>
        <time>2025-05-29T10:04:02Z</time>
      </trkpt>
      <trkpt lat="44.49478" lon="1.42189">
        <ele>252.4</ele>
        <time>2025-05-29T10:04:03Z</time>
      </trkpt>
      <trkpt lat="44.49478" lon="1.42192">
        <ele>252.6</ele>
        <time>2025-05-29T10:04:04Z</time>
      </trkpt>
      <trkpt lat="44.49478" lon="1.42193">
        <ele>253</ele>
        <time>2025-05-29T10:04:05Z</time>
      </trkpt>
      <trkpt lat="44.49479" lon="1.42195">
        <ele>253.6</ele>
        <time>2025-05-29T10:04:06Z</time>
      </trkpt>
      <trkpt lat="44.49479" lon="1.42197">
        <ele>254</ele>
        <time>2025-05-29T10:04:07Z</time>
      </trkpt>
      <trkpt lat="44.4948" lon="1.42199">
        <ele>254.4</ele>
        <time>2025-05-29T10:04:08Z</time>
      </trkpt>
      <trkpt lat="44.49481" lon="1.422">
        <ele>254.6</ele>
        <time>2025-05-29T10:04:09Z</time>
      </trkpt>
      <trkpt lat="44.49482" lon="1.42202">
        <ele>254.8</ele>
        <time>2025-05-29T10:04:10Z</time>
      </trkpt>
      <trkpt lat="44.49483" lon="1.42204">
        <ele>254.8</ele>
        <time>2025-05-29T10:04:11Z</time>
      </trkpt>
      <trkpt lat="44.49484" lon="1.42206">
        <ele>255</ele>
        <time>2025-05-29T10:04:12Z</time>
      </trkpt>
      <trkpt lat="44.49484" lon="1.42208">
        <ele>255</ele>
        <time>2025-05-29T10:04:13Z</time>
      </trkpt>
      <trkpt lat="44.49485" lon="1.42209">
        <ele>255.2</ele>
        <time>2025-05-29T10:04:14Z</time>
      </trkpt>
      <trkpt lat="44.49485" lon="1.42211">
        <ele>255.6</ele>
        <time>2025-05-29T10:04:15Z</time>
      </trkpt>
      <trkpt lat="44.49486" lon="1.42213">
        <ele>256</ele>
        <time>2025-05-29T10:04:16Z</time>
      </trkpt>
      <trkpt lat="44.49487" lon="1.42215">
        <ele>256.2</ele>
        <time>2025-05-29T10:04:17Z</time>
      </trkpt>
      <trkpt lat="44.49487" lon="1.42216">
        <ele>256.4</ele>
        <time>2025-05-29T10:04:18Z</time>
      </trkpt>
      <trkpt lat="44.49488" lon="1.42218">
        <ele>256.8</ele>
        <time>2025-05-29T10:04:19Z</time>
      </trkpt>
      <trkpt lat="44.49489" lon="1.4222">
        <ele>257</ele>
        <time>2025-05-29T10:04:20Z</time>
      </trkpt>
      <trkpt lat="44.4949" lon="1.42221">
        <ele>257.4</ele>
        <time>2025-05-29T10:04:21Z</time>
      </trkpt>
      <trkpt lat="44.4949" lon="1.42223">
        <ele>257.6</ele>
        <time>2025-05-29T10:04:22Z</time>
      </trkpt>
      <trkpt lat="44.49491" lon="1.42225">
        <ele>257.8</ele>
        <time>2025-05-29T10:04:23Z</time>
      </trkpt>
      <trkpt lat="44.49491" lon="1.42226">
        <ele>258</ele>
        <time>2025-05-29T10:04:24Z</time>
      </trkpt>
      <trkpt lat="44.49492" lon="1.42228">
        <ele>258.4</ele>
        <time>2025-05-29T10:04:25Z</time>
      </trkpt>
      <trkpt lat="44.49493" lon="1.42229">
        <ele>258.8</ele>
        <time>2025-05-29T10:04:26Z</time>
      </trkpt>
      <trkpt lat="44.49493" lon="1.4223">
        <ele>259</ele>
        <time>2025-05-29T10:04:27Z</time>
      </trkpt>
      <trkpt lat="44.49494" lon="1.42232">
        <ele>259.4</ele>
        <time>2025-05-29T10:04:28Z</time>
      </trkpt>
      <trkpt lat="44.49494" lon="1.42233">
        <ele>259.6</ele>
        <time>2025-05-29T10:04:29Z</time>
      </trkpt>
      <trkpt lat="44.49495" lon="1.42234">
        <ele>259.8</ele>
        <time>2025-05-29T10:04:30Z</time>
      </trkpt>
      <trkpt lat="44.49496" lon="1.42234">
        <ele>260</ele>
        <time>2025-05-29T10:04:31Z</time>
      </trkpt>
      <trkpt lat="44.49498" lon="1.42233">
        <ele>260.2</ele>
        <time>2025-05-29T10:04:32Z</time>
      </trkpt>
      <trkpt lat="44.49499" lon="1.42233">
        <ele>260.2</ele>
        <time>2025-05-29T10:04:33Z</time>
      </trkpt>
      <trkpt lat="44.49501" lon="1.42232">
        <ele>260.2</ele>
        <time>2025-05-29T10:04:34Z</time>
      </trkpt>
      <trkpt lat="44.49502" lon="1.42232">
        <ele>260.2</ele>
        <time>2025-05-29T10:04:35Z</time>
      </trkpt>
      <trkpt lat="44.49504" lon="1.42233">
        <ele>260.2</ele>
        <time>2025-05-29T10:04:36Z</time>
      </trkpt>
      <trkpt lat="44.49506" lon="1.42233">
        <ele>260.2</ele>
        <time>2025-05-29T10:04:37Z</time>
      </trkpt>
      <trkpt lat="44.49507" lon="1.42233">
        <ele>260</ele>
        <time>2025-05-29T10:04:38Z</time>
      </trkpt>
      <trkpt lat="44.49509" lon="1.42232">
        <ele>260</ele>
        <time>2025-05-29T10:04:39Z</time>
      </trkpt>
      <trkpt lat="44.4951" lon="1.42232">
        <ele>260</ele>
        <time>2025-05-29T10:04:40Z</time>
      </trkpt>
      <trkpt lat="44.49511" lon="1.42232">
        <ele>260</ele>
        <time>2025-05-29T10:04:41Z</time>
      </trkpt>
      <trkpt lat="44.49513" lon="1.42232">
        <ele>260.2</ele>
        <time>2025-05-29T10:04:42Z</time>
      </trkpt>
      <trkpt lat="44.49515" lon="1.42233">
        <ele>260.2</ele>
        <time>2025-05-29T10:04:43Z</time>
      </trkpt>
      <trkpt lat="44.49517" lon="1.42232">
        <ele>260.4</ele>
        <time>2025-05-29T10:04:44Z</time>
      </trkpt>
      <trkpt lat="44.49518" lon="1.42232">
        <ele>260.4</ele>
        <time>2025-05-29T10:04:45Z</time>
      </trkpt>
      <trkpt lat="44.4952" lon="1.42231">
        <ele>260.4</ele>
        <time>2025-05-29T10:04:46Z</time>
      </trkpt>
      <trkpt lat="44.49522" lon="1.42231">
        <ele>260.4</ele>
        <time>2025-05-29T10:04:47Z</time>
      </trkpt>
      <trkpt lat="44.49524" lon="1.4223">
        <ele>260.4</ele>
        <time>2025-05-29T10:04:48Z</time>
      </trkpt>
      <trkpt lat="44.49526" lon="1.4223">
        <ele>260.4</ele>
        <time>2025-05-29T10:04:49Z</time>
      </trkpt>
      <trkpt lat="44.49527" lon="1.42229">
        <ele>260.4</ele>
        <time>2025-05-29T10:04:50Z</time>
      </trkpt>
      <trkpt lat="44.49529" lon="1.4223">
        <ele>260.4</ele>
        <time>2025-05-29T10:04:51Z</time>
      </trkpt>
      <trkpt lat="44.4953" lon="1.42231">
        <ele>260.4</ele>
        <time>2025-05-29T10:04:52Z</time>
      </trkpt>
      <trkpt lat="44.49532" lon="1.42232">
        <ele>260.6</ele>
        <time>2025-05-29T10:04:53Z</time>
      </trkpt>
      <trkpt lat="44.49533" lon="1.42232">
        <ele>260.8</ele>
        <time>2025-05-29T10:04:54Z</time>
      </trkpt>
      <trkpt lat="44.49535" lon="1.42232">
        <ele>260.8</ele>
        <time>2025-05-29T10:04:55Z</time>
      </trkpt>
      <trkpt lat="44.49536" lon="1.42231">
        <ele>261</ele>
        <time>2025-05-29T10:04:56Z</time>
      </trkpt>
      <trkpt lat="44.49538" lon="1.4223">
        <ele>261.2</ele>
        <time>2025-05-29T10:04:57Z</time>
      </trkpt>
      <trkpt lat="44.49539" lon="1.4223">
        <ele>261.2</ele>
        <time>2025-05-29T10:04:58Z</time>
      </trkpt>
      <trkpt lat="44.49541" lon="1.4223">
        <ele>261.4</ele>
        <time>2025-05-29T10:04:59Z</time>
      </trkpt>
      <trkpt lat="44.49542" lon="1.42231">
        <ele>261.6</ele>
        <time>2025-05-29T10:05:00Z</time>
      </trkpt>
      <trkpt lat="44.49543" lon="1.42231">
        <ele>261.6</ele>
        <time>2025-05-29T10:05:01Z</time>
      </trkpt>
      <trkpt lat="44.49545" lon="1.42232">
        <ele>261.8</ele>
        <time>2025-05-29T10:05:02Z</time>
      </trkpt>
      <trkpt lat="44.49546" lon="1.42233">
        <ele>262.2</ele>
        <time>2025-05-29T10:05:03Z</time>
      </trkpt>
      <trkpt lat="44.49547" lon="1.42234">
        <ele>262.6</ele>
        <time>2025-05-29T10:05:04Z</time>
      </trkpt>
      <trkpt lat="44.49548" lon="1.42235">
        <ele>262.8</ele>
        <time>2025-05-29T10:05:05Z</time>
      </trkpt>
      <trkpt lat="44.4955" lon="1.42235">
        <ele>263.2</ele>
        <time>2025-05-29T10:05:06Z</time>
      </trkpt>
      <trkpt lat="44.49551" lon="1.42235">
        <ele>263.4</ele>
        <time>2025-05-29T10:05:07Z</time>
      </trkpt>
      <trkpt lat="44.49552" lon="1.42236">
        <ele>263.8</ele>
        <time>2025-05-29T10:05:08Z</time>
      </trkpt>
      <trkpt lat="44.49553" lon="1.42237">
        <ele>264.2</ele>
        <time>2025-05-29T10:05:09Z</time>
      </trkpt>
      <trkpt lat="44.49554" lon="1.42238">
        <ele>264.4</ele>
        <time>2025-05-29T10:05:10Z</time>
      </trkpt>
      <trkpt lat="44.49556" lon="1.42238">
        <ele>264.6</ele>
        <time>2025-05-29T10:05:11Z</time>
      </trkpt>
      <trkpt lat="44.49557" lon="1.42238">
        <ele>264.8</ele>
        <time>2025-05-29T10:05:12Z</time>
      </trkpt>
      <trkpt lat="44.49558" lon="1.42237">
        <ele>265</ele>
        <time>2025-05-29T10:05:13Z</time>
      </trkpt>
      <trkpt lat="44.4956" lon="1.42236">
        <ele>265</ele>
        <time>2025-05-29T10:05:14Z</time>
      </trkpt>
      <trkpt lat="44.49562" lon="1.42235">
        <ele>265</ele>
        <time>2025-05-29T10:05:15Z</time>
      </trkpt>
      <trkpt lat="44.49563" lon="1.42235">
        <ele>265.2</ele>
        <time>2025-05-29T10:05:16Z</time>
      </trkpt>
      <trkpt lat="44.49564" lon="1.42234">
        <ele>265.2</ele>
        <time>2025-05-29T10:05:17Z</time>
      </trkpt>
      <trkpt lat="44.49566" lon="1.42234">
        <ele>265.4</ele>
        <time>2025-05-29T10:05:18Z</time>
      </trkpt>
      <trkpt lat="44.49568" lon="1.42234">
        <ele>265.8</ele>
        <time>2025-05-29T10:05:19Z</time>
      </trkpt>
      <trkpt lat="44.49569" lon="1.42235">
        <ele>265.8</ele>
        <time>2025-05-29T10:05:20Z</time>
      </trkpt>
      <trkpt lat="44.4957" lon="1.42235">
        <ele>266.2</ele>
        <time>2025-05-29T10:05:21Z</time>
      </trkpt>
      <trkpt lat="44.49571" lon="1.42233">
        <ele>266.2</ele>
        <time>2025-05-29T10:05:22Z</time>
      </trkpt>
      <trkpt lat="44.49573" lon="1.42232">
        <ele>266.4</ele>
        <time>2025-05-29T10:05:23Z</time>
      </trkpt>
      <trkpt lat="44.49574" lon="1.42231">
        <ele>266.4</ele>
        <time>2025-05-29T10:05:24Z</time>
      </trkpt>
      <trkpt lat="44.49575" lon="1.42231">
        <ele>266.6</ele>
        <time>2025-05-29T10:05:25Z</time>
      </trkpt>
      <trkpt lat="44.49576" lon="1.42231">
        <ele>266.6</ele>
        <time>2025-05-29T10:05:26Z</time>
      </trkpt>
      <trkpt lat="44.49578" lon="1.4223">
        <ele>266.8</ele>
        <time>2025-05-29T10:05:27Z</time>
      </trkpt>
      <trkpt lat="44.49579" lon="1.4223">
        <ele>267</ele>
        <time>2025-05-29T10:05:28Z</time>
      </trkpt>
      <trkpt lat="44.4958" lon="1.4223">
        <ele>267.2</ele>
        <time>2025-05-29T10:05:29Z</time>
      </trkpt>
      <trkpt lat="44.49582" lon="1.4223">
        <ele>267.4</ele>
        <time>2025-05-29T10:05:30Z</time>
      </trkpt>
      <trkpt lat="44.49583" lon="1.4223">
        <ele>267.6</ele>
        <time>2025-05-29T10:05:31Z</time>
      </trkpt>
      <trkpt lat="44.49584" lon="1.42231">
        <ele>267.8</ele>
        <time>2025-05-29T10:05:32Z</time>
      </trkpt>
      <trkpt lat="44.49585" lon="1.42231">
        <ele>268</ele>
        <time>2025-05-29T10:05:33Z</time>
      </trkpt>
      <trkpt lat="44.49587" lon="1.42231">
        <ele>268.2</ele>
        <time>2025-05-29T10:05:34Z</time>
      </trkpt>
      <trkpt lat="44.49588" lon="1.4223">
        <ele>268.4</ele>
        <time>2025-05-29T10:05:35Z</time>
      </trkpt>
      <trkpt lat="44.49589" lon="1.4223">
        <ele>268.6</ele>
        <time>2025-05-29T10:05:36Z</time>
      </trkpt>
      <trkpt lat="44.4959" lon="1.42229">
        <ele>268.8</ele>
        <time>2025-05-29T10:05:37Z</time>
      </trkpt>
      <trkpt lat="44.49591" lon="1.42229">
        <ele>268.8</ele>
        <time>2025-05-29T10:05:38Z</time>
      </trkpt>
      <trkpt lat="44.49592" lon="1.42229">
        <ele>269</ele>
        <time>2025-05-29T10:05:39Z</time>
      </trkpt>
      <trkpt lat="44.49593" lon="1.42229">
        <ele>269</ele>
        <time>2025-05-29T10:05:40Z</time>
      </trkpt>
      <trkpt lat="44.49595" lon="1.42229">
        <ele>269.2</ele>
        <time>2025-05-29T10:05:41Z</time>
      </trkpt>
      <trkpt lat="44.49597" lon="1.42229">
        <ele>269.2</ele>
        <time>2025-05-29T10:05:42Z</time>
      </trkpt>
      <trkpt lat="44.49598" lon="1.42228">
        <ele>269.4</ele>
        <time>2025-05-29T10:05:43Z</time>
      </trkpt>
      <trkpt lat="44.49599" lon="1.42227">
        <ele>269.4</ele>
        <time>2025-05-29T10:05:44Z</time>
      </trkpt>
      <trkpt lat="44.49601" lon="1.42226">
        <ele>269.4</ele>
        <time>2025-05-29T10:05:45Z</time>
      </trkpt>
      <trkpt lat="44.49603" lon="1.42226">
        <ele>269.4</ele>
        <time>2025-05-29T10:05:46Z</time>
      </trkpt>
      <trkpt lat="44.49605" lon="1.42225">
        <ele>269.4</ele>
        <time>2025-05-29T10:05:47Z</time>
      </trkpt>
      <trkpt lat="44.49607" lon="1.42225">
        <ele>269.4</ele>
        <time>2025-05-29T10:05:48Z</time>
      </trkpt>
      <trkpt lat="44.49608" lon="1.42224">
        <ele>269.4</ele>
        <time>2025-05-29T10:05:49Z</time>
      </trkpt>
      <trkpt lat="44.49609" lon="1.42223">
        <ele>269.6</ele>
        <time>2025-05-29T10:05:50Z</time>
      </trkpt>
      <trkpt lat="44.49611" lon="1.42224">
        <ele>269.6</ele>
        <time>2025-05-29T10:05:51Z</time>
      </trkpt>
      <trkpt lat="44.49612" lon="1.42224">
        <ele>269.6</ele>
        <time>2025-05-29T10:05:52Z</time>
      </trkpt>
      <trkpt lat="44.49614" lon="1.42224">
        <ele>269.8</ele>
        <time>2025-05-29T10:05:53Z</time>
      </trkpt>
      <trkpt lat="44.49615" lon="1.42223">
        <ele>269.8</ele>
        <time>2025-05-29T10:05:54Z</time>
      </trkpt>
      <trkpt lat="44.49617" lon="1.42223">
        <ele>270</ele>
        <time>2025-05-29T10:05:55Z</time>
      </trkpt>
      <trkpt lat="44.49618" lon="1.42223">
        <ele>270</ele>
        <time>2025-05-29T10:05:56Z</time>
      </trkpt>
      <trkpt lat="44.49619" lon="1.42224">
        <ele>270</ele>
        <time>2025-05-29T10:05:57Z</time>
      </trkpt>
      <trkpt lat="44.4962" lon="1.42225">
        <ele>270</ele>
        <time>2025-05-29T10:05:58Z</time>
      </trkpt>
      <trkpt lat="44.49621" lon="1.42226">
        <ele>270.2</ele>
        <time>2025-05-29T10:05:59Z</time>
      </trkpt>
      <trkpt lat="44.49622" lon="1.42227">
        <ele>270.4</ele>
        <time>2025-05-29T10:06:00Z</time>
      </trkpt>
      <trkpt lat="44.49624" lon="1.42227">
        <ele>270.6</ele>
        <time>2025-05-29T10:06:01Z</time>
      </trkpt>
      <trkpt lat="44.49625" lon="1.42228">
        <ele>270.8</ele>
        <time>2025-05-29T10:06:02Z</time>
      </trkpt>
      <trkpt lat="44.49625" lon="1.4223">
        <ele>271</ele>
        <time>2025-05-29T10:06:03Z</time>
      </trkpt>
      <trkpt lat="44.49626" lon="1.42231">
        <ele>271.2</ele>
        <time>2025-05-29T10:06:04Z</time>
      </trkpt>
      <trkpt lat="44.49625" lon="1.42233">
        <ele>271.4</ele>
        <time>2025-05-29T10:06:05Z</time>
      </trkpt>
      <trkpt lat="44.49624" lon="1.42234">
        <ele>271.4</ele>
        <time>2025-05-29T10:06:06Z</time>
      </trkpt>
      <trkpt lat="44.49623" lon="1.42236">
        <ele>271.4</ele>
        <time>2025-05-29T10:06:07Z</time>
      </trkpt>
      <trkpt lat="44.49622" lon="1.42237">
        <ele>271.6</ele>
        <time>2025-05-29T10:06:08Z</time>
      </trkpt>
      <trkpt lat="44.49621" lon="1.4224">
        <ele>271.6</ele>
        <time>2025-05-29T10:06:09Z</time>
      </trkpt>
      <trkpt lat="44.49621" lon="1.42242">
        <ele>271.6</ele>
        <time>2025-05-29T10:06:10Z</time>
      </trkpt>
      <trkpt lat="44.4962" lon="1.42244">
        <ele>271.8</ele>
        <time>2025-05-29T10:06:11Z</time>
      </trkpt>
      <trkpt lat="44.49619" lon="1.42246">
        <ele>272</ele>
        <time>2025-05-29T10:06:12Z</time>
      </trkpt>
      <trkpt lat="44.49618" lon="1.42248">
        <ele>272</ele>
        <time>2025-05-29T10:06:13Z</time>
      </trkpt>
      <trkpt lat="44.49617" lon="1.42251">
        <ele>272.2</ele>
        <time>2025-05-29T10:06:14Z</time>
      </trkpt>
      <trkpt lat="44.49616" lon="1.42253">
        <ele>272.4</ele>
        <time>2025-05-29T10:06:15Z</time>
      </trkpt>
      <trkpt lat="44.49616" lon="1.42255">
        <ele>272.6</ele>
        <time>2025-05-29T10:06:16Z</time>
      </trkpt>
      <trkpt lat="44.49615" lon="1.42258">
        <ele>272.8</ele>
        <time>2025-05-29T10:06:17Z</time>
      </trkpt>
      <trkpt lat="44.49614" lon="1.4226">
        <ele>273</ele>
        <time>2025-05-29T10:06:18Z</time>
      </trkpt>
      <trkpt lat="44.49613" lon="1.42263">
        <ele>273</ele>
        <time>2025-05-29T10:06:19Z</time>
      </trkpt>
      <trkpt lat="44.49613" lon="1.42265">
        <ele>273.2</ele>
        <time>2025-05-29T10:06:20Z</time>
      </trkpt>
      <trkpt lat="44.49612" lon="1.42268">
        <ele>273.2</ele>
        <time>2025-05-29T10:06:21Z</time>
      </trkpt>
      <trkpt lat="44.49611" lon="1.4227">
        <ele>273.4</ele>
        <time>2025-05-29T10:06:22Z</time>
      </trkpt>
      <trkpt lat="44.4961" lon="1.42272">
        <ele>273.4</ele>
        <time>2025-05-29T10:06:23Z</time>
      </trkpt>
      <trkpt lat="44.4961" lon="1.42275">
        <ele>273.6</ele>
        <time>2025-05-29T10:06:24Z</time>
      </trkpt>
      <trkpt lat="44.49609" lon="1.42277">
        <ele>273.8</ele>
        <time>2025-05-29T10:06:25Z</time>
      </trkpt>
      <trkpt lat="44.49609" lon="1.4228">
        <ele>273.8</ele>
        <time>2025-05-29T10:06:26Z</time>
      </trkpt>
      <trkpt lat="44.49608" lon="1.42283">
        <ele>274</ele>
        <time>2025-05-29T10:06:27Z</time>
      </trkpt>
      <trkpt lat="44.49607" lon="1.42285">
        <ele>274.2</ele>
        <time>2025-05-29T10:06:28Z</time>
      </trkpt>
      <trkpt lat="44.49606" lon="1.42288">
        <ele>274.4</ele>
        <time>2025-05-29T10:06:29Z</time>
      </trkpt>
      <trkpt lat="44.49606" lon="1.42291">
        <ele>274.4</ele>
        <time>2025-05-29T10:06:30Z</time>
      </trkpt>
      <trkpt lat="44.49605" lon="1.42294">
        <ele>274.4</ele>
        <time>2025-05-29T10:06:31Z</time>
      </trkpt>
      <trkpt lat="44.49605" lon="1.42297">
        <ele>274.4</ele>
        <time>2025-05-29T10:06:32Z</time>
      </trkpt>
      <trkpt lat="44.49604" lon="1.423">
        <ele>274.4</ele>
        <time>2025-05-29T10:06:33Z</time>
      </trkpt>
      <trkpt lat="44.49604" lon="1.42303">
        <ele>274.4</ele>
        <time>2025-05-29T10:06:34Z</time>
      </trkpt>
      <trkpt lat="44.49603" lon="1.42306">
        <ele>274.4</ele>
        <time>2025-05-29T10:06:35Z</time>
      </trkpt>
      <trkpt lat="44.49603" lon="1.4231">
        <ele>274.4</ele>
        <time>2025-05-29T10:06:36Z</time>
      </trkpt>
      <trkpt lat="44.49602" lon="1.42313">
        <ele>274.4</ele>
        <time>2025-05-29T10:06:37Z</time>
      </trkpt>
      <trkpt lat="44.49602" lon="1.42317">
        <ele>274.2</ele>
        <time>2025-05-29T10:06:38Z</time>
      </trkpt>
      <trkpt lat="44.49601" lon="1.42321">
        <ele>274.2</ele>
        <time>2025-05-29T10:06:39Z</time>
      </trkpt>
      <trkpt lat="44.496" lon="1.42325">
        <ele>274</ele>
        <time>2025-05-29T10:06:40Z</time>
      </trkpt>
      <trkpt lat="44.496" lon="1.42329">
        <ele>274</ele>
        <time>2025-05-29T10:06:41Z</time>
      </trkpt>
      <trkpt lat="44.49599" lon="1.42333">
        <ele>273.6</ele>
        <time>2025-05-29T10:06:42Z</time>
      </trkpt>
      <trkpt lat="44.49598" lon="1.42338">
        <ele>273.6</ele>
        <time>2025-05-29T10:06:43Z</time>
      </trkpt>
      <trkpt lat="44.49597" lon="1.42342">
        <ele>273.6</ele>
        <time>2025-05-29T10:06:44Z</time>
      </trkpt>
      <trkpt lat="44.49596" lon="1.42346">
        <ele>273.4</ele>
        <time>2025-05-29T10:06:45Z</time>
      </trkpt>
      <trkpt lat="44.49593" lon="1.42351">
        <ele>273.4</ele>
        <time>2025-05-29T10:06:46Z</time>
      </trkpt>
      <trkpt lat="44.49591" lon="1.42356">
        <ele>273.2</ele>
        <time>2025-05-29T10:06:47Z</time>
      </trkpt>
      <trkpt lat="44.49589" lon="1.4236">
        <ele>273.2</ele>
        <time>2025-05-29T10:06:48Z</time>
      </trkpt>
      <trkpt lat="44.49588" lon="1.42365">
        <ele>273</ele>
        <time>2025-05-29T10:06:49Z</time>
      </trkpt>
      <trkpt lat="44.49586" lon="1.4237">
        <ele>272.8</ele>
        <time>2025-05-29T10:06:50Z</time>
      </trkpt>
      <trkpt lat="44.49584" lon="1.42374">
        <ele>272.8</ele>
        <time>2025-05-29T10:06:51Z</time>
      </trkpt>
      <trkpt lat="44.49582" lon="1.4238">
        <ele>272.6</ele>
        <time>2025-05-29T10:06:52Z</time>
      </trkpt>
      <trkpt lat="44.4958" lon="1.42384">
        <ele>272.2</ele>
        <time>2025-05-29T10:06:53Z</time>
      </trkpt>
      <trkpt lat="44.49578" lon="1.42387">
        <ele>272</ele>
        <time>2025-05-29T10:06:54Z</time>
      </trkpt>
      <trkpt lat="44.49577" lon="1.42391">
        <ele>271.8</ele>
        <time>2025-05-29T10:06:55Z</time>
      </trkpt>
      <trkpt lat="44.49578" lon="1.42393">
        <ele>271.6</ele>
        <time>2025-05-29T10:06:56Z</time>
      </trkpt>
      <trkpt lat="44.49578" lon="1.42395">
        <ele>271.4</ele>
        <time>2025-05-29T10:06:57Z</time>
      </trkpt>
      <trkpt lat="44.49579" lon="1.42399">
        <ele>271.2</ele>
        <time>2025-05-29T10:06:58Z</time>
      </trkpt>
      <trkpt lat="44.4958" lon="1.42403">
        <ele>271</ele>
        <time>2025-05-29T10:06:59Z</time>
      </trkpt>
      <trkpt lat="44.49581" lon="1.42407">
        <ele>270.6</ele>
        <time>2025-05-29T10:07:00Z</time>
      </trkpt>
      <trkpt lat="44.49583" lon="1.4241">
        <ele>270.4</ele>
        <time>2025-05-29T10:07:01Z</time>
      </trkpt>
      <trkpt lat="44.49585" lon="1.42413">
        <ele>270</ele>
        <time>2025-05-29T10:07:02Z</time>
      </trkpt>
      <trkpt lat="44.49587" lon="1.42416">
        <ele>269.8</ele>
        <time>2025-05-29T10:07:03Z</time>
      </trkpt>
      <trkpt lat="44.49588" lon="1.42419">
        <ele>269.8</ele>
        <time>2025-05-29T10:07:04Z</time>
      </trkpt>
      <trkpt lat="44.4959" lon="1.42423">
        <ele>269.8</ele>
        <time>2025-05-29T10:07:05Z</time>
      </trkpt>
      <trkpt lat="44.49591" lon="1.42428">
        <ele>270</ele>
        <time>2025-05-29T10:07:06Z</time>
      </trkpt>
      <trkpt lat="44.49592" lon="1.42431">
        <ele>270</ele>
        <time>2025-05-29T10:07:07Z</time>
      </trkpt>
      <trkpt lat="44.49593" lon="1.42435">
        <ele>270</ele>
        <time>2025-05-29T10:07:08Z</time>
      </trkpt>
      <trkpt lat="44.49594" lon="1.42439">
        <ele>270</ele>
        <time>2025-05-29T10:07:09Z</time>
      </trkpt>
      <trkpt lat="44.49595" lon="1.42443">
        <ele>270</ele>
        <time>2025-05-29T10:07:10Z</time>
      </trkpt>
      <trkpt lat="44.49596" lon="1.42447">
        <ele>270</ele>
        <time>2025-05-29T10:07:11Z</time>
      </trkpt>
      <trkpt lat="44.49597" lon="1.4245">
        <ele>270</ele>
        <time>2025-05-29T10:07:12Z</time>
      </trkpt>
      <trkpt lat="44.49597" lon="1.42454">
        <ele>270</ele>
        <time>2025-05-29T10:07:13Z</time>
      </trkpt>
      <trkpt lat="44.49598" lon="1.42458">
        <ele>270.2</ele>
        <time>2025-05-29T10:07:14Z</time>
      </trkpt>
      <trkpt lat="44.49599" lon="1.42462">
        <ele>270.2</ele>
        <time>2025-05-29T10:07:15Z</time>
      </trkpt>
      <trkpt lat="44.49599" lon="1.42466">
        <ele>270.4</ele>
        <time>2025-05-29T10:07:16Z</time>
      </trkpt>
      <trkpt lat="44.49599" lon="1.42471">
        <ele>270.6</ele>
        <time>2025-05-29T10:07:17Z</time>
      </trkpt>
      <trkpt lat="44.496" lon="1.42475">
        <ele>270.6</ele>
        <time>2025-05-29T10:07:18Z</time>
      </trkpt>
      <trkpt lat="44.496" lon="1.42479">
        <ele>270.8</ele>
        <time>2025-05-29T10:07:19Z</time>
      </trkpt>
      <trkpt lat="44.49601" lon="1.42483">
        <ele>271</ele>
        <time>2025-05-29T10:07:20Z</time>
      </trkpt>
      <trkpt lat="44.49601" lon="1.42487">
        <ele>271</ele>
        <time>2025-05-29T10:07:21Z</time>
      </trkpt>
      <trkpt lat="44.49602" lon="1.42491">
        <ele>271.2</ele>
        <time>2025-05-29T10:07:22Z</time>
      </trkpt>
      <trkpt lat="44.49603" lon="1.42494">
        <ele>271.4</ele>
        <time>2025-05-29T10:07:23Z</time>
      </trkpt>
      <trkpt lat="44.49604" lon="1.42497">
        <ele>271.8</ele>
        <time>2025-05-29T10:07:24Z</time>
      </trkpt>
      <trkpt lat="44.49604" lon="1.425">
        <ele>272</ele>
        <time>2025-05-29T10:07:25Z</time>
      </trkpt>
      <trkpt lat="44.49604" lon="1.42503">
        <ele>272.2</ele>
        <time>2025-05-29T10:07:26Z</time>
      </trkpt>
      <trkpt lat="44.49605" lon="1.42506">
        <ele>272.4</ele>
        <time>2025-05-29T10:07:27Z</time>
      </trkpt>
      <trkpt lat="44.49605" lon="1.42509">
        <ele>272.6</ele>
        <time>2025-05-29T10:07:28Z</time>
      </trkpt>
      <trkpt lat="44.49606" lon="1.42512">
        <ele>273</ele>
        <time>2025-05-29T10:07:29Z</time>
      </trkpt>
      <trkpt lat="44.49606" lon="1.42515">
        <ele>273</ele>
        <time>2025-05-29T10:07:30Z</time>
      </trkpt>
      <trkpt lat="44.49607" lon="1.42519">
        <ele>273.2</ele>
        <time>2025-05-29T10:07:31Z</time>
      </trkpt>
      <trkpt lat="44.49607" lon="1.42521">
        <ele>273.4</ele>
        <time>2025-05-29T10:07:32Z</time>
      </trkpt>
      <trkpt lat="44.49608" lon="1.42525">
        <ele>273.6</ele>
        <time>2025-05-29T10:07:33Z</time>
      </trkpt>
      <trkpt lat="44.49609" lon="1.42527">
        <ele>273.8</ele>
        <time>2025-05-29T10:07:34Z</time>
      </trkpt>
      <trkpt lat="44.4961" lon="1.4253">
        <ele>274</ele>
        <time>2025-05-29T10:07:35Z</time>
      </trkpt>
      <trkpt lat="44.49611" lon="1.42533">
        <ele>274.2</ele>
        <time>2025-05-29T10:07:36Z</time>
      </trkpt>
      <trkpt lat="44.49611" lon="1.42535">
        <ele>274.4</ele>
        <time>2025-05-29T10:07:37Z</time>
      </trkpt>
      <trkpt lat="44.49612" lon="1.42538">
        <ele>274.8</ele>
        <time>2025-05-29T10:07:38Z</time>
      </trkpt>
      <trkpt lat="44.49612" lon="1.42539">
        <ele>275</ele>
        <time>2025-05-29T10:07:39Z</time>
      </trkpt>
      <trkpt lat="44.49613" lon="1.42541">
        <ele>275.2</ele>
        <time>2025-05-29T10:07:40Z</time>
      </trkpt>
      <trkpt lat="44.49614" lon="1.42543">
        <ele>275.4</ele>
        <time>2025-05-29T10:07:41Z</time>
      </trkpt>
      <trkpt lat="44.49615" lon="1.42544">
        <ele>275.4</ele>
        <time>2025-05-29T10:07:42Z</time>
      </trkpt>
      <trkpt lat="44.49616" lon="1.42545">
        <ele>275.8</ele>
        <time>2025-05-29T10:07:43Z</time>
      </trkpt>
      <trkpt lat="44.49617" lon="1.42547">
        <ele>276</ele>
        <time>2025-05-29T10:07:44Z</time>
      </trkpt>
      <trkpt lat="44.49618" lon="1.42549">
        <ele>276.2</ele>
        <time>2025-05-29T10:07:45Z</time>
      </trkpt>
      <trkpt lat="44.49618" lon="1.4255">
        <ele>276.4</ele>
        <time>2025-05-29T10:07:46Z</time>
      </trkpt>
      <trkpt lat="44.49619" lon="1.42552">
        <ele>276.6</ele>
        <time>2025-05-29T10:07:47Z</time>
      </trkpt>
      <trkpt lat="44.4962" lon="1.42555">
        <ele>276.8</ele>
        <time>2025-05-29T10:07:48Z</time>
      </trkpt>
      <trkpt lat="44.49621" lon="1.42557">
        <ele>276.8</ele>
        <time>2025-05-29T10:07:49Z</time>
      </trkpt>
      <trkpt lat="44.49622" lon="1.42559">
        <ele>277</ele>
        <time>2025-05-29T10:07:50Z</time>
      </trkpt>
      <trkpt lat="44.49623" lon="1.4256">
        <ele>277.2</ele>
        <time>2025-05-29T10:07:51Z</time>
      </trkpt>
      <trkpt lat="44.49623" lon="1.42563">
        <ele>277.4</ele>
        <time>2025-05-29T10:07:52Z</time>
      </trkpt>
      <trkpt lat="44.49624" lon="1.42565">
        <ele>277.6</ele>
        <time>2025-05-29T10:07:53Z</time>
      </trkpt>
      <trkpt lat="44.49625" lon="1.42567">
        <ele>277.8</ele>
        <time>2025-05-29T10:07:54Z</time>
      </trkpt>
      <trkpt lat="44.49625" lon="1.42569">
        <ele>278</ele>
        <time>2025-05-29T10:07:55Z</time>
      </trkpt>
      <trkpt lat="44.49626" lon="1.42571">
        <ele>278.2</ele>
        <time>2025-05-29T10:07:56Z</time>
      </trkpt>
      <trkpt lat="44.49627" lon="1.42574">
        <ele>278.4</ele>
        <time>2025-05-29T10:07:57Z</time>
      </trkpt>
      <trkpt lat="44.49627" lon="1.42577">
        <ele>278.4</ele>
        <time>2025-05-29T10:07:58Z</time>
      </trkpt>
      <trkpt lat="44.49628" lon="1.42581">
        <ele>278.6</ele>
        <time>2025-05-29T10:07:59Z</time>
      </trkpt>
      <trkpt lat="44.49628" lon="1.42584">
        <ele>278.6</ele>
        <time>2025-05-29T10:08:00Z</time>
      </trkpt>
      <trkpt lat="44.49629" lon="1.42587">
        <ele>278.8</ele>
        <time>2025-05-29T10:08:01Z</time>
      </trkpt>
      <trkpt lat="44.49629" lon="1.4259">
        <ele>278.8</ele>
        <time>2025-05-29T10:08:02Z</time>
      </trkpt>
      <trkpt lat="44.4963" lon="1.42593">
        <ele>279</ele>
        <time>2025-05-29T10:08:03Z</time>
      </trkpt>
      <trkpt lat="44.4963" lon="1.42596">
        <ele>279.2</ele>
        <time>2025-05-29T10:08:04Z</time>
      </trkpt>
      <trkpt lat="44.49631" lon="1.42599">
        <ele>279.2</ele>
        <time>2025-05-29T10:08:05Z</time>
      </trkpt>
      <trkpt lat="44.49631" lon="1.42602">
        <ele>279.2</ele>
        <time>2025-05-29T10:08:06Z</time>
      </trkpt>
      <trkpt lat="44.49632" lon="1.42605">
        <ele>279.4</ele>
        <time>2025-05-29T10:08:07Z</time>
      </trkpt>
      <trkpt lat="44.49632" lon="1.42608">
        <ele>279.4</ele>
        <time>2025-05-29T10:08:08Z</time>
      </trkpt>
      <trkpt lat="44.49632" lon="1.42611">
        <ele>279.6</ele>
        <time>2025-05-29T10:08:09Z</time>
      </trkpt>
      <trkpt lat="44.49632" lon="1.42614">
        <ele>279.8</ele>
        <time>2025-05-29T10:08:10Z</time>
      </trkpt>
      <trkpt lat="44.49632" lon="1.42617">
        <ele>279.8</ele>
        <time>2025-05-29T10:08:11Z</time>
      </trkpt>
      <trkpt lat="44.49633" lon="1.4262">
        <ele>280</ele>
        <time>2025-05-29T10:08:12Z</time>
      </trkpt>
      <trkpt lat="44.49633" lon="1.42624">
        <ele>279.8</ele>
        <time>2025-05-29T10:08:13Z</time>
      </trkpt>
      <trkpt lat="44.49633" lon="1.42628">
        <ele>279.8</ele>
        <time>2025-05-29T10:08:14Z</time>
      </trkpt>
      <trkpt lat="44.49634" lon="1.42631">
        <ele>279.8</ele>
        <time>2025-05-29T10:08:15Z</time>
      </trkpt>
      <trkpt lat="44.49634" lon="1.42634">
        <ele>280</ele>
        <time>2025-05-29T10:08:16Z</time>
      </trkpt>
      <trkpt lat="44.49634" lon="1.42638">
        <ele>280</ele>
        <time>2025-05-29T10:08:17Z</time>
      </trkpt>
      <trkpt lat="44.49633" lon="1.42641">
        <ele>280.2</ele>
        <time>2025-05-29T10:08:18Z</time>
      </trkpt>
      <trkpt lat="44.49632" lon="1.42643">
        <ele>280.2</ele>
        <time>2025-05-29T10:08:19Z</time>
      </trkpt>
      <trkpt lat="44.49631" lon="1.42644">
        <ele>280.4</ele>
        <time>2025-05-29T10:08:20Z</time>
      </trkpt>
      <trkpt lat="44.4963" lon="1.42646">
        <ele>280.6</ele>
        <time>2025-05-29T10:08:21Z</time>
      </trkpt>
      <trkpt lat="44.49629" lon="1.42647">
        <ele>280.8</ele>
        <time>2025-05-29T10:08:22Z</time>
      </trkpt>
      <trkpt lat="44.49629" lon="1.42649">
        <ele>281</ele>
        <time>2025-05-29T10:08:23Z</time>
      </trkpt>
      <trkpt lat="44.49628" lon="1.4265">
        <ele>281.2</ele>
        <time>2025-05-29T10:08:24Z</time>
      </trkpt>
      <trkpt lat="44.49627" lon="1.42651">
        <ele>281.4</ele>
        <time>2025-05-29T10:08:25Z</time>
      </trkpt>
      <trkpt lat="44.49626" lon="1.42653">
        <ele>281.6</ele>
        <time>2025-05-29T10:08:26Z</time>
      </trkpt>
      <trkpt lat="44.49625" lon="1.42654">
        <ele>281.8</ele>
        <time>2025-05-29T10:08:27Z</time>
      </trkpt>
      <trkpt lat="44.49624" lon="1.42656">
        <ele>282.2</ele>
        <time>2025-05-29T10:08:28Z</time>
      </trkpt>
      <trkpt lat="44.49623" lon="1.42658">
        <ele>282.4</ele>
        <time>2025-05-29T10:08:29Z</time>
      </trkpt>
      <trkpt lat="44.49622" lon="1.42659">
        <ele>282.6</ele>
        <time>2025-05-29T10:08:30Z</time>
      </trkpt>
      <trkpt lat="44.49621" lon="1.4266">
        <ele>282.8</ele>
        <time>2025-05-29T10:08:31Z</time>
      </trkpt>
      <trkpt lat="44.4962" lon="1.42662">
        <ele>283</ele>
        <time>2025-05-29T10:08:32Z</time>
      </trkpt>
      <trkpt lat="44.49619" lon="1.42663">
        <ele>283.2</ele>
        <time>2025-05-29T10:08:33Z</time>
      </trkpt>
      <trkpt lat="44.49618" lon="1.42664">
        <ele>283.4</ele>
        <time>2025-05-29T10:08:34Z</time>
      </trkpt>
      <trkpt lat="44.49617" lon="1.42666">
        <ele>283.4</ele>
        <time>2025-05-29T10:08:35Z</time>
      </trkpt>
      <trkpt lat="44.49616" lon="1.42667">
        <ele>283.6</ele>
        <time>2025-05-29T10:08:36Z</time>
      </trkpt>
      <trkpt lat="44.49615" lon="1.42669">
        <ele>283.8</ele>
        <time>2025-05-29T10:08:37Z</time>
      </trkpt>
      <trkpt lat="44.49614" lon="1.4267">
        <ele>284</ele>
        <time>2025-05-29T10:08:38Z</time>
      </trkpt>
      <trkpt lat="44.49613" lon="1.42672">
        <ele>284.2</ele>
        <time>2025-05-29T10:08:39Z</time>
      </trkpt>
      <trkpt lat="44.49612" lon="1.42673">
        <ele>284.2</ele>
        <time>2025-05-29T10:08:40Z</time>
      </trkpt>
      <trkpt lat="44.49611" lon="1.42674">
        <ele>284.4</ele>
        <time>2025-05-29T10:08:41Z</time>
      </trkpt>
      <trkpt lat="44.4961" lon="1.42676">
        <ele>284.6</ele>
        <time>2025-05-29T10:08:42Z</time>
      </trkpt>
      <trkpt lat="44.49609" lon="1.42676">
        <ele>285</ele>
        <time>2025-05-29T10:08:43Z</time>
      </trkpt>
      <trkpt lat="44.49608" lon="1.42677">
        <ele>285.2</ele>
        <time>2025-05-29T10:08:44Z</time>
      </trkpt>
      <trkpt lat="44.49607" lon="1.42678">
        <ele>285.2</ele>
        <time>2025-05-29T10:08:45Z</time>
      </trkpt>
      <trkpt lat="44.49605" lon="1.4268">
        <ele>285.4</ele>
        <time>2025-05-29T10:08:46Z</time>
      </trkpt>
      <trkpt lat="44.49604" lon="1.42681">
        <ele>285.6</ele>
        <time>2025-05-29T10:08:47Z</time>
      </trkpt>
      <trkpt lat="44.49603" lon="1.42682">
        <ele>285.8</ele>
        <time>2025-05-29T10:08:48Z</time>
      </trkpt>
      <trkpt lat="44.49602" lon="1.42683">
        <ele>286</ele>
        <time>2025-05-29T10:08:49Z</time>
      </trkpt>
      <trkpt lat="44.49601" lon="1.42684">
        <ele>286.2</ele>
        <time>2025-05-29T10:08:50Z</time>
      </trkpt>
      <trkpt lat="44.496" lon="1.42685">
        <ele>286.6</ele>
        <time>2025-05-29T10:08:51Z</time>
      </trkpt>
      <trkpt lat="44.49598" lon="1.42686">
        <ele>286.8</ele>
        <time>2025-05-29T10:08:52Z</time>
      </trkpt>
      <trkpt lat="44.49597" lon="1.42686">
        <ele>287</ele>
        <time>2025-05-29T10:08:53Z</time>
      </trkpt>
      <trkpt lat="44.49596" lon="1.42687">
        <ele>287.2</ele>
        <time>2025-05-29T10:08:54Z</time>
      </trkpt>
      <trkpt lat="44.49595" lon="1.42688">
        <ele>287.4</ele>
        <time>2025-05-29T10:08:55Z</time>
      </trkpt>
      <trkpt lat="44.49594" lon="1.42689">
        <ele>287.4</ele>
        <time>2025-05-29T10:08:56Z</time>
      </trkpt>
      <trkpt lat="44.49593" lon="1.4269">
        <ele>287.6</ele>
        <time>2025-05-29T10:08:57Z</time>
      </trkpt>
      <trkpt lat="44.49592" lon="1.42691">
        <ele>287.8</ele>
        <time>2025-05-29T10:08:58Z</time>
      </trkpt>
      <trkpt lat="44.49591" lon="1.42692">
        <ele>288</ele>
        <time>2025-05-29T10:08:59Z</time>
      </trkpt>
      <trkpt lat="44.4959" lon="1.42693">
        <ele>288.2</ele>
        <time>2025-05-29T10:09:00Z</time>
      </trkpt>
      <trkpt lat="44.49589" lon="1.42694">
        <ele>288.4</ele>
        <time>2025-05-29T10:09:01Z</time>
      </trkpt>
      <trkpt lat="44.49588" lon="1.42695">
        <ele>288.6</ele>
        <time>2025-05-29T10:09:02Z</time>
      </trkpt>
      <trkpt lat="44.49587" lon="1.42696">
        <ele>288.8</ele>
        <time>2025-05-29T10:09:03Z</time>
      </trkpt>
      <trkpt lat="44.49586" lon="1.42698">
        <ele>289</ele>
        <time>2025-05-29T10:09:04Z</time>
      </trkpt>
      <trkpt lat="44.49585" lon="1.42699">
        <ele>289.2</ele>
        <time>2025-05-29T10:09:05Z</time>
      </trkpt>
      <trkpt lat="44.49584" lon="1.427">
        <ele>289.4</ele>
        <time>2025-05-29T10:09:06Z</time>
      </trkpt>
      <trkpt lat="44.49583" lon="1.42701">
        <ele>289.6</ele>
        <time>2025-05-29T10:09:07Z</time>
      </trkpt>
      <trkpt lat="44.49582" lon="1.42702">
        <ele>289.8</ele>
        <time>2025-05-29T10:09:08Z</time>
      </trkpt>
      <trkpt lat="44.49581" lon="1.42703">
        <ele>290.2</ele>
        <time>2025-05-29T10:09:09Z</time>
      </trkpt>
      <trkpt lat="44.49581" lon="1.42704">
        <ele>290.4</ele>
        <time>2025-05-29T10:09:10Z</time>
      </trkpt>
      <trkpt lat="44.4958" lon="1.42705">
        <ele>290.6</ele>
        <time>2025-05-29T10:09:11Z</time>
      </trkpt>
      <trkpt lat="44.49579" lon="1.42706">
        <ele>290.8</ele>
        <time>2025-05-29T10:09:12Z</time>
      </trkpt>
      <trkpt lat="44.49578" lon="1.42707">
        <ele>291</ele>
        <time>2025-05-29T10:09:13Z</time>
      </trkpt>
      <trkpt lat="44.49577" lon="1.42708">
        <ele>291.4</ele>
        <time>2025-05-29T10:09:14Z</time>
      </trkpt>
      <trkpt lat="44.49576" lon="1.42709">
        <ele>291.6</ele>
        <time>2025-05-29T10:09:15Z</time>
      </trkpt>
      <trkpt lat="44.49575" lon="1.4271">
        <ele>291.8</ele>
        <time>2025-05-29T10:09:16Z</time>
      </trkpt>
      <trkpt lat="44.49574" lon="1.42711">
        <ele>292</ele>
        <time>2025-05-29T10:09:17Z</time>
      </trkpt>
      <trkpt lat="44.49574" lon="1.42712">
        <ele>292.2</ele>
        <time>2025-05-29T10:09:18Z</time>
      </trkpt>
      <trkpt lat="44.49573" lon="1.42714">
        <ele>292.6</ele>
        <time>2025-05-29T10:09:19Z</time>
      </trkpt>
      <trkpt lat="44.49572" lon="1.42715">
        <ele>292.8</ele>
        <time>2025-05-29T10:09:20Z</time>
      </trkpt>
      <trkpt lat="44.49571" lon="1.42715">
        <ele>293</ele>
        <time>2025-05-29T10:09:21Z</time>
      </trkpt>
      <trkpt lat="44.4957" lon="1.42716">
        <ele>293.2</ele>
        <time>2025-05-29T10:09:22Z</time>
      </trkpt>
      <trkpt lat="44.4957" lon="1.42717">
        <ele>293.4</ele>
        <time>2025-05-29T10:09:23Z</time>
      </trkpt>
      <trkpt lat="44.49569" lon="1.42719">
        <ele>293.8</ele>
        <time>2025-05-29T10:09:24Z</time>
      </trkpt>
      <trkpt lat="44.49568" lon="1.4272">
        <ele>294</ele>
        <time>2025-05-29T10:09:25Z</time>
      </trkpt>
      <trkpt lat="44.49567" lon="1.42721">
        <ele>294.2</ele>
        <time>2025-05-29T10:09:26Z</time>
      </trkpt>
      <trkpt lat="44.49566" lon="1.42721">
        <ele>294.4</ele>
        <time>2025-05-29T10:09:27Z</time>
      </trkpt>
      <trkpt lat="44.49565" lon="1.42722">
        <ele>294.6</ele>
        <time>2025-05-29T10:09:28Z</time>
      </trkpt>
      <trkpt lat="44.49564" lon="1.42723">
        <ele>294.8</ele>
        <time>2025-05-29T10:09:29Z</time>
      </trkpt>
      <trkpt lat="44.49563" lon="1.42725">
        <ele>295</ele>
        <time>2025-05-29T10:09:30Z</time>
      </trkpt>
      <trkpt lat="44.49563" lon="1.42726">
        <ele>295.2</ele>
        <time>2025-05-29T10:09:31Z</time>
      </trkpt>
      <trkpt lat="44.49562" lon="1.42727">
        <ele>295.4</ele>
        <time>2025-05-29T10:09:32Z</time>
      </trkpt>
      <trkpt lat="44.49561" lon="1.42728">
        <ele>295.6</ele>
        <time>2025-05-29T10:09:33Z</time>
      </trkpt>
      <trkpt lat="44.4956" lon="1.42729">
        <ele>295.8</ele>
        <time>2025-05-29T10:09:34Z</time>
      </trkpt>
      <trkpt lat="44.49559" lon="1.42731">
        <ele>296</ele>
        <time>2025-05-29T10:09:35Z</time>
      </trkpt>
      <trkpt lat="44.49557" lon="1.42732">
        <ele>296.2</ele>
        <time>2025-05-29T10:09:36Z</time>
      </trkpt>
      <trkpt lat="44.49556" lon="1.42734">
        <ele>296.2</ele>
        <time>2025-05-29T10:09:37Z</time>
      </trkpt>
      <trkpt lat="44.49555" lon="1.42735">
        <ele>296.4</ele>
        <time>2025-05-29T10:09:38Z</time>
      </trkpt>
      <trkpt lat="44.49554" lon="1.42736">
        <ele>296.6</ele>
        <time>2025-05-29T10:09:39Z</time>
      </trkpt>
      <trkpt lat="44.49553" lon="1.42737">
        <ele>297</ele>
        <time>2025-05-29T10:09:40Z</time>
      </trkpt>
      <trkpt lat="44.49552" lon="1.42739">
        <ele>297.2</ele>
        <time>2025-05-29T10:09:41Z</time>
      </trkpt>
      <trkpt lat="44.4955" lon="1.4274">
        <ele>297.4</ele>
        <time>2025-05-29T10:09:42Z</time>
      </trkpt>
      <trkpt lat="44.49549" lon="1.42741">
        <ele>297.4</ele>
        <time>2025-05-29T10:09:43Z</time>
      </trkpt>
      <trkpt lat="44.49548" lon="1.42743">
        <ele>297.6</ele>
        <time>2025-05-29T10:09:44Z</time>
      </trkpt>
      <trkpt lat="44.49547" lon="1.42744">
        <ele>297.8</ele>
        <time>2025-05-29T10:09:45Z</time>
      </trkpt>
      <trkpt lat="44.49546" lon="1.42746">
        <ele>298</ele>
        <time>2025-05-29T10:09:46Z</time>
      </trkpt>
      <trkpt lat="44.49545" lon="1.42747">
        <ele>298</ele>
        <time>2025-05-29T10:09:47Z</time>
      </trkpt>
      <trkpt lat="44.49543" lon="1.42748">
        <ele>298</ele>
        <time>2025-05-29T10:09:48Z</time>
      </trkpt>
      <trkpt lat="44.49541" lon="1.4275">
        <ele>298.2</ele>
        <time>2025-05-29T10:09:49Z</time>
      </trkpt>
      <trkpt lat="44.4954" lon="1.42751">
        <ele>298</ele>
        <time>2025-05-29T10:09:50Z</time>
      </trkpt>
      <trkpt lat="44.49538" lon="1.42753">
        <ele>298</ele>
        <time>2025-05-29T10:09:51Z</time>
      </trkpt>
      <trkpt lat="44.49537" lon="1.42755">
        <ele>298</ele>
        <time>2025-05-29T10:09:52Z</time>
      </trkpt>
      <trkpt lat="44.49535" lon="1.42757">
        <ele>298</ele>
        <time>2025-05-29T10:09:53Z</time>
      </trkpt>
      <trkpt lat="44.49534" lon="1.42759">
        <ele>298</ele>
        <time>2025-05-29T10:09:54Z</time>
      </trkpt>
      <trkpt lat="44.49533" lon="1.42761">
        <ele>298.2</ele>
        <time>2025-05-29T10:09:55Z</time>
      </trkpt>
      <trkpt lat="44.49531" lon="1.42763">
        <ele>298.2</ele>
        <time>2025-05-29T10:09:56Z</time>
      </trkpt>
      <trkpt lat="44.4953" lon="1.42765">
        <ele>298.2</ele>
        <time>2025-05-29T10:09:57Z</time>
      </trkpt>
      <trkpt lat="44.49529" lon="1.42766">
        <ele>298.2</ele>
        <time>2025-05-29T10:09:58Z</time>
      </trkpt>
      <trkpt lat="44.49528" lon="1.42768">
        <ele>298.2</ele>
        <time>2025-05-29T10:09:59Z</time>
      </trkpt>
      <trkpt lat="44.49527" lon="1.42769">
        <ele>298.2</ele>
        <time>2025-05-29T10:10:00Z</time>
      </trkpt>
      <trkpt lat="44.49525" lon="1.42771">
        <ele>298.2</ele>
        <time>2025-05-29T10:10:01Z</time>
      </trkpt>
      <trkpt lat="44.49524" lon="1.42773">
        <ele>298.2</ele>
        <time>2025-05-29T10:10:02Z</time>
      </trkpt>
      <trkpt lat="44.49524" lon="1.42775">
        <ele>298.2</ele>
        <time>2025-05-29T10:10:03Z</time>
      </trkpt>
      <trkpt lat="44.49524" lon="1.42777">
        <ele>298.2</ele>
        <time>2025-05-29T10:10:04Z</time>
      </trkpt>
      <trkpt lat="44.49526" lon="1.4278">
        <ele>298</ele>
        <time>2025-05-29T10:10:05Z</time>
      </trkpt>
      <trkpt lat="44.49528" lon="1.42783">
        <ele>297.8</ele>
        <time>2025-05-29T10:10:06Z</time>
      </trkpt>
      <trkpt lat="44.4953" lon="1.42784">
        <ele>297.4</ele>
        <time>2025-05-29T10:10:07Z</time>
      </trkpt>
      <trkpt lat="44.49533" lon="1.42783">
        <ele>297</ele>
        <time>2025-05-29T10:10:08Z</time>
      </trkpt>
      <trkpt lat="44.49536" lon="1.42782">
        <ele>296.6</ele>
        <time>2025-05-29T10:10:09Z</time>
      </trkpt>
      <trkpt lat="44.49539" lon="1.42781">
        <ele>296</ele>
        <time>2025-05-29T10:10:10Z</time>
      </trkpt>
      <trkpt lat="44.49542" lon="1.42779">
        <ele>295.6</ele>
        <time>2025-05-29T10:10:11Z</time>
      </trkpt>
      <trkpt lat="44.49545" lon="1.42776">
        <ele>295.2</ele>
        <time>2025-05-29T10:10:12Z</time>
      </trkpt>
      <trkpt lat="44.49548" lon="1.42774">
        <ele>295</ele>
        <time>2025-05-29T10:10:13Z</time>
      </trkpt>
      <trkpt lat="44.49551" lon="1.42771">
        <ele>294.8</ele>
        <time>2025-05-29T10:10:14Z</time>
      </trkpt>
      <trkpt lat="44.49554" lon="1.42768">
        <ele>294.6</ele>
        <time>2025-05-29T10:10:15Z</time>
      </trkpt>
      <trkpt lat="44.49556" lon="1.42765">
        <ele>294.6</ele>
        <time>2025-05-29T10:10:16Z</time>
      </trkpt>
      <trkpt lat="44.49558" lon="1.42762">
        <ele>294.6</ele>
        <time>2025-05-29T10:10:17Z</time>
      </trkpt>
      <trkpt lat="44.49561" lon="1.4276">
        <ele>294.6</ele>
        <time>2025-05-29T10:10:18Z</time>
      </trkpt>
      <trkpt lat="44.49563" lon="1.42756">
        <ele>294.8</ele>
        <time>2025-05-29T10:10:19Z</time>
      </trkpt>
      <trkpt lat="44.49566" lon="1.42753">
        <ele>294.8</ele>
        <time>2025-05-29T10:10:20Z</time>
      </trkpt>
      <trkpt lat="44.49567" lon="1.4275">
        <ele>294.8</ele>
        <time>2025-05-29T10:10:21Z</time>
      </trkpt>
      <trkpt lat="44.4957" lon="1.42747">
        <ele>294.8</ele>
        <time>2025-05-29T10:10:22Z</time>
      </trkpt>
      <trkpt lat="44.49572" lon="1.42744">
        <ele>294.8</ele>
        <time>2025-05-29T10:10:23Z</time>
      </trkpt>
      <trkpt lat="44.49574" lon="1.4274">
        <ele>294.6</ele>
        <time>2025-05-29T10:10:24Z</time>
      </trkpt>
      <trkpt lat="44.49576" lon="1.42736">
        <ele>294.4</ele>
        <time>2025-05-29T10:10:25Z</time>
      </trkpt>
      <trkpt lat="44.49579" lon="1.42732">
        <ele>294.2</ele>
        <time>2025-05-29T10:10:26Z</time>
      </trkpt>
      <trkpt lat="44.49581" lon="1.42727">
        <ele>293.8</ele>
        <time>2025-05-29T10:10:27Z</time>
      </trkpt>
      <trkpt lat="44.49584" lon="1.42722">
        <ele>293.4</ele>
        <time>2025-05-29T10:10:28Z</time>
      </trkpt>
      <trkpt lat="44.49587" lon="1.42719">
        <ele>292.8</ele>
        <time>2025-05-29T10:10:29Z</time>
      </trkpt>
      <trkpt lat="44.49591" lon="1.42716">
        <ele>292.4</ele>
        <time>2025-05-29T10:10:30Z</time>
      </trkpt>
      <trkpt lat="44.49595" lon="1.42712">
        <ele>291.8</ele>
        <time>2025-05-29T10:10:31Z</time>
      </trkpt>
      <trkpt lat="44.49598" lon="1.4271">
        <ele>291</ele>
        <time>2025-05-29T10:10:32Z</time>
      </trkpt>
      <trkpt lat="44.49603" lon="1.4271">
        <ele>290.2</ele>
        <time>2025-05-29T10:10:33Z</time>
      </trkpt>
      <trkpt lat="44.49607" lon="1.42709">
        <ele>289.6</ele>
        <time>2025-05-29T10:10:34Z</time>
      </trkpt>
      <trkpt lat="44.49611" lon="1.42706">
        <ele>289</ele>
        <time>2025-05-29T10:10:35Z</time>
      </trkpt>
      <trkpt lat="44.49616" lon="1.42703">
        <ele>288</ele>
        <time>2025-05-29T10:10:36Z</time>
      </trkpt>
      <trkpt lat="44.49618" lon="1.42698">
        <ele>287</ele>
        <time>2025-05-29T10:10:37Z</time>
      </trkpt>
      <trkpt lat="44.49621" lon="1.42692">
        <ele>286.2</ele>
        <time>2025-05-29T10:10:38Z</time>
      </trkpt>
      <trkpt lat="44.49622" lon="1.42687">
        <ele>285.4</ele>
        <time>2025-05-29T10:10:39Z</time>
      </trkpt>
      <trkpt lat="44.49624" lon="1.4268">
        <ele>284.4</ele>
        <time>2025-05-29T10:10:40Z</time>
      </trkpt>
      <trkpt lat="44.49625" lon="1.42673">
        <ele>284</ele>
        <time>2025-05-29T10:10:41Z</time>
      </trkpt>
      <trkpt lat="44.49626" lon="1.42667">
        <ele>283.2</ele>
        <time>2025-05-29T10:10:42Z</time>
      </trkpt>
      <trkpt lat="44.49628" lon="1.42663">
        <ele>282.8</ele>
        <time>2025-05-29T10:10:43Z</time>
      </trkpt>
      <trkpt lat="44.49629" lon="1.4266">
        <ele>282.6</ele>
        <time>2025-05-29T10:10:44Z</time>
      </trkpt>
      <trkpt lat="44.4963" lon="1.42659">
        <ele>282.6</ele>
        <time>2025-05-29T10:10:45Z</time>
      </trkpt>
      <trkpt lat="44.49631" lon="1.42658">
        <ele>282.6</ele>
        <time>2025-05-29T10:10:46Z</time>
      </trkpt>
      <trkpt lat="44.49633" lon="1.42655">
        <ele>282.4</ele>
        <time>2025-05-29T10:10:47Z</time>
      </trkpt>
      <trkpt lat="44.49634" lon="1.42653">
        <ele>282.2</ele>
        <time>2025-05-29T10:10:48Z</time>
      </trkpt>
      <trkpt lat="44.49635" lon="1.42651">
        <ele>282</ele>
        <time>2025-05-29T10:10:49Z</time>
      </trkpt>
      <trkpt lat="44.49636" lon="1.42649">
        <ele>281.8</ele>
        <time>2025-05-29T10:10:50Z</time>
      </trkpt>
      <trkpt lat="44.49638" lon="1.42649">
        <ele>281.4</ele>
        <time>2025-05-29T10:10:51Z</time>
      </trkpt>
      <trkpt lat="44.49641" lon="1.42648">
        <ele>281</ele>
        <time>2025-05-29T10:10:52Z</time>
      </trkpt>
      <trkpt lat="44.49642" lon="1.42645">
        <ele>280.6</ele>
        <time>2025-05-29T10:10:53Z</time>
      </trkpt>
      <trkpt lat="44.49642" lon="1.42641">
        <ele>280.2</ele>
        <time>2025-05-29T10:10:54Z</time>
      </trkpt>
      <trkpt lat="44.49643" lon="1.42638">
        <ele>279.8</ele>
        <time>2025-05-29T10:10:55Z</time>
      </trkpt>
      <trkpt lat="44.49645" lon="1.42635">
        <ele>279.2</ele>
        <time>2025-05-29T10:10:56Z</time>
      </trkpt>
      <trkpt lat="44.49649" lon="1.42631">
        <ele>278.8</ele>
        <time>2025-05-29T10:10:57Z</time>
      </trkpt>
      <trkpt lat="44.49652" lon="1.42626">
        <ele>278.2</ele>
        <time>2025-05-29T10:10:58Z</time>
      </trkpt>
      <trkpt lat="44.49654" lon="1.42621">
        <ele>277.6</ele>
        <time>2025-05-29T10:10:59Z</time>
      </trkpt>
      <trkpt lat="44.49656" lon="1.42615">
        <ele>277</ele>
        <time>2025-05-29T10:11:00Z</time>
      </trkpt>
      <trkpt lat="44.49658" lon="1.42611">
        <ele>276.2</ele>
        <time>2025-05-29T10:11:01Z</time>
      </trkpt>
      <trkpt lat="44.49661" lon="1.42609">
        <ele>275.6</ele>
        <time>2025-05-29T10:11:02Z</time>
      </trkpt>
      <trkpt lat="44.49664" lon="1.42606">
        <ele>274.8</ele>
        <time>2025-05-29T10:11:03Z</time>
      </trkpt>
      <trkpt lat="44.49665" lon="1.42601">
        <ele>274.4</ele>
        <time>2025-05-29T10:11:04Z</time>
      </trkpt>
      <trkpt lat="44.49666" lon="1.42596">
        <ele>273.8</ele>
        <time>2025-05-29T10:11:05Z</time>
      </trkpt>
      <trkpt lat="44.49667" lon="1.42591">
        <ele>273.2</ele>
        <time>2025-05-29T10:11:06Z</time>
      </trkpt>
      <trkpt lat="44.49668" lon="1.42584">
        <ele>272.8</ele>
        <time>2025-05-29T10:11:07Z</time>
      </trkpt>
      <trkpt lat="44.49672" lon="1.4258">
        <ele>272.2</ele>
        <time>2025-05-29T10:11:08Z</time>
      </trkpt>
      <trkpt lat="44.49676" lon="1.42577">
        <ele>271.6</ele>
        <time>2025-05-29T10:11:09Z</time>
      </trkpt>
      <trkpt lat="44.49679" lon="1.42572">
        <ele>271</ele>
        <time>2025-05-29T10:11:10Z</time>
      </trkpt>
      <trkpt lat="44.49679" lon="1.42567">
        <ele>270.4</ele>
        <time>2025-05-29T10:11:11Z</time>
      </trkpt>
      <trkpt lat="44.49681" lon="1.42561">
        <ele>269.8</ele>
        <time>2025-05-29T10:11:12Z</time>
      </trkpt>
      <trkpt lat="44.49684" lon="1.42557">
        <ele>269</ele>
        <time>2025-05-29T10:11:13Z</time>
      </trkpt>
      <trkpt lat="44.49689" lon="1.42555">
        <ele>268.2</ele>
        <time>2025-05-29T10:11:14Z</time>
      </trkpt>
      <trkpt lat="44.49693" lon="1.42556">
        <ele>267.4</ele>
        <time>2025-05-29T10:11:15Z</time>
      </trkpt>
      <trkpt lat="44.49696" lon="1.42555">
        <ele>266.8</ele>
        <time>2025-05-29T10:11:16Z</time>
      </trkpt>
      <trkpt lat="44.49698" lon="1.42552">
        <ele>266</ele>
        <time>2025-05-29T10:11:17Z</time>
      </trkpt>
      <trkpt lat="44.497" lon="1.42548">
        <ele>265.2</ele>
        <time>2025-05-29T10:11:18Z</time>
      </trkpt>
      <trkpt lat="44.49702" lon="1.42543">
        <ele>264.2</ele>
        <time>2025-05-29T10:11:19Z</time>
      </trkpt>
      <trkpt lat="44.49705" lon="1.4254">
        <ele>263.4</ele>
        <time>2025-05-29T10:11:20Z</time>
      </trkpt>
      <trkpt lat="44.49709" lon="1.42537">
        <ele>262.6</ele>
        <time>2025-05-29T10:11:21Z</time>
      </trkpt>
      <trkpt lat="44.49712" lon="1.42536">
        <ele>261.8</ele>
        <time>2025-05-29T10:11:22Z</time>
      </trkpt>
      <trkpt lat="44.49714" lon="1.42538">
        <ele>261</ele>
        <time>2025-05-29T10:11:23Z</time>
      </trkpt>
      <trkpt lat="44.49717" lon="1.42538">
        <ele>260.2</ele>
        <time>2025-05-29T10:11:24Z</time>
      </trkpt>
      <trkpt lat="44.4972" lon="1.42537">
        <ele>259.4</ele>
        <time>2025-05-29T10:11:25Z</time>
      </trkpt>
      <trkpt lat="44.49721" lon="1.42533">
        <ele>258.6</ele>
        <time>2025-05-29T10:11:26Z</time>
      </trkpt>
      <trkpt lat="44.49722" lon="1.42528">
        <ele>257.8</ele>
        <time>2025-05-29T10:11:27Z</time>
      </trkpt>
      <trkpt lat="44.49722" lon="1.42523">
        <ele>257.2</ele>
        <time>2025-05-29T10:11:28Z</time>
      </trkpt>
      <trkpt lat="44.49724" lon="1.42517">
        <ele>256.2</ele>
        <time>2025-05-29T10:11:29Z</time>
      </trkpt>
      <trkpt lat="44.49727" lon="1.42513">
        <ele>255.6</ele>
        <time>2025-05-29T10:11:30Z</time>
      </trkpt>
      <trkpt lat="44.4973" lon="1.42509">
        <ele>255</ele>
        <time>2025-05-29T10:11:31Z</time>
      </trkpt>
      <trkpt lat="44.49733" lon="1.42504">
        <ele>254.4</ele>
        <time>2025-05-29T10:11:32Z</time>
      </trkpt>
      <trkpt lat="44.49736" lon="1.425">
        <ele>253.8</ele>
        <time>2025-05-29T10:11:33Z</time>
      </trkpt>
      <trkpt lat="44.4974" lon="1.42498">
        <ele>252.8</ele>
        <time>2025-05-29T10:11:34Z</time>
      </trkpt>
      <trkpt lat="44.49743" lon="1.42498">
        <ele>252</ele>
        <time>2025-05-29T10:11:35Z</time>
      </trkpt>
      <trkpt lat="44.49747" lon="1.42497">
        <ele>251.2</ele>
        <time>2025-05-29T10:11:36Z</time>
      </trkpt>
      <trkpt lat="44.49751" lon="1.42498">
        <ele>250</ele>
        <time>2025-05-29T10:11:37Z</time>
      </trkpt>
      <trkpt lat="44.49755" lon="1.42496">
        <ele>249.2</ele>
        <time>2025-05-29T10:11:38Z</time>
      </trkpt>
      <trkpt lat="44.49758" lon="1.42496">
        <ele>248</ele>
        <time>2025-05-29T10:11:39Z</time>
      </trkpt>
      <trkpt lat="44.4976" lon="1.42496">
        <ele>246.8</ele>
        <time>2025-05-29T10:11:40Z</time>
      </trkpt>
      <trkpt lat="44.49763" lon="1.42495">
        <ele>246</ele>
        <time>2025-05-29T10:11:41Z</time>
      </trkpt>
      <trkpt lat="44.49765" lon="1.42492">
        <ele>245.4</ele>
        <time>2025-05-29T10:11:42Z</time>
      </trkpt>
      <trkpt lat="44.49768" lon="1.42489">
        <ele>244.6</ele>
        <time>2025-05-29T10:11:43Z</time>
      </trkpt>
      <trkpt lat="44.49771" lon="1.42487">
        <ele>244</ele>
        <time>2025-05-29T10:11:44Z</time>
      </trkpt>
      <trkpt lat="44.49774" lon="1.42488">
        <ele>243</ele>
        <time>2025-05-29T10:11:45Z</time>
      </trkpt>
      <trkpt lat="44.49777" lon="1.4249">
        <ele>242.4</ele>
        <time>2025-05-29T10:11:46Z</time>
      </trkpt>
      <trkpt lat="44.49779" lon="1.42494">
        <ele>241.6</ele>
        <time>2025-05-29T10:11:47Z</time>
      </trkpt>
      <trkpt lat="44.49781" lon="1.42498">
        <ele>240.8</ele>
        <time>2025-05-29T10:11:48Z</time>
      </trkpt>
      <trkpt lat="44.49782" lon="1.42502">
        <ele>240</ele>
        <time>2025-05-29T10:11:49Z</time>
      </trkpt>
      <trkpt lat="44.49783" lon="1.42506">
        <ele>239</ele>
        <time>2025-05-29T10:11:50Z</time>
      </trkpt>
      <trkpt lat="44.49785" lon="1.42508">
        <ele>238.2</ele>
        <time>2025-05-29T10:11:51Z</time>
      </trkpt>
      <trkpt lat="44.49788" lon="1.42509">
        <ele>237.4</ele>
        <time>2025-05-29T10:11:52Z</time>
      </trkpt>
      <trkpt lat="44.49791" lon="1.42509">
        <ele>236.8</ele>
        <time>2025-05-29T10:11:53Z</time>
      </trkpt>
      <trkpt lat="44.49795" lon="1.42508">
        <ele>236</ele>
        <time>2025-05-29T10:11:54Z</time>
      </trkpt>
      <trkpt lat="44.49798" lon="1.42505">
        <ele>235</ele>
        <time>2025-05-29T10:11:55Z</time>
      </trkpt>
      <trkpt lat="44.49801" lon="1.42501">
        <ele>234.2</ele>
        <time>2025-05-29T10:11:56Z</time>
      </trkpt>
      <trkpt lat="44.49803" lon="1.42495">
        <ele>233.4</ele>
        <time>2025-05-29T10:11:57Z</time>
      </trkpt>
      <trkpt lat="44.49806" lon="1.42489">
        <ele>232.6</ele>
        <time>2025-05-29T10:11:58Z</time>
      </trkpt>
      <trkpt lat="44.49809" lon="1.42486">
        <ele>232</ele>
        <time>2025-05-29T10:11:59Z</time>
      </trkpt>
      <trkpt lat="44.49812" lon="1.42483">
        <ele>231.4</ele>
        <time>2025-05-29T10:12:00Z</time>
      </trkpt>
      <trkpt lat="44.49815" lon="1.42479">
        <ele>231</ele>
        <time>2025-05-29T10:12:01Z</time>
      </trkpt>
      <trkpt lat="44.49819" lon="1.42474">
        <ele>230.4</ele>
        <time>2025-05-29T10:12:02Z</time>
      </trkpt>
      <trkpt lat="44.49822" lon="1.42473">
        <ele>229.8</ele>
        <time>2025-05-29T10:12:03Z</time>
      </trkpt>
      <trkpt lat="44.49825" lon="1.42473">
        <ele>229.2</ele>
        <time>2025-05-29T10:12:04Z</time>
      </trkpt>
      <trkpt lat="44.49829" lon="1.42471">
        <ele>228.4</ele>
        <time>2025-05-29T10:12:05Z</time>
      </trkpt>
      <trkpt lat="44.49832" lon="1.42469">
        <ele>227.2</ele>
        <time>2025-05-29T10:12:06Z</time>
      </trkpt>
      <trkpt lat="44.49835" lon="1.42467">
        <ele>226.4</ele>
        <time>2025-05-29T10:12:07Z</time>
      </trkpt>
      <trkpt lat="44.49838" lon="1.42467">
        <ele>225.6</ele>
        <time>2025-05-29T10:12:08Z</time>
      </trkpt>
      <trkpt lat="44.4984" lon="1.42467">
        <ele>224.6</ele>
        <time>2025-05-29T10:12:09Z</time>
      </trkpt>
      <trkpt lat="44.49843" lon="1.42467">
        <ele>223.8</ele>
        <time>2025-05-29T10:12:10Z</time>
      </trkpt>
      <trkpt lat="44.49844" lon="1.42468">
        <ele>223.2</ele>
        <time>2025-05-29T10:12:11Z</time>
      </trkpt>
      <trkpt lat="44.49844" lon="1.42468">
        <ele>222.8</ele>
        <time>2025-05-29T10:12:12Z</time>
      </trkpt>
      <trkpt lat="44.49843" lon="1.42467">
        <ele>222.2</ele>
        <time>2025-05-29T10:12:13Z</time>
      </trkpt>
      <trkpt lat="44.49854" lon="1.42465">
        <ele>218</ele>
        <time>2025-05-29T10:14:18Z</time>
      </trkpt>
      <trkpt lat="44.49855" lon="1.42463">
        <ele>217.6</ele>
        <time>2025-05-29T10:14:19Z</time>
      </trkpt>
      <trkpt lat="44.49856" lon="1.42461">
        <ele>217.2</ele>
        <time>2025-05-29T10:14:20Z</time>
      </trkpt>
      <trkpt lat="44.49857" lon="1.42459">
        <ele>216.8</ele>
        <time>2025-05-29T10:14:21Z</time>
      </trkpt>
      <trkpt lat="44.49859" lon="1.42457">
        <ele>216.2</ele>
        <time>2025-05-29T10:14:22Z</time>
      </trkpt>
      <trkpt lat="44.49863" lon="1.42453">
        <ele>215.8</ele>
        <time>2025-05-29T10:14:23Z</time>
      </trkpt>
      <trkpt lat="44.49866" lon="1.4245">
        <ele>215.2</ele>
        <time>2025-05-29T10:14:24Z</time>
      </trkpt>
      <trkpt lat="44.49869" lon="1.42447">
        <ele>214.6</ele>
        <time>2025-05-29T10:14:25Z</time>
      </trkpt>
      <trkpt lat="44.49871" lon="1.42443">
        <ele>214</ele>
        <time>2025-05-29T10:14:26Z</time>
      </trkpt>
      <trkpt lat="44.49872" lon="1.42441">
        <ele>213.4</ele>
        <time>2025-05-29T10:14:27Z</time>
      </trkpt>
      <trkpt lat="44.49873" lon="1.42438">
        <ele>213</ele>
        <time>2025-05-29T10:14:28Z</time>
      </trkpt>
      <trkpt lat="44.49874" lon="1.42434">
        <ele>212.8</ele>
        <time>2025-05-29T10:14:29Z</time>
      </trkpt>
      <trkpt lat="44.49876" lon="1.42432">
        <ele>212.8</ele>
        <time>2025-05-29T10:14:30Z</time>
      </trkpt>
      <trkpt lat="44.49879" lon="1.4243">
        <ele>212.8</ele>
        <time>2025-05-29T10:14:31Z</time>
      </trkpt>
      <trkpt lat="44.49882" lon="1.42426">
        <ele>212.4</ele>
        <time>2025-05-29T10:14:32Z</time>
      </trkpt>
      <trkpt lat="44.49886" lon="1.42422">
        <ele>211.8</ele>
        <time>2025-05-29T10:14:33Z</time>
      </trkpt>
      <trkpt lat="44.49889" lon="1.42419">
        <ele>211.2</ele>
        <time>2025-05-29T10:14:34Z</time>
      </trkpt>
      <trkpt lat="44.49893" lon="1.42416">
        <ele>210.8</ele>
        <time>2025-05-29T10:14:35Z</time>
      </trkpt>
      <trkpt lat="44.49895" lon="1.42414">
        <ele>210</ele>
        <time>2025-05-29T10:14:36Z</time>
      </trkpt>
      <trkpt lat="44.49896" lon="1.42414">
        <ele>209.4</ele>
        <time>2025-05-29T10:14:37Z</time>
      </trkpt>
      <trkpt lat="44.49896" lon="1.42414">
        <ele>208.6</ele>
        <time>2025-05-29T10:14:38Z</time>
      </trkpt>
      <trkpt lat="44.49893" lon="1.42413">
        <ele>208.6</ele>
        <time>2025-05-29T10:15:48Z</time>
      </trkpt>
      <trkpt lat="44.49895" lon="1.42413">
        <ele>208.4</ele>
        <time>2025-05-29T10:15:49Z</time>
      </trkpt>
      <trkpt lat="44.49897" lon="1.42413">
        <ele>208.2</ele>
        <time>2025-05-29T10:15:50Z</time>
      </trkpt>
      <trkpt lat="44.49901" lon="1.42413">
        <ele>207.8</ele>
        <time>2025-05-29T10:15:51Z</time>
      </trkpt>
      <trkpt lat="44.49904" lon="1.42413">
        <ele>206.8</ele>
        <time>2025-05-29T10:15:52Z</time>
      </trkpt>
      <trkpt lat="44.49907" lon="1.42414">
        <ele>205.8</ele>
        <time>2025-05-29T10:15:53Z</time>
      </trkpt>
      <trkpt lat="44.49909" lon="1.42415">
        <ele>204.8</ele>
        <time>2025-05-29T10:15:54Z</time>
      </trkpt>
      <trkpt lat="44.49911" lon="1.42418">
        <ele>203.8</ele>
        <time>2025-05-29T10:15:55Z</time>
      </trkpt>
      <trkpt lat="44.49912" lon="1.42422">
        <ele>202.6</ele>
        <time>2025-05-29T10:15:56Z</time>
      </trkpt>
      <trkpt lat="44.49913" lon="1.42427">
        <ele>201.2</ele>
        <time>2025-05-29T10:15:57Z</time>
      </trkpt>
      <trkpt lat="44.49915" lon="1.42432">
        <ele>200</ele>
        <time>2025-05-29T10:15:58Z</time>
      </trkpt>
      <trkpt lat="44.49915" lon="1.42437">
        <ele>198.8</ele>
        <time>2025-05-29T10:15:59Z</time>
      </trkpt>
      <trkpt lat="44.49917" lon="1.42442">
        <ele>197.8</ele>
        <time>2025-05-29T10:16:00Z</time>
      </trkpt>
      <trkpt lat="44.49919" lon="1.42448">
        <ele>196.8</ele>
        <time>2025-05-29T10:16:01Z</time>
      </trkpt>
      <trkpt lat="44.49922" lon="1.42452">
        <ele>195.8</ele>
        <time>2025-05-29T10:16:02Z</time>
      </trkpt>
      <trkpt lat="44.49923" lon="1.42454">
        <ele>195.2</ele>
        <time>2025-05-29T10:16:03Z</time>
      </trkpt>
      <trkpt lat="44.49924" lon="1.42455">
        <ele>194.8</ele>
        <time>2025-05-29T10:16:04Z</time>
      </trkpt>
      <trkpt lat="44.49925" lon="1.42454">
        <ele>194.6</ele>
        <time>2025-05-29T10:16:05Z</time>
      </trkpt>
      <trkpt lat="44.49927" lon="1.42454">
        <ele>194.6</ele>
        <time>2025-05-29T10:16:06Z</time>
      </trkpt>
      <trkpt lat="44.49928" lon="1.42455">
        <ele>194.6</ele>
        <time>2025-05-29T10:16:07Z</time>
      </trkpt>
      <trkpt lat="44.4993" lon="1.42455">
        <ele>194.4</ele>
        <time>2025-05-29T10:16:08Z</time>
      </trkpt>
      <trkpt lat="44.49932" lon="1.42457">
        <ele>194.2</ele>
        <time>2025-05-29T10:16:09Z</time>
      </trkpt>
      <trkpt lat="44.49935" lon="1.42458">
        <ele>193.6</ele>
        <time>2025-05-29T10:16:10Z</time>
      </trkpt>
      <trkpt lat="44.49939" lon="1.42459">
        <ele>193</ele>
        <time>2025-05-29T10:16:11Z</time>
      </trkpt>
      <trkpt lat="44.49941" lon="1.42462">
        <ele>192.4</ele>
        <time>2025-05-29T10:16:12Z</time>
      </trkpt>
      <trkpt lat="44.49943" lon="1.42463">
        <ele>191.6</ele>
        <time>2025-05-29T10:16:13Z</time>
      </trkpt>
      <trkpt lat="44.49945" lon="1.42462">
        <ele>191</ele>
        <time>2025-05-29T10:16:14Z</time>
      </trkpt>
      <trkpt lat="44.49948" lon="1.4246">
        <ele>190.4</ele>
        <time>2025-05-29T10:16:15Z</time>
      </trkpt>
      <trkpt lat="44.49951" lon="1.42458">
        <ele>189.8</ele>
        <time>2025-05-29T10:16:16Z</time>
      </trkpt>
      <trkpt lat="44.49955" lon="1.42457">
        <ele>189.2</ele>
        <time>2025-05-29T10:16:17Z</time>
      </trkpt>
      <trkpt lat="44.49959" lon="1.42456">
        <ele>188.2</ele>
        <time>2025-05-29T10:16:18Z</time>
      </trkpt>
      <trkpt lat="44.49963" lon="1.42455">
        <ele>187.4</ele>
        <time>2025-05-29T10:16:19Z</time>
      </trkpt>
      <trkpt lat="44.49967" lon="1.42456">
        <ele>186.6</ele>
        <time>2025-05-29T10:16:20Z</time>
      </trkpt>
      <trkpt lat="44.49971" lon="1.42457">
        <ele>185.4</ele>
        <time>2025-05-29T10:16:21Z</time>
      </trkpt>
      <trkpt lat="44.49975" lon="1.4246">
        <ele>184.4</ele>
        <time>2025-05-29T10:16:22Z</time>
      </trkpt>
      <trkpt lat="44.49978" lon="1.42462">
        <ele>183</ele>
        <time>2025-05-29T10:16:23Z</time>
      </trkpt>
      <trkpt lat="44.4998" lon="1.42466">
        <ele>181.8</ele>
        <time>2025-05-29T10:16:24Z</time>
      </trkpt>
      <trkpt lat="44.49982" lon="1.42468">
        <ele>181.2</ele>
        <time>2025-05-29T10:16:25Z</time>
      </trkpt>
      <trkpt lat="44.49983" lon="1.42471">
        <ele>180.4</ele>
        <time>2025-05-29T10:16:26Z</time>
      </trkpt>
      <trkpt lat="44.49983" lon="1.42472">
        <ele>179.8</ele>
        <time>2025-05-29T10:16:27Z</time>
      </trkpt>
      <trkpt lat="44.49983" lon="1.42472">
        <ele>179.2</ele>
        <time>2025-05-29T10:16:28Z</time>
      </trkpt>
      <trkpt lat="44.49985" lon="1.4248">
        <ele>177.2</ele>
        <time>2025-05-29T10:16:48Z</time>
      </trkpt>
      <trkpt lat="44.49985" lon="1.42483">
        <ele>176.8</ele>
        <time>2025-05-29T10:16:49Z</time>
      </trkpt>
      <trkpt lat="44.49985" lon="1.42486">
        <ele>176</ele>
        <time>2025-05-29T10:16:50Z</time>
      </trkpt>
      <trkpt lat="44.49985" lon="1.42489">
        <ele>175.4</ele>
        <time>2025-05-29T10:16:51Z</time>
      </trkpt>
      <trkpt lat="44.49985" lon="1.42495">
        <ele>174.2</ele>
        <time>2025-05-29T10:16:52Z</time>
      </trkpt>
      <trkpt lat="44.49986" lon="1.425">
        <ele>173</ele>
        <time>2025-05-29T10:16:53Z</time>
      </trkpt>
      <trkpt lat="44.49987" lon="1.42505">
        <ele>171.8</ele>
        <time>2025-05-29T10:16:54Z</time>
      </trkpt>
      <trkpt lat="44.49989" lon="1.42508">
        <ele>170.4</ele>
        <time>2025-05-29T10:16:55Z</time>
      </trkpt>
      <trkpt lat="44.4999" lon="1.4251">
        <ele>169.2</ele>
        <time>2025-05-29T10:16:56Z</time>
      </trkpt>
      <trkpt lat="44.49992" lon="1.42509">
        <ele>168.4</ele>
        <time>2025-05-29T10:16:57Z</time>
      </trkpt>
      <trkpt lat="44.49995" lon="1.42508">
        <ele>168</ele>
        <time>2025-05-29T10:16:58Z</time>
      </trkpt>
      <trkpt lat="44.49999" lon="1.42507">
        <ele>167.4</ele>
        <time>2025-05-29T10:16:59Z</time>
      </trkpt>
      <trkpt lat="44.50004" lon="1.42505">
        <ele>166.8</ele>
        <time>2025-05-29T10:17:00Z</time>
      </trkpt>
      <trkpt lat="44.50008" lon="1.42504">
        <ele>166</ele>
        <time>2025-05-29T10:17:01Z</time>
      </trkpt>
      <trkpt lat="44.50011" lon="1.42503">
        <ele>165.2</ele>
        <time>2025-05-29T10:17:02Z</time>
      </trkpt>
      <trkpt lat="44.50013" lon="1.42502">
        <ele>164.2</ele>
        <time>2025-05-29T10:17:03Z</time>
      </trkpt>
      <trkpt lat="44.50014" lon="1.425">
        <ele>163.6</ele>
        <time>2025-05-29T10:17:04Z</time>
      </trkpt>
      <trkpt lat="44.50014" lon="1.42499">
        <ele>163</ele>
        <time>2025-05-29T10:17:05Z</time>
      </trkpt>
      <trkpt lat="44.50014" lon="1.42497">
        <ele>162.4</ele>
        <time>2025-05-29T10:17:06Z</time>
      </trkpt>
      <trkpt lat="44.50014" lon="1.42495">
        <ele>162.4</ele>
        <time>2025-05-29T10:17:07Z</time>
      </trkpt>
      <trkpt lat="44.50015" lon="1.42493">
        <ele>162</ele>
        <time>2025-05-29T10:17:08Z</time>
      </trkpt>
      <trkpt lat="44.50015" lon="1.42493">
        <ele>161.8</ele>
        <time>2025-05-29T10:17:09Z</time>
      </trkpt>
      <trkpt lat="44.50015" lon="1.42493">
        <ele>161.6</ele>
        <time>2025-05-29T10:17:10Z</time>
      </trkpt>
      <trkpt lat="44.50015" lon="1.42493">
        <ele>161.6</ele>
        <time>2025-05-29T10:17:11Z</time>
      </trkpt>
      <trkpt lat="44.50015" lon="1.42493">
        <ele>161.6</ele>
        <time>2025-05-29T10:17:12Z</time>
      </trkpt>
      <trkpt lat="44.50015" lon="1.42493">
        <ele>161.6</ele>
        <time>2025-05-29T10:17:13Z</time>
      </trkpt>
      <trkpt lat="44.50015" lon="1.42493">
        <ele>161.6</ele>
        <time>2025-05-29T10:17:14Z</time>
      </trkpt>
      <trkpt lat="44.50015" lon="1.42501">
        <ele>162</ele>
        <time>2025-05-29T10:17:20Z</time>
      </trkpt>
      <trkpt lat="44.50017" lon="1.42502">
        <ele>161.8</ele>
        <time>2025-05-29T10:17:21Z</time>
      </trkpt>
      <trkpt lat="44.50019" lon="1.42503">
        <ele>161.8</ele>
        <time>2025-05-29T10:17:22Z</time>
      </trkpt>
      <trkpt lat="44.50023" lon="1.42504">
        <ele>161.6</ele>
        <time>2025-05-29T10:17:23Z</time>
      </trkpt>
      <trkpt lat="44.50029" lon="1.42507">
        <ele>161</ele>
        <time>2025-05-29T10:17:24Z</time>
      </trkpt>
      <trkpt lat="44.50034" lon="1.4251">
        <ele>160.4</ele>
        <time>2025-05-29T10:17:25Z</time>
      </trkpt>
      <trkpt lat="44.50038" lon="1.42511">
        <ele>159.6</ele>
        <time>2025-05-29T10:17:26Z</time>
      </trkpt>
      <trkpt lat="44.5004" lon="1.42511">
        <ele>158.6</ele>
        <time>2025-05-29T10:17:27Z</time>
      </trkpt>
      <trkpt lat="44.50043" lon="1.42509">
        <ele>158.2</ele>
        <time>2025-05-29T10:17:28Z</time>
      </trkpt>
      <trkpt lat="44.50043" lon="1.42506">
        <ele>157.8</ele>
        <time>2025-05-29T10:17:29Z</time>
      </trkpt>
      <trkpt lat="44.50044" lon="1.42503">
        <ele>157.6</ele>
        <time>2025-05-29T10:17:30Z</time>
      </trkpt>
      <trkpt lat="44.50044" lon="1.425">
        <ele>157.4</ele>
        <time>2025-05-29T10:17:31Z</time>
      </trkpt>
      <trkpt lat="44.50044" lon="1.42498">
        <ele>157.2</ele>
        <time>2025-05-29T10:17:32Z</time>
      </trkpt>
      <trkpt lat="44.50043" lon="1.42494">
        <ele>157</ele>
        <time>2025-05-29T10:17:33Z</time>
      </trkpt>
      <trkpt lat="44.50044" lon="1.42491">
        <ele>156.8</ele>
        <time>2025-05-29T10:17:34Z</time>
      </trkpt>
      <trkpt lat="44.50043" lon="1.42487">
        <ele>156.8</ele>
        <time>2025-05-29T10:17:35Z</time>
      </trkpt>
      <trkpt lat="44.50043" lon="1.42483">
        <ele>156.6</ele>
        <time>2025-05-29T10:17:36Z</time>
      </trkpt>
      <trkpt lat="44.50043" lon="1.42479">
        <ele>156.4</ele>
        <time>2025-05-29T10:17:37Z</time>
      </trkpt>
      <trkpt lat="44.50044" lon="1.42474">
        <ele>156.4</ele>
        <time>2025-05-29T10:17:38Z</time>
      </trkpt>
      <trkpt lat="44.50044" lon="1.4247">
        <ele>156.2</ele>
        <time>2025-05-29T10:17:39Z</time>
      </trkpt>
      <trkpt lat="44.50045" lon="1.42465">
        <ele>156</ele>
        <time>2025-05-29T10:17:40Z</time>
      </trkpt>
      <trkpt lat="44.50047" lon="1.4246">
        <ele>156</ele>
        <time>2025-05-29T10:17:41Z</time>
      </trkpt>
      <trkpt lat="44.50048" lon="1.42455">
        <ele>155.8</ele>
        <time>2025-05-29T10:17:42Z</time>
      </trkpt>
      <trkpt lat="44.50049" lon="1.4245">
        <ele>155.8</ele>
        <time>2025-05-29T10:17:43Z</time>
      </trkpt>
      <trkpt lat="44.5005" lon="1.42445">
        <ele>155.6</ele>
        <time>2025-05-29T10:17:44Z</time>
      </trkpt>
      <trkpt lat="44.50052" lon="1.42439">
        <ele>155.6</ele>
        <time>2025-05-29T10:17:45Z</time>
      </trkpt>
      <trkpt lat="44.50052" lon="1.42433">
        <ele>155.6</ele>
        <time>2025-05-29T10:17:46Z</time>
      </trkpt>
      <trkpt lat="44.50053" lon="1.42427">
        <ele>155.4</ele>
        <time>2025-05-29T10:17:47Z</time>
      </trkpt>
      <trkpt lat="44.50053" lon="1.42421">
        <ele>155.4</ele>
        <time>2025-05-29T10:17:48Z</time>
      </trkpt>
      <trkpt lat="44.50052" lon="1.42416">
        <ele>155.2</ele>
        <time>2025-05-29T10:17:49Z</time>
      </trkpt>
      <trkpt lat="44.50052" lon="1.42411">
        <ele>155</ele>
        <time>2025-05-29T10:17:50Z</time>
      </trkpt>
      <trkpt lat="44.50051" lon="1.42406">
        <ele>154.6</ele>
        <time>2025-05-29T10:17:51Z</time>
      </trkpt>
      <trkpt lat="44.50051" lon="1.42401">
        <ele>154.6</ele>
        <time>2025-05-29T10:17:52Z</time>
      </trkpt>
      <trkpt lat="44.50052" lon="1.42396">
        <ele>154.4</ele>
        <time>2025-05-29T10:17:53Z</time>
      </trkpt>
      <trkpt lat="44.50053" lon="1.4239">
        <ele>154.4</ele>
        <time>2025-05-29T10:17:54Z</time>
      </trkpt>
      <trkpt lat="44.50054" lon="1.42385">
        <ele>154.6</ele>
        <time>2025-05-29T10:17:55Z</time>
      </trkpt>
      <trkpt lat="44.50055" lon="1.42379">
        <ele>154.6</ele>
        <time>2025-05-29T10:17:56Z</time>
      </trkpt>
      <trkpt lat="44.50057" lon="1.42373">
        <ele>154.6</ele>
        <time>2025-05-29T10:17:57Z</time>
      </trkpt>
      <trkpt lat="44.50058" lon="1.42367">
        <ele>154.4</ele>
        <time>2025-05-29T10:17:58Z</time>
      </trkpt>
      <trkpt lat="44.50058" lon="1.4236">
        <ele>154.2</ele>
        <time>2025-05-29T10:17:59Z</time>
      </trkpt>
      <trkpt lat="44.5006" lon="1.42352">
        <ele>154</ele>
        <time>2025-05-29T10:18:00Z</time>
      </trkpt>
      <trkpt lat="44.50061" lon="1.42345">
        <ele>153.8</ele>
        <time>2025-05-29T10:18:01Z</time>
      </trkpt>
      <trkpt lat="44.50062" lon="1.42337">
        <ele>153.6</ele>
        <time>2025-05-29T10:18:02Z</time>
      </trkpt>
      <trkpt lat="44.50063" lon="1.4233">
        <ele>153.4</ele>
        <time>2025-05-29T10:18:03Z</time>
      </trkpt>
      <trkpt lat="44.50064" lon="1.42323">
        <ele>153.2</ele>
        <time>2025-05-29T10:18:04Z</time>
      </trkpt>
      <trkpt lat="44.50064" lon="1.42316">
        <ele>153.2</ele>
        <time>2025-05-29T10:18:05Z</time>
      </trkpt>
      <trkpt lat="44.50064" lon="1.42308">
        <ele>153</ele>
        <time>2025-05-29T10:18:06Z</time>
      </trkpt>
      <trkpt lat="44.50064" lon="1.423">
        <ele>152.8</ele>
        <time>2025-05-29T10:18:07Z</time>
      </trkpt>
      <trkpt lat="44.50065" lon="1.42292">
        <ele>152.8</ele>
        <time>2025-05-29T10:18:08Z</time>
      </trkpt>
      <trkpt lat="44.50067" lon="1.42285">
        <ele>152.4</ele>
        <time>2025-05-29T10:18:09Z</time>
      </trkpt>
      <trkpt lat="44.5007" lon="1.42279">
        <ele>152.2</ele>
        <time>2025-05-29T10:18:10Z</time>
      </trkpt>
      <trkpt lat="44.50073" lon="1.42273">
        <ele>151.8</ele>
        <time>2025-05-29T10:18:11Z</time>
      </trkpt>
      <trkpt lat="44.50075" lon="1.42268">
        <ele>151.6</ele>
        <time>2025-05-29T10:18:12Z</time>
      </trkpt>
      <trkpt lat="44.50078" lon="1.42262">
        <ele>151.6</ele>
        <time>2025-05-29T10:18:13Z</time>
      </trkpt>
      <trkpt lat="44.5008" lon="1.42256">
        <ele>151.6</ele>
        <time>2025-05-29T10:18:14Z</time>
      </trkpt>
      <trkpt lat="44.50082" lon="1.4225">
        <ele>151.6</ele>
        <time>2025-05-29T10:18:15Z</time>
      </trkpt>
      <trkpt lat="44.50083" lon="1.42245">
        <ele>151.6</ele>
        <time>2025-05-29T10:18:16Z</time>
      </trkpt>
      <trkpt lat="44.50084" lon="1.4224">
        <ele>151.6</ele>
        <time>2025-05-29T10:18:17Z</time>
      </trkpt>
      <trkpt lat="44.50085" lon="1.42234">
        <ele>151.6</ele>
        <time>2025-05-29T10:18:18Z</time>
      </trkpt>
      <trkpt lat="44.50087" lon="1.42229">
        <ele>151.6</ele>
        <time>2025-05-29T10:18:19Z</time>
      </trkpt>
      <trkpt lat="44.50088" lon="1.42224">
        <ele>151.4</ele>
        <time>2025-05-29T10:18:20Z</time>
      </trkpt>
      <trkpt lat="44.50089" lon="1.42218">
        <ele>151.4</ele>
        <time>2025-05-29T10:18:21Z</time>
      </trkpt>
      <trkpt lat="44.5009" lon="1.42212">
        <ele>151.2</ele>
        <time>2025-05-29T10:18:22Z</time>
      </trkpt>
      <trkpt lat="44.50091" lon="1.42206">
        <ele>151</ele>
        <time>2025-05-29T10:18:23Z</time>
      </trkpt>
      <trkpt lat="44.50092" lon="1.422">
        <ele>151</ele>
        <time>2025-05-29T10:18:24Z</time>
      </trkpt>
      <trkpt lat="44.50092" lon="1.42193">
        <ele>150.8</ele>
        <time>2025-05-29T10:18:25Z</time>
      </trkpt>
      <trkpt lat="44.50092" lon="1.42187">
        <ele>150.8</ele>
        <time>2025-05-29T10:18:26Z</time>
      </trkpt>
      <trkpt lat="44.50091" lon="1.4218">
        <ele>150.8</ele>
        <time>2025-05-29T10:18:27Z</time>
      </trkpt>
      <trkpt lat="44.5009" lon="1.42173">
        <ele>150.8</ele>
        <time>2025-05-29T10:18:28Z</time>
      </trkpt>
      <trkpt lat="44.50089" lon="1.42167">
        <ele>150.8</ele>
        <time>2025-05-29T10:18:29Z</time>
      </trkpt>
      <trkpt lat="44.50087" lon="1.42161">
        <ele>150.8</ele>
        <time>2025-05-29T10:18:30Z</time>
      </trkpt>
      <trkpt lat="44.50084" lon="1.42155">
        <ele>150.6</ele>
        <time>2025-05-29T10:18:31Z</time>
      </trkpt>
      <trkpt lat="44.50081" lon="1.42151">
        <ele>150.6</ele>
        <time>2025-05-29T10:18:32Z</time>
      </trkpt>
      <trkpt lat="44.50078" lon="1.42147">
        <ele>150.4</ele>
        <time>2025-05-29T10:18:33Z</time>
      </trkpt>
      <trkpt lat="44.50074" lon="1.42142">
        <ele>150.2</ele>
        <time>2025-05-29T10:18:34Z</time>
      </trkpt>
      <trkpt lat="44.50071" lon="1.42138">
        <ele>149.8</ele>
        <time>2025-05-29T10:18:35Z</time>
      </trkpt>
      <trkpt lat="44.50067" lon="1.42133">
        <ele>149.6</ele>
        <time>2025-05-29T10:18:36Z</time>
      </trkpt>
      <trkpt lat="44.50064" lon="1.42128">
        <ele>149.6</ele>
        <time>2025-05-29T10:18:37Z</time>
      </trkpt>
      <trkpt lat="44.50061" lon="1.42123">
        <ele>149.4</ele>
        <time>2025-05-29T10:18:38Z</time>
      </trkpt>
      <trkpt lat="44.50058" lon="1.42118">
        <ele>149.4</ele>
        <time>2025-05-29T10:18:39Z</time>
      </trkpt>
      <trkpt lat="44.50055" lon="1.42113">
        <ele>149.2</ele>
        <time>2025-05-29T10:18:40Z</time>
      </trkpt>
      <trkpt lat="44.50051" lon="1.42108">
        <ele>149</ele>
        <time>2025-05-29T10:18:41Z</time>
      </trkpt>
      <trkpt lat="44.50048" lon="1.42104">
        <ele>148.8</ele>
        <time>2025-05-29T10:18:42Z</time>
      </trkpt>
      <trkpt lat="44.50045" lon="1.42099">
        <ele>148.6</ele>
        <time>2025-05-29T10:18:43Z</time>
      </trkpt>
      <trkpt lat="44.50042" lon="1.42095">
        <ele>148.6</ele>
        <time>2025-05-29T10:18:44Z</time>
      </trkpt>
      <trkpt lat="44.50039" lon="1.4209">
        <ele>148.6</ele>
        <time>2025-05-29T10:18:45Z</time>
      </trkpt>
      <trkpt lat="44.50036" lon="1.42084">
        <ele>148.4</ele>
        <time>2025-05-29T10:18:46Z</time>
      </trkpt>
      <trkpt lat="44.50033" lon="1.42078">
        <ele>148.2</ele>
        <time>2025-05-29T10:18:47Z</time>
      </trkpt>
      <trkpt lat="44.50032" lon="1.42072">
        <ele>148.2</ele>
        <time>2025-05-29T10:18:48Z</time>
      </trkpt>
      <trkpt lat="44.5003" lon="1.42065">
        <ele>148</ele>
        <time>2025-05-29T10:18:49Z</time>
      </trkpt>
      <trkpt lat="44.50028" lon="1.42058">
        <ele>148</ele>
        <time>2025-05-29T10:18:50Z</time>
      </trkpt>
      <trkpt lat="44.50025" lon="1.42052">
        <ele>147.8</ele>
        <time>2025-05-29T10:18:51Z</time>
      </trkpt>
      <trkpt lat="44.50022" lon="1.42047">
        <ele>147.6</ele>
        <time>2025-05-29T10:18:52Z</time>
      </trkpt>
      <trkpt lat="44.5002" lon="1.42042">
        <ele>147.4</ele>
        <time>2025-05-29T10:18:53Z</time>
      </trkpt>
      <trkpt lat="44.50017" lon="1.42038">
        <ele>147.4</ele>
        <time>2025-05-29T10:18:54Z</time>
      </trkpt>
      <trkpt lat="44.50015" lon="1.42035">
        <ele>147.4</ele>
        <time>2025-05-29T10:18:55Z</time>
      </trkpt>
      <trkpt lat="44.50013" lon="1.42031">
        <ele>147.4</ele>
        <time>2025-05-29T10:18:56Z</time>
      </trkpt>
      <trkpt lat="44.50011" lon="1.42027">
        <ele>147.4</ele>
        <time>2025-05-29T10:18:57Z</time>
      </trkpt>
      <trkpt lat="44.50009" lon="1.42024">
        <ele>147.4</ele>
        <time>2025-05-29T10:18:58Z</time>
      </trkpt>
      <trkpt lat="44.50007" lon="1.42021">
        <ele>147.4</ele>
        <time>2025-05-29T10:18:59Z</time>
      </trkpt>
      <trkpt lat="44.50005" lon="1.42018">
        <ele>147.2</ele>
        <time>2025-05-29T10:19:00Z</time>
      </trkpt>
      <trkpt lat="44.50003" lon="1.42014">
        <ele>147.2</ele>
        <time>2025-05-29T10:19:01Z</time>
      </trkpt>
      <trkpt lat="44.50002" lon="1.42011">
        <ele>147</ele>
        <time>2025-05-29T10:19:02Z</time>
      </trkpt>
      <trkpt lat="44.5" lon="1.42007">
        <ele>147</ele>
        <time>2025-05-29T10:19:03Z</time>
      </trkpt>
      <trkpt lat="44.49998" lon="1.42003">
        <ele>146.8</ele>
        <time>2025-05-29T10:19:04Z</time>
      </trkpt>
      <trkpt lat="44.49997" lon="1.41999">
        <ele>146.8</ele>
        <time>2025-05-29T10:19:05Z</time>
      </trkpt>
      <trkpt lat="44.49997" lon="1.41996">
        <ele>146.6</ele>
        <time>2025-05-29T10:19:06Z</time>
      </trkpt>
      <trkpt lat="44.49996" lon="1.41992">
        <ele>146.6</ele>
        <time>2025-05-29T10:19:07Z</time>
      </trkpt>
      <trkpt lat="44.49994" lon="1.41988">
        <ele>146.4</ele>
        <time>2025-05-29T10:19:08Z</time>
      </trkpt>
      <trkpt lat="44.49993" lon="1.41984">
        <ele>146.4</ele>
        <time>2025-05-29T10:19:09Z</time>
      </trkpt>
      <trkpt lat="44.49993" lon="1.4198">
        <ele>146.4</ele>
        <time>2025-05-29T10:19:10Z</time>
      </trkpt>
      <trkpt lat="44.49993" lon="1.41977">
        <ele>146.2</ele>
        <time>2025-05-29T10:19:11Z</time>
      </trkpt>
      <trkpt lat="44.49992" lon="1.41975">
        <ele>146.2</ele>
        <time>2025-05-29T10:19:12Z</time>
      </trkpt>
      <trkpt lat="44.49992" lon="1.41974">
        <ele>146</ele>
        <time>2025-05-29T10:19:13Z</time>
      </trkpt>
      <trkpt lat="44.49992" lon="1.41974">
        <ele>146</ele>
        <time>2025-05-29T10:19:14Z</time>
      </trkpt>
      <trkpt lat="44.49991" lon="1.41974">
        <ele>145.8</ele>
        <time>2025-05-29T10:19:36Z</time>
      </trkpt>
      <trkpt lat="44.49991" lon="1.4197">
        <ele>145.6</ele>
        <time>2025-05-29T10:19:37Z</time>
      </trkpt>
      <trkpt lat="44.4999" lon="1.41966">
        <ele>145.6</ele>
        <time>2025-05-29T10:19:38Z</time>
      </trkpt>
      <trkpt lat="44.49991" lon="1.41962">
        <ele>145.4</ele>
        <time>2025-05-29T10:19:39Z</time>
      </trkpt>
      <trkpt lat="44.49991" lon="1.41958">
        <ele>145.2</ele>
        <time>2025-05-29T10:19:40Z</time>
      </trkpt>
      <trkpt lat="44.4999" lon="1.41954">
        <ele>145</ele>
        <time>2025-05-29T10:19:41Z</time>
      </trkpt>
      <trkpt lat="44.49988" lon="1.4195">
        <ele>145</ele>
        <time>2025-05-29T10:19:42Z</time>
      </trkpt>
      <trkpt lat="44.49986" lon="1.41946">
        <ele>144.8</ele>
        <time>2025-05-29T10:19:43Z</time>
      </trkpt>
      <trkpt lat="44.49984" lon="1.41942">
        <ele>144.8</ele>
        <time>2025-05-29T10:19:44Z</time>
      </trkpt>
      <trkpt lat="44.49982" lon="1.41938">
        <ele>144.6</ele>
        <time>2025-05-29T10:19:45Z</time>
      </trkpt>
      <trkpt lat="44.4998" lon="1.41933">
        <ele>144.6</ele>
        <time>2025-05-29T10:19:46Z</time>
      </trkpt>
      <trkpt lat="44.49979" lon="1.41928">
        <ele>144.6</ele>
        <time>2025-05-29T10:19:47Z</time>
      </trkpt>
      <trkpt lat="44.49979" lon="1.41923">
        <ele>144.6</ele>
        <time>2025-05-29T10:19:48Z</time>
      </trkpt>
      <trkpt lat="44.49978" lon="1.41917">
        <ele>144.6</ele>
        <time>2025-05-29T10:19:49Z</time>
      </trkpt>
      <trkpt lat="44.49977" lon="1.41911">
        <ele>144.4</ele>
        <time>2025-05-29T10:19:50Z</time>
      </trkpt>
      <trkpt lat="44.49976" lon="1.41904">
        <ele>144.2</ele>
        <time>2025-05-29T10:19:51Z</time>
      </trkpt>
      <trkpt lat="44.49975" lon="1.41898">
        <ele>144.2</ele>
        <time>2025-05-29T10:19:52Z</time>
      </trkpt>
      <trkpt lat="44.49974" lon="1.41891">
        <ele>144</ele>
        <time>2025-05-29T10:19:53Z</time>
      </trkpt>
      <trkpt lat="44.49973" lon="1.41885">
        <ele>144</ele>
        <time>2025-05-29T10:19:54Z</time>
      </trkpt>
      <trkpt lat="44.49972" lon="1.4188">
        <ele>144</ele>
        <time>2025-05-29T10:19:55Z</time>
      </trkpt>
      <trkpt lat="44.49971" lon="1.41874">
        <ele>144</ele>
        <time>2025-05-29T10:19:56Z</time>
      </trkpt>
      <trkpt lat="44.49969" lon="1.41868">
        <ele>144</ele>
        <time>2025-05-29T10:19:57Z</time>
      </trkpt>
      <trkpt lat="44.49968" lon="1.41862">
        <ele>143.8</ele>
        <time>2025-05-29T10:19:58Z</time>
      </trkpt>
      <trkpt lat="44.49967" lon="1.41855">
        <ele>143.8</ele>
        <time>2025-05-29T10:19:59Z</time>
      </trkpt>
      <trkpt lat="44.49967" lon="1.41849">
        <ele>143.8</ele>
        <time>2025-05-29T10:20:00Z</time>
      </trkpt>
      <trkpt lat="44.49966" lon="1.41842">
        <ele>143.8</ele>
        <time>2025-05-29T10:20:01Z</time>
      </trkpt>
      <trkpt lat="44.49966" lon="1.41837">
        <ele>143.8</ele>
        <time>2025-05-29T10:20:02Z</time>
      </trkpt>
      <trkpt lat="44.49965" lon="1.41831">
        <ele>143.8</ele>
        <time>2025-05-29T10:20:03Z</time>
      </trkpt>
      <trkpt lat="44.49966" lon="1.41826">
        <ele>143.8</ele>
        <time>2025-05-29T10:20:04Z</time>
      </trkpt>
      <trkpt lat="44.49966" lon="1.41821">
        <ele>143.6</ele>
        <time>2025-05-29T10:20:05Z</time>
      </trkpt>
      <trkpt lat="44.49965" lon="1.41815">
        <ele>143.6</ele>
        <time>2025-05-29T10:20:06Z</time>
      </trkpt>
      <trkpt lat="44.49965" lon="1.4181">
        <ele>143.6</ele>
        <time>2025-05-29T10:20:07Z</time>
      </trkpt>
      <trkpt lat="44.49965" lon="1.41804">
        <ele>143.6</ele>
        <time>2025-05-29T10:20:08Z</time>
      </trkpt>
      <trkpt lat="44.49965" lon="1.41799">
        <ele>143.4</ele>
        <time>2025-05-29T10:20:09Z</time>
      </trkpt>
      <trkpt lat="44.49965" lon="1.41794">
        <ele>143.4</ele>
        <time>2025-05-29T10:20:10Z</time>
      </trkpt>
      <trkpt lat="44.49965" lon="1.41789">
        <ele>143.2</ele>
        <time>2025-05-29T10:20:11Z</time>
      </trkpt>
      <trkpt lat="44.49965" lon="1.41783">
        <ele>143.2</ele>
        <time>2025-05-29T10:20:12Z</time>
      </trkpt>
      <trkpt lat="44.49964" lon="1.41777">
        <ele>143.2</ele>
        <time>2025-05-29T10:20:13Z</time>
      </trkpt>
      <trkpt lat="44.49965" lon="1.41771">
        <ele>143.2</ele>
        <time>2025-05-29T10:20:14Z</time>
      </trkpt>
      <trkpt lat="44.49964" lon="1.41764">
        <ele>143.2</ele>
        <time>2025-05-29T10:20:15Z</time>
      </trkpt>
      <trkpt lat="44.49964" lon="1.41758">
        <ele>143.2</ele>
        <time>2025-05-29T10:20:16Z</time>
      </trkpt>
      <trkpt lat="44.49965" lon="1.41752">
        <ele>143</ele>
        <time>2025-05-29T10:20:17Z</time>
      </trkpt>
      <trkpt lat="44.49965" lon="1.41746">
        <ele>142.8</ele>
        <time>2025-05-29T10:20:18Z</time>
      </trkpt>
      <trkpt lat="44.49965" lon="1.4174">
        <ele>142.6</ele>
        <time>2025-05-29T10:20:19Z</time>
      </trkpt>
      <trkpt lat="44.49965" lon="1.41733">
        <ele>142.4</ele>
        <time>2025-05-29T10:20:20Z</time>
      </trkpt>
      <trkpt lat="44.49965" lon="1.41726">
        <ele>142.2</ele>
        <time>2025-05-29T10:20:21Z</time>
      </trkpt>
      <trkpt lat="44.49965" lon="1.41719">
        <ele>142</ele>
        <time>2025-05-29T10:20:22Z</time>
      </trkpt>
      <trkpt lat="44.49965" lon="1.41712">
        <ele>141.8</ele>
        <time>2025-05-29T10:20:23Z</time>
      </trkpt>
      <trkpt lat="44.49964" lon="1.41705">
        <ele>141.6</ele>
        <time>2025-05-29T10:20:24Z</time>
      </trkpt>
      <trkpt lat="44.49964" lon="1.41698">
        <ele>141.4</ele>
        <time>2025-05-29T10:20:25Z</time>
      </trkpt>
      <trkpt lat="44.49963" lon="1.41691">
        <ele>141.2</ele>
        <time>2025-05-29T10:20:26Z</time>
      </trkpt>
      <trkpt lat="44.49963" lon="1.41684">
        <ele>141</ele>
        <time>2025-05-29T10:20:27Z</time>
      </trkpt>
      <trkpt lat="44.49962" lon="1.41676">
        <ele>141</ele>
        <time>2025-05-29T10:20:28Z</time>
      </trkpt>
      <trkpt lat="44.49961" lon="1.41668">
        <ele>141</ele>
        <time>2025-05-29T10:20:29Z</time>
      </trkpt>
      <trkpt lat="44.4996" lon="1.41661">
        <ele>141</ele>
        <time>2025-05-29T10:20:30Z</time>
      </trkpt>
      <trkpt lat="44.4996" lon="1.41655">
        <ele>141</ele>
        <time>2025-05-29T10:20:31Z</time>
      </trkpt>
      <trkpt lat="44.4996" lon="1.41649">
        <ele>141</ele>
        <time>2025-05-29T10:20:32Z</time>
      </trkpt>
      <trkpt lat="44.49958" lon="1.41646">
        <ele>141</ele>
        <time>2025-05-29T10:20:33Z</time>
      </trkpt>
      <trkpt lat="44.49956" lon="1.41643">
        <ele>141</ele>
        <time>2025-05-29T10:20:34Z</time>
      </trkpt>
      <trkpt lat="44.49953" lon="1.41642">
        <ele>141</ele>
        <time>2025-05-29T10:20:35Z</time>
      </trkpt>
      <trkpt lat="44.4995" lon="1.41642">
        <ele>140.8</ele>
        <time>2025-05-29T10:20:36Z</time>
      </trkpt>
      <trkpt lat="44.49946" lon="1.41642">
        <ele>140.6</ele>
        <time>2025-05-29T10:20:37Z</time>
      </trkpt>
      <trkpt lat="44.49942" lon="1.41641">
        <ele>140.4</ele>
        <time>2025-05-29T10:20:38Z</time>
      </trkpt>
      <trkpt lat="44.49938" lon="1.41639">
        <ele>140.2</ele>
        <time>2025-05-29T10:20:39Z</time>
      </trkpt>
      <trkpt lat="44.49935" lon="1.41639">
        <ele>140</ele>
        <time>2025-05-29T10:20:40Z</time>
      </trkpt>
      <trkpt lat="44.49932" lon="1.41639">
        <ele>139.8</ele>
        <time>2025-05-29T10:20:41Z</time>
      </trkpt>
      <trkpt lat="44.4993" lon="1.41639">
        <ele>140</ele>
        <time>2025-05-29T10:20:42Z</time>
      </trkpt>
      <trkpt lat="44.49928" lon="1.41639">
        <ele>140</ele>
        <time>2025-05-29T10:20:43Z</time>
      </trkpt>
      <trkpt lat="44.49926" lon="1.41639">
        <ele>140.2</ele>
        <time>2025-05-29T10:20:44Z</time>
      </trkpt>
      <trkpt lat="44.49925" lon="1.41639">
        <ele>140.4</ele>
        <time>2025-05-29T10:20:45Z</time>
      </trkpt>
      <trkpt lat="44.49924" lon="1.41637">
        <ele>140.6</ele>
        <time>2025-05-29T10:20:46Z</time>
      </trkpt>
      <trkpt lat="44.49923" lon="1.41636">
        <ele>140.8</ele>
        <time>2025-05-29T10:20:47Z</time>
      </trkpt>
      <trkpt lat="44.49922" lon="1.41634">
        <ele>140.8</ele>
        <time>2025-05-29T10:20:48Z</time>
      </trkpt>
      <trkpt lat="44.49921" lon="1.41633">
        <ele>140.8</ele>
        <time>2025-05-29T10:20:49Z</time>
      </trkpt>
      <trkpt lat="44.4992" lon="1.41632">
        <ele>140.8</ele>
        <time>2025-05-29T10:20:50Z</time>
      </trkpt>
      <trkpt lat="44.4992" lon="1.41632">
        <ele>140.8</ele>
        <time>2025-05-29T10:20:51Z</time>
      </trkpt>
      <trkpt lat="44.49917" lon="1.41627">
        <ele>140.4</ele>
        <time>2025-05-29T10:21:38Z</time>
      </trkpt>
      <trkpt lat="44.49916" lon="1.41625">
        <ele>140.4</ele>
        <time>2025-05-29T10:21:39Z</time>
      </trkpt>
      <trkpt lat="44.49915" lon="1.41623">
        <ele>140.4</ele>
        <time>2025-05-29T10:21:40Z</time>
      </trkpt>
      <trkpt lat="44.49914" lon="1.41621">
        <ele>140.4</ele>
        <time>2025-05-29T10:21:41Z</time>
      </trkpt>
      <trkpt lat="44.49912" lon="1.41618">
        <ele>140.4</ele>
        <time>2025-05-29T10:21:42Z</time>
      </trkpt>
      <trkpt lat="44.49911" lon="1.41616">
        <ele>140.6</ele>
        <time>2025-05-29T10:21:43Z</time>
      </trkpt>
      <trkpt lat="44.49909" lon="1.41614">
        <ele>140.6</ele>
        <time>2025-05-29T10:21:44Z</time>
      </trkpt>
      <trkpt lat="44.49908" lon="1.41612">
        <ele>140.6</ele>
        <time>2025-05-29T10:21:45Z</time>
      </trkpt>
      <trkpt lat="44.49907" lon="1.4161">
        <ele>140.8</ele>
        <time>2025-05-29T10:21:46Z</time>
      </trkpt>
      <trkpt lat="44.49907" lon="1.41609">
        <ele>141</ele>
        <time>2025-05-29T10:21:47Z</time>
      </trkpt>
      <trkpt lat="44.49906" lon="1.41607">
        <ele>141.2</ele>
        <time>2025-05-29T10:21:48Z</time>
      </trkpt>
      <trkpt lat="44.49906" lon="1.41604">
        <ele>141.4</ele>
        <time>2025-05-29T10:21:49Z</time>
      </trkpt>
      <trkpt lat="44.49906" lon="1.41602">
        <ele>141.6</ele>
        <time>2025-05-29T10:21:50Z</time>
      </trkpt>
      <trkpt lat="44.49907" lon="1.416">
        <ele>141.6</ele>
        <time>2025-05-29T10:21:51Z</time>
      </trkpt>
      <trkpt lat="44.49907" lon="1.41597">
        <ele>141.4</ele>
        <time>2025-05-29T10:21:52Z</time>
      </trkpt>
      <trkpt lat="44.49908" lon="1.41593">
        <ele>141.4</ele>
        <time>2025-05-29T10:21:53Z</time>
      </trkpt>
      <trkpt lat="44.49908" lon="1.41588">
        <ele>141.2</ele>
        <time>2025-05-29T10:21:54Z</time>
      </trkpt>
      <trkpt lat="44.49907" lon="1.41584">
        <ele>141.2</ele>
        <time>2025-05-29T10:21:55Z</time>
      </trkpt>
      <trkpt lat="44.49908" lon="1.41581">
        <ele>141</ele>
        <time>2025-05-29T10:21:56Z</time>
      </trkpt>
      <trkpt lat="44.49908" lon="1.41577">
        <ele>141</ele>
        <time>2025-05-29T10:21:57Z</time>
      </trkpt>
      <trkpt lat="44.49908" lon="1.41573">
        <ele>140.8</ele>
        <time>2025-05-29T10:21:58Z</time>
      </trkpt>
      <trkpt lat="44.49908" lon="1.41569">
        <ele>140.6</ele>
        <time>2025-05-29T10:21:59Z</time>
      </trkpt>
      <trkpt lat="44.49908" lon="1.41565">
        <ele>140.4</ele>
        <time>2025-05-29T10:22:00Z</time>
      </trkpt>
      <trkpt lat="44.49907" lon="1.41561">
        <ele>140.4</ele>
        <time>2025-05-29T10:22:01Z</time>
      </trkpt>
      <trkpt lat="44.49907" lon="1.41557">
        <ele>140.2</ele>
        <time>2025-05-29T10:22:02Z</time>
      </trkpt>
      <trkpt lat="44.49906" lon="1.41554">
        <ele>140.2</ele>
        <time>2025-05-29T10:22:03Z</time>
      </trkpt>
      <trkpt lat="44.49905" lon="1.4155">
        <ele>140.4</ele>
        <time>2025-05-29T10:22:04Z</time>
      </trkpt>
      <trkpt lat="44.49904" lon="1.41547">
        <ele>140.4</ele>
        <time>2025-05-29T10:22:05Z</time>
      </trkpt>
      <trkpt lat="44.49903" lon="1.41543">
        <ele>140.4</ele>
        <time>2025-05-29T10:22:06Z</time>
      </trkpt>
      <trkpt lat="44.49902" lon="1.4154">
        <ele>140.4</ele>
        <time>2025-05-29T10:22:07Z</time>
      </trkpt>
      <trkpt lat="44.49901" lon="1.41537">
        <ele>140.4</ele>
        <time>2025-05-29T10:22:08Z</time>
      </trkpt>
      <trkpt lat="44.499" lon="1.41534">
        <ele>140.4</ele>
        <time>2025-05-29T10:22:09Z</time>
      </trkpt>
      <trkpt lat="44.49899" lon="1.41532">
        <ele>140.4</ele>
        <time>2025-05-29T10:22:10Z</time>
      </trkpt>
      <trkpt lat="44.49897" lon="1.41529">
        <ele>140.2</ele>
        <time>2025-05-29T10:22:11Z</time>
      </trkpt>
      <trkpt lat="44.49894" lon="1.41527">
        <ele>140.4</ele>
        <time>2025-05-29T10:22:12Z</time>
      </trkpt>
      <trkpt lat="44.49893" lon="1.41525">
        <ele>140.4</ele>
        <time>2025-05-29T10:22:13Z</time>
      </trkpt>
      <trkpt lat="44.49892" lon="1.41522">
        <ele>140.4</ele>
        <time>2025-05-29T10:22:14Z</time>
      </trkpt>
      <trkpt lat="44.49891" lon="1.41519">
        <ele>140.6</ele>
        <time>2025-05-29T10:22:15Z</time>
      </trkpt>
      <trkpt lat="44.4989" lon="1.41517">
        <ele>140.6</ele>
        <time>2025-05-29T10:22:16Z</time>
      </trkpt>
      <trkpt lat="44.4989" lon="1.41514">
        <ele>140.6</ele>
        <time>2025-05-29T10:22:17Z</time>
      </trkpt>
      <trkpt lat="44.49889" lon="1.41511">
        <ele>140.6</ele>
        <time>2025-05-29T10:22:18Z</time>
      </trkpt>
      <trkpt lat="44.49888" lon="1.41508">
        <ele>140.8</ele>
        <time>2025-05-29T10:22:19Z</time>
      </trkpt>
      <trkpt lat="44.49887" lon="1.41505">
        <ele>140.8</ele>
        <time>2025-05-29T10:22:20Z</time>
      </trkpt>
      <trkpt lat="44.49886" lon="1.41502">
        <ele>140.8</ele>
        <time>2025-05-29T10:22:21Z</time>
      </trkpt>
      <trkpt lat="44.49885" lon="1.41498">
        <ele>140.6</ele>
        <time>2025-05-29T10:22:22Z</time>
      </trkpt>
      <trkpt lat="44.49883" lon="1.41495">
        <ele>140.6</ele>
        <time>2025-05-29T10:22:23Z</time>
      </trkpt>
      <trkpt lat="44.49882" lon="1.41494">
        <ele>140.6</ele>
        <time>2025-05-29T10:22:24Z</time>
      </trkpt>
      <trkpt lat="44.49882" lon="1.41492">
        <ele>140.6</ele>
        <time>2025-05-29T10:22:25Z</time>
      </trkpt>
      <trkpt lat="44.49881" lon="1.41489">
        <ele>140.6</ele>
        <time>2025-05-29T10:22:26Z</time>
      </trkpt>
      <trkpt lat="44.4988" lon="1.41486">
        <ele>140.6</ele>
        <time>2025-05-29T10:22:27Z</time>
      </trkpt>
      <trkpt lat="44.49879" lon="1.41483">
        <ele>140.8</ele>
        <time>2025-05-29T10:22:28Z</time>
      </trkpt>
      <trkpt lat="44.49877" lon="1.4148">
        <ele>140.8</ele>
        <time>2025-05-29T10:22:29Z</time>
      </trkpt>
      <trkpt lat="44.49877" lon="1.41477">
        <ele>140.8</ele>
        <time>2025-05-29T10:22:30Z</time>
      </trkpt>
      <trkpt lat="44.49876" lon="1.41474">
        <ele>140.6</ele>
        <time>2025-05-29T10:22:31Z</time>
      </trkpt>
      <trkpt lat="44.49875" lon="1.41471">
        <ele>140.6</ele>
        <time>2025-05-29T10:22:32Z</time>
      </trkpt>
      <trkpt lat="44.49873" lon="1.41468">
        <ele>140.6</ele>
        <time>2025-05-29T10:22:33Z</time>
      </trkpt>
      <trkpt lat="44.49872" lon="1.41466">
        <ele>140.6</ele>
        <time>2025-05-29T10:22:34Z</time>
      </trkpt>
      <trkpt lat="44.49872" lon="1.41462">
        <ele>140.4</ele>
        <time>2025-05-29T10:22:35Z</time>
      </trkpt>
      <trkpt lat="44.49872" lon="1.41459">
        <ele>140.4</ele>
        <time>2025-05-29T10:22:36Z</time>
      </trkpt>
      <trkpt lat="44.49871" lon="1.41454">
        <ele>140.2</ele>
        <time>2025-05-29T10:22:37Z</time>
      </trkpt>
      <trkpt lat="44.4987" lon="1.41449">
        <ele>140</ele>
        <time>2025-05-29T10:22:38Z</time>
      </trkpt>
      <trkpt lat="44.4987" lon="1.41442">
        <ele>139.6</ele>
        <time>2025-05-29T10:22:39Z</time>
      </trkpt>
      <trkpt lat="44.49869" lon="1.41435">
        <ele>138.8</ele>
        <time>2025-05-29T10:22:40Z</time>
      </trkpt>
      <trkpt lat="44.49868" lon="1.41428">
        <ele>138.4</ele>
        <time>2025-05-29T10:22:41Z</time>
      </trkpt>
      <trkpt lat="44.49866" lon="1.41422">
        <ele>137.8</ele>
        <time>2025-05-29T10:22:42Z</time>
      </trkpt>
      <trkpt lat="44.49866" lon="1.41416">
        <ele>137.4</ele>
        <time>2025-05-29T10:22:43Z</time>
      </trkpt>
      <trkpt lat="44.49864" lon="1.41411">
        <ele>137.2</ele>
        <time>2025-05-29T10:22:44Z</time>
      </trkpt>
      <trkpt lat="44.49862" lon="1.41407">
        <ele>137</ele>
        <time>2025-05-29T10:22:45Z</time>
      </trkpt>
      <trkpt lat="44.49861" lon="1.41403">
        <ele>137</ele>
        <time>2025-05-29T10:22:46Z</time>
      </trkpt>
      <trkpt lat="44.49861" lon="1.41399">
        <ele>137</ele>
        <time>2025-05-29T10:22:47Z</time>
      </trkpt>
      <trkpt lat="44.49859" lon="1.41395">
        <ele>137</ele>
        <time>2025-05-29T10:22:48Z</time>
      </trkpt>
      <trkpt lat="44.49858" lon="1.41393">
        <ele>137</ele>
        <time>2025-05-29T10:22:49Z</time>
      </trkpt>
      <trkpt lat="44.49856" lon="1.4139">
        <ele>137</ele>
        <time>2025-05-29T10:22:50Z</time>
      </trkpt>
      <trkpt lat="44.49855" lon="1.41387">
        <ele>137</ele>
        <time>2025-05-29T10:22:51Z</time>
      </trkpt>
      <trkpt lat="44.49854" lon="1.41383">
        <ele>136.8</ele>
        <time>2025-05-29T10:22:52Z</time>
      </trkpt>
      <trkpt lat="44.49853" lon="1.4138">
        <ele>137</ele>
        <time>2025-05-29T10:22:53Z</time>
      </trkpt>
      <trkpt lat="44.49852" lon="1.41377">
        <ele>137</ele>
        <time>2025-05-29T10:22:54Z</time>
      </trkpt>
      <trkpt lat="44.4985" lon="1.41374">
        <ele>137</ele>
        <time>2025-05-29T10:22:55Z</time>
      </trkpt>
      <trkpt lat="44.49849" lon="1.41369">
        <ele>136.8</ele>
        <time>2025-05-29T10:22:56Z</time>
      </trkpt>
      <trkpt lat="44.49848" lon="1.41364">
        <ele>136.6</ele>
        <time>2025-05-29T10:22:57Z</time>
      </trkpt>
      <trkpt lat="44.49846" lon="1.41359">
        <ele>136.4</ele>
        <time>2025-05-29T10:22:58Z</time>
      </trkpt>
      <trkpt lat="44.49843" lon="1.41355">
        <ele>136</ele>
        <time>2025-05-29T10:22:59Z</time>
      </trkpt>
      <trkpt lat="44.49841" lon="1.41353">
        <ele>135.8</ele>
        <time>2025-05-29T10:23:00Z</time>
      </trkpt>
      <trkpt lat="44.49839" lon="1.41352">
        <ele>135.6</ele>
        <time>2025-05-29T10:23:01Z</time>
      </trkpt>
      <trkpt lat="44.49837" lon="1.41351">
        <ele>135.6</ele>
        <time>2025-05-29T10:23:02Z</time>
      </trkpt>
      <trkpt lat="44.49834" lon="1.41349">
        <ele>135.8</ele>
        <time>2025-05-29T10:23:03Z</time>
      </trkpt>
      <trkpt lat="44.49833" lon="1.41347">
        <ele>136</ele>
        <time>2025-05-29T10:23:04Z</time>
      </trkpt>
      <trkpt lat="44.49831" lon="1.41346">
        <ele>136.2</ele>
        <time>2025-05-29T10:23:05Z</time>
      </trkpt>
      <trkpt lat="44.49829" lon="1.41344">
        <ele>136.4</ele>
        <time>2025-05-29T10:23:06Z</time>
      </trkpt>
      <trkpt lat="44.49827" lon="1.41342">
        <ele>136.4</ele>
        <time>2025-05-29T10:23:07Z</time>
      </trkpt>
      <trkpt lat="44.49825" lon="1.4134">
        <ele>136.4</ele>
        <time>2025-05-29T10:23:08Z</time>
      </trkpt>
      <trkpt lat="44.49822" lon="1.41338">
        <ele>136.4</ele>
        <time>2025-05-29T10:23:09Z</time>
      </trkpt>
      <trkpt lat="44.49819" lon="1.41337">
        <ele>136.2</ele>
        <time>2025-05-29T10:23:10Z</time>
      </trkpt>
      <trkpt lat="44.49817" lon="1.41335">
        <ele>136.2</ele>
        <time>2025-05-29T10:23:11Z</time>
      </trkpt>
      <trkpt lat="44.49815" lon="1.41332">
        <ele>136.2</ele>
        <time>2025-05-29T10:23:12Z</time>
      </trkpt>
      <trkpt lat="44.49813" lon="1.4133">
        <ele>136.2</ele>
        <time>2025-05-29T10:23:13Z</time>
      </trkpt>
      <trkpt lat="44.49811" lon="1.41327">
        <ele>136.4</ele>
        <time>2025-05-29T10:23:14Z</time>
      </trkpt>
      <trkpt lat="44.49808" lon="1.41325">
        <ele>136.4</ele>
        <time>2025-05-29T10:23:15Z</time>
      </trkpt>
      <trkpt lat="44.49806" lon="1.41323">
        <ele>136.2</ele>
        <time>2025-05-29T10:23:16Z</time>
      </trkpt>
      <trkpt lat="44.49804" lon="1.41321">
        <ele>136.2</ele>
        <time>2025-05-29T10:23:17Z</time>
      </trkpt>
      <trkpt lat="44.49802" lon="1.41317">
        <ele>136.2</ele>
        <time>2025-05-29T10:23:18Z</time>
      </trkpt>
      <trkpt lat="44.49799" lon="1.41314">
        <ele>136</ele>
        <time>2025-05-29T10:23:19Z</time>
      </trkpt>
      <trkpt lat="44.49796" lon="1.41311">
        <ele>135.8</ele>
        <time>2025-05-29T10:23:20Z</time>
      </trkpt>
      <trkpt lat="44.49793" lon="1.41309">
        <ele>135.6</ele>
        <time>2025-05-29T10:23:21Z</time>
      </trkpt>
      <trkpt lat="44.4979" lon="1.41306">
        <ele>135.6</ele>
        <time>2025-05-29T10:23:22Z</time>
      </trkpt>
      <trkpt lat="44.49786" lon="1.41304">
        <ele>135.2</ele>
        <time>2025-05-29T10:23:23Z</time>
      </trkpt>
      <trkpt lat="44.49783" lon="1.41302">
        <ele>135</ele>
        <time>2025-05-29T10:23:24Z</time>
      </trkpt>
      <trkpt lat="44.49781" lon="1.41298">
        <ele>135</ele>
        <time>2025-05-29T10:23:25Z</time>
      </trkpt>
      <trkpt lat="44.49777" lon="1.41295">
        <ele>134.8</ele>
        <time>2025-05-29T10:23:26Z</time>
      </trkpt>
      <trkpt lat="44.49775" lon="1.41292">
        <ele>134.6</ele>
        <time>2025-05-29T10:23:27Z</time>
      </trkpt>
      <trkpt lat="44.49772" lon="1.4129">
        <ele>134.6</ele>
        <time>2025-05-29T10:23:28Z</time>
      </trkpt>
      <trkpt lat="44.49769" lon="1.41288">
        <ele>134.4</ele>
        <time>2025-05-29T10:23:29Z</time>
      </trkpt>
      <trkpt lat="44.49767" lon="1.41286">
        <ele>134.4</ele>
        <time>2025-05-29T10:23:30Z</time>
      </trkpt>
      <trkpt lat="44.49764" lon="1.41283">
        <ele>134.4</ele>
        <time>2025-05-29T10:23:31Z</time>
      </trkpt>
      <trkpt lat="44.49762" lon="1.4128">
        <ele>134.6</ele>
        <time>2025-05-29T10:23:32Z</time>
      </trkpt>
      <trkpt lat="44.4976" lon="1.41277">
        <ele>134.8</ele>
        <time>2025-05-29T10:23:33Z</time>
      </trkpt>
      <trkpt lat="44.49758" lon="1.41273">
        <ele>134.8</ele>
        <time>2025-05-29T10:23:34Z</time>
      </trkpt>
      <trkpt lat="44.49755" lon="1.41271">
        <ele>134.8</ele>
        <time>2025-05-29T10:23:35Z</time>
      </trkpt>
      <trkpt lat="44.49752" lon="1.41268">
        <ele>134.6</ele>
        <time>2025-05-29T10:23:36Z</time>
      </trkpt>
      <trkpt lat="44.4975" lon="1.41266">
        <ele>134.6</ele>
        <time>2025-05-29T10:23:37Z</time>
      </trkpt>
      <trkpt lat="44.49748" lon="1.41264">
        <ele>134.6</ele>
        <time>2025-05-29T10:23:38Z</time>
      </trkpt>
      <trkpt lat="44.49747" lon="1.41262">
        <ele>134.4</ele>
        <time>2025-05-29T10:23:39Z</time>
      </trkpt>
      <trkpt lat="44.49745" lon="1.41259">
        <ele>134.4</ele>
        <time>2025-05-29T10:23:40Z</time>
      </trkpt>
      <trkpt lat="44.49743" lon="1.41256">
        <ele>134.4</ele>
        <time>2025-05-29T10:23:41Z</time>
      </trkpt>
      <trkpt lat="44.4974" lon="1.41255">
        <ele>134.4</ele>
        <time>2025-05-29T10:23:42Z</time>
      </trkpt>
      <trkpt lat="44.49738" lon="1.41251">
        <ele>134.2</ele>
        <time>2025-05-29T10:23:43Z</time>
      </trkpt>
      <trkpt lat="44.49737" lon="1.41247">
        <ele>134</ele>
        <time>2025-05-29T10:23:44Z</time>
      </trkpt>
      <trkpt lat="44.49734" lon="1.41242">
        <ele>133.8</ele>
        <time>2025-05-29T10:23:45Z</time>
      </trkpt>
      <trkpt lat="44.49732" lon="1.4124">
        <ele>133.6</ele>
        <time>2025-05-29T10:23:46Z</time>
      </trkpt>
      <trkpt lat="44.49729" lon="1.41239">
        <ele>133.6</ele>
        <time>2025-05-29T10:23:47Z</time>
      </trkpt>
      <trkpt lat="44.49727" lon="1.41237">
        <ele>133.6</ele>
        <time>2025-05-29T10:23:48Z</time>
      </trkpt>
      <trkpt lat="44.49725" lon="1.41236">
        <ele>133.6</ele>
        <time>2025-05-29T10:23:49Z</time>
      </trkpt>
      <trkpt lat="44.49723" lon="1.41235">
        <ele>133.6</ele>
        <time>2025-05-29T10:23:50Z</time>
      </trkpt>
      <trkpt lat="44.49721" lon="1.41234">
        <ele>133.6</ele>
        <time>2025-05-29T10:23:51Z</time>
      </trkpt>
      <trkpt lat="44.49719" lon="1.41232">
        <ele>133.6</ele>
        <time>2025-05-29T10:23:52Z</time>
      </trkpt>
      <trkpt lat="44.49718" lon="1.41229">
        <ele>133.4</ele>
        <time>2025-05-29T10:23:53Z</time>
      </trkpt>
      <trkpt lat="44.49716" lon="1.41227">
        <ele>133.4</ele>
        <time>2025-05-29T10:23:54Z</time>
      </trkpt>
      <trkpt lat="44.49714" lon="1.41223">
        <ele>133.2</ele>
        <time>2025-05-29T10:23:55Z</time>
      </trkpt>
      <trkpt lat="44.49712" lon="1.4122">
        <ele>133.2</ele>
        <time>2025-05-29T10:23:56Z</time>
      </trkpt>
      <trkpt lat="44.4971" lon="1.41217">
        <ele>133</ele>
        <time>2025-05-29T10:23:57Z</time>
      </trkpt>
      <trkpt lat="44.49708" lon="1.41215">
        <ele>133</ele>
        <time>2025-05-29T10:23:58Z</time>
      </trkpt>
      <trkpt lat="44.49706" lon="1.41212">
        <ele>132.8</ele>
        <time>2025-05-29T10:23:59Z</time>
      </trkpt>
      <trkpt lat="44.49704" lon="1.4121">
        <ele>132.8</ele>
        <time>2025-05-29T10:24:00Z</time>
      </trkpt>
      <trkpt lat="44.49703" lon="1.41207">
        <ele>132.8</ele>
        <time>2025-05-29T10:24:01Z</time>
      </trkpt>
      <trkpt lat="44.49701" lon="1.41204">
        <ele>132.8</ele>
        <time>2025-05-29T10:24:02Z</time>
      </trkpt>
      <trkpt lat="44.49699" lon="1.41201">
        <ele>132.8</ele>
        <time>2025-05-29T10:24:03Z</time>
      </trkpt>
      <trkpt lat="44.49698" lon="1.41198">
        <ele>132.8</ele>
        <time>2025-05-29T10:24:04Z</time>
      </trkpt>
      <trkpt lat="44.49697" lon="1.41195">
        <ele>132.8</ele>
        <time>2025-05-29T10:24:05Z</time>
      </trkpt>
      <trkpt lat="44.49696" lon="1.41191">
        <ele>132.8</ele>
        <time>2025-05-29T10:24:06Z</time>
      </trkpt>
      <trkpt lat="44.49694" lon="1.41187">
        <ele>132.6</ele>
        <time>2025-05-29T10:24:07Z</time>
      </trkpt>
      <trkpt lat="44.49692" lon="1.41182">
        <ele>132.6</ele>
        <time>2025-05-29T10:24:08Z</time>
      </trkpt>
      <trkpt lat="44.49691" lon="1.41177">
        <ele>132.4</ele>
        <time>2025-05-29T10:24:09Z</time>
      </trkpt>
      <trkpt lat="44.4969" lon="1.41173">
        <ele>132</ele>
        <time>2025-05-29T10:24:10Z</time>
      </trkpt>
      <trkpt lat="44.49689" lon="1.41168">
        <ele>131.8</ele>
        <time>2025-05-29T10:24:11Z</time>
      </trkpt>
      <trkpt lat="44.49689" lon="1.41163">
        <ele>131.6</ele>
        <time>2025-05-29T10:24:12Z</time>
      </trkpt>
      <trkpt lat="44.49688" lon="1.41159">
        <ele>131.4</ele>
        <time>2025-05-29T10:24:13Z</time>
      </trkpt>
      <trkpt lat="44.49687" lon="1.41154">
        <ele>131.4</ele>
        <time>2025-05-29T10:24:14Z</time>
      </trkpt>
      <trkpt lat="44.49686" lon="1.4115">
        <ele>131.4</ele>
        <time>2025-05-29T10:24:15Z</time>
      </trkpt>
      <trkpt lat="44.49686" lon="1.41146">
        <ele>131.4</ele>
        <time>2025-05-29T10:24:16Z</time>
      </trkpt>
      <trkpt lat="44.49685" lon="1.41142">
        <ele>131.4</ele>
        <time>2025-05-29T10:24:17Z</time>
      </trkpt>
      <trkpt lat="44.49684" lon="1.41138">
        <ele>131.4</ele>
        <time>2025-05-29T10:24:18Z</time>
      </trkpt>
      <trkpt lat="44.49685" lon="1.41134">
        <ele>131.6</ele>
        <time>2025-05-29T10:24:19Z</time>
      </trkpt>
      <trkpt lat="44.49685" lon="1.4113">
        <ele>131.6</ele>
        <time>2025-05-29T10:24:20Z</time>
      </trkpt>
      <trkpt lat="44.49684" lon="1.41124">
        <ele>131.4</ele>
        <time>2025-05-29T10:24:21Z</time>
      </trkpt>
      <trkpt lat="44.49683" lon="1.41119">
        <ele>131.4</ele>
        <time>2025-05-29T10:24:22Z</time>
      </trkpt>
      <trkpt lat="44.49681" lon="1.41113">
        <ele>131</ele>
        <time>2025-05-29T10:24:23Z</time>
      </trkpt>
      <trkpt lat="44.4968" lon="1.41107">
        <ele>130.8</ele>
        <time>2025-05-29T10:24:24Z</time>
      </trkpt>
      <trkpt lat="44.49679" lon="1.41101">
        <ele>130.4</ele>
        <time>2025-05-29T10:24:25Z</time>
      </trkpt>
      <trkpt lat="44.49677" lon="1.41095">
        <ele>130.2</ele>
        <time>2025-05-29T10:24:26Z</time>
      </trkpt>
      <trkpt lat="44.49676" lon="1.4109">
        <ele>129.8</ele>
        <time>2025-05-29T10:24:27Z</time>
      </trkpt>
      <trkpt lat="44.49674" lon="1.41085">
        <ele>129.8</ele>
        <time>2025-05-29T10:24:28Z</time>
      </trkpt>
      <trkpt lat="44.49673" lon="1.41079">
        <ele>129.8</ele>
        <time>2025-05-29T10:24:29Z</time>
      </trkpt>
      <trkpt lat="44.49672" lon="1.41073">
        <ele>129.6</ele>
        <time>2025-05-29T10:24:30Z</time>
      </trkpt>
      <trkpt lat="44.49671" lon="1.41067">
        <ele>129.6</ele>
        <time>2025-05-29T10:24:31Z</time>
      </trkpt>
      <trkpt lat="44.49671" lon="1.4106">
        <ele>129.4</ele>
        <time>2025-05-29T10:24:32Z</time>
      </trkpt>
      <trkpt lat="44.49669" lon="1.41052">
        <ele>129.2</ele>
        <time>2025-05-29T10:24:33Z</time>
      </trkpt>
      <trkpt lat="44.49668" lon="1.41045">
        <ele>129</ele>
        <time>2025-05-29T10:24:34Z</time>
      </trkpt>
      <trkpt lat="44.49668" lon="1.41039">
        <ele>128.6</ele>
        <time>2025-05-29T10:24:35Z</time>
      </trkpt>
      <trkpt lat="44.49667" lon="1.41032">
        <ele>128.4</ele>
        <time>2025-05-29T10:24:36Z</time>
      </trkpt>
      <trkpt lat="44.49667" lon="1.41025">
        <ele>128.2</ele>
        <time>2025-05-29T10:24:37Z</time>
      </trkpt>
      <trkpt lat="44.49666" lon="1.41018">
        <ele>128</ele>
        <time>2025-05-29T10:24:38Z</time>
      </trkpt>
      <trkpt lat="44.49666" lon="1.41012">
        <ele>128</ele>
        <time>2025-05-29T10:24:39Z</time>
      </trkpt>
      <trkpt lat="44.49665" lon="1.41005">
        <ele>128</ele>
        <time>2025-05-29T10:24:40Z</time>
      </trkpt>
      <trkpt lat="44.49663" lon="1.40999">
        <ele>127.8</ele>
        <time>2025-05-29T10:24:41Z</time>
      </trkpt>
      <trkpt lat="44.49661" lon="1.40992">
        <ele>127.6</ele>
        <time>2025-05-29T10:24:42Z</time>
      </trkpt>
      <trkpt lat="44.4966" lon="1.40986">
        <ele>127.4</ele>
        <time>2025-05-29T10:24:43Z</time>
      </trkpt>
      <trkpt lat="44.49659" lon="1.40982">
        <ele>127.4</ele>
        <time>2025-05-29T10:24:44Z</time>
      </trkpt>
      <trkpt lat="44.49657" lon="1.40977">
        <ele>127.2</ele>
        <time>2025-05-29T10:24:45Z</time>
      </trkpt>
      <trkpt lat="44.49656" lon="1.40971">
        <ele>127</ele>
        <time>2025-05-29T10:24:46Z</time>
      </trkpt>
      <trkpt lat="44.49655" lon="1.40966">
        <ele>126.8</ele>
        <time>2025-05-29T10:24:47Z</time>
      </trkpt>
      <trkpt lat="44.49655" lon="1.40961">
        <ele>126.6</ele>
        <time>2025-05-29T10:24:48Z</time>
      </trkpt>
      <trkpt lat="44.49655" lon="1.40955">
        <ele>126.4</ele>
        <time>2025-05-29T10:24:49Z</time>
      </trkpt>
      <trkpt lat="44.49654" lon="1.4095">
        <ele>126.2</ele>
        <time>2025-05-29T10:24:50Z</time>
      </trkpt>
      <trkpt lat="44.49653" lon="1.40945">
        <ele>126.2</ele>
        <time>2025-05-29T10:24:51Z</time>
      </trkpt>
      <trkpt lat="44.49652" lon="1.4094">
        <ele>126</ele>
        <time>2025-05-29T10:24:52Z</time>
      </trkpt>
      <trkpt lat="44.49652" lon="1.40936">
        <ele>125.8</ele>
        <time>2025-05-29T10:24:53Z</time>
      </trkpt>
      <trkpt lat="44.49652" lon="1.40932">
        <ele>125.6</ele>
        <time>2025-05-29T10:24:54Z</time>
      </trkpt>
      <trkpt lat="44.49652" lon="1.40927">
        <ele>125.6</ele>
        <time>2025-05-29T10:24:55Z</time>
      </trkpt>
      <trkpt lat="44.49651" lon="1.40922">
        <ele>125.4</ele>
        <time>2025-05-29T10:24:56Z</time>
      </trkpt>
      <trkpt lat="44.49651" lon="1.40918">
        <ele>125.4</ele>
        <time>2025-05-29T10:24:57Z</time>
      </trkpt>
      <trkpt lat="44.4965" lon="1.40913">
        <ele>125.2</ele>
        <time>2025-05-29T10:24:58Z</time>
      </trkpt>
      <trkpt lat="44.49649" lon="1.40908">
        <ele>125.2</ele>
        <time>2025-05-29T10:24:59Z</time>
      </trkpt>
      <trkpt lat="44.4965" lon="1.40903">
        <ele>125</ele>
        <time>2025-05-29T10:25:00Z</time>
      </trkpt>
      <trkpt lat="44.49651" lon="1.409">
        <ele>125</ele>
        <time>2025-05-29T10:25:01Z</time>
      </trkpt>
      <trkpt lat="44.49653" lon="1.40898">
        <ele>125</ele>
        <time>2025-05-29T10:25:02Z</time>
      </trkpt>
      <trkpt lat="44.49654" lon="1.40897">
        <ele>125.2</ele>
        <time>2025-05-29T10:25:03Z</time>
      </trkpt>
      <trkpt lat="44.49656" lon="1.40897">
        <ele>123.3</ele>
      </trkpt>
      <trkpt lat="44.49658" lon="1.40897">
        <ele>123.3</ele>
      </trkpt>
      <trkpt lat="44.4966" lon="1.40897">
        <ele>123.3</ele>
      </trkpt>
      <trkpt lat="44.49661" lon="1.40899">
        <ele>125.2</ele>
        <time>2025-05-29T10:25:59Z</time>
      </trkpt>
      <trkpt lat="44.49662" lon="1.40901">
        <ele>125.2</ele>
        <time>2025-05-29T10:26:00Z</time>
      </trkpt>
      <trkpt lat="44.49664" lon="1.40903">
        <ele>125.2</ele>
        <time>2025-05-29T10:26:01Z</time>
      </trkpt>
      <trkpt lat="44.49666" lon="1.40905">
        <ele>125.2</ele>
        <time>2025-05-29T10:26:02Z</time>
      </trkpt>
      <trkpt lat="44.49668" lon="1.40906">
        <ele>125.2</ele>
        <time>2025-05-29T10:26:03Z</time>
      </trkpt>
      <trkpt lat="44.49669" lon="1.40908">
        <ele>125.2</ele>
        <time>2025-05-29T10:26:04Z</time>
      </trkpt>
      <trkpt lat="44.49671" lon="1.40909">
        <ele>125.4</ele>
        <time>2025-05-29T10:26:05Z</time>
      </trkpt>
      <trkpt lat="44.49673" lon="1.4091">
        <ele>125.4</ele>
        <time>2025-05-29T10:26:06Z</time>
      </trkpt>
      <trkpt lat="44.49675" lon="1.40911">
        <ele>125.6</ele>
        <time>2025-05-29T10:26:07Z</time>
      </trkpt>
      <trkpt lat="44.49677" lon="1.40912">
        <ele>125.6</ele>
        <time>2025-05-29T10:26:08Z</time>
      </trkpt>
      <trkpt lat="44.49679" lon="1.40913">
        <ele>125.6</ele>
        <time>2025-05-29T10:26:09Z</time>
      </trkpt>
      <trkpt lat="44.49681" lon="1.40913">
        <ele>125.4</ele>
        <time>2025-05-29T10:26:10Z</time>
      </trkpt>
      <trkpt lat="44.49683" lon="1.40914">
        <ele>125.4</ele>
        <time>2025-05-29T10:26:11Z</time>
      </trkpt>
      <trkpt lat="44.49685" lon="1.40915">
        <ele>125.4</ele>
        <time>2025-05-29T10:26:12Z</time>
      </trkpt>
      <trkpt lat="44.49687" lon="1.40915">
        <ele>125.4</ele>
        <time>2025-05-29T10:26:13Z</time>
      </trkpt>
      <trkpt lat="44.49689" lon="1.40916">
        <ele>125.4</ele>
        <time>2025-05-29T10:26:14Z</time>
      </trkpt>
      <trkpt lat="44.49691" lon="1.40917">
        <ele>125.4</ele>
        <time>2025-05-29T10:26:15Z</time>
      </trkpt>
      <trkpt lat="44.49693" lon="1.40917">
        <ele>125.4</ele>
        <time>2025-05-29T10:26:16Z</time>
      </trkpt>
      <trkpt lat="44.49695" lon="1.40917">
        <ele>125.4</ele>
        <time>2025-05-29T10:26:17Z</time>
      </trkpt>
      <trkpt lat="44.49697" lon="1.40916">
        <ele>125.4</ele>
        <time>2025-05-29T10:26:18Z</time>
      </trkpt>
      <trkpt lat="44.49699" lon="1.40916">
        <ele>125.6</ele>
        <time>2025-05-29T10:26:19Z</time>
      </trkpt>
      <trkpt lat="44.49701" lon="1.40914">
        <ele>125.6</ele>
        <time>2025-05-29T10:26:20Z</time>
      </trkpt>
      <trkpt lat="44.49701" lon="1.40913">
        <ele>125.8</ele>
        <time>2025-05-29T10:26:21Z</time>
      </trkpt>
      <trkpt lat="44.49702" lon="1.40911">
        <ele>126</ele>
        <time>2025-05-29T10:26:22Z</time>
      </trkpt>
      <trkpt lat="44.49703" lon="1.4091">
        <ele>126.4</ele>
        <time>2025-05-29T10:26:23Z</time>
      </trkpt>
      <trkpt lat="44.49705" lon="1.40909">
        <ele>126.6</ele>
        <time>2025-05-29T10:26:24Z</time>
      </trkpt>
      <trkpt lat="44.49706" lon="1.40908">
        <ele>126.8</ele>
        <time>2025-05-29T10:26:25Z</time>
      </trkpt>
      <trkpt lat="44.49708" lon="1.40907">
        <ele>126.8</ele>
        <time>2025-05-29T10:26:26Z</time>
      </trkpt>
      <trkpt lat="44.4971" lon="1.40906">
        <ele>127</ele>
        <time>2025-05-29T10:26:27Z</time>
      </trkpt>
      <trkpt lat="44.4971" lon="1.40906">
        <ele>127.2</ele>
        <time>2025-05-29T10:26:28Z</time>
      </trkpt>
      <trkpt lat="44.49712" lon="1.40906">
        <ele>127.2</ele>
        <time>2025-05-29T10:26:29Z</time>
      </trkpt>
      <trkpt lat="44.49713" lon="1.40906">
        <ele>127.6</ele>
        <time>2025-05-29T10:26:30Z</time>
      </trkpt>
      <trkpt lat="44.49714" lon="1.40906">
        <ele>127.8</ele>
        <time>2025-05-29T10:26:31Z</time>
      </trkpt>
      <trkpt lat="44.49716" lon="1.40906">
        <ele>128</ele>
        <time>2025-05-29T10:26:32Z</time>
      </trkpt>
      <trkpt lat="44.49717" lon="1.40906">
        <ele>128.4</ele>
        <time>2025-05-29T10:26:33Z</time>
      </trkpt>
      <trkpt lat="44.49717" lon="1.40906">
        <ele>128.6</ele>
        <time>2025-05-29T10:26:34Z</time>
      </trkpt>
      <trkpt lat="44.49716" lon="1.40906">
        <ele>129</ele>
        <time>2025-05-29T10:26:35Z</time>
      </trkpt>
      <trkpt lat="44.49726" lon="1.40915">
        <ele>131.8</ele>
        <time>2025-05-29T10:26:58Z</time>
      </trkpt>
      <trkpt lat="44.49727" lon="1.40916">
        <ele>131.8</ele>
        <time>2025-05-29T10:26:59Z</time>
      </trkpt>
      <trkpt lat="44.49728" lon="1.40918">
        <ele>131.8</ele>
        <time>2025-05-29T10:27:00Z</time>
      </trkpt>
      <trkpt lat="44.49728" lon="1.4092">
        <ele>132</ele>
        <time>2025-05-29T10:27:01Z</time>
      </trkpt>
      <trkpt lat="44.49729" lon="1.40923">
        <ele>132.2</ele>
        <time>2025-05-29T10:27:02Z</time>
      </trkpt>
      <trkpt lat="44.4973" lon="1.40925">
        <ele>132.2</ele>
        <time>2025-05-29T10:27:03Z</time>
      </trkpt>
      <trkpt lat="44.4973" lon="1.40927">
        <ele>132.4</ele>
        <time>2025-05-29T10:27:04Z</time>
      </trkpt>
      <trkpt lat="44.49731" lon="1.40929">
        <ele>132.6</ele>
        <time>2025-05-29T10:27:05Z</time>
      </trkpt>
      <trkpt lat="44.49731" lon="1.40931">
        <ele>132.6</ele>
        <time>2025-05-29T10:27:06Z</time>
      </trkpt>
      <trkpt lat="44.49733" lon="1.40933">
        <ele>132.6</ele>
        <time>2025-05-29T10:27:07Z</time>
      </trkpt>
      <trkpt lat="44.49733" lon="1.40935">
        <ele>132.8</ele>
        <time>2025-05-29T10:27:08Z</time>
      </trkpt>
      <trkpt lat="44.49734" lon="1.40937">
        <ele>132.8</ele>
        <time>2025-05-29T10:27:09Z</time>
      </trkpt>
      <trkpt lat="44.49735" lon="1.40939">
        <ele>133</ele>
        <time>2025-05-29T10:27:10Z</time>
      </trkpt>
      <trkpt lat="44.49737" lon="1.4094">
        <ele>133</ele>
        <time>2025-05-29T10:27:11Z</time>
      </trkpt>
      <trkpt lat="44.49738" lon="1.40941">
        <ele>133.4</ele>
        <time>2025-05-29T10:27:12Z</time>
      </trkpt>
      <trkpt lat="44.49739" lon="1.40942">
        <ele>133.6</ele>
        <time>2025-05-29T10:27:13Z</time>
      </trkpt>
      <trkpt lat="44.49741" lon="1.40943">
        <ele>133.8</ele>
        <time>2025-05-29T10:27:14Z</time>
      </trkpt>
      <trkpt lat="44.49742" lon="1.40943">
        <ele>134</ele>
        <time>2025-05-29T10:27:15Z</time>
      </trkpt>
      <trkpt lat="44.49743" lon="1.40944">
        <ele>134.4</ele>
        <time>2025-05-29T10:27:16Z</time>
      </trkpt>
      <trkpt lat="44.49744" lon="1.40945">
        <ele>134.6</ele>
        <time>2025-05-29T10:27:17Z</time>
      </trkpt>
      <trkpt lat="44.49746" lon="1.40947">
        <ele>134.8</ele>
        <time>2025-05-29T10:27:18Z</time>
      </trkpt>
      <trkpt lat="44.49747" lon="1.40948">
        <ele>135</ele>
        <time>2025-05-29T10:27:19Z</time>
      </trkpt>
      <trkpt lat="44.49749" lon="1.40949">
        <ele>135.2</ele>
        <time>2025-05-29T10:27:20Z</time>
      </trkpt>
      <trkpt lat="44.4975" lon="1.40949">
        <ele>135.4</ele>
        <time>2025-05-29T10:27:21Z</time>
      </trkpt>
      <trkpt lat="44.49752" lon="1.4095">
        <ele>135.6</ele>
        <time>2025-05-29T10:27:22Z</time>
      </trkpt>
      <trkpt lat="44.49753" lon="1.4095">
        <ele>135.8</ele>
        <time>2025-05-29T10:27:23Z</time>
      </trkpt>
      <trkpt lat="44.49754" lon="1.40951">
        <ele>135.8</ele>
        <time>2025-05-29T10:27:24Z</time>
      </trkpt>
      <trkpt lat="44.49756" lon="1.40951">
        <ele>136</ele>
        <time>2025-05-29T10:27:25Z</time>
      </trkpt>
      <trkpt lat="44.49758" lon="1.40951">
        <ele>136.2</ele>
        <time>2025-05-29T10:27:26Z</time>
      </trkpt>
      <trkpt lat="44.49758" lon="1.40951">
        <ele>136.4</ele>
        <time>2025-05-29T10:27:27Z</time>
      </trkpt>
      <trkpt lat="44.4976" lon="1.40952">
        <ele>136.4</ele>
        <time>2025-05-29T10:27:28Z</time>
      </trkpt>
      <trkpt lat="44.49761" lon="1.40954">
        <ele>136.6</ele>
        <time>2025-05-29T10:27:29Z</time>
      </trkpt>
      <trkpt lat="44.49762" lon="1.40956">
        <ele>136.6</ele>
        <time>2025-05-29T10:27:30Z</time>
      </trkpt>
      <trkpt lat="44.49764" lon="1.40957">
        <ele>136.6</ele>
        <time>2025-05-29T10:27:31Z</time>
      </trkpt>
      <trkpt lat="44.49765" lon="1.40959">
        <ele>136.6</ele>
        <time>2025-05-29T10:27:32Z</time>
      </trkpt>
      <trkpt lat="44.49766" lon="1.40961">
        <ele>136.6</ele>
        <time>2025-05-29T10:27:33Z</time>
      </trkpt>
      <trkpt lat="44.49766" lon="1.40963">
        <ele>136.6</ele>
        <time>2025-05-29T10:27:34Z</time>
      </trkpt>
      <trkpt lat="44.49766" lon="1.40965">
        <ele>136.6</ele>
        <time>2025-05-29T10:27:35Z</time>
      </trkpt>
      <trkpt lat="44.49766" lon="1.40967">
        <ele>136.8</ele>
        <time>2025-05-29T10:27:36Z</time>
      </trkpt>
      <trkpt lat="44.49766" lon="1.40969">
        <ele>137</ele>
        <time>2025-05-29T10:27:37Z</time>
      </trkpt>
      <trkpt lat="44.49767" lon="1.40971">
        <ele>137</ele>
        <time>2025-05-29T10:27:38Z</time>
      </trkpt>
      <trkpt lat="44.49767" lon="1.40973">
        <ele>137</ele>
        <time>2025-05-29T10:27:39Z</time>
      </trkpt>
      <trkpt lat="44.49767" lon="1.40975">
        <ele>137.2</ele>
        <time>2025-05-29T10:27:40Z</time>
      </trkpt>
      <trkpt lat="44.49767" lon="1.40977">
        <ele>137.4</ele>
        <time>2025-05-29T10:27:41Z</time>
      </trkpt>
      <trkpt lat="44.49767" lon="1.40979">
        <ele>137.4</ele>
        <time>2025-05-29T10:27:42Z</time>
      </trkpt>
      <trkpt lat="44.49766" lon="1.40981">
        <ele>137.4</ele>
        <time>2025-05-29T10:27:43Z</time>
      </trkpt>
      <trkpt lat="44.49765" lon="1.40983">
        <ele>137.6</ele>
        <time>2025-05-29T10:27:44Z</time>
      </trkpt>
      <trkpt lat="44.49765" lon="1.40986">
        <ele>137.6</ele>
        <time>2025-05-29T10:27:45Z</time>
      </trkpt>
      <trkpt lat="44.49765" lon="1.40988">
        <ele>137.4</ele>
        <time>2025-05-29T10:27:46Z</time>
      </trkpt>
      <trkpt lat="44.49764" lon="1.4099">
        <ele>137.4</ele>
        <time>2025-05-29T10:27:47Z</time>
      </trkpt>
      <trkpt lat="44.49763" lon="1.40993">
        <ele>137.4</ele>
        <time>2025-05-29T10:27:48Z</time>
      </trkpt>
      <trkpt lat="44.49763" lon="1.40994">
        <ele>137.4</ele>
        <time>2025-05-29T10:27:49Z</time>
      </trkpt>
      <trkpt lat="44.49762" lon="1.40997">
        <ele>137.4</ele>
        <time>2025-05-29T10:27:50Z</time>
      </trkpt>
      <trkpt lat="44.49762" lon="1.40999">
        <ele>137.4</ele>
        <time>2025-05-29T10:27:51Z</time>
      </trkpt>
      <trkpt lat="44.49761" lon="1.41001">
        <ele>137.6</ele>
        <time>2025-05-29T10:27:52Z</time>
      </trkpt>
      <trkpt lat="44.49759" lon="1.41002">
        <ele>137.8</ele>
        <time>2025-05-29T10:27:53Z</time>
      </trkpt>
      <trkpt lat="44.49758" lon="1.41003">
        <ele>137.8</ele>
        <time>2025-05-29T10:27:54Z</time>
      </trkpt>
      <trkpt lat="44.49757" lon="1.41004">
        <ele>137.8</ele>
        <time>2025-05-29T10:27:55Z</time>
      </trkpt>
      <trkpt lat="44.49755" lon="1.41007">
        <ele>137.8</ele>
        <time>2025-05-29T10:27:56Z</time>
      </trkpt>
      <trkpt lat="44.49753" lon="1.41008">
        <ele>137.6</ele>
        <time>2025-05-29T10:27:57Z</time>
      </trkpt>
      <trkpt lat="44.4975" lon="1.41011">
        <ele>137.4</ele>
        <time>2025-05-29T10:27:58Z</time>
      </trkpt>
      <trkpt lat="44.49749" lon="1.41013">
        <ele>137.2</ele>
        <time>2025-05-29T10:27:59Z</time>
      </trkpt>
      <trkpt lat="44.49746" lon="1.41016">
        <ele>137</ele>
        <time>2025-05-29T10:28:00Z</time>
      </trkpt>
      <trkpt lat="44.49744" lon="1.41018">
        <ele>136.8</ele>
        <time>2025-05-29T10:28:01Z</time>
      </trkpt>
      <trkpt lat="44.49742" lon="1.41022">
        <ele>136.6</ele>
        <time>2025-05-29T10:28:02Z</time>
      </trkpt>
      <trkpt lat="44.49741" lon="1.41027">
        <ele>136.4</ele>
        <time>2025-05-29T10:28:03Z</time>
      </trkpt>
      <trkpt lat="44.4974" lon="1.41032">
        <ele>136</ele>
        <time>2025-05-29T10:28:04Z</time>
      </trkpt>
      <trkpt lat="44.4974" lon="1.41036">
        <ele>135.6</ele>
        <time>2025-05-29T10:28:05Z</time>
      </trkpt>
      <trkpt lat="44.4974" lon="1.41039">
        <ele>135.4</ele>
        <time>2025-05-29T10:28:06Z</time>
      </trkpt>
      <trkpt lat="44.4974" lon="1.41042">
        <ele>135.4</ele>
        <time>2025-05-29T10:28:07Z</time>
      </trkpt>
      <trkpt lat="44.4974" lon="1.41044">
        <ele>135.2</ele>
        <time>2025-05-29T10:28:08Z</time>
      </trkpt>
      <trkpt lat="44.4974" lon="1.41048">
        <ele>135.2</ele>
        <time>2025-05-29T10:28:09Z</time>
      </trkpt>
      <trkpt lat="44.4974" lon="1.4105">
        <ele>135.2</ele>
        <time>2025-05-29T10:28:10Z</time>
      </trkpt>
      <trkpt lat="44.4974" lon="1.41052">
        <ele>135.2</ele>
        <time>2025-05-29T10:28:11Z</time>
      </trkpt>
      <trkpt lat="44.4974" lon="1.41055">
        <ele>135.2</ele>
        <time>2025-05-29T10:28:12Z</time>
      </trkpt>
      <trkpt lat="44.49741" lon="1.41057">
        <ele>135.2</ele>
        <time>2025-05-29T10:28:13Z</time>
      </trkpt>
      <trkpt lat="44.49741" lon="1.41059">
        <ele>135.2</ele>
        <time>2025-05-29T10:28:14Z</time>
      </trkpt>
      <trkpt lat="44.49741" lon="1.41061">
        <ele>135.2</ele>
        <time>2025-05-29T10:28:15Z</time>
      </trkpt>
      <trkpt lat="44.49742" lon="1.41063">
        <ele>135.4</ele>
        <time>2025-05-29T10:28:16Z</time>
      </trkpt>
      <trkpt lat="44.49742" lon="1.41066">
        <ele>135.4</ele>
        <time>2025-05-29T10:28:17Z</time>
      </trkpt>
      <trkpt lat="44.49742" lon="1.41068">
        <ele>135.6</ele>
        <time>2025-05-29T10:28:18Z</time>
      </trkpt>
      <trkpt lat="44.49742" lon="1.4107">
        <ele>135.8</ele>
        <time>2025-05-29T10:28:19Z</time>
      </trkpt>
      <trkpt lat="44.49742" lon="1.41073">
        <ele>135.8</ele>
        <time>2025-05-29T10:28:20Z</time>
      </trkpt>
      <trkpt lat="44.49743" lon="1.41075">
        <ele>135.8</ele>
        <time>2025-05-29T10:28:21Z</time>
      </trkpt>
      <trkpt lat="44.49743" lon="1.41077">
        <ele>136</ele>
        <time>2025-05-29T10:28:22Z</time>
      </trkpt>
      <trkpt lat="44.49743" lon="1.41079">
        <ele>136</ele>
        <time>2025-05-29T10:28:23Z</time>
      </trkpt>
      <trkpt lat="44.49744" lon="1.41081">
        <ele>136</ele>
        <time>2025-05-29T10:28:24Z</time>
      </trkpt>
      <trkpt lat="44.49744" lon="1.41083">
        <ele>136</ele>
        <time>2025-05-29T10:28:25Z</time>
      </trkpt>
      <trkpt lat="44.49744" lon="1.41085">
        <ele>136.2</ele>
        <time>2025-05-29T10:28:26Z</time>
      </trkpt>
      <trkpt lat="44.49745" lon="1.41087">
        <ele>136.2</ele>
        <time>2025-05-29T10:28:27Z</time>
      </trkpt>
      <trkpt lat="44.49746" lon="1.41088">
        <ele>136.2</ele>
        <time>2025-05-29T10:28:28Z</time>
      </trkpt>
      <trkpt lat="44.49747" lon="1.4109">
        <ele>136.4</ele>
        <time>2025-05-29T10:28:29Z</time>
      </trkpt>
      <trkpt lat="44.49747" lon="1.41092">
        <ele>136.6</ele>
        <time>2025-05-29T10:28:30Z</time>
      </trkpt>
      <trkpt lat="44.49748" lon="1.41094">
        <ele>136.6</ele>
        <time>2025-05-29T10:28:31Z</time>
      </trkpt>
      <trkpt lat="44.49748" lon="1.41097">
        <ele>136.8</ele>
        <time>2025-05-29T10:28:32Z</time>
      </trkpt>
      <trkpt lat="44.49749" lon="1.41099">
        <ele>137</ele>
        <time>2025-05-29T10:28:33Z</time>
      </trkpt>
      <trkpt lat="44.49749" lon="1.41102">
        <ele>137</ele>
        <time>2025-05-29T10:28:34Z</time>
      </trkpt>
      <trkpt lat="44.49749" lon="1.41104">
        <ele>136.8</ele>
        <time>2025-05-29T10:28:35Z</time>
      </trkpt>
      <trkpt lat="44.4975" lon="1.41106">
        <ele>136.8</ele>
        <time>2025-05-29T10:28:36Z</time>
      </trkpt>
      <trkpt lat="44.4975" lon="1.41107">
        <ele>137</ele>
        <time>2025-05-29T10:28:37Z</time>
      </trkpt>
      <trkpt lat="44.4975" lon="1.41109">
        <ele>136.8</ele>
        <time>2025-05-29T10:28:38Z</time>
      </trkpt>
      <trkpt lat="44.49751" lon="1.41111">
        <ele>136.8</ele>
        <time>2025-05-29T10:28:39Z</time>
      </trkpt>
      <trkpt lat="44.49751" lon="1.41113">
        <ele>136.8</ele>
        <time>2025-05-29T10:28:40Z</time>
      </trkpt>
      <trkpt lat="44.49752" lon="1.41115">
        <ele>136.8</ele>
        <time>2025-05-29T10:28:41Z</time>
      </trkpt>
      <trkpt lat="44.49752" lon="1.41117">
        <ele>136.6</ele>
        <time>2025-05-29T10:28:42Z</time>
      </trkpt>
      <trkpt lat="44.49753" lon="1.41119">
        <ele>136.6</ele>
        <time>2025-05-29T10:28:43Z</time>
      </trkpt>
      <trkpt lat="44.49753" lon="1.41121">
        <ele>136.6</ele>
        <time>2025-05-29T10:28:44Z</time>
      </trkpt>
      <trkpt lat="44.49754" lon="1.41124">
        <ele>136.6</ele>
        <time>2025-05-29T10:28:45Z</time>
      </trkpt>
      <trkpt lat="44.49754" lon="1.41124">
        <ele>136.6</ele>
        <time>2025-05-29T10:28:46Z</time>
      </trkpt>
      <trkpt lat="44.49754" lon="1.41124">
        <ele>136.6</ele>
        <time>2025-05-29T10:28:47Z</time>
      </trkpt>
      <trkpt lat="44.49761" lon="1.4114">
        <ele>138.2</ele>
        <time>2025-05-29T10:29:18Z</time>
      </trkpt>
      <trkpt lat="44.49762" lon="1.41142">
        <ele>138.2</ele>
        <time>2025-05-29T10:29:19Z</time>
      </trkpt>
      <trkpt lat="44.49762" lon="1.41145">
        <ele>138.2</ele>
        <time>2025-05-29T10:29:20Z</time>
      </trkpt>
      <trkpt lat="44.49763" lon="1.41149">
        <ele>138.2</ele>
        <time>2025-05-29T10:29:21Z</time>
      </trkpt>
      <trkpt lat="44.49764" lon="1.41152">
        <ele>138</ele>
        <time>2025-05-29T10:29:22Z</time>
      </trkpt>
      <trkpt lat="44.49765" lon="1.41154">
        <ele>138</ele>
        <time>2025-05-29T10:29:23Z</time>
      </trkpt>
      <trkpt lat="44.49765" lon="1.41157">
        <ele>138</ele>
        <time>2025-05-29T10:29:24Z</time>
      </trkpt>
      <trkpt lat="44.49766" lon="1.41159">
        <ele>137.8</ele>
        <time>2025-05-29T10:29:25Z</time>
      </trkpt>
      <trkpt lat="44.49766" lon="1.41161">
        <ele>137.8</ele>
        <time>2025-05-29T10:29:26Z</time>
      </trkpt>
      <trkpt lat="44.49767" lon="1.41162">
        <ele>138</ele>
        <time>2025-05-29T10:29:27Z</time>
      </trkpt>
      <trkpt lat="44.49768" lon="1.41164">
        <ele>138</ele>
        <time>2025-05-29T10:29:28Z</time>
      </trkpt>
      <trkpt lat="44.49769" lon="1.41166">
        <ele>138</ele>
        <time>2025-05-29T10:29:29Z</time>
      </trkpt>
      <trkpt lat="44.49769" lon="1.41168">
        <ele>138</ele>
        <time>2025-05-29T10:29:30Z</time>
      </trkpt>
      <trkpt lat="44.4977" lon="1.4117">
        <ele>138.2</ele>
        <time>2025-05-29T10:29:31Z</time>
      </trkpt>
      <trkpt lat="44.49771" lon="1.41171">
        <ele>138.2</ele>
        <time>2025-05-29T10:29:32Z</time>
      </trkpt>
      <trkpt lat="44.49772" lon="1.41173">
        <ele>138.4</ele>
        <time>2025-05-29T10:29:33Z</time>
      </trkpt>
      <trkpt lat="44.49773" lon="1.41176">
        <ele>138.4</ele>
        <time>2025-05-29T10:29:34Z</time>
      </trkpt>
      <trkpt lat="44.49773" lon="1.41179">
        <ele>138.4</ele>
        <time>2025-05-29T10:29:35Z</time>
      </trkpt>
      <trkpt lat="44.49774" lon="1.41181">
        <ele>138.4</ele>
        <time>2025-05-29T10:29:36Z</time>
      </trkpt>
      <trkpt lat="44.49774" lon="1.41183">
        <ele>138.4</ele>
        <time>2025-05-29T10:29:37Z</time>
      </trkpt>
      <trkpt lat="44.49774" lon="1.41183">
        <ele>138.6</ele>
        <time>2025-05-29T10:29:38Z</time>
      </trkpt>
      <trkpt lat="44.49775" lon="1.41187">
        <ele>139.6</ele>
        <time>2025-05-29T10:31:13Z</time>
      </trkpt>
      <trkpt lat="44.49776" lon="1.41189">
        <ele>139.6</ele>
        <time>2025-05-29T10:31:14Z</time>
      </trkpt>
      <trkpt lat="44.49777" lon="1.41191">
        <ele>139.4</ele>
        <time>2025-05-29T10:31:15Z</time>
      </trkpt>
      <trkpt lat="44.49778" lon="1.41193">
        <ele>139.4</ele>
        <time>2025-05-29T10:31:16Z</time>
      </trkpt>
      <trkpt lat="44.49779" lon="1.41195">
        <ele>139.2</ele>
        <time>2025-05-29T10:31:17Z</time>
      </trkpt>
      <trkpt lat="44.4978" lon="1.41197">
        <ele>139.2</ele>
        <time>2025-05-29T10:31:18Z</time>
      </trkpt>
      <trkpt lat="44.49781" lon="1.41199">
        <ele>139.2</ele>
        <time>2025-05-29T10:31:19Z</time>
      </trkpt>
      <trkpt lat="44.49783" lon="1.412">
        <ele>139</ele>
        <time>2025-05-29T10:31:20Z</time>
      </trkpt>
      <trkpt lat="44.49784" lon="1.41202">
        <ele>139</ele>
        <time>2025-05-29T10:31:21Z</time>
      </trkpt>
      <trkpt lat="44.49786" lon="1.41203">
        <ele>139.2</ele>
        <time>2025-05-29T10:31:22Z</time>
      </trkpt>
      <trkpt lat="44.49788" lon="1.41204">
        <ele>139.2</ele>
        <time>2025-05-29T10:31:23Z</time>
      </trkpt>
      <trkpt lat="44.49789" lon="1.41205">
        <ele>139.4</ele>
        <time>2025-05-29T10:31:24Z</time>
      </trkpt>
      <trkpt lat="44.4979" lon="1.41206">
        <ele>139.6</ele>
        <time>2025-05-29T10:31:25Z</time>
      </trkpt>
      <trkpt lat="44.49792" lon="1.41207">
        <ele>139.8</ele>
        <time>2025-05-29T10:31:26Z</time>
      </trkpt>
      <trkpt lat="44.49794" lon="1.41208">
        <ele>140</ele>
        <time>2025-05-29T10:31:27Z</time>
      </trkpt>
      <trkpt lat="44.49795" lon="1.41208">
        <ele>140.2</ele>
        <time>2025-05-29T10:31:28Z</time>
      </trkpt>
      <trkpt lat="44.49797" lon="1.41209">
        <ele>140.2</ele>
        <time>2025-05-29T10:31:29Z</time>
      </trkpt>
      <trkpt lat="44.49799" lon="1.41209">
        <ele>140.4</ele>
        <time>2025-05-29T10:31:30Z</time>
      </trkpt>
      <trkpt lat="44.49801" lon="1.4121">
        <ele>140.4</ele>
        <time>2025-05-29T10:31:31Z</time>
      </trkpt>
      <trkpt lat="44.49803" lon="1.41212">
        <ele>140.4</ele>
        <time>2025-05-29T10:31:32Z</time>
      </trkpt>
      <trkpt lat="44.49805" lon="1.41212">
        <ele>140.4</ele>
        <time>2025-05-29T10:31:33Z</time>
      </trkpt>
      <trkpt lat="44.49806" lon="1.41213">
        <ele>140.6</ele>
        <time>2025-05-29T10:31:34Z</time>
      </trkpt>
      <trkpt lat="44.49807" lon="1.41213">
        <ele>140.6</ele>
        <time>2025-05-29T10:31:35Z</time>
      </trkpt>
      <trkpt lat="44.49808" lon="1.41214">
        <ele>140.6</ele>
        <time>2025-05-29T10:31:36Z</time>
      </trkpt>
      <trkpt lat="44.49809" lon="1.41215">
        <ele>140.6</ele>
        <time>2025-05-29T10:31:37Z</time>
      </trkpt>
      <trkpt lat="44.4981" lon="1.41217">
        <ele>140.8</ele>
        <time>2025-05-29T10:31:38Z</time>
      </trkpt>
      <trkpt lat="44.49811" lon="1.41218">
        <ele>140.6</ele>
        <time>2025-05-29T10:31:39Z</time>
      </trkpt>
      <trkpt lat="44.49813" lon="1.41221">
        <ele>140.6</ele>
        <time>2025-05-29T10:31:40Z</time>
      </trkpt>
      <trkpt lat="44.49814" lon="1.41223">
        <ele>140.4</ele>
        <time>2025-05-29T10:31:41Z</time>
      </trkpt>
      <trkpt lat="44.49816" lon="1.41225">
        <ele>140.4</ele>
        <time>2025-05-29T10:31:42Z</time>
      </trkpt>
      <trkpt lat="44.49818" lon="1.41226">
        <ele>140.2</ele>
        <time>2025-05-29T10:31:43Z</time>
      </trkpt>
      <trkpt lat="44.49819" lon="1.41228">
        <ele>140</ele>
        <time>2025-05-29T10:31:44Z</time>
      </trkpt>
      <trkpt lat="44.49821" lon="1.4123">
        <ele>140</ele>
        <time>2025-05-29T10:31:45Z</time>
      </trkpt>
      <trkpt lat="44.49823" lon="1.41232">
        <ele>140</ele>
        <time>2025-05-29T10:31:46Z</time>
      </trkpt>
      <trkpt lat="44.49825" lon="1.41234">
        <ele>140</ele>
        <time>2025-05-29T10:31:47Z</time>
      </trkpt>
      <trkpt lat="44.49827" lon="1.41234">
        <ele>140</ele>
        <time>2025-05-29T10:31:48Z</time>
      </trkpt>
      <trkpt lat="44.49828" lon="1.41235">
        <ele>140</ele>
        <time>2025-05-29T10:31:49Z</time>
      </trkpt>
      <trkpt lat="44.49829" lon="1.41235">
        <ele>140</ele>
        <time>2025-05-29T10:31:50Z</time>
      </trkpt>
      <trkpt lat="44.49829" lon="1.41236">
        <ele>140.2</ele>
        <time>2025-05-29T10:31:51Z</time>
      </trkpt>
      <trkpt lat="44.49829" lon="1.41235">
        <ele>140.2</ele>
        <time>2025-05-29T10:31:52Z</time>
      </trkpt>
      <trkpt lat="44.49842" lon="1.41241">
        <ele>140.8</ele>
        <time>2025-05-29T10:32:25Z</time>
      </trkpt>
      <trkpt lat="44.49843" lon="1.41241">
        <ele>140.8</ele>
        <time>2025-05-29T10:32:26Z</time>
      </trkpt>
      <trkpt lat="44.49844" lon="1.4124">
        <ele>140.8</ele>
        <time>2025-05-29T10:32:27Z</time>
      </trkpt>
      <trkpt lat="44.49844" lon="1.41241">
        <ele>141</ele>
        <time>2025-05-29T10:32:28Z</time>
      </trkpt>
      <trkpt lat="44.49845" lon="1.41241">
        <ele>141.2</ele>
        <time>2025-05-29T10:32:29Z</time>
      </trkpt>
      <trkpt lat="44.49846" lon="1.41241">
        <ele>141.4</ele>
        <time>2025-05-29T10:32:30Z</time>
      </trkpt>
      <trkpt lat="44.49846" lon="1.41241">
        <ele>141.6</ele>
        <time>2025-05-29T10:32:31Z</time>
      </trkpt>
      <trkpt lat="44.49852" lon="1.41242">
        <ele>141.8</ele>
        <time>2025-05-29T10:32:37Z</time>
      </trkpt>
      <trkpt lat="44.49854" lon="1.41241">
        <ele>141.8</ele>
        <time>2025-05-29T10:32:38Z</time>
      </trkpt>
      <trkpt lat="44.49856" lon="1.41242">
        <ele>141.8</ele>
        <time>2025-05-29T10:32:39Z</time>
      </trkpt>
      <trkpt lat="44.49858" lon="1.41242">
        <ele>141.8</ele>
        <time>2025-05-29T10:32:40Z</time>
      </trkpt>
      <trkpt lat="44.49859" lon="1.41242">
        <ele>141.8</ele>
        <time>2025-05-29T10:32:41Z</time>
      </trkpt>
      <trkpt lat="44.49861" lon="1.41242">
        <ele>141.8</ele>
        <time>2025-05-29T10:32:42Z</time>
      </trkpt>
      <trkpt lat="44.49863" lon="1.41242">
        <ele>142</ele>
        <time>2025-05-29T10:32:43Z</time>
      </trkpt>
      <trkpt lat="44.49865" lon="1.41241">
        <ele>142</ele>
        <time>2025-05-29T10:32:44Z</time>
      </trkpt>
      <trkpt lat="44.49867" lon="1.41241">
        <ele>142</ele>
        <time>2025-05-29T10:32:45Z</time>
      </trkpt>
      <trkpt lat="44.49869" lon="1.41241">
        <ele>142</ele>
        <time>2025-05-29T10:32:46Z</time>
      </trkpt>
      <trkpt lat="44.49872" lon="1.41241">
        <ele>141.8</ele>
        <time>2025-05-29T10:32:47Z</time>
      </trkpt>
      <trkpt lat="44.49874" lon="1.4124">
        <ele>141.8</ele>
        <time>2025-05-29T10:32:48Z</time>
      </trkpt>
      <trkpt lat="44.49877" lon="1.41239">
        <ele>141.6</ele>
        <time>2025-05-29T10:32:49Z</time>
      </trkpt>
      <trkpt lat="44.49879" lon="1.41238">
        <ele>141.6</ele>
        <time>2025-05-29T10:32:50Z</time>
      </trkpt>
      <trkpt lat="44.49881" lon="1.41237">
        <ele>141.6</ele>
        <time>2025-05-29T10:32:51Z</time>
      </trkpt>
      <trkpt lat="44.49883" lon="1.41235">
        <ele>141.4</ele>
        <time>2025-05-29T10:32:52Z</time>
      </trkpt>
      <trkpt lat="44.49884" lon="1.41234">
        <ele>141.4</ele>
        <time>2025-05-29T10:32:53Z</time>
      </trkpt>
      <trkpt lat="44.49886" lon="1.41233">
        <ele>141.6</ele>
        <time>2025-05-29T10:32:54Z</time>
      </trkpt>
      <trkpt lat="44.49888" lon="1.41231">
        <ele>141.6</ele>
        <time>2025-05-29T10:32:55Z</time>
      </trkpt>
      <trkpt lat="44.4989" lon="1.4123">
        <ele>141.6</ele>
        <time>2025-05-29T10:32:56Z</time>
      </trkpt>
      <trkpt lat="44.49892" lon="1.41229">
        <ele>141.6</ele>
        <time>2025-05-29T10:32:57Z</time>
      </trkpt>
      <trkpt lat="44.49894" lon="1.41227">
        <ele>141.6</ele>
        <time>2025-05-29T10:32:58Z</time>
      </trkpt>
      <trkpt lat="44.49896" lon="1.41225">
        <ele>141.8</ele>
        <time>2025-05-29T10:32:59Z</time>
      </trkpt>
      <trkpt lat="44.49899" lon="1.41224">
        <ele>141.8</ele>
        <time>2025-05-29T10:33:00Z</time>
      </trkpt>
      <trkpt lat="44.49901" lon="1.41222">
        <ele>142</ele>
        <time>2025-05-29T10:33:01Z</time>
      </trkpt>
      <trkpt lat="44.49902" lon="1.41221">
        <ele>142</ele>
        <time>2025-05-29T10:33:02Z</time>
      </trkpt>
      <trkpt lat="44.49905" lon="1.4122">
        <ele>142.2</ele>
        <time>2025-05-29T10:33:03Z</time>
      </trkpt>
      <trkpt lat="44.49907" lon="1.41219">
        <ele>142.4</ele>
        <time>2025-05-29T10:33:04Z</time>
      </trkpt>
      <trkpt lat="44.49909" lon="1.41218">
        <ele>142.4</ele>
        <time>2025-05-29T10:33:05Z</time>
      </trkpt>
      <trkpt lat="44.49911" lon="1.41217">
        <ele>142.4</ele>
        <time>2025-05-29T10:33:06Z</time>
      </trkpt>
      <trkpt lat="44.49914" lon="1.41215">
        <ele>142.4</ele>
        <time>2025-05-29T10:33:07Z</time>
      </trkpt>
      <trkpt lat="44.49916" lon="1.41214">
        <ele>142.4</ele>
        <time>2025-05-29T10:33:08Z</time>
      </trkpt>
      <trkpt lat="44.49918" lon="1.41213">
        <ele>142.4</ele>
        <time>2025-05-29T10:33:09Z</time>
      </trkpt>
      <trkpt lat="44.4992" lon="1.41211">
        <ele>142.4</ele>
        <time>2025-05-29T10:33:10Z</time>
      </trkpt>
      <trkpt lat="44.49922" lon="1.4121">
        <ele>142.4</ele>
        <time>2025-05-29T10:33:11Z</time>
      </trkpt>
      <trkpt lat="44.49925" lon="1.41209">
        <ele>142.6</ele>
        <time>2025-05-29T10:33:12Z</time>
      </trkpt>
      <trkpt lat="44.49927" lon="1.41207">
        <ele>142.6</ele>
        <time>2025-05-29T10:33:13Z</time>
      </trkpt>
      <trkpt lat="44.49929" lon="1.41206">
        <ele>142.6</ele>
        <time>2025-05-29T10:33:14Z</time>
      </trkpt>
      <trkpt lat="44.49932" lon="1.41205">
        <ele>142.8</ele>
        <time>2025-05-29T10:33:15Z</time>
      </trkpt>
      <trkpt lat="44.49935" lon="1.41203">
        <ele>142.8</ele>
        <time>2025-05-29T10:33:16Z</time>
      </trkpt>
      <trkpt lat="44.49938" lon="1.41201">
        <ele>142.6</ele>
        <time>2025-05-29T10:33:17Z</time>
      </trkpt>
      <trkpt lat="44.4994" lon="1.412">
        <ele>142.4</ele>
        <time>2025-05-29T10:33:18Z</time>
      </trkpt>
      <trkpt lat="44.49942" lon="1.41198">
        <ele>142.6</ele>
        <time>2025-05-29T10:33:19Z</time>
      </trkpt>
      <trkpt lat="44.49944" lon="1.41197">
        <ele>142.4</ele>
        <time>2025-05-29T10:33:20Z</time>
      </trkpt>
      <trkpt lat="44.49947" lon="1.41195">
        <ele>142.4</ele>
        <time>2025-05-29T10:33:21Z</time>
      </trkpt>
      <trkpt lat="44.49949" lon="1.41193">
        <ele>142.4</ele>
        <time>2025-05-29T10:33:22Z</time>
      </trkpt>
      <trkpt lat="44.49952" lon="1.41191">
        <ele>142.4</ele>
        <time>2025-05-29T10:33:23Z</time>
      </trkpt>
      <trkpt lat="44.49954" lon="1.41189">
        <ele>142.2</ele>
        <time>2025-05-29T10:33:24Z</time>
      </trkpt>
      <trkpt lat="44.49956" lon="1.41187">
        <ele>142.2</ele>
        <time>2025-05-29T10:33:25Z</time>
      </trkpt>
      <trkpt lat="44.49958" lon="1.41186">
        <ele>142.2</ele>
        <time>2025-05-29T10:33:26Z</time>
      </trkpt>
      <trkpt lat="44.49961" lon="1.41183">
        <ele>142.4</ele>
        <time>2025-05-29T10:33:27Z</time>
      </trkpt>
      <trkpt lat="44.49963" lon="1.41182">
        <ele>142.4</ele>
        <time>2025-05-29T10:33:28Z</time>
      </trkpt>
      <trkpt lat="44.49965" lon="1.4118">
        <ele>142.6</ele>
        <time>2025-05-29T10:33:29Z</time>
      </trkpt>
      <trkpt lat="44.49967" lon="1.41178">
        <ele>142.8</ele>
        <time>2025-05-29T10:33:30Z</time>
      </trkpt>
      <trkpt lat="44.49969" lon="1.41176">
        <ele>143</ele>
        <time>2025-05-29T10:33:31Z</time>
      </trkpt>
      <trkpt lat="44.49971" lon="1.41174">
        <ele>143.4</ele>
        <time>2025-05-29T10:33:32Z</time>
      </trkpt>
      <trkpt lat="44.49973" lon="1.41172">
        <ele>143.6</ele>
        <time>2025-05-29T10:33:33Z</time>
      </trkpt>
      <trkpt lat="44.49974" lon="1.4117">
        <ele>143.8</ele>
        <time>2025-05-29T10:33:34Z</time>
      </trkpt>
      <trkpt lat="44.49975" lon="1.41169">
        <ele>144</ele>
        <time>2025-05-29T10:33:35Z</time>
      </trkpt>
      <trkpt lat="44.49977" lon="1.41168">
        <ele>144.2</ele>
        <time>2025-05-29T10:33:36Z</time>
      </trkpt>
      <trkpt lat="44.4998" lon="1.41167">
        <ele>144.4</ele>
        <time>2025-05-29T10:33:37Z</time>
      </trkpt>
      <trkpt lat="44.49982" lon="1.41165">
        <ele>144.4</ele>
        <time>2025-05-29T10:33:38Z</time>
      </trkpt>
      <trkpt lat="44.49984" lon="1.41165">
        <ele>144.4</ele>
        <time>2025-05-29T10:33:39Z</time>
      </trkpt>
      <trkpt lat="44.49986" lon="1.41164">
        <ele>144.2</ele>
        <time>2025-05-29T10:33:40Z</time>
      </trkpt>
      <trkpt lat="44.49989" lon="1.41162">
        <ele>144.2</ele>
        <time>2025-05-29T10:33:41Z</time>
      </trkpt>
      <trkpt lat="44.49991" lon="1.41161">
        <ele>144.2</ele>
        <time>2025-05-29T10:33:42Z</time>
      </trkpt>
      <trkpt lat="44.49993" lon="1.4116">
        <ele>144.2</ele>
        <time>2025-05-29T10:33:43Z</time>
      </trkpt>
      <trkpt lat="44.49995" lon="1.41159">
        <ele>144.2</ele>
        <time>2025-05-29T10:33:44Z</time>
      </trkpt>
      <trkpt lat="44.49997" lon="1.41158">
        <ele>144.2</ele>
        <time>2025-05-29T10:33:45Z</time>
      </trkpt>
      <trkpt lat="44.5" lon="1.41157">
        <ele>144.4</ele>
        <time>2025-05-29T10:33:46Z</time>
      </trkpt>
      <trkpt lat="44.50002" lon="1.41156">
        <ele>144.4</ele>
        <time>2025-05-29T10:33:47Z</time>
      </trkpt>
      <trkpt lat="44.50004" lon="1.41156">
        <ele>144.6</ele>
        <time>2025-05-29T10:33:48Z</time>
      </trkpt>
      <trkpt lat="44.50006" lon="1.41155">
        <ele>144.6</ele>
        <time>2025-05-29T10:33:49Z</time>
      </trkpt>
      <trkpt lat="44.50009" lon="1.41154">
        <ele>144.8</ele>
        <time>2025-05-29T10:33:50Z</time>
      </trkpt>
      <trkpt lat="44.50011" lon="1.41153">
        <ele>144.8</ele>
        <time>2025-05-29T10:33:51Z</time>
      </trkpt>
      <trkpt lat="44.50013" lon="1.41153">
        <ele>145</ele>
        <time>2025-05-29T10:33:52Z</time>
      </trkpt>
      <trkpt lat="44.50015" lon="1.41152">
        <ele>145.2</ele>
        <time>2025-05-29T10:33:53Z</time>
      </trkpt>
      <trkpt lat="44.50017" lon="1.41152">
        <ele>145.4</ele>
        <time>2025-05-29T10:33:54Z</time>
      </trkpt>
      <trkpt lat="44.5002" lon="1.4115">
        <ele>145.6</ele>
        <time>2025-05-29T10:33:55Z</time>
      </trkpt>
      <trkpt lat="44.50022" lon="1.41149">
        <ele>145.8</ele>
        <time>2025-05-29T10:33:56Z</time>
      </trkpt>
      <trkpt lat="44.50024" lon="1.41149">
        <ele>146</ele>
        <time>2025-05-29T10:33:57Z</time>
      </trkpt>
      <trkpt lat="44.50026" lon="1.41148">
        <ele>146</ele>
        <time>2025-05-29T10:33:58Z</time>
      </trkpt>
      <trkpt lat="44.50027" lon="1.41147">
        <ele>146.2</ele>
        <time>2025-05-29T10:33:59Z</time>
      </trkpt>
      <trkpt lat="44.50029" lon="1.41147">
        <ele>146.4</ele>
        <time>2025-05-29T10:34:00Z</time>
      </trkpt>
      <trkpt lat="44.50031" lon="1.41147">
        <ele>146.6</ele>
        <time>2025-05-29T10:34:01Z</time>
      </trkpt>
      <trkpt lat="44.50034" lon="1.41147">
        <ele>146.6</ele>
        <time>2025-05-29T10:34:02Z</time>
      </trkpt>
      <trkpt lat="44.50036" lon="1.41146">
        <ele>146.6</ele>
        <time>2025-05-29T10:34:03Z</time>
      </trkpt>
      <trkpt lat="44.50038" lon="1.41146">
        <ele>146.8</ele>
        <time>2025-05-29T10:34:04Z</time>
      </trkpt>
      <trkpt lat="44.5004" lon="1.41146">
        <ele>146.8</ele>
        <time>2025-05-29T10:34:05Z</time>
      </trkpt>
      <trkpt lat="44.50043" lon="1.41146">
        <ele>146.8</ele>
        <time>2025-05-29T10:34:06Z</time>
      </trkpt>
      <trkpt lat="44.50045" lon="1.41146">
        <ele>146.6</ele>
        <time>2025-05-29T10:34:07Z</time>
      </trkpt>
      <trkpt lat="44.50048" lon="1.41146">
        <ele>146.6</ele>
        <time>2025-05-29T10:34:08Z</time>
      </trkpt>
      <trkpt lat="44.50051" lon="1.41146">
        <ele>146.6</ele>
        <time>2025-05-29T10:34:09Z</time>
      </trkpt>
      <trkpt lat="44.50053" lon="1.41146">
        <ele>146.6</ele>
        <time>2025-05-29T10:34:10Z</time>
      </trkpt>
      <trkpt lat="44.50055" lon="1.41146">
        <ele>146.6</ele>
        <time>2025-05-29T10:34:11Z</time>
      </trkpt>
      <trkpt lat="44.50057" lon="1.41146">
        <ele>146.8</ele>
        <time>2025-05-29T10:34:12Z</time>
      </trkpt>
      <trkpt lat="44.50059" lon="1.41147">
        <ele>146.8</ele>
        <time>2025-05-29T10:34:13Z</time>
      </trkpt>
      <trkpt lat="44.50061" lon="1.41147">
        <ele>146.8</ele>
        <time>2025-05-29T10:34:14Z</time>
      </trkpt>
      <trkpt lat="44.50064" lon="1.41147">
        <ele>146.6</ele>
        <time>2025-05-29T10:34:15Z</time>
      </trkpt>
      <trkpt lat="44.50067" lon="1.41146">
        <ele>146.6</ele>
        <time>2025-05-29T10:34:16Z</time>
      </trkpt>
      <trkpt lat="44.50068" lon="1.41148">
        <ele>146.6</ele>
        <time>2025-05-29T10:34:17Z</time>
      </trkpt>
      <trkpt lat="44.5007" lon="1.4115">
        <ele>146.6</ele>
        <time>2025-05-29T10:34:18Z</time>
      </trkpt>
      <trkpt lat="44.50072" lon="1.4115">
        <ele>146.6</ele>
        <time>2025-05-29T10:34:19Z</time>
      </trkpt>
      <trkpt lat="44.50075" lon="1.41151">
        <ele>146.6</ele>
        <time>2025-05-29T10:34:20Z</time>
      </trkpt>
      <trkpt lat="44.50077" lon="1.41151">
        <ele>146.6</ele>
        <time>2025-05-29T10:34:21Z</time>
      </trkpt>
      <trkpt lat="44.50079" lon="1.41151">
        <ele>146.6</ele>
        <time>2025-05-29T10:34:22Z</time>
      </trkpt>
      <trkpt lat="44.50081" lon="1.41152">
        <ele>146.6</ele>
        <time>2025-05-29T10:34:23Z</time>
      </trkpt>
      <trkpt lat="44.50084" lon="1.41152">
        <ele>146.6</ele>
        <time>2025-05-29T10:34:24Z</time>
      </trkpt>
      <trkpt lat="44.50086" lon="1.41153">
        <ele>146.6</ele>
        <time>2025-05-29T10:34:25Z</time>
      </trkpt>
      <trkpt lat="44.50088" lon="1.41154">
        <ele>146.6</ele>
        <time>2025-05-29T10:34:26Z</time>
      </trkpt>
      <trkpt lat="44.50091" lon="1.41155">
        <ele>146.6</ele>
        <time>2025-05-29T10:34:27Z</time>
      </trkpt>
      <trkpt lat="44.50094" lon="1.41155">
        <ele>146.6</ele>
        <time>2025-05-29T10:34:28Z</time>
      </trkpt>
      <trkpt lat="44.50096" lon="1.41156">
        <ele>146.6</ele>
        <time>2025-05-29T10:34:29Z</time>
      </trkpt>
      <trkpt lat="44.50099" lon="1.41158">
        <ele>146.6</ele>
        <time>2025-05-29T10:34:30Z</time>
      </trkpt>
      <trkpt lat="44.50102" lon="1.41159">
        <ele>146.6</ele>
        <time>2025-05-29T10:34:31Z</time>
      </trkpt>
      <trkpt lat="44.50105" lon="1.41159">
        <ele>146.6</ele>
        <time>2025-05-29T10:34:32Z</time>
      </trkpt>
      <trkpt lat="44.50107" lon="1.4116">
        <ele>146.4</ele>
        <time>2025-05-29T10:34:33Z</time>
      </trkpt>
      <trkpt lat="44.5011" lon="1.4116">
        <ele>146.4</ele>
        <time>2025-05-29T10:34:34Z</time>
      </trkpt>
      <trkpt lat="44.50113" lon="1.41162">
        <ele>146.4</ele>
        <time>2025-05-29T10:34:35Z</time>
      </trkpt>
      <trkpt lat="44.50116" lon="1.41162">
        <ele>146.2</ele>
        <time>2025-05-29T10:34:36Z</time>
      </trkpt>
      <trkpt lat="44.50118" lon="1.41161">
        <ele>146.2</ele>
        <time>2025-05-29T10:34:37Z</time>
      </trkpt>
      <trkpt lat="44.50121" lon="1.41161">
        <ele>146.2</ele>
        <time>2025-05-29T10:34:38Z</time>
      </trkpt>
      <trkpt lat="44.50123" lon="1.41162">
        <ele>146.4</ele>
        <time>2025-05-29T10:34:39Z</time>
      </trkpt>
      <trkpt lat="44.50125" lon="1.41161">
        <ele>146.6</ele>
        <time>2025-05-29T10:34:40Z</time>
      </trkpt>
      <trkpt lat="44.50128" lon="1.41161">
        <ele>146.8</ele>
        <time>2025-05-29T10:34:41Z</time>
      </trkpt>
      <trkpt lat="44.5013" lon="1.4116">
        <ele>147</ele>
        <time>2025-05-29T10:34:42Z</time>
      </trkpt>
      <trkpt lat="44.50132" lon="1.41158">
        <ele>147.2</ele>
        <time>2025-05-29T10:34:43Z</time>
      </trkpt>
      <trkpt lat="44.50135" lon="1.41157">
        <ele>147.4</ele>
        <time>2025-05-29T10:34:44Z</time>
      </trkpt>
      <trkpt lat="44.50137" lon="1.41156">
        <ele>147.6</ele>
        <time>2025-05-29T10:34:45Z</time>
      </trkpt>
      <trkpt lat="44.50139" lon="1.41155">
        <ele>147.8</ele>
        <time>2025-05-29T10:34:46Z</time>
      </trkpt>
      <trkpt lat="44.50141" lon="1.41154">
        <ele>148.2</ele>
        <time>2025-05-29T10:34:47Z</time>
      </trkpt>
      <trkpt lat="44.50144" lon="1.41154">
        <ele>148.4</ele>
        <time>2025-05-29T10:34:48Z</time>
      </trkpt>
      <trkpt lat="44.50146" lon="1.41152">
        <ele>148.6</ele>
        <time>2025-05-29T10:34:49Z</time>
      </trkpt>
      <trkpt lat="44.50148" lon="1.41151">
        <ele>148.8</ele>
        <time>2025-05-29T10:34:50Z</time>
      </trkpt>
      <trkpt lat="44.5015" lon="1.41149">
        <ele>148.8</ele>
        <time>2025-05-29T10:34:51Z</time>
      </trkpt>
      <trkpt lat="44.50151" lon="1.41146">
        <ele>149</ele>
        <time>2025-05-29T10:34:52Z</time>
      </trkpt>
      <trkpt lat="44.50153" lon="1.41145">
        <ele>149</ele>
        <time>2025-05-29T10:34:53Z</time>
      </trkpt>
      <trkpt lat="44.50154" lon="1.41144">
        <ele>149.2</ele>
        <time>2025-05-29T10:34:54Z</time>
      </trkpt>
      <trkpt lat="44.50155" lon="1.41142">
        <ele>149.4</ele>
        <time>2025-05-29T10:34:55Z</time>
      </trkpt>
      <trkpt lat="44.50156" lon="1.41141">
        <ele>149.6</ele>
        <time>2025-05-29T10:34:56Z</time>
      </trkpt>
      <trkpt lat="44.50157" lon="1.4114">
        <ele>149.8</ele>
        <time>2025-05-29T10:34:57Z</time>
      </trkpt>
      <trkpt lat="44.50157" lon="1.41138">
        <ele>150</ele>
        <time>2025-05-29T10:34:58Z</time>
      </trkpt>
      <trkpt lat="44.50158" lon="1.41137">
        <ele>150.2</ele>
        <time>2025-05-29T10:34:59Z</time>
      </trkpt>
      <trkpt lat="44.50159" lon="1.41136">
        <ele>150.4</ele>
        <time>2025-05-29T10:35:00Z</time>
      </trkpt>
      <trkpt lat="44.5016" lon="1.41134">
        <ele>150.6</ele>
        <time>2025-05-29T10:35:01Z</time>
      </trkpt>
      <trkpt lat="44.50161" lon="1.41132">
        <ele>150.8</ele>
        <time>2025-05-29T10:35:02Z</time>
      </trkpt>
      <trkpt lat="44.50162" lon="1.4113">
        <ele>151</ele>
        <time>2025-05-29T10:35:03Z</time>
      </trkpt>
      <trkpt lat="44.50162" lon="1.41128">
        <ele>151</ele>
        <time>2025-05-29T10:35:04Z</time>
      </trkpt>
      <trkpt lat="44.50163" lon="1.41126">
        <ele>151.2</ele>
        <time>2025-05-29T10:35:05Z</time>
      </trkpt>
      <trkpt lat="44.50164" lon="1.41124">
        <ele>151.4</ele>
        <time>2025-05-29T10:35:06Z</time>
      </trkpt>
      <trkpt lat="44.50165" lon="1.41122">
        <ele>151.6</ele>
        <time>2025-05-29T10:35:07Z</time>
      </trkpt>
      <trkpt lat="44.50166" lon="1.4112">
        <ele>151.8</ele>
        <time>2025-05-29T10:35:08Z</time>
      </trkpt>
      <trkpt lat="44.50167" lon="1.41119">
        <ele>152</ele>
        <time>2025-05-29T10:35:09Z</time>
      </trkpt>
      <trkpt lat="44.50168" lon="1.41119">
        <ele>152.2</ele>
        <time>2025-05-29T10:35:10Z</time>
      </trkpt>
      <trkpt lat="44.50169" lon="1.41118">
        <ele>152.4</ele>
        <time>2025-05-29T10:35:11Z</time>
      </trkpt>
      <trkpt lat="44.5017" lon="1.41117">
        <ele>152.6</ele>
        <time>2025-05-29T10:35:12Z</time>
      </trkpt>
      <trkpt lat="44.50171" lon="1.41115">
        <ele>152.8</ele>
        <time>2025-05-29T10:35:13Z</time>
      </trkpt>
      <trkpt lat="44.50172" lon="1.41114">
        <ele>152.8</ele>
        <time>2025-05-29T10:35:14Z</time>
      </trkpt>
      <trkpt lat="44.50172" lon="1.41112">
        <ele>153</ele>
        <time>2025-05-29T10:35:15Z</time>
      </trkpt>
      <trkpt lat="44.50173" lon="1.4111">
        <ele>153</ele>
        <time>2025-05-29T10:35:16Z</time>
      </trkpt>
      <trkpt lat="44.50174" lon="1.41108">
        <ele>153</ele>
        <time>2025-05-29T10:35:17Z</time>
      </trkpt>
      <trkpt lat="44.50175" lon="1.41106">
        <ele>153.2</ele>
        <time>2025-05-29T10:35:18Z</time>
      </trkpt>
      <trkpt lat="44.50175" lon="1.41104">
        <ele>153.4</ele>
        <time>2025-05-29T10:35:19Z</time>
      </trkpt>
      <trkpt lat="44.50176" lon="1.41102">
        <ele>153.4</ele>
        <time>2025-05-29T10:35:20Z</time>
      </trkpt>
      <trkpt lat="44.50176" lon="1.41101">
        <ele>153.6</ele>
        <time>2025-05-29T10:35:21Z</time>
      </trkpt>
      <trkpt lat="44.50177" lon="1.41099">
        <ele>153.8</ele>
        <time>2025-05-29T10:35:22Z</time>
      </trkpt>
      <trkpt lat="44.50177" lon="1.41097">
        <ele>154</ele>
        <time>2025-05-29T10:35:23Z</time>
      </trkpt>
      <trkpt lat="44.50178" lon="1.41095">
        <ele>154</ele>
        <time>2025-05-29T10:35:24Z</time>
      </trkpt>
      <trkpt lat="44.50179" lon="1.41093">
        <ele>154.2</ele>
        <time>2025-05-29T10:35:25Z</time>
      </trkpt>
      <trkpt lat="44.5018" lon="1.41091">
        <ele>154.2</ele>
        <time>2025-05-29T10:35:26Z</time>
      </trkpt>
      <trkpt lat="44.50181" lon="1.41089">
        <ele>154.4</ele>
        <time>2025-05-29T10:35:27Z</time>
      </trkpt>
      <trkpt lat="44.50182" lon="1.41087">
        <ele>154.6</ele>
        <time>2025-05-29T10:35:28Z</time>
      </trkpt>
      <trkpt lat="44.50182" lon="1.41085">
        <ele>154.8</ele>
        <time>2025-05-29T10:35:29Z</time>
      </trkpt>
      <trkpt lat="44.50183" lon="1.41083">
        <ele>154.8</ele>
        <time>2025-05-29T10:35:30Z</time>
      </trkpt>
      <trkpt lat="44.50184" lon="1.41082">
        <ele>155</ele>
        <time>2025-05-29T10:35:31Z</time>
      </trkpt>
      <trkpt lat="44.50184" lon="1.4108">
        <ele>155.2</ele>
        <time>2025-05-29T10:35:32Z</time>
      </trkpt>
      <trkpt lat="44.50185" lon="1.41078">
        <ele>155.4</ele>
        <time>2025-05-29T10:35:33Z</time>
      </trkpt>
      <trkpt lat="44.50186" lon="1.41076">
        <ele>155.4</ele>
        <time>2025-05-29T10:35:34Z</time>
      </trkpt>
      <trkpt lat="44.50186" lon="1.41075">
        <ele>155.6</ele>
        <time>2025-05-29T10:35:35Z</time>
      </trkpt>
      <trkpt lat="44.50187" lon="1.41073">
        <ele>155.8</ele>
        <time>2025-05-29T10:35:36Z</time>
      </trkpt>
      <trkpt lat="44.50187" lon="1.41071">
        <ele>156</ele>
        <time>2025-05-29T10:35:37Z</time>
      </trkpt>
      <trkpt lat="44.50188" lon="1.41069">
        <ele>156</ele>
        <time>2025-05-29T10:35:38Z</time>
      </trkpt>
      <trkpt lat="44.50188" lon="1.41067">
        <ele>156.2</ele>
        <time>2025-05-29T10:35:39Z</time>
      </trkpt>
      <trkpt lat="44.50189" lon="1.41065">
        <ele>156.4</ele>
        <time>2025-05-29T10:35:40Z</time>
      </trkpt>
      <trkpt lat="44.5019" lon="1.41063">
        <ele>156.6</ele>
        <time>2025-05-29T10:35:41Z</time>
      </trkpt>
      <trkpt lat="44.50191" lon="1.41062">
        <ele>156.8</ele>
        <time>2025-05-29T10:35:42Z</time>
      </trkpt>
      <trkpt lat="44.50192" lon="1.4106">
        <ele>157</ele>
        <time>2025-05-29T10:35:43Z</time>
      </trkpt>
      <trkpt lat="44.50193" lon="1.41059">
        <ele>157.2</ele>
        <time>2025-05-29T10:35:44Z</time>
      </trkpt>
      <trkpt lat="44.50194" lon="1.41058">
        <ele>157.2</ele>
        <time>2025-05-29T10:35:45Z</time>
      </trkpt>
      <trkpt lat="44.50195" lon="1.41056">
        <ele>157.4</ele>
        <time>2025-05-29T10:35:46Z</time>
      </trkpt>
      <trkpt lat="44.50195" lon="1.41054">
        <ele>157.6</ele>
        <time>2025-05-29T10:35:47Z</time>
      </trkpt>
      <trkpt lat="44.50196" lon="1.41052">
        <ele>157.8</ele>
        <time>2025-05-29T10:35:48Z</time>
      </trkpt>
      <trkpt lat="44.50197" lon="1.4105">
        <ele>158</ele>
        <time>2025-05-29T10:35:49Z</time>
      </trkpt>
      <trkpt lat="44.50197" lon="1.41049">
        <ele>158</ele>
        <time>2025-05-29T10:35:50Z</time>
      </trkpt>
      <trkpt lat="44.50198" lon="1.41048">
        <ele>158.2</ele>
        <time>2025-05-29T10:35:51Z</time>
      </trkpt>
      <trkpt lat="44.50199" lon="1.41047">
        <ele>158.4</ele>
        <time>2025-05-29T10:35:52Z</time>
      </trkpt>
      <trkpt lat="44.502" lon="1.41045">
        <ele>158.6</ele>
        <time>2025-05-29T10:35:53Z</time>
      </trkpt>
      <trkpt lat="44.50201" lon="1.41043">
        <ele>158.8</ele>
        <time>2025-05-29T10:35:54Z</time>
      </trkpt>
      <trkpt lat="44.50201" lon="1.41042">
        <ele>159</ele>
        <time>2025-05-29T10:35:55Z</time>
      </trkpt>
      <trkpt lat="44.50201" lon="1.4104">
        <ele>159</ele>
        <time>2025-05-29T10:35:56Z</time>
      </trkpt>
      <trkpt lat="44.50202" lon="1.41039">
        <ele>159.2</ele>
        <time>2025-05-29T10:35:57Z</time>
      </trkpt>
      <trkpt lat="44.50203" lon="1.41038">
        <ele>159.2</ele>
        <time>2025-05-29T10:35:58Z</time>
      </trkpt>
      <trkpt lat="44.50204" lon="1.41038">
        <ele>159.4</ele>
        <time>2025-05-29T10:35:59Z</time>
      </trkpt>
      <trkpt lat="44.50205" lon="1.41037">
        <ele>159.4</ele>
        <time>2025-05-29T10:36:00Z</time>
      </trkpt>
      <trkpt lat="44.50206" lon="1.41036">
        <ele>159.2</ele>
        <time>2025-05-29T10:36:01Z</time>
      </trkpt>
      <trkpt lat="44.50207" lon="1.41035">
        <ele>159.2</ele>
        <time>2025-05-29T10:36:02Z</time>
      </trkpt>
      <trkpt lat="44.50208" lon="1.41033">
        <ele>159.4</ele>
        <time>2025-05-29T10:36:03Z</time>
      </trkpt>
      <trkpt lat="44.50208" lon="1.41031">
        <ele>159.4</ele>
        <time>2025-05-29T10:36:04Z</time>
      </trkpt>
      <trkpt lat="44.50209" lon="1.4103">
        <ele>159.8</ele>
        <time>2025-05-29T10:36:05Z</time>
      </trkpt>
      <trkpt lat="44.5021" lon="1.41028">
        <ele>160</ele>
        <time>2025-05-29T10:36:06Z</time>
      </trkpt>
      <trkpt lat="44.50211" lon="1.41026">
        <ele>160.4</ele>
        <time>2025-05-29T10:36:07Z</time>
      </trkpt>
      <trkpt lat="44.50212" lon="1.41025">
        <ele>160.6</ele>
        <time>2025-05-29T10:36:08Z</time>
      </trkpt>
      <trkpt lat="44.50213" lon="1.41024">
        <ele>161</ele>
        <time>2025-05-29T10:36:09Z</time>
      </trkpt>
      <trkpt lat="44.50214" lon="1.41022">
        <ele>161.2</ele>
        <time>2025-05-29T10:36:10Z</time>
      </trkpt>
      <trkpt lat="44.50215" lon="1.4102">
        <ele>161.2</ele>
        <time>2025-05-29T10:36:11Z</time>
      </trkpt>
      <trkpt lat="44.50216" lon="1.41018">
        <ele>161.4</ele>
        <time>2025-05-29T10:36:12Z</time>
      </trkpt>
      <trkpt lat="44.50217" lon="1.41018">
        <ele>161.6</ele>
        <time>2025-05-29T10:36:13Z</time>
      </trkpt>
      <trkpt lat="44.50218" lon="1.41017">
        <ele>161.6</ele>
        <time>2025-05-29T10:36:14Z</time>
      </trkpt>
      <trkpt lat="44.5022" lon="1.41017">
        <ele>161.8</ele>
        <time>2025-05-29T10:36:15Z</time>
      </trkpt>
      <trkpt lat="44.50221" lon="1.41016">
        <ele>161.8</ele>
        <time>2025-05-29T10:36:16Z</time>
      </trkpt>
      <trkpt lat="44.50222" lon="1.41014">
        <ele>162</ele>
        <time>2025-05-29T10:36:17Z</time>
      </trkpt>
      <trkpt lat="44.50221" lon="1.41013">
        <ele>162</ele>
        <time>2025-05-29T10:36:18Z</time>
      </trkpt>
      <trkpt lat="44.50221" lon="1.41011">
        <ele>162.2</ele>
        <time>2025-05-29T10:36:19Z</time>
      </trkpt>
      <trkpt lat="44.50221" lon="1.4101">
        <ele>162.4</ele>
        <time>2025-05-29T10:36:20Z</time>
      </trkpt>
      <trkpt lat="44.50221" lon="1.41008">
        <ele>162.6</ele>
        <time>2025-05-29T10:36:21Z</time>
      </trkpt>
      <trkpt lat="44.50221" lon="1.41006">
        <ele>162.6</ele>
        <time>2025-05-29T10:36:22Z</time>
      </trkpt>
      <trkpt lat="44.50222" lon="1.41004">
        <ele>162.8</ele>
        <time>2025-05-29T10:36:23Z</time>
      </trkpt>
      <trkpt lat="44.50223" lon="1.41002">
        <ele>163</ele>
        <time>2025-05-29T10:36:24Z</time>
      </trkpt>
      <trkpt lat="44.50223" lon="1.41001">
        <ele>163</ele>
        <time>2025-05-29T10:36:25Z</time>
      </trkpt>
      <trkpt lat="44.50224" lon="1.40999">
        <ele>163.2</ele>
        <time>2025-05-29T10:36:26Z</time>
      </trkpt>
      <trkpt lat="44.50226" lon="1.40998">
        <ele>163.4</ele>
        <time>2025-05-29T10:36:27Z</time>
      </trkpt>
      <trkpt lat="44.50226" lon="1.40996">
        <ele>163.6</ele>
        <time>2025-05-29T10:36:28Z</time>
      </trkpt>
      <trkpt lat="44.50227" lon="1.40994">
        <ele>163.8</ele>
        <time>2025-05-29T10:36:29Z</time>
      </trkpt>
      <trkpt lat="44.50227" lon="1.40992">
        <ele>164</ele>
        <time>2025-05-29T10:36:30Z</time>
      </trkpt>
      <trkpt lat="44.50227" lon="1.4099">
        <ele>164.2</ele>
        <time>2025-05-29T10:36:31Z</time>
      </trkpt>
      <trkpt lat="44.50228" lon="1.40989">
        <ele>164.4</ele>
        <time>2025-05-29T10:36:32Z</time>
      </trkpt>
      <trkpt lat="44.50229" lon="1.40988">
        <ele>164.6</ele>
        <time>2025-05-29T10:36:33Z</time>
      </trkpt>
      <trkpt lat="44.5023" lon="1.40987">
        <ele>164.8</ele>
        <time>2025-05-29T10:36:34Z</time>
      </trkpt>
      <trkpt lat="44.50231" lon="1.40985">
        <ele>165</ele>
        <time>2025-05-29T10:36:35Z</time>
      </trkpt>
      <trkpt lat="44.50232" lon="1.40983">
        <ele>165.2</ele>
        <time>2025-05-29T10:36:36Z</time>
      </trkpt>
      <trkpt lat="44.50233" lon="1.40981">
        <ele>165.4</ele>
        <time>2025-05-29T10:36:37Z</time>
      </trkpt>
      <trkpt lat="44.50233" lon="1.40979">
        <ele>165.6</ele>
        <time>2025-05-29T10:36:38Z</time>
      </trkpt>
      <trkpt lat="44.50234" lon="1.40978">
        <ele>165.8</ele>
        <time>2025-05-29T10:36:39Z</time>
      </trkpt>
      <trkpt lat="44.50234" lon="1.40976">
        <ele>165.8</ele>
        <time>2025-05-29T10:36:40Z</time>
      </trkpt>
      <trkpt lat="44.50235" lon="1.40975">
        <ele>166</ele>
        <time>2025-05-29T10:36:41Z</time>
      </trkpt>
      <trkpt lat="44.50236" lon="1.40974">
        <ele>166.2</ele>
        <time>2025-05-29T10:36:42Z</time>
      </trkpt>
      <trkpt lat="44.50237" lon="1.40973">
        <ele>166.4</ele>
        <time>2025-05-29T10:36:43Z</time>
      </trkpt>
      <trkpt lat="44.50239" lon="1.40972">
        <ele>166.6</ele>
        <time>2025-05-29T10:36:44Z</time>
      </trkpt>
      <trkpt lat="44.5024" lon="1.40971">
        <ele>166.6</ele>
        <time>2025-05-29T10:36:45Z</time>
      </trkpt>
      <trkpt lat="44.50241" lon="1.40969">
        <ele>166.8</ele>
        <time>2025-05-29T10:36:46Z</time>
      </trkpt>
      <trkpt lat="44.50242" lon="1.40968">
        <ele>167</ele>
        <time>2025-05-29T10:36:47Z</time>
      </trkpt>
      <trkpt lat="44.50242" lon="1.40967">
        <ele>167</ele>
        <time>2025-05-29T10:36:48Z</time>
      </trkpt>
      <trkpt lat="44.50243" lon="1.40965">
        <ele>167.2</ele>
        <time>2025-05-29T10:36:49Z</time>
      </trkpt>
      <trkpt lat="44.50244" lon="1.40964">
        <ele>167.4</ele>
        <time>2025-05-29T10:36:50Z</time>
      </trkpt>
      <trkpt lat="44.50244" lon="1.40962">
        <ele>167.4</ele>
        <time>2025-05-29T10:36:51Z</time>
      </trkpt>
      <trkpt lat="44.50245" lon="1.4096">
        <ele>167.6</ele>
        <time>2025-05-29T10:36:52Z</time>
      </trkpt>
      <trkpt lat="44.50246" lon="1.40959">
        <ele>167.8</ele>
        <time>2025-05-29T10:36:53Z</time>
      </trkpt>
      <trkpt lat="44.50246" lon="1.40957">
        <ele>167.8</ele>
        <time>2025-05-29T10:36:54Z</time>
      </trkpt>
      <trkpt lat="44.50248" lon="1.40956">
        <ele>168</ele>
        <time>2025-05-29T10:36:55Z</time>
      </trkpt>
      <trkpt lat="44.50249" lon="1.40954">
        <ele>168.2</ele>
        <time>2025-05-29T10:36:56Z</time>
      </trkpt>
      <trkpt lat="44.5025" lon="1.40953">
        <ele>168.4</ele>
        <time>2025-05-29T10:36:57Z</time>
      </trkpt>
      <trkpt lat="44.5025" lon="1.40952">
        <ele>168.6</ele>
        <time>2025-05-29T10:36:58Z</time>
      </trkpt>
      <trkpt lat="44.50251" lon="1.40951">
        <ele>168.8</ele>
        <time>2025-05-29T10:36:59Z</time>
      </trkpt>
      <trkpt lat="44.50252" lon="1.40949">
        <ele>169</ele>
        <time>2025-05-29T10:37:00Z</time>
      </trkpt>
      <trkpt lat="44.50253" lon="1.40947">
        <ele>169.2</ele>
        <time>2025-05-29T10:37:01Z</time>
      </trkpt>
      <trkpt lat="44.50254" lon="1.40946">
        <ele>169.4</ele>
        <time>2025-05-29T10:37:02Z</time>
      </trkpt>
      <trkpt lat="44.50255" lon="1.40945">
        <ele>169.6</ele>
        <time>2025-05-29T10:37:03Z</time>
      </trkpt>
      <trkpt lat="44.50256" lon="1.40944">
        <ele>169.6</ele>
        <time>2025-05-29T10:37:04Z</time>
      </trkpt>
      <trkpt lat="44.50257" lon="1.40943">
        <ele>169.8</ele>
        <time>2025-05-29T10:37:05Z</time>
      </trkpt>
      <trkpt lat="44.50258" lon="1.40942">
        <ele>170</ele>
        <time>2025-05-29T10:37:06Z</time>
      </trkpt>
      <trkpt lat="44.50259" lon="1.4094">
        <ele>170.2</ele>
        <time>2025-05-29T10:37:07Z</time>
      </trkpt>
      <trkpt lat="44.50259" lon="1.40938">
        <ele>170.4</ele>
        <time>2025-05-29T10:37:08Z</time>
      </trkpt>
      <trkpt lat="44.50259" lon="1.40937">
        <ele>170.6</ele>
        <time>2025-05-29T10:37:09Z</time>
      </trkpt>
      <trkpt lat="44.5026" lon="1.40935">
        <ele>170.6</ele>
        <time>2025-05-29T10:37:10Z</time>
      </trkpt>
      <trkpt lat="44.50261" lon="1.40933">
        <ele>170.8</ele>
        <time>2025-05-29T10:37:11Z</time>
      </trkpt>
      <trkpt lat="44.50262" lon="1.40932">
        <ele>171</ele>
        <time>2025-05-29T10:37:12Z</time>
      </trkpt>
      <trkpt lat="44.50263" lon="1.40931">
        <ele>171.2</ele>
        <time>2025-05-29T10:37:13Z</time>
      </trkpt>
      <trkpt lat="44.50264" lon="1.40929">
        <ele>171.4</ele>
        <time>2025-05-29T10:37:14Z</time>
      </trkpt>
      <trkpt lat="44.50265" lon="1.40928">
        <ele>171.6</ele>
        <time>2025-05-29T10:37:15Z</time>
      </trkpt>
      <trkpt lat="44.50266" lon="1.40927">
        <ele>171.8</ele>
        <time>2025-05-29T10:37:16Z</time>
      </trkpt>
      <trkpt lat="44.50267" lon="1.40926">
        <ele>172</ele>
        <time>2025-05-29T10:37:17Z</time>
      </trkpt>
      <trkpt lat="44.50268" lon="1.40925">
        <ele>172.4</ele>
        <time>2025-05-29T10:37:18Z</time>
      </trkpt>
      <trkpt lat="44.50269" lon="1.40924">
        <ele>172.6</ele>
        <time>2025-05-29T10:37:19Z</time>
      </trkpt>
      <trkpt lat="44.5027" lon="1.40923">
        <ele>172.8</ele>
        <time>2025-05-29T10:37:20Z</time>
      </trkpt>
      <trkpt lat="44.5027" lon="1.40922">
        <ele>172.8</ele>
        <time>2025-05-29T10:37:21Z</time>
      </trkpt>
      <trkpt lat="44.50271" lon="1.40921">
        <ele>173</ele>
        <time>2025-05-29T10:37:22Z</time>
      </trkpt>
      <trkpt lat="44.50272" lon="1.40919">
        <ele>173.2</ele>
        <time>2025-05-29T10:37:23Z</time>
      </trkpt>
      <trkpt lat="44.50273" lon="1.40917">
        <ele>173.4</ele>
        <time>2025-05-29T10:37:24Z</time>
      </trkpt>
      <trkpt lat="44.50274" lon="1.40916">
        <ele>173.6</ele>
        <time>2025-05-29T10:37:25Z</time>
      </trkpt>
      <trkpt lat="44.50275" lon="1.40914">
        <ele>173.8</ele>
        <time>2025-05-29T10:37:26Z</time>
      </trkpt>
      <trkpt lat="44.50276" lon="1.40913">
        <ele>174</ele>
        <time>2025-05-29T10:37:27Z</time>
      </trkpt>
      <trkpt lat="44.50277" lon="1.40912">
        <ele>174.2</ele>
        <time>2025-05-29T10:37:28Z</time>
      </trkpt>
      <trkpt lat="44.50277" lon="1.40911">
        <ele>174.2</ele>
        <time>2025-05-29T10:37:29Z</time>
      </trkpt>
      <trkpt lat="44.50278" lon="1.4091">
        <ele>174.4</ele>
        <time>2025-05-29T10:37:30Z</time>
      </trkpt>
      <trkpt lat="44.50279" lon="1.40909">
        <ele>174.6</ele>
        <time>2025-05-29T10:37:31Z</time>
      </trkpt>
      <trkpt lat="44.50279" lon="1.40908">
        <ele>174.8</ele>
        <time>2025-05-29T10:37:32Z</time>
      </trkpt>
      <trkpt lat="44.50279" lon="1.40906">
        <ele>175</ele>
        <time>2025-05-29T10:37:33Z</time>
      </trkpt>
      <trkpt lat="44.5028" lon="1.40905">
        <ele>175.2</ele>
        <time>2025-05-29T10:37:34Z</time>
      </trkpt>
      <trkpt lat="44.5028" lon="1.40903">
        <ele>175.2</ele>
        <time>2025-05-29T10:37:35Z</time>
      </trkpt>
      <trkpt lat="44.50281" lon="1.40901">
        <ele>175.4</ele>
        <time>2025-05-29T10:37:36Z</time>
      </trkpt>
      <trkpt lat="44.50281" lon="1.409">
        <ele>175.6</ele>
        <time>2025-05-29T10:37:37Z</time>
      </trkpt>
      <trkpt lat="44.50282" lon="1.40898">
        <ele>175.8</ele>
        <time>2025-05-29T10:37:38Z</time>
      </trkpt>
      <trkpt lat="44.50283" lon="1.40896">
        <ele>176</ele>
        <time>2025-05-29T10:37:39Z</time>
      </trkpt>
      <trkpt lat="44.50284" lon="1.40895">
        <ele>176.4</ele>
        <time>2025-05-29T10:37:40Z</time>
      </trkpt>
      <trkpt lat="44.50285" lon="1.40894">
        <ele>176.6</ele>
        <time>2025-05-29T10:37:41Z</time>
      </trkpt>
      <trkpt lat="44.50285" lon="1.40892">
        <ele>176.8</ele>
        <time>2025-05-29T10:37:42Z</time>
      </trkpt>
      <trkpt lat="44.50286" lon="1.40891">
        <ele>177</ele>
        <time>2025-05-29T10:37:43Z</time>
      </trkpt>
      <trkpt lat="44.50287" lon="1.4089">
        <ele>177.2</ele>
        <time>2025-05-29T10:37:44Z</time>
      </trkpt>
      <trkpt lat="44.50288" lon="1.40889">
        <ele>177.2</ele>
        <time>2025-05-29T10:37:45Z</time>
      </trkpt>
      <trkpt lat="44.5029" lon="1.40888">
        <ele>177.4</ele>
        <time>2025-05-29T10:37:46Z</time>
      </trkpt>
      <trkpt lat="44.5029" lon="1.40886">
        <ele>177.4</ele>
        <time>2025-05-29T10:37:47Z</time>
      </trkpt>
      <trkpt lat="44.50291" lon="1.40885">
        <ele>177.6</ele>
        <time>2025-05-29T10:37:48Z</time>
      </trkpt>
      <trkpt lat="44.50292" lon="1.40884">
        <ele>177.8</ele>
        <time>2025-05-29T10:37:49Z</time>
      </trkpt>
      <trkpt lat="44.50293" lon="1.40884">
        <ele>177.8</ele>
        <time>2025-05-29T10:37:50Z</time>
      </trkpt>
      <trkpt lat="44.50293" lon="1.40883">
        <ele>178</ele>
        <time>2025-05-29T10:37:51Z</time>
      </trkpt>
      <trkpt lat="44.50293" lon="1.40882">
        <ele>178.2</ele>
        <time>2025-05-29T10:37:52Z</time>
      </trkpt>
      <trkpt lat="44.50294" lon="1.40881">
        <ele>178.2</ele>
        <time>2025-05-29T10:37:53Z</time>
      </trkpt>
      <trkpt lat="44.50294" lon="1.40879">
        <ele>178.4</ele>
        <time>2025-05-29T10:37:54Z</time>
      </trkpt>
      <trkpt lat="44.50295" lon="1.40879">
        <ele>178.4</ele>
        <time>2025-05-29T10:37:55Z</time>
      </trkpt>
      <trkpt lat="44.50296" lon="1.40878">
        <ele>178.6</ele>
        <time>2025-05-29T10:37:56Z</time>
      </trkpt>
      <trkpt lat="44.50297" lon="1.40876">
        <ele>178.6</ele>
        <time>2025-05-29T10:37:57Z</time>
      </trkpt>
      <trkpt lat="44.50297" lon="1.40874">
        <ele>178.8</ele>
        <time>2025-05-29T10:37:58Z</time>
      </trkpt>
      <trkpt lat="44.50298" lon="1.40873">
        <ele>178.8</ele>
        <time>2025-05-29T10:37:59Z</time>
      </trkpt>
      <trkpt lat="44.50298" lon="1.40872">
        <ele>179.2</ele>
        <time>2025-05-29T10:38:00Z</time>
      </trkpt>
      <trkpt lat="44.50299" lon="1.40871">
        <ele>179.2</ele>
        <time>2025-05-29T10:38:01Z</time>
      </trkpt>
      <trkpt lat="44.503" lon="1.4087">
        <ele>179.4</ele>
        <time>2025-05-29T10:38:02Z</time>
      </trkpt>
      <trkpt lat="44.50301" lon="1.40868">
        <ele>179.6</ele>
        <time>2025-05-29T10:38:03Z</time>
      </trkpt>
      <trkpt lat="44.50302" lon="1.40867">
        <ele>179.8</ele>
        <time>2025-05-29T10:38:04Z</time>
      </trkpt>
      <trkpt lat="44.50303" lon="1.40867">
        <ele>180.2</ele>
        <time>2025-05-29T10:38:05Z</time>
      </trkpt>
      <trkpt lat="44.50305" lon="1.40868">
        <ele>180.4</ele>
        <time>2025-05-29T10:38:06Z</time>
      </trkpt>
      <trkpt lat="44.50306" lon="1.40869">
        <ele>180.6</ele>
        <time>2025-05-29T10:38:07Z</time>
      </trkpt>
      <trkpt lat="44.50307" lon="1.4087">
        <ele>180.6</ele>
        <time>2025-05-29T10:38:08Z</time>
      </trkpt>
      <trkpt lat="44.50308" lon="1.4087">
        <ele>180.8</ele>
        <time>2025-05-29T10:38:09Z</time>
      </trkpt>
      <trkpt lat="44.50309" lon="1.4087">
        <ele>181</ele>
        <time>2025-05-29T10:38:10Z</time>
      </trkpt>
      <trkpt lat="44.50311" lon="1.40873">
        <ele>181.2</ele>
        <time>2025-05-29T10:38:11Z</time>
      </trkpt>
      <trkpt lat="44.50312" lon="1.40876">
        <ele>181.2</ele>
        <time>2025-05-29T10:38:12Z</time>
      </trkpt>
      <trkpt lat="44.50313" lon="1.40879">
        <ele>181.2</ele>
        <time>2025-05-29T10:38:13Z</time>
      </trkpt>
      <trkpt lat="44.50314" lon="1.40882">
        <ele>181</ele>
        <time>2025-05-29T10:38:14Z</time>
      </trkpt>
      <trkpt lat="44.50313" lon="1.40884">
        <ele>181</ele>
        <time>2025-05-29T10:38:15Z</time>
      </trkpt>
      <trkpt lat="44.50313" lon="1.40886">
        <ele>180.8</ele>
        <time>2025-05-29T10:38:16Z</time>
      </trkpt>
      <trkpt lat="44.50312" lon="1.40888">
        <ele>180.8</ele>
        <time>2025-05-29T10:38:17Z</time>
      </trkpt>
      <trkpt lat="44.50313" lon="1.4089">
        <ele>180.8</ele>
        <time>2025-05-29T10:38:18Z</time>
      </trkpt>
      <trkpt lat="44.50313" lon="1.4089">
        <ele>181</ele>
        <time>2025-05-29T10:38:19Z</time>
      </trkpt>
      <trkpt lat="44.50313" lon="1.40899">
        <ele>181.2</ele>
        <time>2025-05-29T10:38:25Z</time>
      </trkpt>
      <trkpt lat="44.50313" lon="1.40901">
        <ele>181.2</ele>
        <time>2025-05-29T10:38:26Z</time>
      </trkpt>
      <trkpt lat="44.50312" lon="1.40903">
        <ele>181.2</ele>
        <time>2025-05-29T10:38:27Z</time>
      </trkpt>
      <trkpt lat="44.50312" lon="1.40905">
        <ele>181.4</ele>
        <time>2025-05-29T10:38:28Z</time>
      </trkpt>
      <trkpt lat="44.50312" lon="1.40908">
        <ele>181.4</ele>
        <time>2025-05-29T10:38:29Z</time>
      </trkpt>
      <trkpt lat="44.50312" lon="1.4091">
        <ele>181.4</ele>
        <time>2025-05-29T10:38:30Z</time>
      </trkpt>
      <trkpt lat="44.50311" lon="1.40913">
        <ele>181.4</ele>
        <time>2025-05-29T10:38:31Z</time>
      </trkpt>
      <trkpt lat="44.50311" lon="1.40915">
        <ele>181.6</ele>
        <time>2025-05-29T10:38:32Z</time>
      </trkpt>
      <trkpt lat="44.50312" lon="1.40916">
        <ele>181.6</ele>
        <time>2025-05-29T10:38:33Z</time>
      </trkpt>
      <trkpt lat="44.50312" lon="1.40918">
        <ele>181.8</ele>
        <time>2025-05-29T10:38:34Z</time>
      </trkpt>
      <trkpt lat="44.50312" lon="1.4092">
        <ele>182</ele>
        <time>2025-05-29T10:38:35Z</time>
      </trkpt>
      <trkpt lat="44.50311" lon="1.40922">
        <ele>182.2</ele>
        <time>2025-05-29T10:38:36Z</time>
      </trkpt>
      <trkpt lat="44.50311" lon="1.40924">
        <ele>182.4</ele>
        <time>2025-05-29T10:38:37Z</time>
      </trkpt>
      <trkpt lat="44.5031" lon="1.40926">
        <ele>182.4</ele>
        <time>2025-05-29T10:38:38Z</time>
      </trkpt>
      <trkpt lat="44.50309" lon="1.40928">
        <ele>182.6</ele>
        <time>2025-05-29T10:38:39Z</time>
      </trkpt>
      <trkpt lat="44.50309" lon="1.4093">
        <ele>182.8</ele>
        <time>2025-05-29T10:38:40Z</time>
      </trkpt>
      <trkpt lat="44.50309" lon="1.40932">
        <ele>182.8</ele>
        <time>2025-05-29T10:38:41Z</time>
      </trkpt>
      <trkpt lat="44.50309" lon="1.40934">
        <ele>183</ele>
        <time>2025-05-29T10:38:42Z</time>
      </trkpt>
      <trkpt lat="44.50308" lon="1.40936">
        <ele>183.2</ele>
        <time>2025-05-29T10:38:43Z</time>
      </trkpt>
      <trkpt lat="44.50309" lon="1.40938">
        <ele>183.4</ele>
        <time>2025-05-29T10:38:44Z</time>
      </trkpt>
      <trkpt lat="44.50308" lon="1.4094">
        <ele>183.4</ele>
        <time>2025-05-29T10:38:45Z</time>
      </trkpt>
      <trkpt lat="44.50308" lon="1.40941">
        <ele>183.6</ele>
        <time>2025-05-29T10:38:46Z</time>
      </trkpt>
      <trkpt lat="44.50307" lon="1.40943">
        <ele>183.8</ele>
        <time>2025-05-29T10:38:47Z</time>
      </trkpt>
      <trkpt lat="44.50306" lon="1.40945">
        <ele>184</ele>
        <time>2025-05-29T10:38:48Z</time>
      </trkpt>
      <trkpt lat="44.50305" lon="1.40947">
        <ele>184</ele>
        <time>2025-05-29T10:38:49Z</time>
      </trkpt>
      <trkpt lat="44.50303" lon="1.40949">
        <ele>184</ele>
        <time>2025-05-29T10:38:50Z</time>
      </trkpt>
      <trkpt lat="44.50302" lon="1.40952">
        <ele>183.8</ele>
        <time>2025-05-29T10:38:51Z</time>
      </trkpt>
      <trkpt lat="44.50301" lon="1.40955">
        <ele>183.6</ele>
        <time>2025-05-29T10:38:52Z</time>
      </trkpt>
      <trkpt lat="44.503" lon="1.40958">
        <ele>183.4</ele>
        <time>2025-05-29T10:38:53Z</time>
      </trkpt>
      <trkpt lat="44.50298" lon="1.40962">
        <ele>183.2</ele>
        <time>2025-05-29T10:38:54Z</time>
      </trkpt>
      <trkpt lat="44.50297" lon="1.40965">
        <ele>183</ele>
        <time>2025-05-29T10:38:55Z</time>
      </trkpt>
      <trkpt lat="44.50297" lon="1.40968">
        <ele>183</ele>
        <time>2025-05-29T10:38:56Z</time>
      </trkpt>
      <trkpt lat="44.50296" lon="1.4097">
        <ele>182.8</ele>
        <time>2025-05-29T10:38:57Z</time>
      </trkpt>
      <trkpt lat="44.50295" lon="1.40972">
        <ele>182.8</ele>
        <time>2025-05-29T10:38:58Z</time>
      </trkpt>
      <trkpt lat="44.50294" lon="1.40974">
        <ele>182.8</ele>
        <time>2025-05-29T10:38:59Z</time>
      </trkpt>
      <trkpt lat="44.50293" lon="1.40976">
        <ele>183</ele>
        <time>2025-05-29T10:39:00Z</time>
      </trkpt>
      <trkpt lat="44.50293" lon="1.40978">
        <ele>183.2</ele>
        <time>2025-05-29T10:39:01Z</time>
      </trkpt>
      <trkpt lat="44.50292" lon="1.40979">
        <ele>183.4</ele>
        <time>2025-05-29T10:39:02Z</time>
      </trkpt>
      <trkpt lat="44.5029" lon="1.40982">
        <ele>183.6</ele>
        <time>2025-05-29T10:39:03Z</time>
      </trkpt>
      <trkpt lat="44.50288" lon="1.40984">
        <ele>183.6</ele>
        <time>2025-05-29T10:39:04Z</time>
      </trkpt>
      <trkpt lat="44.50287" lon="1.40987">
        <ele>183.6</ele>
        <time>2025-05-29T10:39:05Z</time>
      </trkpt>
      <trkpt lat="44.50285" lon="1.40989">
        <ele>183.6</ele>
        <time>2025-05-29T10:39:06Z</time>
      </trkpt>
      <trkpt lat="44.50284" lon="1.40992">
        <ele>183.6</ele>
        <time>2025-05-29T10:39:07Z</time>
      </trkpt>
      <trkpt lat="44.50282" lon="1.40995">
        <ele>183.6</ele>
        <time>2025-05-29T10:39:08Z</time>
      </trkpt>
      <trkpt lat="44.50281" lon="1.40998">
        <ele>183.4</ele>
        <time>2025-05-29T10:39:09Z</time>
      </trkpt>
      <trkpt lat="44.5028" lon="1.41">
        <ele>183.4</ele>
        <time>2025-05-29T10:39:10Z</time>
      </trkpt>
      <trkpt lat="44.50279" lon="1.41003">
        <ele>183.2</ele>
        <time>2025-05-29T10:39:11Z</time>
      </trkpt>
      <trkpt lat="44.50278" lon="1.41005">
        <ele>183.4</ele>
        <time>2025-05-29T10:39:12Z</time>
      </trkpt>
      <trkpt lat="44.50277" lon="1.41007">
        <ele>183.4</ele>
        <time>2025-05-29T10:39:13Z</time>
      </trkpt>
      <trkpt lat="44.50276" lon="1.41009">
        <ele>183.4</ele>
        <time>2025-05-29T10:39:14Z</time>
      </trkpt>
      <trkpt lat="44.50275" lon="1.41012">
        <ele>183.6</ele>
        <time>2025-05-29T10:39:15Z</time>
      </trkpt>
      <trkpt lat="44.50274" lon="1.41013">
        <ele>183.6</ele>
        <time>2025-05-29T10:39:16Z</time>
      </trkpt>
      <trkpt lat="44.50273" lon="1.41016">
        <ele>183.4</ele>
        <time>2025-05-29T10:39:17Z</time>
      </trkpt>
      <trkpt lat="44.50271" lon="1.41018">
        <ele>183.6</ele>
        <time>2025-05-29T10:39:18Z</time>
      </trkpt>
      <trkpt lat="44.5027" lon="1.4102">
        <ele>183.6</ele>
        <time>2025-05-29T10:39:19Z</time>
      </trkpt>
      <trkpt lat="44.50269" lon="1.41022">
        <ele>183.6</ele>
        <time>2025-05-29T10:39:20Z</time>
      </trkpt>
      <trkpt lat="44.50268" lon="1.41025">
        <ele>183.6</ele>
        <time>2025-05-29T10:39:21Z</time>
      </trkpt>
      <trkpt lat="44.50267" lon="1.41028">
        <ele>183.6</ele>
        <time>2025-05-29T10:39:22Z</time>
      </trkpt>
      <trkpt lat="44.50266" lon="1.4103">
        <ele>183.6</ele>
        <time>2025-05-29T10:39:23Z</time>
      </trkpt>
      <trkpt lat="44.50265" lon="1.41032">
        <ele>183.4</ele>
        <time>2025-05-29T10:39:24Z</time>
      </trkpt>
      <trkpt lat="44.50264" lon="1.41034">
        <ele>183.4</ele>
        <time>2025-05-29T10:39:25Z</time>
      </trkpt>
      <trkpt lat="44.50264" lon="1.41037">
        <ele>183.4</ele>
        <time>2025-05-29T10:39:26Z</time>
      </trkpt>
      <trkpt lat="44.50263" lon="1.41039">
        <ele>183.6</ele>
        <time>2025-05-29T10:39:27Z</time>
      </trkpt>
      <trkpt lat="44.50263" lon="1.41042">
        <ele>183.8</ele>
        <time>2025-05-29T10:39:28Z</time>
      </trkpt>
      <trkpt lat="44.50262" lon="1.41045">
        <ele>184</ele>
        <time>2025-05-29T10:39:29Z</time>
      </trkpt>
      <trkpt lat="44.50261" lon="1.41048">
        <ele>184</ele>
        <time>2025-05-29T10:39:30Z</time>
      </trkpt>
      <trkpt lat="44.50261" lon="1.4105">
        <ele>184.2</ele>
        <time>2025-05-29T10:39:31Z</time>
      </trkpt>
      <trkpt lat="44.5026" lon="1.41053">
        <ele>184.2</ele>
        <time>2025-05-29T10:39:32Z</time>
      </trkpt>
      <trkpt lat="44.5026" lon="1.41055">
        <ele>184.4</ele>
        <time>2025-05-29T10:39:33Z</time>
      </trkpt>
      <trkpt lat="44.50259" lon="1.41058">
        <ele>184.6</ele>
        <time>2025-05-29T10:39:34Z</time>
      </trkpt>
      <trkpt lat="44.50258" lon="1.4106">
        <ele>184.6</ele>
        <time>2025-05-29T10:39:35Z</time>
      </trkpt>
      <trkpt lat="44.50257" lon="1.41063">
        <ele>184.8</ele>
        <time>2025-05-29T10:39:36Z</time>
      </trkpt>
      <trkpt lat="44.50256" lon="1.41066">
        <ele>184.8</ele>
        <time>2025-05-29T10:39:37Z</time>
      </trkpt>
      <trkpt lat="44.50254" lon="1.4107">
        <ele>184.6</ele>
        <time>2025-05-29T10:39:38Z</time>
      </trkpt>
      <trkpt lat="44.50254" lon="1.41074">
        <ele>184.6</ele>
        <time>2025-05-29T10:39:39Z</time>
      </trkpt>
      <trkpt lat="44.50253" lon="1.41078">
        <ele>184.6</ele>
        <time>2025-05-29T10:39:40Z</time>
      </trkpt>
      <trkpt lat="44.50253" lon="1.41081">
        <ele>184.6</ele>
        <time>2025-05-29T10:39:41Z</time>
      </trkpt>
      <trkpt lat="44.50253" lon="1.41084">
        <ele>184.6</ele>
        <time>2025-05-29T10:39:42Z</time>
      </trkpt>
      <trkpt lat="44.50254" lon="1.41087">
        <ele>184.8</ele>
        <time>2025-05-29T10:39:43Z</time>
      </trkpt>
      <trkpt lat="44.50254" lon="1.41089">
        <ele>185</ele>
        <time>2025-05-29T10:39:44Z</time>
      </trkpt>
      <trkpt lat="44.50254" lon="1.41091">
        <ele>185</ele>
        <time>2025-05-29T10:39:45Z</time>
      </trkpt>
      <trkpt lat="44.50254" lon="1.41093">
        <ele>185.4</ele>
        <time>2025-05-29T10:39:46Z</time>
      </trkpt>
      <trkpt lat="44.50254" lon="1.41095">
        <ele>185.6</ele>
        <time>2025-05-29T10:39:47Z</time>
      </trkpt>
      <trkpt lat="44.50254" lon="1.41097">
        <ele>186</ele>
        <time>2025-05-29T10:39:48Z</time>
      </trkpt>
      <trkpt lat="44.50254" lon="1.41099">
        <ele>186.2</ele>
        <time>2025-05-29T10:39:49Z</time>
      </trkpt>
      <trkpt lat="44.50254" lon="1.41101">
        <ele>186.4</ele>
        <time>2025-05-29T10:39:50Z</time>
      </trkpt>
      <trkpt lat="44.50253" lon="1.41102">
        <ele>186.4</ele>
        <time>2025-05-29T10:39:51Z</time>
      </trkpt>
      <trkpt lat="44.50253" lon="1.41105">
        <ele>186.6</ele>
        <time>2025-05-29T10:39:52Z</time>
      </trkpt>
      <trkpt lat="44.50252" lon="1.41108">
        <ele>186.4</ele>
        <time>2025-05-29T10:39:53Z</time>
      </trkpt>
      <trkpt lat="44.50252" lon="1.4111">
        <ele>186.2</ele>
        <time>2025-05-29T10:39:54Z</time>
      </trkpt>
      <trkpt lat="44.50251" lon="1.41113">
        <ele>186</ele>
        <time>2025-05-29T10:39:55Z</time>
      </trkpt>
      <trkpt lat="44.50251" lon="1.41116">
        <ele>185.6</ele>
        <time>2025-05-29T10:39:56Z</time>
      </trkpt>
      <trkpt lat="44.50249" lon="1.4112">
        <ele>185</ele>
        <time>2025-05-29T10:39:57Z</time>
      </trkpt>
      <trkpt lat="44.50249" lon="1.41124">
        <ele>184.6</ele>
        <time>2025-05-29T10:39:58Z</time>
      </trkpt>
      <trkpt lat="44.50249" lon="1.41128">
        <ele>184.2</ele>
        <time>2025-05-29T10:39:59Z</time>
      </trkpt>
      <trkpt lat="44.5025" lon="1.41131">
        <ele>183.8</ele>
        <time>2025-05-29T10:40:00Z</time>
      </trkpt>
      <trkpt lat="44.5025" lon="1.41133">
        <ele>183.4</ele>
        <time>2025-05-29T10:40:01Z</time>
      </trkpt>
      <trkpt lat="44.5025" lon="1.41135">
        <ele>183.2</ele>
        <time>2025-05-29T10:40:02Z</time>
      </trkpt>
      <trkpt lat="44.5025" lon="1.41138">
        <ele>183.2</ele>
        <time>2025-05-29T10:40:03Z</time>
      </trkpt>
      <trkpt lat="44.50251" lon="1.4114">
        <ele>183</ele>
        <time>2025-05-29T10:40:04Z</time>
      </trkpt>
      <trkpt lat="44.50252" lon="1.41143">
        <ele>183</ele>
        <time>2025-05-29T10:40:05Z</time>
      </trkpt>
      <trkpt lat="44.50253" lon="1.41145">
        <ele>183</ele>
        <time>2025-05-29T10:40:06Z</time>
      </trkpt>
      <trkpt lat="44.50254" lon="1.41147">
        <ele>183</ele>
        <time>2025-05-29T10:40:07Z</time>
      </trkpt>
      <trkpt lat="44.50256" lon="1.41149">
        <ele>183</ele>
        <time>2025-05-29T10:40:08Z</time>
      </trkpt>
      <trkpt lat="44.50257" lon="1.41152">
        <ele>183</ele>
        <time>2025-05-29T10:40:09Z</time>
      </trkpt>
      <trkpt lat="44.50258" lon="1.41154">
        <ele>183</ele>
        <time>2025-05-29T10:40:10Z</time>
      </trkpt>
      <trkpt lat="44.5026" lon="1.41157">
        <ele>182.8</ele>
        <time>2025-05-29T10:40:11Z</time>
      </trkpt>
      <trkpt lat="44.50261" lon="1.41159">
        <ele>182.8</ele>
        <time>2025-05-29T10:40:12Z</time>
      </trkpt>
      <trkpt lat="44.50263" lon="1.41161">
        <ele>183</ele>
        <time>2025-05-29T10:40:13Z</time>
      </trkpt>
      <trkpt lat="44.50264" lon="1.41163">
        <ele>183</ele>
        <time>2025-05-29T10:40:14Z</time>
      </trkpt>
      <trkpt lat="44.50266" lon="1.41165">
        <ele>183</ele>
        <time>2025-05-29T10:40:15Z</time>
      </trkpt>
      <trkpt lat="44.50268" lon="1.41168">
        <ele>183</ele>
        <time>2025-05-29T10:40:16Z</time>
      </trkpt>
      <trkpt lat="44.50269" lon="1.4117">
        <ele>183</ele>
        <time>2025-05-29T10:40:17Z</time>
      </trkpt>
      <trkpt lat="44.50271" lon="1.41172">
        <ele>183</ele>
        <time>2025-05-29T10:40:18Z</time>
      </trkpt>
      <trkpt lat="44.50272" lon="1.41173">
        <ele>183</ele>
        <time>2025-05-29T10:40:19Z</time>
      </trkpt>
      <trkpt lat="44.50274" lon="1.41175">
        <ele>183.2</ele>
        <time>2025-05-29T10:40:20Z</time>
      </trkpt>
      <trkpt lat="44.50276" lon="1.41176">
        <ele>183.2</ele>
        <time>2025-05-29T10:40:21Z</time>
      </trkpt>
      <trkpt lat="44.50278" lon="1.41178">
        <ele>183.4</ele>
        <time>2025-05-29T10:40:22Z</time>
      </trkpt>
      <trkpt lat="44.5028" lon="1.41179">
        <ele>183.4</ele>
        <time>2025-05-29T10:40:23Z</time>
      </trkpt>
      <trkpt lat="44.50282" lon="1.4118">
        <ele>183.6</ele>
        <time>2025-05-29T10:40:24Z</time>
      </trkpt>
      <trkpt lat="44.50283" lon="1.41181">
        <ele>183.8</ele>
        <time>2025-05-29T10:40:25Z</time>
      </trkpt>
      <trkpt lat="44.50285" lon="1.41181">
        <ele>184</ele>
        <time>2025-05-29T10:40:26Z</time>
      </trkpt>
      <trkpt lat="44.50286" lon="1.41182">
        <ele>184.2</ele>
        <time>2025-05-29T10:40:27Z</time>
      </trkpt>
      <trkpt lat="44.50288" lon="1.41182">
        <ele>184.4</ele>
        <time>2025-05-29T10:40:28Z</time>
      </trkpt>
      <trkpt lat="44.50289" lon="1.41183">
        <ele>184.8</ele>
        <time>2025-05-29T10:40:29Z</time>
      </trkpt>
      <trkpt lat="44.5029" lon="1.41184">
        <ele>185</ele>
        <time>2025-05-29T10:40:30Z</time>
      </trkpt>
      <trkpt lat="44.50291" lon="1.41186">
        <ele>185.2</ele>
        <time>2025-05-29T10:40:31Z</time>
      </trkpt>
      <trkpt lat="44.50293" lon="1.41187">
        <ele>185.6</ele>
        <time>2025-05-29T10:40:32Z</time>
      </trkpt>
      <trkpt lat="44.50294" lon="1.41188">
        <ele>185.8</ele>
        <time>2025-05-29T10:40:33Z</time>
      </trkpt>
      <trkpt lat="44.50296" lon="1.41189">
        <ele>185.8</ele>
        <time>2025-05-29T10:40:34Z</time>
      </trkpt>
      <trkpt lat="44.50297" lon="1.4119">
        <ele>185.8</ele>
        <time>2025-05-29T10:40:35Z</time>
      </trkpt>
      <trkpt lat="44.50299" lon="1.41191">
        <ele>185.8</ele>
        <time>2025-05-29T10:40:36Z</time>
      </trkpt>
      <trkpt lat="44.50301" lon="1.41192">
        <ele>185.8</ele>
        <time>2025-05-29T10:40:37Z</time>
      </trkpt>
      <trkpt lat="44.50303" lon="1.41193">
        <ele>185.8</ele>
        <time>2025-05-29T10:40:38Z</time>
      </trkpt>
      <trkpt lat="44.50304" lon="1.41194">
        <ele>186</ele>
        <time>2025-05-29T10:40:39Z</time>
      </trkpt>
      <trkpt lat="44.50306" lon="1.41194">
        <ele>186.2</ele>
        <time>2025-05-29T10:40:40Z</time>
      </trkpt>
      <trkpt lat="44.50308" lon="1.41194">
        <ele>186.4</ele>
        <time>2025-05-29T10:40:41Z</time>
      </trkpt>
      <trkpt lat="44.50309" lon="1.41194">
        <ele>186.6</ele>
        <time>2025-05-29T10:40:42Z</time>
      </trkpt>
      <trkpt lat="44.5031" lon="1.41194">
        <ele>186.8</ele>
        <time>2025-05-29T10:40:43Z</time>
      </trkpt>
      <trkpt lat="44.5031" lon="1.41195">
        <ele>187</ele>
        <time>2025-05-29T10:40:44Z</time>
      </trkpt>
      <trkpt lat="44.5031" lon="1.41195">
        <ele>187.4</ele>
        <time>2025-05-29T10:40:45Z</time>
      </trkpt>
      <trkpt lat="44.50319" lon="1.41199">
        <ele>188.2</ele>
        <time>2025-05-29T10:42:29Z</time>
      </trkpt>
      <trkpt lat="44.5032" lon="1.412">
        <ele>188.2</ele>
        <time>2025-05-29T10:42:30Z</time>
      </trkpt>
      <trkpt lat="44.50322" lon="1.412">
        <ele>188</ele>
        <time>2025-05-29T10:42:31Z</time>
      </trkpt>
      <trkpt lat="44.50324" lon="1.412">
        <ele>188</ele>
        <time>2025-05-29T10:42:32Z</time>
      </trkpt>
      <trkpt lat="44.50326" lon="1.41201">
        <ele>188</ele>
        <time>2025-05-29T10:42:33Z</time>
      </trkpt>
      <trkpt lat="44.50327" lon="1.41201">
        <ele>188</ele>
        <time>2025-05-29T10:42:34Z</time>
      </trkpt>
      <trkpt lat="44.50329" lon="1.41202">
        <ele>188</ele>
        <time>2025-05-29T10:42:35Z</time>
      </trkpt>
      <trkpt lat="44.50331" lon="1.41203">
        <ele>188.2</ele>
        <time>2025-05-29T10:42:36Z</time>
      </trkpt>
      <trkpt lat="44.50333" lon="1.41203">
        <ele>188.2</ele>
        <time>2025-05-29T10:42:37Z</time>
      </trkpt>
      <trkpt lat="44.50335" lon="1.41204">
        <ele>188.2</ele>
        <time>2025-05-29T10:42:38Z</time>
      </trkpt>
      <trkpt lat="44.50337" lon="1.41204">
        <ele>188.2</ele>
        <time>2025-05-29T10:42:39Z</time>
      </trkpt>
      <trkpt lat="44.50339" lon="1.41205">
        <ele>188.4</ele>
        <time>2025-05-29T10:42:40Z</time>
      </trkpt>
      <trkpt lat="44.50341" lon="1.41206">
        <ele>188.4</ele>
        <time>2025-05-29T10:42:41Z</time>
      </trkpt>
      <trkpt lat="44.50343" lon="1.41206">
        <ele>188.6</ele>
        <time>2025-05-29T10:42:42Z</time>
      </trkpt>
      <trkpt lat="44.50345" lon="1.41206">
        <ele>188.6</ele>
        <time>2025-05-29T10:42:43Z</time>
      </trkpt>
      <trkpt lat="44.50347" lon="1.41207">
        <ele>188.8</ele>
        <time>2025-05-29T10:42:44Z</time>
      </trkpt>
      <trkpt lat="44.50349" lon="1.41207">
        <ele>188.8</ele>
        <time>2025-05-29T10:42:45Z</time>
      </trkpt>
      <trkpt lat="44.50351" lon="1.41207">
        <ele>189</ele>
        <time>2025-05-29T10:42:46Z</time>
      </trkpt>
      <trkpt lat="44.50353" lon="1.41207">
        <ele>189.2</ele>
        <time>2025-05-29T10:42:47Z</time>
      </trkpt>
      <trkpt lat="44.50355" lon="1.41207">
        <ele>189.2</ele>
        <time>2025-05-29T10:42:48Z</time>
      </trkpt>
      <trkpt lat="44.50357" lon="1.41207">
        <ele>189.4</ele>
        <time>2025-05-29T10:42:49Z</time>
      </trkpt>
      <trkpt lat="44.50359" lon="1.41208">
        <ele>189.6</ele>
        <time>2025-05-29T10:42:50Z</time>
      </trkpt>
      <trkpt lat="44.50361" lon="1.41208">
        <ele>189.6</ele>
        <time>2025-05-29T10:42:51Z</time>
      </trkpt>
      <trkpt lat="44.50363" lon="1.41208">
        <ele>189.8</ele>
        <time>2025-05-29T10:42:52Z</time>
      </trkpt>
      <trkpt lat="44.50365" lon="1.41208">
        <ele>190</ele>
        <time>2025-05-29T10:42:53Z</time>
      </trkpt>
      <trkpt lat="44.50367" lon="1.41207">
        <ele>190.2</ele>
        <time>2025-05-29T10:42:54Z</time>
      </trkpt>
      <trkpt lat="44.50368" lon="1.41208">
        <ele>190.4</ele>
        <time>2025-05-29T10:42:55Z</time>
      </trkpt>
      <trkpt lat="44.5037" lon="1.4121">
        <ele>190.6</ele>
        <time>2025-05-29T10:42:56Z</time>
      </trkpt>
      <trkpt lat="44.50373" lon="1.41211">
        <ele>190.6</ele>
        <time>2025-05-29T10:42:57Z</time>
      </trkpt>
      <trkpt lat="44.50374" lon="1.41211">
        <ele>190.8</ele>
        <time>2025-05-29T10:42:58Z</time>
      </trkpt>
      <trkpt lat="44.50376" lon="1.41211">
        <ele>190.8</ele>
        <time>2025-05-29T10:42:59Z</time>
      </trkpt>
      <trkpt lat="44.50378" lon="1.41211">
        <ele>190.8</ele>
        <time>2025-05-29T10:43:00Z</time>
      </trkpt>
      <trkpt lat="44.5038" lon="1.41211">
        <ele>191</ele>
        <time>2025-05-29T10:43:01Z</time>
      </trkpt>
      <trkpt lat="44.50382" lon="1.4121">
        <ele>191</ele>
        <time>2025-05-29T10:43:02Z</time>
      </trkpt>
      <trkpt lat="44.50384" lon="1.41211">
        <ele>191.2</ele>
        <time>2025-05-29T10:43:03Z</time>
      </trkpt>
      <trkpt lat="44.50386" lon="1.4121">
        <ele>191.4</ele>
        <time>2025-05-29T10:43:04Z</time>
      </trkpt>
      <trkpt lat="44.50388" lon="1.4121">
        <ele>191.6</ele>
        <time>2025-05-29T10:43:05Z</time>
      </trkpt>
      <trkpt lat="44.5039" lon="1.4121">
        <ele>191.8</ele>
        <time>2025-05-29T10:43:06Z</time>
      </trkpt>
      <trkpt lat="44.50391" lon="1.41209">
        <ele>192</ele>
        <time>2025-05-29T10:43:07Z</time>
      </trkpt>
      <trkpt lat="44.50393" lon="1.41209">
        <ele>192.4</ele>
        <time>2025-05-29T10:43:08Z</time>
      </trkpt>
      <trkpt lat="44.50395" lon="1.41209">
        <ele>192.6</ele>
        <time>2025-05-29T10:43:09Z</time>
      </trkpt>
      <trkpt lat="44.50396" lon="1.41208">
        <ele>193</ele>
        <time>2025-05-29T10:43:10Z</time>
      </trkpt>
      <trkpt lat="44.50398" lon="1.41209">
        <ele>193.2</ele>
        <time>2025-05-29T10:43:11Z</time>
      </trkpt>
      <trkpt lat="44.504" lon="1.4121">
        <ele>193.4</ele>
        <time>2025-05-29T10:43:12Z</time>
      </trkpt>
      <trkpt lat="44.50402" lon="1.4121">
        <ele>193.6</ele>
        <time>2025-05-29T10:43:13Z</time>
      </trkpt>
      <trkpt lat="44.50404" lon="1.41211">
        <ele>193.6</ele>
        <time>2025-05-29T10:43:14Z</time>
      </trkpt>
      <trkpt lat="44.50406" lon="1.41213">
        <ele>193.6</ele>
        <time>2025-05-29T10:43:15Z</time>
      </trkpt>
      <trkpt lat="44.50409" lon="1.41214">
        <ele>193.6</ele>
        <time>2025-05-29T10:43:16Z</time>
      </trkpt>
      <trkpt lat="44.5041" lon="1.41214">
        <ele>193.4</ele>
        <time>2025-05-29T10:43:17Z</time>
      </trkpt>
      <trkpt lat="44.50412" lon="1.41214">
        <ele>193.2</ele>
        <time>2025-05-29T10:43:18Z</time>
      </trkpt>
      <trkpt lat="44.50414" lon="1.41213">
        <ele>193</ele>
        <time>2025-05-29T10:43:19Z</time>
      </trkpt>
      <trkpt lat="44.50416" lon="1.41211">
        <ele>193</ele>
        <time>2025-05-29T10:43:20Z</time>
      </trkpt>
      <trkpt lat="44.50418" lon="1.41211">
        <ele>193</ele>
        <time>2025-05-29T10:43:21Z</time>
      </trkpt>
      <trkpt lat="44.5042" lon="1.4121">
        <ele>193</ele>
        <time>2025-05-29T10:43:22Z</time>
      </trkpt>
      <trkpt lat="44.50422" lon="1.41209">
        <ele>193</ele>
        <time>2025-05-29T10:43:23Z</time>
      </trkpt>
      <trkpt lat="44.50424" lon="1.41208">
        <ele>193.2</ele>
        <time>2025-05-29T10:43:24Z</time>
      </trkpt>
      <trkpt lat="44.50426" lon="1.41206">
        <ele>193.4</ele>
        <time>2025-05-29T10:43:25Z</time>
      </trkpt>
      <trkpt lat="44.50428" lon="1.41204">
        <ele>193.4</ele>
        <time>2025-05-29T10:43:26Z</time>
      </trkpt>
      <trkpt lat="44.50429" lon="1.41202">
        <ele>193.6</ele>
        <time>2025-05-29T10:43:27Z</time>
      </trkpt>
      <trkpt lat="44.50431" lon="1.41201">
        <ele>193.8</ele>
        <time>2025-05-29T10:43:28Z</time>
      </trkpt>
      <trkpt lat="44.50431" lon="1.41201">
        <ele>194</ele>
        <time>2025-05-29T10:43:29Z</time>
      </trkpt>
      <trkpt lat="44.50432" lon="1.41199">
        <ele>194.4</ele>
        <time>2025-05-29T10:43:30Z</time>
      </trkpt>
      <trkpt lat="44.50433" lon="1.41198">
        <ele>194.6</ele>
        <time>2025-05-29T10:43:31Z</time>
      </trkpt>
      <trkpt lat="44.50435" lon="1.41197">
        <ele>195</ele>
        <time>2025-05-29T10:43:32Z</time>
      </trkpt>
      <trkpt lat="44.50437" lon="1.41196">
        <ele>195.2</ele>
        <time>2025-05-29T10:43:33Z</time>
      </trkpt>
      <trkpt lat="44.50438" lon="1.41194">
        <ele>195.4</ele>
        <time>2025-05-29T10:43:34Z</time>
      </trkpt>
      <trkpt lat="44.5044" lon="1.41193">
        <ele>195.6</ele>
        <time>2025-05-29T10:43:35Z</time>
      </trkpt>
      <trkpt lat="44.50441" lon="1.41192">
        <ele>195.6</ele>
        <time>2025-05-29T10:43:36Z</time>
      </trkpt>
      <trkpt lat="44.50443" lon="1.4119">
        <ele>195.8</ele>
        <time>2025-05-29T10:43:37Z</time>
      </trkpt>
      <trkpt lat="44.50444" lon="1.41189">
        <ele>195.8</ele>
        <time>2025-05-29T10:43:38Z</time>
      </trkpt>
      <trkpt lat="44.50446" lon="1.41188">
        <ele>195.8</ele>
        <time>2025-05-29T10:43:39Z</time>
      </trkpt>
      <trkpt lat="44.50447" lon="1.41186">
        <ele>196</ele>
        <time>2025-05-29T10:43:40Z</time>
      </trkpt>
      <trkpt lat="44.50449" lon="1.41184">
        <ele>196</ele>
        <time>2025-05-29T10:43:41Z</time>
      </trkpt>
      <trkpt lat="44.50449" lon="1.41183">
        <ele>196.2</ele>
        <time>2025-05-29T10:43:42Z</time>
      </trkpt>
      <trkpt lat="44.5045" lon="1.41182">
        <ele>196.4</ele>
        <time>2025-05-29T10:43:43Z</time>
      </trkpt>
      <trkpt lat="44.50451" lon="1.4118">
        <ele>196.6</ele>
        <time>2025-05-29T10:43:44Z</time>
      </trkpt>
      <trkpt lat="44.50452" lon="1.4118">
        <ele>196.8</ele>
        <time>2025-05-29T10:43:45Z</time>
      </trkpt>
      <trkpt lat="44.50453" lon="1.41178">
        <ele>197</ele>
        <time>2025-05-29T10:43:46Z</time>
      </trkpt>
      <trkpt lat="44.50454" lon="1.41177">
        <ele>197.4</ele>
        <time>2025-05-29T10:43:47Z</time>
      </trkpt>
      <trkpt lat="44.50455" lon="1.41175">
        <ele>197.6</ele>
        <time>2025-05-29T10:43:48Z</time>
      </trkpt>
      <trkpt lat="44.50457" lon="1.41174">
        <ele>197.8</ele>
        <time>2025-05-29T10:43:49Z</time>
      </trkpt>
      <trkpt lat="44.50458" lon="1.41172">
        <ele>198</ele>
        <time>2025-05-29T10:43:50Z</time>
      </trkpt>
      <trkpt lat="44.50459" lon="1.41172">
        <ele>198.2</ele>
        <time>2025-05-29T10:43:51Z</time>
      </trkpt>
      <trkpt lat="44.5046" lon="1.4117">
        <ele>198.2</ele>
        <time>2025-05-29T10:43:52Z</time>
      </trkpt>
      <trkpt lat="44.50461" lon="1.41168">
        <ele>198.4</ele>
        <time>2025-05-29T10:43:53Z</time>
      </trkpt>
      <trkpt lat="44.50462" lon="1.41167">
        <ele>198.4</ele>
        <time>2025-05-29T10:43:54Z</time>
      </trkpt>
      <trkpt lat="44.50463" lon="1.41165">
        <ele>198.6</ele>
        <time>2025-05-29T10:43:55Z</time>
      </trkpt>
      <trkpt lat="44.50464" lon="1.41164">
        <ele>198.6</ele>
        <time>2025-05-29T10:43:56Z</time>
      </trkpt>
      <trkpt lat="44.50464" lon="1.41164">
        <ele>198.8</ele>
        <time>2025-05-29T10:43:57Z</time>
      </trkpt>
      <trkpt lat="44.50463" lon="1.41164">
        <ele>199</ele>
        <time>2025-05-29T10:43:58Z</time>
      </trkpt>
      <trkpt lat="44.50475" lon="1.41145">
        <ele>202</ele>
        <time>2025-05-29T10:44:40Z</time>
      </trkpt>
      <trkpt lat="44.50476" lon="1.41143">
        <ele>202.2</ele>
        <time>2025-05-29T10:44:41Z</time>
      </trkpt>
      <trkpt lat="44.50477" lon="1.41142">
        <ele>202.4</ele>
        <time>2025-05-29T10:44:42Z</time>
      </trkpt>
      <trkpt lat="44.50478" lon="1.41141">
        <ele>202.8</ele>
        <time>2025-05-29T10:44:43Z</time>
      </trkpt>
      <trkpt lat="44.5048" lon="1.4114">
        <ele>203</ele>
        <time>2025-05-29T10:44:44Z</time>
      </trkpt>
      <trkpt lat="44.50481" lon="1.41138">
        <ele>203</ele>
        <time>2025-05-29T10:44:45Z</time>
      </trkpt>
      <trkpt lat="44.50482" lon="1.41137">
        <ele>203.2</ele>
        <time>2025-05-29T10:44:46Z</time>
      </trkpt>
      <trkpt lat="44.50483" lon="1.41135">
        <ele>203.4</ele>
        <time>2025-05-29T10:44:47Z</time>
      </trkpt>
      <trkpt lat="44.50484" lon="1.41133">
        <ele>203.6</ele>
        <time>2025-05-29T10:44:48Z</time>
      </trkpt>
      <trkpt lat="44.50485" lon="1.41131">
        <ele>203.8</ele>
        <time>2025-05-29T10:44:49Z</time>
      </trkpt>
      <trkpt lat="44.50485" lon="1.41129">
        <ele>204</ele>
        <time>2025-05-29T10:44:50Z</time>
      </trkpt>
      <trkpt lat="44.50486" lon="1.41128">
        <ele>204.4</ele>
        <time>2025-05-29T10:44:51Z</time>
      </trkpt>
      <trkpt lat="44.50487" lon="1.41126">
        <ele>204.6</ele>
        <time>2025-05-29T10:44:52Z</time>
      </trkpt>
      <trkpt lat="44.50488" lon="1.41124">
        <ele>204.8</ele>
        <time>2025-05-29T10:44:53Z</time>
      </trkpt>
      <trkpt lat="44.50489" lon="1.41123">
        <ele>205.2</ele>
        <time>2025-05-29T10:44:54Z</time>
      </trkpt>
      <trkpt lat="44.5049" lon="1.41121">
        <ele>205.4</ele>
        <time>2025-05-29T10:44:55Z</time>
      </trkpt>
      <trkpt lat="44.50491" lon="1.41119">
        <ele>205.8</ele>
        <time>2025-05-29T10:44:56Z</time>
      </trkpt>
      <trkpt lat="44.50492" lon="1.41118">
        <ele>206</ele>
        <time>2025-05-29T10:44:57Z</time>
      </trkpt>
      <trkpt lat="44.50493" lon="1.41116">
        <ele>206.4</ele>
        <time>2025-05-29T10:44:58Z</time>
      </trkpt>
      <trkpt lat="44.50494" lon="1.41114">
        <ele>206.8</ele>
        <time>2025-05-29T10:44:59Z</time>
      </trkpt>
      <trkpt lat="44.50494" lon="1.41113">
        <ele>207</ele>
        <time>2025-05-29T10:45:00Z</time>
      </trkpt>
      <trkpt lat="44.50495" lon="1.41112">
        <ele>207.2</ele>
        <time>2025-05-29T10:45:01Z</time>
      </trkpt>
      <trkpt lat="44.50496" lon="1.41111">
        <ele>207.4</ele>
        <time>2025-05-29T10:45:02Z</time>
      </trkpt>
      <trkpt lat="44.50497" lon="1.41109">
        <ele>207.6</ele>
        <time>2025-05-29T10:45:03Z</time>
      </trkpt>
      <trkpt lat="44.50498" lon="1.41108">
        <ele>207.8</ele>
        <time>2025-05-29T10:45:04Z</time>
      </trkpt>
      <trkpt lat="44.505" lon="1.41106">
        <ele>208</ele>
        <time>2025-05-29T10:45:05Z</time>
      </trkpt>
      <trkpt lat="44.50501" lon="1.41105">
        <ele>208.2</ele>
        <time>2025-05-29T10:45:06Z</time>
      </trkpt>
      <trkpt lat="44.50502" lon="1.41104">
        <ele>208.4</ele>
        <time>2025-05-29T10:45:07Z</time>
      </trkpt>
      <trkpt lat="44.50503" lon="1.41103">
        <ele>208.4</ele>
        <time>2025-05-29T10:45:08Z</time>
      </trkpt>
      <trkpt lat="44.50504" lon="1.41101">
        <ele>208.6</ele>
        <time>2025-05-29T10:45:09Z</time>
      </trkpt>
      <trkpt lat="44.50505" lon="1.411">
        <ele>208.8</ele>
        <time>2025-05-29T10:45:10Z</time>
      </trkpt>
      <trkpt lat="44.50506" lon="1.41098">
        <ele>208.8</ele>
        <time>2025-05-29T10:45:11Z</time>
      </trkpt>
      <trkpt lat="44.50507" lon="1.41097">
        <ele>209</ele>
        <time>2025-05-29T10:45:12Z</time>
      </trkpt>
      <trkpt lat="44.50508" lon="1.41096">
        <ele>209.2</ele>
        <time>2025-05-29T10:45:13Z</time>
      </trkpt>
      <trkpt lat="44.50509" lon="1.41094">
        <ele>209.4</ele>
        <time>2025-05-29T10:45:14Z</time>
      </trkpt>
      <trkpt lat="44.50511" lon="1.41093">
        <ele>209.4</ele>
        <time>2025-05-29T10:45:15Z</time>
      </trkpt>
      <trkpt lat="44.50512" lon="1.41091">
        <ele>209.6</ele>
        <time>2025-05-29T10:45:16Z</time>
      </trkpt>
      <trkpt lat="44.50513" lon="1.41089">
        <ele>209.8</ele>
        <time>2025-05-29T10:45:17Z</time>
      </trkpt>
      <trkpt lat="44.50514" lon="1.41088">
        <ele>210</ele>
        <time>2025-05-29T10:45:18Z</time>
      </trkpt>
      <trkpt lat="44.50515" lon="1.41087">
        <ele>210.2</ele>
        <time>2025-05-29T10:45:19Z</time>
      </trkpt>
      <trkpt lat="44.50517" lon="1.41086">
        <ele>210.4</ele>
        <time>2025-05-29T10:45:20Z</time>
      </trkpt>
      <trkpt lat="44.50518" lon="1.41084">
        <ele>210.6</ele>
        <time>2025-05-29T10:45:21Z</time>
      </trkpt>
      <trkpt lat="44.50519" lon="1.41083">
        <ele>210.8</ele>
        <time>2025-05-29T10:45:22Z</time>
      </trkpt>
      <trkpt lat="44.50521" lon="1.41082">
        <ele>211</ele>
        <time>2025-05-29T10:45:23Z</time>
      </trkpt>
      <trkpt lat="44.50521" lon="1.4108">
        <ele>211.2</ele>
        <time>2025-05-29T10:45:24Z</time>
      </trkpt>
      <trkpt lat="44.50521" lon="1.41078">
        <ele>211.4</ele>
        <time>2025-05-29T10:45:25Z</time>
      </trkpt>
      <trkpt lat="44.5052" lon="1.41078">
        <ele>211.6</ele>
        <time>2025-05-29T10:45:26Z</time>
      </trkpt>
      <trkpt lat="44.50519" lon="1.41079">
        <ele>211.8</ele>
        <time>2025-05-29T10:45:27Z</time>
      </trkpt>
      <trkpt lat="44.50518" lon="1.41081">
        <ele>212</ele>
        <time>2025-05-29T10:45:28Z</time>
      </trkpt>
      <trkpt lat="44.50517" lon="1.41082">
        <ele>212</ele>
        <time>2025-05-29T10:45:29Z</time>
      </trkpt>
      <trkpt lat="44.50516" lon="1.41082">
        <ele>212.2</ele>
        <time>2025-05-29T10:45:30Z</time>
      </trkpt>
      <trkpt lat="44.50515" lon="1.41083">
        <ele>212.2</ele>
        <time>2025-05-29T10:45:31Z</time>
      </trkpt>
      <trkpt lat="44.50514" lon="1.41084">
        <ele>212.2</ele>
        <time>2025-05-29T10:45:32Z</time>
      </trkpt>
      <trkpt lat="44.50512" lon="1.41085">
        <ele>212.2</ele>
        <time>2025-05-29T10:45:33Z</time>
      </trkpt>
      <trkpt lat="44.50511" lon="1.41085">
        <ele>212.2</ele>
        <time>2025-05-29T10:45:34Z</time>
      </trkpt>
      <trkpt lat="44.5051" lon="1.41086">
        <ele>212.2</ele>
        <time>2025-05-29T10:45:35Z</time>
      </trkpt>
      <trkpt lat="44.50509" lon="1.41087">
        <ele>212.4</ele>
        <time>2025-05-29T10:45:36Z</time>
      </trkpt>
      <trkpt lat="44.50507" lon="1.41088">
        <ele>212.4</ele>
        <time>2025-05-29T10:45:37Z</time>
      </trkpt>
      <trkpt lat="44.50506" lon="1.41089">
        <ele>212.6</ele>
        <time>2025-05-29T10:45:38Z</time>
      </trkpt>
      <trkpt lat="44.50504" lon="1.4109">
        <ele>212.8</ele>
        <time>2025-05-29T10:45:39Z</time>
      </trkpt>
      <trkpt lat="44.50502" lon="1.41091">
        <ele>212.8</ele>
        <time>2025-05-29T10:45:40Z</time>
      </trkpt>
      <trkpt lat="44.50501" lon="1.41091">
        <ele>213</ele>
        <time>2025-05-29T10:45:41Z</time>
      </trkpt>
      <trkpt lat="44.505" lon="1.41092">
        <ele>213.2</ele>
        <time>2025-05-29T10:45:42Z</time>
      </trkpt>
      <trkpt lat="44.50499" lon="1.41093">
        <ele>213.4</ele>
        <time>2025-05-29T10:45:43Z</time>
      </trkpt>
      <trkpt lat="44.50497" lon="1.41093">
        <ele>213.4</ele>
        <time>2025-05-29T10:45:44Z</time>
      </trkpt>
      <trkpt lat="44.50496" lon="1.41094">
        <ele>213.6</ele>
        <time>2025-05-29T10:45:45Z</time>
      </trkpt>
      <trkpt lat="44.50495" lon="1.41095">
        <ele>213.6</ele>
        <time>2025-05-29T10:45:46Z</time>
      </trkpt>
      <trkpt lat="44.50494" lon="1.41096">
        <ele>213.8</ele>
        <time>2025-05-29T10:45:47Z</time>
      </trkpt>
      <trkpt lat="44.50492" lon="1.41098">
        <ele>213.8</ele>
        <time>2025-05-29T10:45:48Z</time>
      </trkpt>
      <trkpt lat="44.50491" lon="1.41099">
        <ele>214</ele>
        <time>2025-05-29T10:45:49Z</time>
      </trkpt>
      <trkpt lat="44.50489" lon="1.411">
        <ele>214</ele>
        <time>2025-05-29T10:45:50Z</time>
      </trkpt>
      <trkpt lat="44.50487" lon="1.41101">
        <ele>214</ele>
        <time>2025-05-29T10:45:51Z</time>
      </trkpt>
      <trkpt lat="44.50486" lon="1.41102">
        <ele>214</ele>
        <time>2025-05-29T10:45:52Z</time>
      </trkpt>
      <trkpt lat="44.50485" lon="1.41103">
        <ele>214.2</ele>
        <time>2025-05-29T10:45:53Z</time>
      </trkpt>
      <trkpt lat="44.50484" lon="1.41104">
        <ele>214.2</ele>
        <time>2025-05-29T10:45:54Z</time>
      </trkpt>
      <trkpt lat="44.50483" lon="1.41104">
        <ele>214.2</ele>
        <time>2025-05-29T10:45:55Z</time>
      </trkpt>
      <trkpt lat="44.50482" lon="1.41105">
        <ele>214.4</ele>
        <time>2025-05-29T10:45:56Z</time>
      </trkpt>
      <trkpt lat="44.5048" lon="1.41105">
        <ele>214.4</ele>
        <time>2025-05-29T10:45:57Z</time>
      </trkpt>
      <trkpt lat="44.50479" lon="1.41105">
        <ele>214.6</ele>
        <time>2025-05-29T10:45:58Z</time>
      </trkpt>
      <trkpt lat="44.50478" lon="1.41106">
        <ele>214.6</ele>
        <time>2025-05-29T10:45:59Z</time>
      </trkpt>
      <trkpt lat="44.50477" lon="1.41107">
        <ele>214.8</ele>
        <time>2025-05-29T10:46:00Z</time>
      </trkpt>
      <trkpt lat="44.50475" lon="1.41108">
        <ele>214.8</ele>
        <time>2025-05-29T10:46:01Z</time>
      </trkpt>
      <trkpt lat="44.50474" lon="1.41109">
        <ele>215</ele>
        <time>2025-05-29T10:46:02Z</time>
      </trkpt>
      <trkpt lat="44.50472" lon="1.4111">
        <ele>215</ele>
        <time>2025-05-29T10:46:03Z</time>
      </trkpt>
      <trkpt lat="44.50471" lon="1.41111">
        <ele>215</ele>
        <time>2025-05-29T10:46:04Z</time>
      </trkpt>
      <trkpt lat="44.5047" lon="1.41112">
        <ele>215</ele>
        <time>2025-05-29T10:46:05Z</time>
      </trkpt>
      <trkpt lat="44.50469" lon="1.41113">
        <ele>215</ele>
        <time>2025-05-29T10:46:06Z</time>
      </trkpt>
      <trkpt lat="44.50467" lon="1.41114">
        <ele>215.2</ele>
        <time>2025-05-29T10:46:07Z</time>
      </trkpt>
      <trkpt lat="44.50466" lon="1.41114">
        <ele>215.4</ele>
        <time>2025-05-29T10:46:08Z</time>
      </trkpt>
      <trkpt lat="44.50464" lon="1.41115">
        <ele>215.4</ele>
        <time>2025-05-29T10:46:09Z</time>
      </trkpt>
      <trkpt lat="44.50463" lon="1.41115">
        <ele>215.6</ele>
        <time>2025-05-29T10:46:10Z</time>
      </trkpt>
      <trkpt lat="44.50461" lon="1.41116">
        <ele>215.8</ele>
        <time>2025-05-29T10:46:11Z</time>
      </trkpt>
      <trkpt lat="44.5046" lon="1.41116">
        <ele>215.8</ele>
        <time>2025-05-29T10:46:12Z</time>
      </trkpt>
      <trkpt lat="44.50458" lon="1.41117">
        <ele>216</ele>
        <time>2025-05-29T10:46:13Z</time>
      </trkpt>
      <trkpt lat="44.50456" lon="1.41117">
        <ele>216.2</ele>
        <time>2025-05-29T10:46:14Z</time>
      </trkpt>
      <trkpt lat="44.50455" lon="1.41117">
        <ele>216.4</ele>
        <time>2025-05-29T10:46:15Z</time>
      </trkpt>
      <trkpt lat="44.50453" lon="1.41118">
        <ele>216.6</ele>
        <time>2025-05-29T10:46:16Z</time>
      </trkpt>
      <trkpt lat="44.50452" lon="1.4112">
        <ele>216.6</ele>
        <time>2025-05-29T10:46:17Z</time>
      </trkpt>
      <trkpt lat="44.5045" lon="1.41121">
        <ele>216.6</ele>
        <time>2025-05-29T10:46:18Z</time>
      </trkpt>
      <trkpt lat="44.50449" lon="1.41122">
        <ele>216.6</ele>
        <time>2025-05-29T10:46:19Z</time>
      </trkpt>
      <trkpt lat="44.50447" lon="1.41123">
        <ele>216.6</ele>
        <time>2025-05-29T10:46:20Z</time>
      </trkpt>
      <trkpt lat="44.50446" lon="1.41124">
        <ele>216.6</ele>
        <time>2025-05-29T10:46:21Z</time>
      </trkpt>
      <trkpt lat="44.50444" lon="1.41125">
        <ele>216.6</ele>
        <time>2025-05-29T10:46:22Z</time>
      </trkpt>
      <trkpt lat="44.50442" lon="1.41126">
        <ele>216.6</ele>
        <time>2025-05-29T10:46:23Z</time>
      </trkpt>
      <trkpt lat="44.5044" lon="1.41127">
        <ele>216.6</ele>
        <time>2025-05-29T10:46:24Z</time>
      </trkpt>
      <trkpt lat="44.50438" lon="1.41127">
        <ele>216.6</ele>
        <time>2025-05-29T10:46:25Z</time>
      </trkpt>
      <trkpt lat="44.50437" lon="1.41129">
        <ele>216.8</ele>
        <time>2025-05-29T10:46:26Z</time>
      </trkpt>
      <trkpt lat="44.50435" lon="1.4113">
        <ele>216.8</ele>
        <time>2025-05-29T10:46:27Z</time>
      </trkpt>
      <trkpt lat="44.50433" lon="1.41131">
        <ele>216.8</ele>
        <time>2025-05-29T10:46:28Z</time>
      </trkpt>
      <trkpt lat="44.5043" lon="1.41132">
        <ele>217</ele>
        <time>2025-05-29T10:46:29Z</time>
      </trkpt>
      <trkpt lat="44.50429" lon="1.41133">
        <ele>217</ele>
        <time>2025-05-29T10:46:30Z</time>
      </trkpt>
      <trkpt lat="44.50427" lon="1.41135">
        <ele>217</ele>
        <time>2025-05-29T10:46:31Z</time>
      </trkpt>
      <trkpt lat="44.50425" lon="1.41137">
        <ele>216.8</ele>
        <time>2025-05-29T10:46:32Z</time>
      </trkpt>
      <trkpt lat="44.50422" lon="1.4114">
        <ele>216.8</ele>
        <time>2025-05-29T10:46:33Z</time>
      </trkpt>
      <trkpt lat="44.5042" lon="1.41141">
        <ele>216.8</ele>
        <time>2025-05-29T10:46:34Z</time>
      </trkpt>
      <trkpt lat="44.50418" lon="1.41141">
        <ele>216.6</ele>
        <time>2025-05-29T10:46:35Z</time>
      </trkpt>
      <trkpt lat="44.50417" lon="1.41141">
        <ele>216.6</ele>
        <time>2025-05-29T10:46:36Z</time>
      </trkpt>
      <trkpt lat="44.50415" lon="1.41142">
        <ele>216.6</ele>
        <time>2025-05-29T10:46:37Z</time>
      </trkpt>
      <trkpt lat="44.50413" lon="1.41143">
        <ele>216.8</ele>
        <time>2025-05-29T10:46:38Z</time>
      </trkpt>
      <trkpt lat="44.50411" lon="1.41143">
        <ele>216.8</ele>
        <time>2025-05-29T10:46:39Z</time>
      </trkpt>
      <trkpt lat="44.50409" lon="1.41143">
        <ele>216.8</ele>
        <time>2025-05-29T10:46:40Z</time>
      </trkpt>
      <trkpt lat="44.50407" lon="1.41143">
        <ele>217</ele>
        <time>2025-05-29T10:46:41Z</time>
      </trkpt>
      <trkpt lat="44.50405" lon="1.41144">
        <ele>217</ele>
        <time>2025-05-29T10:46:42Z</time>
      </trkpt>
      <trkpt lat="44.50402" lon="1.41144">
        <ele>217.2</ele>
        <time>2025-05-29T10:46:43Z</time>
      </trkpt>
      <trkpt lat="44.504" lon="1.41144">
        <ele>217.2</ele>
        <time>2025-05-29T10:46:44Z</time>
      </trkpt>
      <trkpt lat="44.50398" lon="1.41145">
        <ele>217.4</ele>
        <time>2025-05-29T10:46:45Z</time>
      </trkpt>
      <trkpt lat="44.50396" lon="1.41145">
        <ele>217.4</ele>
        <time>2025-05-29T10:46:46Z</time>
      </trkpt>
      <trkpt lat="44.50394" lon="1.41145">
        <ele>217.6</ele>
        <time>2025-05-29T10:46:47Z</time>
      </trkpt>
      <trkpt lat="44.50391" lon="1.41145">
        <ele>217.6</ele>
        <time>2025-05-29T10:46:48Z</time>
      </trkpt>
      <trkpt lat="44.50389" lon="1.41146">
        <ele>217.6</ele>
        <time>2025-05-29T10:46:49Z</time>
      </trkpt>
      <trkpt lat="44.50387" lon="1.41145">
        <ele>217.4</ele>
        <time>2025-05-29T10:46:50Z</time>
      </trkpt>
      <trkpt lat="44.50385" lon="1.41144">
        <ele>217.4</ele>
        <time>2025-05-29T10:46:51Z</time>
      </trkpt>
      <trkpt lat="44.50384" lon="1.41142">
        <ele>217.6</ele>
        <time>2025-05-29T10:46:52Z</time>
      </trkpt>
      <trkpt lat="44.50382" lon="1.41142">
        <ele>217.6</ele>
        <time>2025-05-29T10:46:53Z</time>
      </trkpt>
      <trkpt lat="44.50381" lon="1.41141">
        <ele>217.8</ele>
        <time>2025-05-29T10:46:54Z</time>
      </trkpt>
      <trkpt lat="44.50379" lon="1.41141">
        <ele>218.2</ele>
        <time>2025-05-29T10:46:55Z</time>
      </trkpt>
      <trkpt lat="44.50377" lon="1.41141">
        <ele>218.4</ele>
        <time>2025-05-29T10:46:56Z</time>
      </trkpt>
      <trkpt lat="44.50374" lon="1.41141">
        <ele>218.6</ele>
        <time>2025-05-29T10:46:57Z</time>
      </trkpt>
      <trkpt lat="44.50371" lon="1.41141">
        <ele>218.6</ele>
        <time>2025-05-29T10:46:58Z</time>
      </trkpt>
      <trkpt lat="44.50369" lon="1.4114">
        <ele>218.6</ele>
        <time>2025-05-29T10:46:59Z</time>
      </trkpt>
      <trkpt lat="44.50367" lon="1.41139">
        <ele>218.6</ele>
        <time>2025-05-29T10:47:00Z</time>
      </trkpt>
      <trkpt lat="44.50365" lon="1.41137">
        <ele>218.6</ele>
        <time>2025-05-29T10:47:01Z</time>
      </trkpt>
      <trkpt lat="44.50364" lon="1.41135">
        <ele>218.8</ele>
        <time>2025-05-29T10:47:02Z</time>
      </trkpt>
      <trkpt lat="44.50363" lon="1.41134">
        <ele>218.8</ele>
        <time>2025-05-29T10:47:03Z</time>
      </trkpt>
      <trkpt lat="44.50362" lon="1.41134">
        <ele>219</ele>
        <time>2025-05-29T10:47:04Z</time>
      </trkpt>
      <trkpt lat="44.50362" lon="1.41133">
        <ele>219.2</ele>
        <time>2025-05-29T10:47:05Z</time>
      </trkpt>
      <trkpt lat="44.50361" lon="1.41132">
        <ele>219.4</ele>
        <time>2025-05-29T10:47:06Z</time>
      </trkpt>
      <trkpt lat="44.50359" lon="1.41131">
        <ele>219.6</ele>
        <time>2025-05-29T10:47:07Z</time>
      </trkpt>
      <trkpt lat="44.50358" lon="1.4113">
        <ele>219.8</ele>
        <time>2025-05-29T10:47:08Z</time>
      </trkpt>
      <trkpt lat="44.50356" lon="1.4113">
        <ele>220</ele>
        <time>2025-05-29T10:47:09Z</time>
      </trkpt>
      <trkpt lat="44.50354" lon="1.41129">
        <ele>220</ele>
        <time>2025-05-29T10:47:10Z</time>
      </trkpt>
      <trkpt lat="44.50353" lon="1.41128">
        <ele>220.2</ele>
        <time>2025-05-29T10:47:11Z</time>
      </trkpt>
      <trkpt lat="44.50351" lon="1.41128">
        <ele>220.2</ele>
        <time>2025-05-29T10:47:12Z</time>
      </trkpt>
      <trkpt lat="44.5035" lon="1.41126">
        <ele>220.4</ele>
        <time>2025-05-29T10:47:13Z</time>
      </trkpt>
      <trkpt lat="44.50349" lon="1.41125">
        <ele>220.6</ele>
        <time>2025-05-29T10:47:14Z</time>
      </trkpt>
      <trkpt lat="44.50348" lon="1.41124">
        <ele>220.8</ele>
        <time>2025-05-29T10:47:15Z</time>
      </trkpt>
      <trkpt lat="44.50347" lon="1.41123">
        <ele>221</ele>
        <time>2025-05-29T10:47:16Z</time>
      </trkpt>
      <trkpt lat="44.50345" lon="1.41122">
        <ele>221.2</ele>
        <time>2025-05-29T10:47:17Z</time>
      </trkpt>
      <trkpt lat="44.50344" lon="1.41121">
        <ele>221.2</ele>
        <time>2025-05-29T10:47:18Z</time>
      </trkpt>
      <trkpt lat="44.50343" lon="1.4112">
        <ele>221.4</ele>
        <time>2025-05-29T10:47:19Z</time>
      </trkpt>
      <trkpt lat="44.50342" lon="1.41119">
        <ele>221.4</ele>
        <time>2025-05-29T10:47:20Z</time>
      </trkpt>
      <trkpt lat="44.50341" lon="1.41117">
        <ele>221.6</ele>
        <time>2025-05-29T10:47:21Z</time>
      </trkpt>
      <trkpt lat="44.5034" lon="1.41116">
        <ele>221.8</ele>
        <time>2025-05-29T10:47:22Z</time>
      </trkpt>
      <trkpt lat="44.50339" lon="1.41114">
        <ele>222</ele>
        <time>2025-05-29T10:47:23Z</time>
      </trkpt>
      <trkpt lat="44.50338" lon="1.41113">
        <ele>222</ele>
        <time>2025-05-29T10:47:24Z</time>
      </trkpt>
      <trkpt lat="44.50338" lon="1.41111">
        <ele>222.2</ele>
        <time>2025-05-29T10:47:25Z</time>
      </trkpt>
      <trkpt lat="44.50337" lon="1.4111">
        <ele>222.2</ele>
        <time>2025-05-29T10:47:26Z</time>
      </trkpt>
      <trkpt lat="44.50337" lon="1.41108">
        <ele>222.4</ele>
        <time>2025-05-29T10:47:27Z</time>
      </trkpt>
      <trkpt lat="44.50337" lon="1.41107">
        <ele>222.6</ele>
        <time>2025-05-29T10:47:28Z</time>
      </trkpt>
      <trkpt lat="44.50337" lon="1.41105">
        <ele>222.8</ele>
        <time>2025-05-29T10:47:29Z</time>
      </trkpt>
      <trkpt lat="44.50337" lon="1.41103">
        <ele>223</ele>
        <time>2025-05-29T10:47:30Z</time>
      </trkpt>
      <trkpt lat="44.50338" lon="1.41102">
        <ele>223.2</ele>
        <time>2025-05-29T10:47:31Z</time>
      </trkpt>
      <trkpt lat="44.50339" lon="1.411">
        <ele>223.4</ele>
        <time>2025-05-29T10:47:32Z</time>
      </trkpt>
      <trkpt lat="44.5034" lon="1.411">
        <ele>223.6</ele>
        <time>2025-05-29T10:47:33Z</time>
      </trkpt>
      <trkpt lat="44.50341" lon="1.411">
        <ele>223.8</ele>
        <time>2025-05-29T10:47:34Z</time>
      </trkpt>
      <trkpt lat="44.50342" lon="1.41101">
        <ele>224</ele>
        <time>2025-05-29T10:47:35Z</time>
      </trkpt>
      <trkpt lat="44.50343" lon="1.41102">
        <ele>224</ele>
        <time>2025-05-29T10:47:36Z</time>
      </trkpt>
      <trkpt lat="44.50345" lon="1.41102">
        <ele>224.2</ele>
        <time>2025-05-29T10:47:37Z</time>
      </trkpt>
      <trkpt lat="44.50346" lon="1.41103">
        <ele>224.4</ele>
        <time>2025-05-29T10:47:38Z</time>
      </trkpt>
      <trkpt lat="44.50347" lon="1.41103">
        <ele>224.4</ele>
        <time>2025-05-29T10:47:39Z</time>
      </trkpt>
      <trkpt lat="44.50349" lon="1.41104">
        <ele>224.4</ele>
        <time>2025-05-29T10:47:40Z</time>
      </trkpt>
      <trkpt lat="44.5035" lon="1.41103">
        <ele>224.6</ele>
        <time>2025-05-29T10:47:41Z</time>
      </trkpt>
      <trkpt lat="44.50351" lon="1.41103">
        <ele>224.8</ele>
        <time>2025-05-29T10:47:42Z</time>
      </trkpt>
      <trkpt lat="44.50352" lon="1.41104">
        <ele>225</ele>
        <time>2025-05-29T10:47:43Z</time>
      </trkpt>
      <trkpt lat="44.50354" lon="1.41104">
        <ele>225.2</ele>
        <time>2025-05-29T10:47:44Z</time>
      </trkpt>
      <trkpt lat="44.50355" lon="1.41104">
        <ele>225.4</ele>
        <time>2025-05-29T10:47:45Z</time>
      </trkpt>
      <trkpt lat="44.50357" lon="1.41105">
        <ele>225.6</ele>
        <time>2025-05-29T10:47:46Z</time>
      </trkpt>
      <trkpt lat="44.50358" lon="1.41105">
        <ele>225.8</ele>
        <time>2025-05-29T10:47:47Z</time>
      </trkpt>
      <trkpt lat="44.50359" lon="1.41105">
        <ele>226.2</ele>
        <time>2025-05-29T10:47:48Z</time>
      </trkpt>
      <trkpt lat="44.5036" lon="1.41104">
        <ele>226.4</ele>
        <time>2025-05-29T10:47:49Z</time>
      </trkpt>
      <trkpt lat="44.50361" lon="1.41104">
        <ele>226.4</ele>
        <time>2025-05-29T10:47:50Z</time>
      </trkpt>
      <trkpt lat="44.50362" lon="1.41103">
        <ele>226.6</ele>
        <time>2025-05-29T10:47:51Z</time>
      </trkpt>
      <trkpt lat="44.50364" lon="1.41103">
        <ele>226.8</ele>
        <time>2025-05-29T10:47:52Z</time>
      </trkpt>
      <trkpt lat="44.50365" lon="1.41102">
        <ele>227</ele>
        <time>2025-05-29T10:47:53Z</time>
      </trkpt>
      <trkpt lat="44.50366" lon="1.41103">
        <ele>227.2</ele>
        <time>2025-05-29T10:47:54Z</time>
      </trkpt>
      <trkpt lat="44.50367" lon="1.41103">
        <ele>227.4</ele>
        <time>2025-05-29T10:47:55Z</time>
      </trkpt>
      <trkpt lat="44.50369" lon="1.41103">
        <ele>227.4</ele>
        <time>2025-05-29T10:47:56Z</time>
      </trkpt>
      <trkpt lat="44.5037" lon="1.41103">
        <ele>227.6</ele>
        <time>2025-05-29T10:47:57Z</time>
      </trkpt>
      <trkpt lat="44.50371" lon="1.41103">
        <ele>227.6</ele>
        <time>2025-05-29T10:47:58Z</time>
      </trkpt>
      <trkpt lat="44.50372" lon="1.41102">
        <ele>227.6</ele>
        <time>2025-05-29T10:47:59Z</time>
      </trkpt>
      <trkpt lat="44.50374" lon="1.41101">
        <ele>227.8</ele>
        <time>2025-05-29T10:48:00Z</time>
      </trkpt>
      <trkpt lat="44.50375" lon="1.41101">
        <ele>228</ele>
        <time>2025-05-29T10:48:01Z</time>
      </trkpt>
      <trkpt lat="44.50376" lon="1.411">
        <ele>228.4</ele>
        <time>2025-05-29T10:48:02Z</time>
      </trkpt>
      <trkpt lat="44.50377" lon="1.411">
        <ele>228.6</ele>
        <time>2025-05-29T10:48:03Z</time>
      </trkpt>
      <trkpt lat="44.50379" lon="1.41099">
        <ele>229</ele>
        <time>2025-05-29T10:48:04Z</time>
      </trkpt>
      <trkpt lat="44.5038" lon="1.41098">
        <ele>229.2</ele>
        <time>2025-05-29T10:48:05Z</time>
      </trkpt>
      <trkpt lat="44.50381" lon="1.41098">
        <ele>229.6</ele>
        <time>2025-05-29T10:48:06Z</time>
      </trkpt>
      <trkpt lat="44.50382" lon="1.41097">
        <ele>229.8</ele>
        <time>2025-05-29T10:48:07Z</time>
      </trkpt>
      <trkpt lat="44.50383" lon="1.41097">
        <ele>230</ele>
        <time>2025-05-29T10:48:08Z</time>
      </trkpt>
      <trkpt lat="44.50385" lon="1.41097">
        <ele>230.2</ele>
        <time>2025-05-29T10:48:09Z</time>
      </trkpt>
      <trkpt lat="44.50386" lon="1.41096">
        <ele>230.4</ele>
        <time>2025-05-29T10:48:10Z</time>
      </trkpt>
      <trkpt lat="44.50388" lon="1.41096">
        <ele>230.4</ele>
        <time>2025-05-29T10:48:11Z</time>
      </trkpt>
      <trkpt lat="44.50389" lon="1.41096">
        <ele>230.4</ele>
        <time>2025-05-29T10:48:12Z</time>
      </trkpt>
      <trkpt lat="44.5039" lon="1.41096">
        <ele>230.4</ele>
        <time>2025-05-29T10:48:13Z</time>
      </trkpt>
      <trkpt lat="44.50392" lon="1.41096">
        <ele>230.2</ele>
        <time>2025-05-29T10:48:14Z</time>
      </trkpt>
      <trkpt lat="44.50393" lon="1.41095">
        <ele>230.2</ele>
        <time>2025-05-29T10:48:15Z</time>
      </trkpt>
      <trkpt lat="44.50394" lon="1.41095">
        <ele>230.4</ele>
        <time>2025-05-29T10:48:16Z</time>
      </trkpt>
      <trkpt lat="44.50396" lon="1.41094">
        <ele>230.4</ele>
        <time>2025-05-29T10:48:17Z</time>
      </trkpt>
      <trkpt lat="44.50397" lon="1.41092">
        <ele>230.6</ele>
        <time>2025-05-29T10:48:18Z</time>
      </trkpt>
      <trkpt lat="44.50397" lon="1.4109">
        <ele>230.8</ele>
        <time>2025-05-29T10:48:19Z</time>
      </trkpt>
      <trkpt lat="44.50396" lon="1.41089">
        <ele>231</ele>
        <time>2025-05-29T10:48:20Z</time>
      </trkpt>
      <trkpt lat="44.50395" lon="1.41089">
        <ele>231.4</ele>
        <time>2025-05-29T10:48:21Z</time>
      </trkpt>
      <trkpt lat="44.50394" lon="1.41089">
        <ele>231.6</ele>
        <time>2025-05-29T10:48:22Z</time>
      </trkpt>
      <trkpt lat="44.50392" lon="1.41088">
        <ele>231.8</ele>
        <time>2025-05-29T10:48:23Z</time>
      </trkpt>
      <trkpt lat="44.5039" lon="1.41087">
        <ele>231.8</ele>
        <time>2025-05-29T10:48:24Z</time>
      </trkpt>
      <trkpt lat="44.50389" lon="1.41087">
        <ele>232</ele>
        <time>2025-05-29T10:48:25Z</time>
      </trkpt>
      <trkpt lat="44.50387" lon="1.41086">
        <ele>232</ele>
        <time>2025-05-29T10:48:26Z</time>
      </trkpt>
      <trkpt lat="44.50386" lon="1.41086">
        <ele>232.2</ele>
        <time>2025-05-29T10:48:27Z</time>
      </trkpt>
      <trkpt lat="44.50384" lon="1.41085">
        <ele>232.2</ele>
        <time>2025-05-29T10:48:28Z</time>
      </trkpt>
      <trkpt lat="44.50383" lon="1.41084">
        <ele>232.4</ele>
        <time>2025-05-29T10:48:29Z</time>
      </trkpt>
      <trkpt lat="44.50382" lon="1.41081">
        <ele>232.4</ele>
        <time>2025-05-29T10:48:30Z</time>
      </trkpt>
      <trkpt lat="44.50383" lon="1.41079">
        <ele>232.4</ele>
        <time>2025-05-29T10:48:31Z</time>
      </trkpt>
      <trkpt lat="44.50384" lon="1.41079">
        <ele>232.4</ele>
        <time>2025-05-29T10:48:32Z</time>
      </trkpt>
      <trkpt lat="44.50386" lon="1.41078">
        <ele>232.6</ele>
        <time>2025-05-29T10:48:33Z</time>
      </trkpt>
      <trkpt lat="44.50387" lon="1.41077">
        <ele>232.8</ele>
        <time>2025-05-29T10:48:34Z</time>
      </trkpt>
      <trkpt lat="44.50388" lon="1.41076">
        <ele>233</ele>
        <time>2025-05-29T10:48:35Z</time>
      </trkpt>
      <trkpt lat="44.50389" lon="1.41075">
        <ele>233.4</ele>
        <time>2025-05-29T10:48:36Z</time>
      </trkpt>
      <trkpt lat="44.5039" lon="1.41074">
        <ele>233.6</ele>
        <time>2025-05-29T10:48:37Z</time>
      </trkpt>
      <trkpt lat="44.50391" lon="1.41073">
        <ele>233.8</ele>
        <time>2025-05-29T10:48:38Z</time>
      </trkpt>
      <trkpt lat="44.50391" lon="1.41071">
        <ele>234.2</ele>
        <time>2025-05-29T10:48:39Z</time>
      </trkpt>
      <trkpt lat="44.50393" lon="1.4107">
        <ele>234.4</ele>
        <time>2025-05-29T10:48:40Z</time>
      </trkpt>
      <trkpt lat="44.50394" lon="1.41069">
        <ele>234.6</ele>
        <time>2025-05-29T10:48:41Z</time>
      </trkpt>
      <trkpt lat="44.50395" lon="1.41068">
        <ele>234.8</ele>
        <time>2025-05-29T10:48:42Z</time>
      </trkpt>
      <trkpt lat="44.50396" lon="1.41067">
        <ele>235</ele>
        <time>2025-05-29T10:48:43Z</time>
      </trkpt>
      <trkpt lat="44.50398" lon="1.41066">
        <ele>235.2</ele>
        <time>2025-05-29T10:48:44Z</time>
      </trkpt>
      <trkpt lat="44.50399" lon="1.41066">
        <ele>235.2</ele>
        <time>2025-05-29T10:48:45Z</time>
      </trkpt>
      <trkpt lat="44.50401" lon="1.41067">
        <ele>235.4</ele>
        <time>2025-05-29T10:48:46Z</time>
      </trkpt>
      <trkpt lat="44.50402" lon="1.41066">
        <ele>235.6</ele>
        <time>2025-05-29T10:48:47Z</time>
      </trkpt>
      <trkpt lat="44.50403" lon="1.41066">
        <ele>235.8</ele>
        <time>2025-05-29T10:48:48Z</time>
      </trkpt>
      <trkpt lat="44.50405" lon="1.41065">
        <ele>235.8</ele>
        <time>2025-05-29T10:48:49Z</time>
      </trkpt>
      <trkpt lat="44.50407" lon="1.41064">
        <ele>236</ele>
        <time>2025-05-29T10:48:50Z</time>
      </trkpt>
      <trkpt lat="44.50408" lon="1.41063">
        <ele>236.2</ele>
        <time>2025-05-29T10:48:51Z</time>
      </trkpt>
      <trkpt lat="44.5041" lon="1.41063">
        <ele>236.4</ele>
        <time>2025-05-29T10:48:52Z</time>
      </trkpt>
      <trkpt lat="44.50412" lon="1.41063">
        <ele>236.4</ele>
        <time>2025-05-29T10:48:53Z</time>
      </trkpt>
      <trkpt lat="44.50414" lon="1.41064">
        <ele>236.4</ele>
        <time>2025-05-29T10:48:54Z</time>
      </trkpt>
      <trkpt lat="44.50416" lon="1.41064">
        <ele>236.4</ele>
        <time>2025-05-29T10:48:55Z</time>
      </trkpt>
      <trkpt lat="44.50417" lon="1.41063">
        <ele>236.4</ele>
        <time>2025-05-29T10:48:56Z</time>
      </trkpt>
      <trkpt lat="44.50418" lon="1.41061">
        <ele>236.2</ele>
        <time>2025-05-29T10:48:57Z</time>
      </trkpt>
      <trkpt lat="44.50418" lon="1.41059">
        <ele>236.4</ele>
        <time>2025-05-29T10:48:58Z</time>
      </trkpt>
      <trkpt lat="44.50417" lon="1.41058">
        <ele>236.4</ele>
        <time>2025-05-29T10:48:59Z</time>
      </trkpt>
      <trkpt lat="44.50416" lon="1.41056">
        <ele>236.6</ele>
        <time>2025-05-29T10:49:00Z</time>
      </trkpt>
      <trkpt lat="44.50414" lon="1.41056">
        <ele>236.8</ele>
        <time>2025-05-29T10:49:01Z</time>
      </trkpt>
      <trkpt lat="44.50412" lon="1.41056">
        <ele>237</ele>
        <time>2025-05-29T10:49:02Z</time>
      </trkpt>
      <trkpt lat="44.50411" lon="1.41055">
        <ele>237</ele>
        <time>2025-05-29T10:49:03Z</time>
      </trkpt>
      <trkpt lat="44.5041" lon="1.41055">
        <ele>237.2</ele>
        <time>2025-05-29T10:49:04Z</time>
      </trkpt>
      <trkpt lat="44.50409" lon="1.41054">
        <ele>237.4</ele>
        <time>2025-05-29T10:49:05Z</time>
      </trkpt>
      <trkpt lat="44.50408" lon="1.41052">
        <ele>237.4</ele>
        <time>2025-05-29T10:49:06Z</time>
      </trkpt>
      <trkpt lat="44.50408" lon="1.4105">
        <ele>237.6</ele>
        <time>2025-05-29T10:49:07Z</time>
      </trkpt>
      <trkpt lat="44.50408" lon="1.41048">
        <ele>237.6</ele>
        <time>2025-05-29T10:49:08Z</time>
      </trkpt>
      <trkpt lat="44.50407" lon="1.41047">
        <ele>237.6</ele>
        <time>2025-05-29T10:49:09Z</time>
      </trkpt>
      <trkpt lat="44.50408" lon="1.41044">
        <ele>237.6</ele>
        <time>2025-05-29T10:49:10Z</time>
      </trkpt>
      <trkpt lat="44.50408" lon="1.41042">
        <ele>237.8</ele>
        <time>2025-05-29T10:49:11Z</time>
      </trkpt>
      <trkpt lat="44.50409" lon="1.41041">
        <ele>238</ele>
        <time>2025-05-29T10:49:12Z</time>
      </trkpt>
      <trkpt lat="44.50411" lon="1.41041">
        <ele>238.2</ele>
        <time>2025-05-29T10:49:13Z</time>
      </trkpt>
      <trkpt lat="44.50412" lon="1.41041">
        <ele>238.4</ele>
        <time>2025-05-29T10:49:14Z</time>
      </trkpt>
      <trkpt lat="44.50414" lon="1.4104">
        <ele>238.6</ele>
        <time>2025-05-29T10:49:15Z</time>
      </trkpt>
      <trkpt lat="44.50415" lon="1.41039">
        <ele>238.8</ele>
        <time>2025-05-29T10:49:16Z</time>
      </trkpt>
      <trkpt lat="44.50416" lon="1.41037">
        <ele>239.2</ele>
        <time>2025-05-29T10:49:17Z</time>
      </trkpt>
      <trkpt lat="44.50416" lon="1.41035">
        <ele>239.4</ele>
        <time>2025-05-29T10:49:18Z</time>
      </trkpt>
      <trkpt lat="44.50417" lon="1.41033">
        <ele>239.4</ele>
        <time>2025-05-29T10:49:19Z</time>
      </trkpt>
      <trkpt lat="44.50417" lon="1.41031">
        <ele>239.6</ele>
        <time>2025-05-29T10:49:20Z</time>
      </trkpt>
      <trkpt lat="44.50418" lon="1.4103">
        <ele>239.8</ele>
        <time>2025-05-29T10:49:21Z</time>
      </trkpt>
      <trkpt lat="44.50419" lon="1.41028">
        <ele>240</ele>
        <time>2025-05-29T10:49:22Z</time>
      </trkpt>
      <trkpt lat="44.5042" lon="1.41027">
        <ele>240.2</ele>
        <time>2025-05-29T10:49:23Z</time>
      </trkpt>
      <trkpt lat="44.5042" lon="1.41026">
        <ele>240.4</ele>
        <time>2025-05-29T10:49:24Z</time>
      </trkpt>
      <trkpt lat="44.50421" lon="1.41025">
        <ele>240.8</ele>
        <time>2025-05-29T10:49:25Z</time>
      </trkpt>
      <trkpt lat="44.50422" lon="1.41024">
        <ele>241</ele>
        <time>2025-05-29T10:49:26Z</time>
      </trkpt>
      <trkpt lat="44.50424" lon="1.41023">
        <ele>241.2</ele>
        <time>2025-05-29T10:49:27Z</time>
      </trkpt>
      <trkpt lat="44.50425" lon="1.41022">
        <ele>241.6</ele>
        <time>2025-05-29T10:49:28Z</time>
      </trkpt>
      <trkpt lat="44.50426" lon="1.41021">
        <ele>241.8</ele>
        <time>2025-05-29T10:49:29Z</time>
      </trkpt>
      <trkpt lat="44.50426" lon="1.4102">
        <ele>242.2</ele>
        <time>2025-05-29T10:49:30Z</time>
      </trkpt>
      <trkpt lat="44.50426" lon="1.41019">
        <ele>242.4</ele>
        <time>2025-05-29T10:49:31Z</time>
      </trkpt>
      <trkpt lat="44.50426" lon="1.41017">
        <ele>242.6</ele>
        <time>2025-05-29T10:49:32Z</time>
      </trkpt>
      <trkpt lat="44.50426" lon="1.41016">
        <ele>242.8</ele>
        <time>2025-05-29T10:49:33Z</time>
      </trkpt>
      <trkpt lat="44.50426" lon="1.41014">
        <ele>243</ele>
        <time>2025-05-29T10:49:34Z</time>
      </trkpt>
      <trkpt lat="44.50425" lon="1.41013">
        <ele>243</ele>
        <time>2025-05-29T10:49:35Z</time>
      </trkpt>
      <trkpt lat="44.50425" lon="1.41012">
        <ele>243</ele>
        <time>2025-05-29T10:49:36Z</time>
      </trkpt>
      <trkpt lat="44.50425" lon="1.41011">
        <ele>243.2</ele>
        <time>2025-05-29T10:49:37Z</time>
      </trkpt>
      <trkpt lat="44.50426" lon="1.41009">
        <ele>243.2</ele>
        <time>2025-05-29T10:49:38Z</time>
      </trkpt>
      <trkpt lat="44.50427" lon="1.41008">
        <ele>243.4</ele>
        <time>2025-05-29T10:49:39Z</time>
      </trkpt>
      <trkpt lat="44.50428" lon="1.41007">
        <ele>243.4</ele>
        <time>2025-05-29T10:49:40Z</time>
      </trkpt>
      <trkpt lat="44.50428" lon="1.41007">
        <ele>243.6</ele>
        <time>2025-05-29T10:49:41Z</time>
      </trkpt>
      <trkpt lat="44.50429" lon="1.41007">
        <ele>243.8</ele>
        <time>2025-05-29T10:49:42Z</time>
      </trkpt>
      <trkpt lat="44.50431" lon="1.41007">
        <ele>244</ele>
        <time>2025-05-29T10:49:43Z</time>
      </trkpt>
      <trkpt lat="44.50432" lon="1.41007">
        <ele>244.2</ele>
        <time>2025-05-29T10:49:44Z</time>
      </trkpt>
      <trkpt lat="44.50433" lon="1.41007">
        <ele>244.4</ele>
        <time>2025-05-29T10:49:45Z</time>
      </trkpt>
      <trkpt lat="44.50435" lon="1.41007">
        <ele>244.6</ele>
        <time>2025-05-29T10:49:46Z</time>
      </trkpt>
      <trkpt lat="44.50436" lon="1.41006">
        <ele>244.8</ele>
        <time>2025-05-29T10:49:47Z</time>
      </trkpt>
      <trkpt lat="44.50437" lon="1.41004">
        <ele>245</ele>
        <time>2025-05-29T10:49:48Z</time>
      </trkpt>
      <trkpt lat="44.50438" lon="1.41002">
        <ele>245.2</ele>
        <time>2025-05-29T10:49:49Z</time>
      </trkpt>
      <trkpt lat="44.50439" lon="1.41001">
        <ele>245.4</ele>
        <time>2025-05-29T10:49:50Z</time>
      </trkpt>
      <trkpt lat="44.50439" lon="1.41">
        <ele>245.6</ele>
        <time>2025-05-29T10:49:51Z</time>
      </trkpt>
      <trkpt lat="44.5044" lon="1.40999">
        <ele>245.8</ele>
        <time>2025-05-29T10:49:52Z</time>
      </trkpt>
      <trkpt lat="44.50441" lon="1.40998">
        <ele>246</ele>
        <time>2025-05-29T10:49:53Z</time>
      </trkpt>
      <trkpt lat="44.50442" lon="1.40998">
        <ele>246.2</ele>
        <time>2025-05-29T10:49:54Z</time>
      </trkpt>
      <trkpt lat="44.50443" lon="1.40998">
        <ele>246.4</ele>
        <time>2025-05-29T10:49:55Z</time>
      </trkpt>
      <trkpt lat="44.50444" lon="1.40997">
        <ele>246.6</ele>
        <time>2025-05-29T10:49:56Z</time>
      </trkpt>
      <trkpt lat="44.50445" lon="1.40996">
        <ele>246.8</ele>
        <time>2025-05-29T10:49:57Z</time>
      </trkpt>
      <trkpt lat="44.50446" lon="1.40995">
        <ele>247</ele>
        <time>2025-05-29T10:49:58Z</time>
      </trkpt>
      <trkpt lat="44.50447" lon="1.40994">
        <ele>247.2</ele>
        <time>2025-05-29T10:49:59Z</time>
      </trkpt>
      <trkpt lat="44.50448" lon="1.40992">
        <ele>247.4</ele>
        <time>2025-05-29T10:50:00Z</time>
      </trkpt>
      <trkpt lat="44.50448" lon="1.40992">
        <ele>247.6</ele>
        <time>2025-05-29T10:50:01Z</time>
      </trkpt>
      <trkpt lat="44.50449" lon="1.40991">
        <ele>247.8</ele>
        <time>2025-05-29T10:50:02Z</time>
      </trkpt>
      <trkpt lat="44.5045" lon="1.4099">
        <ele>248</ele>
        <time>2025-05-29T10:50:03Z</time>
      </trkpt>
      <trkpt lat="44.50451" lon="1.40989">
        <ele>248.2</ele>
        <time>2025-05-29T10:50:04Z</time>
      </trkpt>
      <trkpt lat="44.50453" lon="1.40989">
        <ele>248.4</ele>
        <time>2025-05-29T10:50:05Z</time>
      </trkpt>
      <trkpt lat="44.50454" lon="1.40989">
        <ele>248.6</ele>
        <time>2025-05-29T10:50:06Z</time>
      </trkpt>
      <trkpt lat="44.50456" lon="1.40988">
        <ele>248.8</ele>
        <time>2025-05-29T10:50:07Z</time>
      </trkpt>
      <trkpt lat="44.50457" lon="1.40987">
        <ele>249</ele>
        <time>2025-05-29T10:50:08Z</time>
      </trkpt>
      <trkpt lat="44.50459" lon="1.40986">
        <ele>249</ele>
        <time>2025-05-29T10:50:09Z</time>
      </trkpt>
      <trkpt lat="44.5046" lon="1.40986">
        <ele>249.2</ele>
        <time>2025-05-29T10:50:10Z</time>
      </trkpt>
      <trkpt lat="44.50462" lon="1.40985">
        <ele>249.4</ele>
        <time>2025-05-29T10:50:11Z</time>
      </trkpt>
      <trkpt lat="44.50464" lon="1.40985">
        <ele>249.4</ele>
        <time>2025-05-29T10:50:12Z</time>
      </trkpt>
      <trkpt lat="44.50465" lon="1.40984">
        <ele>249.4</ele>
        <time>2025-05-29T10:50:13Z</time>
      </trkpt>
      <trkpt lat="44.50466" lon="1.40983">
        <ele>249.4</ele>
        <time>2025-05-29T10:50:14Z</time>
      </trkpt>
      <trkpt lat="44.50467" lon="1.40981">
        <ele>249.4</ele>
        <time>2025-05-29T10:50:15Z</time>
      </trkpt>
      <trkpt lat="44.50466" lon="1.40979">
        <ele>249.6</ele>
        <time>2025-05-29T10:50:16Z</time>
      </trkpt>
      <trkpt lat="44.50465" lon="1.40979">
        <ele>249.6</ele>
        <time>2025-05-29T10:50:17Z</time>
      </trkpt>
      <trkpt lat="44.50464" lon="1.40979">
        <ele>249.8</ele>
        <time>2025-05-29T10:50:18Z</time>
      </trkpt>
      <trkpt lat="44.50462" lon="1.40979">
        <ele>249.8</ele>
        <time>2025-05-29T10:50:19Z</time>
      </trkpt>
      <trkpt lat="44.50461" lon="1.4098">
        <ele>250</ele>
        <time>2025-05-29T10:50:20Z</time>
      </trkpt>
      <trkpt lat="44.50459" lon="1.4098">
        <ele>250.2</ele>
        <time>2025-05-29T10:50:21Z</time>
      </trkpt>
      <trkpt lat="44.50457" lon="1.40979">
        <ele>250.2</ele>
        <time>2025-05-29T10:50:22Z</time>
      </trkpt>
      <trkpt lat="44.50456" lon="1.40978">
        <ele>250.2</ele>
        <time>2025-05-29T10:50:23Z</time>
      </trkpt>
      <trkpt lat="44.50455" lon="1.40977">
        <ele>250.2</ele>
        <time>2025-05-29T10:50:24Z</time>
      </trkpt>
      <trkpt lat="44.50454" lon="1.40976">
        <ele>250.4</ele>
        <time>2025-05-29T10:50:25Z</time>
      </trkpt>
      <trkpt lat="44.50454" lon="1.40974">
        <ele>250.6</ele>
        <time>2025-05-29T10:50:26Z</time>
      </trkpt>
      <trkpt lat="44.50454" lon="1.40973">
        <ele>250.6</ele>
        <time>2025-05-29T10:50:27Z</time>
      </trkpt>
      <trkpt lat="44.50454" lon="1.40971">
        <ele>250.8</ele>
        <time>2025-05-29T10:50:28Z</time>
      </trkpt>
      <trkpt lat="44.50455" lon="1.4097">
        <ele>251</ele>
        <time>2025-05-29T10:50:29Z</time>
      </trkpt>
      <trkpt lat="44.50455" lon="1.40968">
        <ele>251.2</ele>
        <time>2025-05-29T10:50:30Z</time>
      </trkpt>
      <trkpt lat="44.50456" lon="1.40967">
        <ele>251.2</ele>
        <time>2025-05-29T10:50:31Z</time>
      </trkpt>
      <trkpt lat="44.50457" lon="1.40966">
        <ele>251.4</ele>
        <time>2025-05-29T10:50:32Z</time>
      </trkpt>
      <trkpt lat="44.50457" lon="1.40965">
        <ele>251.8</ele>
        <time>2025-05-29T10:50:33Z</time>
      </trkpt>
      <trkpt lat="44.50458" lon="1.40963">
        <ele>252</ele>
        <time>2025-05-29T10:50:34Z</time>
      </trkpt>
      <trkpt lat="44.50459" lon="1.40962">
        <ele>252.2</ele>
        <time>2025-05-29T10:50:35Z</time>
      </trkpt>
      <trkpt lat="44.50459" lon="1.4096">
        <ele>252.6</ele>
        <time>2025-05-29T10:50:36Z</time>
      </trkpt>
      <trkpt lat="44.50459" lon="1.40958">
        <ele>252.8</ele>
        <time>2025-05-29T10:50:37Z</time>
      </trkpt>
      <trkpt lat="44.50459" lon="1.40956">
        <ele>253</ele>
        <time>2025-05-29T10:50:38Z</time>
      </trkpt>
      <trkpt lat="44.5046" lon="1.40954">
        <ele>253</ele>
        <time>2025-05-29T10:50:39Z</time>
      </trkpt>
      <trkpt lat="44.5046" lon="1.40953">
        <ele>253.2</ele>
        <time>2025-05-29T10:50:40Z</time>
      </trkpt>
      <trkpt lat="44.50461" lon="1.40952">
        <ele>253.4</ele>
        <time>2025-05-29T10:50:41Z</time>
      </trkpt>
      <trkpt lat="44.50462" lon="1.4095">
        <ele>253.8</ele>
        <time>2025-05-29T10:50:42Z</time>
      </trkpt>
      <trkpt lat="44.50463" lon="1.40949">
        <ele>254</ele>
        <time>2025-05-29T10:50:43Z</time>
      </trkpt>
      <trkpt lat="44.50464" lon="1.40948">
        <ele>254.2</ele>
        <time>2025-05-29T10:50:44Z</time>
      </trkpt>
      <trkpt lat="44.50465" lon="1.40947">
        <ele>254.6</ele>
        <time>2025-05-29T10:50:45Z</time>
      </trkpt>
      <trkpt lat="44.50467" lon="1.40947">
        <ele>254.8</ele>
        <time>2025-05-29T10:50:46Z</time>
      </trkpt>
      <trkpt lat="44.50468" lon="1.40948">
        <ele>255</ele>
        <time>2025-05-29T10:50:47Z</time>
      </trkpt>
      <trkpt lat="44.5047" lon="1.40948">
        <ele>255.2</ele>
        <time>2025-05-29T10:50:48Z</time>
      </trkpt>
      <trkpt lat="44.50471" lon="1.40948">
        <ele>255.2</ele>
        <time>2025-05-29T10:50:49Z</time>
      </trkpt>
      <trkpt lat="44.50473" lon="1.40948">
        <ele>255.2</ele>
        <time>2025-05-29T10:50:50Z</time>
      </trkpt>
      <trkpt lat="44.50473" lon="1.40947">
        <ele>255.2</ele>
        <time>2025-05-29T10:50:51Z</time>
      </trkpt>
      <trkpt lat="44.50474" lon="1.40946">
        <ele>255.2</ele>
        <time>2025-05-29T10:50:52Z</time>
      </trkpt>
      <trkpt lat="44.50475" lon="1.40945">
        <ele>255.6</ele>
        <time>2025-05-29T10:50:53Z</time>
      </trkpt>
      <trkpt lat="44.50477" lon="1.40944">
        <ele>255.8</ele>
        <time>2025-05-29T10:50:54Z</time>
      </trkpt>
      <trkpt lat="44.50478" lon="1.40942">
        <ele>256</ele>
        <time>2025-05-29T10:50:55Z</time>
      </trkpt>
      <trkpt lat="44.50479" lon="1.40941">
        <ele>256.2</ele>
        <time>2025-05-29T10:50:56Z</time>
      </trkpt>
      <trkpt lat="44.50481" lon="1.4094">
        <ele>256.4</ele>
        <time>2025-05-29T10:50:57Z</time>
      </trkpt>
      <trkpt lat="44.50482" lon="1.40939">
        <ele>256.6</ele>
        <time>2025-05-29T10:50:58Z</time>
      </trkpt>
      <trkpt lat="44.50483" lon="1.40938">
        <ele>256.8</ele>
        <time>2025-05-29T10:50:59Z</time>
      </trkpt>
      <trkpt lat="44.50484" lon="1.40936">
        <ele>257</ele>
        <time>2025-05-29T10:51:00Z</time>
      </trkpt>
      <trkpt lat="44.50485" lon="1.40935">
        <ele>257</ele>
        <time>2025-05-29T10:51:01Z</time>
      </trkpt>
      <trkpt lat="44.50486" lon="1.40933">
        <ele>257.2</ele>
        <time>2025-05-29T10:51:02Z</time>
      </trkpt>
      <trkpt lat="44.50487" lon="1.40932">
        <ele>257.4</ele>
        <time>2025-05-29T10:51:03Z</time>
      </trkpt>
      <trkpt lat="44.50488" lon="1.4093">
        <ele>257.4</ele>
        <time>2025-05-29T10:51:04Z</time>
      </trkpt>
      <trkpt lat="44.50488" lon="1.40928">
        <ele>257.6</ele>
        <time>2025-05-29T10:51:05Z</time>
      </trkpt>
      <trkpt lat="44.50489" lon="1.40927">
        <ele>257.6</ele>
        <time>2025-05-29T10:51:06Z</time>
      </trkpt>
      <trkpt lat="44.50491" lon="1.40926">
        <ele>257.8</ele>
        <time>2025-05-29T10:51:07Z</time>
      </trkpt>
      <trkpt lat="44.50492" lon="1.40925">
        <ele>258.2</ele>
        <time>2025-05-29T10:51:08Z</time>
      </trkpt>
      <trkpt lat="44.50494" lon="1.40924">
        <ele>258.4</ele>
        <time>2025-05-29T10:51:09Z</time>
      </trkpt>
      <trkpt lat="44.50496" lon="1.40923">
        <ele>258.6</ele>
        <time>2025-05-29T10:51:10Z</time>
      </trkpt>
      <trkpt lat="44.50498" lon="1.40922">
        <ele>258.8</ele>
        <time>2025-05-29T10:51:11Z</time>
      </trkpt>
      <trkpt lat="44.50499" lon="1.4092">
        <ele>258.8</ele>
        <time>2025-05-29T10:51:12Z</time>
      </trkpt>
      <trkpt lat="44.505" lon="1.40918">
        <ele>258.8</ele>
        <time>2025-05-29T10:51:13Z</time>
      </trkpt>
      <trkpt lat="44.50499" lon="1.40916">
        <ele>258.8</ele>
        <time>2025-05-29T10:51:14Z</time>
      </trkpt>
      <trkpt lat="44.50498" lon="1.40916">
        <ele>258.8</ele>
        <time>2025-05-29T10:51:15Z</time>
      </trkpt>
      <trkpt lat="44.50497" lon="1.40916">
        <ele>259</ele>
        <time>2025-05-29T10:51:16Z</time>
      </trkpt>
      <trkpt lat="44.50496" lon="1.40916">
        <ele>259</ele>
        <time>2025-05-29T10:51:17Z</time>
      </trkpt>
      <trkpt lat="44.50495" lon="1.40916">
        <ele>259.2</ele>
        <time>2025-05-29T10:51:18Z</time>
      </trkpt>
      <trkpt lat="44.50494" lon="1.40916">
        <ele>259.6</ele>
        <time>2025-05-29T10:51:19Z</time>
      </trkpt>
      <trkpt lat="44.50494" lon="1.40917">
        <ele>259.8</ele>
        <time>2025-05-29T10:51:20Z</time>
      </trkpt>
      <trkpt lat="44.50488" lon="1.40918">
        <ele>260.2</ele>
        <time>2025-05-29T10:51:29Z</time>
      </trkpt>
      <trkpt lat="44.50487" lon="1.40917">
        <ele>260.4</ele>
        <time>2025-05-29T10:51:30Z</time>
      </trkpt>
      <trkpt lat="44.50486" lon="1.40917">
        <ele>260.6</ele>
        <time>2025-05-29T10:51:31Z</time>
      </trkpt>
      <trkpt lat="44.50485" lon="1.40916">
        <ele>260.8</ele>
        <time>2025-05-29T10:51:32Z</time>
      </trkpt>
      <trkpt lat="44.50484" lon="1.40915">
        <ele>261</ele>
        <time>2025-05-29T10:51:33Z</time>
      </trkpt>
      <trkpt lat="44.50484" lon="1.40914">
        <ele>261.4</ele>
        <time>2025-05-29T10:51:34Z</time>
      </trkpt>
      <trkpt lat="44.50484" lon="1.40914">
        <ele>261.6</ele>
        <time>2025-05-29T10:51:35Z</time>
      </trkpt>
      <trkpt lat="44.50484" lon="1.40913">
        <ele>261.8</ele>
        <time>2025-05-29T10:51:36Z</time>
      </trkpt>
      <trkpt lat="44.50494" lon="1.40905">
        <ele>263</ele>
        <time>2025-05-29T10:52:30Z</time>
      </trkpt>
      <trkpt lat="44.50495" lon="1.40905">
        <ele>263</ele>
        <time>2025-05-29T10:52:31Z</time>
      </trkpt>
      <trkpt lat="44.50496" lon="1.40904">
        <ele>263</ele>
        <time>2025-05-29T10:52:32Z</time>
      </trkpt>
      <trkpt lat="44.50497" lon="1.40902">
        <ele>263</ele>
        <time>2025-05-29T10:52:33Z</time>
      </trkpt>
      <trkpt lat="44.50497" lon="1.40901">
        <ele>263.2</ele>
        <time>2025-05-29T10:52:34Z</time>
      </trkpt>
      <trkpt lat="44.50497" lon="1.40899">
        <ele>263.2</ele>
        <time>2025-05-29T10:52:35Z</time>
      </trkpt>
      <trkpt lat="44.50496" lon="1.40898">
        <ele>263.4</ele>
        <time>2025-05-29T10:52:36Z</time>
      </trkpt>
      <trkpt lat="44.50495" lon="1.40898">
        <ele>263.4</ele>
        <time>2025-05-29T10:52:37Z</time>
      </trkpt>
      <trkpt lat="44.50494" lon="1.40898">
        <ele>263.6</ele>
        <time>2025-05-29T10:52:38Z</time>
      </trkpt>
      <trkpt lat="44.50495" lon="1.40898">
        <ele>263.6</ele>
        <time>2025-05-29T10:52:39Z</time>
      </trkpt>
      <trkpt lat="44.50495" lon="1.40898">
        <ele>263.6</ele>
        <time>2025-05-29T10:52:40Z</time>
      </trkpt>
      <trkpt lat="44.50493" lon="1.40898">
        <ele>263.8</ele>
        <time>2025-05-29T10:52:41Z</time>
      </trkpt>
      <trkpt lat="44.50493" lon="1.40899">
        <ele>263.8</ele>
        <time>2025-05-29T10:52:42Z</time>
      </trkpt>
      <trkpt lat="44.50494" lon="1.40898">
        <ele>264</ele>
        <time>2025-05-29T10:52:43Z</time>
      </trkpt>
      <trkpt lat="44.50493" lon="1.40898">
        <ele>264</ele>
        <time>2025-05-29T10:52:44Z</time>
      </trkpt>
      <trkpt lat="44.50493" lon="1.40899">
        <ele>264.2</ele>
        <time>2025-05-29T10:52:45Z</time>
      </trkpt>
      <trkpt lat="44.50493" lon="1.409">
        <ele>264.2</ele>
        <time>2025-05-29T10:52:46Z</time>
      </trkpt>
      <trkpt lat="44.50493" lon="1.409">
        <ele>264.2</ele>
        <time>2025-05-29T10:52:47Z</time>
      </trkpt>
      <trkpt lat="44.50494" lon="1.40893">
        <ele>265.6</ele>
        <time>2025-05-29T10:53:01Z</time>
      </trkpt>
      <trkpt lat="44.50495" lon="1.40891">
        <ele>265.6</ele>
        <time>2025-05-29T10:53:02Z</time>
      </trkpt>
      <trkpt lat="44.50495" lon="1.40889">
        <ele>265.8</ele>
        <time>2025-05-29T10:53:03Z</time>
      </trkpt>
      <trkpt lat="44.50494" lon="1.40887">
        <ele>265.8</ele>
        <time>2025-05-29T10:53:04Z</time>
      </trkpt>
      <trkpt lat="44.50494" lon="1.40886">
        <ele>266</ele>
        <time>2025-05-29T10:53:05Z</time>
      </trkpt>
      <trkpt lat="44.50493" lon="1.40884">
        <ele>266.2</ele>
        <time>2025-05-29T10:53:06Z</time>
      </trkpt>
      <trkpt lat="44.50493" lon="1.40882">
        <ele>266.4</ele>
        <time>2025-05-29T10:53:07Z</time>
      </trkpt>
      <trkpt lat="44.50493" lon="1.4088">
        <ele>266.6</ele>
        <time>2025-05-29T10:53:08Z</time>
      </trkpt>
      <trkpt lat="44.50494" lon="1.40879">
        <ele>267</ele>
        <time>2025-05-29T10:53:09Z</time>
      </trkpt>
      <trkpt lat="44.50494" lon="1.40877">
        <ele>267.2</ele>
        <time>2025-05-29T10:53:10Z</time>
      </trkpt>
      <trkpt lat="44.50494" lon="1.40875">
        <ele>267.6</ele>
        <time>2025-05-29T10:53:11Z</time>
      </trkpt>
      <trkpt lat="44.50495" lon="1.40873">
        <ele>267.8</ele>
        <time>2025-05-29T10:53:12Z</time>
      </trkpt>
      <trkpt lat="44.50495" lon="1.40871">
        <ele>268</ele>
        <time>2025-05-29T10:53:13Z</time>
      </trkpt>
      <trkpt lat="44.50495" lon="1.40869">
        <ele>268.4</ele>
        <time>2025-05-29T10:53:14Z</time>
      </trkpt>
      <trkpt lat="44.50496" lon="1.40868">
        <ele>268.6</ele>
        <time>2025-05-29T10:53:15Z</time>
      </trkpt>
      <trkpt lat="44.50496" lon="1.40867">
        <ele>268.8</ele>
        <time>2025-05-29T10:53:16Z</time>
      </trkpt>
      <trkpt lat="44.50496" lon="1.40867">
        <ele>269</ele>
        <time>2025-05-29T10:53:17Z</time>
      </trkpt>
      <trkpt lat="44.50496" lon="1.40866">
        <ele>269.4</ele>
        <time>2025-05-29T10:53:18Z</time>
      </trkpt>
      <trkpt lat="44.50497" lon="1.40866">
        <ele>269.4</ele>
        <time>2025-05-29T10:53:19Z</time>
      </trkpt>
      <trkpt lat="44.50498" lon="1.40866">
        <ele>269.6</ele>
        <time>2025-05-29T10:53:20Z</time>
      </trkpt>
      <trkpt lat="44.50498" lon="1.40866">
        <ele>269.6</ele>
        <time>2025-05-29T10:53:21Z</time>
      </trkpt>
      <trkpt lat="44.50502" lon="1.40858">
        <ele>270.2</ele>
        <time>2025-05-29T10:53:28Z</time>
      </trkpt>
      <trkpt lat="44.50502" lon="1.40857">
        <ele>270.4</ele>
        <time>2025-05-29T10:53:29Z</time>
      </trkpt>
      <trkpt lat="44.50503" lon="1.40855">
        <ele>270.6</ele>
        <time>2025-05-29T10:53:30Z</time>
      </trkpt>
      <trkpt lat="44.50504" lon="1.40854">
        <ele>270.8</ele>
        <time>2025-05-29T10:53:31Z</time>
      </trkpt>
      <trkpt lat="44.50506" lon="1.40853">
        <ele>271</ele>
        <time>2025-05-29T10:53:32Z</time>
      </trkpt>
      <trkpt lat="44.50507" lon="1.40852">
        <ele>271</ele>
        <time>2025-05-29T10:53:33Z</time>
      </trkpt>
      <trkpt lat="44.50508" lon="1.4085">
        <ele>271.2</ele>
        <time>2025-05-29T10:53:34Z</time>
      </trkpt>
      <trkpt lat="44.50509" lon="1.40849">
        <ele>271.4</ele>
        <time>2025-05-29T10:53:35Z</time>
      </trkpt>
      <trkpt lat="44.50509" lon="1.40847">
        <ele>271.4</ele>
        <time>2025-05-29T10:53:36Z</time>
      </trkpt>
      <trkpt lat="44.5051" lon="1.40845">
        <ele>271.4</ele>
        <time>2025-05-29T10:53:37Z</time>
      </trkpt>
      <trkpt lat="44.50511" lon="1.40843">
        <ele>271.6</ele>
        <time>2025-05-29T10:53:38Z</time>
      </trkpt>
      <trkpt lat="44.50512" lon="1.40841">
        <ele>271.6</ele>
        <time>2025-05-29T10:53:39Z</time>
      </trkpt>
      <trkpt lat="44.50512" lon="1.4084">
        <ele>271.6</ele>
        <time>2025-05-29T10:53:40Z</time>
      </trkpt>
      <trkpt lat="44.50513" lon="1.40838">
        <ele>271.8</ele>
        <time>2025-05-29T10:53:41Z</time>
      </trkpt>
      <trkpt lat="44.50514" lon="1.40836">
        <ele>271.8</ele>
        <time>2025-05-29T10:53:42Z</time>
      </trkpt>
      <trkpt lat="44.50515" lon="1.40834">
        <ele>271.8</ele>
        <time>2025-05-29T10:53:43Z</time>
      </trkpt>
      <trkpt lat="44.50516" lon="1.40833">
        <ele>272</ele>
        <time>2025-05-29T10:53:44Z</time>
      </trkpt>
      <trkpt lat="44.50516" lon="1.40831">
        <ele>272</ele>
        <time>2025-05-29T10:53:45Z</time>
      </trkpt>
      <trkpt lat="44.50517" lon="1.40829">
        <ele>272.2</ele>
        <time>2025-05-29T10:53:46Z</time>
      </trkpt>
      <trkpt lat="44.50518" lon="1.40828">
        <ele>272.4</ele>
        <time>2025-05-29T10:53:47Z</time>
      </trkpt>
      <trkpt lat="44.50519" lon="1.40826">
        <ele>272.6</ele>
        <time>2025-05-29T10:53:48Z</time>
      </trkpt>
      <trkpt lat="44.50519" lon="1.40825">
        <ele>272.8</ele>
        <time>2025-05-29T10:53:49Z</time>
      </trkpt>
      <trkpt lat="44.5052" lon="1.40823">
        <ele>272.8</ele>
        <time>2025-05-29T10:53:50Z</time>
      </trkpt>
      <trkpt lat="44.50521" lon="1.40821">
        <ele>273</ele>
        <time>2025-05-29T10:53:51Z</time>
      </trkpt>
      <trkpt lat="44.50521" lon="1.4082">
        <ele>273.4</ele>
        <time>2025-05-29T10:53:52Z</time>
      </trkpt>
      <trkpt lat="44.50521" lon="1.40818">
        <ele>273.6</ele>
        <time>2025-05-29T10:53:53Z</time>
      </trkpt>
      <trkpt lat="44.50521" lon="1.40817">
        <ele>274</ele>
        <time>2025-05-29T10:53:54Z</time>
      </trkpt>
      <trkpt lat="44.50521" lon="1.40816">
        <ele>274.4</ele>
        <time>2025-05-29T10:53:55Z</time>
      </trkpt>
      <trkpt lat="44.50521" lon="1.40814">
        <ele>274.8</ele>
        <time>2025-05-29T10:53:56Z</time>
      </trkpt>
      <trkpt lat="44.5052" lon="1.40813">
        <ele>275.2</ele>
        <time>2025-05-29T10:53:57Z</time>
      </trkpt>
      <trkpt lat="44.5052" lon="1.40811">
        <ele>275.4</ele>
        <time>2025-05-29T10:53:58Z</time>
      </trkpt>
      <trkpt lat="44.50519" lon="1.4081">
        <ele>275.8</ele>
        <time>2025-05-29T10:53:59Z</time>
      </trkpt>
      <trkpt lat="44.50518" lon="1.4081">
        <ele>276</ele>
        <time>2025-05-29T10:54:00Z</time>
      </trkpt>
      <trkpt lat="44.50517" lon="1.40809">
        <ele>276.2</ele>
        <time>2025-05-29T10:54:01Z</time>
      </trkpt>
      <trkpt lat="44.50516" lon="1.40809">
        <ele>276.6</ele>
        <time>2025-05-29T10:54:02Z</time>
      </trkpt>
      <trkpt lat="44.50515" lon="1.40808">
        <ele>276.8</ele>
        <time>2025-05-29T10:54:03Z</time>
      </trkpt>
      <trkpt lat="44.50514" lon="1.40807">
        <ele>277</ele>
        <time>2025-05-29T10:54:04Z</time>
      </trkpt>
      <trkpt lat="44.50513" lon="1.40806">
        <ele>277.2</ele>
        <time>2025-05-29T10:54:05Z</time>
      </trkpt>
      <trkpt lat="44.50513" lon="1.40804">
        <ele>277.4</ele>
        <time>2025-05-29T10:54:06Z</time>
      </trkpt>
      <trkpt lat="44.50512" lon="1.40803">
        <ele>277.6</ele>
        <time>2025-05-29T10:54:07Z</time>
      </trkpt>
      <trkpt lat="44.50511" lon="1.40802">
        <ele>277.8</ele>
        <time>2025-05-29T10:54:08Z</time>
      </trkpt>
      <trkpt lat="44.50511" lon="1.40801">
        <ele>278</ele>
        <time>2025-05-29T10:54:09Z</time>
      </trkpt>
      <trkpt lat="44.5051" lon="1.40801">
        <ele>278.2</ele>
        <time>2025-05-29T10:54:10Z</time>
      </trkpt>
      <trkpt lat="44.50509" lon="1.408">
        <ele>278.4</ele>
        <time>2025-05-29T10:54:11Z</time>
      </trkpt>
      <trkpt lat="44.50508" lon="1.408">
        <ele>278.6</ele>
        <time>2025-05-29T10:54:12Z</time>
      </trkpt>
      <trkpt lat="44.50507" lon="1.408">
        <ele>278.6</ele>
        <time>2025-05-29T10:54:13Z</time>
      </trkpt>
      <trkpt lat="44.50505" lon="1.408">
        <ele>278.6</ele>
        <time>2025-05-29T10:54:14Z</time>
      </trkpt>
      <trkpt lat="44.50503" lon="1.40798">
        <ele>278.6</ele>
        <time>2025-05-29T10:54:15Z</time>
      </trkpt>
      <trkpt lat="44.50502" lon="1.40795">
        <ele>278.2</ele>
        <time>2025-05-29T10:54:16Z</time>
      </trkpt>
      <trkpt lat="44.50501" lon="1.40792">
        <ele>278.2</ele>
        <time>2025-05-29T10:54:17Z</time>
      </trkpt>
      <trkpt lat="44.505" lon="1.4079">
        <ele>278</ele>
        <time>2025-05-29T10:54:18Z</time>
      </trkpt>
      <trkpt lat="44.50499" lon="1.40788">
        <ele>277.8</ele>
        <time>2025-05-29T10:54:19Z</time>
      </trkpt>
      <trkpt lat="44.50498" lon="1.40785">
        <ele>277.8</ele>
        <time>2025-05-29T10:54:20Z</time>
      </trkpt>
      <trkpt lat="44.50497" lon="1.40783">
        <ele>278</ele>
        <time>2025-05-29T10:54:21Z</time>
      </trkpt>
      <trkpt lat="44.50497" lon="1.40781">
        <ele>278</ele>
        <time>2025-05-29T10:54:22Z</time>
      </trkpt>
      <trkpt lat="44.50497" lon="1.40779">
        <ele>278.2</ele>
        <time>2025-05-29T10:54:23Z</time>
      </trkpt>
      <trkpt lat="44.50496" lon="1.40777">
        <ele>278.2</ele>
        <time>2025-05-29T10:54:24Z</time>
      </trkpt>
      <trkpt lat="44.50496" lon="1.40775">
        <ele>278.4</ele>
        <time>2025-05-29T10:54:25Z</time>
      </trkpt>
      <trkpt lat="44.50496" lon="1.40773">
        <ele>278.4</ele>
        <time>2025-05-29T10:54:26Z</time>
      </trkpt>
      <trkpt lat="44.50496" lon="1.4077">
        <ele>278.6</ele>
        <time>2025-05-29T10:54:27Z</time>
      </trkpt>
      <trkpt lat="44.50496" lon="1.40768">
        <ele>278.6</ele>
        <time>2025-05-29T10:54:28Z</time>
      </trkpt>
      <trkpt lat="44.50497" lon="1.40765">
        <ele>278.8</ele>
        <time>2025-05-29T10:54:29Z</time>
      </trkpt>
      <trkpt lat="44.50497" lon="1.40763">
        <ele>278.8</ele>
        <time>2025-05-29T10:54:30Z</time>
      </trkpt>
      <trkpt lat="44.50497" lon="1.4076">
        <ele>279</ele>
        <time>2025-05-29T10:54:31Z</time>
      </trkpt>
      <trkpt lat="44.50497" lon="1.40758">
        <ele>279.2</ele>
        <time>2025-05-29T10:54:32Z</time>
      </trkpt>
      <trkpt lat="44.50497" lon="1.40756">
        <ele>279.4</ele>
        <time>2025-05-29T10:54:33Z</time>
      </trkpt>
      <trkpt lat="44.50496" lon="1.40753">
        <ele>279.6</ele>
        <time>2025-05-29T10:54:34Z</time>
      </trkpt>
      <trkpt lat="44.50495" lon="1.40751">
        <ele>279.8</ele>
        <time>2025-05-29T10:54:35Z</time>
      </trkpt>
      <trkpt lat="44.50494" lon="1.40748">
        <ele>279.8</ele>
        <time>2025-05-29T10:54:36Z</time>
      </trkpt>
      <trkpt lat="44.50494" lon="1.40744">
        <ele>280</ele>
        <time>2025-05-29T10:54:37Z</time>
      </trkpt>
      <trkpt lat="44.50493" lon="1.40741">
        <ele>280</ele>
        <time>2025-05-29T10:54:38Z</time>
      </trkpt>
      <trkpt lat="44.50493" lon="1.40738">
        <ele>280</ele>
        <time>2025-05-29T10:54:39Z</time>
      </trkpt>
      <trkpt lat="44.50493" lon="1.40735">
        <ele>279.8</ele>
        <time>2025-05-29T10:54:40Z</time>
      </trkpt>
      <trkpt lat="44.50493" lon="1.40732">
        <ele>280</ele>
        <time>2025-05-29T10:54:41Z</time>
      </trkpt>
      <trkpt lat="44.50492" lon="1.4073">
        <ele>280</ele>
        <time>2025-05-29T10:54:42Z</time>
      </trkpt>
      <trkpt lat="44.50492" lon="1.40726">
        <ele>280.2</ele>
        <time>2025-05-29T10:54:43Z</time>
      </trkpt>
      <trkpt lat="44.50492" lon="1.40723">
        <ele>280.6</ele>
        <time>2025-05-29T10:54:44Z</time>
      </trkpt>
      <trkpt lat="44.50491" lon="1.40721">
        <ele>280.8</ele>
        <time>2025-05-29T10:54:45Z</time>
      </trkpt>
      <trkpt lat="44.50491" lon="1.40718">
        <ele>281</ele>
        <time>2025-05-29T10:54:46Z</time>
      </trkpt>
      <trkpt lat="44.5049" lon="1.40715">
        <ele>281.2</ele>
        <time>2025-05-29T10:54:47Z</time>
      </trkpt>
      <trkpt lat="44.50489" lon="1.40712">
        <ele>281.4</ele>
        <time>2025-05-29T10:54:48Z</time>
      </trkpt>
      <trkpt lat="44.50488" lon="1.40709">
        <ele>281.6</ele>
        <time>2025-05-29T10:54:49Z</time>
      </trkpt>
      <trkpt lat="44.50488" lon="1.40706">
        <ele>281.6</ele>
        <time>2025-05-29T10:54:50Z</time>
      </trkpt>
      <trkpt lat="44.50486" lon="1.40704">
        <ele>281.6</ele>
        <time>2025-05-29T10:54:51Z</time>
      </trkpt>
      <trkpt lat="44.50485" lon="1.40701">
        <ele>281.8</ele>
        <time>2025-05-29T10:54:52Z</time>
      </trkpt>
      <trkpt lat="44.50483" lon="1.40698">
        <ele>281.8</ele>
        <time>2025-05-29T10:54:53Z</time>
      </trkpt>
      <trkpt lat="44.50481" lon="1.40695">
        <ele>281.8</ele>
        <time>2025-05-29T10:54:54Z</time>
      </trkpt>
      <trkpt lat="44.50479" lon="1.40692">
        <ele>281.8</ele>
        <time>2025-05-29T10:54:55Z</time>
      </trkpt>
      <trkpt lat="44.50477" lon="1.40688">
        <ele>281.8</ele>
        <time>2025-05-29T10:54:56Z</time>
      </trkpt>
      <trkpt lat="44.50475" lon="1.40685">
        <ele>281.8</ele>
        <time>2025-05-29T10:54:57Z</time>
      </trkpt>
      <trkpt lat="44.50473" lon="1.40681">
        <ele>281.6</ele>
        <time>2025-05-29T10:54:58Z</time>
      </trkpt>
      <trkpt lat="44.50472" lon="1.40678">
        <ele>281.6</ele>
        <time>2025-05-29T10:54:59Z</time>
      </trkpt>
      <trkpt lat="44.5047" lon="1.40676">
        <ele>281.6</ele>
        <time>2025-05-29T10:55:00Z</time>
      </trkpt>
      <trkpt lat="44.50469" lon="1.40673">
        <ele>281.6</ele>
        <time>2025-05-29T10:55:01Z</time>
      </trkpt>
      <trkpt lat="44.50468" lon="1.4067">
        <ele>281.8</ele>
        <time>2025-05-29T10:55:02Z</time>
      </trkpt>
      <trkpt lat="44.50467" lon="1.40668">
        <ele>282</ele>
        <time>2025-05-29T10:55:03Z</time>
      </trkpt>
      <trkpt lat="44.50466" lon="1.40665">
        <ele>282.2</ele>
        <time>2025-05-29T10:55:04Z</time>
      </trkpt>
      <trkpt lat="44.50465" lon="1.40662">
        <ele>282.4</ele>
        <time>2025-05-29T10:55:05Z</time>
      </trkpt>
      <trkpt lat="44.50464" lon="1.4066">
        <ele>282.8</ele>
        <time>2025-05-29T10:55:06Z</time>
      </trkpt>
      <trkpt lat="44.50463" lon="1.40659">
        <ele>283</ele>
        <time>2025-05-29T10:55:07Z</time>
      </trkpt>
      <trkpt lat="44.50462" lon="1.40657">
        <ele>283.2</ele>
        <time>2025-05-29T10:55:08Z</time>
      </trkpt>
      <trkpt lat="44.50461" lon="1.40654">
        <ele>283.4</ele>
        <time>2025-05-29T10:55:09Z</time>
      </trkpt>
      <trkpt lat="44.50459" lon="1.40652">
        <ele>283.6</ele>
        <time>2025-05-29T10:55:10Z</time>
      </trkpt>
      <trkpt lat="44.50457" lon="1.4065">
        <ele>283.8</ele>
        <time>2025-05-29T10:55:11Z</time>
      </trkpt>
      <trkpt lat="44.50456" lon="1.40648">
        <ele>283.8</ele>
        <time>2025-05-29T10:55:12Z</time>
      </trkpt>
      <trkpt lat="44.50454" lon="1.40646">
        <ele>283.8</ele>
        <time>2025-05-29T10:55:13Z</time>
      </trkpt>
      <trkpt lat="44.50452" lon="1.40644">
        <ele>283.8</ele>
        <time>2025-05-29T10:55:14Z</time>
      </trkpt>
      <trkpt lat="44.50451" lon="1.40642">
        <ele>283.8</ele>
        <time>2025-05-29T10:55:15Z</time>
      </trkpt>
      <trkpt lat="44.50449" lon="1.4064">
        <ele>283.6</ele>
        <time>2025-05-29T10:55:16Z</time>
      </trkpt>
      <trkpt lat="44.50447" lon="1.40637">
        <ele>283.8</ele>
        <time>2025-05-29T10:55:17Z</time>
      </trkpt>
      <trkpt lat="44.50444" lon="1.40634">
        <ele>283.6</ele>
        <time>2025-05-29T10:55:18Z</time>
      </trkpt>
      <trkpt lat="44.50442" lon="1.40631">
        <ele>283.6</ele>
        <time>2025-05-29T10:55:19Z</time>
      </trkpt>
      <trkpt lat="44.50439" lon="1.40628">
        <ele>283.4</ele>
        <time>2025-05-29T10:55:20Z</time>
      </trkpt>
      <trkpt lat="44.50437" lon="1.40626">
        <ele>283.2</ele>
        <time>2025-05-29T10:55:21Z</time>
      </trkpt>
      <trkpt lat="44.50434" lon="1.40624">
        <ele>283.2</ele>
        <time>2025-05-29T10:55:22Z</time>
      </trkpt>
      <trkpt lat="44.50433" lon="1.40621">
        <ele>283</ele>
        <time>2025-05-29T10:55:23Z</time>
      </trkpt>
      <trkpt lat="44.50431" lon="1.40618">
        <ele>283.2</ele>
        <time>2025-05-29T10:55:24Z</time>
      </trkpt>
      <trkpt lat="44.50429" lon="1.40616">
        <ele>283.2</ele>
        <time>2025-05-29T10:55:25Z</time>
      </trkpt>
      <trkpt lat="44.50428" lon="1.40614">
        <ele>283.4</ele>
        <time>2025-05-29T10:55:26Z</time>
      </trkpt>
      <trkpt lat="44.50426" lon="1.40612">
        <ele>283.6</ele>
        <time>2025-05-29T10:55:27Z</time>
      </trkpt>
      <trkpt lat="44.50424" lon="1.4061">
        <ele>283.6</ele>
        <time>2025-05-29T10:55:28Z</time>
      </trkpt>
      <trkpt lat="44.50421" lon="1.40608">
        <ele>283.8</ele>
        <time>2025-05-29T10:55:29Z</time>
      </trkpt>
      <trkpt lat="44.50418" lon="1.40605">
        <ele>283.6</ele>
        <time>2025-05-29T10:55:30Z</time>
      </trkpt>
      <trkpt lat="44.50416" lon="1.40602">
        <ele>283.6</ele>
        <time>2025-05-29T10:55:31Z</time>
      </trkpt>
      <trkpt lat="44.50413" lon="1.406">
        <ele>283.6</ele>
        <time>2025-05-29T10:55:32Z</time>
      </trkpt>
      <trkpt lat="44.5041" lon="1.40598">
        <ele>283.6</ele>
        <time>2025-05-29T10:55:33Z</time>
      </trkpt>
      <trkpt lat="44.50407" lon="1.40596">
        <ele>283.4</ele>
        <time>2025-05-29T10:55:34Z</time>
      </trkpt>
      <trkpt lat="44.50404" lon="1.40593">
        <ele>283.2</ele>
        <time>2025-05-29T10:55:35Z</time>
      </trkpt>
      <trkpt lat="44.504" lon="1.40591">
        <ele>282.8</ele>
        <time>2025-05-29T10:55:36Z</time>
      </trkpt>
      <trkpt lat="44.50397" lon="1.40588">
        <ele>282.4</ele>
        <time>2025-05-29T10:55:37Z</time>
      </trkpt>
      <trkpt lat="44.50393" lon="1.40587">
        <ele>282</ele>
        <time>2025-05-29T10:55:38Z</time>
      </trkpt>
      <trkpt lat="44.50389" lon="1.40584">
        <ele>281.6</ele>
        <time>2025-05-29T10:55:39Z</time>
      </trkpt>
      <trkpt lat="44.50386" lon="1.40582">
        <ele>281.2</ele>
        <time>2025-05-29T10:55:40Z</time>
      </trkpt>
      <trkpt lat="44.50383" lon="1.40582">
        <ele>280.6</ele>
        <time>2025-05-29T10:55:41Z</time>
      </trkpt>
      <trkpt lat="44.5038" lon="1.4058">
        <ele>280.2</ele>
        <time>2025-05-29T10:55:42Z</time>
      </trkpt>
      <trkpt lat="44.50377" lon="1.40578">
        <ele>279.8</ele>
        <time>2025-05-29T10:55:43Z</time>
      </trkpt>
      <trkpt lat="44.50373" lon="1.40576">
        <ele>279.4</ele>
        <time>2025-05-29T10:55:44Z</time>
      </trkpt>
      <trkpt lat="44.50369" lon="1.40574">
        <ele>279</ele>
        <time>2025-05-29T10:55:45Z</time>
      </trkpt>
      <trkpt lat="44.50364" lon="1.40572">
        <ele>278.2</ele>
        <time>2025-05-29T10:55:46Z</time>
      </trkpt>
      <trkpt lat="44.5036" lon="1.4057">
        <ele>277.6</ele>
        <time>2025-05-29T10:55:47Z</time>
      </trkpt>
      <trkpt lat="44.50357" lon="1.40568">
        <ele>277.2</ele>
        <time>2025-05-29T10:55:48Z</time>
      </trkpt>
      <trkpt lat="44.50354" lon="1.40567">
        <ele>277</ele>
        <time>2025-05-29T10:55:49Z</time>
      </trkpt>
      <trkpt lat="44.5035" lon="1.40567">
        <ele>276.6</ele>
        <time>2025-05-29T10:55:50Z</time>
      </trkpt>
      <trkpt lat="44.50346" lon="1.40568">
        <ele>276.6</ele>
        <time>2025-05-29T10:55:51Z</time>
      </trkpt>
      <trkpt lat="44.50341" lon="1.40568">
        <ele>276.4</ele>
        <time>2025-05-29T10:55:52Z</time>
      </trkpt>
      <trkpt lat="44.50338" lon="1.40567">
        <ele>276</ele>
        <time>2025-05-29T10:55:53Z</time>
      </trkpt>
      <trkpt lat="44.50335" lon="1.40565">
        <ele>276</ele>
        <time>2025-05-29T10:55:54Z</time>
      </trkpt>
      <trkpt lat="44.50333" lon="1.40564">
        <ele>275.8</ele>
        <time>2025-05-29T10:55:55Z</time>
      </trkpt>
      <trkpt lat="44.50331" lon="1.40564">
        <ele>275.8</ele>
        <time>2025-05-29T10:55:56Z</time>
      </trkpt>
      <trkpt lat="44.50329" lon="1.40565">
        <ele>275.8</ele>
        <time>2025-05-29T10:55:57Z</time>
      </trkpt>
      <trkpt lat="44.50327" lon="1.40567">
        <ele>276</ele>
        <time>2025-05-29T10:55:58Z</time>
      </trkpt>
      <trkpt lat="44.50324" lon="1.40568">
        <ele>275.8</ele>
        <time>2025-05-29T10:55:59Z</time>
      </trkpt>
      <trkpt lat="44.5032" lon="1.4057">
        <ele>275.6</ele>
        <time>2025-05-29T10:56:00Z</time>
      </trkpt>
      <trkpt lat="44.50316" lon="1.40572">
        <ele>275.4</ele>
        <time>2025-05-29T10:56:01Z</time>
      </trkpt>
      <trkpt lat="44.50312" lon="1.40572">
        <ele>275</ele>
        <time>2025-05-29T10:56:02Z</time>
      </trkpt>
      <trkpt lat="44.50312" lon="1.40572">
        <ele>274.6</ele>
        <time>2025-05-29T10:56:03Z</time>
      </trkpt>
      <trkpt lat="44.50312" lon="1.40572">
        <ele>274.6</ele>
        <time>2025-05-29T10:56:04Z</time>
      </trkpt>
      <trkpt lat="44.50305" lon="1.40574">
        <ele>274.2</ele>
        <time>2025-05-29T10:56:31Z</time>
      </trkpt>
      <trkpt lat="44.50304" lon="1.40574">
        <ele>274.2</ele>
        <time>2025-05-29T10:56:32Z</time>
      </trkpt>
      <trkpt lat="44.50302" lon="1.40574">
        <ele>274.4</ele>
        <time>2025-05-29T10:56:33Z</time>
      </trkpt>
      <trkpt lat="44.50301" lon="1.40575">
        <ele>274.4</ele>
        <time>2025-05-29T10:56:34Z</time>
      </trkpt>
      <trkpt lat="44.50299" lon="1.40576">
        <ele>274.6</ele>
        <time>2025-05-29T10:56:35Z</time>
      </trkpt>
      <trkpt lat="44.50298" lon="1.40576">
        <ele>274.8</ele>
        <time>2025-05-29T10:56:36Z</time>
      </trkpt>
      <trkpt lat="44.50296" lon="1.40577">
        <ele>275</ele>
        <time>2025-05-29T10:56:37Z</time>
      </trkpt>
      <trkpt lat="44.50294" lon="1.40577">
        <ele>275</ele>
        <time>2025-05-29T10:56:38Z</time>
      </trkpt>
      <trkpt lat="44.50292" lon="1.40578">
        <ele>275.2</ele>
        <time>2025-05-29T10:56:39Z</time>
      </trkpt>
      <trkpt lat="44.5029" lon="1.40577">
        <ele>275.2</ele>
        <time>2025-05-29T10:56:40Z</time>
      </trkpt>
      <trkpt lat="44.50288" lon="1.40578">
        <ele>275.4</ele>
        <time>2025-05-29T10:56:41Z</time>
      </trkpt>
      <trkpt lat="44.50287" lon="1.40578">
        <ele>275.6</ele>
        <time>2025-05-29T10:56:42Z</time>
      </trkpt>
      <trkpt lat="44.50285" lon="1.40579">
        <ele>276</ele>
        <time>2025-05-29T10:56:43Z</time>
      </trkpt>
      <trkpt lat="44.50283" lon="1.4058">
        <ele>276.2</ele>
        <time>2025-05-29T10:56:44Z</time>
      </trkpt>
      <trkpt lat="44.50281" lon="1.40581">
        <ele>276.6</ele>
        <time>2025-05-29T10:56:45Z</time>
      </trkpt>
      <trkpt lat="44.50279" lon="1.40583">
        <ele>276.8</ele>
        <time>2025-05-29T10:56:46Z</time>
      </trkpt>
      <trkpt lat="44.50277" lon="1.40584">
        <ele>276.8</ele>
        <time>2025-05-29T10:56:47Z</time>
      </trkpt>
      <trkpt lat="44.50275" lon="1.40585">
        <ele>276.8</ele>
        <time>2025-05-29T10:56:48Z</time>
      </trkpt>
      <trkpt lat="44.50273" lon="1.40586">
        <ele>277</ele>
        <time>2025-05-29T10:56:49Z</time>
      </trkpt>
      <trkpt lat="44.50271" lon="1.40587">
        <ele>277</ele>
        <time>2025-05-29T10:56:50Z</time>
      </trkpt>
      <trkpt lat="44.5027" lon="1.40588">
        <ele>277</ele>
        <time>2025-05-29T10:56:51Z</time>
      </trkpt>
      <trkpt lat="44.50267" lon="1.4059">
        <ele>277.2</ele>
        <time>2025-05-29T10:56:52Z</time>
      </trkpt>
      <trkpt lat="44.50265" lon="1.40591">
        <ele>277.2</ele>
        <time>2025-05-29T10:56:53Z</time>
      </trkpt>
      <trkpt lat="44.50263" lon="1.40592">
        <ele>277.4</ele>
        <time>2025-05-29T10:56:54Z</time>
      </trkpt>
      <trkpt lat="44.50261" lon="1.40594">
        <ele>277.4</ele>
        <time>2025-05-29T10:56:55Z</time>
      </trkpt>
      <trkpt lat="44.50259" lon="1.40596">
        <ele>277.4</ele>
        <time>2025-05-29T10:56:56Z</time>
      </trkpt>
      <trkpt lat="44.50257" lon="1.40599">
        <ele>277.4</ele>
        <time>2025-05-29T10:56:57Z</time>
      </trkpt>
      <trkpt lat="44.50254" lon="1.40602">
        <ele>277.2</ele>
        <time>2025-05-29T10:56:58Z</time>
      </trkpt>
      <trkpt lat="44.50252" lon="1.40604">
        <ele>277.2</ele>
        <time>2025-05-29T10:56:59Z</time>
      </trkpt>
      <trkpt lat="44.5025" lon="1.40605">
        <ele>277</ele>
        <time>2025-05-29T10:57:00Z</time>
      </trkpt>
      <trkpt lat="44.50248" lon="1.40606">
        <ele>277</ele>
        <time>2025-05-29T10:57:01Z</time>
      </trkpt>
      <trkpt lat="44.50246" lon="1.40608">
        <ele>276.8</ele>
        <time>2025-05-29T10:57:02Z</time>
      </trkpt>
      <trkpt lat="44.50244" lon="1.40609">
        <ele>277</ele>
        <time>2025-05-29T10:57:03Z</time>
      </trkpt>
      <trkpt lat="44.50242" lon="1.4061">
        <ele>277.2</ele>
        <time>2025-05-29T10:57:04Z</time>
      </trkpt>
      <trkpt lat="44.50241" lon="1.4061">
        <ele>277.4</ele>
        <time>2025-05-29T10:57:05Z</time>
      </trkpt>
      <trkpt lat="44.50239" lon="1.40612">
        <ele>277.4</ele>
        <time>2025-05-29T10:57:06Z</time>
      </trkpt>
      <trkpt lat="44.50237" lon="1.40614">
        <ele>277.6</ele>
        <time>2025-05-29T10:57:07Z</time>
      </trkpt>
      <trkpt lat="44.50236" lon="1.40616">
        <ele>277.8</ele>
        <time>2025-05-29T10:57:08Z</time>
      </trkpt>
      <trkpt lat="44.50234" lon="1.40619">
        <ele>277.8</ele>
        <time>2025-05-29T10:57:09Z</time>
      </trkpt>
      <trkpt lat="44.50233" lon="1.40622">
        <ele>277.6</ele>
        <time>2025-05-29T10:57:10Z</time>
      </trkpt>
      <trkpt lat="44.50232" lon="1.40626">
        <ele>277.4</ele>
        <time>2025-05-29T10:57:11Z</time>
      </trkpt>
      <trkpt lat="44.50229" lon="1.40629">
        <ele>277.2</ele>
        <time>2025-05-29T10:57:12Z</time>
      </trkpt>
      <trkpt lat="44.50227" lon="1.40632">
        <ele>276.8</ele>
        <time>2025-05-29T10:57:13Z</time>
      </trkpt>
      <trkpt lat="44.50224" lon="1.40635">
        <ele>276.4</ele>
        <time>2025-05-29T10:57:14Z</time>
      </trkpt>
      <trkpt lat="44.50222" lon="1.40638">
        <ele>276.2</ele>
        <time>2025-05-29T10:57:15Z</time>
      </trkpt>
      <trkpt lat="44.50219" lon="1.40641">
        <ele>276</ele>
        <time>2025-05-29T10:57:16Z</time>
      </trkpt>
      <trkpt lat="44.50216" lon="1.40645">
        <ele>275.8</ele>
        <time>2025-05-29T10:57:17Z</time>
      </trkpt>
      <trkpt lat="44.50215" lon="1.40647">
        <ele>275.6</ele>
        <time>2025-05-29T10:57:18Z</time>
      </trkpt>
      <trkpt lat="44.50214" lon="1.4065">
        <ele>275.6</ele>
        <time>2025-05-29T10:57:19Z</time>
      </trkpt>
      <trkpt lat="44.50212" lon="1.40654">
        <ele>275.4</ele>
        <time>2025-05-29T10:57:20Z</time>
      </trkpt>
      <trkpt lat="44.50209" lon="1.40657">
        <ele>275.2</ele>
        <time>2025-05-29T10:57:21Z</time>
      </trkpt>
      <trkpt lat="44.50207" lon="1.40661">
        <ele>274.8</ele>
        <time>2025-05-29T10:57:22Z</time>
      </trkpt>
      <trkpt lat="44.50204" lon="1.40665">
        <ele>274.6</ele>
        <time>2025-05-29T10:57:23Z</time>
      </trkpt>
      <trkpt lat="44.50201" lon="1.40668">
        <ele>274.2</ele>
        <time>2025-05-29T10:57:24Z</time>
      </trkpt>
      <trkpt lat="44.50198" lon="1.40671">
        <ele>273.8</ele>
        <time>2025-05-29T10:57:25Z</time>
      </trkpt>
      <trkpt lat="44.50195" lon="1.40673">
        <ele>273.4</ele>
        <time>2025-05-29T10:57:26Z</time>
      </trkpt>
      <trkpt lat="44.50193" lon="1.40675">
        <ele>273.2</ele>
        <time>2025-05-29T10:57:27Z</time>
      </trkpt>
      <trkpt lat="44.50191" lon="1.40677">
        <ele>273.2</ele>
        <time>2025-05-29T10:57:28Z</time>
      </trkpt>
      <trkpt lat="44.50189" lon="1.40678">
        <ele>273.2</ele>
        <time>2025-05-29T10:57:29Z</time>
      </trkpt>
      <trkpt lat="44.50187" lon="1.40679">
        <ele>273.4</ele>
        <time>2025-05-29T10:57:30Z</time>
      </trkpt>
      <trkpt lat="44.50185" lon="1.40679">
        <ele>273.6</ele>
        <time>2025-05-29T10:57:31Z</time>
      </trkpt>
      <trkpt lat="44.50183" lon="1.4068">
        <ele>273.6</ele>
        <time>2025-05-29T10:57:32Z</time>
      </trkpt>
      <trkpt lat="44.50181" lon="1.40682">
        <ele>273.8</ele>
        <time>2025-05-29T10:57:33Z</time>
      </trkpt>
      <trkpt lat="44.5018" lon="1.40683">
        <ele>273.8</ele>
        <time>2025-05-29T10:57:34Z</time>
      </trkpt>
      <trkpt lat="44.50178" lon="1.40685">
        <ele>274</ele>
        <time>2025-05-29T10:57:35Z</time>
      </trkpt>
      <trkpt lat="44.50176" lon="1.40686">
        <ele>273.8</ele>
        <time>2025-05-29T10:57:36Z</time>
      </trkpt>
      <trkpt lat="44.50174" lon="1.40688">
        <ele>273.8</ele>
        <time>2025-05-29T10:57:37Z</time>
      </trkpt>
      <trkpt lat="44.50172" lon="1.40688">
        <ele>273.8</ele>
        <time>2025-05-29T10:57:38Z</time>
      </trkpt>
      <trkpt lat="44.5017" lon="1.40689">
        <ele>273.8</ele>
        <time>2025-05-29T10:57:39Z</time>
      </trkpt>
      <trkpt lat="44.50168" lon="1.4069">
        <ele>273.8</ele>
        <time>2025-05-29T10:57:40Z</time>
      </trkpt>
      <trkpt lat="44.50166" lon="1.4069">
        <ele>274</ele>
        <time>2025-05-29T10:57:41Z</time>
      </trkpt>
      <trkpt lat="44.50164" lon="1.40691">
        <ele>274.2</ele>
        <time>2025-05-29T10:57:42Z</time>
      </trkpt>
      <trkpt lat="44.50162" lon="1.40692">
        <ele>274.2</ele>
        <time>2025-05-29T10:57:43Z</time>
      </trkpt>
      <trkpt lat="44.5016" lon="1.40692">
        <ele>274.4</ele>
        <time>2025-05-29T10:57:44Z</time>
      </trkpt>
      <trkpt lat="44.50158" lon="1.40693">
        <ele>274.4</ele>
        <time>2025-05-29T10:57:45Z</time>
      </trkpt>
      <trkpt lat="44.50156" lon="1.40692">
        <ele>274.6</ele>
        <time>2025-05-29T10:57:46Z</time>
      </trkpt>
      <trkpt lat="44.50154" lon="1.4069">
        <ele>274.8</ele>
        <time>2025-05-29T10:57:47Z</time>
      </trkpt>
      <trkpt lat="44.50152" lon="1.4069">
        <ele>274.8</ele>
        <time>2025-05-29T10:57:48Z</time>
      </trkpt>
      <trkpt lat="44.5015" lon="1.40691">
        <ele>274.8</ele>
        <time>2025-05-29T10:57:49Z</time>
      </trkpt>
      <trkpt lat="44.50149" lon="1.40694">
        <ele>275</ele>
        <time>2025-05-29T10:57:50Z</time>
      </trkpt>
      <trkpt lat="44.50147" lon="1.40697">
        <ele>275</ele>
        <time>2025-05-29T10:57:51Z</time>
      </trkpt>
      <trkpt lat="44.50145" lon="1.40698">
        <ele>275</ele>
        <time>2025-05-29T10:57:52Z</time>
      </trkpt>
      <trkpt lat="44.50144" lon="1.407">
        <ele>275.2</ele>
        <time>2025-05-29T10:57:53Z</time>
      </trkpt>
      <trkpt lat="44.50142" lon="1.40701">
        <ele>275.2</ele>
        <time>2025-05-29T10:57:54Z</time>
      </trkpt>
      <trkpt lat="44.5014" lon="1.40703">
        <ele>275.2</ele>
        <time>2025-05-29T10:57:55Z</time>
      </trkpt>
      <trkpt lat="44.50138" lon="1.40704">
        <ele>275.2</ele>
        <time>2025-05-29T10:57:56Z</time>
      </trkpt>
      <trkpt lat="44.50136" lon="1.40705">
        <ele>275.2</ele>
        <time>2025-05-29T10:57:57Z</time>
      </trkpt>
      <trkpt lat="44.50134" lon="1.40704">
        <ele>275.2</ele>
        <time>2025-05-29T10:57:58Z</time>
      </trkpt>
      <trkpt lat="44.50132" lon="1.40703">
        <ele>275.2</ele>
        <time>2025-05-29T10:57:59Z</time>
      </trkpt>
      <trkpt lat="44.5013" lon="1.40702">
        <ele>275</ele>
        <time>2025-05-29T10:58:00Z</time>
      </trkpt>
      <trkpt lat="44.50129" lon="1.40701">
        <ele>275</ele>
        <time>2025-05-29T10:58:01Z</time>
      </trkpt>
      <trkpt lat="44.50127" lon="1.40699">
        <ele>274.8</ele>
        <time>2025-05-29T10:58:02Z</time>
      </trkpt>
      <trkpt lat="44.50126" lon="1.40698">
        <ele>274.8</ele>
        <time>2025-05-29T10:58:03Z</time>
      </trkpt>
      <trkpt lat="44.50124" lon="1.40696">
        <ele>274.8</ele>
        <time>2025-05-29T10:58:04Z</time>
      </trkpt>
      <trkpt lat="44.50123" lon="1.40695">
        <ele>274.8</ele>
        <time>2025-05-29T10:58:05Z</time>
      </trkpt>
      <trkpt lat="44.50121" lon="1.40694">
        <ele>274.8</ele>
        <time>2025-05-29T10:58:06Z</time>
      </trkpt>
      <trkpt lat="44.50119" lon="1.40694">
        <ele>274.8</ele>
        <time>2025-05-29T10:58:07Z</time>
      </trkpt>
      <trkpt lat="44.50117" lon="1.40693">
        <ele>274.8</ele>
        <time>2025-05-29T10:58:08Z</time>
      </trkpt>
      <trkpt lat="44.50114" lon="1.40692">
        <ele>274.8</ele>
        <time>2025-05-29T10:58:09Z</time>
      </trkpt>
      <trkpt lat="44.50112" lon="1.4069">
        <ele>274.8</ele>
        <time>2025-05-29T10:58:10Z</time>
      </trkpt>
      <trkpt lat="44.50111" lon="1.40688">
        <ele>274.6</ele>
        <time>2025-05-29T10:58:11Z</time>
      </trkpt>
      <trkpt lat="44.5011" lon="1.40686">
        <ele>274.6</ele>
        <time>2025-05-29T10:58:12Z</time>
      </trkpt>
      <trkpt lat="44.50109" lon="1.40684">
        <ele>274.6</ele>
        <time>2025-05-29T10:58:13Z</time>
      </trkpt>
      <trkpt lat="44.50108" lon="1.40681">
        <ele>274.8</ele>
        <time>2025-05-29T10:58:14Z</time>
      </trkpt>
      <trkpt lat="44.50107" lon="1.40679">
        <ele>275</ele>
        <time>2025-05-29T10:58:15Z</time>
      </trkpt>
      <trkpt lat="44.50106" lon="1.40677">
        <ele>275.2</ele>
        <time>2025-05-29T10:58:16Z</time>
      </trkpt>
      <trkpt lat="44.50105" lon="1.40675">
        <ele>275.2</ele>
        <time>2025-05-29T10:58:17Z</time>
      </trkpt>
      <trkpt lat="44.50104" lon="1.40673">
        <ele>275.4</ele>
        <time>2025-05-29T10:58:18Z</time>
      </trkpt>
      <trkpt lat="44.50103" lon="1.4067">
        <ele>275.4</ele>
        <time>2025-05-29T10:58:19Z</time>
      </trkpt>
      <trkpt lat="44.50102" lon="1.40668">
        <ele>275.6</ele>
        <time>2025-05-29T10:58:20Z</time>
      </trkpt>
      <trkpt lat="44.50101" lon="1.40666">
        <ele>275.6</ele>
        <time>2025-05-29T10:58:21Z</time>
      </trkpt>
      <trkpt lat="44.50101" lon="1.40665">
        <ele>275.8</ele>
        <time>2025-05-29T10:58:22Z</time>
      </trkpt>
      <trkpt lat="44.50101" lon="1.40663">
        <ele>275.8</ele>
        <time>2025-05-29T10:58:23Z</time>
      </trkpt>
      <trkpt lat="44.501" lon="1.40661">
        <ele>275.8</ele>
        <time>2025-05-29T10:58:24Z</time>
      </trkpt>
      <trkpt lat="44.501" lon="1.40659">
        <ele>275.8</ele>
        <time>2025-05-29T10:58:25Z</time>
      </trkpt>
      <trkpt lat="44.501" lon="1.40657">
        <ele>276</ele>
        <time>2025-05-29T10:58:26Z</time>
      </trkpt>
      <trkpt lat="44.50099" lon="1.40656">
        <ele>276</ele>
        <time>2025-05-29T10:58:27Z</time>
      </trkpt>
      <trkpt lat="44.50099" lon="1.40654">
        <ele>276</ele>
        <time>2025-05-29T10:58:28Z</time>
      </trkpt>
      <trkpt lat="44.50098" lon="1.40652">
        <ele>276</ele>
        <time>2025-05-29T10:58:29Z</time>
      </trkpt>
      <trkpt lat="44.50097" lon="1.4065">
        <ele>276</ele>
        <time>2025-05-29T10:58:30Z</time>
      </trkpt>
      <trkpt lat="44.50096" lon="1.40648">
        <ele>276</ele>
        <time>2025-05-29T10:58:31Z</time>
      </trkpt>
      <trkpt lat="44.50095" lon="1.40646">
        <ele>276</ele>
        <time>2025-05-29T10:58:32Z</time>
      </trkpt>
      <trkpt lat="44.50093" lon="1.40643">
        <ele>276</ele>
        <time>2025-05-29T10:58:33Z</time>
      </trkpt>
      <trkpt lat="44.50093" lon="1.40642">
        <ele>276</ele>
        <time>2025-05-29T10:58:34Z</time>
      </trkpt>
      <trkpt lat="44.50093" lon="1.40641">
        <ele>276</ele>
        <time>2025-05-29T10:58:35Z</time>
      </trkpt>
      <trkpt lat="44.50093" lon="1.40641">
        <ele>276</ele>
        <time>2025-05-29T10:58:36Z</time>
      </trkpt>
      <trkpt lat="44.5009" lon="1.40637">
        <ele>275.8</ele>
        <time>2025-05-29T11:00:13Z</time>
      </trkpt>
      <trkpt lat="44.50088" lon="1.40634">
        <ele>275.8</ele>
        <time>2025-05-29T11:00:14Z</time>
      </trkpt>
      <trkpt lat="44.50086" lon="1.40632">
        <ele>275.6</ele>
        <time>2025-05-29T11:00:15Z</time>
      </trkpt>
      <trkpt lat="44.50084" lon="1.4063">
        <ele>275.6</ele>
        <time>2025-05-29T11:00:16Z</time>
      </trkpt>
      <trkpt lat="44.50083" lon="1.40628">
        <ele>275.6</ele>
        <time>2025-05-29T11:00:17Z</time>
      </trkpt>
      <trkpt lat="44.50082" lon="1.40625">
        <ele>275.6</ele>
        <time>2025-05-29T11:00:18Z</time>
      </trkpt>
      <trkpt lat="44.50082" lon="1.40621">
        <ele>275.6</ele>
        <time>2025-05-29T11:00:19Z</time>
      </trkpt>
      <trkpt lat="44.50082" lon="1.40618">
        <ele>275.6</ele>
        <time>2025-05-29T11:00:20Z</time>
      </trkpt>
      <trkpt lat="44.50082" lon="1.40614">
        <ele>275.6</ele>
        <time>2025-05-29T11:00:21Z</time>
      </trkpt>
      <trkpt lat="44.50081" lon="1.4061">
        <ele>275.6</ele>
        <time>2025-05-29T11:00:22Z</time>
      </trkpt>
      <trkpt lat="44.50082" lon="1.40606">
        <ele>275.6</ele>
        <time>2025-05-29T11:00:23Z</time>
      </trkpt>
      <trkpt lat="44.50082" lon="1.40603">
        <ele>275.6</ele>
        <time>2025-05-29T11:00:24Z</time>
      </trkpt>
      <trkpt lat="44.50083" lon="1.40599">
        <ele>275.8</ele>
        <time>2025-05-29T11:00:25Z</time>
      </trkpt>
      <trkpt lat="44.50084" lon="1.40596">
        <ele>276</ele>
        <time>2025-05-29T11:00:26Z</time>
      </trkpt>
      <trkpt lat="44.50084" lon="1.40592">
        <ele>276.2</ele>
        <time>2025-05-29T11:00:27Z</time>
      </trkpt>
      <trkpt lat="44.50084" lon="1.40589">
        <ele>276.2</ele>
        <time>2025-05-29T11:00:28Z</time>
      </trkpt>
      <trkpt lat="44.50084" lon="1.40585">
        <ele>276.4</ele>
        <time>2025-05-29T11:00:29Z</time>
      </trkpt>
      <trkpt lat="44.50084" lon="1.40581">
        <ele>276.4</ele>
        <time>2025-05-29T11:00:30Z</time>
      </trkpt>
      <trkpt lat="44.50084" lon="1.40576">
        <ele>276.4</ele>
        <time>2025-05-29T11:00:31Z</time>
      </trkpt>
      <trkpt lat="44.50084" lon="1.40572">
        <ele>276.4</ele>
        <time>2025-05-29T11:00:32Z</time>
      </trkpt>
      <trkpt lat="44.50085" lon="1.40568">
        <ele>276.4</ele>
        <time>2025-05-29T11:00:33Z</time>
      </trkpt>
      <trkpt lat="44.50087" lon="1.40565">
        <ele>276.4</ele>
        <time>2025-05-29T11:00:34Z</time>
      </trkpt>
      <trkpt lat="44.50088" lon="1.40563">
        <ele>276.4</ele>
        <time>2025-05-29T11:00:35Z</time>
      </trkpt>
      <trkpt lat="44.50089" lon="1.40561">
        <ele>276.6</ele>
        <time>2025-05-29T11:00:36Z</time>
      </trkpt>
      <trkpt lat="44.5009" lon="1.40558">
        <ele>276.8</ele>
        <time>2025-05-29T11:00:37Z</time>
      </trkpt>
      <trkpt lat="44.50089" lon="1.40557">
        <ele>277</ele>
        <time>2025-05-29T11:00:38Z</time>
      </trkpt>
      <trkpt lat="44.50089" lon="1.40557">
        <ele>277.4</ele>
        <time>2025-05-29T11:00:39Z</time>
      </trkpt>
      <trkpt lat="44.50096" lon="1.40558">
        <ele>278.6</ele>
        <time>2025-05-29T11:01:34Z</time>
      </trkpt>
      <trkpt lat="44.50097" lon="1.40559">
        <ele>278.6</ele>
        <time>2025-05-29T11:01:35Z</time>
      </trkpt>
      <trkpt lat="44.50098" lon="1.40562">
        <ele>278.6</ele>
        <time>2025-05-29T11:01:36Z</time>
      </trkpt>
      <trkpt lat="44.50099" lon="1.40564">
        <ele>278.6</ele>
        <time>2025-05-29T11:01:37Z</time>
      </trkpt>
      <trkpt lat="44.50101" lon="1.40566">
        <ele>278.8</ele>
        <time>2025-05-29T11:01:38Z</time>
      </trkpt>
      <trkpt lat="44.50103" lon="1.40568">
        <ele>279</ele>
        <time>2025-05-29T11:01:39Z</time>
      </trkpt>
      <trkpt lat="44.50104" lon="1.40569">
        <ele>279.2</ele>
        <time>2025-05-29T11:01:40Z</time>
      </trkpt>
      <trkpt lat="44.50105" lon="1.4057">
        <ele>279.4</ele>
        <time>2025-05-29T11:01:41Z</time>
      </trkpt>
      <trkpt lat="44.50105" lon="1.4057">
        <ele>279.8</ele>
        <time>2025-05-29T11:01:42Z</time>
      </trkpt>
      <trkpt lat="44.50106" lon="1.40572">
        <ele>279.8</ele>
        <time>2025-05-29T11:01:43Z</time>
      </trkpt>
      <trkpt lat="44.50108" lon="1.40573">
        <ele>280</ele>
        <time>2025-05-29T11:01:44Z</time>
      </trkpt>
      <trkpt lat="44.5011" lon="1.40574">
        <ele>280.2</ele>
        <time>2025-05-29T11:01:45Z</time>
      </trkpt>
      <trkpt lat="44.50112" lon="1.40574">
        <ele>280.2</ele>
        <time>2025-05-29T11:01:46Z</time>
      </trkpt>
      <trkpt lat="44.50114" lon="1.40574">
        <ele>280.2</ele>
        <time>2025-05-29T11:01:47Z</time>
      </trkpt>
      <trkpt lat="44.50116" lon="1.40575">
        <ele>280.2</ele>
        <time>2025-05-29T11:01:48Z</time>
      </trkpt>
      <trkpt lat="44.50117" lon="1.40576">
        <ele>280.4</ele>
        <time>2025-05-29T11:01:49Z</time>
      </trkpt>
      <trkpt lat="44.50119" lon="1.40577">
        <ele>280.4</ele>
        <time>2025-05-29T11:01:50Z</time>
      </trkpt>
      <trkpt lat="44.50121" lon="1.40577">
        <ele>280.6</ele>
        <time>2025-05-29T11:01:51Z</time>
      </trkpt>
      <trkpt lat="44.50123" lon="1.40576">
        <ele>281</ele>
        <time>2025-05-29T11:01:52Z</time>
      </trkpt>
      <trkpt lat="44.50125" lon="1.40574">
        <ele>281.2</ele>
        <time>2025-05-29T11:01:53Z</time>
      </trkpt>
      <trkpt lat="44.50127" lon="1.40573">
        <ele>281.4</ele>
        <time>2025-05-29T11:01:54Z</time>
      </trkpt>
      <trkpt lat="44.50128" lon="1.40571">
        <ele>281.6</ele>
        <time>2025-05-29T11:01:55Z</time>
      </trkpt>
      <trkpt lat="44.5013" lon="1.40568">
        <ele>281.8</ele>
        <time>2025-05-29T11:01:56Z</time>
      </trkpt>
      <trkpt lat="44.50131" lon="1.40566">
        <ele>282</ele>
        <time>2025-05-29T11:01:57Z</time>
      </trkpt>
      <trkpt lat="44.50133" lon="1.40563">
        <ele>282</ele>
        <time>2025-05-29T11:01:58Z</time>
      </trkpt>
      <trkpt lat="44.50135" lon="1.40561">
        <ele>282</ele>
        <time>2025-05-29T11:01:59Z</time>
      </trkpt>
      <trkpt lat="44.50137" lon="1.40559">
        <ele>282</ele>
        <time>2025-05-29T11:02:00Z</time>
      </trkpt>
      <trkpt lat="44.50139" lon="1.40557">
        <ele>282</ele>
        <time>2025-05-29T11:02:01Z</time>
      </trkpt>
      <trkpt lat="44.50141" lon="1.40554">
        <ele>282.2</ele>
        <time>2025-05-29T11:02:02Z</time>
      </trkpt>
      <trkpt lat="44.50143" lon="1.40552">
        <ele>282.4</ele>
        <time>2025-05-29T11:02:03Z</time>
      </trkpt>
      <trkpt lat="44.50144" lon="1.4055">
        <ele>282.6</ele>
        <time>2025-05-29T11:02:04Z</time>
      </trkpt>
      <trkpt lat="44.50145" lon="1.40547">
        <ele>282.8</ele>
        <time>2025-05-29T11:02:05Z</time>
      </trkpt>
      <trkpt lat="44.50147" lon="1.40544">
        <ele>283</ele>
        <time>2025-05-29T11:02:06Z</time>
      </trkpt>
      <trkpt lat="44.50148" lon="1.40542">
        <ele>283.2</ele>
        <time>2025-05-29T11:02:07Z</time>
      </trkpt>
      <trkpt lat="44.5015" lon="1.40539">
        <ele>283.2</ele>
        <time>2025-05-29T11:02:08Z</time>
      </trkpt>
      <trkpt lat="44.50152" lon="1.40537">
        <ele>283.2</ele>
        <time>2025-05-29T11:02:09Z</time>
      </trkpt>
      <trkpt lat="44.50154" lon="1.40535">
        <ele>283.2</ele>
        <time>2025-05-29T11:02:10Z</time>
      </trkpt>
      <trkpt lat="44.50155" lon="1.40532">
        <ele>283.2</ele>
        <time>2025-05-29T11:02:11Z</time>
      </trkpt>
      <trkpt lat="44.50157" lon="1.4053">
        <ele>283.2</ele>
        <time>2025-05-29T11:02:12Z</time>
      </trkpt>
      <trkpt lat="44.50159" lon="1.40527">
        <ele>283.4</ele>
        <time>2025-05-29T11:02:13Z</time>
      </trkpt>
      <trkpt lat="44.50161" lon="1.40525">
        <ele>283.4</ele>
        <time>2025-05-29T11:02:14Z</time>
      </trkpt>
      <trkpt lat="44.50163" lon="1.40523">
        <ele>283.4</ele>
        <time>2025-05-29T11:02:15Z</time>
      </trkpt>
      <trkpt lat="44.50165" lon="1.40521">
        <ele>283.4</ele>
        <time>2025-05-29T11:02:16Z</time>
      </trkpt>
      <trkpt lat="44.50168" lon="1.4052">
        <ele>283.6</ele>
        <time>2025-05-29T11:02:17Z</time>
      </trkpt>
      <trkpt lat="44.5017" lon="1.4052">
        <ele>283.6</ele>
        <time>2025-05-29T11:02:18Z</time>
      </trkpt>
      <trkpt lat="44.50172" lon="1.40518">
        <ele>283.8</ele>
        <time>2025-05-29T11:02:19Z</time>
      </trkpt>
      <trkpt lat="44.50173" lon="1.40516">
        <ele>283.8</ele>
        <time>2025-05-29T11:02:20Z</time>
      </trkpt>
      <trkpt lat="44.50175" lon="1.40513">
        <ele>284</ele>
        <time>2025-05-29T11:02:21Z</time>
      </trkpt>
      <trkpt lat="44.50177" lon="1.4051">
        <ele>284</ele>
        <time>2025-05-29T11:02:22Z</time>
      </trkpt>
      <trkpt lat="44.50179" lon="1.40507">
        <ele>284</ele>
        <time>2025-05-29T11:02:23Z</time>
      </trkpt>
      <trkpt lat="44.50181" lon="1.40504">
        <ele>284</ele>
        <time>2025-05-29T11:02:24Z</time>
      </trkpt>
      <trkpt lat="44.50182" lon="1.40502">
        <ele>284</ele>
        <time>2025-05-29T11:02:25Z</time>
      </trkpt>
      <trkpt lat="44.50184" lon="1.40499">
        <ele>284</ele>
        <time>2025-05-29T11:02:26Z</time>
      </trkpt>
      <trkpt lat="44.50186" lon="1.40495">
        <ele>283.8</ele>
        <time>2025-05-29T11:02:27Z</time>
      </trkpt>
      <trkpt lat="44.50188" lon="1.40492">
        <ele>283.8</ele>
        <time>2025-05-29T11:02:28Z</time>
      </trkpt>
      <trkpt lat="44.50191" lon="1.40489">
        <ele>283.6</ele>
        <time>2025-05-29T11:02:29Z</time>
      </trkpt>
      <trkpt lat="44.50193" lon="1.40488">
        <ele>283.4</ele>
        <time>2025-05-29T11:02:30Z</time>
      </trkpt>
      <trkpt lat="44.50195" lon="1.40487">
        <ele>283.4</ele>
        <time>2025-05-29T11:02:31Z</time>
      </trkpt>
      <trkpt lat="44.50197" lon="1.40485">
        <ele>283.4</ele>
        <time>2025-05-29T11:02:32Z</time>
      </trkpt>
      <trkpt lat="44.50199" lon="1.40483">
        <ele>283.6</ele>
        <time>2025-05-29T11:02:33Z</time>
      </trkpt>
      <trkpt lat="44.502" lon="1.40481">
        <ele>283.6</ele>
        <time>2025-05-29T11:02:34Z</time>
      </trkpt>
      <trkpt lat="44.50202" lon="1.40479">
        <ele>283.6</ele>
        <time>2025-05-29T11:02:35Z</time>
      </trkpt>
      <trkpt lat="44.50205" lon="1.40477">
        <ele>283.6</ele>
        <time>2025-05-29T11:02:36Z</time>
      </trkpt>
      <trkpt lat="44.50207" lon="1.40475">
        <ele>283.8</ele>
        <time>2025-05-29T11:02:37Z</time>
      </trkpt>
      <trkpt lat="44.50209" lon="1.40473">
        <ele>283.8</ele>
        <time>2025-05-29T11:02:38Z</time>
      </trkpt>
      <trkpt lat="44.50211" lon="1.40471">
        <ele>283.8</ele>
        <time>2025-05-29T11:02:39Z</time>
      </trkpt>
      <trkpt lat="44.50213" lon="1.40468">
        <ele>284</ele>
        <time>2025-05-29T11:02:40Z</time>
      </trkpt>
      <trkpt lat="44.50215" lon="1.40466">
        <ele>284</ele>
        <time>2025-05-29T11:02:41Z</time>
      </trkpt>
      <trkpt lat="44.50217" lon="1.40464">
        <ele>284.2</ele>
        <time>2025-05-29T11:02:42Z</time>
      </trkpt>
      <trkpt lat="44.50219" lon="1.40459">
        <ele>284.2</ele>
        <time>2025-05-29T11:02:43Z</time>
      </trkpt>
      <trkpt lat="44.5022" lon="1.40454">
        <ele>284</ele>
        <time>2025-05-29T11:02:44Z</time>
      </trkpt>
      <trkpt lat="44.50223" lon="1.40449">
        <ele>283.6</ele>
        <time>2025-05-29T11:02:45Z</time>
      </trkpt>
      <trkpt lat="44.50226" lon="1.40445">
        <ele>283.2</ele>
        <time>2025-05-29T11:02:46Z</time>
      </trkpt>
      <trkpt lat="44.5023" lon="1.40442">
        <ele>282.8</ele>
        <time>2025-05-29T11:02:47Z</time>
      </trkpt>
      <trkpt lat="44.50234" lon="1.4044">
        <ele>282.4</ele>
        <time>2025-05-29T11:02:48Z</time>
      </trkpt>
      <trkpt lat="44.50237" lon="1.40437">
        <ele>282.2</ele>
        <time>2025-05-29T11:02:49Z</time>
      </trkpt>
      <trkpt lat="44.5024" lon="1.40435">
        <ele>282.2</ele>
        <time>2025-05-29T11:02:50Z</time>
      </trkpt>
      <trkpt lat="44.50242" lon="1.40434">
        <ele>282.2</ele>
        <time>2025-05-29T11:02:51Z</time>
      </trkpt>
      <trkpt lat="44.50244" lon="1.40432">
        <ele>282.2</ele>
        <time>2025-05-29T11:02:52Z</time>
      </trkpt>
      <trkpt lat="44.50246" lon="1.40429">
        <ele>282.4</ele>
        <time>2025-05-29T11:02:53Z</time>
      </trkpt>
      <trkpt lat="44.50249" lon="1.40425">
        <ele>282.6</ele>
        <time>2025-05-29T11:02:54Z</time>
      </trkpt>
      <trkpt lat="44.50252" lon="1.40421">
        <ele>282.2</ele>
        <time>2025-05-29T11:02:55Z</time>
      </trkpt>
      <trkpt lat="44.50257" lon="1.40417">
        <ele>282</ele>
        <time>2025-05-29T11:02:56Z</time>
      </trkpt>
      <trkpt lat="44.50259" lon="1.40415">
        <ele>281.4</ele>
        <time>2025-05-29T11:02:57Z</time>
      </trkpt>
      <trkpt lat="44.50261" lon="1.40414">
        <ele>281.2</ele>
        <time>2025-05-29T11:02:58Z</time>
      </trkpt>
      <trkpt lat="44.50264" lon="1.40414">
        <ele>281</ele>
        <time>2025-05-29T11:02:59Z</time>
      </trkpt>
      <trkpt lat="44.50265" lon="1.40414">
        <ele>280.8</ele>
        <time>2025-05-29T11:03:00Z</time>
      </trkpt>
      <trkpt lat="44.50267" lon="1.40414">
        <ele>280.8</ele>
        <time>2025-05-29T11:03:01Z</time>
      </trkpt>
      <trkpt lat="44.50269" lon="1.40413">
        <ele>281</ele>
        <time>2025-05-29T11:03:02Z</time>
      </trkpt>
      <trkpt lat="44.5027" lon="1.40412">
        <ele>281</ele>
        <time>2025-05-29T11:03:03Z</time>
      </trkpt>
      <trkpt lat="44.50272" lon="1.40411">
        <ele>281</ele>
        <time>2025-05-29T11:03:04Z</time>
      </trkpt>
      <trkpt lat="44.50274" lon="1.4041">
        <ele>280.8</ele>
        <time>2025-05-29T11:03:05Z</time>
      </trkpt>
      <trkpt lat="44.50276" lon="1.40411">
        <ele>280.8</ele>
        <time>2025-05-29T11:03:06Z</time>
      </trkpt>
      <trkpt lat="44.50277" lon="1.4041">
        <ele>280.8</ele>
        <time>2025-05-29T11:03:07Z</time>
      </trkpt>
      <trkpt lat="44.5028" lon="1.40409">
        <ele>280.8</ele>
        <time>2025-05-29T11:03:08Z</time>
      </trkpt>
      <trkpt lat="44.50283" lon="1.40407">
        <ele>280.8</ele>
        <time>2025-05-29T11:03:09Z</time>
      </trkpt>
      <trkpt lat="44.50285" lon="1.40404">
        <ele>280.8</ele>
        <time>2025-05-29T11:03:10Z</time>
      </trkpt>
      <trkpt lat="44.50288" lon="1.404">
        <ele>280.6</ele>
        <time>2025-05-29T11:03:11Z</time>
      </trkpt>
      <trkpt lat="44.50291" lon="1.40395">
        <ele>280.2</ele>
        <time>2025-05-29T11:03:12Z</time>
      </trkpt>
      <trkpt lat="44.50296" lon="1.40393">
        <ele>279.6</ele>
        <time>2025-05-29T11:03:13Z</time>
      </trkpt>
      <trkpt lat="44.50298" lon="1.40392">
        <ele>279.4</ele>
        <time>2025-05-29T11:03:14Z</time>
      </trkpt>
      <trkpt lat="44.50302" lon="1.40391">
        <ele>279.2</ele>
        <time>2025-05-29T11:03:15Z</time>
      </trkpt>
      <trkpt lat="44.50304" lon="1.4039">
        <ele>278.8</ele>
        <time>2025-05-29T11:03:16Z</time>
      </trkpt>
      <trkpt lat="44.50308" lon="1.4039">
        <ele>278.8</ele>
        <time>2025-05-29T11:03:17Z</time>
      </trkpt>
      <trkpt lat="44.50311" lon="1.4039">
        <ele>278.8</ele>
        <time>2025-05-29T11:03:18Z</time>
      </trkpt>
      <trkpt lat="44.50313" lon="1.4039">
        <ele>278.8</ele>
        <time>2025-05-29T11:03:19Z</time>
      </trkpt>
      <trkpt lat="44.50315" lon="1.40391">
        <ele>278.8</ele>
        <time>2025-05-29T11:03:20Z</time>
      </trkpt>
      <trkpt lat="44.50317" lon="1.40392">
        <ele>279</ele>
        <time>2025-05-29T11:03:21Z</time>
      </trkpt>
      <trkpt lat="44.50319" lon="1.40393">
        <ele>279.2</ele>
        <time>2025-05-29T11:03:22Z</time>
      </trkpt>
      <trkpt lat="44.50321" lon="1.40394">
        <ele>279.6</ele>
        <time>2025-05-29T11:03:23Z</time>
      </trkpt>
      <trkpt lat="44.50322" lon="1.40395">
        <ele>280</ele>
        <time>2025-05-29T11:03:24Z</time>
      </trkpt>
      <trkpt lat="44.50324" lon="1.40397">
        <ele>280.2</ele>
        <time>2025-05-29T11:03:25Z</time>
      </trkpt>
      <trkpt lat="44.50326" lon="1.40398">
        <ele>280.6</ele>
        <time>2025-05-29T11:03:26Z</time>
      </trkpt>
      <trkpt lat="44.50328" lon="1.40399">
        <ele>280.8</ele>
        <time>2025-05-29T11:03:27Z</time>
      </trkpt>
      <trkpt lat="44.50331" lon="1.40401">
        <ele>280.8</ele>
        <time>2025-05-29T11:03:28Z</time>
      </trkpt>
      <trkpt lat="44.50333" lon="1.40402">
        <ele>280.8</ele>
        <time>2025-05-29T11:03:29Z</time>
      </trkpt>
      <trkpt lat="44.50335" lon="1.40404">
        <ele>280.8</ele>
        <time>2025-05-29T11:03:30Z</time>
      </trkpt>
      <trkpt lat="44.50337" lon="1.40407">
        <ele>280.8</ele>
        <time>2025-05-29T11:03:31Z</time>
      </trkpt>
      <trkpt lat="44.50338" lon="1.40409">
        <ele>280.8</ele>
        <time>2025-05-29T11:03:32Z</time>
      </trkpt>
      <trkpt lat="44.5034" lon="1.40412">
        <ele>280.6</ele>
        <time>2025-05-29T11:03:33Z</time>
      </trkpt>
      <trkpt lat="44.50341" lon="1.40415">
        <ele>280.8</ele>
        <time>2025-05-29T11:03:34Z</time>
      </trkpt>
      <trkpt lat="44.50342" lon="1.40418">
        <ele>280.8</ele>
        <time>2025-05-29T11:03:35Z</time>
      </trkpt>
      <trkpt lat="44.50343" lon="1.40421">
        <ele>280.8</ele>
        <time>2025-05-29T11:03:36Z</time>
      </trkpt>
      <trkpt lat="44.50344" lon="1.40423">
        <ele>281</ele>
        <time>2025-05-29T11:03:37Z</time>
      </trkpt>
      <trkpt lat="44.50346" lon="1.40425">
        <ele>281</ele>
        <time>2025-05-29T11:03:38Z</time>
      </trkpt>
      <trkpt lat="44.50348" lon="1.40428">
        <ele>281</ele>
        <time>2025-05-29T11:03:39Z</time>
      </trkpt>
      <trkpt lat="44.5035" lon="1.40431">
        <ele>281.2</ele>
        <time>2025-05-29T11:03:40Z</time>
      </trkpt>
      <trkpt lat="44.50353" lon="1.40434">
        <ele>281.2</ele>
        <time>2025-05-29T11:03:41Z</time>
      </trkpt>
      <trkpt lat="44.50355" lon="1.40437">
        <ele>281.2</ele>
        <time>2025-05-29T11:03:42Z</time>
      </trkpt>
      <trkpt lat="44.50357" lon="1.40439">
        <ele>281.2</ele>
        <time>2025-05-29T11:03:43Z</time>
      </trkpt>
      <trkpt lat="44.5036" lon="1.40441">
        <ele>281.2</ele>
        <time>2025-05-29T11:03:44Z</time>
      </trkpt>
      <trkpt lat="44.50363" lon="1.40444">
        <ele>281.2</ele>
        <time>2025-05-29T11:03:45Z</time>
      </trkpt>
      <trkpt lat="44.50365" lon="1.40447">
        <ele>281</ele>
        <time>2025-05-29T11:03:46Z</time>
      </trkpt>
      <trkpt lat="44.50366" lon="1.40449">
        <ele>281</ele>
        <time>2025-05-29T11:03:47Z</time>
      </trkpt>
      <trkpt lat="44.50368" lon="1.40451">
        <ele>281</ele>
        <time>2025-05-29T11:03:48Z</time>
      </trkpt>
      <trkpt lat="44.50368" lon="1.40453">
        <ele>281.2</ele>
        <time>2025-05-29T11:03:49Z</time>
      </trkpt>
      <trkpt lat="44.50369" lon="1.40456">
        <ele>281.2</ele>
        <time>2025-05-29T11:03:50Z</time>
      </trkpt>
      <trkpt lat="44.5037" lon="1.40459">
        <ele>281.4</ele>
        <time>2025-05-29T11:03:51Z</time>
      </trkpt>
      <trkpt lat="44.50371" lon="1.40461">
        <ele>281.6</ele>
        <time>2025-05-29T11:03:52Z</time>
      </trkpt>
      <trkpt lat="44.50372" lon="1.40462">
        <ele>281.8</ele>
        <time>2025-05-29T11:03:53Z</time>
      </trkpt>
      <trkpt lat="44.50374" lon="1.40463">
        <ele>282</ele>
        <time>2025-05-29T11:03:54Z</time>
      </trkpt>
      <trkpt lat="44.50375" lon="1.40464">
        <ele>282.2</ele>
        <time>2025-05-29T11:03:55Z</time>
      </trkpt>
      <trkpt lat="44.50377" lon="1.40464">
        <ele>282.4</ele>
        <time>2025-05-29T11:03:56Z</time>
      </trkpt>
      <trkpt lat="44.5038" lon="1.40465">
        <ele>282.4</ele>
        <time>2025-05-29T11:03:57Z</time>
      </trkpt>
      <trkpt lat="44.50383" lon="1.40466">
        <ele>282.4</ele>
        <time>2025-05-29T11:03:58Z</time>
      </trkpt>
      <trkpt lat="44.50385" lon="1.40468">
        <ele>282.4</ele>
        <time>2025-05-29T11:03:59Z</time>
      </trkpt>
      <trkpt lat="44.50388" lon="1.40468">
        <ele>282.2</ele>
        <time>2025-05-29T11:04:00Z</time>
      </trkpt>
      <trkpt lat="44.5039" lon="1.40469">
        <ele>282.2</ele>
        <time>2025-05-29T11:04:01Z</time>
      </trkpt>
      <trkpt lat="44.50392" lon="1.40471">
        <ele>282.4</ele>
        <time>2025-05-29T11:04:02Z</time>
      </trkpt>
      <trkpt lat="44.50394" lon="1.40473">
        <ele>282.6</ele>
        <time>2025-05-29T11:04:03Z</time>
      </trkpt>
      <trkpt lat="44.50396" lon="1.40475">
        <ele>282.8</ele>
        <time>2025-05-29T11:04:04Z</time>
      </trkpt>
      <trkpt lat="44.50397" lon="1.40475">
        <ele>283</ele>
        <time>2025-05-29T11:04:05Z</time>
      </trkpt>
      <trkpt lat="44.50399" lon="1.40475">
        <ele>283.2</ele>
        <time>2025-05-29T11:04:06Z</time>
      </trkpt>
      <trkpt lat="44.50401" lon="1.40475">
        <ele>283.4</ele>
        <time>2025-05-29T11:04:07Z</time>
      </trkpt>
      <trkpt lat="44.50403" lon="1.40476">
        <ele>283.6</ele>
        <time>2025-05-29T11:04:08Z</time>
      </trkpt>
      <trkpt lat="44.50405" lon="1.40477">
        <ele>283.8</ele>
        <time>2025-05-29T11:04:09Z</time>
      </trkpt>
      <trkpt lat="44.50407" lon="1.40478">
        <ele>283.8</ele>
        <time>2025-05-29T11:04:10Z</time>
      </trkpt>
      <trkpt lat="44.50409" lon="1.40479">
        <ele>284</ele>
        <time>2025-05-29T11:04:11Z</time>
      </trkpt>
      <trkpt lat="44.50411" lon="1.4048">
        <ele>284</ele>
        <time>2025-05-29T11:04:12Z</time>
      </trkpt>
      <trkpt lat="44.50412" lon="1.4048">
        <ele>284.2</ele>
        <time>2025-05-29T11:04:13Z</time>
      </trkpt>
      <trkpt lat="44.50415" lon="1.40478">
        <ele>284.4</ele>
        <time>2025-05-29T11:04:14Z</time>
      </trkpt>
      <trkpt lat="44.50418" lon="1.40479">
        <ele>284.4</ele>
        <time>2025-05-29T11:04:15Z</time>
      </trkpt>
      <trkpt lat="44.50421" lon="1.40478">
        <ele>284.4</ele>
        <time>2025-05-29T11:04:16Z</time>
      </trkpt>
      <trkpt lat="44.50423" lon="1.40477">
        <ele>284.4</ele>
        <time>2025-05-29T11:04:17Z</time>
      </trkpt>
      <trkpt lat="44.50427" lon="1.40476">
        <ele>284.2</ele>
        <time>2025-05-29T11:04:18Z</time>
      </trkpt>
      <trkpt lat="44.50431" lon="1.40474">
        <ele>284</ele>
        <time>2025-05-29T11:04:19Z</time>
      </trkpt>
      <trkpt lat="44.50436" lon="1.40472">
        <ele>283.8</ele>
        <time>2025-05-29T11:04:20Z</time>
      </trkpt>
      <trkpt lat="44.50442" lon="1.40472">
        <ele>283.4</ele>
        <time>2025-05-29T11:04:21Z</time>
      </trkpt>
      <trkpt lat="44.50446" lon="1.40473">
        <ele>283.2</ele>
        <time>2025-05-29T11:04:22Z</time>
      </trkpt>
      <trkpt lat="44.5045" lon="1.40473">
        <ele>283</ele>
        <time>2025-05-29T11:04:23Z</time>
      </trkpt>
      <trkpt lat="44.50453" lon="1.40471">
        <ele>283</ele>
        <time>2025-05-29T11:04:24Z</time>
      </trkpt>
      <trkpt lat="44.50455" lon="1.4047">
        <ele>283</ele>
        <time>2025-05-29T11:04:25Z</time>
      </trkpt>
      <trkpt lat="44.50458" lon="1.40469">
        <ele>283.4</ele>
        <time>2025-05-29T11:04:26Z</time>
      </trkpt>
      <trkpt lat="44.50461" lon="1.40468">
        <ele>283.6</ele>
        <time>2025-05-29T11:04:27Z</time>
      </trkpt>
      <trkpt lat="44.50464" lon="1.40467">
        <ele>283.6</ele>
        <time>2025-05-29T11:04:28Z</time>
      </trkpt>
      <trkpt lat="44.50466" lon="1.40466">
        <ele>283.8</ele>
        <time>2025-05-29T11:04:29Z</time>
      </trkpt>
      <trkpt lat="44.50469" lon="1.40464">
        <ele>283.8</ele>
        <time>2025-05-29T11:04:30Z</time>
      </trkpt>
      <trkpt lat="44.50472" lon="1.40463">
        <ele>283.8</ele>
        <time>2025-05-29T11:04:31Z</time>
      </trkpt>
      <trkpt lat="44.50475" lon="1.40462">
        <ele>283.8</ele>
        <time>2025-05-29T11:04:32Z</time>
      </trkpt>
      <trkpt lat="44.50477" lon="1.4046">
        <ele>283.8</ele>
        <time>2025-05-29T11:04:33Z</time>
      </trkpt>
      <trkpt lat="44.5048" lon="1.4046">
        <ele>283.8</ele>
        <time>2025-05-29T11:04:34Z</time>
      </trkpt>
      <trkpt lat="44.50482" lon="1.4046">
        <ele>283.8</ele>
        <time>2025-05-29T11:04:35Z</time>
      </trkpt>
      <trkpt lat="44.50483" lon="1.40459">
        <ele>284</ele>
        <time>2025-05-29T11:04:36Z</time>
      </trkpt>
      <trkpt lat="44.50486" lon="1.40458">
        <ele>284.2</ele>
        <time>2025-05-29T11:04:37Z</time>
      </trkpt>
      <trkpt lat="44.50488" lon="1.40457">
        <ele>284.4</ele>
        <time>2025-05-29T11:04:38Z</time>
      </trkpt>
      <trkpt lat="44.5049" lon="1.40456">
        <ele>284.4</ele>
        <time>2025-05-29T11:04:39Z</time>
      </trkpt>
      <trkpt lat="44.50492" lon="1.40454">
        <ele>284.6</ele>
        <time>2025-05-29T11:04:40Z</time>
      </trkpt>
      <trkpt lat="44.50494" lon="1.40452">
        <ele>284.6</ele>
        <time>2025-05-29T11:04:41Z</time>
      </trkpt>
      <trkpt lat="44.50497" lon="1.4045">
        <ele>284.6</ele>
        <time>2025-05-29T11:04:42Z</time>
      </trkpt>
      <trkpt lat="44.50499" lon="1.40448">
        <ele>284.6</ele>
        <time>2025-05-29T11:04:43Z</time>
      </trkpt>
      <trkpt lat="44.50502" lon="1.40446">
        <ele>284.6</ele>
        <time>2025-05-29T11:04:44Z</time>
      </trkpt>
      <trkpt lat="44.50504" lon="1.40444">
        <ele>284.6</ele>
        <time>2025-05-29T11:04:45Z</time>
      </trkpt>
      <trkpt lat="44.50507" lon="1.40442">
        <ele>284.6</ele>
        <time>2025-05-29T11:04:46Z</time>
      </trkpt>
      <trkpt lat="44.50508" lon="1.4044">
        <ele>284.8</ele>
        <time>2025-05-29T11:04:47Z</time>
      </trkpt>
      <trkpt lat="44.5051" lon="1.40437">
        <ele>284.8</ele>
        <time>2025-05-29T11:04:48Z</time>
      </trkpt>
      <trkpt lat="44.50513" lon="1.40434">
        <ele>284.6</ele>
        <time>2025-05-29T11:04:49Z</time>
      </trkpt>
      <trkpt lat="44.50516" lon="1.40433">
        <ele>284.6</ele>
        <time>2025-05-29T11:04:50Z</time>
      </trkpt>
      <trkpt lat="44.50518" lon="1.40432">
        <ele>284.6</ele>
        <time>2025-05-29T11:04:51Z</time>
      </trkpt>
      <trkpt lat="44.5052" lon="1.4043">
        <ele>284.6</ele>
        <time>2025-05-29T11:04:52Z</time>
      </trkpt>
      <trkpt lat="44.50522" lon="1.40428">
        <ele>284.6</ele>
        <time>2025-05-29T11:04:53Z</time>
      </trkpt>
      <trkpt lat="44.50524" lon="1.40426">
        <ele>284.6</ele>
        <time>2025-05-29T11:04:54Z</time>
      </trkpt>
      <trkpt lat="44.50527" lon="1.40423">
        <ele>284.8</ele>
        <time>2025-05-29T11:04:55Z</time>
      </trkpt>
      <trkpt lat="44.50529" lon="1.40421">
        <ele>284.8</ele>
        <time>2025-05-29T11:04:56Z</time>
      </trkpt>
      <trkpt lat="44.50531" lon="1.40419">
        <ele>285</ele>
        <time>2025-05-29T11:04:57Z</time>
      </trkpt>
      <trkpt lat="44.50533" lon="1.40416">
        <ele>285</ele>
        <time>2025-05-29T11:04:58Z</time>
      </trkpt>
      <trkpt lat="44.50535" lon="1.40415">
        <ele>284.8</ele>
        <time>2025-05-29T11:04:59Z</time>
      </trkpt>
      <trkpt lat="44.50538" lon="1.40413">
        <ele>284.8</ele>
        <time>2025-05-29T11:05:00Z</time>
      </trkpt>
      <trkpt lat="44.5054" lon="1.40411">
        <ele>284.8</ele>
        <time>2025-05-29T11:05:01Z</time>
      </trkpt>
      <trkpt lat="44.50542" lon="1.4041">
        <ele>284.8</ele>
        <time>2025-05-29T11:05:02Z</time>
      </trkpt>
      <trkpt lat="44.50545" lon="1.40408">
        <ele>284.8</ele>
        <time>2025-05-29T11:05:03Z</time>
      </trkpt>
      <trkpt lat="44.50547" lon="1.40405">
        <ele>285</ele>
        <time>2025-05-29T11:05:04Z</time>
      </trkpt>
      <trkpt lat="44.5055" lon="1.40402">
        <ele>285</ele>
        <time>2025-05-29T11:05:05Z</time>
      </trkpt>
      <trkpt lat="44.50553" lon="1.40399">
        <ele>284.8</ele>
        <time>2025-05-29T11:05:06Z</time>
      </trkpt>
      <trkpt lat="44.50556" lon="1.40397">
        <ele>284.8</ele>
        <time>2025-05-29T11:05:07Z</time>
      </trkpt>
      <trkpt lat="44.50558" lon="1.40398">
        <ele>284.6</ele>
        <time>2025-05-29T11:05:08Z</time>
      </trkpt>
      <trkpt lat="44.5056" lon="1.40398">
        <ele>284.6</ele>
        <time>2025-05-29T11:05:09Z</time>
      </trkpt>
      <trkpt lat="44.50562" lon="1.40397">
        <ele>284.6</ele>
        <time>2025-05-29T11:05:10Z</time>
      </trkpt>
      <trkpt lat="44.50565" lon="1.40396">
        <ele>284.8</ele>
        <time>2025-05-29T11:05:11Z</time>
      </trkpt>
      <trkpt lat="44.50568" lon="1.40394">
        <ele>285</ele>
        <time>2025-05-29T11:05:12Z</time>
      </trkpt>
      <trkpt lat="44.5057" lon="1.40393">
        <ele>285</ele>
        <time>2025-05-29T11:05:13Z</time>
      </trkpt>
      <trkpt lat="44.50573" lon="1.40394">
        <ele>285.2</ele>
        <time>2025-05-29T11:05:14Z</time>
      </trkpt>
      <trkpt lat="44.50575" lon="1.40394">
        <ele>285.4</ele>
        <time>2025-05-29T11:05:15Z</time>
      </trkpt>
      <trkpt lat="44.50577" lon="1.40395">
        <ele>285.4</ele>
        <time>2025-05-29T11:05:16Z</time>
      </trkpt>
      <trkpt lat="44.50579" lon="1.40397">
        <ele>285.6</ele>
        <time>2025-05-29T11:05:17Z</time>
      </trkpt>
      <trkpt lat="44.50581" lon="1.40398">
        <ele>285.6</ele>
        <time>2025-05-29T11:05:18Z</time>
      </trkpt>
      <trkpt lat="44.50583" lon="1.40399">
        <ele>285.8</ele>
        <time>2025-05-29T11:05:19Z</time>
      </trkpt>
      <trkpt lat="44.50584" lon="1.40401">
        <ele>286</ele>
        <time>2025-05-29T11:05:20Z</time>
      </trkpt>
      <trkpt lat="44.50586" lon="1.40403">
        <ele>286.2</ele>
        <time>2025-05-29T11:05:21Z</time>
      </trkpt>
      <trkpt lat="44.50588" lon="1.40404">
        <ele>286.6</ele>
        <time>2025-05-29T11:05:22Z</time>
      </trkpt>
      <trkpt lat="44.50589" lon="1.40406">
        <ele>287</ele>
        <time>2025-05-29T11:05:23Z</time>
      </trkpt>
      <trkpt lat="44.50591" lon="1.40406">
        <ele>287.2</ele>
        <time>2025-05-29T11:05:24Z</time>
      </trkpt>
      <trkpt lat="44.50593" lon="1.40407">
        <ele>287.4</ele>
        <time>2025-05-29T11:05:25Z</time>
      </trkpt>
      <trkpt lat="44.50595" lon="1.40408">
        <ele>287.6</ele>
        <time>2025-05-29T11:05:26Z</time>
      </trkpt>
      <trkpt lat="44.50597" lon="1.40409">
        <ele>287.8</ele>
        <time>2025-05-29T11:05:27Z</time>
      </trkpt>
      <trkpt lat="44.506" lon="1.40409">
        <ele>287.8</ele>
        <time>2025-05-29T11:05:28Z</time>
      </trkpt>
      <trkpt lat="44.50602" lon="1.40408">
        <ele>288</ele>
        <time>2025-05-29T11:05:29Z</time>
      </trkpt>
      <trkpt lat="44.50605" lon="1.40407">
        <ele>288</ele>
        <time>2025-05-29T11:05:30Z</time>
      </trkpt>
      <trkpt lat="44.50609" lon="1.40406">
        <ele>288</ele>
        <time>2025-05-29T11:05:31Z</time>
      </trkpt>
      <trkpt lat="44.50613" lon="1.40405">
        <ele>288</ele>
        <time>2025-05-29T11:05:32Z</time>
      </trkpt>
      <trkpt lat="44.50617" lon="1.40405">
        <ele>287.8</ele>
        <time>2025-05-29T11:05:33Z</time>
      </trkpt>
      <trkpt lat="44.50621" lon="1.40403">
        <ele>287.4</ele>
        <time>2025-05-29T11:05:34Z</time>
      </trkpt>
      <trkpt lat="44.50625" lon="1.40405">
        <ele>287</ele>
        <time>2025-05-29T11:05:35Z</time>
      </trkpt>
      <trkpt lat="44.50627" lon="1.40407">
        <ele>286.6</ele>
        <time>2025-05-29T11:05:36Z</time>
      </trkpt>
      <trkpt lat="44.50629" lon="1.40409">
        <ele>286.2</ele>
        <time>2025-05-29T11:05:37Z</time>
      </trkpt>
      <trkpt lat="44.50631" lon="1.40412">
        <ele>286</ele>
        <time>2025-05-29T11:05:38Z</time>
      </trkpt>
      <trkpt lat="44.50632" lon="1.40414">
        <ele>286</ele>
        <time>2025-05-29T11:05:39Z</time>
      </trkpt>
      <trkpt lat="44.50633" lon="1.40416">
        <ele>286</ele>
        <time>2025-05-29T11:05:40Z</time>
      </trkpt>
      <trkpt lat="44.50634" lon="1.40418">
        <ele>286.2</ele>
        <time>2025-05-29T11:05:41Z</time>
      </trkpt>
      <trkpt lat="44.50634" lon="1.40419">
        <ele>286.2</ele>
        <time>2025-05-29T11:05:42Z</time>
      </trkpt>
      <trkpt lat="44.50636" lon="1.40421">
        <ele>286.4</ele>
        <time>2025-05-29T11:05:43Z</time>
      </trkpt>
      <trkpt lat="44.50637" lon="1.40422">
        <ele>286.6</ele>
        <time>2025-05-29T11:05:44Z</time>
      </trkpt>
      <trkpt lat="44.50638" lon="1.40424">
        <ele>286.8</ele>
        <time>2025-05-29T11:05:45Z</time>
      </trkpt>
      <trkpt lat="44.5064" lon="1.40426">
        <ele>286.8</ele>
        <time>2025-05-29T11:05:46Z</time>
      </trkpt>
      <trkpt lat="44.50641" lon="1.40427">
        <ele>287</ele>
        <time>2025-05-29T11:05:47Z</time>
      </trkpt>
      <trkpt lat="44.50643" lon="1.4043">
        <ele>287</ele>
        <time>2025-05-29T11:05:48Z</time>
      </trkpt>
      <trkpt lat="44.50644" lon="1.40432">
        <ele>287</ele>
        <time>2025-05-29T11:05:49Z</time>
      </trkpt>
      <trkpt lat="44.50646" lon="1.40434">
        <ele>287</ele>
        <time>2025-05-29T11:05:50Z</time>
      </trkpt>
      <trkpt lat="44.50648" lon="1.40435">
        <ele>287.2</ele>
        <time>2025-05-29T11:05:51Z</time>
      </trkpt>
      <trkpt lat="44.5065" lon="1.40437">
        <ele>287.2</ele>
        <time>2025-05-29T11:05:52Z</time>
      </trkpt>
      <trkpt lat="44.50654" lon="1.40437">
        <ele>287.2</ele>
        <time>2025-05-29T11:05:53Z</time>
      </trkpt>
      <trkpt lat="44.50657" lon="1.40438">
        <ele>287</ele>
        <time>2025-05-29T11:05:54Z</time>
      </trkpt>
      <trkpt lat="44.50658" lon="1.4044">
        <ele>287</ele>
        <time>2025-05-29T11:05:55Z</time>
      </trkpt>
      <trkpt lat="44.5066" lon="1.40441">
        <ele>286.8</ele>
        <time>2025-05-29T11:05:56Z</time>
      </trkpt>
      <trkpt lat="44.50662" lon="1.40443">
        <ele>286.6</ele>
        <time>2025-05-29T11:05:57Z</time>
      </trkpt>
      <trkpt lat="44.50663" lon="1.40445">
        <ele>286.6</ele>
        <time>2025-05-29T11:05:58Z</time>
      </trkpt>
      <trkpt lat="44.50664" lon="1.40447">
        <ele>286.6</ele>
        <time>2025-05-29T11:05:59Z</time>
      </trkpt>
      <trkpt lat="44.50666" lon="1.40448">
        <ele>286.6</ele>
        <time>2025-05-29T11:06:00Z</time>
      </trkpt>
      <trkpt lat="44.50666" lon="1.4045">
        <ele>286.6</ele>
        <time>2025-05-29T11:06:01Z</time>
      </trkpt>
      <trkpt lat="44.50667" lon="1.40451">
        <ele>286.8</ele>
        <time>2025-05-29T11:06:02Z</time>
      </trkpt>
      <trkpt lat="44.50667" lon="1.40453">
        <ele>286.8</ele>
        <time>2025-05-29T11:06:03Z</time>
      </trkpt>
      <trkpt lat="44.50667" lon="1.40455">
        <ele>287.2</ele>
        <time>2025-05-29T11:06:04Z</time>
      </trkpt>
      <trkpt lat="44.50668" lon="1.40457">
        <ele>287.2</ele>
        <time>2025-05-29T11:06:05Z</time>
      </trkpt>
      <trkpt lat="44.50669" lon="1.40458">
        <ele>287.4</ele>
        <time>2025-05-29T11:06:06Z</time>
      </trkpt>
      <trkpt lat="44.5067" lon="1.4046">
        <ele>287.6</ele>
        <time>2025-05-29T11:06:07Z</time>
      </trkpt>
      <trkpt lat="44.50671" lon="1.40461">
        <ele>287.8</ele>
        <time>2025-05-29T11:06:08Z</time>
      </trkpt>
      <trkpt lat="44.50673" lon="1.40463">
        <ele>288</ele>
        <time>2025-05-29T11:06:09Z</time>
      </trkpt>
      <trkpt lat="44.50674" lon="1.40464">
        <ele>288</ele>
        <time>2025-05-29T11:06:10Z</time>
      </trkpt>
      <trkpt lat="44.50675" lon="1.40465">
        <ele>288.2</ele>
        <time>2025-05-29T11:06:11Z</time>
      </trkpt>
      <trkpt lat="44.50677" lon="1.40467">
        <ele>288.2</ele>
        <time>2025-05-29T11:06:12Z</time>
      </trkpt>
      <trkpt lat="44.5068" lon="1.40468">
        <ele>288.2</ele>
        <time>2025-05-29T11:06:13Z</time>
      </trkpt>
      <trkpt lat="44.50682" lon="1.4047">
        <ele>288</ele>
        <time>2025-05-29T11:06:14Z</time>
      </trkpt>
      <trkpt lat="44.50685" lon="1.40471">
        <ele>288</ele>
        <time>2025-05-29T11:06:15Z</time>
      </trkpt>
      <trkpt lat="44.50688" lon="1.40472">
        <ele>288</ele>
        <time>2025-05-29T11:06:16Z</time>
      </trkpt>
      <trkpt lat="44.50691" lon="1.40473">
        <ele>287.8</ele>
        <time>2025-05-29T11:06:17Z</time>
      </trkpt>
      <trkpt lat="44.50694" lon="1.40473">
        <ele>287.6</ele>
        <time>2025-05-29T11:06:18Z</time>
      </trkpt>
      <trkpt lat="44.50698" lon="1.40475">
        <ele>287.4</ele>
        <time>2025-05-29T11:06:19Z</time>
      </trkpt>
      <trkpt lat="44.50701" lon="1.40477">
        <ele>287.2</ele>
        <time>2025-05-29T11:06:20Z</time>
      </trkpt>
      <trkpt lat="44.50704" lon="1.4048">
        <ele>287</ele>
        <time>2025-05-29T11:06:21Z</time>
      </trkpt>
      <trkpt lat="44.50705" lon="1.40484">
        <ele>286.8</ele>
        <time>2025-05-29T11:06:22Z</time>
      </trkpt>
      <trkpt lat="44.50707" lon="1.40487">
        <ele>286.6</ele>
        <time>2025-05-29T11:06:23Z</time>
      </trkpt>
      <trkpt lat="44.5071" lon="1.4049">
        <ele>286.6</ele>
        <time>2025-05-29T11:06:24Z</time>
      </trkpt>
      <trkpt lat="44.50713" lon="1.40493">
        <ele>286.4</ele>
        <time>2025-05-29T11:06:25Z</time>
      </trkpt>
      <trkpt lat="44.50715" lon="1.40497">
        <ele>286.2</ele>
        <time>2025-05-29T11:06:26Z</time>
      </trkpt>
      <trkpt lat="44.50717" lon="1.40503">
        <ele>286.2</ele>
        <time>2025-05-29T11:06:27Z</time>
      </trkpt>
      <trkpt lat="44.5072" lon="1.40507">
        <ele>286</ele>
        <time>2025-05-29T11:06:28Z</time>
      </trkpt>
      <trkpt lat="44.50724" lon="1.4051">
        <ele>285.6</ele>
        <time>2025-05-29T11:06:29Z</time>
      </trkpt>
      <trkpt lat="44.50727" lon="1.40514">
        <ele>285.2</ele>
        <time>2025-05-29T11:06:30Z</time>
      </trkpt>
      <trkpt lat="44.50729" lon="1.40519">
        <ele>284.8</ele>
        <time>2025-05-29T11:06:31Z</time>
      </trkpt>
      <trkpt lat="44.50731" lon="1.40524">
        <ele>284.6</ele>
        <time>2025-05-29T11:06:32Z</time>
      </trkpt>
      <trkpt lat="44.50732" lon="1.40526">
        <ele>284.4</ele>
        <time>2025-05-29T11:06:33Z</time>
      </trkpt>
      <trkpt lat="44.50734" lon="1.40529">
        <ele>284.2</ele>
        <time>2025-05-29T11:06:34Z</time>
      </trkpt>
      <trkpt lat="44.50736" lon="1.40533">
        <ele>284.4</ele>
        <time>2025-05-29T11:06:35Z</time>
      </trkpt>
      <trkpt lat="44.50738" lon="1.40535">
        <ele>284.4</ele>
        <time>2025-05-29T11:06:36Z</time>
      </trkpt>
      <trkpt lat="44.5074" lon="1.40536">
        <ele>284.4</ele>
        <time>2025-05-29T11:06:37Z</time>
      </trkpt>
      <trkpt lat="44.50743" lon="1.40538">
        <ele>284.4</ele>
        <time>2025-05-29T11:06:38Z</time>
      </trkpt>
      <trkpt lat="44.50745" lon="1.40538">
        <ele>284.4</ele>
        <time>2025-05-29T11:06:39Z</time>
      </trkpt>
      <trkpt lat="44.50748" lon="1.40541">
        <ele>284.2</ele>
        <time>2025-05-29T11:06:40Z</time>
      </trkpt>
      <trkpt lat="44.5075" lon="1.40542">
        <ele>284</ele>
        <time>2025-05-29T11:06:41Z</time>
      </trkpt>
      <trkpt lat="44.50753" lon="1.40543">
        <ele>283.6</ele>
        <time>2025-05-29T11:06:42Z</time>
      </trkpt>
      <trkpt lat="44.50756" lon="1.40544">
        <ele>283.6</ele>
        <time>2025-05-29T11:06:43Z</time>
      </trkpt>
      <trkpt lat="44.50759" lon="1.40545">
        <ele>283.4</ele>
        <time>2025-05-29T11:06:44Z</time>
      </trkpt>
      <trkpt lat="44.50761" lon="1.40546">
        <ele>283.2</ele>
        <time>2025-05-29T11:06:45Z</time>
      </trkpt>
      <trkpt lat="44.50763" lon="1.40548">
        <ele>283</ele>
        <time>2025-05-29T11:06:46Z</time>
      </trkpt>
      <trkpt lat="44.50766" lon="1.40549">
        <ele>283</ele>
        <time>2025-05-29T11:06:47Z</time>
      </trkpt>
      <trkpt lat="44.50768" lon="1.4055">
        <ele>282.8</ele>
        <time>2025-05-29T11:06:48Z</time>
      </trkpt>
      <trkpt lat="44.50771" lon="1.40551">
        <ele>282.8</ele>
        <time>2025-05-29T11:06:49Z</time>
      </trkpt>
      <trkpt lat="44.50774" lon="1.40551">
        <ele>282.6</ele>
        <time>2025-05-29T11:06:50Z</time>
      </trkpt>
      <trkpt lat="44.50779" lon="1.4055">
        <ele>282.4</ele>
        <time>2025-05-29T11:06:51Z</time>
      </trkpt>
      <trkpt lat="44.50783" lon="1.40549">
        <ele>282.2</ele>
        <time>2025-05-29T11:06:52Z</time>
      </trkpt>
      <trkpt lat="44.50787" lon="1.40548">
        <ele>281.8</ele>
        <time>2025-05-29T11:06:53Z</time>
      </trkpt>
      <trkpt lat="44.50792" lon="1.40548">
        <ele>281.2</ele>
        <time>2025-05-29T11:06:54Z</time>
      </trkpt>
      <trkpt lat="44.50796" lon="1.40549">
        <ele>280.8</ele>
        <time>2025-05-29T11:06:55Z</time>
      </trkpt>
      <trkpt lat="44.508" lon="1.40549">
        <ele>280.4</ele>
        <time>2025-05-29T11:06:56Z</time>
      </trkpt>
      <trkpt lat="44.50804" lon="1.40547">
        <ele>280</ele>
        <time>2025-05-29T11:06:57Z</time>
      </trkpt>
      <trkpt lat="44.50808" lon="1.40547">
        <ele>279.6</ele>
        <time>2025-05-29T11:06:58Z</time>
      </trkpt>
      <trkpt lat="44.50811" lon="1.40546">
        <ele>279.4</ele>
        <time>2025-05-29T11:06:59Z</time>
      </trkpt>
      <trkpt lat="44.50815" lon="1.40544">
        <ele>279</ele>
        <time>2025-05-29T11:07:00Z</time>
      </trkpt>
      <trkpt lat="44.50818" lon="1.40544">
        <ele>278.6</ele>
        <time>2025-05-29T11:07:01Z</time>
      </trkpt>
      <trkpt lat="44.50821" lon="1.40544">
        <ele>278.4</ele>
        <time>2025-05-29T11:07:02Z</time>
      </trkpt>
      <trkpt lat="44.50824" lon="1.40544">
        <ele>278</ele>
        <time>2025-05-29T11:07:03Z</time>
      </trkpt>
      <trkpt lat="44.50827" lon="1.40542">
        <ele>277.8</ele>
        <time>2025-05-29T11:07:04Z</time>
      </trkpt>
      <trkpt lat="44.5083" lon="1.40541">
        <ele>277.6</ele>
        <time>2025-05-29T11:07:05Z</time>
      </trkpt>
      <trkpt lat="44.50833" lon="1.40541">
        <ele>277.2</ele>
        <time>2025-05-29T11:07:06Z</time>
      </trkpt>
      <trkpt lat="44.50836" lon="1.40543">
        <ele>277</ele>
        <time>2025-05-29T11:07:07Z</time>
      </trkpt>
      <trkpt lat="44.50837" lon="1.40544">
        <ele>276.8</ele>
        <time>2025-05-29T11:07:08Z</time>
      </trkpt>
      <trkpt lat="44.50839" lon="1.40546">
        <ele>276.6</ele>
        <time>2025-05-29T11:07:09Z</time>
      </trkpt>
      <trkpt lat="44.5084" lon="1.40546">
        <ele>276.6</ele>
        <time>2025-05-29T11:07:10Z</time>
      </trkpt>
      <trkpt lat="44.50843" lon="1.40546">
        <ele>276.4</ele>
        <time>2025-05-29T11:07:11Z</time>
      </trkpt>
      <trkpt lat="44.50845" lon="1.40545">
        <ele>276.4</ele>
        <time>2025-05-29T11:07:12Z</time>
      </trkpt>
      <trkpt lat="44.50847" lon="1.40545">
        <ele>276.4</ele>
        <time>2025-05-29T11:07:13Z</time>
      </trkpt>
      <trkpt lat="44.5085" lon="1.40546">
        <ele>276.4</ele>
        <time>2025-05-29T11:07:14Z</time>
      </trkpt>
      <trkpt lat="44.50852" lon="1.40547">
        <ele>276.4</ele>
        <time>2025-05-29T11:07:15Z</time>
      </trkpt>
      <trkpt lat="44.50854" lon="1.40548">
        <ele>276.4</ele>
        <time>2025-05-29T11:07:16Z</time>
      </trkpt>
      <trkpt lat="44.50856" lon="1.4055">
        <ele>276.4</ele>
        <time>2025-05-29T11:07:17Z</time>
      </trkpt>
      <trkpt lat="44.50856" lon="1.40552">
        <ele>276.4</ele>
        <time>2025-05-29T11:07:18Z</time>
      </trkpt>
      <trkpt lat="44.50857" lon="1.40554">
        <ele>276.6</ele>
        <time>2025-05-29T11:07:19Z</time>
      </trkpt>
      <trkpt lat="44.50858" lon="1.40556">
        <ele>276.8</ele>
        <time>2025-05-29T11:07:20Z</time>
      </trkpt>
      <trkpt lat="44.50859" lon="1.40558">
        <ele>277</ele>
        <time>2025-05-29T11:07:21Z</time>
      </trkpt>
      <trkpt lat="44.5086" lon="1.4056">
        <ele>277.4</ele>
        <time>2025-05-29T11:07:22Z</time>
      </trkpt>
      <trkpt lat="44.50861" lon="1.40561">
        <ele>277.8</ele>
        <time>2025-05-29T11:07:23Z</time>
      </trkpt>
      <trkpt lat="44.50863" lon="1.40562">
        <ele>278</ele>
        <time>2025-05-29T11:07:24Z</time>
      </trkpt>
      <trkpt lat="44.50865" lon="1.40563">
        <ele>278.2</ele>
        <time>2025-05-29T11:07:25Z</time>
      </trkpt>
      <trkpt lat="44.50867" lon="1.40563">
        <ele>278.4</ele>
        <time>2025-05-29T11:07:26Z</time>
      </trkpt>
      <trkpt lat="44.50869" lon="1.40563">
        <ele>278.6</ele>
        <time>2025-05-29T11:07:27Z</time>
      </trkpt>
      <trkpt lat="44.50871" lon="1.40563">
        <ele>278.6</ele>
        <time>2025-05-29T11:07:28Z</time>
      </trkpt>
      <trkpt lat="44.50874" lon="1.40564">
        <ele>278.6</ele>
        <time>2025-05-29T11:07:29Z</time>
      </trkpt>
      <trkpt lat="44.50877" lon="1.40565">
        <ele>278.6</ele>
        <time>2025-05-29T11:07:30Z</time>
      </trkpt>
      <trkpt lat="44.5088" lon="1.40565">
        <ele>278.6</ele>
        <time>2025-05-29T11:07:31Z</time>
      </trkpt>
      <trkpt lat="44.50883" lon="1.40565">
        <ele>278.4</ele>
        <time>2025-05-29T11:07:32Z</time>
      </trkpt>
      <trkpt lat="44.50886" lon="1.40566">
        <ele>278.4</ele>
        <time>2025-05-29T11:07:33Z</time>
      </trkpt>
      <trkpt lat="44.50889" lon="1.40568">
        <ele>278.2</ele>
        <time>2025-05-29T11:07:34Z</time>
      </trkpt>
      <trkpt lat="44.50892" lon="1.40569">
        <ele>278.2</ele>
        <time>2025-05-29T11:07:35Z</time>
      </trkpt>
      <trkpt lat="44.50894" lon="1.40569">
        <ele>278.2</ele>
        <time>2025-05-29T11:07:36Z</time>
      </trkpt>
      <trkpt lat="44.50897" lon="1.4057">
        <ele>278</ele>
        <time>2025-05-29T11:07:37Z</time>
      </trkpt>
      <trkpt lat="44.50899" lon="1.4057">
        <ele>278</ele>
        <time>2025-05-29T11:07:38Z</time>
      </trkpt>
      <trkpt lat="44.50901" lon="1.40571">
        <ele>278</ele>
        <time>2025-05-29T11:07:39Z</time>
      </trkpt>
      <trkpt lat="44.50903" lon="1.40572">
        <ele>277.8</ele>
        <time>2025-05-29T11:07:40Z</time>
      </trkpt>
      <trkpt lat="44.50906" lon="1.40572">
        <ele>277.8</ele>
        <time>2025-05-29T11:07:41Z</time>
      </trkpt>
      <trkpt lat="44.50908" lon="1.40573">
        <ele>277.8</ele>
        <time>2025-05-29T11:07:42Z</time>
      </trkpt>
      <trkpt lat="44.5091" lon="1.40573">
        <ele>277.8</ele>
        <time>2025-05-29T11:07:43Z</time>
      </trkpt>
      <trkpt lat="44.50912" lon="1.40574">
        <ele>277.6</ele>
        <time>2025-05-29T11:07:44Z</time>
      </trkpt>
      <trkpt lat="44.50915" lon="1.40574">
        <ele>277.6</ele>
        <time>2025-05-29T11:07:45Z</time>
      </trkpt>
      <trkpt lat="44.50917" lon="1.40575">
        <ele>277.6</ele>
        <time>2025-05-29T11:07:46Z</time>
      </trkpt>
      <trkpt lat="44.50919" lon="1.40574">
        <ele>277.4</ele>
        <time>2025-05-29T11:07:47Z</time>
      </trkpt>
      <trkpt lat="44.50921" lon="1.40574">
        <ele>277.2</ele>
        <time>2025-05-29T11:07:48Z</time>
      </trkpt>
      <trkpt lat="44.50924" lon="1.40575">
        <ele>277.2</ele>
        <time>2025-05-29T11:07:49Z</time>
      </trkpt>
      <trkpt lat="44.50927" lon="1.40576">
        <ele>277</ele>
        <time>2025-05-29T11:07:50Z</time>
      </trkpt>
      <trkpt lat="44.5093" lon="1.40576">
        <ele>276.8</ele>
        <time>2025-05-29T11:07:51Z</time>
      </trkpt>
      <trkpt lat="44.50933" lon="1.40575">
        <ele>276.6</ele>
        <time>2025-05-29T11:07:52Z</time>
      </trkpt>
      <trkpt lat="44.50937" lon="1.40573">
        <ele>276.4</ele>
        <time>2025-05-29T11:07:53Z</time>
      </trkpt>
      <trkpt lat="44.5094" lon="1.40571">
        <ele>276.4</ele>
        <time>2025-05-29T11:07:54Z</time>
      </trkpt>
      <trkpt lat="44.50943" lon="1.4057">
        <ele>276.2</ele>
        <time>2025-05-29T11:07:55Z</time>
      </trkpt>
      <trkpt lat="44.50947" lon="1.40569">
        <ele>276</ele>
        <time>2025-05-29T11:07:56Z</time>
      </trkpt>
      <trkpt lat="44.50951" lon="1.40569">
        <ele>276</ele>
        <time>2025-05-29T11:07:57Z</time>
      </trkpt>
      <trkpt lat="44.50954" lon="1.40568">
        <ele>275.8</ele>
        <time>2025-05-29T11:07:58Z</time>
      </trkpt>
      <trkpt lat="44.50958" lon="1.40567">
        <ele>275.8</ele>
        <time>2025-05-29T11:07:59Z</time>
      </trkpt>
      <trkpt lat="44.50962" lon="1.40565">
        <ele>275.6</ele>
        <time>2025-05-29T11:08:00Z</time>
      </trkpt>
      <trkpt lat="44.50966" lon="1.40564">
        <ele>275.6</ele>
        <time>2025-05-29T11:08:01Z</time>
      </trkpt>
      <trkpt lat="44.50969" lon="1.40563">
        <ele>275.4</ele>
        <time>2025-05-29T11:08:02Z</time>
      </trkpt>
      <trkpt lat="44.50973" lon="1.40562">
        <ele>275.4</ele>
        <time>2025-05-29T11:08:03Z</time>
      </trkpt>
      <trkpt lat="44.50977" lon="1.4056">
        <ele>275.2</ele>
        <time>2025-05-29T11:08:04Z</time>
      </trkpt>
      <trkpt lat="44.50981" lon="1.40559">
        <ele>275.2</ele>
        <time>2025-05-29T11:08:05Z</time>
      </trkpt>
      <trkpt lat="44.50985" lon="1.40558">
        <ele>275.2</ele>
        <time>2025-05-29T11:08:06Z</time>
      </trkpt>
      <trkpt lat="44.50989" lon="1.40556">
        <ele>275.2</ele>
        <time>2025-05-29T11:08:07Z</time>
      </trkpt>
      <trkpt lat="44.50994" lon="1.40556">
        <ele>275.4</ele>
        <time>2025-05-29T11:08:08Z</time>
      </trkpt>
      <trkpt lat="44.50998" lon="1.40554">
        <ele>275.4</ele>
        <time>2025-05-29T11:08:09Z</time>
      </trkpt>
      <trkpt lat="44.51003" lon="1.40553">
        <ele>275.6</ele>
        <time>2025-05-29T11:08:10Z</time>
      </trkpt>
      <trkpt lat="44.51008" lon="1.40552">
        <ele>275.6</ele>
        <time>2025-05-29T11:08:11Z</time>
      </trkpt>
      <trkpt lat="44.51012" lon="1.40551">
        <ele>275.4</ele>
        <time>2025-05-29T11:08:12Z</time>
      </trkpt>
      <trkpt lat="44.51016" lon="1.40549">
        <ele>275.4</ele>
        <time>2025-05-29T11:08:13Z</time>
      </trkpt>
      <trkpt lat="44.51021" lon="1.40548">
        <ele>275.2</ele>
        <time>2025-05-29T11:08:14Z</time>
      </trkpt>
      <trkpt lat="44.51025" lon="1.40546">
        <ele>275</ele>
        <time>2025-05-29T11:08:15Z</time>
      </trkpt>
      <trkpt lat="44.5103" lon="1.40545">
        <ele>275</ele>
        <time>2025-05-29T11:08:16Z</time>
      </trkpt>
      <trkpt lat="44.51035" lon="1.40545">
        <ele>274.8</ele>
        <time>2025-05-29T11:08:17Z</time>
      </trkpt>
      <trkpt lat="44.51039" lon="1.40544">
        <ele>274.8</ele>
        <time>2025-05-29T11:08:18Z</time>
      </trkpt>
      <trkpt lat="44.51043" lon="1.40542">
        <ele>274.8</ele>
        <time>2025-05-29T11:08:19Z</time>
      </trkpt>
      <trkpt lat="44.51047" lon="1.4054">
        <ele>274.8</ele>
        <time>2025-05-29T11:08:20Z</time>
      </trkpt>
      <trkpt lat="44.51052" lon="1.40539">
        <ele>274.8</ele>
        <time>2025-05-29T11:08:21Z</time>
      </trkpt>
      <trkpt lat="44.51056" lon="1.40538">
        <ele>274.8</ele>
        <time>2025-05-29T11:08:22Z</time>
      </trkpt>
      <trkpt lat="44.51061" lon="1.40538">
        <ele>274.6</ele>
        <time>2025-05-29T11:08:23Z</time>
      </trkpt>
      <trkpt lat="44.51066" lon="1.40537">
        <ele>274.6</ele>
        <time>2025-05-29T11:08:24Z</time>
      </trkpt>
      <trkpt lat="44.5107" lon="1.40536">
        <ele>274.4</ele>
        <time>2025-05-29T11:08:25Z</time>
      </trkpt>
      <trkpt lat="44.51073" lon="1.40535">
        <ele>274.2</ele>
        <time>2025-05-29T11:08:26Z</time>
      </trkpt>
      <trkpt lat="44.51076" lon="1.40534">
        <ele>274</ele>
        <time>2025-05-29T11:08:27Z</time>
      </trkpt>
      <trkpt lat="44.51079" lon="1.40533">
        <ele>273.8</ele>
        <time>2025-05-29T11:08:28Z</time>
      </trkpt>
      <trkpt lat="44.51083" lon="1.40531">
        <ele>273.8</ele>
        <time>2025-05-29T11:08:29Z</time>
      </trkpt>
      <trkpt lat="44.51086" lon="1.40528">
        <ele>273.6</ele>
        <time>2025-05-29T11:08:30Z</time>
      </trkpt>
      <trkpt lat="44.51088" lon="1.40524">
        <ele>273.4</ele>
        <time>2025-05-29T11:08:31Z</time>
      </trkpt>
      <trkpt lat="44.51089" lon="1.4052">
        <ele>273.2</ele>
        <time>2025-05-29T11:08:32Z</time>
      </trkpt>
      <trkpt lat="44.5109" lon="1.40517">
        <ele>273</ele>
        <time>2025-05-29T11:08:33Z</time>
      </trkpt>
      <trkpt lat="44.51091" lon="1.40514">
        <ele>273</ele>
        <time>2025-05-29T11:08:34Z</time>
      </trkpt>
      <trkpt lat="44.51092" lon="1.40511">
        <ele>273</ele>
        <time>2025-05-29T11:08:35Z</time>
      </trkpt>
      <trkpt lat="44.51093" lon="1.40509">
        <ele>273.2</ele>
        <time>2025-05-29T11:08:36Z</time>
      </trkpt>
      <trkpt lat="44.51094" lon="1.40505">
        <ele>273.2</ele>
        <time>2025-05-29T11:08:37Z</time>
      </trkpt>
      <trkpt lat="44.51095" lon="1.40502">
        <ele>273.2</ele>
        <time>2025-05-29T11:08:38Z</time>
      </trkpt>
      <trkpt lat="44.51095" lon="1.40499">
        <ele>273.4</ele>
        <time>2025-05-29T11:08:39Z</time>
      </trkpt>
      <trkpt lat="44.51095" lon="1.40495">
        <ele>273.4</ele>
        <time>2025-05-29T11:08:40Z</time>
      </trkpt>
      <trkpt lat="44.51094" lon="1.40491">
        <ele>273.6</ele>
        <time>2025-05-29T11:08:41Z</time>
      </trkpt>
      <trkpt lat="44.51095" lon="1.40487">
        <ele>273.8</ele>
        <time>2025-05-29T11:08:42Z</time>
      </trkpt>
      <trkpt lat="44.51096" lon="1.40484">
        <ele>274</ele>
        <time>2025-05-29T11:08:43Z</time>
      </trkpt>
      <trkpt lat="44.51097" lon="1.40481">
        <ele>274</ele>
        <time>2025-05-29T11:08:44Z</time>
      </trkpt>
      <trkpt lat="44.51099" lon="1.40478">
        <ele>274.2</ele>
        <time>2025-05-29T11:08:45Z</time>
      </trkpt>
      <trkpt lat="44.511" lon="1.40475">
        <ele>274.4</ele>
        <time>2025-05-29T11:08:46Z</time>
      </trkpt>
      <trkpt lat="44.51103" lon="1.40473">
        <ele>274.4</ele>
        <time>2025-05-29T11:08:47Z</time>
      </trkpt>
      <trkpt lat="44.51106" lon="1.40474">
        <ele>274.6</ele>
        <time>2025-05-29T11:08:48Z</time>
      </trkpt>
      <trkpt lat="44.51109" lon="1.40474">
        <ele>274.4</ele>
        <time>2025-05-29T11:08:49Z</time>
      </trkpt>
      <trkpt lat="44.51111" lon="1.40471">
        <ele>274.4</ele>
        <time>2025-05-29T11:08:50Z</time>
      </trkpt>
      <trkpt lat="44.51114" lon="1.40468">
        <ele>274</ele>
        <time>2025-05-29T11:08:51Z</time>
      </trkpt>
      <trkpt lat="44.51117" lon="1.40467">
        <ele>273.8</ele>
        <time>2025-05-29T11:08:52Z</time>
      </trkpt>
      <trkpt lat="44.51121" lon="1.40468">
        <ele>273.6</ele>
        <time>2025-05-29T11:08:53Z</time>
      </trkpt>
      <trkpt lat="44.51125" lon="1.40466">
        <ele>273.2</ele>
        <time>2025-05-29T11:08:54Z</time>
      </trkpt>
      <trkpt lat="44.51129" lon="1.40463">
        <ele>272.8</ele>
        <time>2025-05-29T11:08:55Z</time>
      </trkpt>
      <trkpt lat="44.51133" lon="1.40461">
        <ele>272.2</ele>
        <time>2025-05-29T11:08:56Z</time>
      </trkpt>
      <trkpt lat="44.51138" lon="1.40457">
        <ele>272</ele>
        <time>2025-05-29T11:08:57Z</time>
      </trkpt>
      <trkpt lat="44.51142" lon="1.40457">
        <ele>271.6</ele>
        <time>2025-05-29T11:08:58Z</time>
      </trkpt>
      <trkpt lat="44.51145" lon="1.40459">
        <ele>271.4</ele>
        <time>2025-05-29T11:08:59Z</time>
      </trkpt>
      <trkpt lat="44.51149" lon="1.40459">
        <ele>271.2</ele>
        <time>2025-05-29T11:09:00Z</time>
      </trkpt>
      <trkpt lat="44.51153" lon="1.40457">
        <ele>270.8</ele>
        <time>2025-05-29T11:09:01Z</time>
      </trkpt>
      <trkpt lat="44.51157" lon="1.40456">
        <ele>270.6</ele>
        <time>2025-05-29T11:09:02Z</time>
      </trkpt>
      <trkpt lat="44.51162" lon="1.40456">
        <ele>270.2</ele>
        <time>2025-05-29T11:09:03Z</time>
      </trkpt>
      <trkpt lat="44.51166" lon="1.40454">
        <ele>269.8</ele>
        <time>2025-05-29T11:09:04Z</time>
      </trkpt>
      <trkpt lat="44.51169" lon="1.40451">
        <ele>269.4</ele>
        <time>2025-05-29T11:09:05Z</time>
      </trkpt>
      <trkpt lat="44.51172" lon="1.40449">
        <ele>269</ele>
        <time>2025-05-29T11:09:06Z</time>
      </trkpt>
      <trkpt lat="44.51176" lon="1.40447">
        <ele>268.6</ele>
        <time>2025-05-29T11:09:07Z</time>
      </trkpt>
      <trkpt lat="44.5118" lon="1.40444">
        <ele>268.2</ele>
        <time>2025-05-29T11:09:08Z</time>
      </trkpt>
      <trkpt lat="44.51184" lon="1.4044">
        <ele>268</ele>
        <time>2025-05-29T11:09:09Z</time>
      </trkpt>
      <trkpt lat="44.51188" lon="1.40435">
        <ele>267.6</ele>
        <time>2025-05-29T11:09:10Z</time>
      </trkpt>
      <trkpt lat="44.5119" lon="1.40431">
        <ele>267.2</ele>
        <time>2025-05-29T11:09:11Z</time>
      </trkpt>
      <trkpt lat="44.5119" lon="1.40427">
        <ele>266.8</ele>
        <time>2025-05-29T11:09:12Z</time>
      </trkpt>
      <trkpt lat="44.51188" lon="1.40423">
        <ele>266.6</ele>
        <time>2025-05-29T11:09:13Z</time>
      </trkpt>
      <trkpt lat="44.51187" lon="1.40419">
        <ele>266.4</ele>
        <time>2025-05-29T11:09:14Z</time>
      </trkpt>
      <trkpt lat="44.51188" lon="1.40416">
        <ele>266.2</ele>
        <time>2025-05-29T11:09:15Z</time>
      </trkpt>
      <trkpt lat="44.5119" lon="1.40413">
        <ele>266</ele>
        <time>2025-05-29T11:09:16Z</time>
      </trkpt>
      <trkpt lat="44.51192" lon="1.40414">
        <ele>265.8</ele>
        <time>2025-05-29T11:09:17Z</time>
      </trkpt>
      <trkpt lat="44.51195" lon="1.40416">
        <ele>265.8</ele>
        <time>2025-05-29T11:09:18Z</time>
      </trkpt>
      <trkpt lat="44.51197" lon="1.40418">
        <ele>265.4</ele>
        <time>2025-05-29T11:09:19Z</time>
      </trkpt>
      <trkpt lat="44.512" lon="1.40418">
        <ele>265.2</ele>
        <time>2025-05-29T11:09:20Z</time>
      </trkpt>
      <trkpt lat="44.51204" lon="1.40418">
        <ele>264.8</ele>
        <time>2025-05-29T11:09:21Z</time>
      </trkpt>
      <trkpt lat="44.51208" lon="1.40419">
        <ele>264.4</ele>
        <time>2025-05-29T11:09:22Z</time>
      </trkpt>
      <trkpt lat="44.51212" lon="1.4042">
        <ele>264</ele>
        <time>2025-05-29T11:09:23Z</time>
      </trkpt>
      <trkpt lat="44.51215" lon="1.4042">
        <ele>263.8</ele>
        <time>2025-05-29T11:09:24Z</time>
      </trkpt>
      <trkpt lat="44.51216" lon="1.40418">
        <ele>263.4</ele>
        <time>2025-05-29T11:09:25Z</time>
      </trkpt>
      <trkpt lat="44.51217" lon="1.40416">
        <ele>263.2</ele>
        <time>2025-05-29T11:09:26Z</time>
      </trkpt>
      <trkpt lat="44.51216" lon="1.40414">
        <ele>263</ele>
        <time>2025-05-29T11:09:27Z</time>
      </trkpt>
      <trkpt lat="44.51215" lon="1.40412">
        <ele>262.8</ele>
        <time>2025-05-29T11:09:28Z</time>
      </trkpt>
      <trkpt lat="44.51215" lon="1.40411">
        <ele>262.6</ele>
        <time>2025-05-29T11:09:29Z</time>
      </trkpt>
      <trkpt lat="44.51214" lon="1.40409">
        <ele>262.6</ele>
        <time>2025-05-29T11:09:30Z</time>
      </trkpt>
      <trkpt lat="44.51213" lon="1.40405">
        <ele>262.4</ele>
        <time>2025-05-29T11:09:31Z</time>
      </trkpt>
      <trkpt lat="44.51212" lon="1.40401">
        <ele>262</ele>
        <time>2025-05-29T11:09:32Z</time>
      </trkpt>
      <trkpt lat="44.5121" lon="1.40396">
        <ele>261.8</ele>
        <time>2025-05-29T11:09:33Z</time>
      </trkpt>
      <trkpt lat="44.51208" lon="1.40392">
        <ele>261.6</ele>
        <time>2025-05-29T11:09:34Z</time>
      </trkpt>
      <trkpt lat="44.51206" lon="1.40389">
        <ele>261.4</ele>
        <time>2025-05-29T11:09:35Z</time>
      </trkpt>
      <trkpt lat="44.51205" lon="1.40386">
        <ele>261.4</ele>
        <time>2025-05-29T11:09:36Z</time>
      </trkpt>
      <trkpt lat="44.51204" lon="1.40382">
        <ele>261.2</ele>
        <time>2025-05-29T11:09:37Z</time>
      </trkpt>
      <trkpt lat="44.51202" lon="1.40379">
        <ele>261.2</ele>
        <time>2025-05-29T11:09:38Z</time>
      </trkpt>
      <trkpt lat="44.512" lon="1.40376">
        <ele>261.2</ele>
        <time>2025-05-29T11:09:39Z</time>
      </trkpt>
      <trkpt lat="44.51199" lon="1.40373">
        <ele>261.2</ele>
        <time>2025-05-29T11:09:40Z</time>
      </trkpt>
      <trkpt lat="44.51198" lon="1.4037">
        <ele>261.4</ele>
        <time>2025-05-29T11:09:41Z</time>
      </trkpt>
      <trkpt lat="44.51196" lon="1.40367">
        <ele>261.4</ele>
        <time>2025-05-29T11:09:42Z</time>
      </trkpt>
      <trkpt lat="44.51195" lon="1.40363">
        <ele>261.6</ele>
        <time>2025-05-29T11:09:43Z</time>
      </trkpt>
      <trkpt lat="44.51193" lon="1.40359">
        <ele>261.8</ele>
        <time>2025-05-29T11:09:44Z</time>
      </trkpt>
      <trkpt lat="44.51192" lon="1.40356">
        <ele>262</ele>
        <time>2025-05-29T11:09:45Z</time>
      </trkpt>
      <trkpt lat="44.51191" lon="1.40352">
        <ele>262.2</ele>
        <time>2025-05-29T11:09:46Z</time>
      </trkpt>
      <trkpt lat="44.5119" lon="1.40349">
        <ele>262.4</ele>
        <time>2025-05-29T11:09:47Z</time>
      </trkpt>
      <trkpt lat="44.51188" lon="1.40346">
        <ele>262.6</ele>
        <time>2025-05-29T11:09:48Z</time>
      </trkpt>
      <trkpt lat="44.51187" lon="1.40343">
        <ele>262.8</ele>
        <time>2025-05-29T11:09:49Z</time>
      </trkpt>
      <trkpt lat="44.51186" lon="1.40341">
        <ele>263</ele>
        <time>2025-05-29T11:09:50Z</time>
      </trkpt>
      <trkpt lat="44.51184" lon="1.40337">
        <ele>263.2</ele>
        <time>2025-05-29T11:09:51Z</time>
      </trkpt>
      <trkpt lat="44.51182" lon="1.40334">
        <ele>263.4</ele>
        <time>2025-05-29T11:09:52Z</time>
      </trkpt>
      <trkpt lat="44.51182" lon="1.4033">
        <ele>263.6</ele>
        <time>2025-05-29T11:09:53Z</time>
      </trkpt>
      <trkpt lat="44.51183" lon="1.40326">
        <ele>263.6</ele>
        <time>2025-05-29T11:09:54Z</time>
      </trkpt>
      <trkpt lat="44.51183" lon="1.40321">
        <ele>263.4</ele>
        <time>2025-05-29T11:09:55Z</time>
      </trkpt>
      <trkpt lat="44.51183" lon="1.40315">
        <ele>263.2</ele>
        <time>2025-05-29T11:09:56Z</time>
      </trkpt>
      <trkpt lat="44.51181" lon="1.40311">
        <ele>263.2</ele>
        <time>2025-05-29T11:09:57Z</time>
      </trkpt>
      <trkpt lat="44.5118" lon="1.40307">
        <ele>263</ele>
        <time>2025-05-29T11:09:58Z</time>
      </trkpt>
      <trkpt lat="44.51178" lon="1.40303">
        <ele>262.8</ele>
        <time>2025-05-29T11:09:59Z</time>
      </trkpt>
      <trkpt lat="44.51177" lon="1.40299">
        <ele>262.8</ele>
        <time>2025-05-29T11:10:00Z</time>
      </trkpt>
      <trkpt lat="44.51175" lon="1.40296">
        <ele>262.8</ele>
        <time>2025-05-29T11:10:01Z</time>
      </trkpt>
      <trkpt lat="44.51173" lon="1.40293">
        <ele>262.8</ele>
        <time>2025-05-29T11:10:02Z</time>
      </trkpt>
      <trkpt lat="44.51172" lon="1.4029">
        <ele>262.8</ele>
        <time>2025-05-29T11:10:03Z</time>
      </trkpt>
      <trkpt lat="44.5117" lon="1.40287">
        <ele>263</ele>
        <time>2025-05-29T11:10:04Z</time>
      </trkpt>
      <trkpt lat="44.51169" lon="1.40283">
        <ele>263</ele>
        <time>2025-05-29T11:10:05Z</time>
      </trkpt>
      <trkpt lat="44.51168" lon="1.4028">
        <ele>263.2</ele>
        <time>2025-05-29T11:10:06Z</time>
      </trkpt>
      <trkpt lat="44.51166" lon="1.40277">
        <ele>263.2</ele>
        <time>2025-05-29T11:10:07Z</time>
      </trkpt>
      <trkpt lat="44.51165" lon="1.40274">
        <ele>263.2</ele>
        <time>2025-05-29T11:10:08Z</time>
      </trkpt>
      <trkpt lat="44.51164" lon="1.4027">
        <ele>263.2</ele>
        <time>2025-05-29T11:10:09Z</time>
      </trkpt>
      <trkpt lat="44.51164" lon="1.40267">
        <ele>263.2</ele>
        <time>2025-05-29T11:10:10Z</time>
      </trkpt>
      <trkpt lat="44.51164" lon="1.40262">
        <ele>263.2</ele>
        <time>2025-05-29T11:10:11Z</time>
      </trkpt>
      <trkpt lat="44.51164" lon="1.40257">
        <ele>263.2</ele>
        <time>2025-05-29T11:10:12Z</time>
      </trkpt>
      <trkpt lat="44.51162" lon="1.40251">
        <ele>263</ele>
        <time>2025-05-29T11:10:13Z</time>
      </trkpt>
      <trkpt lat="44.51159" lon="1.40246">
        <ele>262.8</ele>
        <time>2025-05-29T11:10:14Z</time>
      </trkpt>
      <trkpt lat="44.51158" lon="1.40241">
        <ele>262.6</ele>
        <time>2025-05-29T11:10:15Z</time>
      </trkpt>
      <trkpt lat="44.51156" lon="1.40236">
        <ele>262.4</ele>
        <time>2025-05-29T11:10:16Z</time>
      </trkpt>
      <trkpt lat="44.51153" lon="1.40232">
        <ele>262.2</ele>
        <time>2025-05-29T11:10:17Z</time>
      </trkpt>
      <trkpt lat="44.51152" lon="1.40228">
        <ele>262.2</ele>
        <time>2025-05-29T11:10:18Z</time>
      </trkpt>
      <trkpt lat="44.51151" lon="1.40224">
        <ele>262.2</ele>
        <time>2025-05-29T11:10:19Z</time>
      </trkpt>
      <trkpt lat="44.51151" lon="1.4022">
        <ele>262.2</ele>
        <time>2025-05-29T11:10:20Z</time>
      </trkpt>
      <trkpt lat="44.51152" lon="1.40214">
        <ele>262.2</ele>
        <time>2025-05-29T11:10:21Z</time>
      </trkpt>
      <trkpt lat="44.51151" lon="1.40209">
        <ele>261.8</ele>
        <time>2025-05-29T11:10:22Z</time>
      </trkpt>
      <trkpt lat="44.5115" lon="1.40204">
        <ele>261.6</ele>
        <time>2025-05-29T11:10:23Z</time>
      </trkpt>
      <trkpt lat="44.5115" lon="1.40199">
        <ele>261.2</ele>
        <time>2025-05-29T11:10:24Z</time>
      </trkpt>
      <trkpt lat="44.51148" lon="1.40193">
        <ele>260.6</ele>
        <time>2025-05-29T11:10:25Z</time>
      </trkpt>
      <trkpt lat="44.51147" lon="1.40187">
        <ele>260.2</ele>
        <time>2025-05-29T11:10:26Z</time>
      </trkpt>
      <trkpt lat="44.51146" lon="1.40183">
        <ele>260</ele>
        <time>2025-05-29T11:10:27Z</time>
      </trkpt>
      <trkpt lat="44.51145" lon="1.40179">
        <ele>259.8</ele>
        <time>2025-05-29T11:10:28Z</time>
      </trkpt>
      <trkpt lat="44.51144" lon="1.40174">
        <ele>259.6</ele>
        <time>2025-05-29T11:10:29Z</time>
      </trkpt>
      <trkpt lat="44.51143" lon="1.4017">
        <ele>259.6</ele>
        <time>2025-05-29T11:10:30Z</time>
      </trkpt>
      <trkpt lat="44.51142" lon="1.40165">
        <ele>259.8</ele>
        <time>2025-05-29T11:10:31Z</time>
      </trkpt>
      <trkpt lat="44.51142" lon="1.40161">
        <ele>259.8</ele>
        <time>2025-05-29T11:10:32Z</time>
      </trkpt>
      <trkpt lat="44.51142" lon="1.40155">
        <ele>259.8</ele>
        <time>2025-05-29T11:10:33Z</time>
      </trkpt>
      <trkpt lat="44.51141" lon="1.4015">
        <ele>259.6</ele>
        <time>2025-05-29T11:10:34Z</time>
      </trkpt>
      <trkpt lat="44.5114" lon="1.40145">
        <ele>259.4</ele>
        <time>2025-05-29T11:10:35Z</time>
      </trkpt>
      <trkpt lat="44.5114" lon="1.40141">
        <ele>259</ele>
        <time>2025-05-29T11:10:36Z</time>
      </trkpt>
      <trkpt lat="44.51141" lon="1.40135">
        <ele>258.8</ele>
        <time>2025-05-29T11:10:37Z</time>
      </trkpt>
      <trkpt lat="44.51141" lon="1.40129">
        <ele>258.6</ele>
        <time>2025-05-29T11:10:38Z</time>
      </trkpt>
      <trkpt lat="44.51142" lon="1.40123">
        <ele>258.4</ele>
        <time>2025-05-29T11:10:39Z</time>
      </trkpt>
      <trkpt lat="44.51142" lon="1.40118">
        <ele>258</ele>
        <time>2025-05-29T11:10:40Z</time>
      </trkpt>
      <trkpt lat="44.51141" lon="1.40116">
        <ele>257.4</ele>
        <time>2025-05-29T11:10:41Z</time>
      </trkpt>
      <trkpt lat="44.51141" lon="1.40115">
        <ele>257.2</ele>
        <time>2025-05-29T11:10:42Z</time>
      </trkpt>
      <trkpt lat="44.51141" lon="1.40115">
        <ele>257.2</ele>
        <time>2025-05-29T11:10:43Z</time>
      </trkpt>
      <trkpt lat="44.51143" lon="1.40108">
        <ele>257</ele>
        <time>2025-05-29T11:10:50Z</time>
      </trkpt>
      <trkpt lat="44.51145" lon="1.40106">
        <ele>256.8</ele>
        <time>2025-05-29T11:10:51Z</time>
      </trkpt>
      <trkpt lat="44.51146" lon="1.40103">
        <ele>256.4</ele>
        <time>2025-05-29T11:10:52Z</time>
      </trkpt>
      <trkpt lat="44.51147" lon="1.40099">
        <ele>256</ele>
        <time>2025-05-29T11:10:53Z</time>
      </trkpt>
      <trkpt lat="44.51148" lon="1.40096">
        <ele>255.6</ele>
        <time>2025-05-29T11:10:54Z</time>
      </trkpt>
      <trkpt lat="44.51146" lon="1.40093">
        <ele>255.2</ele>
        <time>2025-05-29T11:10:55Z</time>
      </trkpt>
      <trkpt lat="44.51146" lon="1.40088">
        <ele>254.8</ele>
        <time>2025-05-29T11:10:56Z</time>
      </trkpt>
      <trkpt lat="44.51147" lon="1.40083">
        <ele>254.2</ele>
        <time>2025-05-29T11:10:57Z</time>
      </trkpt>
      <trkpt lat="44.51149" lon="1.40079">
        <ele>253.6</ele>
        <time>2025-05-29T11:10:58Z</time>
      </trkpt>
      <trkpt lat="44.51151" lon="1.40074">
        <ele>253</ele>
        <time>2025-05-29T11:10:59Z</time>
      </trkpt>
      <trkpt lat="44.51154" lon="1.4007">
        <ele>252.2</ele>
        <time>2025-05-29T11:11:00Z</time>
      </trkpt>
      <trkpt lat="44.51158" lon="1.40066">
        <ele>251.6</ele>
        <time>2025-05-29T11:11:01Z</time>
      </trkpt>
      <trkpt lat="44.51159" lon="1.40062">
        <ele>251</ele>
        <time>2025-05-29T11:11:02Z</time>
      </trkpt>
      <trkpt lat="44.51159" lon="1.40057">
        <ele>250.2</ele>
        <time>2025-05-29T11:11:03Z</time>
      </trkpt>
      <trkpt lat="44.51161" lon="1.40052">
        <ele>249.8</ele>
        <time>2025-05-29T11:11:04Z</time>
      </trkpt>
      <trkpt lat="44.51162" lon="1.40046">
        <ele>249.2</ele>
        <time>2025-05-29T11:11:05Z</time>
      </trkpt>
      <trkpt lat="44.51164" lon="1.4004">
        <ele>248.6</ele>
        <time>2025-05-29T11:11:06Z</time>
      </trkpt>
      <trkpt lat="44.51167" lon="1.40038">
        <ele>248.2</ele>
        <time>2025-05-29T11:11:07Z</time>
      </trkpt>
      <trkpt lat="44.5117" lon="1.40036">
        <ele>247.8</ele>
        <time>2025-05-29T11:11:08Z</time>
      </trkpt>
      <trkpt lat="44.51173" lon="1.40034">
        <ele>247.4</ele>
        <time>2025-05-29T11:11:09Z</time>
      </trkpt>
      <trkpt lat="44.51176" lon="1.40033">
        <ele>247</ele>
        <time>2025-05-29T11:11:10Z</time>
      </trkpt>
      <trkpt lat="44.51178" lon="1.40034">
        <ele>246.8</ele>
        <time>2025-05-29T11:11:11Z</time>
      </trkpt>
      <trkpt lat="44.51181" lon="1.40035">
        <ele>246.6</ele>
        <time>2025-05-29T11:11:12Z</time>
      </trkpt>
      <trkpt lat="44.51185" lon="1.40036">
        <ele>246.2</ele>
        <time>2025-05-29T11:11:13Z</time>
      </trkpt>
      <trkpt lat="44.51189" lon="1.40035">
        <ele>246.2</ele>
        <time>2025-05-29T11:11:14Z</time>
      </trkpt>
      <trkpt lat="44.51192" lon="1.40033">
        <ele>246</ele>
        <time>2025-05-29T11:11:15Z</time>
      </trkpt>
      <trkpt lat="44.51194" lon="1.40028">
        <ele>245.8</ele>
        <time>2025-05-29T11:11:16Z</time>
      </trkpt>
      <trkpt lat="44.51197" lon="1.40024">
        <ele>245.6</ele>
        <time>2025-05-29T11:11:17Z</time>
      </trkpt>
      <trkpt lat="44.51201" lon="1.40021">
        <ele>245.2</ele>
        <time>2025-05-29T11:11:18Z</time>
      </trkpt>
      <trkpt lat="44.51204" lon="1.40017">
        <ele>244.8</ele>
        <time>2025-05-29T11:11:19Z</time>
      </trkpt>
      <trkpt lat="44.51208" lon="1.40012">
        <ele>244.4</ele>
        <time>2025-05-29T11:11:20Z</time>
      </trkpt>
      <trkpt lat="44.5121" lon="1.40007">
        <ele>243.8</ele>
        <time>2025-05-29T11:11:21Z</time>
      </trkpt>
      <trkpt lat="44.5121" lon="1.40002">
        <ele>243.4</ele>
        <time>2025-05-29T11:11:22Z</time>
      </trkpt>
      <trkpt lat="44.51212" lon="1.39997">
        <ele>242.6</ele>
        <time>2025-05-29T11:11:23Z</time>
      </trkpt>
      <trkpt lat="44.51214" lon="1.39995">
        <ele>242.2</ele>
        <time>2025-05-29T11:11:24Z</time>
      </trkpt>
      <trkpt lat="44.51217" lon="1.39995">
        <ele>241.6</ele>
        <time>2025-05-29T11:11:25Z</time>
      </trkpt>
      <trkpt lat="44.5122" lon="1.39994">
        <ele>241.2</ele>
        <time>2025-05-29T11:11:26Z</time>
      </trkpt>
      <trkpt lat="44.51224" lon="1.39991">
        <ele>240.8</ele>
        <time>2025-05-29T11:11:27Z</time>
      </trkpt>
      <trkpt lat="44.51228" lon="1.39989">
        <ele>240.2</ele>
        <time>2025-05-29T11:11:28Z</time>
      </trkpt>
      <trkpt lat="44.51232" lon="1.39986">
        <ele>239.6</ele>
        <time>2025-05-29T11:11:29Z</time>
      </trkpt>
      <trkpt lat="44.51234" lon="1.39981">
        <ele>239.2</ele>
        <time>2025-05-29T11:11:30Z</time>
      </trkpt>
      <trkpt lat="44.51235" lon="1.39975">
        <ele>238.6</ele>
        <time>2025-05-29T11:11:31Z</time>
      </trkpt>
      <trkpt lat="44.51234" lon="1.3997">
        <ele>238.2</ele>
        <time>2025-05-29T11:11:32Z</time>
      </trkpt>
      <trkpt lat="44.51236" lon="1.39965">
        <ele>237.8</ele>
        <time>2025-05-29T11:11:33Z</time>
      </trkpt>
      <trkpt lat="44.51238" lon="1.39961">
        <ele>237.4</ele>
        <time>2025-05-29T11:11:34Z</time>
      </trkpt>
      <trkpt lat="44.51239" lon="1.39955">
        <ele>237</ele>
        <time>2025-05-29T11:11:35Z</time>
      </trkpt>
      <trkpt lat="44.51241" lon="1.39949">
        <ele>236.6</ele>
        <time>2025-05-29T11:11:36Z</time>
      </trkpt>
      <trkpt lat="44.51244" lon="1.39944">
        <ele>236.2</ele>
        <time>2025-05-29T11:11:37Z</time>
      </trkpt>
      <trkpt lat="44.51247" lon="1.39936">
        <ele>235.6</ele>
        <time>2025-05-29T11:11:38Z</time>
      </trkpt>
      <trkpt lat="44.51251" lon="1.39928">
        <ele>235</ele>
        <time>2025-05-29T11:11:39Z</time>
      </trkpt>
      <trkpt lat="44.51254" lon="1.3992">
        <ele>234.2</ele>
        <time>2025-05-29T11:11:40Z</time>
      </trkpt>
      <trkpt lat="44.51257" lon="1.39912">
        <ele>233.4</ele>
        <time>2025-05-29T11:11:41Z</time>
      </trkpt>
      <trkpt lat="44.51259" lon="1.39905">
        <ele>232.8</ele>
        <time>2025-05-29T11:11:42Z</time>
      </trkpt>
      <trkpt lat="44.51259" lon="1.39898">
        <ele>232.2</ele>
        <time>2025-05-29T11:11:43Z</time>
      </trkpt>
      <trkpt lat="44.51259" lon="1.39891">
        <ele>232</ele>
        <time>2025-05-29T11:11:44Z</time>
      </trkpt>
      <trkpt lat="44.51258" lon="1.39884">
        <ele>231.6</ele>
        <time>2025-05-29T11:11:45Z</time>
      </trkpt>
      <trkpt lat="44.51258" lon="1.39877">
        <ele>231.4</ele>
        <time>2025-05-29T11:11:46Z</time>
      </trkpt>
      <trkpt lat="44.51258" lon="1.39871">
        <ele>231.2</ele>
        <time>2025-05-29T11:11:47Z</time>
      </trkpt>
      <trkpt lat="44.51258" lon="1.39864">
        <ele>231</ele>
        <time>2025-05-29T11:11:48Z</time>
      </trkpt>
      <trkpt lat="44.5126" lon="1.39858">
        <ele>230.8</ele>
        <time>2025-05-29T11:11:49Z</time>
      </trkpt>
      <trkpt lat="44.51263" lon="1.39853">
        <ele>230.6</ele>
        <time>2025-05-29T11:11:50Z</time>
      </trkpt>
      <trkpt lat="44.51263" lon="1.39847">
        <ele>230.6</ele>
        <time>2025-05-29T11:11:51Z</time>
      </trkpt>
      <trkpt lat="44.51262" lon="1.39842">
        <ele>230.8</ele>
        <time>2025-05-29T11:11:52Z</time>
      </trkpt>
      <trkpt lat="44.51261" lon="1.39837">
        <ele>230.8</ele>
        <time>2025-05-29T11:11:53Z</time>
      </trkpt>
      <trkpt lat="44.5126" lon="1.39832">
        <ele>230.8</ele>
        <time>2025-05-29T11:11:54Z</time>
      </trkpt>
      <trkpt lat="44.5126" lon="1.39827">
        <ele>231</ele>
        <time>2025-05-29T11:11:55Z</time>
      </trkpt>
      <trkpt lat="44.51258" lon="1.39824">
        <ele>231</ele>
        <time>2025-05-29T11:11:56Z</time>
      </trkpt>
      <trkpt lat="44.51255" lon="1.3982">
        <ele>230.8</ele>
        <time>2025-05-29T11:11:57Z</time>
      </trkpt>
      <trkpt lat="44.51254" lon="1.39816">
        <ele>230.8</ele>
        <time>2025-05-29T11:11:58Z</time>
      </trkpt>
      <trkpt lat="44.51252" lon="1.39811">
        <ele>230.8</ele>
        <time>2025-05-29T11:11:59Z</time>
      </trkpt>
      <trkpt lat="44.51254" lon="1.39806">
        <ele>230.8</ele>
        <time>2025-05-29T11:12:00Z</time>
      </trkpt>
      <trkpt lat="44.51257" lon="1.39801">
        <ele>230.8</ele>
        <time>2025-05-29T11:12:01Z</time>
      </trkpt>
      <trkpt lat="44.51257" lon="1.39796">
        <ele>230.6</ele>
        <time>2025-05-29T11:12:02Z</time>
      </trkpt>
      <trkpt lat="44.51256" lon="1.39791">
        <ele>230.2</ele>
        <time>2025-05-29T11:12:03Z</time>
      </trkpt>
      <trkpt lat="44.51254" lon="1.39784">
        <ele>230</ele>
        <time>2025-05-29T11:12:04Z</time>
      </trkpt>
      <trkpt lat="44.51254" lon="1.39777">
        <ele>229.6</ele>
        <time>2025-05-29T11:12:05Z</time>
      </trkpt>
      <trkpt lat="44.51256" lon="1.39769">
        <ele>229</ele>
        <time>2025-05-29T11:12:06Z</time>
      </trkpt>
      <trkpt lat="44.51258" lon="1.39763">
        <ele>228.4</ele>
        <time>2025-05-29T11:12:07Z</time>
      </trkpt>
      <trkpt lat="44.51258" lon="1.39758">
        <ele>228</ele>
        <time>2025-05-29T11:12:08Z</time>
      </trkpt>
      <trkpt lat="44.51256" lon="1.39753">
        <ele>227.6</ele>
        <time>2025-05-29T11:12:09Z</time>
      </trkpt>
      <trkpt lat="44.51255" lon="1.39748">
        <ele>227.2</ele>
        <time>2025-05-29T11:12:10Z</time>
      </trkpt>
      <trkpt lat="44.51256" lon="1.39743">
        <ele>226.8</ele>
        <time>2025-05-29T11:12:11Z</time>
      </trkpt>
      <trkpt lat="44.51255" lon="1.39737">
        <ele>226.6</ele>
        <time>2025-05-29T11:12:12Z</time>
      </trkpt>
      <trkpt lat="44.51254" lon="1.3973">
        <ele>226.4</ele>
        <time>2025-05-29T11:12:13Z</time>
      </trkpt>
      <trkpt lat="44.51254" lon="1.39723">
        <ele>226</ele>
        <time>2025-05-29T11:12:14Z</time>
      </trkpt>
      <trkpt lat="44.51255" lon="1.39716">
        <ele>225.8</ele>
        <time>2025-05-29T11:12:15Z</time>
      </trkpt>
      <trkpt lat="44.51255" lon="1.39709">
        <ele>225.4</ele>
        <time>2025-05-29T11:12:16Z</time>
      </trkpt>
      <trkpt lat="44.51252" lon="1.39703">
        <ele>225</ele>
        <time>2025-05-29T11:12:17Z</time>
      </trkpt>
      <trkpt lat="44.5125" lon="1.39697">
        <ele>224.6</ele>
        <time>2025-05-29T11:12:18Z</time>
      </trkpt>
      <trkpt lat="44.51251" lon="1.39691">
        <ele>224.4</ele>
        <time>2025-05-29T11:12:19Z</time>
      </trkpt>
      <trkpt lat="44.51252" lon="1.39684">
        <ele>224</ele>
        <time>2025-05-29T11:12:20Z</time>
      </trkpt>
      <trkpt lat="44.51254" lon="1.39677">
        <ele>223.4</ele>
        <time>2025-05-29T11:12:21Z</time>
      </trkpt>
      <trkpt lat="44.51256" lon="1.39669">
        <ele>222.8</ele>
        <time>2025-05-29T11:12:22Z</time>
      </trkpt>
      <trkpt lat="44.51255" lon="1.39662">
        <ele>222</ele>
        <time>2025-05-29T11:12:23Z</time>
      </trkpt>
      <trkpt lat="44.51253" lon="1.39654">
        <ele>221.6</ele>
        <time>2025-05-29T11:12:24Z</time>
      </trkpt>
      <trkpt lat="44.51251" lon="1.39647">
        <ele>221</ele>
        <time>2025-05-29T11:12:25Z</time>
      </trkpt>
      <trkpt lat="44.51249" lon="1.39638">
        <ele>220.8</ele>
        <time>2025-05-29T11:12:26Z</time>
      </trkpt>
      <trkpt lat="44.51246" lon="1.39629">
        <ele>220.2</ele>
        <time>2025-05-29T11:12:27Z</time>
      </trkpt>
      <trkpt lat="44.51244" lon="1.3962">
        <ele>219.6</ele>
        <time>2025-05-29T11:12:28Z</time>
      </trkpt>
      <trkpt lat="44.51244" lon="1.39613">
        <ele>218.8</ele>
        <time>2025-05-29T11:12:29Z</time>
      </trkpt>
      <trkpt lat="44.51242" lon="1.39605">
        <ele>218.2</ele>
        <time>2025-05-29T11:12:30Z</time>
      </trkpt>
      <trkpt lat="44.51239" lon="1.39598">
        <ele>217.2</ele>
        <time>2025-05-29T11:12:31Z</time>
      </trkpt>
      <trkpt lat="44.51237" lon="1.39592">
        <ele>216.4</ele>
        <time>2025-05-29T11:12:32Z</time>
      </trkpt>
      <trkpt lat="44.51237" lon="1.39585">
        <ele>215.8</ele>
        <time>2025-05-29T11:12:33Z</time>
      </trkpt>
      <trkpt lat="44.51236" lon="1.39577">
        <ele>215.2</ele>
        <time>2025-05-29T11:12:34Z</time>
      </trkpt>
      <trkpt lat="44.51233" lon="1.3957">
        <ele>214.6</ele>
        <time>2025-05-29T11:12:35Z</time>
      </trkpt>
      <trkpt lat="44.5123" lon="1.39561">
        <ele>214</ele>
        <time>2025-05-29T11:12:36Z</time>
      </trkpt>
      <trkpt lat="44.51228" lon="1.39553">
        <ele>213.2</ele>
        <time>2025-05-29T11:12:37Z</time>
      </trkpt>
      <trkpt lat="44.51229" lon="1.39545">
        <ele>212.4</ele>
        <time>2025-05-29T11:12:38Z</time>
      </trkpt>
      <trkpt lat="44.51229" lon="1.39537">
        <ele>211.6</ele>
        <time>2025-05-29T11:12:39Z</time>
      </trkpt>
      <trkpt lat="44.51227" lon="1.39529">
        <ele>210.8</ele>
        <time>2025-05-29T11:12:40Z</time>
      </trkpt>
      <trkpt lat="44.51227" lon="1.3952">
        <ele>210</ele>
        <time>2025-05-29T11:12:41Z</time>
      </trkpt>
      <trkpt lat="44.51228" lon="1.39511">
        <ele>209.2</ele>
        <time>2025-05-29T11:12:42Z</time>
      </trkpt>
      <trkpt lat="44.51229" lon="1.39503">
        <ele>208.4</ele>
        <time>2025-05-29T11:12:43Z</time>
      </trkpt>
      <trkpt lat="44.51227" lon="1.39497">
        <ele>207.4</ele>
        <time>2025-05-29T11:12:44Z</time>
      </trkpt>
      <trkpt lat="44.51225" lon="1.3949">
        <ele>206.4</ele>
        <time>2025-05-29T11:12:45Z</time>
      </trkpt>
      <trkpt lat="44.51224" lon="1.39483">
        <ele>205.6</ele>
        <time>2025-05-29T11:12:46Z</time>
      </trkpt>
      <trkpt lat="44.51223" lon="1.39476">
        <ele>205.2</ele>
        <time>2025-05-29T11:12:47Z</time>
      </trkpt>
      <trkpt lat="44.51222" lon="1.39469">
        <ele>204.8</ele>
        <time>2025-05-29T11:12:48Z</time>
      </trkpt>
      <trkpt lat="44.51219" lon="1.39462">
        <ele>204.2</ele>
        <time>2025-05-29T11:12:49Z</time>
      </trkpt>
      <trkpt lat="44.51215" lon="1.39456">
        <ele>203.6</ele>
        <time>2025-05-29T11:12:50Z</time>
      </trkpt>
      <trkpt lat="44.51212" lon="1.3945">
        <ele>203.2</ele>
        <time>2025-05-29T11:12:51Z</time>
      </trkpt>
      <trkpt lat="44.51211" lon="1.39444">
        <ele>202.8</ele>
        <time>2025-05-29T11:12:52Z</time>
      </trkpt>
      <trkpt lat="44.51213" lon="1.39439">
        <ele>202.2</ele>
        <time>2025-05-29T11:12:53Z</time>
      </trkpt>
      <trkpt lat="44.51214" lon="1.39433">
        <ele>201.8</ele>
        <time>2025-05-29T11:12:54Z</time>
      </trkpt>
      <trkpt lat="44.51215" lon="1.39425">
        <ele>201.6</ele>
        <time>2025-05-29T11:12:55Z</time>
      </trkpt>
      <trkpt lat="44.51214" lon="1.39417">
        <ele>201.2</ele>
        <time>2025-05-29T11:12:56Z</time>
      </trkpt>
      <trkpt lat="44.51211" lon="1.3941">
        <ele>200.6</ele>
        <time>2025-05-29T11:12:57Z</time>
      </trkpt>
      <trkpt lat="44.51208" lon="1.39404">
        <ele>200</ele>
        <time>2025-05-29T11:12:58Z</time>
      </trkpt>
      <trkpt lat="44.51205" lon="1.39398">
        <ele>199.4</ele>
        <time>2025-05-29T11:12:59Z</time>
      </trkpt>
      <trkpt lat="44.51201" lon="1.39392">
        <ele>199.2</ele>
        <time>2025-05-29T11:13:00Z</time>
      </trkpt>
      <trkpt lat="44.51198" lon="1.39387">
        <ele>199</ele>
        <time>2025-05-29T11:13:01Z</time>
      </trkpt>
      <trkpt lat="44.51195" lon="1.39382">
        <ele>198.8</ele>
        <time>2025-05-29T11:13:02Z</time>
      </trkpt>
      <trkpt lat="44.51192" lon="1.39379">
        <ele>198.8</ele>
        <time>2025-05-29T11:13:03Z</time>
      </trkpt>
      <trkpt lat="44.51189" lon="1.39376">
        <ele>198.8</ele>
        <time>2025-05-29T11:13:04Z</time>
      </trkpt>
      <trkpt lat="44.51185" lon="1.39372">
        <ele>199</ele>
        <time>2025-05-29T11:13:05Z</time>
      </trkpt>
      <trkpt lat="44.51182" lon="1.39367">
        <ele>199</ele>
        <time>2025-05-29T11:13:06Z</time>
      </trkpt>
      <trkpt lat="44.5118" lon="1.39362">
        <ele>199</ele>
        <time>2025-05-29T11:13:07Z</time>
      </trkpt>
      <trkpt lat="44.51178" lon="1.39357">
        <ele>198.8</ele>
        <time>2025-05-29T11:13:08Z</time>
      </trkpt>
      <trkpt lat="44.51176" lon="1.39351">
        <ele>198.6</ele>
        <time>2025-05-29T11:13:09Z</time>
      </trkpt>
      <trkpt lat="44.51174" lon="1.39346">
        <ele>198.4</ele>
        <time>2025-05-29T11:13:10Z</time>
      </trkpt>
      <trkpt lat="44.51172" lon="1.39341">
        <ele>198.2</ele>
        <time>2025-05-29T11:13:11Z</time>
      </trkpt>
      <trkpt lat="44.51172" lon="1.39336">
        <ele>198.2</ele>
        <time>2025-05-29T11:13:12Z</time>
      </trkpt>
      <trkpt lat="44.51172" lon="1.3933">
        <ele>198.2</ele>
        <time>2025-05-29T11:13:13Z</time>
      </trkpt>
      <trkpt lat="44.51171" lon="1.39323">
        <ele>198.2</ele>
        <time>2025-05-29T11:13:14Z</time>
      </trkpt>
      <trkpt lat="44.51171" lon="1.39317">
        <ele>198.2</ele>
        <time>2025-05-29T11:13:15Z</time>
      </trkpt>
      <trkpt lat="44.51172" lon="1.39312">
        <ele>198.2</ele>
        <time>2025-05-29T11:13:16Z</time>
      </trkpt>
      <trkpt lat="44.51174" lon="1.39306">
        <ele>198.2</ele>
        <time>2025-05-29T11:13:17Z</time>
      </trkpt>
      <trkpt lat="44.51174" lon="1.39303">
        <ele>198</ele>
        <time>2025-05-29T11:13:18Z</time>
      </trkpt>
      <trkpt lat="44.51173" lon="1.393">
        <ele>198</ele>
        <time>2025-05-29T11:13:19Z</time>
      </trkpt>
      <trkpt lat="44.51173" lon="1.393">
        <ele>198</ele>
        <time>2025-05-29T11:13:20Z</time>
      </trkpt>
      <trkpt lat="44.51173" lon="1.393">
        <ele>198</ele>
        <time>2025-05-29T11:13:21Z</time>
      </trkpt>
      <trkpt lat="44.51173" lon="1.39304">
        <ele>197.2</ele>
        <time>2025-05-29T11:14:01Z</time>
      </trkpt>
      <trkpt lat="44.51173" lon="1.39307">
        <ele>197.2</ele>
        <time>2025-05-29T11:14:02Z</time>
      </trkpt>
      <trkpt lat="44.51172" lon="1.39309">
        <ele>197.2</ele>
        <time>2025-05-29T11:14:03Z</time>
      </trkpt>
      <trkpt lat="44.51172" lon="1.39311">
        <ele>197.2</ele>
        <time>2025-05-29T11:14:04Z</time>
      </trkpt>
      <trkpt lat="44.51171" lon="1.39313">
        <ele>197.2</ele>
        <time>2025-05-29T11:14:05Z</time>
      </trkpt>
      <trkpt lat="44.51171" lon="1.39316">
        <ele>197.2</ele>
        <time>2025-05-29T11:14:06Z</time>
      </trkpt>
      <trkpt lat="44.51171" lon="1.39318">
        <ele>197.2</ele>
        <time>2025-05-29T11:14:07Z</time>
      </trkpt>
      <trkpt lat="44.51171" lon="1.39321">
        <ele>197.4</ele>
        <time>2025-05-29T11:14:08Z</time>
      </trkpt>
      <trkpt lat="44.51171" lon="1.39323">
        <ele>197.4</ele>
        <time>2025-05-29T11:14:09Z</time>
      </trkpt>
      <trkpt lat="44.51172" lon="1.39326">
        <ele>197.4</ele>
        <time>2025-05-29T11:14:10Z</time>
      </trkpt>
      <trkpt lat="44.51173" lon="1.39327">
        <ele>197.4</ele>
        <time>2025-05-29T11:14:11Z</time>
      </trkpt>
      <trkpt lat="44.51175" lon="1.39329">
        <ele>197.4</ele>
        <time>2025-05-29T11:14:12Z</time>
      </trkpt>
      <trkpt lat="44.51178" lon="1.39329">
        <ele>197.4</ele>
        <time>2025-05-29T11:14:13Z</time>
      </trkpt>
      <trkpt lat="44.5118" lon="1.39329">
        <ele>197.4</ele>
        <time>2025-05-29T11:14:14Z</time>
      </trkpt>
      <trkpt lat="44.51182" lon="1.39331">
        <ele>197.4</ele>
        <time>2025-05-29T11:14:15Z</time>
      </trkpt>
      <trkpt lat="44.51185" lon="1.39332">
        <ele>197.4</ele>
        <time>2025-05-29T11:14:16Z</time>
      </trkpt>
      <trkpt lat="44.51187" lon="1.39333">
        <ele>197.6</ele>
        <time>2025-05-29T11:14:17Z</time>
      </trkpt>
      <trkpt lat="44.5119" lon="1.39334">
        <ele>197.6</ele>
        <time>2025-05-29T11:14:18Z</time>
      </trkpt>
      <trkpt lat="44.51192" lon="1.39336">
        <ele>197.4</ele>
        <time>2025-05-29T11:14:19Z</time>
      </trkpt>
      <trkpt lat="44.51193" lon="1.39339">
        <ele>197.4</ele>
        <time>2025-05-29T11:14:20Z</time>
      </trkpt>
      <trkpt lat="44.51194" lon="1.39342">
        <ele>197.2</ele>
        <time>2025-05-29T11:14:21Z</time>
      </trkpt>
      <trkpt lat="44.51195" lon="1.39344">
        <ele>197</ele>
        <time>2025-05-29T11:14:22Z</time>
      </trkpt>
      <trkpt lat="44.51198" lon="1.39346">
        <ele>196.8</ele>
        <time>2025-05-29T11:14:23Z</time>
      </trkpt>
      <trkpt lat="44.512" lon="1.39347">
        <ele>196.8</ele>
        <time>2025-05-29T11:14:24Z</time>
      </trkpt>
      <trkpt lat="44.51202" lon="1.3935">
        <ele>196.6</ele>
        <time>2025-05-29T11:14:25Z</time>
      </trkpt>
      <trkpt lat="44.51204" lon="1.39352">
        <ele>196.6</ele>
        <time>2025-05-29T11:14:26Z</time>
      </trkpt>
      <trkpt lat="44.51206" lon="1.39355">
        <ele>196.4</ele>
        <time>2025-05-29T11:14:27Z</time>
      </trkpt>
      <trkpt lat="44.51208" lon="1.39359">
        <ele>196.4</ele>
        <time>2025-05-29T11:14:28Z</time>
      </trkpt>
      <trkpt lat="44.51211" lon="1.39361">
        <ele>196.2</ele>
        <time>2025-05-29T11:14:29Z</time>
      </trkpt>
      <trkpt lat="44.51213" lon="1.39363">
        <ele>196</ele>
        <time>2025-05-29T11:14:30Z</time>
      </trkpt>
      <trkpt lat="44.51216" lon="1.39367">
        <ele>195.8</ele>
        <time>2025-05-29T11:14:31Z</time>
      </trkpt>
      <trkpt lat="44.51219" lon="1.39369">
        <ele>195.6</ele>
        <time>2025-05-29T11:14:32Z</time>
      </trkpt>
      <trkpt lat="44.51221" lon="1.3937">
        <ele>195.4</ele>
        <time>2025-05-29T11:14:33Z</time>
      </trkpt>
      <trkpt lat="44.51223" lon="1.39371">
        <ele>195</ele>
        <time>2025-05-29T11:14:34Z</time>
      </trkpt>
      <trkpt lat="44.51223" lon="1.39372">
        <ele>194.8</ele>
        <time>2025-05-29T11:14:35Z</time>
      </trkpt>
      <trkpt lat="44.51224" lon="1.39373">
        <ele>194.6</ele>
        <time>2025-05-29T11:14:36Z</time>
      </trkpt>
      <trkpt lat="44.51223" lon="1.39373">
        <ele>194.4</ele>
        <time>2025-05-29T11:14:37Z</time>
      </trkpt>
      <trkpt lat="44.51228" lon="1.39382">
        <ele>194</ele>
        <time>2025-05-29T11:14:52Z</time>
      </trkpt>
      <trkpt lat="44.51229" lon="1.39385">
        <ele>193.8</ele>
        <time>2025-05-29T11:14:53Z</time>
      </trkpt>
      <trkpt lat="44.51231" lon="1.39386">
        <ele>193.8</ele>
        <time>2025-05-29T11:14:54Z</time>
      </trkpt>
      <trkpt lat="44.51233" lon="1.39389">
        <ele>193.8</ele>
        <time>2025-05-29T11:14:55Z</time>
      </trkpt>
      <trkpt lat="44.51235" lon="1.39392">
        <ele>193.6</ele>
        <time>2025-05-29T11:14:56Z</time>
      </trkpt>
      <trkpt lat="44.51237" lon="1.39396">
        <ele>193.6</ele>
        <time>2025-05-29T11:14:57Z</time>
      </trkpt>
      <trkpt lat="44.5124" lon="1.39398">
        <ele>193.4</ele>
        <time>2025-05-29T11:14:58Z</time>
      </trkpt>
      <trkpt lat="44.51243" lon="1.39401">
        <ele>193.2</ele>
        <time>2025-05-29T11:14:59Z</time>
      </trkpt>
      <trkpt lat="44.51247" lon="1.39403">
        <ele>193</ele>
        <time>2025-05-29T11:15:00Z</time>
      </trkpt>
      <trkpt lat="44.51249" lon="1.39407">
        <ele>192.8</ele>
        <time>2025-05-29T11:15:01Z</time>
      </trkpt>
      <trkpt lat="44.51252" lon="1.39412">
        <ele>192.6</ele>
        <time>2025-05-29T11:15:02Z</time>
      </trkpt>
      <trkpt lat="44.51255" lon="1.39416">
        <ele>192.2</ele>
        <time>2025-05-29T11:15:03Z</time>
      </trkpt>
      <trkpt lat="44.51259" lon="1.3942">
        <ele>191.8</ele>
        <time>2025-05-29T11:15:04Z</time>
      </trkpt>
      <trkpt lat="44.51262" lon="1.39425">
        <ele>191.6</ele>
        <time>2025-05-29T11:15:05Z</time>
      </trkpt>
      <trkpt lat="44.51264" lon="1.3943">
        <ele>191.2</ele>
        <time>2025-05-29T11:15:06Z</time>
      </trkpt>
      <trkpt lat="44.51267" lon="1.39434">
        <ele>190.8</ele>
        <time>2025-05-29T11:15:07Z</time>
      </trkpt>
      <trkpt lat="44.51271" lon="1.39437">
        <ele>190.6</ele>
        <time>2025-05-29T11:15:08Z</time>
      </trkpt>
      <trkpt lat="44.51273" lon="1.39441">
        <ele>190.4</ele>
        <time>2025-05-29T11:15:09Z</time>
      </trkpt>
      <trkpt lat="44.51276" lon="1.39445">
        <ele>190.2</ele>
        <time>2025-05-29T11:15:10Z</time>
      </trkpt>
      <trkpt lat="44.51278" lon="1.39449">
        <ele>190</ele>
        <time>2025-05-29T11:15:11Z</time>
      </trkpt>
      <trkpt lat="44.51279" lon="1.39453">
        <ele>189.8</ele>
        <time>2025-05-29T11:15:12Z</time>
      </trkpt>
      <trkpt lat="44.5128" lon="1.39457">
        <ele>189.8</ele>
        <time>2025-05-29T11:15:13Z</time>
      </trkpt>
      <trkpt lat="44.51281" lon="1.39461">
        <ele>189.8</ele>
        <time>2025-05-29T11:15:14Z</time>
      </trkpt>
      <trkpt lat="44.51283" lon="1.39465">
        <ele>189.8</ele>
        <time>2025-05-29T11:15:15Z</time>
      </trkpt>
      <trkpt lat="44.51285" lon="1.39468">
        <ele>190</ele>
        <time>2025-05-29T11:15:16Z</time>
      </trkpt>
      <trkpt lat="44.51286" lon="1.3947">
        <ele>190.2</ele>
        <time>2025-05-29T11:15:17Z</time>
      </trkpt>
      <trkpt lat="44.51288" lon="1.39473">
        <ele>190.2</ele>
        <time>2025-05-29T11:15:18Z</time>
      </trkpt>
      <trkpt lat="44.5129" lon="1.39475">
        <ele>190.4</ele>
        <time>2025-05-29T11:15:19Z</time>
      </trkpt>
      <trkpt lat="44.51292" lon="1.39478">
        <ele>190.6</ele>
        <time>2025-05-29T11:15:20Z</time>
      </trkpt>
      <trkpt lat="44.51294" lon="1.39482">
        <ele>190.6</ele>
        <time>2025-05-29T11:15:21Z</time>
      </trkpt>
      <trkpt lat="44.51296" lon="1.39485">
        <ele>190.8</ele>
        <time>2025-05-29T11:15:22Z</time>
      </trkpt>
      <trkpt lat="44.51298" lon="1.39487">
        <ele>190.8</ele>
        <time>2025-05-29T11:15:23Z</time>
      </trkpt>
      <trkpt lat="44.51301" lon="1.39489">
        <ele>190.6</ele>
        <time>2025-05-29T11:15:24Z</time>
      </trkpt>
      <trkpt lat="44.51304" lon="1.39493">
        <ele>190.6</ele>
        <time>2025-05-29T11:15:25Z</time>
      </trkpt>
      <trkpt lat="44.51307" lon="1.39496">
        <ele>190.4</ele>
        <time>2025-05-29T11:15:26Z</time>
      </trkpt>
      <trkpt lat="44.5131" lon="1.395">
        <ele>190.2</ele>
        <time>2025-05-29T11:15:27Z</time>
      </trkpt>
      <trkpt lat="44.51314" lon="1.39504">
        <ele>190</ele>
        <time>2025-05-29T11:15:28Z</time>
      </trkpt>
      <trkpt lat="44.51317" lon="1.39507">
        <ele>189.8</ele>
        <time>2025-05-29T11:15:29Z</time>
      </trkpt>
      <trkpt lat="44.5132" lon="1.39511">
        <ele>189.4</ele>
        <time>2025-05-29T11:15:30Z</time>
      </trkpt>
      <trkpt lat="44.51323" lon="1.39515">
        <ele>189.2</ele>
        <time>2025-05-29T11:15:31Z</time>
      </trkpt>
      <trkpt lat="44.51325" lon="1.39519">
        <ele>189</ele>
        <time>2025-05-29T11:15:32Z</time>
      </trkpt>
      <trkpt lat="44.51327" lon="1.39522">
        <ele>188.8</ele>
        <time>2025-05-29T11:15:33Z</time>
      </trkpt>
      <trkpt lat="44.51328" lon="1.39525">
        <ele>188.8</ele>
        <time>2025-05-29T11:15:34Z</time>
      </trkpt>
      <trkpt lat="44.5133" lon="1.39527">
        <ele>188.8</ele>
        <time>2025-05-29T11:15:35Z</time>
      </trkpt>
      <trkpt lat="44.51331" lon="1.3953">
        <ele>189</ele>
        <time>2025-05-29T11:15:36Z</time>
      </trkpt>
      <trkpt lat="44.51332" lon="1.39532">
        <ele>189.2</ele>
        <time>2025-05-29T11:15:37Z</time>
      </trkpt>
      <trkpt lat="44.51333" lon="1.39536">
        <ele>189.2</ele>
        <time>2025-05-29T11:15:38Z</time>
      </trkpt>
      <trkpt lat="44.51334" lon="1.39538">
        <ele>189.4</ele>
        <time>2025-05-29T11:15:39Z</time>
      </trkpt>
      <trkpt lat="44.51335" lon="1.39541">
        <ele>189.4</ele>
        <time>2025-05-29T11:15:40Z</time>
      </trkpt>
      <trkpt lat="44.51336" lon="1.39544">
        <ele>189.6</ele>
        <time>2025-05-29T11:15:41Z</time>
      </trkpt>
      <trkpt lat="44.51337" lon="1.39547">
        <ele>189.6</ele>
        <time>2025-05-29T11:15:42Z</time>
      </trkpt>
      <trkpt lat="44.51338" lon="1.3955">
        <ele>189.8</ele>
        <time>2025-05-29T11:15:43Z</time>
      </trkpt>
      <trkpt lat="44.51338" lon="1.39553">
        <ele>190</ele>
        <time>2025-05-29T11:15:44Z</time>
      </trkpt>
      <trkpt lat="44.51339" lon="1.39556">
        <ele>190.2</ele>
        <time>2025-05-29T11:15:45Z</time>
      </trkpt>
      <trkpt lat="44.5134" lon="1.39559">
        <ele>190.2</ele>
        <time>2025-05-29T11:15:46Z</time>
      </trkpt>
      <trkpt lat="44.51341" lon="1.39562">
        <ele>190.4</ele>
        <time>2025-05-29T11:15:47Z</time>
      </trkpt>
      <trkpt lat="44.51342" lon="1.39565">
        <ele>190.6</ele>
        <time>2025-05-29T11:15:48Z</time>
      </trkpt>
      <trkpt lat="44.51344" lon="1.39567">
        <ele>190.6</ele>
        <time>2025-05-29T11:15:49Z</time>
      </trkpt>
      <trkpt lat="44.51345" lon="1.3957">
        <ele>190.8</ele>
        <time>2025-05-29T11:15:50Z</time>
      </trkpt>
      <trkpt lat="44.51346" lon="1.39573">
        <ele>190.8</ele>
        <time>2025-05-29T11:15:51Z</time>
      </trkpt>
      <trkpt lat="44.51347" lon="1.39576">
        <ele>190.8</ele>
        <time>2025-05-29T11:15:52Z</time>
      </trkpt>
      <trkpt lat="44.51348" lon="1.39579">
        <ele>191</ele>
        <time>2025-05-29T11:15:53Z</time>
      </trkpt>
      <trkpt lat="44.51349" lon="1.39582">
        <ele>191</ele>
        <time>2025-05-29T11:15:54Z</time>
      </trkpt>
      <trkpt lat="44.51349" lon="1.39586">
        <ele>191</ele>
        <time>2025-05-29T11:15:55Z</time>
      </trkpt>
      <trkpt lat="44.5135" lon="1.39589">
        <ele>191.2</ele>
        <time>2025-05-29T11:15:56Z</time>
      </trkpt>
      <trkpt lat="44.51351" lon="1.39592">
        <ele>191.2</ele>
        <time>2025-05-29T11:15:57Z</time>
      </trkpt>
      <trkpt lat="44.51352" lon="1.39595">
        <ele>191.4</ele>
        <time>2025-05-29T11:15:58Z</time>
      </trkpt>
      <trkpt lat="44.51352" lon="1.39598">
        <ele>191.6</ele>
        <time>2025-05-29T11:15:59Z</time>
      </trkpt>
      <trkpt lat="44.51353" lon="1.39601">
        <ele>191.6</ele>
        <time>2025-05-29T11:16:00Z</time>
      </trkpt>
      <trkpt lat="44.51354" lon="1.39603">
        <ele>191.8</ele>
        <time>2025-05-29T11:16:01Z</time>
      </trkpt>
      <trkpt lat="44.51354" lon="1.39606">
        <ele>192</ele>
        <time>2025-05-29T11:16:02Z</time>
      </trkpt>
      <trkpt lat="44.51355" lon="1.39609">
        <ele>192.2</ele>
        <time>2025-05-29T11:16:03Z</time>
      </trkpt>
      <trkpt lat="44.51356" lon="1.39612">
        <ele>192.2</ele>
        <time>2025-05-29T11:16:04Z</time>
      </trkpt>
      <trkpt lat="44.51357" lon="1.39615">
        <ele>192.4</ele>
        <time>2025-05-29T11:16:05Z</time>
      </trkpt>
      <trkpt lat="44.51358" lon="1.39617">
        <ele>192.4</ele>
        <time>2025-05-29T11:16:06Z</time>
      </trkpt>
      <trkpt lat="44.51359" lon="1.3962">
        <ele>192.4</ele>
        <time>2025-05-29T11:16:07Z</time>
      </trkpt>
      <trkpt lat="44.51359" lon="1.39623">
        <ele>192.6</ele>
        <time>2025-05-29T11:16:08Z</time>
      </trkpt>
      <trkpt lat="44.51359" lon="1.39626">
        <ele>192.6</ele>
        <time>2025-05-29T11:16:09Z</time>
      </trkpt>
      <trkpt lat="44.51359" lon="1.39628">
        <ele>192.6</ele>
        <time>2025-05-29T11:16:10Z</time>
      </trkpt>
      <trkpt lat="44.5136" lon="1.39631">
        <ele>192.8</ele>
        <time>2025-05-29T11:16:11Z</time>
      </trkpt>
      <trkpt lat="44.51361" lon="1.39633">
        <ele>192.8</ele>
        <time>2025-05-29T11:16:12Z</time>
      </trkpt>
      <trkpt lat="44.51362" lon="1.39636">
        <ele>193</ele>
        <time>2025-05-29T11:16:13Z</time>
      </trkpt>
      <trkpt lat="44.51362" lon="1.39639">
        <ele>193.2</ele>
        <time>2025-05-29T11:16:14Z</time>
      </trkpt>
      <trkpt lat="44.51362" lon="1.39642">
        <ele>193.2</ele>
        <time>2025-05-29T11:16:15Z</time>
      </trkpt>
      <trkpt lat="44.51363" lon="1.39645">
        <ele>193.4</ele>
        <time>2025-05-29T11:16:16Z</time>
      </trkpt>
      <trkpt lat="44.51363" lon="1.39647">
        <ele>193.6</ele>
        <time>2025-05-29T11:16:17Z</time>
      </trkpt>
      <trkpt lat="44.51364" lon="1.39649">
        <ele>193.8</ele>
        <time>2025-05-29T11:16:18Z</time>
      </trkpt>
      <trkpt lat="44.51364" lon="1.39652">
        <ele>193.8</ele>
        <time>2025-05-29T11:16:19Z</time>
      </trkpt>
      <trkpt lat="44.51364" lon="1.39655">
        <ele>194</ele>
        <time>2025-05-29T11:16:20Z</time>
      </trkpt>
      <trkpt lat="44.51365" lon="1.39657">
        <ele>194.2</ele>
        <time>2025-05-29T11:16:21Z</time>
      </trkpt>
      <trkpt lat="44.51366" lon="1.3966">
        <ele>194.4</ele>
        <time>2025-05-29T11:16:22Z</time>
      </trkpt>
      <trkpt lat="44.51366" lon="1.39663">
        <ele>194.4</ele>
        <time>2025-05-29T11:16:23Z</time>
      </trkpt>
      <trkpt lat="44.51367" lon="1.39665">
        <ele>194.8</ele>
        <time>2025-05-29T11:16:24Z</time>
      </trkpt>
      <trkpt lat="44.51368" lon="1.39667">
        <ele>195</ele>
        <time>2025-05-29T11:16:25Z</time>
      </trkpt>
      <trkpt lat="44.51368" lon="1.3967">
        <ele>195.2</ele>
        <time>2025-05-29T11:16:26Z</time>
      </trkpt>
      <trkpt lat="44.51369" lon="1.39674">
        <ele>195.4</ele>
        <time>2025-05-29T11:16:27Z</time>
      </trkpt>
      <trkpt lat="44.5137" lon="1.39676">
        <ele>195.4</ele>
        <time>2025-05-29T11:16:28Z</time>
      </trkpt>
      <trkpt lat="44.51371" lon="1.39679">
        <ele>195.4</ele>
        <time>2025-05-29T11:16:29Z</time>
      </trkpt>
      <trkpt lat="44.51373" lon="1.39682">
        <ele>195.2</ele>
        <time>2025-05-29T11:16:30Z</time>
      </trkpt>
      <trkpt lat="44.51373" lon="1.39686">
        <ele>195.2</ele>
        <time>2025-05-29T11:16:31Z</time>
      </trkpt>
      <trkpt lat="44.51374" lon="1.39689">
        <ele>195.2</ele>
        <time>2025-05-29T11:16:32Z</time>
      </trkpt>
      <trkpt lat="44.51375" lon="1.39691">
        <ele>195.2</ele>
        <time>2025-05-29T11:16:33Z</time>
      </trkpt>
      <trkpt lat="44.51375" lon="1.39695">
        <ele>195.2</ele>
        <time>2025-05-29T11:16:34Z</time>
      </trkpt>
      <trkpt lat="44.51376" lon="1.39698">
        <ele>195.2</ele>
        <time>2025-05-29T11:16:35Z</time>
      </trkpt>
      <trkpt lat="44.51377" lon="1.397">
        <ele>195.4</ele>
        <time>2025-05-29T11:16:36Z</time>
      </trkpt>
      <trkpt lat="44.51377" lon="1.39704">
        <ele>195.4</ele>
        <time>2025-05-29T11:16:37Z</time>
      </trkpt>
      <trkpt lat="44.51378" lon="1.39708">
        <ele>195.4</ele>
        <time>2025-05-29T11:16:38Z</time>
      </trkpt>
      <trkpt lat="44.51379" lon="1.39711">
        <ele>195.4</ele>
        <time>2025-05-29T11:16:39Z</time>
      </trkpt>
      <trkpt lat="44.51379" lon="1.39715">
        <ele>195.4</ele>
        <time>2025-05-29T11:16:40Z</time>
      </trkpt>
      <trkpt lat="44.5138" lon="1.39719">
        <ele>195.2</ele>
        <time>2025-05-29T11:16:41Z</time>
      </trkpt>
      <trkpt lat="44.5138" lon="1.39723">
        <ele>195.2</ele>
        <time>2025-05-29T11:16:42Z</time>
      </trkpt>
      <trkpt lat="44.5138" lon="1.39727">
        <ele>195.2</ele>
        <time>2025-05-29T11:16:43Z</time>
      </trkpt>
      <trkpt lat="44.51381" lon="1.3973">
        <ele>195.2</ele>
        <time>2025-05-29T11:16:44Z</time>
      </trkpt>
      <trkpt lat="44.51381" lon="1.39734">
        <ele>195.4</ele>
        <time>2025-05-29T11:16:45Z</time>
      </trkpt>
      <trkpt lat="44.51382" lon="1.39737">
        <ele>195.4</ele>
        <time>2025-05-29T11:16:46Z</time>
      </trkpt>
      <trkpt lat="44.51383" lon="1.39741">
        <ele>195.4</ele>
        <time>2025-05-29T11:16:47Z</time>
      </trkpt>
      <trkpt lat="44.51384" lon="1.39746">
        <ele>195.4</ele>
        <time>2025-05-29T11:16:48Z</time>
      </trkpt>
      <trkpt lat="44.51383" lon="1.3975">
        <ele>195.4</ele>
        <time>2025-05-29T11:16:49Z</time>
      </trkpt>
      <trkpt lat="44.51383" lon="1.39753">
        <ele>195.4</ele>
        <time>2025-05-29T11:16:50Z</time>
      </trkpt>
      <trkpt lat="44.51383" lon="1.39757">
        <ele>195.4</ele>
        <time>2025-05-29T11:16:51Z</time>
      </trkpt>
      <trkpt lat="44.51383" lon="1.3976">
        <ele>195.6</ele>
        <time>2025-05-29T11:16:52Z</time>
      </trkpt>
      <trkpt lat="44.51383" lon="1.39764">
        <ele>195.8</ele>
        <time>2025-05-29T11:16:53Z</time>
      </trkpt>
      <trkpt lat="44.51383" lon="1.39766">
        <ele>196</ele>
        <time>2025-05-29T11:16:54Z</time>
      </trkpt>
      <trkpt lat="44.51382" lon="1.39769">
        <ele>196.2</ele>
        <time>2025-05-29T11:16:55Z</time>
      </trkpt>
      <trkpt lat="44.51382" lon="1.39771">
        <ele>196.4</ele>
        <time>2025-05-29T11:16:56Z</time>
      </trkpt>
      <trkpt lat="44.51381" lon="1.39774">
        <ele>196.4</ele>
        <time>2025-05-29T11:16:57Z</time>
      </trkpt>
      <trkpt lat="44.51381" lon="1.39777">
        <ele>196.6</ele>
        <time>2025-05-29T11:16:58Z</time>
      </trkpt>
      <trkpt lat="44.5138" lon="1.3978">
        <ele>196.8</ele>
        <time>2025-05-29T11:16:59Z</time>
      </trkpt>
      <trkpt lat="44.51379" lon="1.39783">
        <ele>197</ele>
        <time>2025-05-29T11:17:00Z</time>
      </trkpt>
      <trkpt lat="44.51379" lon="1.39786">
        <ele>197</ele>
        <time>2025-05-29T11:17:01Z</time>
      </trkpt>
      <trkpt lat="44.51379" lon="1.39789">
        <ele>197.2</ele>
        <time>2025-05-29T11:17:02Z</time>
      </trkpt>
      <trkpt lat="44.51379" lon="1.39791">
        <ele>197.4</ele>
        <time>2025-05-29T11:17:03Z</time>
      </trkpt>
      <trkpt lat="44.51379" lon="1.39795">
        <ele>197.4</ele>
        <time>2025-05-29T11:17:04Z</time>
      </trkpt>
      <trkpt lat="44.51378" lon="1.39798">
        <ele>197.6</ele>
        <time>2025-05-29T11:17:05Z</time>
      </trkpt>
      <trkpt lat="44.51377" lon="1.39801">
        <ele>197.6</ele>
        <time>2025-05-29T11:17:06Z</time>
      </trkpt>
      <trkpt lat="44.51377" lon="1.39803">
        <ele>197.8</ele>
        <time>2025-05-29T11:17:07Z</time>
      </trkpt>
      <trkpt lat="44.51377" lon="1.39806">
        <ele>197.8</ele>
        <time>2025-05-29T11:17:08Z</time>
      </trkpt>
      <trkpt lat="44.51377" lon="1.39809">
        <ele>197.8</ele>
        <time>2025-05-29T11:17:09Z</time>
      </trkpt>
      <trkpt lat="44.51377" lon="1.39813">
        <ele>198</ele>
        <time>2025-05-29T11:17:10Z</time>
      </trkpt>
      <trkpt lat="44.51376" lon="1.39815">
        <ele>198</ele>
        <time>2025-05-29T11:17:11Z</time>
      </trkpt>
      <trkpt lat="44.51376" lon="1.39818">
        <ele>198</ele>
        <time>2025-05-29T11:17:12Z</time>
      </trkpt>
      <trkpt lat="44.51375" lon="1.39821">
        <ele>198.2</ele>
        <time>2025-05-29T11:17:13Z</time>
      </trkpt>
      <trkpt lat="44.51375" lon="1.39823">
        <ele>198.2</ele>
        <time>2025-05-29T11:17:14Z</time>
      </trkpt>
      <trkpt lat="44.51375" lon="1.39827">
        <ele>198.2</ele>
        <time>2025-05-29T11:17:15Z</time>
      </trkpt>
      <trkpt lat="44.51374" lon="1.3983">
        <ele>198.2</ele>
        <time>2025-05-29T11:17:16Z</time>
      </trkpt>
      <trkpt lat="44.51374" lon="1.39832">
        <ele>198.2</ele>
        <time>2025-05-29T11:17:17Z</time>
      </trkpt>
      <trkpt lat="44.51373" lon="1.39835">
        <ele>198.4</ele>
        <time>2025-05-29T11:17:18Z</time>
      </trkpt>
      <trkpt lat="44.51373" lon="1.39837">
        <ele>198.4</ele>
        <time>2025-05-29T11:17:19Z</time>
      </trkpt>
      <trkpt lat="44.51373" lon="1.3984">
        <ele>198.6</ele>
        <time>2025-05-29T11:17:20Z</time>
      </trkpt>
      <trkpt lat="44.51372" lon="1.39843">
        <ele>198.6</ele>
        <time>2025-05-29T11:17:21Z</time>
      </trkpt>
      <trkpt lat="44.51372" lon="1.39845">
        <ele>198.8</ele>
        <time>2025-05-29T11:17:22Z</time>
      </trkpt>
      <trkpt lat="44.51371" lon="1.39848">
        <ele>198.8</ele>
        <time>2025-05-29T11:17:23Z</time>
      </trkpt>
      <trkpt lat="44.51371" lon="1.3985">
        <ele>199</ele>
        <time>2025-05-29T11:17:24Z</time>
      </trkpt>
      <trkpt lat="44.51371" lon="1.39852">
        <ele>199</ele>
        <time>2025-05-29T11:17:25Z</time>
      </trkpt>
      <trkpt lat="44.5137" lon="1.39855">
        <ele>199.2</ele>
        <time>2025-05-29T11:17:26Z</time>
      </trkpt>
      <trkpt lat="44.51369" lon="1.39858">
        <ele>199.2</ele>
        <time>2025-05-29T11:17:27Z</time>
      </trkpt>
      <trkpt lat="44.51369" lon="1.39861">
        <ele>199.2</ele>
        <time>2025-05-29T11:17:28Z</time>
      </trkpt>
      <trkpt lat="44.51368" lon="1.39863">
        <ele>199.4</ele>
        <time>2025-05-29T11:17:29Z</time>
      </trkpt>
      <trkpt lat="44.51367" lon="1.39865">
        <ele>199.4</ele>
        <time>2025-05-29T11:17:30Z</time>
      </trkpt>
      <trkpt lat="44.51366" lon="1.39868">
        <ele>199.6</ele>
        <time>2025-05-29T11:17:31Z</time>
      </trkpt>
      <trkpt lat="44.51365" lon="1.3987">
        <ele>199.6</ele>
        <time>2025-05-29T11:17:32Z</time>
      </trkpt>
      <trkpt lat="44.51364" lon="1.39873">
        <ele>199.8</ele>
        <time>2025-05-29T11:17:33Z</time>
      </trkpt>
      <trkpt lat="44.51363" lon="1.39876">
        <ele>199.8</ele>
        <time>2025-05-29T11:17:34Z</time>
      </trkpt>
      <trkpt lat="44.51362" lon="1.39879">
        <ele>200</ele>
        <time>2025-05-29T11:17:35Z</time>
      </trkpt>
      <trkpt lat="44.51362" lon="1.39882">
        <ele>200.2</ele>
        <time>2025-05-29T11:17:36Z</time>
      </trkpt>
      <trkpt lat="44.51361" lon="1.39885">
        <ele>200.2</ele>
        <time>2025-05-29T11:17:37Z</time>
      </trkpt>
      <trkpt lat="44.5136" lon="1.39888">
        <ele>200.4</ele>
        <time>2025-05-29T11:17:38Z</time>
      </trkpt>
      <trkpt lat="44.51359" lon="1.39891">
        <ele>200.4</ele>
        <time>2025-05-29T11:17:39Z</time>
      </trkpt>
      <trkpt lat="44.51359" lon="1.39894">
        <ele>200.4</ele>
        <time>2025-05-29T11:17:40Z</time>
      </trkpt>
      <trkpt lat="44.51358" lon="1.39897">
        <ele>200.6</ele>
        <time>2025-05-29T11:17:41Z</time>
      </trkpt>
      <trkpt lat="44.51356" lon="1.399">
        <ele>200.6</ele>
        <time>2025-05-29T11:17:42Z</time>
      </trkpt>
      <trkpt lat="44.51356" lon="1.39902">
        <ele>200.6</ele>
        <time>2025-05-29T11:17:43Z</time>
      </trkpt>
      <trkpt lat="44.51356" lon="1.39904">
        <ele>200.8</ele>
        <time>2025-05-29T11:17:44Z</time>
      </trkpt>
      <trkpt lat="44.51356" lon="1.39907">
        <ele>201</ele>
        <time>2025-05-29T11:17:45Z</time>
      </trkpt>
      <trkpt lat="44.51355" lon="1.39911">
        <ele>201.2</ele>
        <time>2025-05-29T11:17:46Z</time>
      </trkpt>
      <trkpt lat="44.51355" lon="1.39913">
        <ele>201.2</ele>
        <time>2025-05-29T11:17:47Z</time>
      </trkpt>
      <trkpt lat="44.51355" lon="1.39916">
        <ele>201.2</ele>
        <time>2025-05-29T11:17:48Z</time>
      </trkpt>
      <trkpt lat="44.51354" lon="1.39919">
        <ele>201.2</ele>
        <time>2025-05-29T11:17:49Z</time>
      </trkpt>
      <trkpt lat="44.51354" lon="1.39922">
        <ele>201.2</ele>
        <time>2025-05-29T11:17:50Z</time>
      </trkpt>
      <trkpt lat="44.51354" lon="1.39925">
        <ele>201</ele>
        <time>2025-05-29T11:17:51Z</time>
      </trkpt>
      <trkpt lat="44.51354" lon="1.39928">
        <ele>201</ele>
        <time>2025-05-29T11:17:52Z</time>
      </trkpt>
      <trkpt lat="44.51354" lon="1.39932">
        <ele>201</ele>
        <time>2025-05-29T11:17:53Z</time>
      </trkpt>
      <trkpt lat="44.51354" lon="1.39935">
        <ele>200.8</ele>
        <time>2025-05-29T11:17:54Z</time>
      </trkpt>
      <trkpt lat="44.51353" lon="1.39938">
        <ele>200.8</ele>
        <time>2025-05-29T11:17:55Z</time>
      </trkpt>
      <trkpt lat="44.51353" lon="1.3994">
        <ele>201</ele>
        <time>2025-05-29T11:17:56Z</time>
      </trkpt>
      <trkpt lat="44.51352" lon="1.39943">
        <ele>201</ele>
        <time>2025-05-29T11:17:57Z</time>
      </trkpt>
      <trkpt lat="44.51352" lon="1.39946">
        <ele>201.2</ele>
        <time>2025-05-29T11:17:58Z</time>
      </trkpt>
      <trkpt lat="44.51351" lon="1.39949">
        <ele>201.4</ele>
        <time>2025-05-29T11:17:59Z</time>
      </trkpt>
      <trkpt lat="44.5135" lon="1.39952">
        <ele>201.4</ele>
        <time>2025-05-29T11:18:00Z</time>
      </trkpt>
      <trkpt lat="44.51349" lon="1.39954">
        <ele>201.6</ele>
        <time>2025-05-29T11:18:01Z</time>
      </trkpt>
      <trkpt lat="44.51348" lon="1.39956">
        <ele>201.8</ele>
        <time>2025-05-29T11:18:02Z</time>
      </trkpt>
      <trkpt lat="44.51347" lon="1.39959">
        <ele>202</ele>
        <time>2025-05-29T11:18:03Z</time>
      </trkpt>
      <trkpt lat="44.51347" lon="1.39961">
        <ele>202.2</ele>
        <time>2025-05-29T11:18:04Z</time>
      </trkpt>
      <trkpt lat="44.51347" lon="1.39964">
        <ele>202.4</ele>
        <time>2025-05-29T11:18:05Z</time>
      </trkpt>
      <trkpt lat="44.51346" lon="1.39966">
        <ele>202.6</ele>
        <time>2025-05-29T11:18:06Z</time>
      </trkpt>
      <trkpt lat="44.51346" lon="1.39969">
        <ele>202.8</ele>
        <time>2025-05-29T11:18:07Z</time>
      </trkpt>
      <trkpt lat="44.51347" lon="1.39972">
        <ele>202.8</ele>
        <time>2025-05-29T11:18:08Z</time>
      </trkpt>
      <trkpt lat="44.51347" lon="1.39976">
        <ele>202.8</ele>
        <time>2025-05-29T11:18:09Z</time>
      </trkpt>
      <trkpt lat="44.51348" lon="1.3998">
        <ele>202.6</ele>
        <time>2025-05-29T11:18:10Z</time>
      </trkpt>
      <trkpt lat="44.51348" lon="1.39985">
        <ele>202.4</ele>
        <time>2025-05-29T11:18:11Z</time>
      </trkpt>
      <trkpt lat="44.51348" lon="1.39989">
        <ele>202.2</ele>
        <time>2025-05-29T11:18:12Z</time>
      </trkpt>
      <trkpt lat="44.51347" lon="1.39994">
        <ele>202</ele>
        <time>2025-05-29T11:18:13Z</time>
      </trkpt>
      <trkpt lat="44.51346" lon="1.39997">
        <ele>201.8</ele>
        <time>2025-05-29T11:18:14Z</time>
      </trkpt>
      <trkpt lat="44.51346" lon="1.4">
        <ele>201.8</ele>
        <time>2025-05-29T11:18:15Z</time>
      </trkpt>
      <trkpt lat="44.51345" lon="1.40003">
        <ele>201.8</ele>
        <time>2025-05-29T11:18:16Z</time>
      </trkpt>
      <trkpt lat="44.51345" lon="1.40005">
        <ele>201.8</ele>
        <time>2025-05-29T11:18:17Z</time>
      </trkpt>
      <trkpt lat="44.51345" lon="1.40008">
        <ele>201.8</ele>
        <time>2025-05-29T11:18:18Z</time>
      </trkpt>
      <trkpt lat="44.51344" lon="1.40011">
        <ele>201.8</ele>
        <time>2025-05-29T11:18:19Z</time>
      </trkpt>
      <trkpt lat="44.51343" lon="1.40014">
        <ele>201.8</ele>
        <time>2025-05-29T11:18:20Z</time>
      </trkpt>
      <trkpt lat="44.51343" lon="1.40017">
        <ele>202</ele>
        <time>2025-05-29T11:18:21Z</time>
      </trkpt>
      <trkpt lat="44.51343" lon="1.4002">
        <ele>202</ele>
        <time>2025-05-29T11:18:22Z</time>
      </trkpt>
      <trkpt lat="44.51343" lon="1.40024">
        <ele>202</ele>
        <time>2025-05-29T11:18:23Z</time>
      </trkpt>
      <trkpt lat="44.51342" lon="1.40027">
        <ele>202</ele>
        <time>2025-05-29T11:18:24Z</time>
      </trkpt>
      <trkpt lat="44.51342" lon="1.4003">
        <ele>202.2</ele>
        <time>2025-05-29T11:18:25Z</time>
      </trkpt>
      <trkpt lat="44.51341" lon="1.40033">
        <ele>202.2</ele>
        <time>2025-05-29T11:18:26Z</time>
      </trkpt>
      <trkpt lat="44.5134" lon="1.40036">
        <ele>202.2</ele>
        <time>2025-05-29T11:18:27Z</time>
      </trkpt>
      <trkpt lat="44.51339" lon="1.40038">
        <ele>202.4</ele>
        <time>2025-05-29T11:18:28Z</time>
      </trkpt>
      <trkpt lat="44.51338" lon="1.40041">
        <ele>202.4</ele>
        <time>2025-05-29T11:18:29Z</time>
      </trkpt>
      <trkpt lat="44.51338" lon="1.40043">
        <ele>202.6</ele>
        <time>2025-05-29T11:18:30Z</time>
      </trkpt>
      <trkpt lat="44.51337" lon="1.40045">
        <ele>202.6</ele>
        <time>2025-05-29T11:18:31Z</time>
      </trkpt>
      <trkpt lat="44.51337" lon="1.40047">
        <ele>202.8</ele>
        <time>2025-05-29T11:18:32Z</time>
      </trkpt>
      <trkpt lat="44.51338" lon="1.4005">
        <ele>202.8</ele>
        <time>2025-05-29T11:18:33Z</time>
      </trkpt>
      <trkpt lat="44.51338" lon="1.40054">
        <ele>202.6</ele>
        <time>2025-05-29T11:18:34Z</time>
      </trkpt>
      <trkpt lat="44.51339" lon="1.40059">
        <ele>202.6</ele>
        <time>2025-05-29T11:18:35Z</time>
      </trkpt>
      <trkpt lat="44.51338" lon="1.40064">
        <ele>202.4</ele>
        <time>2025-05-29T11:18:36Z</time>
      </trkpt>
      <trkpt lat="44.51336" lon="1.40066">
        <ele>202.2</ele>
        <time>2025-05-29T11:18:37Z</time>
      </trkpt>
      <trkpt lat="44.51335" lon="1.40068">
        <ele>202</ele>
        <time>2025-05-29T11:18:38Z</time>
      </trkpt>
      <trkpt lat="44.51333" lon="1.4007">
        <ele>201.8</ele>
        <time>2025-05-29T11:18:39Z</time>
      </trkpt>
      <trkpt lat="44.51332" lon="1.40071">
        <ele>201.8</ele>
        <time>2025-05-29T11:18:40Z</time>
      </trkpt>
      <trkpt lat="44.5133" lon="1.40073">
        <ele>202</ele>
        <time>2025-05-29T11:18:41Z</time>
      </trkpt>
      <trkpt lat="44.51329" lon="1.40074">
        <ele>202.2</ele>
        <time>2025-05-29T11:18:42Z</time>
      </trkpt>
      <trkpt lat="44.51329" lon="1.40073">
        <ele>202.4</ele>
        <time>2025-05-29T11:18:43Z</time>
      </trkpt>
      <trkpt lat="44.51328" lon="1.40073">
        <ele>202.6</ele>
        <time>2025-05-29T11:18:44Z</time>
      </trkpt>
      <trkpt lat="44.51315" lon="1.40082">
        <ele>205.4</ele>
        <time>2025-05-29T11:19:06Z</time>
      </trkpt>
      <trkpt lat="44.51314" lon="1.40083">
        <ele>205.2</ele>
        <time>2025-05-29T11:19:07Z</time>
      </trkpt>
      <trkpt lat="44.51312" lon="1.40085">
        <ele>205.2</ele>
        <time>2025-05-29T11:19:08Z</time>
      </trkpt>
      <trkpt lat="44.5131" lon="1.40086">
        <ele>205.2</ele>
        <time>2025-05-29T11:19:09Z</time>
      </trkpt>
      <trkpt lat="44.51309" lon="1.40087">
        <ele>205.2</ele>
        <time>2025-05-29T11:19:10Z</time>
      </trkpt>
      <trkpt lat="44.51307" lon="1.40089">
        <ele>205.2</ele>
        <time>2025-05-29T11:19:11Z</time>
      </trkpt>
      <trkpt lat="44.51305" lon="1.40092">
        <ele>205</ele>
        <time>2025-05-29T11:19:12Z</time>
      </trkpt>
      <trkpt lat="44.51302" lon="1.40095">
        <ele>205</ele>
        <time>2025-05-29T11:19:13Z</time>
      </trkpt>
      <trkpt lat="44.513" lon="1.40098">
        <ele>204.8</ele>
        <time>2025-05-29T11:19:14Z</time>
      </trkpt>
      <trkpt lat="44.51298" lon="1.401">
        <ele>204.8</ele>
        <time>2025-05-29T11:19:15Z</time>
      </trkpt>
      <trkpt lat="44.51296" lon="1.40103">
        <ele>204.6</ele>
        <time>2025-05-29T11:19:16Z</time>
      </trkpt>
      <trkpt lat="44.51295" lon="1.40105">
        <ele>204.6</ele>
        <time>2025-05-29T11:19:17Z</time>
      </trkpt>
      <trkpt lat="44.51293" lon="1.40108">
        <ele>204.8</ele>
        <time>2025-05-29T11:19:18Z</time>
      </trkpt>
      <trkpt lat="44.51291" lon="1.4011">
        <ele>205</ele>
        <time>2025-05-29T11:19:19Z</time>
      </trkpt>
      <trkpt lat="44.5129" lon="1.40112">
        <ele>205.2</ele>
        <time>2025-05-29T11:19:20Z</time>
      </trkpt>
      <trkpt lat="44.51289" lon="1.40114">
        <ele>205.4</ele>
        <time>2025-05-29T11:19:21Z</time>
      </trkpt>
      <trkpt lat="44.51288" lon="1.40116">
        <ele>205.8</ele>
        <time>2025-05-29T11:19:22Z</time>
      </trkpt>
      <trkpt lat="44.51288" lon="1.40118">
        <ele>206</ele>
        <time>2025-05-29T11:19:23Z</time>
      </trkpt>
      <trkpt lat="44.51288" lon="1.4012">
        <ele>206</ele>
        <time>2025-05-29T11:19:24Z</time>
      </trkpt>
      <trkpt lat="44.51289" lon="1.40123">
        <ele>206</ele>
        <time>2025-05-29T11:19:25Z</time>
      </trkpt>
      <trkpt lat="44.51291" lon="1.40125">
        <ele>206</ele>
        <time>2025-05-29T11:19:26Z</time>
      </trkpt>
      <trkpt lat="44.51294" lon="1.40128">
        <ele>205.6</ele>
        <time>2025-05-29T11:19:27Z</time>
      </trkpt>
      <trkpt lat="44.51296" lon="1.40132">
        <ele>205.2</ele>
        <time>2025-05-29T11:19:28Z</time>
      </trkpt>
      <trkpt lat="44.51297" lon="1.40136">
        <ele>204.8</ele>
        <time>2025-05-29T11:19:29Z</time>
      </trkpt>
      <trkpt lat="44.51297" lon="1.40139">
        <ele>204.6</ele>
        <time>2025-05-29T11:19:30Z</time>
      </trkpt>
      <trkpt lat="44.51297" lon="1.40139">
        <ele>204.4</ele>
        <time>2025-05-29T11:19:31Z</time>
      </trkpt>
      <trkpt lat="44.51297" lon="1.4014">
        <ele>204.4</ele>
        <time>2025-05-29T11:19:32Z</time>
      </trkpt>
      <trkpt lat="44.51304" lon="1.4016">
        <ele>207.2</ele>
        <time>2025-05-29T11:20:14Z</time>
      </trkpt>
      <trkpt lat="44.51305" lon="1.40162">
        <ele>207.2</ele>
        <time>2025-05-29T11:20:15Z</time>
      </trkpt>
      <trkpt lat="44.51306" lon="1.40165">
        <ele>207.2</ele>
        <time>2025-05-29T11:20:16Z</time>
      </trkpt>
      <trkpt lat="44.51307" lon="1.40168">
        <ele>207.2</ele>
        <time>2025-05-29T11:20:17Z</time>
      </trkpt>
      <trkpt lat="44.51308" lon="1.40172">
        <ele>207</ele>
        <time>2025-05-29T11:20:18Z</time>
      </trkpt>
      <trkpt lat="44.51308" lon="1.40176">
        <ele>207</ele>
        <time>2025-05-29T11:20:19Z</time>
      </trkpt>
      <trkpt lat="44.51307" lon="1.40179">
        <ele>207.2</ele>
        <time>2025-05-29T11:20:20Z</time>
      </trkpt>
      <trkpt lat="44.51307" lon="1.40182">
        <ele>207.2</ele>
        <time>2025-05-29T11:20:21Z</time>
      </trkpt>
      <trkpt lat="44.51307" lon="1.40185">
        <ele>207.2</ele>
        <time>2025-05-29T11:20:22Z</time>
      </trkpt>
      <trkpt lat="44.51308" lon="1.40189">
        <ele>207.4</ele>
        <time>2025-05-29T11:20:23Z</time>
      </trkpt>
      <trkpt lat="44.51308" lon="1.40192">
        <ele>207.6</ele>
        <time>2025-05-29T11:20:24Z</time>
      </trkpt>
      <trkpt lat="44.51309" lon="1.40196">
        <ele>207.6</ele>
        <time>2025-05-29T11:20:25Z</time>
      </trkpt>
      <trkpt lat="44.51309" lon="1.402">
        <ele>207.8</ele>
        <time>2025-05-29T11:20:26Z</time>
      </trkpt>
      <trkpt lat="44.5131" lon="1.40205">
        <ele>207.8</ele>
        <time>2025-05-29T11:20:27Z</time>
      </trkpt>
      <trkpt lat="44.5131" lon="1.4021">
        <ele>207.6</ele>
        <time>2025-05-29T11:20:28Z</time>
      </trkpt>
      <trkpt lat="44.5131" lon="1.40214">
        <ele>207.6</ele>
        <time>2025-05-29T11:20:29Z</time>
      </trkpt>
      <trkpt lat="44.51309" lon="1.40218">
        <ele>207.4</ele>
        <time>2025-05-29T11:20:30Z</time>
      </trkpt>
      <trkpt lat="44.51308" lon="1.40221">
        <ele>207.4</ele>
        <time>2025-05-29T11:20:31Z</time>
      </trkpt>
      <trkpt lat="44.51308" lon="1.40223">
        <ele>207.4</ele>
        <time>2025-05-29T11:20:32Z</time>
      </trkpt>
      <trkpt lat="44.51308" lon="1.40225">
        <ele>207.6</ele>
        <time>2025-05-29T11:20:33Z</time>
      </trkpt>
      <trkpt lat="44.51308" lon="1.40226">
        <ele>207.8</ele>
        <time>2025-05-29T11:20:34Z</time>
      </trkpt>
      <trkpt lat="44.51308" lon="1.40229">
        <ele>208</ele>
        <time>2025-05-29T11:20:35Z</time>
      </trkpt>
      <trkpt lat="44.51307" lon="1.40232">
        <ele>208</ele>
        <time>2025-05-29T11:20:36Z</time>
      </trkpt>
      <trkpt lat="44.51307" lon="1.40235">
        <ele>208</ele>
        <time>2025-05-29T11:20:37Z</time>
      </trkpt>
      <trkpt lat="44.51306" lon="1.40238">
        <ele>207.8</ele>
        <time>2025-05-29T11:20:38Z</time>
      </trkpt>
      <trkpt lat="44.51305" lon="1.40241">
        <ele>207.8</ele>
        <time>2025-05-29T11:20:39Z</time>
      </trkpt>
      <trkpt lat="44.51304" lon="1.40243">
        <ele>207.8</ele>
        <time>2025-05-29T11:20:40Z</time>
      </trkpt>
      <trkpt lat="44.51303" lon="1.40247">
        <ele>207.8</ele>
        <time>2025-05-29T11:20:41Z</time>
      </trkpt>
      <trkpt lat="44.51302" lon="1.4025">
        <ele>207.8</ele>
        <time>2025-05-29T11:20:42Z</time>
      </trkpt>
      <trkpt lat="44.51301" lon="1.40252">
        <ele>207.8</ele>
        <time>2025-05-29T11:20:43Z</time>
      </trkpt>
      <trkpt lat="44.513" lon="1.40254">
        <ele>208</ele>
        <time>2025-05-29T11:20:44Z</time>
      </trkpt>
      <trkpt lat="44.513" lon="1.40257">
        <ele>208</ele>
        <time>2025-05-29T11:20:45Z</time>
      </trkpt>
      <trkpt lat="44.51299" lon="1.4026">
        <ele>208</ele>
        <time>2025-05-29T11:20:46Z</time>
      </trkpt>
      <trkpt lat="44.51299" lon="1.40263">
        <ele>208</ele>
        <time>2025-05-29T11:20:47Z</time>
      </trkpt>
      <trkpt lat="44.51298" lon="1.40267">
        <ele>208</ele>
        <time>2025-05-29T11:20:48Z</time>
      </trkpt>
      <trkpt lat="44.51299" lon="1.40271">
        <ele>208</ele>
        <time>2025-05-29T11:20:49Z</time>
      </trkpt>
      <trkpt lat="44.513" lon="1.40273">
        <ele>207.8</ele>
        <time>2025-05-29T11:20:50Z</time>
      </trkpt>
      <trkpt lat="44.51302" lon="1.40274">
        <ele>207.8</ele>
        <time>2025-05-29T11:20:51Z</time>
      </trkpt>
      <trkpt lat="44.51304" lon="1.40275">
        <ele>207.6</ele>
        <time>2025-05-29T11:20:52Z</time>
      </trkpt>
      <trkpt lat="44.51306" lon="1.40276">
        <ele>207.4</ele>
        <time>2025-05-29T11:20:53Z</time>
      </trkpt>
      <trkpt lat="44.51308" lon="1.40277">
        <ele>207.2</ele>
        <time>2025-05-29T11:20:54Z</time>
      </trkpt>
      <trkpt lat="44.5131" lon="1.40278">
        <ele>207</ele>
        <time>2025-05-29T11:20:55Z</time>
      </trkpt>
      <trkpt lat="44.51312" lon="1.4028">
        <ele>206.6</ele>
        <time>2025-05-29T11:20:56Z</time>
      </trkpt>
      <trkpt lat="44.51313" lon="1.40281">
        <ele>206.4</ele>
        <time>2025-05-29T11:20:57Z</time>
      </trkpt>
      <trkpt lat="44.51315" lon="1.40282">
        <ele>206.2</ele>
        <time>2025-05-29T11:20:58Z</time>
      </trkpt>
      <trkpt lat="44.51316" lon="1.40284">
        <ele>206</ele>
        <time>2025-05-29T11:20:59Z</time>
      </trkpt>
      <trkpt lat="44.51317" lon="1.40286">
        <ele>206</ele>
        <time>2025-05-29T11:21:00Z</time>
      </trkpt>
      <trkpt lat="44.51318" lon="1.40289">
        <ele>206</ele>
        <time>2025-05-29T11:21:01Z</time>
      </trkpt>
      <trkpt lat="44.51318" lon="1.40291">
        <ele>206</ele>
        <time>2025-05-29T11:21:02Z</time>
      </trkpt>
      <trkpt lat="44.51318" lon="1.40293">
        <ele>206</ele>
        <time>2025-05-29T11:21:03Z</time>
      </trkpt>
      <trkpt lat="44.51318" lon="1.40296">
        <ele>206.2</ele>
        <time>2025-05-29T11:21:04Z</time>
      </trkpt>
      <trkpt lat="44.51319" lon="1.40298">
        <ele>206.4</ele>
        <time>2025-05-29T11:21:05Z</time>
      </trkpt>
      <trkpt lat="44.51319" lon="1.403">
        <ele>206.6</ele>
        <time>2025-05-29T11:21:06Z</time>
      </trkpt>
      <trkpt lat="44.5132" lon="1.40302">
        <ele>206.8</ele>
        <time>2025-05-29T11:21:07Z</time>
      </trkpt>
      <trkpt lat="44.5132" lon="1.40304">
        <ele>207</ele>
        <time>2025-05-29T11:21:08Z</time>
      </trkpt>
      <trkpt lat="44.5132" lon="1.40306">
        <ele>207.2</ele>
        <time>2025-05-29T11:21:09Z</time>
      </trkpt>
      <trkpt lat="44.5132" lon="1.40308">
        <ele>207.4</ele>
        <time>2025-05-29T11:21:10Z</time>
      </trkpt>
      <trkpt lat="44.51321" lon="1.40311">
        <ele>207.6</ele>
        <time>2025-05-29T11:21:11Z</time>
      </trkpt>
      <trkpt lat="44.51321" lon="1.40313">
        <ele>207.8</ele>
        <time>2025-05-29T11:21:12Z</time>
      </trkpt>
      <trkpt lat="44.51321" lon="1.40316">
        <ele>208</ele>
        <time>2025-05-29T11:21:13Z</time>
      </trkpt>
      <trkpt lat="44.51321" lon="1.40318">
        <ele>208.2</ele>
        <time>2025-05-29T11:21:14Z</time>
      </trkpt>
      <trkpt lat="44.51321" lon="1.40321">
        <ele>208.2</ele>
        <time>2025-05-29T11:21:15Z</time>
      </trkpt>
      <trkpt lat="44.51321" lon="1.40323">
        <ele>208.4</ele>
        <time>2025-05-29T11:21:16Z</time>
      </trkpt>
      <trkpt lat="44.51322" lon="1.40326">
        <ele>208.6</ele>
        <time>2025-05-29T11:21:17Z</time>
      </trkpt>
      <trkpt lat="44.51321" lon="1.40328">
        <ele>208.8</ele>
        <time>2025-05-29T11:21:18Z</time>
      </trkpt>
      <trkpt lat="44.51321" lon="1.40331">
        <ele>209</ele>
        <time>2025-05-29T11:21:19Z</time>
      </trkpt>
      <trkpt lat="44.5132" lon="1.40334">
        <ele>209</ele>
        <time>2025-05-29T11:21:20Z</time>
      </trkpt>
      <trkpt lat="44.51319" lon="1.40337">
        <ele>209.2</ele>
        <time>2025-05-29T11:21:21Z</time>
      </trkpt>
      <trkpt lat="44.51319" lon="1.40339">
        <ele>209.4</ele>
        <time>2025-05-29T11:21:22Z</time>
      </trkpt>
      <trkpt lat="44.51319" lon="1.40342">
        <ele>209.8</ele>
        <time>2025-05-29T11:21:23Z</time>
      </trkpt>
      <trkpt lat="44.51319" lon="1.40346">
        <ele>209.8</ele>
        <time>2025-05-29T11:21:24Z</time>
      </trkpt>
      <trkpt lat="44.51318" lon="1.40348">
        <ele>210</ele>
        <time>2025-05-29T11:21:25Z</time>
      </trkpt>
      <trkpt lat="44.51318" lon="1.40351">
        <ele>210</ele>
        <time>2025-05-29T11:21:26Z</time>
      </trkpt>
      <trkpt lat="44.51318" lon="1.40354">
        <ele>210.2</ele>
        <time>2025-05-29T11:21:27Z</time>
      </trkpt>
      <trkpt lat="44.51318" lon="1.40357">
        <ele>210.2</ele>
        <time>2025-05-29T11:21:28Z</time>
      </trkpt>
      <trkpt lat="44.51318" lon="1.4036">
        <ele>210.4</ele>
        <time>2025-05-29T11:21:29Z</time>
      </trkpt>
      <trkpt lat="44.51318" lon="1.40362">
        <ele>210.6</ele>
        <time>2025-05-29T11:21:30Z</time>
      </trkpt>
      <trkpt lat="44.51318" lon="1.40365">
        <ele>210.6</ele>
        <time>2025-05-29T11:21:31Z</time>
      </trkpt>
      <trkpt lat="44.51317" lon="1.40367">
        <ele>211</ele>
        <time>2025-05-29T11:21:32Z</time>
      </trkpt>
      <trkpt lat="44.51316" lon="1.40369">
        <ele>211.2</ele>
        <time>2025-05-29T11:21:33Z</time>
      </trkpt>
      <trkpt lat="44.51315" lon="1.40372">
        <ele>211.4</ele>
        <time>2025-05-29T11:21:34Z</time>
      </trkpt>
      <trkpt lat="44.51315" lon="1.40374">
        <ele>211.6</ele>
        <time>2025-05-29T11:21:35Z</time>
      </trkpt>
      <trkpt lat="44.51314" lon="1.40376">
        <ele>211.6</ele>
        <time>2025-05-29T11:21:36Z</time>
      </trkpt>
      <trkpt lat="44.51314" lon="1.40379">
        <ele>211.8</ele>
        <time>2025-05-29T11:21:37Z</time>
      </trkpt>
      <trkpt lat="44.51314" lon="1.40381">
        <ele>212</ele>
        <time>2025-05-29T11:21:38Z</time>
      </trkpt>
      <trkpt lat="44.51314" lon="1.40382">
        <ele>212</ele>
        <time>2025-05-29T11:21:39Z</time>
      </trkpt>
      <trkpt lat="44.51314" lon="1.40384">
        <ele>212.2</ele>
        <time>2025-05-29T11:21:40Z</time>
      </trkpt>
      <trkpt lat="44.51314" lon="1.40385">
        <ele>212.4</ele>
        <time>2025-05-29T11:21:41Z</time>
      </trkpt>
      <trkpt lat="44.51314" lon="1.40387">
        <ele>212.6</ele>
        <time>2025-05-29T11:21:42Z</time>
      </trkpt>
      <trkpt lat="44.51314" lon="1.40388">
        <ele>212.8</ele>
        <time>2025-05-29T11:21:43Z</time>
      </trkpt>
      <trkpt lat="44.51314" lon="1.40389">
        <ele>213</ele>
        <time>2025-05-29T11:21:44Z</time>
      </trkpt>
      <trkpt lat="44.51314" lon="1.40391">
        <ele>213.2</ele>
        <time>2025-05-29T11:21:45Z</time>
      </trkpt>
      <trkpt lat="44.51314" lon="1.40393">
        <ele>213.2</ele>
        <time>2025-05-29T11:21:46Z</time>
      </trkpt>
      <trkpt lat="44.51314" lon="1.40395">
        <ele>213.4</ele>
        <time>2025-05-29T11:21:47Z</time>
      </trkpt>
      <trkpt lat="44.51313" lon="1.40397">
        <ele>213.4</ele>
        <time>2025-05-29T11:21:48Z</time>
      </trkpt>
      <trkpt lat="44.51313" lon="1.40399">
        <ele>213.6</ele>
        <time>2025-05-29T11:21:49Z</time>
      </trkpt>
      <trkpt lat="44.51313" lon="1.40402">
        <ele>213.6</ele>
        <time>2025-05-29T11:21:50Z</time>
      </trkpt>
      <trkpt lat="44.51314" lon="1.40404">
        <ele>213.8</ele>
        <time>2025-05-29T11:21:51Z</time>
      </trkpt>
      <trkpt lat="44.51315" lon="1.40405">
        <ele>213.8</ele>
        <time>2025-05-29T11:21:52Z</time>
      </trkpt>
      <trkpt lat="44.51316" lon="1.40407">
        <ele>214</ele>
        <time>2025-05-29T11:21:53Z</time>
      </trkpt>
      <trkpt lat="44.51316" lon="1.40408">
        <ele>214.2</ele>
        <time>2025-05-29T11:21:54Z</time>
      </trkpt>
      <trkpt lat="44.51316" lon="1.4041">
        <ele>214.4</ele>
        <time>2025-05-29T11:21:55Z</time>
      </trkpt>
      <trkpt lat="44.51317" lon="1.40411">
        <ele>214.6</ele>
        <time>2025-05-29T11:21:56Z</time>
      </trkpt>
      <trkpt lat="44.51317" lon="1.40412">
        <ele>214.8</ele>
        <time>2025-05-29T11:21:57Z</time>
      </trkpt>
      <trkpt lat="44.51317" lon="1.40412">
        <ele>215.2</ele>
        <time>2025-05-29T11:21:58Z</time>
      </trkpt>
      <trkpt lat="44.51321" lon="1.40412">
        <ele>215.8</ele>
        <time>2025-05-29T11:32:00Z</time>
      </trkpt>
      <trkpt lat="44.51323" lon="1.4041">
        <ele>216.2</ele>
        <time>2025-05-29T11:32:01Z</time>
      </trkpt>
      <trkpt lat="44.51326" lon="1.40408">
        <ele>216.2</ele>
        <time>2025-05-29T11:32:02Z</time>
      </trkpt>
      <trkpt lat="44.51326" lon="1.40405">
        <ele>216</ele>
        <time>2025-05-29T11:32:03Z</time>
      </trkpt>
      <trkpt lat="44.51327" lon="1.40401">
        <ele>215.8</ele>
        <time>2025-05-29T11:32:04Z</time>
      </trkpt>
      <trkpt lat="44.51329" lon="1.40397">
        <ele>215.4</ele>
        <time>2025-05-29T11:32:05Z</time>
      </trkpt>
      <trkpt lat="44.5133" lon="1.40393">
        <ele>215</ele>
        <time>2025-05-29T11:32:06Z</time>
      </trkpt>
      <trkpt lat="44.51331" lon="1.4039">
        <ele>214.6</ele>
        <time>2025-05-29T11:32:07Z</time>
      </trkpt>
      <trkpt lat="44.51331" lon="1.40387">
        <ele>214.2</ele>
        <time>2025-05-29T11:32:08Z</time>
      </trkpt>
      <trkpt lat="44.51332" lon="1.40385">
        <ele>214</ele>
        <time>2025-05-29T11:32:09Z</time>
      </trkpt>
      <trkpt lat="44.51334" lon="1.40383">
        <ele>213.8</ele>
        <time>2025-05-29T11:32:10Z</time>
      </trkpt>
      <trkpt lat="44.51335" lon="1.4038">
        <ele>213.6</ele>
        <time>2025-05-29T11:32:11Z</time>
      </trkpt>
      <trkpt lat="44.51336" lon="1.40377">
        <ele>213.4</ele>
        <time>2025-05-29T11:32:12Z</time>
      </trkpt>
      <trkpt lat="44.51337" lon="1.40372">
        <ele>213.2</ele>
        <time>2025-05-29T11:32:13Z</time>
      </trkpt>
      <trkpt lat="44.51339" lon="1.4037">
        <ele>213</ele>
        <time>2025-05-29T11:32:14Z</time>
      </trkpt>
      <trkpt lat="44.51341" lon="1.40368">
        <ele>212.8</ele>
        <time>2025-05-29T11:32:15Z</time>
      </trkpt>
      <trkpt lat="44.51343" lon="1.40368">
        <ele>212.8</ele>
        <time>2025-05-29T11:32:16Z</time>
      </trkpt>
      <trkpt lat="44.51346" lon="1.40368">
        <ele>212.6</ele>
        <time>2025-05-29T11:32:17Z</time>
      </trkpt>
      <trkpt lat="44.51347" lon="1.40368">
        <ele>212.6</ele>
        <time>2025-05-29T11:32:18Z</time>
      </trkpt>
      <trkpt lat="44.51349" lon="1.40367">
        <ele>212.6</ele>
        <time>2025-05-29T11:32:19Z</time>
      </trkpt>
      <trkpt lat="44.5135" lon="1.40365">
        <ele>212.6</ele>
        <time>2025-05-29T11:32:20Z</time>
      </trkpt>
      <trkpt lat="44.51351" lon="1.40363">
        <ele>212.8</ele>
        <time>2025-05-29T11:32:21Z</time>
      </trkpt>
      <trkpt lat="44.51351" lon="1.40361">
        <ele>213</ele>
        <time>2025-05-29T11:32:22Z</time>
      </trkpt>
      <trkpt lat="44.51351" lon="1.40358">
        <ele>213</ele>
        <time>2025-05-29T11:32:23Z</time>
      </trkpt>
      <trkpt lat="44.51352" lon="1.40354">
        <ele>213</ele>
        <time>2025-05-29T11:32:24Z</time>
      </trkpt>
      <trkpt lat="44.51353" lon="1.4035">
        <ele>212.8</ele>
        <time>2025-05-29T11:32:25Z</time>
      </trkpt>
      <trkpt lat="44.51354" lon="1.40346">
        <ele>212.6</ele>
        <time>2025-05-29T11:32:26Z</time>
      </trkpt>
      <trkpt lat="44.51356" lon="1.40341">
        <ele>212.2</ele>
        <time>2025-05-29T11:32:27Z</time>
      </trkpt>
      <trkpt lat="44.51357" lon="1.40337">
        <ele>211.8</ele>
        <time>2025-05-29T11:32:28Z</time>
      </trkpt>
      <trkpt lat="44.51356" lon="1.40333">
        <ele>211.6</ele>
        <time>2025-05-29T11:32:29Z</time>
      </trkpt>
      <trkpt lat="44.51356" lon="1.4033">
        <ele>211.4</ele>
        <time>2025-05-29T11:32:30Z</time>
      </trkpt>
      <trkpt lat="44.51356" lon="1.40327">
        <ele>211.2</ele>
        <time>2025-05-29T11:32:31Z</time>
      </trkpt>
      <trkpt lat="44.51358" lon="1.40326">
        <ele>210.8</ele>
        <time>2025-05-29T11:32:32Z</time>
      </trkpt>
      <trkpt lat="44.5136" lon="1.40325">
        <ele>210.8</ele>
        <time>2025-05-29T11:32:33Z</time>
      </trkpt>
      <trkpt lat="44.51361" lon="1.40324">
        <ele>210.6</ele>
        <time>2025-05-29T11:32:34Z</time>
      </trkpt>
      <trkpt lat="44.51363" lon="1.40321">
        <ele>210.6</ele>
        <time>2025-05-29T11:32:35Z</time>
      </trkpt>
      <trkpt lat="44.51365" lon="1.40319">
        <ele>210.6</ele>
        <time>2025-05-29T11:32:36Z</time>
      </trkpt>
      <trkpt lat="44.51364" lon="1.40315">
        <ele>210.6</ele>
        <time>2025-05-29T11:32:37Z</time>
      </trkpt>
      <trkpt lat="44.51365" lon="1.40311">
        <ele>210.4</ele>
        <time>2025-05-29T11:32:38Z</time>
      </trkpt>
      <trkpt lat="44.51366" lon="1.40309">
        <ele>210.4</ele>
        <time>2025-05-29T11:32:39Z</time>
      </trkpt>
      <trkpt lat="44.51367" lon="1.40308">
        <ele>210.2</ele>
        <time>2025-05-29T11:32:40Z</time>
      </trkpt>
      <trkpt lat="44.51368" lon="1.40307">
        <ele>210.2</ele>
        <time>2025-05-29T11:32:41Z</time>
      </trkpt>
      <trkpt lat="44.51369" lon="1.40305">
        <ele>210</ele>
        <time>2025-05-29T11:32:42Z</time>
      </trkpt>
      <trkpt lat="44.51369" lon="1.40303">
        <ele>210</ele>
        <time>2025-05-29T11:32:43Z</time>
      </trkpt>
      <trkpt lat="44.51369" lon="1.40302">
        <ele>210</ele>
        <time>2025-05-29T11:32:44Z</time>
      </trkpt>
      <trkpt lat="44.51369" lon="1.40303">
        <ele>210</ele>
        <time>2025-05-29T11:32:45Z</time>
      </trkpt>
      <trkpt lat="44.5137" lon="1.40292">
        <ele>210</ele>
        <time>2025-05-29T11:32:51Z</time>
      </trkpt>
      <trkpt lat="44.5137" lon="1.40288">
        <ele>209.8</ele>
        <time>2025-05-29T11:32:52Z</time>
      </trkpt>
      <trkpt lat="44.51372" lon="1.40283">
        <ele>209.4</ele>
        <time>2025-05-29T11:32:53Z</time>
      </trkpt>
      <trkpt lat="44.51372" lon="1.40279">
        <ele>209</ele>
        <time>2025-05-29T11:32:54Z</time>
      </trkpt>
      <trkpt lat="44.51372" lon="1.40275">
        <ele>208.8</ele>
        <time>2025-05-29T11:32:55Z</time>
      </trkpt>
      <trkpt lat="44.51372" lon="1.40272">
        <ele>208.4</ele>
        <time>2025-05-29T11:32:56Z</time>
      </trkpt>
      <trkpt lat="44.51372" lon="1.40269">
        <ele>208</ele>
        <time>2025-05-29T11:32:57Z</time>
      </trkpt>
      <trkpt lat="44.51373" lon="1.40265">
        <ele>207.8</ele>
        <time>2025-05-29T11:32:58Z</time>
      </trkpt>
      <trkpt lat="44.51374" lon="1.40262">
        <ele>207.4</ele>
        <time>2025-05-29T11:32:59Z</time>
      </trkpt>
      <trkpt lat="44.51373" lon="1.40259">
        <ele>207.4</ele>
        <time>2025-05-29T11:33:00Z</time>
      </trkpt>
      <trkpt lat="44.51373" lon="1.40256">
        <ele>207.4</ele>
        <time>2025-05-29T11:33:01Z</time>
      </trkpt>
      <trkpt lat="44.51374" lon="1.40254">
        <ele>207.4</ele>
        <time>2025-05-29T11:33:02Z</time>
      </trkpt>
      <trkpt lat="44.51375" lon="1.40252">
        <ele>207.2</ele>
        <time>2025-05-29T11:33:03Z</time>
      </trkpt>
      <trkpt lat="44.51376" lon="1.4025">
        <ele>207.4</ele>
        <time>2025-05-29T11:33:04Z</time>
      </trkpt>
      <trkpt lat="44.51377" lon="1.40247">
        <ele>207.4</ele>
        <time>2025-05-29T11:33:05Z</time>
      </trkpt>
      <trkpt lat="44.51377" lon="1.40243">
        <ele>207.2</ele>
        <time>2025-05-29T11:33:06Z</time>
      </trkpt>
      <trkpt lat="44.51378" lon="1.4024">
        <ele>207.2</ele>
        <time>2025-05-29T11:33:07Z</time>
      </trkpt>
      <trkpt lat="44.51379" lon="1.40235">
        <ele>207</ele>
        <time>2025-05-29T11:33:08Z</time>
      </trkpt>
      <trkpt lat="44.5138" lon="1.4023">
        <ele>206.6</ele>
        <time>2025-05-29T11:33:09Z</time>
      </trkpt>
      <trkpt lat="44.5138" lon="1.40226">
        <ele>206.4</ele>
        <time>2025-05-29T11:33:10Z</time>
      </trkpt>
      <trkpt lat="44.51381" lon="1.40224">
        <ele>206</ele>
        <time>2025-05-29T11:33:11Z</time>
      </trkpt>
      <trkpt lat="44.51381" lon="1.40222">
        <ele>205.8</ele>
        <time>2025-05-29T11:33:12Z</time>
      </trkpt>
      <trkpt lat="44.51382" lon="1.40219">
        <ele>205.6</ele>
        <time>2025-05-29T11:33:13Z</time>
      </trkpt>
      <trkpt lat="44.51383" lon="1.40217">
        <ele>205.6</ele>
        <time>2025-05-29T11:33:14Z</time>
      </trkpt>
      <trkpt lat="44.51382" lon="1.40214">
        <ele>205.4</ele>
        <time>2025-05-29T11:33:15Z</time>
      </trkpt>
      <trkpt lat="44.51383" lon="1.4021">
        <ele>205.4</ele>
        <time>2025-05-29T11:33:16Z</time>
      </trkpt>
      <trkpt lat="44.51383" lon="1.40205">
        <ele>205.2</ele>
        <time>2025-05-29T11:33:17Z</time>
      </trkpt>
      <trkpt lat="44.51384" lon="1.40202">
        <ele>205</ele>
        <time>2025-05-29T11:33:18Z</time>
      </trkpt>
      <trkpt lat="44.51385" lon="1.40197">
        <ele>204.6</ele>
        <time>2025-05-29T11:33:19Z</time>
      </trkpt>
      <trkpt lat="44.51385" lon="1.40192">
        <ele>204.2</ele>
        <time>2025-05-29T11:33:20Z</time>
      </trkpt>
      <trkpt lat="44.51386" lon="1.40187">
        <ele>203.8</ele>
        <time>2025-05-29T11:33:21Z</time>
      </trkpt>
      <trkpt lat="44.51388" lon="1.40183">
        <ele>203.4</ele>
        <time>2025-05-29T11:33:22Z</time>
      </trkpt>
      <trkpt lat="44.51389" lon="1.4018">
        <ele>203.2</ele>
        <time>2025-05-29T11:33:23Z</time>
      </trkpt>
      <trkpt lat="44.51389" lon="1.40176">
        <ele>202.8</ele>
        <time>2025-05-29T11:33:24Z</time>
      </trkpt>
      <trkpt lat="44.5139" lon="1.40173">
        <ele>202.6</ele>
        <time>2025-05-29T11:33:25Z</time>
      </trkpt>
      <trkpt lat="44.51391" lon="1.4017">
        <ele>202.6</ele>
        <time>2025-05-29T11:33:26Z</time>
      </trkpt>
      <trkpt lat="44.51393" lon="1.40168">
        <ele>202.6</ele>
        <time>2025-05-29T11:33:27Z</time>
      </trkpt>
      <trkpt lat="44.51394" lon="1.40165">
        <ele>202.4</ele>
        <time>2025-05-29T11:33:28Z</time>
      </trkpt>
      <trkpt lat="44.51395" lon="1.40162">
        <ele>202.4</ele>
        <time>2025-05-29T11:33:29Z</time>
      </trkpt>
      <trkpt lat="44.51397" lon="1.4016">
        <ele>202.4</ele>
        <time>2025-05-29T11:33:30Z</time>
      </trkpt>
      <trkpt lat="44.51397" lon="1.40156">
        <ele>202.4</ele>
        <time>2025-05-29T11:33:31Z</time>
      </trkpt>
      <trkpt lat="44.51397" lon="1.40153">
        <ele>202.6</ele>
        <time>2025-05-29T11:33:32Z</time>
      </trkpt>
      <trkpt lat="44.51397" lon="1.40148">
        <ele>202.6</ele>
        <time>2025-05-29T11:33:33Z</time>
      </trkpt>
      <trkpt lat="44.51397" lon="1.40144">
        <ele>202.6</ele>
        <time>2025-05-29T11:33:34Z</time>
      </trkpt>
      <trkpt lat="44.51398" lon="1.40139">
        <ele>202.4</ele>
        <time>2025-05-29T11:33:35Z</time>
      </trkpt>
      <trkpt lat="44.51399" lon="1.40136">
        <ele>202.2</ele>
        <time>2025-05-29T11:33:36Z</time>
      </trkpt>
      <trkpt lat="44.51402" lon="1.40132">
        <ele>201.8</ele>
        <time>2025-05-29T11:33:37Z</time>
      </trkpt>
      <trkpt lat="44.51403" lon="1.40126">
        <ele>201.4</ele>
        <time>2025-05-29T11:33:38Z</time>
      </trkpt>
      <trkpt lat="44.51404" lon="1.40121">
        <ele>201</ele>
        <time>2025-05-29T11:33:39Z</time>
      </trkpt>
      <trkpt lat="44.51404" lon="1.40114">
        <ele>200.6</ele>
        <time>2025-05-29T11:33:40Z</time>
      </trkpt>
      <trkpt lat="44.51405" lon="1.40108">
        <ele>200</ele>
        <time>2025-05-29T11:33:41Z</time>
      </trkpt>
      <trkpt lat="44.51405" lon="1.40102">
        <ele>199.4</ele>
        <time>2025-05-29T11:33:42Z</time>
      </trkpt>
      <trkpt lat="44.51405" lon="1.40095">
        <ele>199</ele>
        <time>2025-05-29T11:33:43Z</time>
      </trkpt>
      <trkpt lat="44.51406" lon="1.40088">
        <ele>198.4</ele>
        <time>2025-05-29T11:33:44Z</time>
      </trkpt>
      <trkpt lat="44.51407" lon="1.40081">
        <ele>197.8</ele>
        <time>2025-05-29T11:33:45Z</time>
      </trkpt>
      <trkpt lat="44.51408" lon="1.40076">
        <ele>197.4</ele>
        <time>2025-05-29T11:33:46Z</time>
      </trkpt>
      <trkpt lat="44.5141" lon="1.40072">
        <ele>196.8</ele>
        <time>2025-05-29T11:33:47Z</time>
      </trkpt>
      <trkpt lat="44.51413" lon="1.40071">
        <ele>196.4</ele>
        <time>2025-05-29T11:33:48Z</time>
      </trkpt>
      <trkpt lat="44.51414" lon="1.40068">
        <ele>196.2</ele>
        <time>2025-05-29T11:33:49Z</time>
      </trkpt>
      <trkpt lat="44.51413" lon="1.40065">
        <ele>196</ele>
        <time>2025-05-29T11:33:50Z</time>
      </trkpt>
      <trkpt lat="44.51413" lon="1.40061">
        <ele>196</ele>
        <time>2025-05-29T11:33:51Z</time>
      </trkpt>
      <trkpt lat="44.51413" lon="1.40057">
        <ele>195.8</ele>
        <time>2025-05-29T11:33:52Z</time>
      </trkpt>
      <trkpt lat="44.51415" lon="1.40054">
        <ele>195.6</ele>
        <time>2025-05-29T11:33:53Z</time>
      </trkpt>
      <trkpt lat="44.51417" lon="1.40052">
        <ele>195.4</ele>
        <time>2025-05-29T11:33:54Z</time>
      </trkpt>
      <trkpt lat="44.51419" lon="1.40052">
        <ele>195.2</ele>
        <time>2025-05-29T11:33:55Z</time>
      </trkpt>
      <trkpt lat="44.5142" lon="1.4005">
        <ele>195.2</ele>
        <time>2025-05-29T11:33:56Z</time>
      </trkpt>
      <trkpt lat="44.51421" lon="1.40048">
        <ele>195.4</ele>
        <time>2025-05-29T11:33:57Z</time>
      </trkpt>
      <trkpt lat="44.51421" lon="1.40045">
        <ele>195.6</ele>
        <time>2025-05-29T11:33:58Z</time>
      </trkpt>
      <trkpt lat="44.51422" lon="1.40043">
        <ele>195.8</ele>
        <time>2025-05-29T11:33:59Z</time>
      </trkpt>
      <trkpt lat="44.51424" lon="1.4004">
        <ele>196</ele>
        <time>2025-05-29T11:34:00Z</time>
      </trkpt>
      <trkpt lat="44.51425" lon="1.40038">
        <ele>196</ele>
        <time>2025-05-29T11:34:01Z</time>
      </trkpt>
      <trkpt lat="44.51426" lon="1.40034">
        <ele>196</ele>
        <time>2025-05-29T11:34:02Z</time>
      </trkpt>
      <trkpt lat="44.51427" lon="1.40032">
        <ele>196</ele>
        <time>2025-05-29T11:34:03Z</time>
      </trkpt>
      <trkpt lat="44.51428" lon="1.4003">
        <ele>196</ele>
        <time>2025-05-29T11:34:04Z</time>
      </trkpt>
      <trkpt lat="44.51428" lon="1.40028">
        <ele>196.2</ele>
        <time>2025-05-29T11:34:05Z</time>
      </trkpt>
      <trkpt lat="44.51428" lon="1.40025">
        <ele>196.2</ele>
        <time>2025-05-29T11:34:06Z</time>
      </trkpt>
      <trkpt lat="44.51429" lon="1.40021">
        <ele>196.2</ele>
        <time>2025-05-29T11:34:07Z</time>
      </trkpt>
      <trkpt lat="44.5143" lon="1.40018">
        <ele>196</ele>
        <time>2025-05-29T11:34:08Z</time>
      </trkpt>
      <trkpt lat="44.51431" lon="1.40015">
        <ele>195.8</ele>
        <time>2025-05-29T11:34:09Z</time>
      </trkpt>
      <trkpt lat="44.51432" lon="1.40013">
        <ele>195.6</ele>
        <time>2025-05-29T11:34:10Z</time>
      </trkpt>
      <trkpt lat="44.51433" lon="1.40011">
        <ele>195.6</ele>
        <time>2025-05-29T11:34:11Z</time>
      </trkpt>
      <trkpt lat="44.51433" lon="1.40008">
        <ele>195.4</ele>
        <time>2025-05-29T11:34:12Z</time>
      </trkpt>
      <trkpt lat="44.51434" lon="1.40004">
        <ele>195.2</ele>
        <time>2025-05-29T11:34:13Z</time>
      </trkpt>
      <trkpt lat="44.51436" lon="1.4">
        <ele>195</ele>
        <time>2025-05-29T11:34:14Z</time>
      </trkpt>
      <trkpt lat="44.51437" lon="1.39996">
        <ele>194.8</ele>
        <time>2025-05-29T11:34:15Z</time>
      </trkpt>
      <trkpt lat="44.51438" lon="1.39992">
        <ele>194.6</ele>
        <time>2025-05-29T11:34:16Z</time>
      </trkpt>
      <trkpt lat="44.5144" lon="1.39988">
        <ele>194.4</ele>
        <time>2025-05-29T11:34:17Z</time>
      </trkpt>
      <trkpt lat="44.51441" lon="1.39985">
        <ele>194.4</ele>
        <time>2025-05-29T11:34:18Z</time>
      </trkpt>
      <trkpt lat="44.51442" lon="1.39982">
        <ele>194.2</ele>
        <time>2025-05-29T11:34:19Z</time>
      </trkpt>
      <trkpt lat="44.51443" lon="1.39979">
        <ele>194.2</ele>
        <time>2025-05-29T11:34:20Z</time>
      </trkpt>
      <trkpt lat="44.51445" lon="1.39977">
        <ele>194.2</ele>
        <time>2025-05-29T11:34:21Z</time>
      </trkpt>
      <trkpt lat="44.51447" lon="1.39975">
        <ele>194.4</ele>
        <time>2025-05-29T11:34:22Z</time>
      </trkpt>
      <trkpt lat="44.51449" lon="1.39974">
        <ele>194.4</ele>
        <time>2025-05-29T11:34:23Z</time>
      </trkpt>
      <trkpt lat="44.51451" lon="1.39974">
        <ele>194.6</ele>
        <time>2025-05-29T11:34:24Z</time>
      </trkpt>
      <trkpt lat="44.51453" lon="1.39973">
        <ele>195</ele>
        <time>2025-05-29T11:34:25Z</time>
      </trkpt>
      <trkpt lat="44.51454" lon="1.39974">
        <ele>195.2</ele>
        <time>2025-05-29T11:34:26Z</time>
      </trkpt>
      <trkpt lat="44.51456" lon="1.39973">
        <ele>195.4</ele>
        <time>2025-05-29T11:34:27Z</time>
      </trkpt>
      <trkpt lat="44.51457" lon="1.39974">
        <ele>195.8</ele>
        <time>2025-05-29T11:34:28Z</time>
      </trkpt>
      <trkpt lat="44.5146" lon="1.39974">
        <ele>196</ele>
        <time>2025-05-29T11:34:29Z</time>
      </trkpt>
      <trkpt lat="44.51462" lon="1.39975">
        <ele>196</ele>
        <time>2025-05-29T11:34:30Z</time>
      </trkpt>
      <trkpt lat="44.51464" lon="1.39976">
        <ele>196</ele>
        <time>2025-05-29T11:34:31Z</time>
      </trkpt>
      <trkpt lat="44.51466" lon="1.39979">
        <ele>196</ele>
        <time>2025-05-29T11:34:32Z</time>
      </trkpt>
      <trkpt lat="44.51468" lon="1.3998">
        <ele>196</ele>
        <time>2025-05-29T11:34:33Z</time>
      </trkpt>
      <trkpt lat="44.5147" lon="1.3998">
        <ele>196.2</ele>
        <time>2025-05-29T11:34:34Z</time>
      </trkpt>
      <trkpt lat="44.51471" lon="1.3998">
        <ele>196.4</ele>
        <time>2025-05-29T11:34:35Z</time>
      </trkpt>
      <trkpt lat="44.51472" lon="1.3998">
        <ele>196.4</ele>
        <time>2025-05-29T11:34:36Z</time>
      </trkpt>
      <trkpt lat="44.51473" lon="1.3998">
        <ele>196.6</ele>
        <time>2025-05-29T11:34:37Z</time>
      </trkpt>
      <trkpt lat="44.51473" lon="1.3998">
        <ele>196.8</ele>
        <time>2025-05-29T11:34:38Z</time>
      </trkpt>
      <trkpt lat="44.51484" lon="1.39981">
        <ele>197.2</ele>
        <time>2025-05-29T11:34:48Z</time>
      </trkpt>
      <trkpt lat="44.51485" lon="1.39981">
        <ele>197.4</ele>
        <time>2025-05-29T11:34:49Z</time>
      </trkpt>
      <trkpt lat="44.51486" lon="1.39981">
        <ele>197.6</ele>
        <time>2025-05-29T11:34:50Z</time>
      </trkpt>
      <trkpt lat="44.51487" lon="1.39981">
        <ele>198</ele>
        <time>2025-05-29T11:34:51Z</time>
      </trkpt>
      <trkpt lat="44.51489" lon="1.39981">
        <ele>198.2</ele>
        <time>2025-05-29T11:34:52Z</time>
      </trkpt>
      <trkpt lat="44.5149" lon="1.39981">
        <ele>198.4</ele>
        <time>2025-05-29T11:34:53Z</time>
      </trkpt>
      <trkpt lat="44.51491" lon="1.39981">
        <ele>198.6</ele>
        <time>2025-05-29T11:34:54Z</time>
      </trkpt>
      <trkpt lat="44.51492" lon="1.39979">
        <ele>198.8</ele>
        <time>2025-05-29T11:34:55Z</time>
      </trkpt>
      <trkpt lat="44.51493" lon="1.39977">
        <ele>199.2</ele>
        <time>2025-05-29T11:34:56Z</time>
      </trkpt>
      <trkpt lat="44.51493" lon="1.39975">
        <ele>199.2</ele>
        <time>2025-05-29T11:34:57Z</time>
      </trkpt>
      <trkpt lat="44.51493" lon="1.39973">
        <ele>199.4</ele>
        <time>2025-05-29T11:34:58Z</time>
      </trkpt>
      <trkpt lat="44.51492" lon="1.39971">
        <ele>199.4</ele>
        <time>2025-05-29T11:34:59Z</time>
      </trkpt>
      <trkpt lat="44.51492" lon="1.3997">
        <ele>199.4</ele>
        <time>2025-05-29T11:35:00Z</time>
      </trkpt>
      <trkpt lat="44.51492" lon="1.39967">
        <ele>199.4</ele>
        <time>2025-05-29T11:35:01Z</time>
      </trkpt>
      <trkpt lat="44.51492" lon="1.39965">
        <ele>199.2</ele>
        <time>2025-05-29T11:35:02Z</time>
      </trkpt>
      <trkpt lat="44.51492" lon="1.39962">
        <ele>199</ele>
        <time>2025-05-29T11:35:03Z</time>
      </trkpt>
      <trkpt lat="44.51492" lon="1.3996">
        <ele>198.8</ele>
        <time>2025-05-29T11:35:04Z</time>
      </trkpt>
      <trkpt lat="44.51493" lon="1.3996">
        <ele>198.6</ele>
        <time>2025-05-29T11:35:05Z</time>
      </trkpt>
      <trkpt lat="44.51493" lon="1.3996">
        <ele>198.6</ele>
        <time>2025-05-29T11:35:06Z</time>
      </trkpt>
      <trkpt lat="44.51493" lon="1.39959">
        <ele>198.6</ele>
        <time>2025-05-29T11:35:07Z</time>
      </trkpt>
      <trkpt lat="44.51494" lon="1.39958">
        <ele>198.6</ele>
        <time>2025-05-29T11:35:08Z</time>
      </trkpt>
      <trkpt lat="44.51495" lon="1.39952">
        <ele>198.4</ele>
        <time>2025-05-29T11:35:15Z</time>
      </trkpt>
      <trkpt lat="44.51496" lon="1.39949">
        <ele>198.4</ele>
        <time>2025-05-29T11:35:16Z</time>
      </trkpt>
      <trkpt lat="44.51496" lon="1.39946">
        <ele>198.4</ele>
        <time>2025-05-29T11:35:17Z</time>
      </trkpt>
      <trkpt lat="44.51496" lon="1.39943">
        <ele>198.4</ele>
        <time>2025-05-29T11:35:18Z</time>
      </trkpt>
      <trkpt lat="44.51496" lon="1.3994">
        <ele>198.4</ele>
        <time>2025-05-29T11:35:19Z</time>
      </trkpt>
      <trkpt lat="44.51496" lon="1.39937">
        <ele>198.4</ele>
        <time>2025-05-29T11:35:20Z</time>
      </trkpt>
      <trkpt lat="44.51496" lon="1.39934">
        <ele>198.4</ele>
        <time>2025-05-29T11:35:21Z</time>
      </trkpt>
      <trkpt lat="44.51495" lon="1.39931">
        <ele>198.4</ele>
        <time>2025-05-29T11:35:22Z</time>
      </trkpt>
      <trkpt lat="44.51494" lon="1.39928">
        <ele>198.4</ele>
        <time>2025-05-29T11:35:23Z</time>
      </trkpt>
      <trkpt lat="44.51494" lon="1.39924">
        <ele>198.2</ele>
        <time>2025-05-29T11:35:24Z</time>
      </trkpt>
      <trkpt lat="44.51494" lon="1.39921">
        <ele>198.2</ele>
        <time>2025-05-29T11:35:25Z</time>
      </trkpt>
      <trkpt lat="44.51495" lon="1.39919">
        <ele>198</ele>
        <time>2025-05-29T11:35:26Z</time>
      </trkpt>
      <trkpt lat="44.51494" lon="1.39919">
        <ele>198</ele>
        <time>2025-05-29T11:35:27Z</time>
      </trkpt>
      <trkpt lat="44.51494" lon="1.39919">
        <ele>198.2</ele>
        <time>2025-05-29T11:35:28Z</time>
      </trkpt>
      <trkpt lat="44.51493" lon="1.3991">
        <ele>199</ele>
        <time>2025-05-29T11:35:42Z</time>
      </trkpt>
      <trkpt lat="44.51493" lon="1.39908">
        <ele>199</ele>
        <time>2025-05-29T11:35:43Z</time>
      </trkpt>
      <trkpt lat="44.51492" lon="1.39905">
        <ele>199</ele>
        <time>2025-05-29T11:35:44Z</time>
      </trkpt>
      <trkpt lat="44.51492" lon="1.39903">
        <ele>199</ele>
        <time>2025-05-29T11:35:45Z</time>
      </trkpt>
      <trkpt lat="44.51491" lon="1.399">
        <ele>199.2</ele>
        <time>2025-05-29T11:35:46Z</time>
      </trkpt>
      <trkpt lat="44.5149" lon="1.39898">
        <ele>199.2</ele>
        <time>2025-05-29T11:35:47Z</time>
      </trkpt>
      <trkpt lat="44.51488" lon="1.39895">
        <ele>199.2</ele>
        <time>2025-05-29T11:35:48Z</time>
      </trkpt>
      <trkpt lat="44.51488" lon="1.39891">
        <ele>199.2</ele>
        <time>2025-05-29T11:35:49Z</time>
      </trkpt>
      <trkpt lat="44.51487" lon="1.39888">
        <ele>199.2</ele>
        <time>2025-05-29T11:35:50Z</time>
      </trkpt>
      <trkpt lat="44.51487" lon="1.39885">
        <ele>199</ele>
        <time>2025-05-29T11:35:51Z</time>
      </trkpt>
      <trkpt lat="44.51487" lon="1.39882">
        <ele>199</ele>
        <time>2025-05-29T11:35:52Z</time>
      </trkpt>
      <trkpt lat="44.51487" lon="1.3988">
        <ele>199</ele>
        <time>2025-05-29T11:35:53Z</time>
      </trkpt>
      <trkpt lat="44.51487" lon="1.39878">
        <ele>199.2</ele>
        <time>2025-05-29T11:35:54Z</time>
      </trkpt>
      <trkpt lat="44.51487" lon="1.39876">
        <ele>199.4</ele>
        <time>2025-05-29T11:35:55Z</time>
      </trkpt>
      <trkpt lat="44.51487" lon="1.39872">
        <ele>199.4</ele>
        <time>2025-05-29T11:35:56Z</time>
      </trkpt>
      <trkpt lat="44.51488" lon="1.3987">
        <ele>199.4</ele>
        <time>2025-05-29T11:35:57Z</time>
      </trkpt>
      <trkpt lat="44.51487" lon="1.39867">
        <ele>199.6</ele>
        <time>2025-05-29T11:35:58Z</time>
      </trkpt>
      <trkpt lat="44.51487" lon="1.39864">
        <ele>199.6</ele>
        <time>2025-05-29T11:35:59Z</time>
      </trkpt>
      <trkpt lat="44.51486" lon="1.3986">
        <ele>199.6</ele>
        <time>2025-05-29T11:36:00Z</time>
      </trkpt>
      <trkpt lat="44.51487" lon="1.39857">
        <ele>199.6</ele>
        <time>2025-05-29T11:36:01Z</time>
      </trkpt>
      <trkpt lat="44.51487" lon="1.39854">
        <ele>199.8</ele>
        <time>2025-05-29T11:36:02Z</time>
      </trkpt>
      <trkpt lat="44.51488" lon="1.39852">
        <ele>199.8</ele>
        <time>2025-05-29T11:36:03Z</time>
      </trkpt>
      <trkpt lat="44.51489" lon="1.39849">
        <ele>200</ele>
        <time>2025-05-29T11:36:04Z</time>
      </trkpt>
      <trkpt lat="44.5149" lon="1.39846">
        <ele>200</ele>
        <time>2025-05-29T11:36:05Z</time>
      </trkpt>
      <trkpt lat="44.51491" lon="1.39844">
        <ele>200.2</ele>
        <time>2025-05-29T11:36:06Z</time>
      </trkpt>
      <trkpt lat="44.51491" lon="1.39842">
        <ele>200.4</ele>
        <time>2025-05-29T11:36:07Z</time>
      </trkpt>
      <trkpt lat="44.51492" lon="1.3984">
        <ele>200.6</ele>
        <time>2025-05-29T11:36:08Z</time>
      </trkpt>
      <trkpt lat="44.51493" lon="1.39838">
        <ele>200.8</ele>
        <time>2025-05-29T11:36:09Z</time>
      </trkpt>
      <trkpt lat="44.51494" lon="1.39836">
        <ele>201</ele>
        <time>2025-05-29T11:36:10Z</time>
      </trkpt>
      <trkpt lat="44.51495" lon="1.39834">
        <ele>201.2</ele>
        <time>2025-05-29T11:36:11Z</time>
      </trkpt>
      <trkpt lat="44.51495" lon="1.39832">
        <ele>201.4</ele>
        <time>2025-05-29T11:36:12Z</time>
      </trkpt>
      <trkpt lat="44.51496" lon="1.3983">
        <ele>201.6</ele>
        <time>2025-05-29T11:36:13Z</time>
      </trkpt>
      <trkpt lat="44.51497" lon="1.39828">
        <ele>201.8</ele>
        <time>2025-05-29T11:36:14Z</time>
      </trkpt>
      <trkpt lat="44.51497" lon="1.39826">
        <ele>202</ele>
        <time>2025-05-29T11:36:15Z</time>
      </trkpt>
      <trkpt lat="44.51498" lon="1.39823">
        <ele>202.2</ele>
        <time>2025-05-29T11:36:16Z</time>
      </trkpt>
      <trkpt lat="44.51499" lon="1.39821">
        <ele>202.4</ele>
        <time>2025-05-29T11:36:17Z</time>
      </trkpt>
      <trkpt lat="44.515" lon="1.3982">
        <ele>202.4</ele>
        <time>2025-05-29T11:36:18Z</time>
      </trkpt>
      <trkpt lat="44.51501" lon="1.39819">
        <ele>202.6</ele>
        <time>2025-05-29T11:36:19Z</time>
      </trkpt>
      <trkpt lat="44.51501" lon="1.39817">
        <ele>202.6</ele>
        <time>2025-05-29T11:36:20Z</time>
      </trkpt>
      <trkpt lat="44.51502" lon="1.39815">
        <ele>202.6</ele>
        <time>2025-05-29T11:36:21Z</time>
      </trkpt>
      <trkpt lat="44.51503" lon="1.39813">
        <ele>202.8</ele>
        <time>2025-05-29T11:36:22Z</time>
      </trkpt>
      <trkpt lat="44.51503" lon="1.39811">
        <ele>203</ele>
        <time>2025-05-29T11:36:23Z</time>
      </trkpt>
      <trkpt lat="44.51505" lon="1.39809">
        <ele>203</ele>
        <time>2025-05-29T11:36:24Z</time>
      </trkpt>
      <trkpt lat="44.51505" lon="1.39808">
        <ele>203</ele>
        <time>2025-05-29T11:36:25Z</time>
      </trkpt>
      <trkpt lat="44.51506" lon="1.39808">
        <ele>203.2</ele>
        <time>2025-05-29T11:36:26Z</time>
      </trkpt>
      <trkpt lat="44.51506" lon="1.39807">
        <ele>203.4</ele>
        <time>2025-05-29T11:36:27Z</time>
      </trkpt>
      <trkpt lat="44.51507" lon="1.39805">
        <ele>203.6</ele>
        <time>2025-05-29T11:36:28Z</time>
      </trkpt>
      <trkpt lat="44.51507" lon="1.39804">
        <ele>203.8</ele>
        <time>2025-05-29T11:36:29Z</time>
      </trkpt>
      <trkpt lat="44.51508" lon="1.39802">
        <ele>204</ele>
        <time>2025-05-29T11:36:30Z</time>
      </trkpt>
      <trkpt lat="44.51509" lon="1.39801">
        <ele>204</ele>
        <time>2025-05-29T11:36:31Z</time>
      </trkpt>
      <trkpt lat="44.5151" lon="1.398">
        <ele>204</ele>
        <time>2025-05-29T11:36:32Z</time>
      </trkpt>
      <trkpt lat="44.51511" lon="1.39799">
        <ele>204</ele>
        <time>2025-05-29T11:36:33Z</time>
      </trkpt>
      <trkpt lat="44.51512" lon="1.39798">
        <ele>204</ele>
        <time>2025-05-29T11:36:34Z</time>
      </trkpt>
      <trkpt lat="44.51513" lon="1.39797">
        <ele>204.2</ele>
        <time>2025-05-29T11:36:35Z</time>
      </trkpt>
      <trkpt lat="44.51514" lon="1.39796">
        <ele>204.4</ele>
        <time>2025-05-29T11:36:36Z</time>
      </trkpt>
      <trkpt lat="44.51515" lon="1.39795">
        <ele>204.6</ele>
        <time>2025-05-29T11:36:37Z</time>
      </trkpt>
      <trkpt lat="44.51515" lon="1.39793">
        <ele>204.8</ele>
        <time>2025-05-29T11:36:38Z</time>
      </trkpt>
      <trkpt lat="44.51517" lon="1.3979">
        <ele>205</ele>
        <time>2025-05-29T11:36:39Z</time>
      </trkpt>
      <trkpt lat="44.51518" lon="1.39787">
        <ele>205.2</ele>
        <time>2025-05-29T11:36:40Z</time>
      </trkpt>
      <trkpt lat="44.51518" lon="1.39784">
        <ele>205.2</ele>
        <time>2025-05-29T11:36:41Z</time>
      </trkpt>
      <trkpt lat="44.51519" lon="1.39782">
        <ele>205.2</ele>
        <time>2025-05-29T11:36:42Z</time>
      </trkpt>
      <trkpt lat="44.51519" lon="1.3978">
        <ele>205.2</ele>
        <time>2025-05-29T11:36:43Z</time>
      </trkpt>
      <trkpt lat="44.51519" lon="1.39778">
        <ele>205.2</ele>
        <time>2025-05-29T11:36:44Z</time>
      </trkpt>
      <trkpt lat="44.51519" lon="1.39776">
        <ele>205.4</ele>
        <time>2025-05-29T11:36:45Z</time>
      </trkpt>
      <trkpt lat="44.51519" lon="1.39774">
        <ele>205.4</ele>
        <time>2025-05-29T11:36:46Z</time>
      </trkpt>
      <trkpt lat="44.51519" lon="1.39772">
        <ele>205.6</ele>
        <time>2025-05-29T11:36:47Z</time>
      </trkpt>
      <trkpt lat="44.51519" lon="1.39771">
        <ele>205.8</ele>
        <time>2025-05-29T11:36:48Z</time>
      </trkpt>
      <trkpt lat="44.51519" lon="1.39768">
        <ele>205.8</ele>
        <time>2025-05-29T11:36:49Z</time>
      </trkpt>
      <trkpt lat="44.51519" lon="1.39766">
        <ele>206</ele>
        <time>2025-05-29T11:36:50Z</time>
      </trkpt>
      <trkpt lat="44.51518" lon="1.39764">
        <ele>206</ele>
        <time>2025-05-29T11:36:51Z</time>
      </trkpt>
      <trkpt lat="44.51518" lon="1.39762">
        <ele>206.2</ele>
        <time>2025-05-29T11:36:52Z</time>
      </trkpt>
      <trkpt lat="44.51518" lon="1.3976">
        <ele>206.4</ele>
        <time>2025-05-29T11:36:53Z</time>
      </trkpt>
      <trkpt lat="44.51517" lon="1.39759">
        <ele>206.6</ele>
        <time>2025-05-29T11:36:54Z</time>
      </trkpt>
      <trkpt lat="44.51516" lon="1.39756">
        <ele>206.6</ele>
        <time>2025-05-29T11:36:55Z</time>
      </trkpt>
      <trkpt lat="44.51516" lon="1.39754">
        <ele>206.8</ele>
        <time>2025-05-29T11:36:56Z</time>
      </trkpt>
      <trkpt lat="44.51515" lon="1.39752">
        <ele>207</ele>
        <time>2025-05-29T11:36:57Z</time>
      </trkpt>
      <trkpt lat="44.51515" lon="1.39748">
        <ele>207</ele>
        <time>2025-05-29T11:36:58Z</time>
      </trkpt>
      <trkpt lat="44.51515" lon="1.39746">
        <ele>207.2</ele>
        <time>2025-05-29T11:36:59Z</time>
      </trkpt>
      <trkpt lat="44.51514" lon="1.39744">
        <ele>207.4</ele>
        <time>2025-05-29T11:37:00Z</time>
      </trkpt>
      <trkpt lat="44.51514" lon="1.39741">
        <ele>207.4</ele>
        <time>2025-05-29T11:37:01Z</time>
      </trkpt>
      <trkpt lat="44.51514" lon="1.39739">
        <ele>207.4</ele>
        <time>2025-05-29T11:37:02Z</time>
      </trkpt>
      <trkpt lat="44.51514" lon="1.39737">
        <ele>207.4</ele>
        <time>2025-05-29T11:37:03Z</time>
      </trkpt>
      <trkpt lat="44.51515" lon="1.39735">
        <ele>207.6</ele>
        <time>2025-05-29T11:37:04Z</time>
      </trkpt>
      <trkpt lat="44.51515" lon="1.39733">
        <ele>207.6</ele>
        <time>2025-05-29T11:37:05Z</time>
      </trkpt>
      <trkpt lat="44.51515" lon="1.39731">
        <ele>207.8</ele>
        <time>2025-05-29T11:37:06Z</time>
      </trkpt>
      <trkpt lat="44.51515" lon="1.39729">
        <ele>207.8</ele>
        <time>2025-05-29T11:37:07Z</time>
      </trkpt>
      <trkpt lat="44.51515" lon="1.39727">
        <ele>207.8</ele>
        <time>2025-05-29T11:37:08Z</time>
      </trkpt>
      <trkpt lat="44.51515" lon="1.39724">
        <ele>208</ele>
        <time>2025-05-29T11:37:09Z</time>
      </trkpt>
      <trkpt lat="44.51516" lon="1.39722">
        <ele>208.2</ele>
        <time>2025-05-29T11:37:10Z</time>
      </trkpt>
      <trkpt lat="44.51516" lon="1.39721">
        <ele>208.2</ele>
        <time>2025-05-29T11:37:11Z</time>
      </trkpt>
      <trkpt lat="44.51517" lon="1.39718">
        <ele>208.6</ele>
        <time>2025-05-29T11:37:12Z</time>
      </trkpt>
      <trkpt lat="44.51518" lon="1.39716">
        <ele>208.8</ele>
        <time>2025-05-29T11:37:13Z</time>
      </trkpt>
      <trkpt lat="44.51518" lon="1.39715">
        <ele>209</ele>
        <time>2025-05-29T11:37:14Z</time>
      </trkpt>
      <trkpt lat="44.51519" lon="1.39713">
        <ele>209.4</ele>
        <time>2025-05-29T11:37:15Z</time>
      </trkpt>
      <trkpt lat="44.5152" lon="1.39712">
        <ele>209.6</ele>
        <time>2025-05-29T11:37:16Z</time>
      </trkpt>
      <trkpt lat="44.5152" lon="1.3971">
        <ele>210</ele>
        <time>2025-05-29T11:37:17Z</time>
      </trkpt>
      <trkpt lat="44.5152" lon="1.39709">
        <ele>210.2</ele>
        <time>2025-05-29T11:37:18Z</time>
      </trkpt>
      <trkpt lat="44.5152" lon="1.39707">
        <ele>210.4</ele>
        <time>2025-05-29T11:37:19Z</time>
      </trkpt>
      <trkpt lat="44.51521" lon="1.39705">
        <ele>210.6</ele>
        <time>2025-05-29T11:37:20Z</time>
      </trkpt>
      <trkpt lat="44.5152" lon="1.39703">
        <ele>210.8</ele>
        <time>2025-05-29T11:37:21Z</time>
      </trkpt>
      <trkpt lat="44.5152" lon="1.397">
        <ele>210.8</ele>
        <time>2025-05-29T11:37:22Z</time>
      </trkpt>
      <trkpt lat="44.51521" lon="1.39698">
        <ele>210.8</ele>
        <time>2025-05-29T11:37:23Z</time>
      </trkpt>
      <trkpt lat="44.51521" lon="1.39696">
        <ele>211</ele>
        <time>2025-05-29T11:37:24Z</time>
      </trkpt>
      <trkpt lat="44.51521" lon="1.39694">
        <ele>211</ele>
        <time>2025-05-29T11:37:25Z</time>
      </trkpt>
      <trkpt lat="44.51521" lon="1.39692">
        <ele>211</ele>
        <time>2025-05-29T11:37:26Z</time>
      </trkpt>
      <trkpt lat="44.51522" lon="1.3969">
        <ele>211.2</ele>
        <time>2025-05-29T11:37:27Z</time>
      </trkpt>
      <trkpt lat="44.51522" lon="1.39688">
        <ele>211.2</ele>
        <time>2025-05-29T11:37:28Z</time>
      </trkpt>
      <trkpt lat="44.51523" lon="1.39686">
        <ele>211.4</ele>
        <time>2025-05-29T11:37:29Z</time>
      </trkpt>
      <trkpt lat="44.51523" lon="1.39685">
        <ele>211.6</ele>
        <time>2025-05-29T11:37:30Z</time>
      </trkpt>
      <trkpt lat="44.51523" lon="1.39683">
        <ele>211.8</ele>
        <time>2025-05-29T11:37:31Z</time>
      </trkpt>
      <trkpt lat="44.51523" lon="1.3968">
        <ele>212</ele>
        <time>2025-05-29T11:37:32Z</time>
      </trkpt>
      <trkpt lat="44.51523" lon="1.39677">
        <ele>212</ele>
        <time>2025-05-29T11:37:33Z</time>
      </trkpt>
      <trkpt lat="44.51523" lon="1.39675">
        <ele>212</ele>
        <time>2025-05-29T11:37:34Z</time>
      </trkpt>
      <trkpt lat="44.51523" lon="1.39673">
        <ele>212.2</ele>
        <time>2025-05-29T11:37:35Z</time>
      </trkpt>
      <trkpt lat="44.51523" lon="1.3967">
        <ele>212.2</ele>
        <time>2025-05-29T11:37:36Z</time>
      </trkpt>
      <trkpt lat="44.51523" lon="1.39668">
        <ele>212.2</ele>
        <time>2025-05-29T11:37:37Z</time>
      </trkpt>
      <trkpt lat="44.51524" lon="1.39666">
        <ele>212.2</ele>
        <time>2025-05-29T11:37:38Z</time>
      </trkpt>
      <trkpt lat="44.51524" lon="1.39664">
        <ele>212.4</ele>
        <time>2025-05-29T11:37:39Z</time>
      </trkpt>
      <trkpt lat="44.51523" lon="1.39661">
        <ele>212.4</ele>
        <time>2025-05-29T11:37:40Z</time>
      </trkpt>
      <trkpt lat="44.51523" lon="1.3966">
        <ele>212.4</ele>
        <time>2025-05-29T11:37:41Z</time>
      </trkpt>
      <trkpt lat="44.51523" lon="1.39658">
        <ele>212.6</ele>
        <time>2025-05-29T11:37:42Z</time>
      </trkpt>
      <trkpt lat="44.51522" lon="1.39654">
        <ele>212.4</ele>
        <time>2025-05-29T11:37:43Z</time>
      </trkpt>
      <trkpt lat="44.51523" lon="1.39649">
        <ele>212.4</ele>
        <time>2025-05-29T11:37:44Z</time>
      </trkpt>
      <trkpt lat="44.51523" lon="1.39646">
        <ele>212.4</ele>
        <time>2025-05-29T11:37:45Z</time>
      </trkpt>
      <trkpt lat="44.51524" lon="1.39642">
        <ele>212.2</ele>
        <time>2025-05-29T11:37:46Z</time>
      </trkpt>
      <trkpt lat="44.51524" lon="1.3964">
        <ele>212</ele>
        <time>2025-05-29T11:37:47Z</time>
      </trkpt>
      <trkpt lat="44.51525" lon="1.39638">
        <ele>212</ele>
        <time>2025-05-29T11:37:48Z</time>
      </trkpt>
      <trkpt lat="44.51525" lon="1.39636">
        <ele>212</ele>
        <time>2025-05-29T11:37:49Z</time>
      </trkpt>
      <trkpt lat="44.51526" lon="1.39634">
        <ele>212.2</ele>
        <time>2025-05-29T11:37:50Z</time>
      </trkpt>
      <trkpt lat="44.51527" lon="1.39632">
        <ele>212.4</ele>
        <time>2025-05-29T11:37:51Z</time>
      </trkpt>
      <trkpt lat="44.51527" lon="1.3963">
        <ele>212.6</ele>
        <time>2025-05-29T11:37:52Z</time>
      </trkpt>
      <trkpt lat="44.51528" lon="1.39629">
        <ele>212.8</ele>
        <time>2025-05-29T11:37:53Z</time>
      </trkpt>
      <trkpt lat="44.51529" lon="1.39627">
        <ele>213</ele>
        <time>2025-05-29T11:37:54Z</time>
      </trkpt>
      <trkpt lat="44.5153" lon="1.39625">
        <ele>213.2</ele>
        <time>2025-05-29T11:37:55Z</time>
      </trkpt>
      <trkpt lat="44.51532" lon="1.39625">
        <ele>213.2</ele>
        <time>2025-05-29T11:37:56Z</time>
      </trkpt>
      <trkpt lat="44.51533" lon="1.39625">
        <ele>213.4</ele>
        <time>2025-05-29T11:37:57Z</time>
      </trkpt>
      <trkpt lat="44.51534" lon="1.39624">
        <ele>213.8</ele>
        <time>2025-05-29T11:37:58Z</time>
      </trkpt>
      <trkpt lat="44.51535" lon="1.39623">
        <ele>214</ele>
        <time>2025-05-29T11:37:59Z</time>
      </trkpt>
      <trkpt lat="44.51536" lon="1.39622">
        <ele>214.2</ele>
        <time>2025-05-29T11:38:00Z</time>
      </trkpt>
      <trkpt lat="44.51537" lon="1.3962">
        <ele>214.4</ele>
        <time>2025-05-29T11:38:01Z</time>
      </trkpt>
      <trkpt lat="44.51538" lon="1.39618">
        <ele>214.6</ele>
        <time>2025-05-29T11:38:02Z</time>
      </trkpt>
      <trkpt lat="44.51539" lon="1.39617">
        <ele>214.8</ele>
        <time>2025-05-29T11:38:03Z</time>
      </trkpt>
      <trkpt lat="44.51541" lon="1.39616">
        <ele>214.8</ele>
        <time>2025-05-29T11:38:04Z</time>
      </trkpt>
      <trkpt lat="44.51543" lon="1.39614">
        <ele>214.8</ele>
        <time>2025-05-29T11:38:05Z</time>
      </trkpt>
      <trkpt lat="44.51544" lon="1.39614">
        <ele>214.8</ele>
        <time>2025-05-29T11:38:06Z</time>
      </trkpt>
      <trkpt lat="44.51546" lon="1.39615">
        <ele>215</ele>
        <time>2025-05-29T11:38:07Z</time>
      </trkpt>
      <trkpt lat="44.51547" lon="1.39616">
        <ele>215</ele>
        <time>2025-05-29T11:38:08Z</time>
      </trkpt>
      <trkpt lat="44.51547" lon="1.39618">
        <ele>215.2</ele>
        <time>2025-05-29T11:38:09Z</time>
      </trkpt>
      <trkpt lat="44.51548" lon="1.3962">
        <ele>215.4</ele>
        <time>2025-05-29T11:38:10Z</time>
      </trkpt>
      <trkpt lat="44.51548" lon="1.39622">
        <ele>215.6</ele>
        <time>2025-05-29T11:38:11Z</time>
      </trkpt>
      <trkpt lat="44.51548" lon="1.39623">
        <ele>215.8</ele>
        <time>2025-05-29T11:38:12Z</time>
      </trkpt>
      <trkpt lat="44.51549" lon="1.39625">
        <ele>216</ele>
        <time>2025-05-29T11:38:13Z</time>
      </trkpt>
      <trkpt lat="44.51549" lon="1.39626">
        <ele>216.4</ele>
        <time>2025-05-29T11:38:14Z</time>
      </trkpt>
      <trkpt lat="44.51549" lon="1.39627">
        <ele>216.8</ele>
        <time>2025-05-29T11:38:15Z</time>
      </trkpt>
      <trkpt lat="44.51549" lon="1.39629">
        <ele>217</ele>
        <time>2025-05-29T11:38:16Z</time>
      </trkpt>
      <trkpt lat="44.51549" lon="1.39631">
        <ele>217.4</ele>
        <time>2025-05-29T11:38:17Z</time>
      </trkpt>
      <trkpt lat="44.51549" lon="1.39632">
        <ele>217.8</ele>
        <time>2025-05-29T11:38:18Z</time>
      </trkpt>
      <trkpt lat="44.51549" lon="1.39633">
        <ele>218</ele>
        <time>2025-05-29T11:38:19Z</time>
      </trkpt>
      <trkpt lat="44.51548" lon="1.39635">
        <ele>218.2</ele>
        <time>2025-05-29T11:38:20Z</time>
      </trkpt>
      <trkpt lat="44.51547" lon="1.39637">
        <ele>218.4</ele>
        <time>2025-05-29T11:38:21Z</time>
      </trkpt>
      <trkpt lat="44.51547" lon="1.39639">
        <ele>218.6</ele>
        <time>2025-05-29T11:38:22Z</time>
      </trkpt>
      <trkpt lat="44.51546" lon="1.39641">
        <ele>218.6</ele>
        <time>2025-05-29T11:38:23Z</time>
      </trkpt>
      <trkpt lat="44.51545" lon="1.39643">
        <ele>218.8</ele>
        <time>2025-05-29T11:38:24Z</time>
      </trkpt>
      <trkpt lat="44.51545" lon="1.39645">
        <ele>218.8</ele>
        <time>2025-05-29T11:38:25Z</time>
      </trkpt>
      <trkpt lat="44.51545" lon="1.39647">
        <ele>219</ele>
        <time>2025-05-29T11:38:26Z</time>
      </trkpt>
      <trkpt lat="44.51545" lon="1.39649">
        <ele>219.2</ele>
        <time>2025-05-29T11:38:27Z</time>
      </trkpt>
      <trkpt lat="44.51545" lon="1.39651">
        <ele>219.2</ele>
        <time>2025-05-29T11:38:28Z</time>
      </trkpt>
      <trkpt lat="44.51544" lon="1.39653">
        <ele>219.4</ele>
        <time>2025-05-29T11:38:29Z</time>
      </trkpt>
      <trkpt lat="44.51544" lon="1.39655">
        <ele>219.6</ele>
        <time>2025-05-29T11:38:30Z</time>
      </trkpt>
      <trkpt lat="44.51544" lon="1.39657">
        <ele>219.6</ele>
        <time>2025-05-29T11:38:31Z</time>
      </trkpt>
      <trkpt lat="44.51545" lon="1.39659">
        <ele>219.6</ele>
        <time>2025-05-29T11:38:32Z</time>
      </trkpt>
      <trkpt lat="44.51546" lon="1.3966">
        <ele>219.8</ele>
        <time>2025-05-29T11:38:33Z</time>
      </trkpt>
      <trkpt lat="44.51547" lon="1.3966">
        <ele>220</ele>
        <time>2025-05-29T11:38:34Z</time>
      </trkpt>
      <trkpt lat="44.51548" lon="1.3966">
        <ele>220.2</ele>
        <time>2025-05-29T11:38:35Z</time>
      </trkpt>
      <trkpt lat="44.51548" lon="1.3966">
        <ele>220.4</ele>
        <time>2025-05-29T11:38:36Z</time>
      </trkpt>
      <trkpt lat="44.51549" lon="1.3966">
        <ele>220.6</ele>
        <time>2025-05-29T11:38:37Z</time>
      </trkpt>
      <trkpt lat="44.51549" lon="1.3966">
        <ele>221</ele>
        <time>2025-05-29T11:38:38Z</time>
      </trkpt>
      <trkpt lat="44.51555" lon="1.39656">
        <ele>221.8</ele>
        <time>2025-05-29T11:39:14Z</time>
      </trkpt>
      <trkpt lat="44.51556" lon="1.39655">
        <ele>222</ele>
        <time>2025-05-29T11:39:15Z</time>
      </trkpt>
      <trkpt lat="44.51558" lon="1.39655">
        <ele>222.4</ele>
        <time>2025-05-29T11:39:16Z</time>
      </trkpt>
      <trkpt lat="44.51559" lon="1.39654">
        <ele>222.6</ele>
        <time>2025-05-29T11:39:17Z</time>
      </trkpt>
      <trkpt lat="44.5156" lon="1.39653">
        <ele>223</ele>
        <time>2025-05-29T11:39:18Z</time>
      </trkpt>
      <trkpt lat="44.51562" lon="1.39652">
        <ele>223.4</ele>
        <time>2025-05-29T11:39:19Z</time>
      </trkpt>
      <trkpt lat="44.51563" lon="1.39652">
        <ele>223.6</ele>
        <time>2025-05-29T11:39:20Z</time>
      </trkpt>
      <trkpt lat="44.51564" lon="1.39652">
        <ele>224</ele>
        <time>2025-05-29T11:39:21Z</time>
      </trkpt>
      <trkpt lat="44.51566" lon="1.39651">
        <ele>224.2</ele>
        <time>2025-05-29T11:39:22Z</time>
      </trkpt>
      <trkpt lat="44.51567" lon="1.3965">
        <ele>224.4</ele>
        <time>2025-05-29T11:39:23Z</time>
      </trkpt>
      <trkpt lat="44.51569" lon="1.39648">
        <ele>224.6</ele>
        <time>2025-05-29T11:39:24Z</time>
      </trkpt>
      <trkpt lat="44.5157" lon="1.39647">
        <ele>224.8</ele>
        <time>2025-05-29T11:39:25Z</time>
      </trkpt>
      <trkpt lat="44.51571" lon="1.39647">
        <ele>225</ele>
        <time>2025-05-29T11:39:26Z</time>
      </trkpt>
      <trkpt lat="44.51572" lon="1.39645">
        <ele>225.2</ele>
        <time>2025-05-29T11:39:27Z</time>
      </trkpt>
      <trkpt lat="44.51573" lon="1.39644">
        <ele>225.4</ele>
        <time>2025-05-29T11:39:28Z</time>
      </trkpt>
      <trkpt lat="44.51575" lon="1.39643">
        <ele>225.6</ele>
        <time>2025-05-29T11:39:29Z</time>
      </trkpt>
      <trkpt lat="44.51575" lon="1.3964">
        <ele>225.6</ele>
        <time>2025-05-29T11:39:30Z</time>
      </trkpt>
      <trkpt lat="44.51576" lon="1.39637">
        <ele>225.8</ele>
        <time>2025-05-29T11:39:31Z</time>
      </trkpt>
      <trkpt lat="44.51578" lon="1.39635">
        <ele>225.8</ele>
        <time>2025-05-29T11:39:32Z</time>
      </trkpt>
      <trkpt lat="44.51579" lon="1.39633">
        <ele>225.8</ele>
        <time>2025-05-29T11:39:33Z</time>
      </trkpt>
      <trkpt lat="44.5158" lon="1.39631">
        <ele>225.8</ele>
        <time>2025-05-29T11:39:34Z</time>
      </trkpt>
      <trkpt lat="44.51581" lon="1.39629">
        <ele>225.8</ele>
        <time>2025-05-29T11:39:35Z</time>
      </trkpt>
      <trkpt lat="44.51581" lon="1.39627">
        <ele>226</ele>
        <time>2025-05-29T11:39:36Z</time>
      </trkpt>
      <trkpt lat="44.51582" lon="1.39625">
        <ele>226</ele>
        <time>2025-05-29T11:39:37Z</time>
      </trkpt>
      <trkpt lat="44.51583" lon="1.39622">
        <ele>226</ele>
        <time>2025-05-29T11:39:38Z</time>
      </trkpt>
      <trkpt lat="44.51584" lon="1.39621">
        <ele>226.2</ele>
        <time>2025-05-29T11:39:39Z</time>
      </trkpt>
      <trkpt lat="44.51585" lon="1.39619">
        <ele>226.2</ele>
        <time>2025-05-29T11:39:40Z</time>
      </trkpt>
      <trkpt lat="44.51584" lon="1.39618">
        <ele>226.4</ele>
        <time>2025-05-29T11:39:41Z</time>
      </trkpt>
      <trkpt lat="44.51584" lon="1.39616">
        <ele>226.6</ele>
        <time>2025-05-29T11:39:42Z</time>
      </trkpt>
      <trkpt lat="44.51585" lon="1.39614">
        <ele>226.6</ele>
        <time>2025-05-29T11:39:43Z</time>
      </trkpt>
      <trkpt lat="44.51585" lon="1.39613">
        <ele>226.8</ele>
        <time>2025-05-29T11:39:44Z</time>
      </trkpt>
      <trkpt lat="44.51586" lon="1.39611">
        <ele>226.8</ele>
        <time>2025-05-29T11:39:45Z</time>
      </trkpt>
      <trkpt lat="44.51588" lon="1.39609">
        <ele>227</ele>
        <time>2025-05-29T11:39:46Z</time>
      </trkpt>
      <trkpt lat="44.51588" lon="1.39606">
        <ele>227</ele>
        <time>2025-05-29T11:39:47Z</time>
      </trkpt>
      <trkpt lat="44.51589" lon="1.39604">
        <ele>227</ele>
        <time>2025-05-29T11:39:48Z</time>
      </trkpt>
      <trkpt lat="44.51589" lon="1.39601">
        <ele>227</ele>
        <time>2025-05-29T11:39:49Z</time>
      </trkpt>
      <trkpt lat="44.5159" lon="1.39598">
        <ele>227</ele>
        <time>2025-05-29T11:39:50Z</time>
      </trkpt>
      <trkpt lat="44.5159" lon="1.39596">
        <ele>226.8</ele>
        <time>2025-05-29T11:39:51Z</time>
      </trkpt>
      <trkpt lat="44.51591" lon="1.39593">
        <ele>226.8</ele>
        <time>2025-05-29T11:39:52Z</time>
      </trkpt>
      <trkpt lat="44.51591" lon="1.39591">
        <ele>226.8</ele>
        <time>2025-05-29T11:39:53Z</time>
      </trkpt>
      <trkpt lat="44.51591" lon="1.39588">
        <ele>226.8</ele>
        <time>2025-05-29T11:39:54Z</time>
      </trkpt>
      <trkpt lat="44.51592" lon="1.39586">
        <ele>226.8</ele>
        <time>2025-05-29T11:39:55Z</time>
      </trkpt>
      <trkpt lat="44.51592" lon="1.39584">
        <ele>226.8</ele>
        <time>2025-05-29T11:39:56Z</time>
      </trkpt>
      <trkpt lat="44.51592" lon="1.39582">
        <ele>227</ele>
        <time>2025-05-29T11:39:57Z</time>
      </trkpt>
      <trkpt lat="44.51592" lon="1.3958">
        <ele>227</ele>
        <time>2025-05-29T11:39:58Z</time>
      </trkpt>
      <trkpt lat="44.51592" lon="1.39578">
        <ele>227</ele>
        <time>2025-05-29T11:39:59Z</time>
      </trkpt>
      <trkpt lat="44.51592" lon="1.39575">
        <ele>227.2</ele>
        <time>2025-05-29T11:40:00Z</time>
      </trkpt>
      <trkpt lat="44.51592" lon="1.39572">
        <ele>227.4</ele>
        <time>2025-05-29T11:40:01Z</time>
      </trkpt>
      <trkpt lat="44.51591" lon="1.39568">
        <ele>227.4</ele>
        <time>2025-05-29T11:40:02Z</time>
      </trkpt>
      <trkpt lat="44.51591" lon="1.39564">
        <ele>227.4</ele>
        <time>2025-05-29T11:40:03Z</time>
      </trkpt>
      <trkpt lat="44.51591" lon="1.39562">
        <ele>227.2</ele>
        <time>2025-05-29T11:40:04Z</time>
      </trkpt>
      <trkpt lat="44.51591" lon="1.39559">
        <ele>227.2</ele>
        <time>2025-05-29T11:40:05Z</time>
      </trkpt>
      <trkpt lat="44.51591" lon="1.39556">
        <ele>227.2</ele>
        <time>2025-05-29T11:40:06Z</time>
      </trkpt>
      <trkpt lat="44.51591" lon="1.39554">
        <ele>227.4</ele>
        <time>2025-05-29T11:40:07Z</time>
      </trkpt>
      <trkpt lat="44.51591" lon="1.39552">
        <ele>227.6</ele>
        <time>2025-05-29T11:40:08Z</time>
      </trkpt>
      <trkpt lat="44.5159" lon="1.3955">
        <ele>227.8</ele>
        <time>2025-05-29T11:40:09Z</time>
      </trkpt>
      <trkpt lat="44.5159" lon="1.39548">
        <ele>227.8</ele>
        <time>2025-05-29T11:40:10Z</time>
      </trkpt>
      <trkpt lat="44.5159" lon="1.39546">
        <ele>228</ele>
        <time>2025-05-29T11:40:11Z</time>
      </trkpt>
      <trkpt lat="44.51589" lon="1.39544">
        <ele>228.2</ele>
        <time>2025-05-29T11:40:12Z</time>
      </trkpt>
      <trkpt lat="44.51589" lon="1.39542">
        <ele>228.4</ele>
        <time>2025-05-29T11:40:13Z</time>
      </trkpt>
      <trkpt lat="44.51589" lon="1.3954">
        <ele>228.6</ele>
        <time>2025-05-29T11:40:14Z</time>
      </trkpt>
      <trkpt lat="44.51589" lon="1.39537">
        <ele>228.8</ele>
        <time>2025-05-29T11:40:15Z</time>
      </trkpt>
      <trkpt lat="44.51588" lon="1.39535">
        <ele>228.8</ele>
        <time>2025-05-29T11:40:16Z</time>
      </trkpt>
      <trkpt lat="44.51587" lon="1.39532">
        <ele>229</ele>
        <time>2025-05-29T11:40:17Z</time>
      </trkpt>
      <trkpt lat="44.51586" lon="1.39529">
        <ele>229</ele>
        <time>2025-05-29T11:40:18Z</time>
      </trkpt>
      <trkpt lat="44.51585" lon="1.39526">
        <ele>228.8</ele>
        <time>2025-05-29T11:40:19Z</time>
      </trkpt>
      <trkpt lat="44.51585" lon="1.39523">
        <ele>228.8</ele>
        <time>2025-05-29T11:40:20Z</time>
      </trkpt>
      <trkpt lat="44.51584" lon="1.39521">
        <ele>228.8</ele>
        <time>2025-05-29T11:40:21Z</time>
      </trkpt>
      <trkpt lat="44.51583" lon="1.39517">
        <ele>228.8</ele>
        <time>2025-05-29T11:40:22Z</time>
      </trkpt>
      <trkpt lat="44.51583" lon="1.39515">
        <ele>228.8</ele>
        <time>2025-05-29T11:40:23Z</time>
      </trkpt>
      <trkpt lat="44.51583" lon="1.39513">
        <ele>228.8</ele>
        <time>2025-05-29T11:40:24Z</time>
      </trkpt>
      <trkpt lat="44.51583" lon="1.3951">
        <ele>228.8</ele>
        <time>2025-05-29T11:40:25Z</time>
      </trkpt>
      <trkpt lat="44.51583" lon="1.39508">
        <ele>228.8</ele>
        <time>2025-05-29T11:40:26Z</time>
      </trkpt>
      <trkpt lat="44.51583" lon="1.39504">
        <ele>228.8</ele>
        <time>2025-05-29T11:40:27Z</time>
      </trkpt>
      <trkpt lat="44.51583" lon="1.39501">
        <ele>228.8</ele>
        <time>2025-05-29T11:40:28Z</time>
      </trkpt>
      <trkpt lat="44.51584" lon="1.39499">
        <ele>228.8</ele>
        <time>2025-05-29T11:40:29Z</time>
      </trkpt>
      <trkpt lat="44.51584" lon="1.39497">
        <ele>229</ele>
        <time>2025-05-29T11:40:30Z</time>
      </trkpt>
      <trkpt lat="44.51585" lon="1.39495">
        <ele>229</ele>
        <time>2025-05-29T11:40:31Z</time>
      </trkpt>
      <trkpt lat="44.51585" lon="1.39493">
        <ele>229.2</ele>
        <time>2025-05-29T11:40:32Z</time>
      </trkpt>
      <trkpt lat="44.51586" lon="1.39491">
        <ele>229.4</ele>
        <time>2025-05-29T11:40:33Z</time>
      </trkpt>
      <trkpt lat="44.51587" lon="1.39489">
        <ele>229.6</ele>
        <time>2025-05-29T11:40:34Z</time>
      </trkpt>
      <trkpt lat="44.51587" lon="1.39488">
        <ele>229.8</ele>
        <time>2025-05-29T11:40:35Z</time>
      </trkpt>
      <trkpt lat="44.51588" lon="1.39486">
        <ele>230</ele>
        <time>2025-05-29T11:40:36Z</time>
      </trkpt>
      <trkpt lat="44.51588" lon="1.39484">
        <ele>230.4</ele>
        <time>2025-05-29T11:40:37Z</time>
      </trkpt>
      <trkpt lat="44.51587" lon="1.39481">
        <ele>230.6</ele>
        <time>2025-05-29T11:40:38Z</time>
      </trkpt>
      <trkpt lat="44.51586" lon="1.39478">
        <ele>230.8</ele>
        <time>2025-05-29T11:40:39Z</time>
      </trkpt>
      <trkpt lat="44.51585" lon="1.39473">
        <ele>230.8</ele>
        <time>2025-05-29T11:40:40Z</time>
      </trkpt>
      <trkpt lat="44.51584" lon="1.39467">
        <ele>230.6</ele>
        <time>2025-05-29T11:40:41Z</time>
      </trkpt>
      <trkpt lat="44.51584" lon="1.39461">
        <ele>230.2</ele>
        <time>2025-05-29T11:40:42Z</time>
      </trkpt>
      <trkpt lat="44.51585" lon="1.39458">
        <ele>230</ele>
        <time>2025-05-29T11:40:43Z</time>
      </trkpt>
      <trkpt lat="44.51586" lon="1.39455">
        <ele>229.8</ele>
        <time>2025-05-29T11:40:44Z</time>
      </trkpt>
      <trkpt lat="44.51587" lon="1.39452">
        <ele>229.8</ele>
        <time>2025-05-29T11:40:45Z</time>
      </trkpt>
      <trkpt lat="44.51587" lon="1.3945">
        <ele>230</ele>
        <time>2025-05-29T11:40:46Z</time>
      </trkpt>
      <trkpt lat="44.51588" lon="1.39448">
        <ele>230.4</ele>
        <time>2025-05-29T11:40:47Z</time>
      </trkpt>
      <trkpt lat="44.51588" lon="1.39446">
        <ele>230.6</ele>
        <time>2025-05-29T11:40:48Z</time>
      </trkpt>
      <trkpt lat="44.51589" lon="1.39444">
        <ele>231</ele>
        <time>2025-05-29T11:40:49Z</time>
      </trkpt>
      <trkpt lat="44.5159" lon="1.39442">
        <ele>231.2</ele>
        <time>2025-05-29T11:40:50Z</time>
      </trkpt>
      <trkpt lat="44.5159" lon="1.3944">
        <ele>231.4</ele>
        <time>2025-05-29T11:40:51Z</time>
      </trkpt>
      <trkpt lat="44.5159" lon="1.39437">
        <ele>231.6</ele>
        <time>2025-05-29T11:40:52Z</time>
      </trkpt>
      <trkpt lat="44.5159" lon="1.39435">
        <ele>231.6</ele>
        <time>2025-05-29T11:40:53Z</time>
      </trkpt>
      <trkpt lat="44.51591" lon="1.39433">
        <ele>231.8</ele>
        <time>2025-05-29T11:40:54Z</time>
      </trkpt>
      <trkpt lat="44.51591" lon="1.39431">
        <ele>232</ele>
        <time>2025-05-29T11:40:55Z</time>
      </trkpt>
      <trkpt lat="44.51591" lon="1.39428">
        <ele>232</ele>
        <time>2025-05-29T11:40:56Z</time>
      </trkpt>
      <trkpt lat="44.51592" lon="1.39427">
        <ele>232.2</ele>
        <time>2025-05-29T11:40:57Z</time>
      </trkpt>
      <trkpt lat="44.51592" lon="1.39425">
        <ele>232.2</ele>
        <time>2025-05-29T11:40:58Z</time>
      </trkpt>
      <trkpt lat="44.51592" lon="1.39423">
        <ele>232.4</ele>
        <time>2025-05-29T11:40:59Z</time>
      </trkpt>
      <trkpt lat="44.51592" lon="1.39421">
        <ele>232.6</ele>
        <time>2025-05-29T11:41:00Z</time>
      </trkpt>
      <trkpt lat="44.51593" lon="1.39419">
        <ele>232.8</ele>
        <time>2025-05-29T11:41:01Z</time>
      </trkpt>
      <trkpt lat="44.51593" lon="1.39417">
        <ele>233</ele>
        <time>2025-05-29T11:41:02Z</time>
      </trkpt>
      <trkpt lat="44.51594" lon="1.39415">
        <ele>233.2</ele>
        <time>2025-05-29T11:41:03Z</time>
      </trkpt>
      <trkpt lat="44.51593" lon="1.39413">
        <ele>233.2</ele>
        <time>2025-05-29T11:41:04Z</time>
      </trkpt>
      <trkpt lat="44.51594" lon="1.39411">
        <ele>233.4</ele>
        <time>2025-05-29T11:41:05Z</time>
      </trkpt>
      <trkpt lat="44.51594" lon="1.39408">
        <ele>233.4</ele>
        <time>2025-05-29T11:41:06Z</time>
      </trkpt>
      <trkpt lat="44.51594" lon="1.39406">
        <ele>233.4</ele>
        <time>2025-05-29T11:41:07Z</time>
      </trkpt>
      <trkpt lat="44.51593" lon="1.39404">
        <ele>233.6</ele>
        <time>2025-05-29T11:41:08Z</time>
      </trkpt>
      <trkpt lat="44.51593" lon="1.39401">
        <ele>233.6</ele>
        <time>2025-05-29T11:41:09Z</time>
      </trkpt>
      <trkpt lat="44.51593" lon="1.39398">
        <ele>233.8</ele>
        <time>2025-05-29T11:41:10Z</time>
      </trkpt>
      <trkpt lat="44.51593" lon="1.39395">
        <ele>233.8</ele>
        <time>2025-05-29T11:41:11Z</time>
      </trkpt>
      <trkpt lat="44.51593" lon="1.39393">
        <ele>233.8</ele>
        <time>2025-05-29T11:41:12Z</time>
      </trkpt>
      <trkpt lat="44.51594" lon="1.39391">
        <ele>233.8</ele>
        <time>2025-05-29T11:41:13Z</time>
      </trkpt>
      <trkpt lat="44.51594" lon="1.39388">
        <ele>233.8</ele>
        <time>2025-05-29T11:41:14Z</time>
      </trkpt>
      <trkpt lat="44.51594" lon="1.39384">
        <ele>233.6</ele>
        <time>2025-05-29T11:41:15Z</time>
      </trkpt>
      <trkpt lat="44.51594" lon="1.39382">
        <ele>233.8</ele>
        <time>2025-05-29T11:41:16Z</time>
      </trkpt>
      <trkpt lat="44.51595" lon="1.3938">
        <ele>233.8</ele>
        <time>2025-05-29T11:41:17Z</time>
      </trkpt>
      <trkpt lat="44.51595" lon="1.39377">
        <ele>233.8</ele>
        <time>2025-05-29T11:41:18Z</time>
      </trkpt>
      <trkpt lat="44.51594" lon="1.39375">
        <ele>233.8</ele>
        <time>2025-05-29T11:41:19Z</time>
      </trkpt>
      <trkpt lat="44.51593" lon="1.39372">
        <ele>234</ele>
        <time>2025-05-29T11:41:20Z</time>
      </trkpt>
      <trkpt lat="44.51593" lon="1.39368">
        <ele>233.8</ele>
        <time>2025-05-29T11:41:21Z</time>
      </trkpt>
      <trkpt lat="44.51593" lon="1.39366">
        <ele>233.8</ele>
        <time>2025-05-29T11:41:22Z</time>
      </trkpt>
      <trkpt lat="44.51593" lon="1.39365">
        <ele>234</ele>
        <time>2025-05-29T11:41:23Z</time>
      </trkpt>
      <trkpt lat="44.51593" lon="1.39362">
        <ele>234</ele>
        <time>2025-05-29T11:41:24Z</time>
      </trkpt>
      <trkpt lat="44.51594" lon="1.39358">
        <ele>234</ele>
        <time>2025-05-29T11:41:25Z</time>
      </trkpt>
      <trkpt lat="44.51594" lon="1.39355">
        <ele>234.2</ele>
        <time>2025-05-29T11:41:26Z</time>
      </trkpt>
      <trkpt lat="44.51594" lon="1.39352">
        <ele>234.4</ele>
        <time>2025-05-29T11:41:27Z</time>
      </trkpt>
      <trkpt lat="44.51595" lon="1.3935">
        <ele>234.4</ele>
        <time>2025-05-29T11:41:28Z</time>
      </trkpt>
      <trkpt lat="44.51595" lon="1.39346">
        <ele>234.4</ele>
        <time>2025-05-29T11:41:29Z</time>
      </trkpt>
      <trkpt lat="44.51595" lon="1.39343">
        <ele>234.4</ele>
        <time>2025-05-29T11:41:30Z</time>
      </trkpt>
      <trkpt lat="44.51596" lon="1.39339">
        <ele>234.4</ele>
        <time>2025-05-29T11:41:31Z</time>
      </trkpt>
      <trkpt lat="44.51597" lon="1.39336">
        <ele>234.4</ele>
        <time>2025-05-29T11:41:32Z</time>
      </trkpt>
      <trkpt lat="44.51598" lon="1.39334">
        <ele>234.2</ele>
        <time>2025-05-29T11:41:33Z</time>
      </trkpt>
      <trkpt lat="44.51598" lon="1.39332">
        <ele>234.2</ele>
        <time>2025-05-29T11:41:34Z</time>
      </trkpt>
      <trkpt lat="44.51599" lon="1.39331">
        <ele>234.2</ele>
        <time>2025-05-29T11:41:35Z</time>
      </trkpt>
      <trkpt lat="44.516" lon="1.3933">
        <ele>234.4</ele>
        <time>2025-05-29T11:41:36Z</time>
      </trkpt>
      <trkpt lat="44.516" lon="1.3933">
        <ele>234.4</ele>
        <time>2025-05-29T11:41:37Z</time>
      </trkpt>
      <trkpt lat="44.516" lon="1.3933">
        <ele>234.4</ele>
        <time>2025-05-29T11:41:38Z</time>
      </trkpt>
      <trkpt lat="44.51601" lon="1.39323">
        <ele>234</ele>
        <time>2025-05-29T11:41:46Z</time>
      </trkpt>
      <trkpt lat="44.51601" lon="1.3932">
        <ele>234</ele>
        <time>2025-05-29T11:41:47Z</time>
      </trkpt>
      <trkpt lat="44.51602" lon="1.39318">
        <ele>233.8</ele>
        <time>2025-05-29T11:41:48Z</time>
      </trkpt>
      <trkpt lat="44.51604" lon="1.39315">
        <ele>233.8</ele>
        <time>2025-05-29T11:41:49Z</time>
      </trkpt>
      <trkpt lat="44.51605" lon="1.39313">
        <ele>233.6</ele>
        <time>2025-05-29T11:41:50Z</time>
      </trkpt>
      <trkpt lat="44.51606" lon="1.3931">
        <ele>233.8</ele>
        <time>2025-05-29T11:41:51Z</time>
      </trkpt>
      <trkpt lat="44.51608" lon="1.39307">
        <ele>233.8</ele>
        <time>2025-05-29T11:41:52Z</time>
      </trkpt>
      <trkpt lat="44.51609" lon="1.39304">
        <ele>233.8</ele>
        <time>2025-05-29T11:41:53Z</time>
      </trkpt>
      <trkpt lat="44.51611" lon="1.39302">
        <ele>233.8</ele>
        <time>2025-05-29T11:41:54Z</time>
      </trkpt>
      <trkpt lat="44.51612" lon="1.39299">
        <ele>233.8</ele>
        <time>2025-05-29T11:41:55Z</time>
      </trkpt>
      <trkpt lat="44.51614" lon="1.39296">
        <ele>233.8</ele>
        <time>2025-05-29T11:41:56Z</time>
      </trkpt>
      <trkpt lat="44.51615" lon="1.39295">
        <ele>233.8</ele>
        <time>2025-05-29T11:41:57Z</time>
      </trkpt>
      <trkpt lat="44.51617" lon="1.39294">
        <ele>234</ele>
        <time>2025-05-29T11:41:58Z</time>
      </trkpt>
      <trkpt lat="44.51618" lon="1.39293">
        <ele>234.2</ele>
        <time>2025-05-29T11:41:59Z</time>
      </trkpt>
      <trkpt lat="44.5162" lon="1.39291">
        <ele>234.2</ele>
        <time>2025-05-29T11:42:00Z</time>
      </trkpt>
      <trkpt lat="44.51622" lon="1.39291">
        <ele>234.6</ele>
        <time>2025-05-29T11:42:01Z</time>
      </trkpt>
      <trkpt lat="44.51623" lon="1.3929">
        <ele>234.8</ele>
        <time>2025-05-29T11:42:02Z</time>
      </trkpt>
      <trkpt lat="44.51625" lon="1.3929">
        <ele>235</ele>
        <time>2025-05-29T11:42:03Z</time>
      </trkpt>
      <trkpt lat="44.51626" lon="1.3929">
        <ele>235.2</ele>
        <time>2025-05-29T11:42:04Z</time>
      </trkpt>
      <trkpt lat="44.51628" lon="1.39291">
        <ele>235.4</ele>
        <time>2025-05-29T11:42:05Z</time>
      </trkpt>
      <trkpt lat="44.51629" lon="1.39291">
        <ele>235.6</ele>
        <time>2025-05-29T11:42:06Z</time>
      </trkpt>
      <trkpt lat="44.51631" lon="1.39292">
        <ele>235.8</ele>
        <time>2025-05-29T11:42:07Z</time>
      </trkpt>
      <trkpt lat="44.51634" lon="1.39292">
        <ele>236.2</ele>
        <time>2025-05-29T11:42:08Z</time>
      </trkpt>
      <trkpt lat="44.51636" lon="1.39291">
        <ele>236.2</ele>
        <time>2025-05-29T11:42:09Z</time>
      </trkpt>
      <trkpt lat="44.51638" lon="1.3929">
        <ele>236.4</ele>
        <time>2025-05-29T11:42:10Z</time>
      </trkpt>
      <trkpt lat="44.5164" lon="1.3929">
        <ele>236.6</ele>
        <time>2025-05-29T11:42:11Z</time>
      </trkpt>
      <trkpt lat="44.51642" lon="1.3929">
        <ele>236.6</ele>
        <time>2025-05-29T11:42:12Z</time>
      </trkpt>
      <trkpt lat="44.51644" lon="1.3929">
        <ele>236.6</ele>
        <time>2025-05-29T11:42:13Z</time>
      </trkpt>
      <trkpt lat="44.51645" lon="1.3929">
        <ele>236.8</ele>
        <time>2025-05-29T11:42:14Z</time>
      </trkpt>
      <trkpt lat="44.51647" lon="1.3929">
        <ele>237</ele>
        <time>2025-05-29T11:42:15Z</time>
      </trkpt>
      <trkpt lat="44.51648" lon="1.39291">
        <ele>237</ele>
        <time>2025-05-29T11:42:16Z</time>
      </trkpt>
      <trkpt lat="44.5165" lon="1.39291">
        <ele>237.2</ele>
        <time>2025-05-29T11:42:17Z</time>
      </trkpt>
      <trkpt lat="44.51652" lon="1.39292">
        <ele>237.6</ele>
        <time>2025-05-29T11:42:18Z</time>
      </trkpt>
      <trkpt lat="44.51653" lon="1.39292">
        <ele>238</ele>
        <time>2025-05-29T11:42:19Z</time>
      </trkpt>
      <trkpt lat="44.51655" lon="1.39292">
        <ele>238.2</ele>
        <time>2025-05-29T11:42:20Z</time>
      </trkpt>
      <trkpt lat="44.51657" lon="1.39293">
        <ele>238.4</ele>
        <time>2025-05-29T11:42:21Z</time>
      </trkpt>
      <trkpt lat="44.51659" lon="1.39294">
        <ele>238.8</ele>
        <time>2025-05-29T11:42:22Z</time>
      </trkpt>
      <trkpt lat="44.51661" lon="1.39294">
        <ele>238.8</ele>
        <time>2025-05-29T11:42:23Z</time>
      </trkpt>
      <trkpt lat="44.51663" lon="1.39295">
        <ele>239</ele>
        <time>2025-05-29T11:42:24Z</time>
      </trkpt>
      <trkpt lat="44.51665" lon="1.39296">
        <ele>239</ele>
        <time>2025-05-29T11:42:25Z</time>
      </trkpt>
      <trkpt lat="44.51668" lon="1.39297">
        <ele>238.8</ele>
        <time>2025-05-29T11:42:26Z</time>
      </trkpt>
      <trkpt lat="44.51669" lon="1.39298">
        <ele>238.8</ele>
        <time>2025-05-29T11:42:27Z</time>
      </trkpt>
      <trkpt lat="44.51671" lon="1.39298">
        <ele>238.8</ele>
        <time>2025-05-29T11:42:28Z</time>
      </trkpt>
      <trkpt lat="44.51673" lon="1.39299">
        <ele>238.8</ele>
        <time>2025-05-29T11:42:29Z</time>
      </trkpt>
      <trkpt lat="44.51675" lon="1.393">
        <ele>238.8</ele>
        <time>2025-05-29T11:42:30Z</time>
      </trkpt>
      <trkpt lat="44.51677" lon="1.39302">
        <ele>239</ele>
        <time>2025-05-29T11:42:31Z</time>
      </trkpt>
      <trkpt lat="44.51678" lon="1.39303">
        <ele>239</ele>
        <time>2025-05-29T11:42:32Z</time>
      </trkpt>
      <trkpt lat="44.5168" lon="1.39304">
        <ele>239.2</ele>
        <time>2025-05-29T11:42:33Z</time>
      </trkpt>
      <trkpt lat="44.51682" lon="1.39305">
        <ele>239.4</ele>
        <time>2025-05-29T11:42:34Z</time>
      </trkpt>
      <trkpt lat="44.51683" lon="1.39306">
        <ele>239.6</ele>
        <time>2025-05-29T11:42:35Z</time>
      </trkpt>
      <trkpt lat="44.51685" lon="1.39307">
        <ele>239.8</ele>
        <time>2025-05-29T11:42:36Z</time>
      </trkpt>
      <trkpt lat="44.51686" lon="1.39308">
        <ele>240</ele>
        <time>2025-05-29T11:42:37Z</time>
      </trkpt>
      <trkpt lat="44.51686" lon="1.39308">
        <ele>240.2</ele>
        <time>2025-05-29T11:42:38Z</time>
      </trkpt>
      <trkpt lat="44.51687" lon="1.39307">
        <ele>240.6</ele>
        <time>2025-05-29T11:42:39Z</time>
      </trkpt>
      <trkpt lat="44.51689" lon="1.39306">
        <ele>240.6</ele>
        <time>2025-05-29T11:42:40Z</time>
      </trkpt>
      <trkpt lat="44.51691" lon="1.39307">
        <ele>240.6</ele>
        <time>2025-05-29T11:42:41Z</time>
      </trkpt>
      <trkpt lat="44.51694" lon="1.39307">
        <ele>240.4</ele>
        <time>2025-05-29T11:42:42Z</time>
      </trkpt>
      <trkpt lat="44.51696" lon="1.39307">
        <ele>240.2</ele>
        <time>2025-05-29T11:42:43Z</time>
      </trkpt>
      <trkpt lat="44.51698" lon="1.39308">
        <ele>239.8</ele>
        <time>2025-05-29T11:42:44Z</time>
      </trkpt>
      <trkpt lat="44.517" lon="1.39309">
        <ele>239.6</ele>
        <time>2025-05-29T11:42:45Z</time>
      </trkpt>
      <trkpt lat="44.51702" lon="1.39309">
        <ele>239.4</ele>
        <time>2025-05-29T11:42:46Z</time>
      </trkpt>
      <trkpt lat="44.51703" lon="1.3931">
        <ele>239.4</ele>
        <time>2025-05-29T11:42:47Z</time>
      </trkpt>
      <trkpt lat="44.51706" lon="1.39309">
        <ele>239.4</ele>
        <time>2025-05-29T11:42:48Z</time>
      </trkpt>
      <trkpt lat="44.51708" lon="1.39307">
        <ele>239.4</ele>
        <time>2025-05-29T11:42:49Z</time>
      </trkpt>
      <trkpt lat="44.51709" lon="1.39307">
        <ele>239.4</ele>
        <time>2025-05-29T11:42:50Z</time>
      </trkpt>
      <trkpt lat="44.51711" lon="1.39307">
        <ele>239.4</ele>
        <time>2025-05-29T11:42:51Z</time>
      </trkpt>
      <trkpt lat="44.51713" lon="1.39307">
        <ele>239.4</ele>
        <time>2025-05-29T11:42:52Z</time>
      </trkpt>
      <trkpt lat="44.51715" lon="1.39306">
        <ele>239.2</ele>
        <time>2025-05-29T11:42:53Z</time>
      </trkpt>
      <trkpt lat="44.51717" lon="1.39305">
        <ele>239.2</ele>
        <time>2025-05-29T11:42:54Z</time>
      </trkpt>
      <trkpt lat="44.5172" lon="1.39304">
        <ele>239.2</ele>
        <time>2025-05-29T11:42:55Z</time>
      </trkpt>
      <trkpt lat="44.51722" lon="1.39303">
        <ele>239</ele>
        <time>2025-05-29T11:42:56Z</time>
      </trkpt>
      <trkpt lat="44.51724" lon="1.39301">
        <ele>239.2</ele>
        <time>2025-05-29T11:42:57Z</time>
      </trkpt>
      <trkpt lat="44.51726" lon="1.393">
        <ele>239.2</ele>
        <time>2025-05-29T11:42:58Z</time>
      </trkpt>
      <trkpt lat="44.51728" lon="1.39298">
        <ele>239.2</ele>
        <time>2025-05-29T11:42:59Z</time>
      </trkpt>
      <trkpt lat="44.51729" lon="1.39296">
        <ele>239.2</ele>
        <time>2025-05-29T11:43:00Z</time>
      </trkpt>
      <trkpt lat="44.5173" lon="1.39292">
        <ele>239.2</ele>
        <time>2025-05-29T11:43:01Z</time>
      </trkpt>
      <trkpt lat="44.5173" lon="1.39289">
        <ele>239.2</ele>
        <time>2025-05-29T11:43:02Z</time>
      </trkpt>
      <trkpt lat="44.51732" lon="1.39286">
        <ele>239</ele>
        <time>2025-05-29T11:43:03Z</time>
      </trkpt>
      <trkpt lat="44.51734" lon="1.39284">
        <ele>238.6</ele>
        <time>2025-05-29T11:43:04Z</time>
      </trkpt>
      <trkpt lat="44.51735" lon="1.39282">
        <ele>238.4</ele>
        <time>2025-05-29T11:43:05Z</time>
      </trkpt>
      <trkpt lat="44.51737" lon="1.39279">
        <ele>238.2</ele>
        <time>2025-05-29T11:43:06Z</time>
      </trkpt>
      <trkpt lat="44.51739" lon="1.39276">
        <ele>238</ele>
        <time>2025-05-29T11:43:07Z</time>
      </trkpt>
      <trkpt lat="44.51741" lon="1.39273">
        <ele>237.8</ele>
        <time>2025-05-29T11:43:08Z</time>
      </trkpt>
      <trkpt lat="44.51742" lon="1.39271">
        <ele>237.8</ele>
        <time>2025-05-29T11:43:09Z</time>
      </trkpt>
      <trkpt lat="44.51744" lon="1.39269">
        <ele>237.8</ele>
        <time>2025-05-29T11:43:10Z</time>
      </trkpt>
      <trkpt lat="44.51746" lon="1.39267">
        <ele>237.8</ele>
        <time>2025-05-29T11:43:11Z</time>
      </trkpt>
      <trkpt lat="44.51747" lon="1.39263">
        <ele>237.6</ele>
        <time>2025-05-29T11:43:12Z</time>
      </trkpt>
      <trkpt lat="44.51747" lon="1.39259">
        <ele>237.4</ele>
        <time>2025-05-29T11:43:13Z</time>
      </trkpt>
      <trkpt lat="44.51748" lon="1.39254">
        <ele>237.2</ele>
        <time>2025-05-29T11:43:14Z</time>
      </trkpt>
      <trkpt lat="44.51749" lon="1.3925">
        <ele>236.8</ele>
        <time>2025-05-29T11:43:15Z</time>
      </trkpt>
      <trkpt lat="44.51751" lon="1.39248">
        <ele>236.6</ele>
        <time>2025-05-29T11:43:16Z</time>
      </trkpt>
      <trkpt lat="44.51752" lon="1.39246">
        <ele>236.2</ele>
        <time>2025-05-29T11:43:17Z</time>
      </trkpt>
      <trkpt lat="44.51752" lon="1.39246">
        <ele>236</ele>
        <time>2025-05-29T11:43:18Z</time>
      </trkpt>
      <trkpt lat="44.51753" lon="1.39245">
        <ele>236</ele>
        <time>2025-05-29T11:43:19Z</time>
      </trkpt>
      <trkpt lat="44.51753" lon="1.39244">
        <ele>235.8</ele>
        <time>2025-05-29T11:43:20Z</time>
      </trkpt>
      <trkpt lat="44.51753" lon="1.39242">
        <ele>235.8</ele>
        <time>2025-05-29T11:43:21Z</time>
      </trkpt>
      <trkpt lat="44.51753" lon="1.3924">
        <ele>235.6</ele>
        <time>2025-05-29T11:43:22Z</time>
      </trkpt>
      <trkpt lat="44.51754" lon="1.39239">
        <ele>235.6</ele>
        <time>2025-05-29T11:43:23Z</time>
      </trkpt>
      <trkpt lat="44.51755" lon="1.39237">
        <ele>235.4</ele>
        <time>2025-05-29T11:43:24Z</time>
      </trkpt>
      <trkpt lat="44.51756" lon="1.39236">
        <ele>235.4</ele>
        <time>2025-05-29T11:43:25Z</time>
      </trkpt>
      <trkpt lat="44.51757" lon="1.39236">
        <ele>235.4</ele>
        <time>2025-05-29T11:43:26Z</time>
      </trkpt>
      <trkpt lat="44.51759" lon="1.39236">
        <ele>235.2</ele>
        <time>2025-05-29T11:43:27Z</time>
      </trkpt>
      <trkpt lat="44.5176" lon="1.39234">
        <ele>235.2</ele>
        <time>2025-05-29T11:43:28Z</time>
      </trkpt>
      <trkpt lat="44.51762" lon="1.39232">
        <ele>235</ele>
        <time>2025-05-29T11:43:29Z</time>
      </trkpt>
      <trkpt lat="44.51763" lon="1.39229">
        <ele>234.8</ele>
        <time>2025-05-29T11:43:30Z</time>
      </trkpt>
      <trkpt lat="44.51766" lon="1.39227">
        <ele>234.6</ele>
        <time>2025-05-29T11:43:31Z</time>
      </trkpt>
      <trkpt lat="44.51769" lon="1.39227">
        <ele>234.2</ele>
        <time>2025-05-29T11:43:32Z</time>
      </trkpt>
      <trkpt lat="44.51771" lon="1.39227">
        <ele>234</ele>
        <time>2025-05-29T11:43:33Z</time>
      </trkpt>
      <trkpt lat="44.51773" lon="1.39229">
        <ele>233.8</ele>
        <time>2025-05-29T11:43:34Z</time>
      </trkpt>
      <trkpt lat="44.51775" lon="1.39229">
        <ele>233.8</ele>
        <time>2025-05-29T11:43:35Z</time>
      </trkpt>
      <trkpt lat="44.51776" lon="1.3923">
        <ele>233.8</ele>
        <time>2025-05-29T11:43:36Z</time>
      </trkpt>
      <trkpt lat="44.51778" lon="1.39231">
        <ele>234</ele>
        <time>2025-05-29T11:43:37Z</time>
      </trkpt>
      <trkpt lat="44.51779" lon="1.39231">
        <ele>234</ele>
        <time>2025-05-29T11:43:38Z</time>
      </trkpt>
      <trkpt lat="44.51781" lon="1.39231">
        <ele>234</ele>
        <time>2025-05-29T11:43:39Z</time>
      </trkpt>
      <trkpt lat="44.51782" lon="1.39232">
        <ele>234.2</ele>
        <time>2025-05-29T11:43:40Z</time>
      </trkpt>
      <trkpt lat="44.51784" lon="1.39233">
        <ele>234.2</ele>
        <time>2025-05-29T11:43:41Z</time>
      </trkpt>
      <trkpt lat="44.51785" lon="1.39235">
        <ele>234.4</ele>
        <time>2025-05-29T11:43:42Z</time>
      </trkpt>
      <trkpt lat="44.51786" lon="1.39237">
        <ele>234.6</ele>
        <time>2025-05-29T11:43:43Z</time>
      </trkpt>
      <trkpt lat="44.51786" lon="1.39239">
        <ele>234.8</ele>
        <time>2025-05-29T11:43:44Z</time>
      </trkpt>
      <trkpt lat="44.51787" lon="1.39241">
        <ele>234.8</ele>
        <time>2025-05-29T11:43:45Z</time>
      </trkpt>
      <trkpt lat="44.51788" lon="1.39243">
        <ele>235</ele>
        <time>2025-05-29T11:43:46Z</time>
      </trkpt>
      <trkpt lat="44.51788" lon="1.39246">
        <ele>235</ele>
        <time>2025-05-29T11:43:47Z</time>
      </trkpt>
      <trkpt lat="44.51789" lon="1.39248">
        <ele>235.2</ele>
        <time>2025-05-29T11:43:48Z</time>
      </trkpt>
      <trkpt lat="44.5179" lon="1.3925">
        <ele>235.4</ele>
        <time>2025-05-29T11:43:49Z</time>
      </trkpt>
      <trkpt lat="44.5179" lon="1.39252">
        <ele>235.4</ele>
        <time>2025-05-29T11:43:50Z</time>
      </trkpt>
      <trkpt lat="44.51791" lon="1.39254">
        <ele>235.6</ele>
        <time>2025-05-29T11:43:51Z</time>
      </trkpt>
      <trkpt lat="44.51792" lon="1.39256">
        <ele>235.8</ele>
        <time>2025-05-29T11:43:52Z</time>
      </trkpt>
      <trkpt lat="44.51793" lon="1.39258">
        <ele>236</ele>
        <time>2025-05-29T11:43:53Z</time>
      </trkpt>
      <trkpt lat="44.51794" lon="1.39259">
        <ele>236.2</ele>
        <time>2025-05-29T11:43:54Z</time>
      </trkpt>
      <trkpt lat="44.51794" lon="1.39261">
        <ele>236.4</ele>
        <time>2025-05-29T11:43:55Z</time>
      </trkpt>
      <trkpt lat="44.51795" lon="1.39263">
        <ele>236.4</ele>
        <time>2025-05-29T11:43:56Z</time>
      </trkpt>
      <trkpt lat="44.51796" lon="1.39265">
        <ele>236.6</ele>
        <time>2025-05-29T11:43:57Z</time>
      </trkpt>
      <trkpt lat="44.51797" lon="1.39267">
        <ele>236.8</ele>
        <time>2025-05-29T11:43:58Z</time>
      </trkpt>
      <trkpt lat="44.51798" lon="1.39268">
        <ele>237</ele>
        <time>2025-05-29T11:43:59Z</time>
      </trkpt>
      <trkpt lat="44.51799" lon="1.3927">
        <ele>237.2</ele>
        <time>2025-05-29T11:44:00Z</time>
      </trkpt>
      <trkpt lat="44.518" lon="1.39272">
        <ele>237.4</ele>
        <time>2025-05-29T11:44:01Z</time>
      </trkpt>
      <trkpt lat="44.51801" lon="1.39273">
        <ele>237.6</ele>
        <time>2025-05-29T11:44:02Z</time>
      </trkpt>
      <trkpt lat="44.51803" lon="1.39275">
        <ele>237.8</ele>
        <time>2025-05-29T11:44:03Z</time>
      </trkpt>
      <trkpt lat="44.51804" lon="1.39276">
        <ele>238.2</ele>
        <time>2025-05-29T11:44:04Z</time>
      </trkpt>
      <trkpt lat="44.51805" lon="1.39278">
        <ele>238.4</ele>
        <time>2025-05-29T11:44:05Z</time>
      </trkpt>
      <trkpt lat="44.51805" lon="1.3928">
        <ele>238.6</ele>
        <time>2025-05-29T11:44:06Z</time>
      </trkpt>
      <trkpt lat="44.51806" lon="1.39282">
        <ele>238.6</ele>
        <time>2025-05-29T11:44:07Z</time>
      </trkpt>
      <trkpt lat="44.51807" lon="1.39284">
        <ele>238.8</ele>
        <time>2025-05-29T11:44:08Z</time>
      </trkpt>
      <trkpt lat="44.51809" lon="1.39284">
        <ele>238.8</ele>
        <time>2025-05-29T11:44:09Z</time>
      </trkpt>
      <trkpt lat="44.51812" lon="1.39286">
        <ele>238.8</ele>
        <time>2025-05-29T11:44:10Z</time>
      </trkpt>
      <trkpt lat="44.51813" lon="1.39289">
        <ele>238.8</ele>
        <time>2025-05-29T11:44:11Z</time>
      </trkpt>
      <trkpt lat="44.51815" lon="1.39292">
        <ele>238.8</ele>
        <time>2025-05-29T11:44:12Z</time>
      </trkpt>
      <trkpt lat="44.51816" lon="1.39294">
        <ele>238.6</ele>
        <time>2025-05-29T11:44:13Z</time>
      </trkpt>
      <trkpt lat="44.51816" lon="1.39297">
        <ele>238.4</ele>
        <time>2025-05-29T11:44:14Z</time>
      </trkpt>
      <trkpt lat="44.51817" lon="1.39299">
        <ele>238.4</ele>
        <time>2025-05-29T11:44:15Z</time>
      </trkpt>
      <trkpt lat="44.51819" lon="1.39302">
        <ele>238.4</ele>
        <time>2025-05-29T11:44:16Z</time>
      </trkpt>
      <trkpt lat="44.5182" lon="1.39305">
        <ele>238.4</ele>
        <time>2025-05-29T11:44:17Z</time>
      </trkpt>
      <trkpt lat="44.51821" lon="1.39307">
        <ele>238.4</ele>
        <time>2025-05-29T11:44:18Z</time>
      </trkpt>
      <trkpt lat="44.51822" lon="1.39309">
        <ele>238.4</ele>
        <time>2025-05-29T11:44:19Z</time>
      </trkpt>
      <trkpt lat="44.51823" lon="1.39312">
        <ele>238.4</ele>
        <time>2025-05-29T11:44:20Z</time>
      </trkpt>
      <trkpt lat="44.51824" lon="1.39314">
        <ele>238.4</ele>
        <time>2025-05-29T11:44:21Z</time>
      </trkpt>
      <trkpt lat="44.51826" lon="1.39317">
        <ele>238.4</ele>
        <time>2025-05-29T11:44:22Z</time>
      </trkpt>
      <trkpt lat="44.51826" lon="1.39319">
        <ele>238.4</ele>
        <time>2025-05-29T11:44:23Z</time>
      </trkpt>
      <trkpt lat="44.51827" lon="1.39322">
        <ele>238.6</ele>
        <time>2025-05-29T11:44:24Z</time>
      </trkpt>
      <trkpt lat="44.51828" lon="1.39324">
        <ele>238.6</ele>
        <time>2025-05-29T11:44:25Z</time>
      </trkpt>
      <trkpt lat="44.51828" lon="1.39327">
        <ele>238.6</ele>
        <time>2025-05-29T11:44:26Z</time>
      </trkpt>
      <trkpt lat="44.51828" lon="1.3933">
        <ele>238.6</ele>
        <time>2025-05-29T11:44:27Z</time>
      </trkpt>
      <trkpt lat="44.51829" lon="1.39333">
        <ele>238.8</ele>
        <time>2025-05-29T11:44:28Z</time>
      </trkpt>
      <trkpt lat="44.51829" lon="1.39336">
        <ele>239</ele>
        <time>2025-05-29T11:44:29Z</time>
      </trkpt>
      <trkpt lat="44.51828" lon="1.39338">
        <ele>239</ele>
        <time>2025-05-29T11:44:30Z</time>
      </trkpt>
      <trkpt lat="44.51828" lon="1.39341">
        <ele>239.2</ele>
        <time>2025-05-29T11:44:31Z</time>
      </trkpt>
      <trkpt lat="44.51827" lon="1.39343">
        <ele>239.4</ele>
        <time>2025-05-29T11:44:32Z</time>
      </trkpt>
      <trkpt lat="44.51826" lon="1.39345">
        <ele>239.4</ele>
        <time>2025-05-29T11:44:33Z</time>
      </trkpt>
      <trkpt lat="44.51825" lon="1.39346">
        <ele>239.6</ele>
        <time>2025-05-29T11:44:34Z</time>
      </trkpt>
      <trkpt lat="44.51824" lon="1.39347">
        <ele>239.8</ele>
        <time>2025-05-29T11:44:35Z</time>
      </trkpt>
      <trkpt lat="44.51823" lon="1.39346">
        <ele>240</ele>
        <time>2025-05-29T11:44:36Z</time>
      </trkpt>
      <trkpt lat="44.51822" lon="1.39344">
        <ele>240</ele>
        <time>2025-05-29T11:44:37Z</time>
      </trkpt>
      <trkpt lat="44.51821" lon="1.39342">
        <ele>240.2</ele>
        <time>2025-05-29T11:44:38Z</time>
      </trkpt>
      <trkpt lat="44.5182" lon="1.39341">
        <ele>240.2</ele>
        <time>2025-05-29T11:44:39Z</time>
      </trkpt>
      <trkpt lat="44.51818" lon="1.39339">
        <ele>240.4</ele>
        <time>2025-05-29T11:44:40Z</time>
      </trkpt>
      <trkpt lat="44.51818" lon="1.39337">
        <ele>240.4</ele>
        <time>2025-05-29T11:44:41Z</time>
      </trkpt>
      <trkpt lat="44.51818" lon="1.39335">
        <ele>240.4</ele>
        <time>2025-05-29T11:44:42Z</time>
      </trkpt>
      <trkpt lat="44.51817" lon="1.39333">
        <ele>240.4</ele>
        <time>2025-05-29T11:44:43Z</time>
      </trkpt>
      <trkpt lat="44.51816" lon="1.39331">
        <ele>240.6</ele>
        <time>2025-05-29T11:44:44Z</time>
      </trkpt>
      <trkpt lat="44.51815" lon="1.39329">
        <ele>240.6</ele>
        <time>2025-05-29T11:44:45Z</time>
      </trkpt>
      <trkpt lat="44.51815" lon="1.39326">
        <ele>240.6</ele>
        <time>2025-05-29T11:44:46Z</time>
      </trkpt>
      <trkpt lat="44.51814" lon="1.39324">
        <ele>240.6</ele>
        <time>2025-05-29T11:44:47Z</time>
      </trkpt>
      <trkpt lat="44.51814" lon="1.39322">
        <ele>240.6</ele>
        <time>2025-05-29T11:44:48Z</time>
      </trkpt>
      <trkpt lat="44.51813" lon="1.3932">
        <ele>240.6</ele>
        <time>2025-05-29T11:44:49Z</time>
      </trkpt>
      <trkpt lat="44.51813" lon="1.39318">
        <ele>240.4</ele>
        <time>2025-05-29T11:44:50Z</time>
      </trkpt>
      <trkpt lat="44.51812" lon="1.39315">
        <ele>240.4</ele>
        <time>2025-05-29T11:44:51Z</time>
      </trkpt>
      <trkpt lat="44.51812" lon="1.39313">
        <ele>240.4</ele>
        <time>2025-05-29T11:44:52Z</time>
      </trkpt>
      <trkpt lat="44.51811" lon="1.39312">
        <ele>240.4</ele>
        <time>2025-05-29T11:44:53Z</time>
      </trkpt>
      <trkpt lat="44.5181" lon="1.3931">
        <ele>240.6</ele>
        <time>2025-05-29T11:44:54Z</time>
      </trkpt>
      <trkpt lat="44.51808" lon="1.39308">
        <ele>240.6</ele>
        <time>2025-05-29T11:44:55Z</time>
      </trkpt>
      <trkpt lat="44.51807" lon="1.39307">
        <ele>240.8</ele>
        <time>2025-05-29T11:44:56Z</time>
      </trkpt>
      <trkpt lat="44.51806" lon="1.39305">
        <ele>241</ele>
        <time>2025-05-29T11:44:57Z</time>
      </trkpt>
      <trkpt lat="44.51804" lon="1.39304">
        <ele>241.2</ele>
        <time>2025-05-29T11:44:58Z</time>
      </trkpt>
      <trkpt lat="44.51802" lon="1.39304">
        <ele>241.4</ele>
        <time>2025-05-29T11:44:59Z</time>
      </trkpt>
      <trkpt lat="44.51801" lon="1.39303">
        <ele>241.6</ele>
        <time>2025-05-29T11:45:00Z</time>
      </trkpt>
      <trkpt lat="44.51799" lon="1.39303">
        <ele>241.8</ele>
        <time>2025-05-29T11:45:01Z</time>
      </trkpt>
      <trkpt lat="44.51797" lon="1.39303">
        <ele>241.8</ele>
        <time>2025-05-29T11:45:02Z</time>
      </trkpt>
      <trkpt lat="44.51796" lon="1.39304">
        <ele>242.2</ele>
        <time>2025-05-29T11:45:03Z</time>
      </trkpt>
      <trkpt lat="44.51795" lon="1.39304">
        <ele>242.4</ele>
        <time>2025-05-29T11:45:04Z</time>
      </trkpt>
      <trkpt lat="44.51793" lon="1.39305">
        <ele>242.6</ele>
        <time>2025-05-29T11:45:05Z</time>
      </trkpt>
      <trkpt lat="44.51792" lon="1.39305">
        <ele>242.8</ele>
        <time>2025-05-29T11:45:06Z</time>
      </trkpt>
      <trkpt lat="44.51791" lon="1.39306">
        <ele>243.2</ele>
        <time>2025-05-29T11:45:07Z</time>
      </trkpt>
      <trkpt lat="44.5179" lon="1.39307">
        <ele>243.4</ele>
        <time>2025-05-29T11:45:08Z</time>
      </trkpt>
      <trkpt lat="44.51789" lon="1.39308">
        <ele>243.6</ele>
        <time>2025-05-29T11:45:09Z</time>
      </trkpt>
      <trkpt lat="44.51788" lon="1.3931">
        <ele>243.8</ele>
        <time>2025-05-29T11:45:10Z</time>
      </trkpt>
      <trkpt lat="44.51787" lon="1.39311">
        <ele>244.2</ele>
        <time>2025-05-29T11:45:11Z</time>
      </trkpt>
      <trkpt lat="44.51786" lon="1.39311">
        <ele>244.4</ele>
        <time>2025-05-29T11:45:12Z</time>
      </trkpt>
      <trkpt lat="44.51784" lon="1.39312">
        <ele>244.6</ele>
        <time>2025-05-29T11:45:13Z</time>
      </trkpt>
      <trkpt lat="44.51783" lon="1.39313">
        <ele>244.8</ele>
        <time>2025-05-29T11:45:14Z</time>
      </trkpt>
      <trkpt lat="44.51782" lon="1.39314">
        <ele>245</ele>
        <time>2025-05-29T11:45:15Z</time>
      </trkpt>
      <trkpt lat="44.5178" lon="1.39315">
        <ele>245.2</ele>
        <time>2025-05-29T11:45:16Z</time>
      </trkpt>
      <trkpt lat="44.51779" lon="1.39315">
        <ele>245.4</ele>
        <time>2025-05-29T11:45:17Z</time>
      </trkpt>
      <trkpt lat="44.51778" lon="1.39316">
        <ele>245.6</ele>
        <time>2025-05-29T11:45:18Z</time>
      </trkpt>
      <trkpt lat="44.51776" lon="1.39316">
        <ele>245.8</ele>
        <time>2025-05-29T11:45:19Z</time>
      </trkpt>
      <trkpt lat="44.51775" lon="1.39316">
        <ele>245.8</ele>
        <time>2025-05-29T11:45:20Z</time>
      </trkpt>
      <trkpt lat="44.51773" lon="1.39316">
        <ele>246</ele>
        <time>2025-05-29T11:45:21Z</time>
      </trkpt>
      <trkpt lat="44.51771" lon="1.39316">
        <ele>246</ele>
        <time>2025-05-29T11:45:22Z</time>
      </trkpt>
      <trkpt lat="44.51769" lon="1.39315">
        <ele>246</ele>
        <time>2025-05-29T11:45:23Z</time>
      </trkpt>
      <trkpt lat="44.51767" lon="1.39315">
        <ele>246</ele>
        <time>2025-05-29T11:45:24Z</time>
      </trkpt>
      <trkpt lat="44.51764" lon="1.39316">
        <ele>246</ele>
        <time>2025-05-29T11:45:25Z</time>
      </trkpt>
      <trkpt lat="44.51762" lon="1.39316">
        <ele>246</ele>
        <time>2025-05-29T11:45:26Z</time>
      </trkpt>
      <trkpt lat="44.51761" lon="1.39317">
        <ele>246</ele>
        <time>2025-05-29T11:45:27Z</time>
      </trkpt>
      <trkpt lat="44.51759" lon="1.39318">
        <ele>246.2</ele>
        <time>2025-05-29T11:45:28Z</time>
      </trkpt>
      <trkpt lat="44.51758" lon="1.3932">
        <ele>246.2</ele>
        <time>2025-05-29T11:45:29Z</time>
      </trkpt>
      <trkpt lat="44.51757" lon="1.39321">
        <ele>246.4</ele>
        <time>2025-05-29T11:45:30Z</time>
      </trkpt>
      <trkpt lat="44.51755" lon="1.39321">
        <ele>246.6</ele>
        <time>2025-05-29T11:45:31Z</time>
      </trkpt>
      <trkpt lat="44.51754" lon="1.39323">
        <ele>246.8</ele>
        <time>2025-05-29T11:45:32Z</time>
      </trkpt>
      <trkpt lat="44.51753" lon="1.39325">
        <ele>246.8</ele>
        <time>2025-05-29T11:45:33Z</time>
      </trkpt>
      <trkpt lat="44.51752" lon="1.39326">
        <ele>247</ele>
        <time>2025-05-29T11:45:34Z</time>
      </trkpt>
      <trkpt lat="44.51751" lon="1.39328">
        <ele>247</ele>
        <time>2025-05-29T11:45:35Z</time>
      </trkpt>
      <trkpt lat="44.5175" lon="1.3933">
        <ele>247.2</ele>
        <time>2025-05-29T11:45:36Z</time>
      </trkpt>
      <trkpt lat="44.51749" lon="1.39331">
        <ele>247.4</ele>
        <time>2025-05-29T11:45:37Z</time>
      </trkpt>
      <trkpt lat="44.51748" lon="1.39333">
        <ele>247.6</ele>
        <time>2025-05-29T11:45:38Z</time>
      </trkpt>
      <trkpt lat="44.51747" lon="1.39335">
        <ele>247.8</ele>
        <time>2025-05-29T11:45:39Z</time>
      </trkpt>
      <trkpt lat="44.51747" lon="1.39336">
        <ele>248</ele>
        <time>2025-05-29T11:45:40Z</time>
      </trkpt>
      <trkpt lat="44.51746" lon="1.39338">
        <ele>248.2</ele>
        <time>2025-05-29T11:45:41Z</time>
      </trkpt>
      <trkpt lat="44.51745" lon="1.39339">
        <ele>248.4</ele>
        <time>2025-05-29T11:45:42Z</time>
      </trkpt>
      <trkpt lat="44.51743" lon="1.3934">
        <ele>248.6</ele>
        <time>2025-05-29T11:45:43Z</time>
      </trkpt>
      <trkpt lat="44.51742" lon="1.39342">
        <ele>248.8</ele>
        <time>2025-05-29T11:45:44Z</time>
      </trkpt>
      <trkpt lat="44.51741" lon="1.39343">
        <ele>249</ele>
        <time>2025-05-29T11:45:45Z</time>
      </trkpt>
      <trkpt lat="44.5174" lon="1.39344">
        <ele>249</ele>
        <time>2025-05-29T11:45:46Z</time>
      </trkpt>
      <trkpt lat="44.51738" lon="1.39345">
        <ele>249.2</ele>
        <time>2025-05-29T11:45:47Z</time>
      </trkpt>
      <trkpt lat="44.51737" lon="1.39347">
        <ele>249.4</ele>
        <time>2025-05-29T11:45:48Z</time>
      </trkpt>
      <trkpt lat="44.51735" lon="1.39348">
        <ele>249.4</ele>
        <time>2025-05-29T11:45:49Z</time>
      </trkpt>
      <trkpt lat="44.51734" lon="1.39349">
        <ele>249.6</ele>
        <time>2025-05-29T11:45:50Z</time>
      </trkpt>
      <trkpt lat="44.51733" lon="1.3935">
        <ele>249.6</ele>
        <time>2025-05-29T11:45:51Z</time>
      </trkpt>
      <trkpt lat="44.51731" lon="1.39352">
        <ele>249.6</ele>
        <time>2025-05-29T11:45:52Z</time>
      </trkpt>
      <trkpt lat="44.5173" lon="1.39352">
        <ele>249.8</ele>
        <time>2025-05-29T11:45:53Z</time>
      </trkpt>
      <trkpt lat="44.51729" lon="1.39353">
        <ele>249.8</ele>
        <time>2025-05-29T11:45:54Z</time>
      </trkpt>
      <trkpt lat="44.51728" lon="1.39354">
        <ele>250</ele>
        <time>2025-05-29T11:45:55Z</time>
      </trkpt>
      <trkpt lat="44.51726" lon="1.39356">
        <ele>250.2</ele>
        <time>2025-05-29T11:45:56Z</time>
      </trkpt>
      <trkpt lat="44.51725" lon="1.39356">
        <ele>250.4</ele>
        <time>2025-05-29T11:45:57Z</time>
      </trkpt>
      <trkpt lat="44.51724" lon="1.39357">
        <ele>250.4</ele>
        <time>2025-05-29T11:45:58Z</time>
      </trkpt>
      <trkpt lat="44.51722" lon="1.39358">
        <ele>250.4</ele>
        <time>2025-05-29T11:45:59Z</time>
      </trkpt>
      <trkpt lat="44.5172" lon="1.39359">
        <ele>250.4</ele>
        <time>2025-05-29T11:46:00Z</time>
      </trkpt>
      <trkpt lat="44.51719" lon="1.3936">
        <ele>250.4</ele>
        <time>2025-05-29T11:46:01Z</time>
      </trkpt>
      <trkpt lat="44.51717" lon="1.3936">
        <ele>250.4</ele>
        <time>2025-05-29T11:46:02Z</time>
      </trkpt>
      <trkpt lat="44.51715" lon="1.39361">
        <ele>250.6</ele>
        <time>2025-05-29T11:46:03Z</time>
      </trkpt>
      <trkpt lat="44.51714" lon="1.39363">
        <ele>250.6</ele>
        <time>2025-05-29T11:46:04Z</time>
      </trkpt>
      <trkpt lat="44.51712" lon="1.39363">
        <ele>250.6</ele>
        <time>2025-05-29T11:46:05Z</time>
      </trkpt>
      <trkpt lat="44.51711" lon="1.39364">
        <ele>250.6</ele>
        <time>2025-05-29T11:46:06Z</time>
      </trkpt>
      <trkpt lat="44.51709" lon="1.39365">
        <ele>250.6</ele>
        <time>2025-05-29T11:46:07Z</time>
      </trkpt>
      <trkpt lat="44.51708" lon="1.39366">
        <ele>250.6</ele>
        <time>2025-05-29T11:46:08Z</time>
      </trkpt>
      <trkpt lat="44.51708" lon="1.39368">
        <ele>250.6</ele>
        <time>2025-05-29T11:46:09Z</time>
      </trkpt>
      <trkpt lat="44.51707" lon="1.39369">
        <ele>250.8</ele>
        <time>2025-05-29T11:46:10Z</time>
      </trkpt>
      <trkpt lat="44.51706" lon="1.39371">
        <ele>251</ele>
        <time>2025-05-29T11:46:11Z</time>
      </trkpt>
      <trkpt lat="44.51705" lon="1.39372">
        <ele>251</ele>
        <time>2025-05-29T11:46:12Z</time>
      </trkpt>
      <trkpt lat="44.51704" lon="1.39374">
        <ele>251.2</ele>
        <time>2025-05-29T11:46:13Z</time>
      </trkpt>
      <trkpt lat="44.51704" lon="1.39375">
        <ele>251.2</ele>
        <time>2025-05-29T11:46:14Z</time>
      </trkpt>
      <trkpt lat="44.51703" lon="1.39376">
        <ele>251.4</ele>
        <time>2025-05-29T11:46:15Z</time>
      </trkpt>
      <trkpt lat="44.51704" lon="1.39378">
        <ele>251.6</ele>
        <time>2025-05-29T11:46:16Z</time>
      </trkpt>
      <trkpt lat="44.51704" lon="1.3938">
        <ele>251.8</ele>
        <time>2025-05-29T11:46:17Z</time>
      </trkpt>
      <trkpt lat="44.51704" lon="1.39382">
        <ele>252</ele>
        <time>2025-05-29T11:46:18Z</time>
      </trkpt>
      <trkpt lat="44.51704" lon="1.39384">
        <ele>252</ele>
        <time>2025-05-29T11:46:19Z</time>
      </trkpt>
      <trkpt lat="44.51704" lon="1.39386">
        <ele>252.2</ele>
        <time>2025-05-29T11:46:20Z</time>
      </trkpt>
      <trkpt lat="44.51704" lon="1.39388">
        <ele>252.4</ele>
        <time>2025-05-29T11:46:21Z</time>
      </trkpt>
      <trkpt lat="44.51705" lon="1.3939">
        <ele>252.4</ele>
        <time>2025-05-29T11:46:22Z</time>
      </trkpt>
      <trkpt lat="44.51705" lon="1.39392">
        <ele>252.6</ele>
        <time>2025-05-29T11:46:23Z</time>
      </trkpt>
      <trkpt lat="44.51706" lon="1.39394">
        <ele>252.8</ele>
        <time>2025-05-29T11:46:24Z</time>
      </trkpt>
      <trkpt lat="44.51707" lon="1.39396">
        <ele>252.8</ele>
        <time>2025-05-29T11:46:25Z</time>
      </trkpt>
      <trkpt lat="44.51708" lon="1.39398">
        <ele>253</ele>
        <time>2025-05-29T11:46:26Z</time>
      </trkpt>
      <trkpt lat="44.51708" lon="1.394">
        <ele>253.4</ele>
        <time>2025-05-29T11:46:27Z</time>
      </trkpt>
      <trkpt lat="44.51709" lon="1.39402">
        <ele>253.6</ele>
        <time>2025-05-29T11:46:28Z</time>
      </trkpt>
      <trkpt lat="44.5171" lon="1.39404">
        <ele>253.8</ele>
        <time>2025-05-29T11:46:29Z</time>
      </trkpt>
      <trkpt lat="44.51711" lon="1.39406">
        <ele>254</ele>
        <time>2025-05-29T11:46:30Z</time>
      </trkpt>
      <trkpt lat="44.51712" lon="1.39407">
        <ele>254</ele>
        <time>2025-05-29T11:46:31Z</time>
      </trkpt>
      <trkpt lat="44.51713" lon="1.39409">
        <ele>254</ele>
        <time>2025-05-29T11:46:32Z</time>
      </trkpt>
      <trkpt lat="44.51714" lon="1.39411">
        <ele>254</ele>
        <time>2025-05-29T11:46:33Z</time>
      </trkpt>
      <trkpt lat="44.51715" lon="1.39413">
        <ele>253.8</ele>
        <time>2025-05-29T11:46:34Z</time>
      </trkpt>
      <trkpt lat="44.51715" lon="1.39415">
        <ele>253.8</ele>
        <time>2025-05-29T11:46:35Z</time>
      </trkpt>
      <trkpt lat="44.51716" lon="1.39417">
        <ele>254</ele>
        <time>2025-05-29T11:46:36Z</time>
      </trkpt>
      <trkpt lat="44.51717" lon="1.39419">
        <ele>254</ele>
        <time>2025-05-29T11:46:37Z</time>
      </trkpt>
      <trkpt lat="44.51717" lon="1.3942">
        <ele>254.2</ele>
        <time>2025-05-29T11:46:38Z</time>
      </trkpt>
      <trkpt lat="44.51718" lon="1.39422">
        <ele>254.2</ele>
        <time>2025-05-29T11:46:39Z</time>
      </trkpt>
      <trkpt lat="44.51719" lon="1.39423">
        <ele>254.4</ele>
        <time>2025-05-29T11:46:40Z</time>
      </trkpt>
      <trkpt lat="44.5172" lon="1.39425">
        <ele>254.6</ele>
        <time>2025-05-29T11:46:41Z</time>
      </trkpt>
      <trkpt lat="44.51721" lon="1.39427">
        <ele>254.8</ele>
        <time>2025-05-29T11:46:42Z</time>
      </trkpt>
      <trkpt lat="44.51722" lon="1.39429">
        <ele>254.8</ele>
        <time>2025-05-29T11:46:43Z</time>
      </trkpt>
      <trkpt lat="44.51723" lon="1.39431">
        <ele>255</ele>
        <time>2025-05-29T11:46:44Z</time>
      </trkpt>
      <trkpt lat="44.51724" lon="1.39432">
        <ele>255</ele>
        <time>2025-05-29T11:46:45Z</time>
      </trkpt>
      <trkpt lat="44.51725" lon="1.39434">
        <ele>255.2</ele>
        <time>2025-05-29T11:46:46Z</time>
      </trkpt>
      <trkpt lat="44.51725" lon="1.39436">
        <ele>255.2</ele>
        <time>2025-05-29T11:46:47Z</time>
      </trkpt>
      <trkpt lat="44.51726" lon="1.39438">
        <ele>255.2</ele>
        <time>2025-05-29T11:46:48Z</time>
      </trkpt>
      <trkpt lat="44.51727" lon="1.39441">
        <ele>255.2</ele>
        <time>2025-05-29T11:46:49Z</time>
      </trkpt>
      <trkpt lat="44.51728" lon="1.39443">
        <ele>255.4</ele>
        <time>2025-05-29T11:46:50Z</time>
      </trkpt>
      <trkpt lat="44.51729" lon="1.39447">
        <ele>255.4</ele>
        <time>2025-05-29T11:46:51Z</time>
      </trkpt>
      <trkpt lat="44.5173" lon="1.39449">
        <ele>255.6</ele>
        <time>2025-05-29T11:46:52Z</time>
      </trkpt>
      <trkpt lat="44.51731" lon="1.39451">
        <ele>255.6</ele>
        <time>2025-05-29T11:46:53Z</time>
      </trkpt>
      <trkpt lat="44.51732" lon="1.39454">
        <ele>255.8</ele>
        <time>2025-05-29T11:46:54Z</time>
      </trkpt>
      <trkpt lat="44.51733" lon="1.39456">
        <ele>255.8</ele>
        <time>2025-05-29T11:46:55Z</time>
      </trkpt>
      <trkpt lat="44.51733" lon="1.39459">
        <ele>256</ele>
        <time>2025-05-29T11:46:56Z</time>
      </trkpt>
      <trkpt lat="44.51734" lon="1.39462">
        <ele>256</ele>
        <time>2025-05-29T11:46:57Z</time>
      </trkpt>
      <trkpt lat="44.51735" lon="1.39464">
        <ele>256</ele>
        <time>2025-05-29T11:46:58Z</time>
      </trkpt>
      <trkpt lat="44.51736" lon="1.39466">
        <ele>256.2</ele>
        <time>2025-05-29T11:46:59Z</time>
      </trkpt>
      <trkpt lat="44.51736" lon="1.39469">
        <ele>256.2</ele>
        <time>2025-05-29T11:47:00Z</time>
      </trkpt>
      <trkpt lat="44.51737" lon="1.39471">
        <ele>256.2</ele>
        <time>2025-05-29T11:47:01Z</time>
      </trkpt>
      <trkpt lat="44.51737" lon="1.39474">
        <ele>256.4</ele>
        <time>2025-05-29T11:47:02Z</time>
      </trkpt>
      <trkpt lat="44.51738" lon="1.39477">
        <ele>256.4</ele>
        <time>2025-05-29T11:47:03Z</time>
      </trkpt>
      <trkpt lat="44.51738" lon="1.3948">
        <ele>256.4</ele>
        <time>2025-05-29T11:47:04Z</time>
      </trkpt>
      <trkpt lat="44.51739" lon="1.39482">
        <ele>256.4</ele>
        <time>2025-05-29T11:47:05Z</time>
      </trkpt>
      <trkpt lat="44.5174" lon="1.39485">
        <ele>256.4</ele>
        <time>2025-05-29T11:47:06Z</time>
      </trkpt>
      <trkpt lat="44.51741" lon="1.39487">
        <ele>256.4</ele>
        <time>2025-05-29T11:47:07Z</time>
      </trkpt>
      <trkpt lat="44.51743" lon="1.39489">
        <ele>256.6</ele>
        <time>2025-05-29T11:47:08Z</time>
      </trkpt>
      <trkpt lat="44.51745" lon="1.3949">
        <ele>256.6</ele>
        <time>2025-05-29T11:47:09Z</time>
      </trkpt>
      <trkpt lat="44.51748" lon="1.3949">
        <ele>256.4</ele>
        <time>2025-05-29T11:47:10Z</time>
      </trkpt>
      <trkpt lat="44.5175" lon="1.39489">
        <ele>256.4</ele>
        <time>2025-05-29T11:47:11Z</time>
      </trkpt>
      <trkpt lat="44.51752" lon="1.39488">
        <ele>256.2</ele>
        <time>2025-05-29T11:47:12Z</time>
      </trkpt>
      <trkpt lat="44.51755" lon="1.39487">
        <ele>256</ele>
        <time>2025-05-29T11:47:13Z</time>
      </trkpt>
      <trkpt lat="44.51758" lon="1.39484">
        <ele>255.8</ele>
        <time>2025-05-29T11:47:14Z</time>
      </trkpt>
      <trkpt lat="44.51761" lon="1.39481">
        <ele>255.4</ele>
        <time>2025-05-29T11:47:15Z</time>
      </trkpt>
      <trkpt lat="44.51763" lon="1.39477">
        <ele>255.2</ele>
        <time>2025-05-29T11:47:16Z</time>
      </trkpt>
      <trkpt lat="44.51766" lon="1.39473">
        <ele>255</ele>
        <time>2025-05-29T11:47:17Z</time>
      </trkpt>
      <trkpt lat="44.51769" lon="1.39469">
        <ele>254.6</ele>
        <time>2025-05-29T11:47:18Z</time>
      </trkpt>
      <trkpt lat="44.51773" lon="1.39467">
        <ele>254.2</ele>
        <time>2025-05-29T11:47:19Z</time>
      </trkpt>
      <trkpt lat="44.51775" lon="1.39466">
        <ele>253.8</ele>
        <time>2025-05-29T11:47:20Z</time>
      </trkpt>
      <trkpt lat="44.51776" lon="1.39466">
        <ele>253.6</ele>
        <time>2025-05-29T11:47:21Z</time>
      </trkpt>
      <trkpt lat="44.51778" lon="1.39467">
        <ele>253.4</ele>
        <time>2025-05-29T11:47:22Z</time>
      </trkpt>
      <trkpt lat="44.51779" lon="1.39468">
        <ele>253.4</ele>
        <time>2025-05-29T11:47:23Z</time>
      </trkpt>
      <trkpt lat="44.51782" lon="1.39469">
        <ele>253.4</ele>
        <time>2025-05-29T11:47:24Z</time>
      </trkpt>
      <trkpt lat="44.51784" lon="1.39472">
        <ele>253.2</ele>
        <time>2025-05-29T11:47:25Z</time>
      </trkpt>
      <trkpt lat="44.51785" lon="1.39474">
        <ele>253</ele>
        <time>2025-05-29T11:47:26Z</time>
      </trkpt>
      <trkpt lat="44.51784" lon="1.39477">
        <ele>252.8</ele>
        <time>2025-05-29T11:47:27Z</time>
      </trkpt>
      <trkpt lat="44.51784" lon="1.39479">
        <ele>252.8</ele>
        <time>2025-05-29T11:47:28Z</time>
      </trkpt>
      <trkpt lat="44.51784" lon="1.39481">
        <ele>252.6</ele>
        <time>2025-05-29T11:47:29Z</time>
      </trkpt>
      <trkpt lat="44.51784" lon="1.39484">
        <ele>252.6</ele>
        <time>2025-05-29T11:47:30Z</time>
      </trkpt>
      <trkpt lat="44.51784" lon="1.39486">
        <ele>252.6</ele>
        <time>2025-05-29T11:47:31Z</time>
      </trkpt>
      <trkpt lat="44.51784" lon="1.39489">
        <ele>252.8</ele>
        <time>2025-05-29T11:47:32Z</time>
      </trkpt>
      <trkpt lat="44.51784" lon="1.39491">
        <ele>252.8</ele>
        <time>2025-05-29T11:47:33Z</time>
      </trkpt>
      <trkpt lat="44.51783" lon="1.39494">
        <ele>252.8</ele>
        <time>2025-05-29T11:47:34Z</time>
      </trkpt>
      <trkpt lat="44.51782" lon="1.39495">
        <ele>252.8</ele>
        <time>2025-05-29T11:47:35Z</time>
      </trkpt>
      <trkpt lat="44.51781" lon="1.39497">
        <ele>253</ele>
        <time>2025-05-29T11:47:36Z</time>
      </trkpt>
      <trkpt lat="44.5178" lon="1.39498">
        <ele>253</ele>
        <time>2025-05-29T11:47:37Z</time>
      </trkpt>
      <trkpt lat="44.51778" lon="1.39499">
        <ele>253.2</ele>
        <time>2025-05-29T11:47:38Z</time>
      </trkpt>
      <trkpt lat="44.51777" lon="1.39501">
        <ele>253.4</ele>
        <time>2025-05-29T11:47:39Z</time>
      </trkpt>
      <trkpt lat="44.51776" lon="1.39503">
        <ele>253.6</ele>
        <time>2025-05-29T11:47:40Z</time>
      </trkpt>
      <trkpt lat="44.51775" lon="1.39505">
        <ele>253.8</ele>
        <time>2025-05-29T11:47:41Z</time>
      </trkpt>
      <trkpt lat="44.51774" lon="1.39507">
        <ele>254</ele>
        <time>2025-05-29T11:47:42Z</time>
      </trkpt>
      <trkpt lat="44.51774" lon="1.39509">
        <ele>254.2</ele>
        <time>2025-05-29T11:47:43Z</time>
      </trkpt>
      <trkpt lat="44.51773" lon="1.39512">
        <ele>254.2</ele>
        <time>2025-05-29T11:47:44Z</time>
      </trkpt>
      <trkpt lat="44.51772" lon="1.39514">
        <ele>254.4</ele>
        <time>2025-05-29T11:47:45Z</time>
      </trkpt>
      <trkpt lat="44.51771" lon="1.39516">
        <ele>254.6</ele>
        <time>2025-05-29T11:47:46Z</time>
      </trkpt>
      <trkpt lat="44.5177" lon="1.39517">
        <ele>254.6</ele>
        <time>2025-05-29T11:47:47Z</time>
      </trkpt>
      <trkpt lat="44.51769" lon="1.39519">
        <ele>254.8</ele>
        <time>2025-05-29T11:47:48Z</time>
      </trkpt>
      <trkpt lat="44.51768" lon="1.39521">
        <ele>255</ele>
        <time>2025-05-29T11:47:49Z</time>
      </trkpt>
      <trkpt lat="44.51767" lon="1.39524">
        <ele>255</ele>
        <time>2025-05-29T11:47:50Z</time>
      </trkpt>
      <trkpt lat="44.51766" lon="1.39525">
        <ele>255.2</ele>
        <time>2025-05-29T11:47:51Z</time>
      </trkpt>
      <trkpt lat="44.51765" lon="1.39527">
        <ele>255.4</ele>
        <time>2025-05-29T11:47:52Z</time>
      </trkpt>
      <trkpt lat="44.51765" lon="1.39529">
        <ele>255.4</ele>
        <time>2025-05-29T11:47:53Z</time>
      </trkpt>
      <trkpt lat="44.51765" lon="1.39532">
        <ele>255.6</ele>
        <time>2025-05-29T11:47:54Z</time>
      </trkpt>
      <trkpt lat="44.51764" lon="1.39534">
        <ele>255.6</ele>
        <time>2025-05-29T11:47:55Z</time>
      </trkpt>
      <trkpt lat="44.51764" lon="1.39536">
        <ele>255.8</ele>
        <time>2025-05-29T11:47:56Z</time>
      </trkpt>
      <trkpt lat="44.51763" lon="1.39539">
        <ele>255.8</ele>
        <time>2025-05-29T11:47:57Z</time>
      </trkpt>
      <trkpt lat="44.51762" lon="1.39541">
        <ele>256</ele>
        <time>2025-05-29T11:47:58Z</time>
      </trkpt>
      <trkpt lat="44.51761" lon="1.39543">
        <ele>256</ele>
        <time>2025-05-29T11:47:59Z</time>
      </trkpt>
      <trkpt lat="44.51759" lon="1.39546">
        <ele>256.2</ele>
        <time>2025-05-29T11:48:00Z</time>
      </trkpt>
      <trkpt lat="44.51758" lon="1.39548">
        <ele>256.2</ele>
        <time>2025-05-29T11:48:01Z</time>
      </trkpt>
      <trkpt lat="44.51757" lon="1.3955">
        <ele>256.4</ele>
        <time>2025-05-29T11:48:02Z</time>
      </trkpt>
      <trkpt lat="44.51756" lon="1.39552">
        <ele>256.6</ele>
        <time>2025-05-29T11:48:03Z</time>
      </trkpt>
      <trkpt lat="44.51755" lon="1.39554">
        <ele>256.6</ele>
        <time>2025-05-29T11:48:04Z</time>
      </trkpt>
      <trkpt lat="44.51754" lon="1.39556">
        <ele>256.8</ele>
        <time>2025-05-29T11:48:05Z</time>
      </trkpt>
      <trkpt lat="44.51753" lon="1.39559">
        <ele>257</ele>
        <time>2025-05-29T11:48:06Z</time>
      </trkpt>
      <trkpt lat="44.51751" lon="1.39561">
        <ele>257</ele>
        <time>2025-05-29T11:48:07Z</time>
      </trkpt>
      <trkpt lat="44.5175" lon="1.39563">
        <ele>257.2</ele>
        <time>2025-05-29T11:48:08Z</time>
      </trkpt>
      <trkpt lat="44.5175" lon="1.39565">
        <ele>257.2</ele>
        <time>2025-05-29T11:48:09Z</time>
      </trkpt>
      <trkpt lat="44.51748" lon="1.39568">
        <ele>257.2</ele>
        <time>2025-05-29T11:48:10Z</time>
      </trkpt>
      <trkpt lat="44.51747" lon="1.39571">
        <ele>257.4</ele>
        <time>2025-05-29T11:48:11Z</time>
      </trkpt>
      <trkpt lat="44.51746" lon="1.39574">
        <ele>257.4</ele>
        <time>2025-05-29T11:48:12Z</time>
      </trkpt>
      <trkpt lat="44.51745" lon="1.39576">
        <ele>257.6</ele>
        <time>2025-05-29T11:48:13Z</time>
      </trkpt>
      <trkpt lat="44.51743" lon="1.39579">
        <ele>257.6</ele>
        <time>2025-05-29T11:48:14Z</time>
      </trkpt>
      <trkpt lat="44.51742" lon="1.39581">
        <ele>257.6</ele>
        <time>2025-05-29T11:48:15Z</time>
      </trkpt>
      <trkpt lat="44.51741" lon="1.39584">
        <ele>257.8</ele>
        <time>2025-05-29T11:48:16Z</time>
      </trkpt>
      <trkpt lat="44.51741" lon="1.39587">
        <ele>257.8</ele>
        <time>2025-05-29T11:48:17Z</time>
      </trkpt>
      <trkpt lat="44.5174" lon="1.39589">
        <ele>257.8</ele>
        <time>2025-05-29T11:48:18Z</time>
      </trkpt>
      <trkpt lat="44.5174" lon="1.39592">
        <ele>258</ele>
        <time>2025-05-29T11:48:19Z</time>
      </trkpt>
      <trkpt lat="44.51739" lon="1.39595">
        <ele>257.8</ele>
        <time>2025-05-29T11:48:20Z</time>
      </trkpt>
      <trkpt lat="44.51738" lon="1.39597">
        <ele>257.8</ele>
        <time>2025-05-29T11:48:21Z</time>
      </trkpt>
      <trkpt lat="44.51736" lon="1.39598">
        <ele>257.8</ele>
        <time>2025-05-29T11:48:22Z</time>
      </trkpt>
      <trkpt lat="44.51735" lon="1.39601">
        <ele>258</ele>
        <time>2025-05-29T11:48:23Z</time>
      </trkpt>
      <trkpt lat="44.51733" lon="1.39602">
        <ele>258</ele>
        <time>2025-05-29T11:48:24Z</time>
      </trkpt>
      <trkpt lat="44.51731" lon="1.39604">
        <ele>258</ele>
        <time>2025-05-29T11:48:25Z</time>
      </trkpt>
      <trkpt lat="44.51729" lon="1.39605">
        <ele>258</ele>
        <time>2025-05-29T11:48:26Z</time>
      </trkpt>
      <trkpt lat="44.51728" lon="1.39606">
        <ele>258.2</ele>
        <time>2025-05-29T11:48:27Z</time>
      </trkpt>
      <trkpt lat="44.51727" lon="1.39608">
        <ele>258.2</ele>
        <time>2025-05-29T11:48:28Z</time>
      </trkpt>
      <trkpt lat="44.51726" lon="1.39611">
        <ele>258.2</ele>
        <time>2025-05-29T11:48:29Z</time>
      </trkpt>
      <trkpt lat="44.51725" lon="1.39614">
        <ele>258.2</ele>
        <time>2025-05-29T11:48:30Z</time>
      </trkpt>
      <trkpt lat="44.51724" lon="1.39617">
        <ele>258.4</ele>
        <time>2025-05-29T11:48:31Z</time>
      </trkpt>
      <trkpt lat="44.51723" lon="1.3962">
        <ele>258.4</ele>
        <time>2025-05-29T11:48:32Z</time>
      </trkpt>
      <trkpt lat="44.51722" lon="1.39623">
        <ele>258.2</ele>
        <time>2025-05-29T11:48:33Z</time>
      </trkpt>
      <trkpt lat="44.5172" lon="1.39626">
        <ele>258.2</ele>
        <time>2025-05-29T11:48:34Z</time>
      </trkpt>
      <trkpt lat="44.51719" lon="1.39629">
        <ele>258.2</ele>
        <time>2025-05-29T11:48:35Z</time>
      </trkpt>
      <trkpt lat="44.51719" lon="1.39633">
        <ele>258</ele>
        <time>2025-05-29T11:48:36Z</time>
      </trkpt>
      <trkpt lat="44.5172" lon="1.39636">
        <ele>258</ele>
        <time>2025-05-29T11:48:37Z</time>
      </trkpt>
      <trkpt lat="44.51722" lon="1.39638">
        <ele>257.8</ele>
        <time>2025-05-29T11:48:38Z</time>
      </trkpt>
      <trkpt lat="44.51723" lon="1.3964">
        <ele>257.8</ele>
        <time>2025-05-29T11:48:39Z</time>
      </trkpt>
      <trkpt lat="44.51725" lon="1.39642">
        <ele>257.6</ele>
        <time>2025-05-29T11:48:40Z</time>
      </trkpt>
      <trkpt lat="44.51725" lon="1.39645">
        <ele>257.4</ele>
        <time>2025-05-29T11:48:41Z</time>
      </trkpt>
      <trkpt lat="44.51724" lon="1.39648">
        <ele>257.4</ele>
        <time>2025-05-29T11:48:42Z</time>
      </trkpt>
      <trkpt lat="44.51723" lon="1.39651">
        <ele>257.4</ele>
        <time>2025-05-29T11:48:43Z</time>
      </trkpt>
      <trkpt lat="44.51722" lon="1.39653">
        <ele>257.4</ele>
        <time>2025-05-29T11:48:44Z</time>
      </trkpt>
      <trkpt lat="44.5172" lon="1.39656">
        <ele>257.4</ele>
        <time>2025-05-29T11:48:45Z</time>
      </trkpt>
      <trkpt lat="44.51719" lon="1.39658">
        <ele>257.4</ele>
        <time>2025-05-29T11:48:46Z</time>
      </trkpt>
      <trkpt lat="44.51717" lon="1.39661">
        <ele>257.4</ele>
        <time>2025-05-29T11:48:47Z</time>
      </trkpt>
      <trkpt lat="44.51715" lon="1.39663">
        <ele>257.4</ele>
        <time>2025-05-29T11:48:48Z</time>
      </trkpt>
      <trkpt lat="44.51713" lon="1.39665">
        <ele>257.2</ele>
        <time>2025-05-29T11:48:49Z</time>
      </trkpt>
      <trkpt lat="44.51711" lon="1.39669">
        <ele>257.2</ele>
        <time>2025-05-29T11:48:50Z</time>
      </trkpt>
      <trkpt lat="44.51709" lon="1.39672">
        <ele>257.2</ele>
        <time>2025-05-29T11:48:51Z</time>
      </trkpt>
      <trkpt lat="44.51707" lon="1.39676">
        <ele>257</ele>
        <time>2025-05-29T11:48:52Z</time>
      </trkpt>
      <trkpt lat="44.51704" lon="1.3968">
        <ele>257</ele>
        <time>2025-05-29T11:48:53Z</time>
      </trkpt>
      <trkpt lat="44.51702" lon="1.39684">
        <ele>256.8</ele>
        <time>2025-05-29T11:48:54Z</time>
      </trkpt>
      <trkpt lat="44.517" lon="1.39689">
        <ele>256.6</ele>
        <time>2025-05-29T11:48:55Z</time>
      </trkpt>
      <trkpt lat="44.51697" lon="1.39695">
        <ele>256.4</ele>
        <time>2025-05-29T11:48:56Z</time>
      </trkpt>
      <trkpt lat="44.51695" lon="1.397">
        <ele>256.2</ele>
        <time>2025-05-29T11:48:57Z</time>
      </trkpt>
      <trkpt lat="44.51692" lon="1.39705">
        <ele>256.2</ele>
        <time>2025-05-29T11:48:58Z</time>
      </trkpt>
      <trkpt lat="44.51689" lon="1.39709">
        <ele>256.2</ele>
        <time>2025-05-29T11:48:59Z</time>
      </trkpt>
      <trkpt lat="44.51685" lon="1.39715">
        <ele>256</ele>
        <time>2025-05-29T11:49:00Z</time>
      </trkpt>
      <trkpt lat="44.51682" lon="1.3972">
        <ele>256</ele>
        <time>2025-05-29T11:49:01Z</time>
      </trkpt>
      <trkpt lat="44.5168" lon="1.39726">
        <ele>255.8</ele>
        <time>2025-05-29T11:49:02Z</time>
      </trkpt>
      <trkpt lat="44.51678" lon="1.39731">
        <ele>255.6</ele>
        <time>2025-05-29T11:49:03Z</time>
      </trkpt>
      <trkpt lat="44.51676" lon="1.39737">
        <ele>255.4</ele>
        <time>2025-05-29T11:49:04Z</time>
      </trkpt>
      <trkpt lat="44.51674" lon="1.39743">
        <ele>255.4</ele>
        <time>2025-05-29T11:49:05Z</time>
      </trkpt>
      <trkpt lat="44.51672" lon="1.3975">
        <ele>255.4</ele>
        <time>2025-05-29T11:49:06Z</time>
      </trkpt>
      <trkpt lat="44.51671" lon="1.39756">
        <ele>255.2</ele>
        <time>2025-05-29T11:49:07Z</time>
      </trkpt>
      <trkpt lat="44.51669" lon="1.39762">
        <ele>255.2</ele>
        <time>2025-05-29T11:49:08Z</time>
      </trkpt>
      <trkpt lat="44.51668" lon="1.39768">
        <ele>255.2</ele>
        <time>2025-05-29T11:49:09Z</time>
      </trkpt>
      <trkpt lat="44.51667" lon="1.39774">
        <ele>255.4</ele>
        <time>2025-05-29T11:49:10Z</time>
      </trkpt>
      <trkpt lat="44.51666" lon="1.39779">
        <ele>255.6</ele>
        <time>2025-05-29T11:49:11Z</time>
      </trkpt>
      <trkpt lat="44.51665" lon="1.39785">
        <ele>255.8</ele>
        <time>2025-05-29T11:49:12Z</time>
      </trkpt>
      <trkpt lat="44.51664" lon="1.39791">
        <ele>256</ele>
        <time>2025-05-29T11:49:13Z</time>
      </trkpt>
      <trkpt lat="44.51664" lon="1.39797">
        <ele>256</ele>
        <time>2025-05-29T11:49:14Z</time>
      </trkpt>
      <trkpt lat="44.51663" lon="1.39802">
        <ele>256.2</ele>
        <time>2025-05-29T11:49:15Z</time>
      </trkpt>
      <trkpt lat="44.51663" lon="1.39808">
        <ele>256.4</ele>
        <time>2025-05-29T11:49:16Z</time>
      </trkpt>
      <trkpt lat="44.51662" lon="1.39814">
        <ele>256.4</ele>
        <time>2025-05-29T11:49:17Z</time>
      </trkpt>
      <trkpt lat="44.51662" lon="1.39819">
        <ele>256.6</ele>
        <time>2025-05-29T11:49:18Z</time>
      </trkpt>
      <trkpt lat="44.51662" lon="1.39825">
        <ele>256.8</ele>
        <time>2025-05-29T11:49:19Z</time>
      </trkpt>
      <trkpt lat="44.51661" lon="1.39831">
        <ele>256.8</ele>
        <time>2025-05-29T11:49:20Z</time>
      </trkpt>
      <trkpt lat="44.51661" lon="1.39836">
        <ele>256.8</ele>
        <time>2025-05-29T11:49:21Z</time>
      </trkpt>
      <trkpt lat="44.51661" lon="1.39842">
        <ele>257.2</ele>
        <time>2025-05-29T11:49:22Z</time>
      </trkpt>
      <trkpt lat="44.5166" lon="1.39847">
        <ele>257.4</ele>
        <time>2025-05-29T11:49:23Z</time>
      </trkpt>
      <trkpt lat="44.5166" lon="1.39852">
        <ele>257.6</ele>
        <time>2025-05-29T11:49:24Z</time>
      </trkpt>
      <trkpt lat="44.5166" lon="1.39857">
        <ele>257.8</ele>
        <time>2025-05-29T11:49:25Z</time>
      </trkpt>
      <trkpt lat="44.5166" lon="1.39861">
        <ele>258</ele>
        <time>2025-05-29T11:49:26Z</time>
      </trkpt>
      <trkpt lat="44.51659" lon="1.39865">
        <ele>258.2</ele>
        <time>2025-05-29T11:49:27Z</time>
      </trkpt>
      <trkpt lat="44.51658" lon="1.3987">
        <ele>258.6</ele>
        <time>2025-05-29T11:49:28Z</time>
      </trkpt>
      <trkpt lat="44.51658" lon="1.39873">
        <ele>258.8</ele>
        <time>2025-05-29T11:49:29Z</time>
      </trkpt>
      <trkpt lat="44.51657" lon="1.39878">
        <ele>258.8</ele>
        <time>2025-05-29T11:49:30Z</time>
      </trkpt>
      <trkpt lat="44.51657" lon="1.39882">
        <ele>259</ele>
        <time>2025-05-29T11:49:31Z</time>
      </trkpt>
      <trkpt lat="44.51656" lon="1.39885">
        <ele>259</ele>
        <time>2025-05-29T11:49:32Z</time>
      </trkpt>
      <trkpt lat="44.51655" lon="1.39889">
        <ele>259.2</ele>
        <time>2025-05-29T11:49:33Z</time>
      </trkpt>
      <trkpt lat="44.51655" lon="1.39893">
        <ele>259.2</ele>
        <time>2025-05-29T11:49:34Z</time>
      </trkpt>
      <trkpt lat="44.51654" lon="1.39896">
        <ele>259.4</ele>
        <time>2025-05-29T11:49:35Z</time>
      </trkpt>
      <trkpt lat="44.51654" lon="1.399">
        <ele>259.6</ele>
        <time>2025-05-29T11:49:36Z</time>
      </trkpt>
      <trkpt lat="44.51653" lon="1.39904">
        <ele>259.6</ele>
        <time>2025-05-29T11:49:37Z</time>
      </trkpt>
      <trkpt lat="44.51652" lon="1.39908">
        <ele>259.6</ele>
        <time>2025-05-29T11:49:38Z</time>
      </trkpt>
      <trkpt lat="44.51651" lon="1.39912">
        <ele>259.8</ele>
        <time>2025-05-29T11:49:39Z</time>
      </trkpt>
      <trkpt lat="44.5165" lon="1.39916">
        <ele>259.8</ele>
        <time>2025-05-29T11:49:40Z</time>
      </trkpt>
      <trkpt lat="44.5165" lon="1.3992">
        <ele>260</ele>
        <time>2025-05-29T11:49:41Z</time>
      </trkpt>
      <trkpt lat="44.51649" lon="1.39924">
        <ele>260.2</ele>
        <time>2025-05-29T11:49:42Z</time>
      </trkpt>
      <trkpt lat="44.51649" lon="1.39927">
        <ele>260.4</ele>
        <time>2025-05-29T11:49:43Z</time>
      </trkpt>
      <trkpt lat="44.51648" lon="1.39931">
        <ele>260.6</ele>
        <time>2025-05-29T11:49:44Z</time>
      </trkpt>
      <trkpt lat="44.51647" lon="1.39934">
        <ele>260.8</ele>
        <time>2025-05-29T11:49:45Z</time>
      </trkpt>
      <trkpt lat="44.51646" lon="1.39938">
        <ele>260.8</ele>
        <time>2025-05-29T11:49:46Z</time>
      </trkpt>
      <trkpt lat="44.51645" lon="1.39942">
        <ele>261</ele>
        <time>2025-05-29T11:49:47Z</time>
      </trkpt>
      <trkpt lat="44.51645" lon="1.39946">
        <ele>261.2</ele>
        <time>2025-05-29T11:49:48Z</time>
      </trkpt>
      <trkpt lat="44.51644" lon="1.39949">
        <ele>261.4</ele>
        <time>2025-05-29T11:49:49Z</time>
      </trkpt>
      <trkpt lat="44.51643" lon="1.39953">
        <ele>261.6</ele>
        <time>2025-05-29T11:49:50Z</time>
      </trkpt>
      <trkpt lat="44.51642" lon="1.39956">
        <ele>261.8</ele>
        <time>2025-05-29T11:49:51Z</time>
      </trkpt>
      <trkpt lat="44.51642" lon="1.3996">
        <ele>262</ele>
        <time>2025-05-29T11:49:52Z</time>
      </trkpt>
      <trkpt lat="44.51641" lon="1.39964">
        <ele>262.2</ele>
        <time>2025-05-29T11:49:53Z</time>
      </trkpt>
      <trkpt lat="44.51641" lon="1.39967">
        <ele>262.2</ele>
        <time>2025-05-29T11:49:54Z</time>
      </trkpt>
      <trkpt lat="44.5164" lon="1.3997">
        <ele>262.4</ele>
        <time>2025-05-29T11:49:55Z</time>
      </trkpt>
      <trkpt lat="44.51639" lon="1.39973">
        <ele>262.6</ele>
        <time>2025-05-29T11:49:56Z</time>
      </trkpt>
      <trkpt lat="44.51638" lon="1.39976">
        <ele>262.6</ele>
        <time>2025-05-29T11:49:57Z</time>
      </trkpt>
      <trkpt lat="44.51638" lon="1.3998">
        <ele>262.8</ele>
        <time>2025-05-29T11:49:58Z</time>
      </trkpt>
      <trkpt lat="44.51637" lon="1.39983">
        <ele>263</ele>
        <time>2025-05-29T11:49:59Z</time>
      </trkpt>
      <trkpt lat="44.51636" lon="1.39987">
        <ele>263.2</ele>
        <time>2025-05-29T11:50:00Z</time>
      </trkpt>
      <trkpt lat="44.51636" lon="1.3999">
        <ele>263.4</ele>
        <time>2025-05-29T11:50:01Z</time>
      </trkpt>
      <trkpt lat="44.51635" lon="1.39994">
        <ele>263.6</ele>
        <time>2025-05-29T11:50:02Z</time>
      </trkpt>
      <trkpt lat="44.51635" lon="1.39997">
        <ele>263.8</ele>
        <time>2025-05-29T11:50:03Z</time>
      </trkpt>
      <trkpt lat="44.51635" lon="1.4">
        <ele>264</ele>
        <time>2025-05-29T11:50:04Z</time>
      </trkpt>
      <trkpt lat="44.51634" lon="1.40004">
        <ele>264.2</ele>
        <time>2025-05-29T11:50:05Z</time>
      </trkpt>
      <trkpt lat="44.51634" lon="1.40007">
        <ele>264.4</ele>
        <time>2025-05-29T11:50:06Z</time>
      </trkpt>
      <trkpt lat="44.51634" lon="1.4001">
        <ele>264.4</ele>
        <time>2025-05-29T11:50:07Z</time>
      </trkpt>
      <trkpt lat="44.51633" lon="1.40012">
        <ele>264.6</ele>
        <time>2025-05-29T11:50:08Z</time>
      </trkpt>
      <trkpt lat="44.51633" lon="1.40015">
        <ele>264.8</ele>
        <time>2025-05-29T11:50:09Z</time>
      </trkpt>
      <trkpt lat="44.51633" lon="1.40017">
        <ele>265</ele>
        <time>2025-05-29T11:50:10Z</time>
      </trkpt>
      <trkpt lat="44.51632" lon="1.4002">
        <ele>265.2</ele>
        <time>2025-05-29T11:50:11Z</time>
      </trkpt>
      <trkpt lat="44.51632" lon="1.40022">
        <ele>265.4</ele>
        <time>2025-05-29T11:50:12Z</time>
      </trkpt>
      <trkpt lat="44.51632" lon="1.40025">
        <ele>265.6</ele>
        <time>2025-05-29T11:50:13Z</time>
      </trkpt>
      <trkpt lat="44.51631" lon="1.40027">
        <ele>265.8</ele>
        <time>2025-05-29T11:50:14Z</time>
      </trkpt>
      <trkpt lat="44.5163" lon="1.4003">
        <ele>266</ele>
        <time>2025-05-29T11:50:15Z</time>
      </trkpt>
      <trkpt lat="44.51629" lon="1.40033">
        <ele>266.2</ele>
        <time>2025-05-29T11:50:16Z</time>
      </trkpt>
      <trkpt lat="44.51628" lon="1.40035">
        <ele>266.4</ele>
        <time>2025-05-29T11:50:17Z</time>
      </trkpt>
      <trkpt lat="44.51627" lon="1.40038">
        <ele>266.4</ele>
        <time>2025-05-29T11:50:18Z</time>
      </trkpt>
      <trkpt lat="44.51626" lon="1.4004">
        <ele>266.6</ele>
        <time>2025-05-29T11:50:19Z</time>
      </trkpt>
      <trkpt lat="44.51626" lon="1.40041">
        <ele>266.8</ele>
        <time>2025-05-29T11:50:20Z</time>
      </trkpt>
      <trkpt lat="44.51625" lon="1.40043">
        <ele>267</ele>
        <time>2025-05-29T11:50:21Z</time>
      </trkpt>
      <trkpt lat="44.51624" lon="1.40044">
        <ele>267.2</ele>
        <time>2025-05-29T11:50:22Z</time>
      </trkpt>
      <trkpt lat="44.51624" lon="1.40046">
        <ele>267.4</ele>
        <time>2025-05-29T11:50:23Z</time>
      </trkpt>
      <trkpt lat="44.51623" lon="1.40048">
        <ele>267.4</ele>
        <time>2025-05-29T11:50:24Z</time>
      </trkpt>
      <trkpt lat="44.51622" lon="1.4005">
        <ele>267.6</ele>
        <time>2025-05-29T11:50:25Z</time>
      </trkpt>
      <trkpt lat="44.51622" lon="1.40052">
        <ele>267.8</ele>
        <time>2025-05-29T11:50:26Z</time>
      </trkpt>
      <trkpt lat="44.51621" lon="1.40054">
        <ele>268</ele>
        <time>2025-05-29T11:50:27Z</time>
      </trkpt>
      <trkpt lat="44.5162" lon="1.40056">
        <ele>268.2</ele>
        <time>2025-05-29T11:50:28Z</time>
      </trkpt>
      <trkpt lat="44.51619" lon="1.40058">
        <ele>268.2</ele>
        <time>2025-05-29T11:50:29Z</time>
      </trkpt>
      <trkpt lat="44.51618" lon="1.40059">
        <ele>268.4</ele>
        <time>2025-05-29T11:50:30Z</time>
      </trkpt>
      <trkpt lat="44.51618" lon="1.40061">
        <ele>268.6</ele>
        <time>2025-05-29T11:50:31Z</time>
      </trkpt>
      <trkpt lat="44.51617" lon="1.40062">
        <ele>268.8</ele>
        <time>2025-05-29T11:50:32Z</time>
      </trkpt>
      <trkpt lat="44.51617" lon="1.40064">
        <ele>268.8</ele>
        <time>2025-05-29T11:50:33Z</time>
      </trkpt>
      <trkpt lat="44.51616" lon="1.40066">
        <ele>269</ele>
        <time>2025-05-29T11:50:34Z</time>
      </trkpt>
      <trkpt lat="44.51615" lon="1.40067">
        <ele>269.2</ele>
        <time>2025-05-29T11:50:35Z</time>
      </trkpt>
      <trkpt lat="44.51614" lon="1.40069">
        <ele>269.4</ele>
        <time>2025-05-29T11:50:36Z</time>
      </trkpt>
      <trkpt lat="44.51614" lon="1.40071">
        <ele>269.4</ele>
        <time>2025-05-29T11:50:37Z</time>
      </trkpt>
      <trkpt lat="44.51613" lon="1.40073">
        <ele>269.6</ele>
        <time>2025-05-29T11:50:38Z</time>
      </trkpt>
      <trkpt lat="44.51612" lon="1.40075">
        <ele>269.8</ele>
        <time>2025-05-29T11:50:39Z</time>
      </trkpt>
      <trkpt lat="44.51612" lon="1.40077">
        <ele>270</ele>
        <time>2025-05-29T11:50:40Z</time>
      </trkpt>
      <trkpt lat="44.51611" lon="1.40079">
        <ele>270.2</ele>
        <time>2025-05-29T11:50:41Z</time>
      </trkpt>
      <trkpt lat="44.51611" lon="1.40081">
        <ele>270.4</ele>
        <time>2025-05-29T11:50:42Z</time>
      </trkpt>
      <trkpt lat="44.51612" lon="1.40083">
        <ele>270.6</ele>
        <time>2025-05-29T11:50:43Z</time>
      </trkpt>
      <trkpt lat="44.51613" lon="1.40083">
        <ele>270.6</ele>
        <time>2025-05-29T11:50:44Z</time>
      </trkpt>
      <trkpt lat="44.51615" lon="1.40085">
        <ele>270.8</ele>
        <time>2025-05-29T11:50:45Z</time>
      </trkpt>
      <trkpt lat="44.51617" lon="1.40088">
        <ele>270.6</ele>
        <time>2025-05-29T11:50:46Z</time>
      </trkpt>
      <trkpt lat="44.51619" lon="1.40091">
        <ele>270.6</ele>
        <time>2025-05-29T11:50:47Z</time>
      </trkpt>
      <trkpt lat="44.5162" lon="1.40093">
        <ele>270.6</ele>
        <time>2025-05-29T11:50:48Z</time>
      </trkpt>
      <trkpt lat="44.51621" lon="1.40095">
        <ele>270.6</ele>
        <time>2025-05-29T11:50:49Z</time>
      </trkpt>
      <trkpt lat="44.51621" lon="1.40098">
        <ele>270.8</ele>
        <time>2025-05-29T11:50:50Z</time>
      </trkpt>
      <trkpt lat="44.51622" lon="1.401">
        <ele>270.8</ele>
        <time>2025-05-29T11:50:51Z</time>
      </trkpt>
      <trkpt lat="44.51623" lon="1.40102">
        <ele>271</ele>
        <time>2025-05-29T11:50:52Z</time>
      </trkpt>
      <trkpt lat="44.51625" lon="1.40105">
        <ele>271.2</ele>
        <time>2025-05-29T11:50:53Z</time>
      </trkpt>
      <trkpt lat="44.51626" lon="1.40108">
        <ele>271.2</ele>
        <time>2025-05-29T11:50:54Z</time>
      </trkpt>
      <trkpt lat="44.51628" lon="1.40111">
        <ele>271.2</ele>
        <time>2025-05-29T11:50:55Z</time>
      </trkpt>
      <trkpt lat="44.51629" lon="1.40114">
        <ele>271.2</ele>
        <time>2025-05-29T11:50:56Z</time>
      </trkpt>
      <trkpt lat="44.51629" lon="1.40117">
        <ele>271.2</ele>
        <time>2025-05-29T11:50:57Z</time>
      </trkpt>
      <trkpt lat="44.51629" lon="1.4012">
        <ele>271.2</ele>
        <time>2025-05-29T11:50:58Z</time>
      </trkpt>
      <trkpt lat="44.5163" lon="1.40122">
        <ele>271.2</ele>
        <time>2025-05-29T11:50:59Z</time>
      </trkpt>
      <trkpt lat="44.51631" lon="1.40125">
        <ele>271.2</ele>
        <time>2025-05-29T11:51:00Z</time>
      </trkpt>
      <trkpt lat="44.51632" lon="1.40128">
        <ele>271.2</ele>
        <time>2025-05-29T11:51:01Z</time>
      </trkpt>
      <trkpt lat="44.51634" lon="1.40131">
        <ele>271.2</ele>
        <time>2025-05-29T11:51:02Z</time>
      </trkpt>
      <trkpt lat="44.51635" lon="1.40133">
        <ele>271.2</ele>
        <time>2025-05-29T11:51:03Z</time>
      </trkpt>
      <trkpt lat="44.51636" lon="1.40136">
        <ele>271.2</ele>
        <time>2025-05-29T11:51:04Z</time>
      </trkpt>
      <trkpt lat="44.51637" lon="1.40139">
        <ele>271.4</ele>
        <time>2025-05-29T11:51:05Z</time>
      </trkpt>
      <trkpt lat="44.51638" lon="1.40142">
        <ele>271.4</ele>
        <time>2025-05-29T11:51:06Z</time>
      </trkpt>
      <trkpt lat="44.51639" lon="1.40145">
        <ele>271.4</ele>
        <time>2025-05-29T11:51:07Z</time>
      </trkpt>
      <trkpt lat="44.51641" lon="1.40148">
        <ele>271.4</ele>
        <time>2025-05-29T11:51:08Z</time>
      </trkpt>
      <trkpt lat="44.51642" lon="1.40151">
        <ele>271.6</ele>
        <time>2025-05-29T11:51:09Z</time>
      </trkpt>
      <trkpt lat="44.51643" lon="1.40153">
        <ele>271.6</ele>
        <time>2025-05-29T11:51:10Z</time>
      </trkpt>
      <trkpt lat="44.51645" lon="1.40156">
        <ele>271.6</ele>
        <time>2025-05-29T11:51:11Z</time>
      </trkpt>
      <trkpt lat="44.51646" lon="1.40159">
        <ele>271.6</ele>
        <time>2025-05-29T11:51:12Z</time>
      </trkpt>
      <trkpt lat="44.51647" lon="1.40162">
        <ele>271.6</ele>
        <time>2025-05-29T11:51:13Z</time>
      </trkpt>
      <trkpt lat="44.51647" lon="1.40165">
        <ele>271.6</ele>
        <time>2025-05-29T11:51:14Z</time>
      </trkpt>
      <trkpt lat="44.51648" lon="1.40168">
        <ele>271.8</ele>
        <time>2025-05-29T11:51:15Z</time>
      </trkpt>
      <trkpt lat="44.51649" lon="1.40171">
        <ele>271.8</ele>
        <time>2025-05-29T11:51:16Z</time>
      </trkpt>
      <trkpt lat="44.51649" lon="1.40174">
        <ele>271.8</ele>
        <time>2025-05-29T11:51:17Z</time>
      </trkpt>
      <trkpt lat="44.5165" lon="1.40177">
        <ele>272</ele>
        <time>2025-05-29T11:51:18Z</time>
      </trkpt>
      <trkpt lat="44.51652" lon="1.4018">
        <ele>272.2</ele>
        <time>2025-05-29T11:51:19Z</time>
      </trkpt>
      <trkpt lat="44.51652" lon="1.40182">
        <ele>272.2</ele>
        <time>2025-05-29T11:51:20Z</time>
      </trkpt>
      <trkpt lat="44.51654" lon="1.40185">
        <ele>272.2</ele>
        <time>2025-05-29T11:51:21Z</time>
      </trkpt>
      <trkpt lat="44.51655" lon="1.40188">
        <ele>272.2</ele>
        <time>2025-05-29T11:51:22Z</time>
      </trkpt>
      <trkpt lat="44.51656" lon="1.40192">
        <ele>272.4</ele>
        <time>2025-05-29T11:51:23Z</time>
      </trkpt>
      <trkpt lat="44.51658" lon="1.40195">
        <ele>272.4</ele>
        <time>2025-05-29T11:51:24Z</time>
      </trkpt>
      <trkpt lat="44.51659" lon="1.40198">
        <ele>272.6</ele>
        <time>2025-05-29T11:51:25Z</time>
      </trkpt>
      <trkpt lat="44.5166" lon="1.40201">
        <ele>272.6</ele>
        <time>2025-05-29T11:51:26Z</time>
      </trkpt>
      <trkpt lat="44.51661" lon="1.40204">
        <ele>272.6</ele>
        <time>2025-05-29T11:51:27Z</time>
      </trkpt>
      <trkpt lat="44.51662" lon="1.40207">
        <ele>272.6</ele>
        <time>2025-05-29T11:51:28Z</time>
      </trkpt>
      <trkpt lat="44.51662" lon="1.4021">
        <ele>272.6</ele>
        <time>2025-05-29T11:51:29Z</time>
      </trkpt>
      <trkpt lat="44.51662" lon="1.40213">
        <ele>272.6</ele>
        <time>2025-05-29T11:51:30Z</time>
      </trkpt>
      <trkpt lat="44.51662" lon="1.40215">
        <ele>272.8</ele>
        <time>2025-05-29T11:51:31Z</time>
      </trkpt>
      <trkpt lat="44.51663" lon="1.40219">
        <ele>272.8</ele>
        <time>2025-05-29T11:51:32Z</time>
      </trkpt>
      <trkpt lat="44.51663" lon="1.40222">
        <ele>273</ele>
        <time>2025-05-29T11:51:33Z</time>
      </trkpt>
      <trkpt lat="44.51663" lon="1.40226">
        <ele>273.2</ele>
        <time>2025-05-29T11:51:34Z</time>
      </trkpt>
      <trkpt lat="44.51664" lon="1.40229">
        <ele>273.4</ele>
        <time>2025-05-29T11:51:35Z</time>
      </trkpt>
      <trkpt lat="44.51665" lon="1.40232">
        <ele>273.6</ele>
        <time>2025-05-29T11:51:36Z</time>
      </trkpt>
      <trkpt lat="44.51665" lon="1.40236">
        <ele>273.6</ele>
        <time>2025-05-29T11:51:37Z</time>
      </trkpt>
      <trkpt lat="44.51665" lon="1.40238">
        <ele>273.8</ele>
        <time>2025-05-29T11:51:38Z</time>
      </trkpt>
      <trkpt lat="44.51666" lon="1.4024">
        <ele>274</ele>
        <time>2025-05-29T11:51:39Z</time>
      </trkpt>
      <trkpt lat="44.51667" lon="1.40243">
        <ele>274.2</ele>
        <time>2025-05-29T11:51:40Z</time>
      </trkpt>
      <trkpt lat="44.51668" lon="1.40246">
        <ele>274.6</ele>
        <time>2025-05-29T11:51:41Z</time>
      </trkpt>
      <trkpt lat="44.5167" lon="1.40249">
        <ele>274.8</ele>
        <time>2025-05-29T11:51:42Z</time>
      </trkpt>
      <trkpt lat="44.51671" lon="1.40253">
        <ele>275</ele>
        <time>2025-05-29T11:51:43Z</time>
      </trkpt>
      <trkpt lat="44.51672" lon="1.40256">
        <ele>275</ele>
        <time>2025-05-29T11:51:44Z</time>
      </trkpt>
      <trkpt lat="44.51674" lon="1.40258">
        <ele>275</ele>
        <time>2025-05-29T11:51:45Z</time>
      </trkpt>
      <trkpt lat="44.51676" lon="1.4026">
        <ele>275</ele>
        <time>2025-05-29T11:51:46Z</time>
      </trkpt>
      <trkpt lat="44.51678" lon="1.40261">
        <ele>274.8</ele>
        <time>2025-05-29T11:51:47Z</time>
      </trkpt>
      <trkpt lat="44.5168" lon="1.40261">
        <ele>274.8</ele>
        <time>2025-05-29T11:51:48Z</time>
      </trkpt>
      <trkpt lat="44.51681" lon="1.40261">
        <ele>274.8</ele>
        <time>2025-05-29T11:51:49Z</time>
      </trkpt>
      <trkpt lat="44.51682" lon="1.4026">
        <ele>274.6</ele>
        <time>2025-05-29T11:51:50Z</time>
      </trkpt>
      <trkpt lat="44.51683" lon="1.40257">
        <ele>274.4</ele>
        <time>2025-05-29T11:51:51Z</time>
      </trkpt>
      <trkpt lat="44.51684" lon="1.40253">
        <ele>274.2</ele>
        <time>2025-05-29T11:51:52Z</time>
      </trkpt>
      <trkpt lat="44.51687" lon="1.40249">
        <ele>273.8</ele>
        <time>2025-05-29T11:51:53Z</time>
      </trkpt>
      <trkpt lat="44.51689" lon="1.40245">
        <ele>273</ele>
        <time>2025-05-29T11:51:54Z</time>
      </trkpt>
      <trkpt lat="44.51691" lon="1.40238">
        <ele>272.2</ele>
        <time>2025-05-29T11:51:55Z</time>
      </trkpt>
      <trkpt lat="44.51693" lon="1.40231">
        <ele>271.4</ele>
        <time>2025-05-29T11:51:56Z</time>
      </trkpt>
      <trkpt lat="44.51696" lon="1.40224">
        <ele>270.4</ele>
        <time>2025-05-29T11:51:57Z</time>
      </trkpt>
      <trkpt lat="44.51699" lon="1.40217">
        <ele>269.8</ele>
        <time>2025-05-29T11:51:58Z</time>
      </trkpt>
      <trkpt lat="44.51702" lon="1.40209">
        <ele>269.2</ele>
        <time>2025-05-29T11:51:59Z</time>
      </trkpt>
      <trkpt lat="44.51705" lon="1.40201">
        <ele>268.2</ele>
        <time>2025-05-29T11:52:00Z</time>
      </trkpt>
      <trkpt lat="44.51709" lon="1.40195">
        <ele>267.4</ele>
        <time>2025-05-29T11:52:01Z</time>
      </trkpt>
      <trkpt lat="44.51712" lon="1.40191">
        <ele>266.2</ele>
        <time>2025-05-29T11:52:02Z</time>
      </trkpt>
      <trkpt lat="44.51715" lon="1.40187">
        <ele>265.4</ele>
        <time>2025-05-29T11:52:03Z</time>
      </trkpt>
      <trkpt lat="44.51718" lon="1.40186">
        <ele>265</ele>
        <time>2025-05-29T11:52:04Z</time>
      </trkpt>
      <trkpt lat="44.51721" lon="1.40184">
        <ele>264.4</ele>
        <time>2025-05-29T11:52:05Z</time>
      </trkpt>
      <trkpt lat="44.51722" lon="1.40181">
        <ele>263.6</ele>
        <time>2025-05-29T11:52:06Z</time>
      </trkpt>
      <trkpt lat="44.51726" lon="1.40178">
        <ele>262.6</ele>
        <time>2025-05-29T11:52:07Z</time>
      </trkpt>
      <trkpt lat="44.5173" lon="1.40176">
        <ele>261.4</ele>
        <time>2025-05-29T11:52:08Z</time>
      </trkpt>
      <trkpt lat="44.51734" lon="1.40173">
        <ele>260.2</ele>
        <time>2025-05-29T11:52:09Z</time>
      </trkpt>
      <trkpt lat="44.51737" lon="1.4017">
        <ele>259</ele>
        <time>2025-05-29T11:52:10Z</time>
      </trkpt>
      <trkpt lat="44.51741" lon="1.40166">
        <ele>257.8</ele>
        <time>2025-05-29T11:52:11Z</time>
      </trkpt>
      <trkpt lat="44.51743" lon="1.40162">
        <ele>256.8</ele>
        <time>2025-05-29T11:52:12Z</time>
      </trkpt>
      <trkpt lat="44.51746" lon="1.40159">
        <ele>255.4</ele>
        <time>2025-05-29T11:52:13Z</time>
      </trkpt>
      <trkpt lat="44.5175" lon="1.40156">
        <ele>254.6</ele>
        <time>2025-05-29T11:52:14Z</time>
      </trkpt>
      <trkpt lat="44.51753" lon="1.40152">
        <ele>253.6</ele>
        <time>2025-05-29T11:52:15Z</time>
      </trkpt>
      <trkpt lat="44.51754" lon="1.40148">
        <ele>252.4</ele>
        <time>2025-05-29T11:52:16Z</time>
      </trkpt>
      <trkpt lat="44.51754" lon="1.40145">
        <ele>251.8</ele>
        <time>2025-05-29T11:52:17Z</time>
      </trkpt>
      <trkpt lat="44.51754" lon="1.40142">
        <ele>250.8</ele>
        <time>2025-05-29T11:52:18Z</time>
      </trkpt>
      <trkpt lat="44.51754" lon="1.40138">
        <ele>250</ele>
        <time>2025-05-29T11:52:19Z</time>
      </trkpt>
      <trkpt lat="44.51755" lon="1.40134">
        <ele>249.2</ele>
        <time>2025-05-29T11:52:20Z</time>
      </trkpt>
      <trkpt lat="44.51757" lon="1.4013">
        <ele>248.6</ele>
        <time>2025-05-29T11:52:21Z</time>
      </trkpt>
      <trkpt lat="44.5176" lon="1.40127">
        <ele>248</ele>
        <time>2025-05-29T11:52:22Z</time>
      </trkpt>
      <trkpt lat="44.51763" lon="1.40126">
        <ele>247.4</ele>
        <time>2025-05-29T11:52:23Z</time>
      </trkpt>
      <trkpt lat="44.51766" lon="1.40126">
        <ele>246.6</ele>
        <time>2025-05-29T11:52:24Z</time>
      </trkpt>
      <trkpt lat="44.51768" lon="1.40127">
        <ele>246.2</ele>
        <time>2025-05-29T11:52:25Z</time>
      </trkpt>
      <trkpt lat="44.51771" lon="1.40128">
        <ele>245.8</ele>
        <time>2025-05-29T11:52:26Z</time>
      </trkpt>
      <trkpt lat="44.51774" lon="1.40129">
        <ele>245.4</ele>
        <time>2025-05-29T11:52:27Z</time>
      </trkpt>
      <trkpt lat="44.51777" lon="1.4013">
        <ele>245.2</ele>
        <time>2025-05-29T11:52:28Z</time>
      </trkpt>
      <trkpt lat="44.51781" lon="1.4013">
        <ele>244.8</ele>
        <time>2025-05-29T11:52:29Z</time>
      </trkpt>
      <trkpt lat="44.51784" lon="1.40127">
        <ele>244.4</ele>
        <time>2025-05-29T11:52:30Z</time>
      </trkpt>
      <trkpt lat="44.51786" lon="1.40123">
        <ele>244</ele>
        <time>2025-05-29T11:52:31Z</time>
      </trkpt>
      <trkpt lat="44.51789" lon="1.4012">
        <ele>243.6</ele>
        <time>2025-05-29T11:52:32Z</time>
      </trkpt>
      <trkpt lat="44.51793" lon="1.40118">
        <ele>243</ele>
        <time>2025-05-29T11:52:33Z</time>
      </trkpt>
      <trkpt lat="44.51797" lon="1.40114">
        <ele>242.2</ele>
        <time>2025-05-29T11:52:34Z</time>
      </trkpt>
      <trkpt lat="44.51801" lon="1.40112">
        <ele>241.6</ele>
        <time>2025-05-29T11:52:35Z</time>
      </trkpt>
      <trkpt lat="44.51805" lon="1.4011">
        <ele>241.2</ele>
        <time>2025-05-29T11:52:36Z</time>
      </trkpt>
      <trkpt lat="44.5181" lon="1.4011">
        <ele>240.8</ele>
        <time>2025-05-29T11:52:37Z</time>
      </trkpt>
      <trkpt lat="44.51813" lon="1.40109">
        <ele>240.4</ele>
        <time>2025-05-29T11:52:38Z</time>
      </trkpt>
      <trkpt lat="44.51817" lon="1.40106">
        <ele>239.8</ele>
        <time>2025-05-29T11:52:39Z</time>
      </trkpt>
      <trkpt lat="44.5182" lon="1.40101">
        <ele>239.2</ele>
        <time>2025-05-29T11:52:40Z</time>
      </trkpt>
      <trkpt lat="44.51824" lon="1.40098">
        <ele>238.6</ele>
        <time>2025-05-29T11:52:41Z</time>
      </trkpt>
      <trkpt lat="44.51828" lon="1.40097">
        <ele>238</ele>
        <time>2025-05-29T11:52:42Z</time>
      </trkpt>
      <trkpt lat="44.51831" lon="1.40098">
        <ele>237.6</ele>
        <time>2025-05-29T11:52:43Z</time>
      </trkpt>
      <trkpt lat="44.51834" lon="1.401">
        <ele>237.2</ele>
        <time>2025-05-29T11:52:44Z</time>
      </trkpt>
      <trkpt lat="44.51839" lon="1.40101">
        <ele>236.6</ele>
        <time>2025-05-29T11:52:45Z</time>
      </trkpt>
      <trkpt lat="44.51844" lon="1.40102">
        <ele>235.8</ele>
        <time>2025-05-29T11:52:46Z</time>
      </trkpt>
      <trkpt lat="44.51849" lon="1.40102">
        <ele>235</ele>
        <time>2025-05-29T11:52:47Z</time>
      </trkpt>
      <trkpt lat="44.51853" lon="1.40098">
        <ele>234.4</ele>
        <time>2025-05-29T11:52:48Z</time>
      </trkpt>
      <trkpt lat="44.51854" lon="1.40094">
        <ele>233.8</ele>
        <time>2025-05-29T11:52:49Z</time>
      </trkpt>
      <trkpt lat="44.51855" lon="1.4009">
        <ele>233</ele>
        <time>2025-05-29T11:52:50Z</time>
      </trkpt>
      <trkpt lat="44.51856" lon="1.40086">
        <ele>232.6</ele>
        <time>2025-05-29T11:52:51Z</time>
      </trkpt>
      <trkpt lat="44.51857" lon="1.40084">
        <ele>232.4</ele>
        <time>2025-05-29T11:52:52Z</time>
      </trkpt>
      <trkpt lat="44.51858" lon="1.40081">
        <ele>232.2</ele>
        <time>2025-05-29T11:52:53Z</time>
      </trkpt>
      <trkpt lat="44.51859" lon="1.40076">
        <ele>232</ele>
        <time>2025-05-29T11:52:54Z</time>
      </trkpt>
      <trkpt lat="44.51861" lon="1.40071">
        <ele>232</ele>
        <time>2025-05-29T11:52:55Z</time>
      </trkpt>
      <trkpt lat="44.51865" lon="1.40068">
        <ele>231.6</ele>
        <time>2025-05-29T11:52:56Z</time>
      </trkpt>
      <trkpt lat="44.51869" lon="1.40065">
        <ele>231.4</ele>
        <time>2025-05-29T11:52:57Z</time>
      </trkpt>
      <trkpt lat="44.51872" lon="1.40061">
        <ele>230.8</ele>
        <time>2025-05-29T11:52:58Z</time>
      </trkpt>
      <trkpt lat="44.51875" lon="1.40055">
        <ele>230.2</ele>
        <time>2025-05-29T11:52:59Z</time>
      </trkpt>
      <trkpt lat="44.51878" lon="1.40051">
        <ele>229.6</ele>
        <time>2025-05-29T11:53:00Z</time>
      </trkpt>
      <trkpt lat="44.51881" lon="1.40048">
        <ele>228.8</ele>
        <time>2025-05-29T11:53:01Z</time>
      </trkpt>
      <trkpt lat="44.51882" lon="1.40043">
        <ele>228.4</ele>
        <time>2025-05-29T11:53:02Z</time>
      </trkpt>
      <trkpt lat="44.51882" lon="1.40038">
        <ele>228</ele>
        <time>2025-05-29T11:53:03Z</time>
      </trkpt>
      <trkpt lat="44.51884" lon="1.40033">
        <ele>227.6</ele>
        <time>2025-05-29T11:53:04Z</time>
      </trkpt>
      <trkpt lat="44.51885" lon="1.40028">
        <ele>227</ele>
        <time>2025-05-29T11:53:05Z</time>
      </trkpt>
      <trkpt lat="44.51884" lon="1.40024">
        <ele>226.6</ele>
        <time>2025-05-29T11:53:06Z</time>
      </trkpt>
      <trkpt lat="44.51883" lon="1.40018">
        <ele>226.2</ele>
        <time>2025-05-29T11:53:07Z</time>
      </trkpt>
      <trkpt lat="44.51882" lon="1.40012">
        <ele>225.6</ele>
        <time>2025-05-29T11:53:08Z</time>
      </trkpt>
      <trkpt lat="44.51882" lon="1.40004">
        <ele>225</ele>
        <time>2025-05-29T11:53:09Z</time>
      </trkpt>
      <trkpt lat="44.51883" lon="1.39998">
        <ele>224.4</ele>
        <time>2025-05-29T11:53:10Z</time>
      </trkpt>
      <trkpt lat="44.51885" lon="1.39992">
        <ele>223.8</ele>
        <time>2025-05-29T11:53:11Z</time>
      </trkpt>
      <trkpt lat="44.51887" lon="1.39986">
        <ele>223</ele>
        <time>2025-05-29T11:53:12Z</time>
      </trkpt>
      <trkpt lat="44.5189" lon="1.39981">
        <ele>222.2</ele>
        <time>2025-05-29T11:53:13Z</time>
      </trkpt>
      <trkpt lat="44.51893" lon="1.39974">
        <ele>221.4</ele>
        <time>2025-05-29T11:53:14Z</time>
      </trkpt>
      <trkpt lat="44.51897" lon="1.39968">
        <ele>220.6</ele>
        <time>2025-05-29T11:53:15Z</time>
      </trkpt>
      <trkpt lat="44.51901" lon="1.39964">
        <ele>219.6</ele>
        <time>2025-05-29T11:53:16Z</time>
      </trkpt>
      <trkpt lat="44.51906" lon="1.39962">
        <ele>218.8</ele>
        <time>2025-05-29T11:53:17Z</time>
      </trkpt>
      <trkpt lat="44.51912" lon="1.3996">
        <ele>218</ele>
        <time>2025-05-29T11:53:18Z</time>
      </trkpt>
      <trkpt lat="44.51917" lon="1.39958">
        <ele>217.4</ele>
        <time>2025-05-29T11:53:19Z</time>
      </trkpt>
      <trkpt lat="44.51921" lon="1.39956">
        <ele>217</ele>
        <time>2025-05-29T11:53:20Z</time>
      </trkpt>
      <trkpt lat="44.51924" lon="1.39952">
        <ele>216.8</ele>
        <time>2025-05-29T11:53:21Z</time>
      </trkpt>
      <trkpt lat="44.51926" lon="1.39946">
        <ele>216.6</ele>
        <time>2025-05-29T11:53:22Z</time>
      </trkpt>
      <trkpt lat="44.51928" lon="1.3994">
        <ele>216.2</ele>
        <time>2025-05-29T11:53:23Z</time>
      </trkpt>
      <trkpt lat="44.5193" lon="1.39933">
        <ele>215.8</ele>
        <time>2025-05-29T11:53:24Z</time>
      </trkpt>
      <trkpt lat="44.51931" lon="1.39927">
        <ele>215</ele>
        <time>2025-05-29T11:53:25Z</time>
      </trkpt>
      <trkpt lat="44.51935" lon="1.39921">
        <ele>214</ele>
        <time>2025-05-29T11:53:26Z</time>
      </trkpt>
      <trkpt lat="44.51939" lon="1.39918">
        <ele>213.2</ele>
        <time>2025-05-29T11:53:27Z</time>
      </trkpt>
      <trkpt lat="44.51942" lon="1.39918">
        <ele>212.2</ele>
        <time>2025-05-29T11:53:28Z</time>
      </trkpt>
      <trkpt lat="44.51946" lon="1.39919">
        <ele>211.8</ele>
        <time>2025-05-29T11:53:29Z</time>
      </trkpt>
      <trkpt lat="44.51949" lon="1.39918">
        <ele>211.2</ele>
        <time>2025-05-29T11:53:30Z</time>
      </trkpt>
      <trkpt lat="44.51952" lon="1.39915">
        <ele>210.6</ele>
        <time>2025-05-29T11:53:31Z</time>
      </trkpt>
      <trkpt lat="44.51952" lon="1.39908">
        <ele>210</ele>
        <time>2025-05-29T11:53:32Z</time>
      </trkpt>
      <trkpt lat="44.51953" lon="1.39901">
        <ele>209.2</ele>
        <time>2025-05-29T11:53:33Z</time>
      </trkpt>
      <trkpt lat="44.51955" lon="1.39895">
        <ele>208.6</ele>
        <time>2025-05-29T11:53:34Z</time>
      </trkpt>
      <trkpt lat="44.51955" lon="1.39889">
        <ele>207.8</ele>
        <time>2025-05-29T11:53:35Z</time>
      </trkpt>
      <trkpt lat="44.51956" lon="1.39885">
        <ele>207</ele>
        <time>2025-05-29T11:53:36Z</time>
      </trkpt>
      <trkpt lat="44.51959" lon="1.39881">
        <ele>206.2</ele>
        <time>2025-05-29T11:53:37Z</time>
      </trkpt>
      <trkpt lat="44.51962" lon="1.39879">
        <ele>205.4</ele>
        <time>2025-05-29T11:53:38Z</time>
      </trkpt>
      <trkpt lat="44.51966" lon="1.39875">
        <ele>204.6</ele>
        <time>2025-05-29T11:53:39Z</time>
      </trkpt>
      <trkpt lat="44.51969" lon="1.39872">
        <ele>204</ele>
        <time>2025-05-29T11:53:40Z</time>
      </trkpt>
      <trkpt lat="44.51971" lon="1.39867">
        <ele>203.4</ele>
        <time>2025-05-29T11:53:41Z</time>
      </trkpt>
      <trkpt lat="44.51974" lon="1.39862">
        <ele>202.6</ele>
        <time>2025-05-29T11:53:42Z</time>
      </trkpt>
      <trkpt lat="44.51977" lon="1.39856">
        <ele>201.8</ele>
        <time>2025-05-29T11:53:43Z</time>
      </trkpt>
      <trkpt lat="44.51979" lon="1.39851">
        <ele>201</ele>
        <time>2025-05-29T11:53:44Z</time>
      </trkpt>
      <trkpt lat="44.51979" lon="1.39846">
        <ele>200.2</ele>
        <time>2025-05-29T11:53:45Z</time>
      </trkpt>
      <trkpt lat="44.51979" lon="1.39843">
        <ele>199.2</ele>
        <time>2025-05-29T11:53:46Z</time>
      </trkpt>
      <trkpt lat="44.51979" lon="1.39841">
        <ele>198.4</ele>
        <time>2025-05-29T11:53:47Z</time>
      </trkpt>
      <trkpt lat="44.51979" lon="1.39839">
        <ele>198</ele>
        <time>2025-05-29T11:53:48Z</time>
      </trkpt>
      <trkpt lat="44.51979" lon="1.39836">
        <ele>197.4</ele>
        <time>2025-05-29T11:53:49Z</time>
      </trkpt>
      <trkpt lat="44.51977" lon="1.39832">
        <ele>196.8</ele>
        <time>2025-05-29T11:53:50Z</time>
      </trkpt>
      <trkpt lat="44.51977" lon="1.39826">
        <ele>195.8</ele>
        <time>2025-05-29T11:53:51Z</time>
      </trkpt>
      <trkpt lat="44.51976" lon="1.39821">
        <ele>194.4</ele>
        <time>2025-05-29T11:53:52Z</time>
      </trkpt>
      <trkpt lat="44.51977" lon="1.39817">
        <ele>193</ele>
        <time>2025-05-29T11:53:53Z</time>
      </trkpt>
      <trkpt lat="44.51979" lon="1.39814">
        <ele>192</ele>
        <time>2025-05-29T11:53:54Z</time>
      </trkpt>
      <trkpt lat="44.51981" lon="1.39812">
        <ele>191</ele>
        <time>2025-05-29T11:53:55Z</time>
      </trkpt>
      <trkpt lat="44.51983" lon="1.3981">
        <ele>190.4</ele>
        <time>2025-05-29T11:53:56Z</time>
      </trkpt>
      <trkpt lat="44.51985" lon="1.39809">
        <ele>190.2</ele>
        <time>2025-05-29T11:53:57Z</time>
      </trkpt>
      <trkpt lat="44.51987" lon="1.39808">
        <ele>190.2</ele>
        <time>2025-05-29T11:53:58Z</time>
      </trkpt>
      <trkpt lat="44.51989" lon="1.39808">
        <ele>190.2</ele>
        <time>2025-05-29T11:53:59Z</time>
      </trkpt>
      <trkpt lat="44.51991" lon="1.39807">
        <ele>190.2</ele>
        <time>2025-05-29T11:54:00Z</time>
      </trkpt>
      <trkpt lat="44.51993" lon="1.39805">
        <ele>190.2</ele>
        <time>2025-05-29T11:54:01Z</time>
      </trkpt>
      <trkpt lat="44.51996" lon="1.39803">
        <ele>190</ele>
        <time>2025-05-29T11:54:02Z</time>
      </trkpt>
      <trkpt lat="44.51999" lon="1.39802">
        <ele>189.8</ele>
        <time>2025-05-29T11:54:03Z</time>
      </trkpt>
      <trkpt lat="44.52002" lon="1.39801">
        <ele>189.2</ele>
        <time>2025-05-29T11:54:04Z</time>
      </trkpt>
      <trkpt lat="44.52005" lon="1.39801">
        <ele>188.2</ele>
        <time>2025-05-29T11:54:05Z</time>
      </trkpt>
      <trkpt lat="44.52008" lon="1.39803">
        <ele>187.2</ele>
        <time>2025-05-29T11:54:06Z</time>
      </trkpt>
      <trkpt lat="44.5201" lon="1.39807">
        <ele>186.6</ele>
        <time>2025-05-29T11:54:07Z</time>
      </trkpt>
      <trkpt lat="44.52012" lon="1.39812">
        <ele>185.6</ele>
        <time>2025-05-29T11:54:08Z</time>
      </trkpt>
      <trkpt lat="44.52015" lon="1.39817">
        <ele>185</ele>
        <time>2025-05-29T11:54:09Z</time>
      </trkpt>
      <trkpt lat="44.52017" lon="1.39822">
        <ele>184.4</ele>
        <time>2025-05-29T11:54:10Z</time>
      </trkpt>
      <trkpt lat="44.52019" lon="1.39824">
        <ele>184</ele>
        <time>2025-05-29T11:54:11Z</time>
      </trkpt>
      <trkpt lat="44.52023" lon="1.39825">
        <ele>183.6</ele>
        <time>2025-05-29T11:54:12Z</time>
      </trkpt>
      <trkpt lat="44.52025" lon="1.39825">
        <ele>183.2</ele>
        <time>2025-05-29T11:54:13Z</time>
      </trkpt>
      <trkpt lat="44.52028" lon="1.39825">
        <ele>182.8</ele>
        <time>2025-05-29T11:54:14Z</time>
      </trkpt>
      <trkpt lat="44.52031" lon="1.39825">
        <ele>182.4</ele>
        <time>2025-05-29T11:54:15Z</time>
      </trkpt>
      <trkpt lat="44.52033" lon="1.39825">
        <ele>182.2</ele>
        <time>2025-05-29T11:54:16Z</time>
      </trkpt>
      <trkpt lat="44.52035" lon="1.39823">
        <ele>182</ele>
        <time>2025-05-29T11:54:17Z</time>
      </trkpt>
      <trkpt lat="44.52037" lon="1.3982">
        <ele>182</ele>
        <time>2025-05-29T11:54:18Z</time>
      </trkpt>
      <trkpt lat="44.52038" lon="1.39816">
        <ele>181.8</ele>
        <time>2025-05-29T11:54:19Z</time>
      </trkpt>
      <trkpt lat="44.52039" lon="1.39812">
        <ele>181.8</ele>
        <time>2025-05-29T11:54:20Z</time>
      </trkpt>
      <trkpt lat="44.52039" lon="1.39807">
        <ele>181.6</ele>
        <time>2025-05-29T11:54:21Z</time>
      </trkpt>
      <trkpt lat="44.5204" lon="1.39803">
        <ele>181.4</ele>
        <time>2025-05-29T11:54:22Z</time>
      </trkpt>
      <trkpt lat="44.52041" lon="1.39798">
        <ele>181.4</ele>
        <time>2025-05-29T11:54:23Z</time>
      </trkpt>
      <trkpt lat="44.52042" lon="1.39793">
        <ele>181.2</ele>
        <time>2025-05-29T11:54:24Z</time>
      </trkpt>
      <trkpt lat="44.52042" lon="1.39787">
        <ele>180.8</ele>
        <time>2025-05-29T11:54:25Z</time>
      </trkpt>
      <trkpt lat="44.52042" lon="1.39781">
        <ele>180.4</ele>
        <time>2025-05-29T11:54:26Z</time>
      </trkpt>
      <trkpt lat="44.52042" lon="1.39776">
        <ele>180</ele>
        <time>2025-05-29T11:54:27Z</time>
      </trkpt>
      <trkpt lat="44.52043" lon="1.3977">
        <ele>179.6</ele>
        <time>2025-05-29T11:54:28Z</time>
      </trkpt>
      <trkpt lat="44.52044" lon="1.39764">
        <ele>179.6</ele>
        <time>2025-05-29T11:54:29Z</time>
      </trkpt>
      <trkpt lat="44.52044" lon="1.39757">
        <ele>179.4</ele>
        <time>2025-05-29T11:54:30Z</time>
      </trkpt>
      <trkpt lat="44.52045" lon="1.3975">
        <ele>179.2</ele>
        <time>2025-05-29T11:54:31Z</time>
      </trkpt>
      <trkpt lat="44.52046" lon="1.39743">
        <ele>178.8</ele>
        <time>2025-05-29T11:54:32Z</time>
      </trkpt>
      <trkpt lat="44.52046" lon="1.39735">
        <ele>178.4</ele>
        <time>2025-05-29T11:54:33Z</time>
      </trkpt>
      <trkpt lat="44.52048" lon="1.39728">
        <ele>177.8</ele>
        <time>2025-05-29T11:54:34Z</time>
      </trkpt>
      <trkpt lat="44.52049" lon="1.3972">
        <ele>177.2</ele>
        <time>2025-05-29T11:54:35Z</time>
      </trkpt>
      <trkpt lat="44.52051" lon="1.39713">
        <ele>176.8</ele>
        <time>2025-05-29T11:54:36Z</time>
      </trkpt>
      <trkpt lat="44.52054" lon="1.39707">
        <ele>176.4</ele>
        <time>2025-05-29T11:54:37Z</time>
      </trkpt>
      <trkpt lat="44.52057" lon="1.39701">
        <ele>175.8</ele>
        <time>2025-05-29T11:54:38Z</time>
      </trkpt>
      <trkpt lat="44.52059" lon="1.39695">
        <ele>175.6</ele>
        <time>2025-05-29T11:54:39Z</time>
      </trkpt>
      <trkpt lat="44.52062" lon="1.39689">
        <ele>175.6</ele>
        <time>2025-05-29T11:54:40Z</time>
      </trkpt>
      <trkpt lat="44.52066" lon="1.39683">
        <ele>175.6</ele>
        <time>2025-05-29T11:54:41Z</time>
      </trkpt>
      <trkpt lat="44.52069" lon="1.39677">
        <ele>175.6</ele>
        <time>2025-05-29T11:54:42Z</time>
      </trkpt>
      <trkpt lat="44.52073" lon="1.3967">
        <ele>175.6</ele>
        <time>2025-05-29T11:54:43Z</time>
      </trkpt>
      <trkpt lat="44.52076" lon="1.39664">
        <ele>175.4</ele>
        <time>2025-05-29T11:54:44Z</time>
      </trkpt>
      <trkpt lat="44.52079" lon="1.39658">
        <ele>175.4</ele>
        <time>2025-05-29T11:54:45Z</time>
      </trkpt>
      <trkpt lat="44.52082" lon="1.39652">
        <ele>175</ele>
        <time>2025-05-29T11:54:46Z</time>
      </trkpt>
      <trkpt lat="44.52085" lon="1.39646">
        <ele>174.8</ele>
        <time>2025-05-29T11:54:47Z</time>
      </trkpt>
      <trkpt lat="44.52087" lon="1.3964">
        <ele>174.8</ele>
        <time>2025-05-29T11:54:48Z</time>
      </trkpt>
      <trkpt lat="44.5209" lon="1.39633">
        <ele>174.4</ele>
        <time>2025-05-29T11:54:49Z</time>
      </trkpt>
      <trkpt lat="44.52092" lon="1.39626">
        <ele>174.2</ele>
        <time>2025-05-29T11:54:50Z</time>
      </trkpt>
      <trkpt lat="44.52095" lon="1.39619">
        <ele>174</ele>
        <time>2025-05-29T11:54:51Z</time>
      </trkpt>
      <trkpt lat="44.52097" lon="1.39612">
        <ele>173.8</ele>
        <time>2025-05-29T11:54:52Z</time>
      </trkpt>
      <trkpt lat="44.52099" lon="1.39604">
        <ele>173.4</ele>
        <time>2025-05-29T11:54:53Z</time>
      </trkpt>
      <trkpt lat="44.52101" lon="1.39597">
        <ele>173.2</ele>
        <time>2025-05-29T11:54:54Z</time>
      </trkpt>
      <trkpt lat="44.52103" lon="1.3959">
        <ele>173</ele>
        <time>2025-05-29T11:54:55Z</time>
      </trkpt>
      <trkpt lat="44.52105" lon="1.39583">
        <ele>172.8</ele>
        <time>2025-05-29T11:54:56Z</time>
      </trkpt>
      <trkpt lat="44.52107" lon="1.39576">
        <ele>172.4</ele>
        <time>2025-05-29T11:54:57Z</time>
      </trkpt>
      <trkpt lat="44.5211" lon="1.39568">
        <ele>172.2</ele>
        <time>2025-05-29T11:54:58Z</time>
      </trkpt>
      <trkpt lat="44.52113" lon="1.3956">
        <ele>172</ele>
        <time>2025-05-29T11:54:59Z</time>
      </trkpt>
      <trkpt lat="44.52115" lon="1.39551">
        <ele>171.6</ele>
        <time>2025-05-29T11:55:00Z</time>
      </trkpt>
      <trkpt lat="44.52118" lon="1.39544">
        <ele>171.2</ele>
        <time>2025-05-29T11:55:01Z</time>
      </trkpt>
      <trkpt lat="44.52121" lon="1.39536">
        <ele>170.8</ele>
        <time>2025-05-29T11:55:02Z</time>
      </trkpt>
      <trkpt lat="44.52125" lon="1.39527">
        <ele>170.2</ele>
        <time>2025-05-29T11:55:03Z</time>
      </trkpt>
      <trkpt lat="44.52129" lon="1.3952">
        <ele>169.8</ele>
        <time>2025-05-29T11:55:04Z</time>
      </trkpt>
      <trkpt lat="44.52133" lon="1.39512">
        <ele>169.6</ele>
        <time>2025-05-29T11:55:05Z</time>
      </trkpt>
      <trkpt lat="44.52137" lon="1.39504">
        <ele>169.2</ele>
        <time>2025-05-29T11:55:06Z</time>
      </trkpt>
      <trkpt lat="44.52141" lon="1.39496">
        <ele>169</ele>
        <time>2025-05-29T11:55:07Z</time>
      </trkpt>
      <trkpt lat="44.52145" lon="1.39488">
        <ele>168.6</ele>
        <time>2025-05-29T11:55:08Z</time>
      </trkpt>
      <trkpt lat="44.52149" lon="1.3948">
        <ele>168</ele>
        <time>2025-05-29T11:55:09Z</time>
      </trkpt>
      <trkpt lat="44.52153" lon="1.39472">
        <ele>167.4</ele>
        <time>2025-05-29T11:55:10Z</time>
      </trkpt>
      <trkpt lat="44.52158" lon="1.39464">
        <ele>166.8</ele>
        <time>2025-05-29T11:55:11Z</time>
      </trkpt>
      <trkpt lat="44.52163" lon="1.39457">
        <ele>166.4</ele>
        <time>2025-05-29T11:55:12Z</time>
      </trkpt>
      <trkpt lat="44.52168" lon="1.3945">
        <ele>166</ele>
        <time>2025-05-29T11:55:13Z</time>
      </trkpt>
      <trkpt lat="44.52173" lon="1.39443">
        <ele>165.4</ele>
        <time>2025-05-29T11:55:14Z</time>
      </trkpt>
      <trkpt lat="44.52178" lon="1.39436">
        <ele>165</ele>
        <time>2025-05-29T11:55:15Z</time>
      </trkpt>
      <trkpt lat="44.52184" lon="1.39429">
        <ele>164.8</ele>
        <time>2025-05-29T11:55:16Z</time>
      </trkpt>
      <trkpt lat="44.52189" lon="1.39422">
        <ele>164</ele>
        <time>2025-05-29T11:55:17Z</time>
      </trkpt>
      <trkpt lat="44.52193" lon="1.39415">
        <ele>163.8</ele>
        <time>2025-05-29T11:55:18Z</time>
      </trkpt>
      <trkpt lat="44.52199" lon="1.39408">
        <ele>163.6</ele>
        <time>2025-05-29T11:55:19Z</time>
      </trkpt>
      <trkpt lat="44.52204" lon="1.39401">
        <ele>163.4</ele>
        <time>2025-05-29T11:55:20Z</time>
      </trkpt>
      <trkpt lat="44.52208" lon="1.39397">
        <ele>163</ele>
        <time>2025-05-29T11:55:21Z</time>
      </trkpt>
      <trkpt lat="44.52211" lon="1.39393">
        <ele>163</ele>
        <time>2025-05-29T11:55:22Z</time>
      </trkpt>
      <trkpt lat="44.52213" lon="1.39391">
        <ele>162.8</ele>
        <time>2025-05-29T11:55:23Z</time>
      </trkpt>
      <trkpt lat="44.52214" lon="1.3939">
        <ele>162.8</ele>
        <time>2025-05-29T11:55:24Z</time>
      </trkpt>
      <trkpt lat="44.52214" lon="1.3939">
        <ele>163</ele>
        <time>2025-05-29T11:55:25Z</time>
      </trkpt>
      <trkpt lat="44.52216" lon="1.39388">
        <ele>163.2</ele>
        <time>2025-05-29T11:56:25Z</time>
      </trkpt>
      <trkpt lat="44.52217" lon="1.39387">
        <ele>163</ele>
        <time>2025-05-29T11:56:26Z</time>
      </trkpt>
      <trkpt lat="44.5222" lon="1.39386">
        <ele>163</ele>
        <time>2025-05-29T11:56:27Z</time>
      </trkpt>
      <trkpt lat="44.52222" lon="1.39384">
        <ele>162.8</ele>
        <time>2025-05-29T11:56:28Z</time>
      </trkpt>
      <trkpt lat="44.52225" lon="1.39383">
        <ele>162.6</ele>
        <time>2025-05-29T11:56:29Z</time>
      </trkpt>
      <trkpt lat="44.52228" lon="1.3938">
        <ele>162.4</ele>
        <time>2025-05-29T11:56:30Z</time>
      </trkpt>
      <trkpt lat="44.52231" lon="1.39378">
        <ele>162.2</ele>
        <time>2025-05-29T11:56:31Z</time>
      </trkpt>
      <trkpt lat="44.52235" lon="1.39376">
        <ele>162</ele>
        <time>2025-05-29T11:56:32Z</time>
      </trkpt>
      <trkpt lat="44.52239" lon="1.39373">
        <ele>161.8</ele>
        <time>2025-05-29T11:56:33Z</time>
      </trkpt>
      <trkpt lat="44.52243" lon="1.3937">
        <ele>161</ele>
        <time>2025-05-29T11:56:34Z</time>
      </trkpt>
      <trkpt lat="44.52248" lon="1.39367">
        <ele>160.6</ele>
        <time>2025-05-29T11:56:35Z</time>
      </trkpt>
      <trkpt lat="44.52252" lon="1.39364">
        <ele>160.4</ele>
        <time>2025-05-29T11:56:36Z</time>
      </trkpt>
      <trkpt lat="44.52257" lon="1.39362">
        <ele>160.2</ele>
        <time>2025-05-29T11:56:37Z</time>
      </trkpt>
      <trkpt lat="44.52262" lon="1.39358">
        <ele>160</ele>
        <time>2025-05-29T11:56:38Z</time>
      </trkpt>
      <trkpt lat="44.52267" lon="1.39355">
        <ele>159.8</ele>
        <time>2025-05-29T11:56:39Z</time>
      </trkpt>
      <trkpt lat="44.52271" lon="1.39352">
        <ele>159.6</ele>
        <time>2025-05-29T11:56:40Z</time>
      </trkpt>
      <trkpt lat="44.52277" lon="1.39348">
        <ele>159.4</ele>
        <time>2025-05-29T11:56:41Z</time>
      </trkpt>
      <trkpt lat="44.52283" lon="1.39345">
        <ele>159.2</ele>
        <time>2025-05-29T11:56:42Z</time>
      </trkpt>
      <trkpt lat="44.52289" lon="1.39343">
        <ele>159</ele>
        <time>2025-05-29T11:56:43Z</time>
      </trkpt>
      <trkpt lat="44.52295" lon="1.39341">
        <ele>158.6</ele>
        <time>2025-05-29T11:56:44Z</time>
      </trkpt>
      <trkpt lat="44.52302" lon="1.39339">
        <ele>158.2</ele>
        <time>2025-05-29T11:56:45Z</time>
      </trkpt>
      <trkpt lat="44.52309" lon="1.39338">
        <ele>157.8</ele>
        <time>2025-05-29T11:56:46Z</time>
      </trkpt>
      <trkpt lat="44.52316" lon="1.39336">
        <ele>157.4</ele>
        <time>2025-05-29T11:56:47Z</time>
      </trkpt>
      <trkpt lat="44.52323" lon="1.39334">
        <ele>157</ele>
        <time>2025-05-29T11:56:48Z</time>
      </trkpt>
      <trkpt lat="44.5233" lon="1.39328">
        <ele>156.6</ele>
        <time>2025-05-29T11:56:49Z</time>
      </trkpt>
      <trkpt lat="44.52336" lon="1.39322">
        <ele>156.2</ele>
        <time>2025-05-29T11:56:50Z</time>
      </trkpt>
      <trkpt lat="44.52341" lon="1.39314">
        <ele>155.6</ele>
        <time>2025-05-29T11:56:51Z</time>
      </trkpt>
      <trkpt lat="44.52346" lon="1.39304">
        <ele>155</ele>
        <time>2025-05-29T11:56:52Z</time>
      </trkpt>
      <trkpt lat="44.52349" lon="1.39295">
        <ele>154.2</ele>
        <time>2025-05-29T11:56:53Z</time>
      </trkpt>
      <trkpt lat="44.52351" lon="1.39284">
        <ele>153.6</ele>
        <time>2025-05-29T11:56:54Z</time>
      </trkpt>
      <trkpt lat="44.52353" lon="1.39274">
        <ele>152.8</ele>
        <time>2025-05-29T11:56:55Z</time>
      </trkpt>
      <trkpt lat="44.52357" lon="1.39265">
        <ele>152.4</ele>
        <time>2025-05-29T11:56:56Z</time>
      </trkpt>
      <trkpt lat="44.52361" lon="1.39256">
        <ele>152</ele>
        <time>2025-05-29T11:56:57Z</time>
      </trkpt>
      <trkpt lat="44.52368" lon="1.39251">
        <ele>151.8</ele>
        <time>2025-05-29T11:56:58Z</time>
      </trkpt>
      <trkpt lat="44.52374" lon="1.39247">
        <ele>151.6</ele>
        <time>2025-05-29T11:56:59Z</time>
      </trkpt>
      <trkpt lat="44.5238" lon="1.39244">
        <ele>151.6</ele>
        <time>2025-05-29T11:57:00Z</time>
      </trkpt>
      <trkpt lat="44.52385" lon="1.39241">
        <ele>151.4</ele>
        <time>2025-05-29T11:57:01Z</time>
      </trkpt>
      <trkpt lat="44.5239" lon="1.3924">
        <ele>151.4</ele>
        <time>2025-05-29T11:57:02Z</time>
      </trkpt>
      <trkpt lat="44.52393" lon="1.39238">
        <ele>151.4</ele>
        <time>2025-05-29T11:57:03Z</time>
      </trkpt>
      <trkpt lat="44.52396" lon="1.39237">
        <ele>151.4</ele>
        <time>2025-05-29T11:57:04Z</time>
      </trkpt>
      <trkpt lat="44.52399" lon="1.39236">
        <ele>151.4</ele>
        <time>2025-05-29T11:57:05Z</time>
      </trkpt>
      <trkpt lat="44.52401" lon="1.39236">
        <ele>151.4</ele>
        <time>2025-05-29T11:57:06Z</time>
      </trkpt>
      <trkpt lat="44.52402" lon="1.39236">
        <ele>151.4</ele>
        <time>2025-05-29T11:57:07Z</time>
      </trkpt>
      <trkpt lat="44.52403" lon="1.39237">
        <ele>151.6</ele>
        <time>2025-05-29T11:57:08Z</time>
      </trkpt>
      <trkpt lat="44.52405" lon="1.39236">
        <ele>151.6</ele>
        <time>2025-05-29T11:57:09Z</time>
      </trkpt>
      <trkpt lat="44.52407" lon="1.39234">
        <ele>151.6</ele>
        <time>2025-05-29T11:57:10Z</time>
      </trkpt>
      <trkpt lat="44.52409" lon="1.39231">
        <ele>151.6</ele>
        <time>2025-05-29T11:57:11Z</time>
      </trkpt>
      <trkpt lat="44.52409" lon="1.39224">
        <ele>151.8</ele>
        <time>2025-05-29T12:04:45Z</time>
      </trkpt>
      <trkpt lat="44.52408" lon="1.3922">
        <ele>151.8</ele>
        <time>2025-05-29T12:04:46Z</time>
      </trkpt>
      <trkpt lat="44.52408" lon="1.39216">
        <ele>151.6</ele>
        <time>2025-05-29T12:04:47Z</time>
      </trkpt>
      <trkpt lat="44.52408" lon="1.39212">
        <ele>151.6</ele>
        <time>2025-05-29T12:04:48Z</time>
      </trkpt>
      <trkpt lat="44.52407" lon="1.39208">
        <ele>151.4</ele>
        <time>2025-05-29T12:04:49Z</time>
      </trkpt>
      <trkpt lat="44.52407" lon="1.39203">
        <ele>151.2</ele>
        <time>2025-05-29T12:04:50Z</time>
      </trkpt>
      <trkpt lat="44.52406" lon="1.39198">
        <ele>151</ele>
        <time>2025-05-29T12:04:51Z</time>
      </trkpt>
      <trkpt lat="44.52406" lon="1.39194">
        <ele>151</ele>
        <time>2025-05-29T12:04:52Z</time>
      </trkpt>
      <trkpt lat="44.52406" lon="1.3919">
        <ele>150.8</ele>
        <time>2025-05-29T12:04:53Z</time>
      </trkpt>
      <trkpt lat="44.52406" lon="1.39185">
        <ele>150.8</ele>
        <time>2025-05-29T12:04:54Z</time>
      </trkpt>
      <trkpt lat="44.52405" lon="1.3918">
        <ele>151</ele>
        <time>2025-05-29T12:04:55Z</time>
      </trkpt>
      <trkpt lat="44.52405" lon="1.39175">
        <ele>150.8</ele>
        <time>2025-05-29T12:04:56Z</time>
      </trkpt>
      <trkpt lat="44.52404" lon="1.3917">
        <ele>150.8</ele>
        <time>2025-05-29T12:04:57Z</time>
      </trkpt>
      <trkpt lat="44.52403" lon="1.39165">
        <ele>151</ele>
        <time>2025-05-29T12:04:58Z</time>
      </trkpt>
      <trkpt lat="44.52402" lon="1.39159">
        <ele>150.8</ele>
        <time>2025-05-29T12:04:59Z</time>
      </trkpt>
      <trkpt lat="44.52401" lon="1.39154">
        <ele>150.8</ele>
        <time>2025-05-29T12:05:00Z</time>
      </trkpt>
      <trkpt lat="44.524" lon="1.39148">
        <ele>150.8</ele>
        <time>2025-05-29T12:05:01Z</time>
      </trkpt>
      <trkpt lat="44.52399" lon="1.39143">
        <ele>150.8</ele>
        <time>2025-05-29T12:05:02Z</time>
      </trkpt>
      <trkpt lat="44.52399" lon="1.39137">
        <ele>150.6</ele>
        <time>2025-05-29T12:05:03Z</time>
      </trkpt>
      <trkpt lat="44.52398" lon="1.39131">
        <ele>150.6</ele>
        <time>2025-05-29T12:05:04Z</time>
      </trkpt>
      <trkpt lat="44.52397" lon="1.39125">
        <ele>150.6</ele>
        <time>2025-05-29T12:05:05Z</time>
      </trkpt>
      <trkpt lat="44.52395" lon="1.39119">
        <ele>150.4</ele>
        <time>2025-05-29T12:05:06Z</time>
      </trkpt>
      <trkpt lat="44.52394" lon="1.39113">
        <ele>150.4</ele>
        <time>2025-05-29T12:05:07Z</time>
      </trkpt>
      <trkpt lat="44.52392" lon="1.39107">
        <ele>150.2</ele>
        <time>2025-05-29T12:05:08Z</time>
      </trkpt>
      <trkpt lat="44.52391" lon="1.39101">
        <ele>150.2</ele>
        <time>2025-05-29T12:05:09Z</time>
      </trkpt>
      <trkpt lat="44.52389" lon="1.39094">
        <ele>150.2</ele>
        <time>2025-05-29T12:05:10Z</time>
      </trkpt>
      <trkpt lat="44.52388" lon="1.39088">
        <ele>150.2</ele>
        <time>2025-05-29T12:05:11Z</time>
      </trkpt>
      <trkpt lat="44.52387" lon="1.39081">
        <ele>150.4</ele>
        <time>2025-05-29T12:05:12Z</time>
      </trkpt>
      <trkpt lat="44.52385" lon="1.39075">
        <ele>150.4</ele>
        <time>2025-05-29T12:05:13Z</time>
      </trkpt>
      <trkpt lat="44.52383" lon="1.39069">
        <ele>150.4</ele>
        <time>2025-05-29T12:05:14Z</time>
      </trkpt>
      <trkpt lat="44.52382" lon="1.39062">
        <ele>150.4</ele>
        <time>2025-05-29T12:05:15Z</time>
      </trkpt>
      <trkpt lat="44.5238" lon="1.39056">
        <ele>150.2</ele>
        <time>2025-05-29T12:05:16Z</time>
      </trkpt>
      <trkpt lat="44.52379" lon="1.39049">
        <ele>149.6</ele>
        <time>2025-05-29T12:05:17Z</time>
      </trkpt>
      <trkpt lat="44.52377" lon="1.39043">
        <ele>149.6</ele>
        <time>2025-05-29T12:05:18Z</time>
      </trkpt>
      <trkpt lat="44.52376" lon="1.39036">
        <ele>149.6</ele>
        <time>2025-05-29T12:05:19Z</time>
      </trkpt>
      <trkpt lat="44.52374" lon="1.3903">
        <ele>149.4</ele>
        <time>2025-05-29T12:05:20Z</time>
      </trkpt>
      <trkpt lat="44.52373" lon="1.39024">
        <ele>149.4</ele>
        <time>2025-05-29T12:05:21Z</time>
      </trkpt>
      <trkpt lat="44.52372" lon="1.39017">
        <ele>149.6</ele>
        <time>2025-05-29T12:05:22Z</time>
      </trkpt>
      <trkpt lat="44.5237" lon="1.39011">
        <ele>149.4</ele>
        <time>2025-05-29T12:05:23Z</time>
      </trkpt>
      <trkpt lat="44.52369" lon="1.39004">
        <ele>149.4</ele>
        <time>2025-05-29T12:05:24Z</time>
      </trkpt>
      <trkpt lat="44.52367" lon="1.38998">
        <ele>149.4</ele>
        <time>2025-05-29T12:05:25Z</time>
      </trkpt>
      <trkpt lat="44.52366" lon="1.38991">
        <ele>149.2</ele>
        <time>2025-05-29T12:05:26Z</time>
      </trkpt>
      <trkpt lat="44.52365" lon="1.38984">
        <ele>149.4</ele>
        <time>2025-05-29T12:05:27Z</time>
      </trkpt>
      <trkpt lat="44.52363" lon="1.38977">
        <ele>149.4</ele>
        <time>2025-05-29T12:05:28Z</time>
      </trkpt>
      <trkpt lat="44.52361" lon="1.38971">
        <ele>149.6</ele>
        <time>2025-05-29T12:05:29Z</time>
      </trkpt>
      <trkpt lat="44.5236" lon="1.38964">
        <ele>149.6</ele>
        <time>2025-05-29T12:05:30Z</time>
      </trkpt>
      <trkpt lat="44.52358" lon="1.38956">
        <ele>149.6</ele>
        <time>2025-05-29T12:05:31Z</time>
      </trkpt>
      <trkpt lat="44.52356" lon="1.38949">
        <ele>149.4</ele>
        <time>2025-05-29T12:05:32Z</time>
      </trkpt>
      <trkpt lat="44.52355" lon="1.38942">
        <ele>149.2</ele>
        <time>2025-05-29T12:05:33Z</time>
      </trkpt>
      <trkpt lat="44.52353" lon="1.38935">
        <ele>149</ele>
        <time>2025-05-29T12:05:34Z</time>
      </trkpt>
      <trkpt lat="44.52351" lon="1.38929">
        <ele>149</ele>
        <time>2025-05-29T12:05:35Z</time>
      </trkpt>
      <trkpt lat="44.5235" lon="1.38922">
        <ele>149</ele>
        <time>2025-05-29T12:05:36Z</time>
      </trkpt>
      <trkpt lat="44.52349" lon="1.38915">
        <ele>149</ele>
        <time>2025-05-29T12:05:37Z</time>
      </trkpt>
      <trkpt lat="44.52347" lon="1.38909">
        <ele>148.8</ele>
        <time>2025-05-29T12:05:38Z</time>
      </trkpt>
      <trkpt lat="44.52346" lon="1.38902">
        <ele>148.8</ele>
        <time>2025-05-29T12:05:39Z</time>
      </trkpt>
      <trkpt lat="44.52345" lon="1.38896">
        <ele>148.8</ele>
        <time>2025-05-29T12:05:40Z</time>
      </trkpt>
      <trkpt lat="44.52344" lon="1.3889">
        <ele>149</ele>
        <time>2025-05-29T12:05:41Z</time>
      </trkpt>
      <trkpt lat="44.52344" lon="1.38886">
        <ele>149</ele>
        <time>2025-05-29T12:05:42Z</time>
      </trkpt>
      <trkpt lat="44.52344" lon="1.38883">
        <ele>149.2</ele>
        <time>2025-05-29T12:05:43Z</time>
      </trkpt>
      <trkpt lat="44.52345" lon="1.38881">
        <ele>149.4</ele>
        <time>2025-05-29T12:05:44Z</time>
      </trkpt>
      <trkpt lat="44.52347" lon="1.3888">
        <ele>149.6</ele>
        <time>2025-05-29T12:05:45Z</time>
      </trkpt>
      <trkpt lat="44.52349" lon="1.38878">
        <ele>149.6</ele>
        <time>2025-05-29T12:05:46Z</time>
      </trkpt>
      <trkpt lat="44.52351" lon="1.38877">
        <ele>149.6</ele>
        <time>2025-05-29T12:05:47Z</time>
      </trkpt>
      <trkpt lat="44.52353" lon="1.38874">
        <ele>149.6</ele>
        <time>2025-05-29T12:05:48Z</time>
      </trkpt>
      <trkpt lat="44.52355" lon="1.38871">
        <ele>149.6</ele>
        <time>2025-05-29T12:05:49Z</time>
      </trkpt>
      <trkpt lat="44.52356" lon="1.38866">
        <ele>149.4</ele>
        <time>2025-05-29T12:05:50Z</time>
      </trkpt>
      <trkpt lat="44.52356" lon="1.38861">
        <ele>149.2</ele>
        <time>2025-05-29T12:05:51Z</time>
      </trkpt>
      <trkpt lat="44.52356" lon="1.38856">
        <ele>149</ele>
        <time>2025-05-29T12:05:52Z</time>
      </trkpt>
      <trkpt lat="44.52356" lon="1.38851">
        <ele>148.8</ele>
        <time>2025-05-29T12:05:53Z</time>
      </trkpt>
      <trkpt lat="44.52355" lon="1.38845">
        <ele>148.4</ele>
        <time>2025-05-29T12:05:54Z</time>
      </trkpt>
      <trkpt lat="44.52354" lon="1.38839">
        <ele>148.2</ele>
        <time>2025-05-29T12:05:55Z</time>
      </trkpt>
      <trkpt lat="44.52354" lon="1.38832">
        <ele>148.2</ele>
        <time>2025-05-29T12:05:56Z</time>
      </trkpt>
      <trkpt lat="44.52353" lon="1.38825">
        <ele>148</ele>
        <time>2025-05-29T12:05:57Z</time>
      </trkpt>
      <trkpt lat="44.52353" lon="1.38818">
        <ele>148</ele>
        <time>2025-05-29T12:05:58Z</time>
      </trkpt>
      <trkpt lat="44.52352" lon="1.38811">
        <ele>148</ele>
        <time>2025-05-29T12:05:59Z</time>
      </trkpt>
      <trkpt lat="44.52352" lon="1.38804">
        <ele>148</ele>
        <time>2025-05-29T12:06:00Z</time>
      </trkpt>
      <trkpt lat="44.52351" lon="1.38796">
        <ele>148</ele>
        <time>2025-05-29T12:06:01Z</time>
      </trkpt>
      <trkpt lat="44.52351" lon="1.38789">
        <ele>147.8</ele>
        <time>2025-05-29T12:06:02Z</time>
      </trkpt>
      <trkpt lat="44.5235" lon="1.38782">
        <ele>147.8</ele>
        <time>2025-05-29T12:06:03Z</time>
      </trkpt>
      <trkpt lat="44.5235" lon="1.38775">
        <ele>147.6</ele>
        <time>2025-05-29T12:06:04Z</time>
      </trkpt>
      <trkpt lat="44.52349" lon="1.38768">
        <ele>147.6</ele>
        <time>2025-05-29T12:06:05Z</time>
      </trkpt>
      <trkpt lat="44.52349" lon="1.38761">
        <ele>147.4</ele>
        <time>2025-05-29T12:06:06Z</time>
      </trkpt>
      <trkpt lat="44.52348" lon="1.38753">
        <ele>147.4</ele>
        <time>2025-05-29T12:06:07Z</time>
      </trkpt>
      <trkpt lat="44.52348" lon="1.38746">
        <ele>147.2</ele>
        <time>2025-05-29T12:06:08Z</time>
      </trkpt>
      <trkpt lat="44.52347" lon="1.38739">
        <ele>147.2</ele>
        <time>2025-05-29T12:06:09Z</time>
      </trkpt>
      <trkpt lat="44.52347" lon="1.38732">
        <ele>147</ele>
        <time>2025-05-29T12:06:10Z</time>
      </trkpt>
      <trkpt lat="44.52346" lon="1.38725">
        <ele>147</ele>
        <time>2025-05-29T12:06:11Z</time>
      </trkpt>
      <trkpt lat="44.52345" lon="1.38718">
        <ele>147</ele>
        <time>2025-05-29T12:06:12Z</time>
      </trkpt>
      <trkpt lat="44.52345" lon="1.3871">
        <ele>147</ele>
        <time>2025-05-29T12:06:13Z</time>
      </trkpt>
      <trkpt lat="44.52344" lon="1.38703">
        <ele>147</ele>
        <time>2025-05-29T12:06:14Z</time>
      </trkpt>
      <trkpt lat="44.52343" lon="1.38695">
        <ele>147</ele>
        <time>2025-05-29T12:06:15Z</time>
      </trkpt>
      <trkpt lat="44.52342" lon="1.38688">
        <ele>147</ele>
        <time>2025-05-29T12:06:16Z</time>
      </trkpt>
      <trkpt lat="44.52344" lon="1.38682">
        <ele>147</ele>
        <time>2025-05-29T12:06:17Z</time>
      </trkpt>
      <trkpt lat="44.52347" lon="1.38677">
        <ele>147.2</ele>
        <time>2025-05-29T12:06:18Z</time>
      </trkpt>
      <trkpt lat="44.5235" lon="1.38676">
        <ele>147.4</ele>
        <time>2025-05-29T12:06:19Z</time>
      </trkpt>
      <trkpt lat="44.52354" lon="1.38677">
        <ele>147.6</ele>
        <time>2025-05-29T12:06:20Z</time>
      </trkpt>
      <trkpt lat="44.52357" lon="1.3868">
        <ele>148</ele>
        <time>2025-05-29T12:06:21Z</time>
      </trkpt>
      <trkpt lat="44.5236" lon="1.38682">
        <ele>148.2</ele>
        <time>2025-05-29T12:06:22Z</time>
      </trkpt>
      <trkpt lat="44.52364" lon="1.38684">
        <ele>148.4</ele>
        <time>2025-05-29T12:06:23Z</time>
      </trkpt>
      <trkpt lat="44.52367" lon="1.38687">
        <ele>148.6</ele>
        <time>2025-05-29T12:06:24Z</time>
      </trkpt>
      <trkpt lat="44.52371" lon="1.3869">
        <ele>148.6</ele>
        <time>2025-05-29T12:06:25Z</time>
      </trkpt>
      <trkpt lat="44.52374" lon="1.38693">
        <ele>148.8</ele>
        <time>2025-05-29T12:06:26Z</time>
      </trkpt>
      <trkpt lat="44.52378" lon="1.38697">
        <ele>148.8</ele>
        <time>2025-05-29T12:06:27Z</time>
      </trkpt>
      <trkpt lat="44.52382" lon="1.38701">
        <ele>148.8</ele>
        <time>2025-05-29T12:06:28Z</time>
      </trkpt>
      <trkpt lat="44.52385" lon="1.38704">
        <ele>148.8</ele>
        <time>2025-05-29T12:06:29Z</time>
      </trkpt>
      <trkpt lat="44.52389" lon="1.38708">
        <ele>148.8</ele>
        <time>2025-05-29T12:06:30Z</time>
      </trkpt>
      <trkpt lat="44.52393" lon="1.38711">
        <ele>148.8</ele>
        <time>2025-05-29T12:06:31Z</time>
      </trkpt>
      <trkpt lat="44.52397" lon="1.38715">
        <ele>148.8</ele>
        <time>2025-05-29T12:06:32Z</time>
      </trkpt>
      <trkpt lat="44.52401" lon="1.38719">
        <ele>148.8</ele>
        <time>2025-05-29T12:06:33Z</time>
      </trkpt>
      <trkpt lat="44.52405" lon="1.38723">
        <ele>148.8</ele>
        <time>2025-05-29T12:06:34Z</time>
      </trkpt>
      <trkpt lat="44.52409" lon="1.38727">
        <ele>148.6</ele>
        <time>2025-05-29T12:06:35Z</time>
      </trkpt>
      <trkpt lat="44.52413" lon="1.38731">
        <ele>148.6</ele>
        <time>2025-05-29T12:06:36Z</time>
      </trkpt>
      <trkpt lat="44.52418" lon="1.38734">
        <ele>148.6</ele>
        <time>2025-05-29T12:06:37Z</time>
      </trkpt>
      <trkpt lat="44.52422" lon="1.38738">
        <ele>148.4</ele>
        <time>2025-05-29T12:06:38Z</time>
      </trkpt>
      <trkpt lat="44.52426" lon="1.38741">
        <ele>148.4</ele>
        <time>2025-05-29T12:06:39Z</time>
      </trkpt>
      <trkpt lat="44.5243" lon="1.38744">
        <ele>148.4</ele>
        <time>2025-05-29T12:06:40Z</time>
      </trkpt>
      <trkpt lat="44.52435" lon="1.38746">
        <ele>148.6</ele>
        <time>2025-05-29T12:06:41Z</time>
      </trkpt>
      <trkpt lat="44.52439" lon="1.38749">
        <ele>148.6</ele>
        <time>2025-05-29T12:06:42Z</time>
      </trkpt>
      <trkpt lat="44.52443" lon="1.38752">
        <ele>148.8</ele>
        <time>2025-05-29T12:06:43Z</time>
      </trkpt>
      <trkpt lat="44.52447" lon="1.38755">
        <ele>149</ele>
        <time>2025-05-29T12:06:44Z</time>
      </trkpt>
      <trkpt lat="44.5245" lon="1.38757">
        <ele>149</ele>
        <time>2025-05-29T12:06:45Z</time>
      </trkpt>
      <trkpt lat="44.52454" lon="1.3876">
        <ele>149.2</ele>
        <time>2025-05-29T12:06:46Z</time>
      </trkpt>
      <trkpt lat="44.52457" lon="1.38763">
        <ele>149.4</ele>
        <time>2025-05-29T12:06:47Z</time>
      </trkpt>
      <trkpt lat="44.52461" lon="1.38766">
        <ele>149.6</ele>
        <time>2025-05-29T12:06:48Z</time>
      </trkpt>
      <trkpt lat="44.52464" lon="1.3877">
        <ele>149.8</ele>
        <time>2025-05-29T12:06:49Z</time>
      </trkpt>
      <trkpt lat="44.52467" lon="1.38772">
        <ele>150</ele>
        <time>2025-05-29T12:06:50Z</time>
      </trkpt>
      <trkpt lat="44.52471" lon="1.38775">
        <ele>150</ele>
        <time>2025-05-29T12:06:51Z</time>
      </trkpt>
      <trkpt lat="44.52473" lon="1.38778">
        <ele>150.2</ele>
        <time>2025-05-29T12:06:52Z</time>
      </trkpt>
      <trkpt lat="44.52476" lon="1.38781">
        <ele>150.4</ele>
        <time>2025-05-29T12:06:53Z</time>
      </trkpt>
      <trkpt lat="44.52479" lon="1.38784">
        <ele>150.4</ele>
        <time>2025-05-29T12:06:54Z</time>
      </trkpt>
      <trkpt lat="44.52482" lon="1.38787">
        <ele>150.6</ele>
        <time>2025-05-29T12:06:55Z</time>
      </trkpt>
      <trkpt lat="44.52484" lon="1.38791">
        <ele>150.8</ele>
        <time>2025-05-29T12:06:56Z</time>
      </trkpt>
      <trkpt lat="44.52487" lon="1.38795">
        <ele>151</ele>
        <time>2025-05-29T12:06:57Z</time>
      </trkpt>
      <trkpt lat="44.52491" lon="1.38797">
        <ele>150.8</ele>
        <time>2025-05-29T12:06:58Z</time>
      </trkpt>
      <trkpt lat="44.52495" lon="1.38799">
        <ele>150.8</ele>
        <time>2025-05-29T12:06:59Z</time>
      </trkpt>
      <trkpt lat="44.52499" lon="1.388">
        <ele>150.6</ele>
        <time>2025-05-29T12:07:00Z</time>
      </trkpt>
      <trkpt lat="44.52503" lon="1.388">
        <ele>150.4</ele>
        <time>2025-05-29T12:07:01Z</time>
      </trkpt>
      <trkpt lat="44.52506" lon="1.388">
        <ele>150.2</ele>
        <time>2025-05-29T12:07:02Z</time>
      </trkpt>
      <trkpt lat="44.52509" lon="1.388">
        <ele>150.4</ele>
        <time>2025-05-29T12:07:03Z</time>
      </trkpt>
      <trkpt lat="44.52512" lon="1.388">
        <ele>150.6</ele>
        <time>2025-05-29T12:07:04Z</time>
      </trkpt>
      <trkpt lat="44.52514" lon="1.388">
        <ele>150.8</ele>
        <time>2025-05-29T12:07:05Z</time>
      </trkpt>
      <trkpt lat="44.52517" lon="1.38801">
        <ele>151.2</ele>
        <time>2025-05-29T12:07:06Z</time>
      </trkpt>
      <trkpt lat="44.52519" lon="1.38801">
        <ele>151.4</ele>
        <time>2025-05-29T12:07:07Z</time>
      </trkpt>
      <trkpt lat="44.52521" lon="1.38801">
        <ele>151.8</ele>
        <time>2025-05-29T12:07:08Z</time>
      </trkpt>
      <trkpt lat="44.52524" lon="1.38801">
        <ele>152</ele>
        <time>2025-05-29T12:07:09Z</time>
      </trkpt>
      <trkpt lat="44.52527" lon="1.38801">
        <ele>152</ele>
        <time>2025-05-29T12:07:10Z</time>
      </trkpt>
      <trkpt lat="44.52529" lon="1.388">
        <ele>152.2</ele>
        <time>2025-05-29T12:07:11Z</time>
      </trkpt>
      <trkpt lat="44.52531" lon="1.388">
        <ele>152.2</ele>
        <time>2025-05-29T12:07:12Z</time>
      </trkpt>
      <trkpt lat="44.52533" lon="1.38799">
        <ele>152.4</ele>
        <time>2025-05-29T12:07:13Z</time>
      </trkpt>
      <trkpt lat="44.52536" lon="1.38799">
        <ele>152.4</ele>
        <time>2025-05-29T12:07:14Z</time>
      </trkpt>
      <trkpt lat="44.52539" lon="1.38799">
        <ele>152.6</ele>
        <time>2025-05-29T12:07:15Z</time>
      </trkpt>
      <trkpt lat="44.52541" lon="1.38798">
        <ele>152.6</ele>
        <time>2025-05-29T12:07:16Z</time>
      </trkpt>
      <trkpt lat="44.52544" lon="1.38798">
        <ele>152.6</ele>
        <time>2025-05-29T12:07:17Z</time>
      </trkpt>
      <trkpt lat="44.52546" lon="1.38797">
        <ele>152.8</ele>
        <time>2025-05-29T12:07:18Z</time>
      </trkpt>
      <trkpt lat="44.52548" lon="1.38797">
        <ele>152.8</ele>
        <time>2025-05-29T12:07:19Z</time>
      </trkpt>
      <trkpt lat="44.5255" lon="1.38796">
        <ele>153</ele>
        <time>2025-05-29T12:07:20Z</time>
      </trkpt>
      <trkpt lat="44.52553" lon="1.38796">
        <ele>153</ele>
        <time>2025-05-29T12:07:21Z</time>
      </trkpt>
      <trkpt lat="44.52555" lon="1.38796">
        <ele>153</ele>
        <time>2025-05-29T12:07:22Z</time>
      </trkpt>
      <trkpt lat="44.52558" lon="1.38796">
        <ele>153.2</ele>
        <time>2025-05-29T12:07:23Z</time>
      </trkpt>
      <trkpt lat="44.5256" lon="1.38795">
        <ele>153.2</ele>
        <time>2025-05-29T12:07:24Z</time>
      </trkpt>
      <trkpt lat="44.52563" lon="1.38795">
        <ele>153.4</ele>
        <time>2025-05-29T12:07:25Z</time>
      </trkpt>
      <trkpt lat="44.52565" lon="1.38795">
        <ele>153.4</ele>
        <time>2025-05-29T12:07:26Z</time>
      </trkpt>
      <trkpt lat="44.52567" lon="1.38795">
        <ele>153.4</ele>
        <time>2025-05-29T12:07:27Z</time>
      </trkpt>
      <trkpt lat="44.52569" lon="1.38795">
        <ele>153.4</ele>
        <time>2025-05-29T12:07:28Z</time>
      </trkpt>
      <trkpt lat="44.52572" lon="1.38795">
        <ele>153.6</ele>
        <time>2025-05-29T12:07:29Z</time>
      </trkpt>
      <trkpt lat="44.52575" lon="1.38794">
        <ele>153.6</ele>
        <time>2025-05-29T12:07:30Z</time>
      </trkpt>
      <trkpt lat="44.52577" lon="1.38794">
        <ele>153.8</ele>
        <time>2025-05-29T12:07:31Z</time>
      </trkpt>
      <trkpt lat="44.5258" lon="1.38794">
        <ele>154</ele>
        <time>2025-05-29T12:07:32Z</time>
      </trkpt>
      <trkpt lat="44.52582" lon="1.38794">
        <ele>154</ele>
        <time>2025-05-29T12:07:33Z</time>
      </trkpt>
      <trkpt lat="44.52585" lon="1.38794">
        <ele>154</ele>
        <time>2025-05-29T12:07:34Z</time>
      </trkpt>
      <trkpt lat="44.52587" lon="1.38794">
        <ele>154</ele>
        <time>2025-05-29T12:07:35Z</time>
      </trkpt>
      <trkpt lat="44.52589" lon="1.38794">
        <ele>154.2</ele>
        <time>2025-05-29T12:07:36Z</time>
      </trkpt>
      <trkpt lat="44.52592" lon="1.38794">
        <ele>154.2</ele>
        <time>2025-05-29T12:07:37Z</time>
      </trkpt>
      <trkpt lat="44.52593" lon="1.38795">
        <ele>154.2</ele>
        <time>2025-05-29T12:07:38Z</time>
      </trkpt>
      <trkpt lat="44.52595" lon="1.38795">
        <ele>154.4</ele>
        <time>2025-05-29T12:07:39Z</time>
      </trkpt>
      <trkpt lat="44.52598" lon="1.38794">
        <ele>154.6</ele>
        <time>2025-05-29T12:07:40Z</time>
      </trkpt>
      <trkpt lat="44.526" lon="1.38794">
        <ele>154.6</ele>
        <time>2025-05-29T12:07:41Z</time>
      </trkpt>
      <trkpt lat="44.52603" lon="1.38794">
        <ele>154.8</ele>
        <time>2025-05-29T12:07:42Z</time>
      </trkpt>
      <trkpt lat="44.52606" lon="1.38795">
        <ele>154.8</ele>
        <time>2025-05-29T12:07:43Z</time>
      </trkpt>
      <trkpt lat="44.52609" lon="1.38795">
        <ele>154.8</ele>
        <time>2025-05-29T12:07:44Z</time>
      </trkpt>
      <trkpt lat="44.52612" lon="1.38795">
        <ele>155</ele>
        <time>2025-05-29T12:07:45Z</time>
      </trkpt>
      <trkpt lat="44.52615" lon="1.38795">
        <ele>154.8</ele>
        <time>2025-05-29T12:07:46Z</time>
      </trkpt>
      <trkpt lat="44.52618" lon="1.38796">
        <ele>154.8</ele>
        <time>2025-05-29T12:07:47Z</time>
      </trkpt>
      <trkpt lat="44.5262" lon="1.38796">
        <ele>154.8</ele>
        <time>2025-05-29T12:07:48Z</time>
      </trkpt>
      <trkpt lat="44.52623" lon="1.38796">
        <ele>154.8</ele>
        <time>2025-05-29T12:07:49Z</time>
      </trkpt>
      <trkpt lat="44.52626" lon="1.38797">
        <ele>154.8</ele>
        <time>2025-05-29T12:07:50Z</time>
      </trkpt>
      <trkpt lat="44.52629" lon="1.38796">
        <ele>155</ele>
        <time>2025-05-29T12:07:51Z</time>
      </trkpt>
      <trkpt lat="44.52633" lon="1.38796">
        <ele>155</ele>
        <time>2025-05-29T12:07:52Z</time>
      </trkpt>
      <trkpt lat="44.52636" lon="1.38795">
        <ele>155</ele>
        <time>2025-05-29T12:07:53Z</time>
      </trkpt>
      <trkpt lat="44.52639" lon="1.38796">
        <ele>154.8</ele>
        <time>2025-05-29T12:07:54Z</time>
      </trkpt>
      <trkpt lat="44.52642" lon="1.38795">
        <ele>154.8</ele>
        <time>2025-05-29T12:07:55Z</time>
      </trkpt>
      <trkpt lat="44.52645" lon="1.38795">
        <ele>154.8</ele>
        <time>2025-05-29T12:07:56Z</time>
      </trkpt>
      <trkpt lat="44.52648" lon="1.38795">
        <ele>154.8</ele>
        <time>2025-05-29T12:07:57Z</time>
      </trkpt>
      <trkpt lat="44.52651" lon="1.38794">
        <ele>154.8</ele>
        <time>2025-05-29T12:07:58Z</time>
      </trkpt>
      <trkpt lat="44.52654" lon="1.38794">
        <ele>155</ele>
        <time>2025-05-29T12:07:59Z</time>
      </trkpt>
      <trkpt lat="44.52657" lon="1.38793">
        <ele>155</ele>
        <time>2025-05-29T12:08:00Z</time>
      </trkpt>
      <trkpt lat="44.5266" lon="1.38792">
        <ele>155.2</ele>
        <time>2025-05-29T12:08:01Z</time>
      </trkpt>
      <trkpt lat="44.52664" lon="1.38791">
        <ele>155.2</ele>
        <time>2025-05-29T12:08:02Z</time>
      </trkpt>
      <trkpt lat="44.52667" lon="1.3879">
        <ele>155.2</ele>
        <time>2025-05-29T12:08:03Z</time>
      </trkpt>
      <trkpt lat="44.5267" lon="1.38789">
        <ele>155.2</ele>
        <time>2025-05-29T12:08:04Z</time>
      </trkpt>
      <trkpt lat="44.52673" lon="1.38789">
        <ele>155.2</ele>
        <time>2025-05-29T12:08:05Z</time>
      </trkpt>
      <trkpt lat="44.52675" lon="1.38788">
        <ele>155.4</ele>
        <time>2025-05-29T12:08:06Z</time>
      </trkpt>
      <trkpt lat="44.52678" lon="1.38787">
        <ele>155.6</ele>
        <time>2025-05-29T12:08:07Z</time>
      </trkpt>
      <trkpt lat="44.52681" lon="1.38787">
        <ele>155.8</ele>
        <time>2025-05-29T12:08:08Z</time>
      </trkpt>
      <trkpt lat="44.52684" lon="1.38786">
        <ele>156</ele>
        <time>2025-05-29T12:08:09Z</time>
      </trkpt>
      <trkpt lat="44.52687" lon="1.38785">
        <ele>156</ele>
        <time>2025-05-29T12:08:10Z</time>
      </trkpt>
      <trkpt lat="44.52691" lon="1.38784">
        <ele>156.2</ele>
        <time>2025-05-29T12:08:11Z</time>
      </trkpt>
      <trkpt lat="44.52694" lon="1.38783">
        <ele>156</ele>
        <time>2025-05-29T12:08:12Z</time>
      </trkpt>
      <trkpt lat="44.52698" lon="1.38782">
        <ele>156</ele>
        <time>2025-05-29T12:08:13Z</time>
      </trkpt>
      <trkpt lat="44.52702" lon="1.38781">
        <ele>155.8</ele>
        <time>2025-05-29T12:08:14Z</time>
      </trkpt>
      <trkpt lat="44.52706" lon="1.38779">
        <ele>155.8</ele>
        <time>2025-05-29T12:08:15Z</time>
      </trkpt>
      <trkpt lat="44.52711" lon="1.38778">
        <ele>155.6</ele>
        <time>2025-05-29T12:08:16Z</time>
      </trkpt>
      <trkpt lat="44.52715" lon="1.38778">
        <ele>155.6</ele>
        <time>2025-05-29T12:08:17Z</time>
      </trkpt>
      <trkpt lat="44.52719" lon="1.38776">
        <ele>155.4</ele>
        <time>2025-05-29T12:08:18Z</time>
      </trkpt>
      <trkpt lat="44.52724" lon="1.38774">
        <ele>155.2</ele>
        <time>2025-05-29T12:08:19Z</time>
      </trkpt>
      <trkpt lat="44.52728" lon="1.38772">
        <ele>155.2</ele>
        <time>2025-05-29T12:08:20Z</time>
      </trkpt>
      <trkpt lat="44.52732" lon="1.3877">
        <ele>155</ele>
        <time>2025-05-29T12:08:21Z</time>
      </trkpt>
      <trkpt lat="44.52736" lon="1.38767">
        <ele>154.8</ele>
        <time>2025-05-29T12:08:22Z</time>
      </trkpt>
      <trkpt lat="44.5274" lon="1.38765">
        <ele>154.8</ele>
        <time>2025-05-29T12:08:23Z</time>
      </trkpt>
      <trkpt lat="44.52745" lon="1.38763">
        <ele>154.8</ele>
        <time>2025-05-29T12:08:24Z</time>
      </trkpt>
      <trkpt lat="44.52749" lon="1.3876">
        <ele>154.6</ele>
        <time>2025-05-29T12:08:25Z</time>
      </trkpt>
      <trkpt lat="44.52753" lon="1.38757">
        <ele>154.6</ele>
        <time>2025-05-29T12:08:26Z</time>
      </trkpt>
      <trkpt lat="44.52756" lon="1.38755">
        <ele>154.6</ele>
        <time>2025-05-29T12:08:27Z</time>
      </trkpt>
      <trkpt lat="44.5276" lon="1.38753">
        <ele>154.8</ele>
        <time>2025-05-29T12:08:28Z</time>
      </trkpt>
      <trkpt lat="44.52763" lon="1.3875">
        <ele>155</ele>
        <time>2025-05-29T12:08:29Z</time>
      </trkpt>
      <trkpt lat="44.52766" lon="1.38749">
        <ele>155.4</ele>
        <time>2025-05-29T12:08:30Z</time>
      </trkpt>
      <trkpt lat="44.52769" lon="1.38746">
        <ele>155.6</ele>
        <time>2025-05-29T12:08:31Z</time>
      </trkpt>
      <trkpt lat="44.52773" lon="1.38744">
        <ele>156</ele>
        <time>2025-05-29T12:08:32Z</time>
      </trkpt>
      <trkpt lat="44.52776" lon="1.38743">
        <ele>156.2</ele>
        <time>2025-05-29T12:08:33Z</time>
      </trkpt>
      <trkpt lat="44.52779" lon="1.38741">
        <ele>156.4</ele>
        <time>2025-05-29T12:08:34Z</time>
      </trkpt>
      <trkpt lat="44.52782" lon="1.38738">
        <ele>156.6</ele>
        <time>2025-05-29T12:08:35Z</time>
      </trkpt>
      <trkpt lat="44.52785" lon="1.38737">
        <ele>156.6</ele>
        <time>2025-05-29T12:08:36Z</time>
      </trkpt>
      <trkpt lat="44.52788" lon="1.38735">
        <ele>156.8</ele>
        <time>2025-05-29T12:08:37Z</time>
      </trkpt>
      <trkpt lat="44.52792" lon="1.38733">
        <ele>157</ele>
        <time>2025-05-29T12:08:38Z</time>
      </trkpt>
      <trkpt lat="44.52796" lon="1.38731">
        <ele>157</ele>
        <time>2025-05-29T12:08:39Z</time>
      </trkpt>
      <trkpt lat="44.52799" lon="1.38729">
        <ele>157</ele>
        <time>2025-05-29T12:08:40Z</time>
      </trkpt>
      <trkpt lat="44.52803" lon="1.38726">
        <ele>157</ele>
        <time>2025-05-29T12:08:41Z</time>
      </trkpt>
      <trkpt lat="44.52806" lon="1.38724">
        <ele>156.8</ele>
        <time>2025-05-29T12:08:42Z</time>
      </trkpt>
      <trkpt lat="44.5281" lon="1.38722">
        <ele>156.8</ele>
        <time>2025-05-29T12:08:43Z</time>
      </trkpt>
      <trkpt lat="44.52814" lon="1.38721">
        <ele>156.8</ele>
        <time>2025-05-29T12:08:44Z</time>
      </trkpt>
      <trkpt lat="44.52818" lon="1.38719">
        <ele>157</ele>
        <time>2025-05-29T12:08:45Z</time>
      </trkpt>
      <trkpt lat="44.52821" lon="1.38716">
        <ele>157.2</ele>
        <time>2025-05-29T12:08:46Z</time>
      </trkpt>
      <trkpt lat="44.52824" lon="1.38714">
        <ele>157.2</ele>
        <time>2025-05-29T12:08:47Z</time>
      </trkpt>
      <trkpt lat="44.52828" lon="1.38712">
        <ele>157.2</ele>
        <time>2025-05-29T12:08:48Z</time>
      </trkpt>
      <trkpt lat="44.52832" lon="1.38709">
        <ele>157.2</ele>
        <time>2025-05-29T12:08:49Z</time>
      </trkpt>
      <trkpt lat="44.52835" lon="1.38707">
        <ele>157.4</ele>
        <time>2025-05-29T12:08:50Z</time>
      </trkpt>
      <trkpt lat="44.52838" lon="1.38704">
        <ele>157.4</ele>
        <time>2025-05-29T12:08:51Z</time>
      </trkpt>
      <trkpt lat="44.52841" lon="1.38702">
        <ele>157.4</ele>
        <time>2025-05-29T12:08:52Z</time>
      </trkpt>
      <trkpt lat="44.52844" lon="1.38699">
        <ele>157.4</ele>
        <time>2025-05-29T12:08:53Z</time>
      </trkpt>
      <trkpt lat="44.52847" lon="1.38697">
        <ele>157.4</ele>
        <time>2025-05-29T12:08:54Z</time>
      </trkpt>
      <trkpt lat="44.52851" lon="1.38694">
        <ele>157.6</ele>
        <time>2025-05-29T12:08:55Z</time>
      </trkpt>
      <trkpt lat="44.52854" lon="1.38692">
        <ele>157.6</ele>
        <time>2025-05-29T12:08:56Z</time>
      </trkpt>
      <trkpt lat="44.52857" lon="1.38689">
        <ele>157.8</ele>
        <time>2025-05-29T12:08:57Z</time>
      </trkpt>
      <trkpt lat="44.52861" lon="1.38686">
        <ele>157.8</ele>
        <time>2025-05-29T12:08:58Z</time>
      </trkpt>
      <trkpt lat="44.52864" lon="1.38683">
        <ele>157.8</ele>
        <time>2025-05-29T12:08:59Z</time>
      </trkpt>
      <trkpt lat="44.52867" lon="1.3868">
        <ele>157.8</ele>
        <time>2025-05-29T12:09:00Z</time>
      </trkpt>
      <trkpt lat="44.5287" lon="1.38677">
        <ele>157.8</ele>
        <time>2025-05-29T12:09:01Z</time>
      </trkpt>
      <trkpt lat="44.52873" lon="1.38674">
        <ele>157.8</ele>
        <time>2025-05-29T12:09:02Z</time>
      </trkpt>
      <trkpt lat="44.52876" lon="1.38671">
        <ele>157.8</ele>
        <time>2025-05-29T12:09:03Z</time>
      </trkpt>
      <trkpt lat="44.52879" lon="1.38667">
        <ele>157.8</ele>
        <time>2025-05-29T12:09:04Z</time>
      </trkpt>
      <trkpt lat="44.52883" lon="1.38664">
        <ele>158</ele>
        <time>2025-05-29T12:09:05Z</time>
      </trkpt>
      <trkpt lat="44.52886" lon="1.3866">
        <ele>158</ele>
        <time>2025-05-29T12:09:06Z</time>
      </trkpt>
      <trkpt lat="44.52889" lon="1.38657">
        <ele>158</ele>
        <time>2025-05-29T12:09:07Z</time>
      </trkpt>
      <trkpt lat="44.52893" lon="1.38653">
        <ele>157.8</ele>
        <time>2025-05-29T12:09:08Z</time>
      </trkpt>
      <trkpt lat="44.52896" lon="1.3865">
        <ele>157.6</ele>
        <time>2025-05-29T12:09:09Z</time>
      </trkpt>
      <trkpt lat="44.529" lon="1.38646">
        <ele>157.6</ele>
        <time>2025-05-29T12:09:10Z</time>
      </trkpt>
      <trkpt lat="44.52904" lon="1.38643">
        <ele>157.6</ele>
        <time>2025-05-29T12:09:11Z</time>
      </trkpt>
      <trkpt lat="44.52907" lon="1.38639">
        <ele>157.4</ele>
        <time>2025-05-29T12:09:12Z</time>
      </trkpt>
      <trkpt lat="44.52911" lon="1.38636">
        <ele>157.6</ele>
        <time>2025-05-29T12:09:13Z</time>
      </trkpt>
      <trkpt lat="44.52914" lon="1.38633">
        <ele>157.6</ele>
        <time>2025-05-29T12:09:14Z</time>
      </trkpt>
      <trkpt lat="44.52917" lon="1.38629">
        <ele>157.6</ele>
        <time>2025-05-29T12:09:15Z</time>
      </trkpt>
      <trkpt lat="44.52921" lon="1.38626">
        <ele>157.6</ele>
        <time>2025-05-29T12:09:16Z</time>
      </trkpt>
      <trkpt lat="44.52925" lon="1.38623">
        <ele>157.6</ele>
        <time>2025-05-29T12:09:17Z</time>
      </trkpt>
      <trkpt lat="44.52928" lon="1.3862">
        <ele>157.8</ele>
        <time>2025-05-29T12:09:18Z</time>
      </trkpt>
      <trkpt lat="44.52931" lon="1.38617">
        <ele>157.8</ele>
        <time>2025-05-29T12:09:19Z</time>
      </trkpt>
      <trkpt lat="44.52934" lon="1.38614">
        <ele>157.8</ele>
        <time>2025-05-29T12:09:20Z</time>
      </trkpt>
      <trkpt lat="44.52937" lon="1.38611">
        <ele>157.8</ele>
        <time>2025-05-29T12:09:21Z</time>
      </trkpt>
      <trkpt lat="44.52941" lon="1.38608">
        <ele>157.8</ele>
        <time>2025-05-29T12:09:22Z</time>
      </trkpt>
      <trkpt lat="44.52944" lon="1.38605">
        <ele>158</ele>
        <time>2025-05-29T12:09:23Z</time>
      </trkpt>
      <trkpt lat="44.52948" lon="1.38602">
        <ele>158</ele>
        <time>2025-05-29T12:09:24Z</time>
      </trkpt>
      <trkpt lat="44.52951" lon="1.38599">
        <ele>158</ele>
        <time>2025-05-29T12:09:25Z</time>
      </trkpt>
      <trkpt lat="44.52955" lon="1.38596">
        <ele>157.8</ele>
        <time>2025-05-29T12:09:26Z</time>
      </trkpt>
      <trkpt lat="44.52959" lon="1.38592">
        <ele>157.6</ele>
        <time>2025-05-29T12:09:27Z</time>
      </trkpt>
      <trkpt lat="44.52963" lon="1.38589">
        <ele>157.6</ele>
        <time>2025-05-29T12:09:28Z</time>
      </trkpt>
      <trkpt lat="44.52966" lon="1.38585">
        <ele>157.6</ele>
        <time>2025-05-29T12:09:29Z</time>
      </trkpt>
      <trkpt lat="44.52969" lon="1.38582">
        <ele>157.4</ele>
        <time>2025-05-29T12:09:30Z</time>
      </trkpt>
      <trkpt lat="44.52972" lon="1.38579">
        <ele>157.4</ele>
        <time>2025-05-29T12:09:31Z</time>
      </trkpt>
      <trkpt lat="44.52975" lon="1.38576">
        <ele>157.4</ele>
        <time>2025-05-29T12:09:32Z</time>
      </trkpt>
      <trkpt lat="44.52979" lon="1.38573">
        <ele>157.6</ele>
        <time>2025-05-29T12:09:33Z</time>
      </trkpt>
      <trkpt lat="44.52982" lon="1.3857">
        <ele>157.8</ele>
        <time>2025-05-29T12:09:34Z</time>
      </trkpt>
      <trkpt lat="44.52985" lon="1.38567">
        <ele>158</ele>
        <time>2025-05-29T12:09:35Z</time>
      </trkpt>
      <trkpt lat="44.52988" lon="1.38564">
        <ele>158.2</ele>
        <time>2025-05-29T12:09:36Z</time>
      </trkpt>
      <trkpt lat="44.52991" lon="1.38562">
        <ele>158.4</ele>
        <time>2025-05-29T12:09:37Z</time>
      </trkpt>
      <trkpt lat="44.52993" lon="1.38559">
        <ele>158.6</ele>
        <time>2025-05-29T12:09:38Z</time>
      </trkpt>
      <trkpt lat="44.52996" lon="1.38557">
        <ele>158.8</ele>
        <time>2025-05-29T12:09:39Z</time>
      </trkpt>
      <trkpt lat="44.52998" lon="1.38554">
        <ele>158.8</ele>
        <time>2025-05-29T12:09:40Z</time>
      </trkpt>
      <trkpt lat="44.53" lon="1.38551">
        <ele>159</ele>
        <time>2025-05-29T12:09:41Z</time>
      </trkpt>
      <trkpt lat="44.53002" lon="1.38548">
        <ele>159.2</ele>
        <time>2025-05-29T12:09:42Z</time>
      </trkpt>
      <trkpt lat="44.53004" lon="1.38543">
        <ele>159</ele>
        <time>2025-05-29T12:09:43Z</time>
      </trkpt>
      <trkpt lat="44.53006" lon="1.3854">
        <ele>159</ele>
        <time>2025-05-29T12:09:44Z</time>
      </trkpt>
      <trkpt lat="44.53008" lon="1.38536">
        <ele>158.8</ele>
        <time>2025-05-29T12:09:45Z</time>
      </trkpt>
      <trkpt lat="44.53011" lon="1.38533">
        <ele>158.6</ele>
        <time>2025-05-29T12:09:46Z</time>
      </trkpt>
      <trkpt lat="44.53014" lon="1.38529">
        <ele>158.6</ele>
        <time>2025-05-29T12:09:47Z</time>
      </trkpt>
      <trkpt lat="44.53016" lon="1.38525">
        <ele>158.6</ele>
        <time>2025-05-29T12:09:48Z</time>
      </trkpt>
      <trkpt lat="44.53019" lon="1.38522">
        <ele>158.8</ele>
        <time>2025-05-29T12:09:49Z</time>
      </trkpt>
      <trkpt lat="44.53022" lon="1.38519">
        <ele>159</ele>
        <time>2025-05-29T12:09:50Z</time>
      </trkpt>
      <trkpt lat="44.53025" lon="1.38516">
        <ele>159.2</ele>
        <time>2025-05-29T12:09:51Z</time>
      </trkpt>
      <trkpt lat="44.53028" lon="1.38514">
        <ele>159.6</ele>
        <time>2025-05-29T12:09:52Z</time>
      </trkpt>
      <trkpt lat="44.53031" lon="1.38511">
        <ele>159.8</ele>
        <time>2025-05-29T12:09:53Z</time>
      </trkpt>
      <trkpt lat="44.53034" lon="1.38508">
        <ele>160</ele>
        <time>2025-05-29T12:09:54Z</time>
      </trkpt>
      <trkpt lat="44.53037" lon="1.38506">
        <ele>160</ele>
        <time>2025-05-29T12:09:55Z</time>
      </trkpt>
      <trkpt lat="44.53039" lon="1.38502">
        <ele>160</ele>
        <time>2025-05-29T12:09:56Z</time>
      </trkpt>
      <trkpt lat="44.53042" lon="1.38499">
        <ele>159.8</ele>
        <time>2025-05-29T12:09:57Z</time>
      </trkpt>
      <trkpt lat="44.53045" lon="1.38496">
        <ele>159.8</ele>
        <time>2025-05-29T12:09:58Z</time>
      </trkpt>
      <trkpt lat="44.53048" lon="1.38493">
        <ele>160</ele>
        <time>2025-05-29T12:09:59Z</time>
      </trkpt>
      <trkpt lat="44.53051" lon="1.3849">
        <ele>160</ele>
        <time>2025-05-29T12:10:00Z</time>
      </trkpt>
      <trkpt lat="44.53054" lon="1.38488">
        <ele>160.2</ele>
        <time>2025-05-29T12:10:01Z</time>
      </trkpt>
      <trkpt lat="44.53056" lon="1.38485">
        <ele>160.4</ele>
        <time>2025-05-29T12:10:02Z</time>
      </trkpt>
      <trkpt lat="44.53059" lon="1.38483">
        <ele>160.6</ele>
        <time>2025-05-29T12:10:03Z</time>
      </trkpt>
      <trkpt lat="44.53062" lon="1.3848">
        <ele>160.6</ele>
        <time>2025-05-29T12:10:04Z</time>
      </trkpt>
      <trkpt lat="44.53064" lon="1.38477">
        <ele>160.8</ele>
        <time>2025-05-29T12:10:05Z</time>
      </trkpt>
      <trkpt lat="44.53067" lon="1.38474">
        <ele>160.8</ele>
        <time>2025-05-29T12:10:06Z</time>
      </trkpt>
      <trkpt lat="44.5307" lon="1.38471">
        <ele>160.8</ele>
        <time>2025-05-29T12:10:07Z</time>
      </trkpt>
      <trkpt lat="44.53073" lon="1.38467">
        <ele>160.8</ele>
        <time>2025-05-29T12:10:08Z</time>
      </trkpt>
      <trkpt lat="44.53076" lon="1.38464">
        <ele>160.8</ele>
        <time>2025-05-29T12:10:09Z</time>
      </trkpt>
      <trkpt lat="44.53079" lon="1.38461">
        <ele>160.6</ele>
        <time>2025-05-29T12:10:10Z</time>
      </trkpt>
      <trkpt lat="44.53082" lon="1.38457">
        <ele>160.6</ele>
        <time>2025-05-29T12:10:11Z</time>
      </trkpt>
      <trkpt lat="44.53085" lon="1.38454">
        <ele>160.6</ele>
        <time>2025-05-29T12:10:12Z</time>
      </trkpt>
      <trkpt lat="44.53087" lon="1.38451">
        <ele>160.6</ele>
        <time>2025-05-29T12:10:13Z</time>
      </trkpt>
      <trkpt lat="44.53091" lon="1.38448">
        <ele>160.4</ele>
        <time>2025-05-29T12:10:14Z</time>
      </trkpt>
      <trkpt lat="44.53093" lon="1.38445">
        <ele>160.4</ele>
        <time>2025-05-29T12:10:15Z</time>
      </trkpt>
      <trkpt lat="44.53096" lon="1.38442">
        <ele>160.4</ele>
        <time>2025-05-29T12:10:16Z</time>
      </trkpt>
      <trkpt lat="44.53099" lon="1.38438">
        <ele>160.4</ele>
        <time>2025-05-29T12:10:17Z</time>
      </trkpt>
      <trkpt lat="44.53102" lon="1.38435">
        <ele>160.4</ele>
        <time>2025-05-29T12:10:18Z</time>
      </trkpt>
      <trkpt lat="44.53104" lon="1.38432">
        <ele>160.2</ele>
        <time>2025-05-29T12:10:19Z</time>
      </trkpt>
      <trkpt lat="44.53107" lon="1.38429">
        <ele>160.2</ele>
        <time>2025-05-29T12:10:20Z</time>
      </trkpt>
      <trkpt lat="44.5311" lon="1.38426">
        <ele>160</ele>
        <time>2025-05-29T12:10:21Z</time>
      </trkpt>
      <trkpt lat="44.53113" lon="1.38422">
        <ele>160</ele>
        <time>2025-05-29T12:10:22Z</time>
      </trkpt>
      <trkpt lat="44.53116" lon="1.38418">
        <ele>160</ele>
        <time>2025-05-29T12:10:23Z</time>
      </trkpt>
      <trkpt lat="44.53119" lon="1.38415">
        <ele>160</ele>
        <time>2025-05-29T12:10:24Z</time>
      </trkpt>
      <trkpt lat="44.53121" lon="1.38412">
        <ele>160.2</ele>
        <time>2025-05-29T12:10:25Z</time>
      </trkpt>
      <trkpt lat="44.53123" lon="1.38409">
        <ele>160.4</ele>
        <time>2025-05-29T12:10:26Z</time>
      </trkpt>
      <trkpt lat="44.53125" lon="1.38406">
        <ele>160.8</ele>
        <time>2025-05-29T12:10:27Z</time>
      </trkpt>
      <trkpt lat="44.53127" lon="1.38403">
        <ele>161</ele>
        <time>2025-05-29T12:10:28Z</time>
      </trkpt>
      <trkpt lat="44.53129" lon="1.38401">
        <ele>161.2</ele>
        <time>2025-05-29T12:10:29Z</time>
      </trkpt>
      <trkpt lat="44.53131" lon="1.38399">
        <ele>161.4</ele>
        <time>2025-05-29T12:10:30Z</time>
      </trkpt>
      <trkpt lat="44.53133" lon="1.38396">
        <ele>161.6</ele>
        <time>2025-05-29T12:10:31Z</time>
      </trkpt>
      <trkpt lat="44.53136" lon="1.38394">
        <ele>161.6</ele>
        <time>2025-05-29T12:10:32Z</time>
      </trkpt>
      <trkpt lat="44.53138" lon="1.38392">
        <ele>161.8</ele>
        <time>2025-05-29T12:10:33Z</time>
      </trkpt>
      <trkpt lat="44.5314" lon="1.3839">
        <ele>161.8</ele>
        <time>2025-05-29T12:10:34Z</time>
      </trkpt>
      <trkpt lat="44.53142" lon="1.38387">
        <ele>161.8</ele>
        <time>2025-05-29T12:10:35Z</time>
      </trkpt>
      <trkpt lat="44.53144" lon="1.38385">
        <ele>161.8</ele>
        <time>2025-05-29T12:10:36Z</time>
      </trkpt>
      <trkpt lat="44.53146" lon="1.38384">
        <ele>162</ele>
        <time>2025-05-29T12:10:37Z</time>
      </trkpt>
      <trkpt lat="44.53149" lon="1.38382">
        <ele>162.2</ele>
        <time>2025-05-29T12:10:38Z</time>
      </trkpt>
      <trkpt lat="44.53151" lon="1.3838">
        <ele>162.2</ele>
        <time>2025-05-29T12:10:39Z</time>
      </trkpt>
      <trkpt lat="44.53154" lon="1.38378">
        <ele>162.2</ele>
        <time>2025-05-29T12:10:40Z</time>
      </trkpt>
      <trkpt lat="44.53156" lon="1.38377">
        <ele>162.4</ele>
        <time>2025-05-29T12:10:41Z</time>
      </trkpt>
      <trkpt lat="44.53158" lon="1.38375">
        <ele>162.4</ele>
        <time>2025-05-29T12:10:42Z</time>
      </trkpt>
      <trkpt lat="44.53161" lon="1.38374">
        <ele>162.6</ele>
        <time>2025-05-29T12:10:43Z</time>
      </trkpt>
      <trkpt lat="44.53163" lon="1.38372">
        <ele>162.6</ele>
        <time>2025-05-29T12:10:44Z</time>
      </trkpt>
      <trkpt lat="44.53166" lon="1.3837">
        <ele>162.8</ele>
        <time>2025-05-29T12:10:45Z</time>
      </trkpt>
      <trkpt lat="44.53168" lon="1.38369">
        <ele>162.8</ele>
        <time>2025-05-29T12:10:46Z</time>
      </trkpt>
      <trkpt lat="44.53171" lon="1.38368">
        <ele>162.8</ele>
        <time>2025-05-29T12:10:47Z</time>
      </trkpt>
      <trkpt lat="44.53173" lon="1.38366">
        <ele>163</ele>
        <time>2025-05-29T12:10:48Z</time>
      </trkpt>
      <trkpt lat="44.53175" lon="1.38365">
        <ele>163.2</ele>
        <time>2025-05-29T12:10:49Z</time>
      </trkpt>
      <trkpt lat="44.53178" lon="1.38363">
        <ele>163.2</ele>
        <time>2025-05-29T12:10:50Z</time>
      </trkpt>
      <trkpt lat="44.53181" lon="1.38362">
        <ele>163.2</ele>
        <time>2025-05-29T12:10:51Z</time>
      </trkpt>
      <trkpt lat="44.53184" lon="1.3836">
        <ele>163.4</ele>
        <time>2025-05-29T12:10:52Z</time>
      </trkpt>
      <trkpt lat="44.53186" lon="1.38358">
        <ele>163.4</ele>
        <time>2025-05-29T12:10:53Z</time>
      </trkpt>
      <trkpt lat="44.5319" lon="1.38357">
        <ele>163.4</ele>
        <time>2025-05-29T12:10:54Z</time>
      </trkpt>
      <trkpt lat="44.53192" lon="1.38356">
        <ele>163.4</ele>
        <time>2025-05-29T12:10:55Z</time>
      </trkpt>
      <trkpt lat="44.53195" lon="1.38355">
        <ele>163.4</ele>
        <time>2025-05-29T12:10:56Z</time>
      </trkpt>
      <trkpt lat="44.53198" lon="1.38354">
        <ele>163.4</ele>
        <time>2025-05-29T12:10:57Z</time>
      </trkpt>
      <trkpt lat="44.53201" lon="1.38354">
        <ele>163.4</ele>
        <time>2025-05-29T12:10:58Z</time>
      </trkpt>
      <trkpt lat="44.53204" lon="1.38354">
        <ele>163.6</ele>
        <time>2025-05-29T12:10:59Z</time>
      </trkpt>
      <trkpt lat="44.53207" lon="1.38354">
        <ele>163.6</ele>
        <time>2025-05-29T12:11:00Z</time>
      </trkpt>
      <trkpt lat="44.5321" lon="1.38354">
        <ele>163.6</ele>
        <time>2025-05-29T12:11:01Z</time>
      </trkpt>
      <trkpt lat="44.53213" lon="1.38353">
        <ele>163.6</ele>
        <time>2025-05-29T12:11:02Z</time>
      </trkpt>
      <trkpt lat="44.53217" lon="1.38353">
        <ele>163.8</ele>
        <time>2025-05-29T12:11:03Z</time>
      </trkpt>
      <trkpt lat="44.5322" lon="1.38353">
        <ele>163.8</ele>
        <time>2025-05-29T12:11:04Z</time>
      </trkpt>
      <trkpt lat="44.53224" lon="1.38352">
        <ele>163.8</ele>
        <time>2025-05-29T12:11:05Z</time>
      </trkpt>
      <trkpt lat="44.53228" lon="1.38352">
        <ele>163.6</ele>
        <time>2025-05-29T12:11:06Z</time>
      </trkpt>
      <trkpt lat="44.53231" lon="1.38352">
        <ele>163.6</ele>
        <time>2025-05-29T12:11:07Z</time>
      </trkpt>
      <trkpt lat="44.53234" lon="1.38351">
        <ele>163.4</ele>
        <time>2025-05-29T12:11:08Z</time>
      </trkpt>
      <trkpt lat="44.53237" lon="1.3835">
        <ele>163.2</ele>
        <time>2025-05-29T12:11:09Z</time>
      </trkpt>
      <trkpt lat="44.53241" lon="1.38351">
        <ele>163</ele>
        <time>2025-05-29T12:11:10Z</time>
      </trkpt>
      <trkpt lat="44.53245" lon="1.38351">
        <ele>162.8</ele>
        <time>2025-05-29T12:11:11Z</time>
      </trkpt>
      <trkpt lat="44.53249" lon="1.38351">
        <ele>162.8</ele>
        <time>2025-05-29T12:11:12Z</time>
      </trkpt>
      <trkpt lat="44.53254" lon="1.3835">
        <ele>162.6</ele>
        <time>2025-05-29T12:11:13Z</time>
      </trkpt>
      <trkpt lat="44.53258" lon="1.38349">
        <ele>162.2</ele>
        <time>2025-05-29T12:11:14Z</time>
      </trkpt>
      <trkpt lat="44.53263" lon="1.38349">
        <ele>162</ele>
        <time>2025-05-29T12:11:15Z</time>
      </trkpt>
      <trkpt lat="44.53267" lon="1.38348">
        <ele>161.8</ele>
        <time>2025-05-29T12:11:16Z</time>
      </trkpt>
      <trkpt lat="44.53271" lon="1.38348">
        <ele>161.6</ele>
        <time>2025-05-29T12:11:17Z</time>
      </trkpt>
      <trkpt lat="44.53276" lon="1.38348">
        <ele>161.4</ele>
        <time>2025-05-29T12:11:18Z</time>
      </trkpt>
      <trkpt lat="44.53281" lon="1.38349">
        <ele>161.4</ele>
        <time>2025-05-29T12:11:19Z</time>
      </trkpt>
      <trkpt lat="44.53287" lon="1.38349">
        <ele>161.2</ele>
        <time>2025-05-29T12:11:20Z</time>
      </trkpt>
      <trkpt lat="44.53291" lon="1.3835">
        <ele>161.2</ele>
        <time>2025-05-29T12:11:21Z</time>
      </trkpt>
      <trkpt lat="44.53296" lon="1.3835">
        <ele>161</ele>
        <time>2025-05-29T12:11:22Z</time>
      </trkpt>
      <trkpt lat="44.533" lon="1.3835">
        <ele>160.8</ele>
        <time>2025-05-29T12:11:23Z</time>
      </trkpt>
      <trkpt lat="44.53305" lon="1.3835">
        <ele>160.4</ele>
        <time>2025-05-29T12:11:24Z</time>
      </trkpt>
      <trkpt lat="44.53308" lon="1.3835">
        <ele>160.4</ele>
        <time>2025-05-29T12:11:25Z</time>
      </trkpt>
      <trkpt lat="44.53311" lon="1.3835">
        <ele>160.4</ele>
        <time>2025-05-29T12:11:26Z</time>
      </trkpt>
      <trkpt lat="44.53314" lon="1.3835">
        <ele>160.4</ele>
        <time>2025-05-29T12:11:27Z</time>
      </trkpt>
      <trkpt lat="44.53317" lon="1.38349">
        <ele>160.6</ele>
        <time>2025-05-29T12:11:28Z</time>
      </trkpt>
      <trkpt lat="44.5332" lon="1.38349">
        <ele>160.6</ele>
        <time>2025-05-29T12:11:29Z</time>
      </trkpt>
      <trkpt lat="44.53323" lon="1.38349">
        <ele>160.8</ele>
        <time>2025-05-29T12:11:30Z</time>
      </trkpt>
      <trkpt lat="44.53327" lon="1.38348">
        <ele>160.8</ele>
        <time>2025-05-29T12:11:31Z</time>
      </trkpt>
      <trkpt lat="44.5333" lon="1.38348">
        <ele>160.8</ele>
        <time>2025-05-29T12:11:32Z</time>
      </trkpt>
      <trkpt lat="44.53334" lon="1.38348">
        <ele>160.8</ele>
        <time>2025-05-29T12:11:33Z</time>
      </trkpt>
      <trkpt lat="44.53337" lon="1.38347">
        <ele>160.8</ele>
        <time>2025-05-29T12:11:34Z</time>
      </trkpt>
      <trkpt lat="44.53341" lon="1.38346">
        <ele>161</ele>
        <time>2025-05-29T12:11:35Z</time>
      </trkpt>
      <trkpt lat="44.53344" lon="1.38344">
        <ele>161</ele>
        <time>2025-05-29T12:11:36Z</time>
      </trkpt>
      <trkpt lat="44.53348" lon="1.38343">
        <ele>161.2</ele>
        <time>2025-05-29T12:11:37Z</time>
      </trkpt>
      <trkpt lat="44.53351" lon="1.38342">
        <ele>161.4</ele>
        <time>2025-05-29T12:11:38Z</time>
      </trkpt>
      <trkpt lat="44.53354" lon="1.38341">
        <ele>161.6</ele>
        <time>2025-05-29T12:11:39Z</time>
      </trkpt>
      <trkpt lat="44.53356" lon="1.38339">
        <ele>161.8</ele>
        <time>2025-05-29T12:11:40Z</time>
      </trkpt>
      <trkpt lat="44.53358" lon="1.38338">
        <ele>162.2</ele>
        <time>2025-05-29T12:11:41Z</time>
      </trkpt>
      <trkpt lat="44.53361" lon="1.38337">
        <ele>162.4</ele>
        <time>2025-05-29T12:11:42Z</time>
      </trkpt>
      <trkpt lat="44.53363" lon="1.38335">
        <ele>162.8</ele>
        <time>2025-05-29T12:11:43Z</time>
      </trkpt>
      <trkpt lat="44.53366" lon="1.38334">
        <ele>163</ele>
        <time>2025-05-29T12:11:44Z</time>
      </trkpt>
      <trkpt lat="44.53368" lon="1.38333">
        <ele>163.4</ele>
        <time>2025-05-29T12:11:45Z</time>
      </trkpt>
      <trkpt lat="44.5337" lon="1.38331">
        <ele>163.6</ele>
        <time>2025-05-29T12:11:46Z</time>
      </trkpt>
      <trkpt lat="44.53373" lon="1.3833">
        <ele>163.6</ele>
        <time>2025-05-29T12:11:47Z</time>
      </trkpt>
      <trkpt lat="44.53375" lon="1.38328">
        <ele>163.8</ele>
        <time>2025-05-29T12:11:48Z</time>
      </trkpt>
      <trkpt lat="44.53377" lon="1.38327">
        <ele>163.8</ele>
        <time>2025-05-29T12:11:49Z</time>
      </trkpt>
      <trkpt lat="44.53379" lon="1.38325">
        <ele>164</ele>
        <time>2025-05-29T12:11:50Z</time>
      </trkpt>
      <trkpt lat="44.53382" lon="1.38323">
        <ele>164</ele>
        <time>2025-05-29T12:11:51Z</time>
      </trkpt>
      <trkpt lat="44.53384" lon="1.3832">
        <ele>164.2</ele>
        <time>2025-05-29T12:11:52Z</time>
      </trkpt>
      <trkpt lat="44.53387" lon="1.38318">
        <ele>164.2</ele>
        <time>2025-05-29T12:11:53Z</time>
      </trkpt>
      <trkpt lat="44.5339" lon="1.38315">
        <ele>164.2</ele>
        <time>2025-05-29T12:11:54Z</time>
      </trkpt>
      <trkpt lat="44.53393" lon="1.38313">
        <ele>164.2</ele>
        <time>2025-05-29T12:11:55Z</time>
      </trkpt>
      <trkpt lat="44.53395" lon="1.3831">
        <ele>164</ele>
        <time>2025-05-29T12:11:56Z</time>
      </trkpt>
      <trkpt lat="44.53397" lon="1.38307">
        <ele>164</ele>
        <time>2025-05-29T12:11:57Z</time>
      </trkpt>
      <trkpt lat="44.534" lon="1.38304">
        <ele>164</ele>
        <time>2025-05-29T12:11:58Z</time>
      </trkpt>
      <trkpt lat="44.53402" lon="1.38302">
        <ele>164</ele>
        <time>2025-05-29T12:11:59Z</time>
      </trkpt>
      <trkpt lat="44.53405" lon="1.38299">
        <ele>164</ele>
        <time>2025-05-29T12:12:00Z</time>
      </trkpt>
      <trkpt lat="44.53407" lon="1.38296">
        <ele>164</ele>
        <time>2025-05-29T12:12:01Z</time>
      </trkpt>
      <trkpt lat="44.5341" lon="1.38293">
        <ele>164</ele>
        <time>2025-05-29T12:12:02Z</time>
      </trkpt>
      <trkpt lat="44.53412" lon="1.3829">
        <ele>164</ele>
        <time>2025-05-29T12:12:03Z</time>
      </trkpt>
      <trkpt lat="44.53415" lon="1.38287">
        <ele>164</ele>
        <time>2025-05-29T12:12:04Z</time>
      </trkpt>
      <trkpt lat="44.53417" lon="1.38284">
        <ele>164</ele>
        <time>2025-05-29T12:12:05Z</time>
      </trkpt>
      <trkpt lat="44.53419" lon="1.38283">
        <ele>164</ele>
        <time>2025-05-29T12:12:06Z</time>
      </trkpt>
      <trkpt lat="44.53421" lon="1.3828">
        <ele>164</ele>
        <time>2025-05-29T12:12:07Z</time>
      </trkpt>
      <trkpt lat="44.53423" lon="1.38278">
        <ele>164</ele>
        <time>2025-05-29T12:12:08Z</time>
      </trkpt>
      <trkpt lat="44.53425" lon="1.38275">
        <ele>164.2</ele>
        <time>2025-05-29T12:12:09Z</time>
      </trkpt>
      <trkpt lat="44.53428" lon="1.38273">
        <ele>164.4</ele>
        <time>2025-05-29T12:12:10Z</time>
      </trkpt>
      <trkpt lat="44.5343" lon="1.38271">
        <ele>164.6</ele>
        <time>2025-05-29T12:12:11Z</time>
      </trkpt>
      <trkpt lat="44.53433" lon="1.38269">
        <ele>164.8</ele>
        <time>2025-05-29T12:12:12Z</time>
      </trkpt>
      <trkpt lat="44.53436" lon="1.38267">
        <ele>165</ele>
        <time>2025-05-29T12:12:13Z</time>
      </trkpt>
      <trkpt lat="44.53439" lon="1.38265">
        <ele>165.2</ele>
        <time>2025-05-29T12:12:14Z</time>
      </trkpt>
      <trkpt lat="44.53442" lon="1.38262">
        <ele>165.2</ele>
        <time>2025-05-29T12:12:15Z</time>
      </trkpt>
      <trkpt lat="44.53446" lon="1.38259">
        <ele>165</ele>
        <time>2025-05-29T12:12:16Z</time>
      </trkpt>
      <trkpt lat="44.53448" lon="1.38256">
        <ele>165</ele>
        <time>2025-05-29T12:12:17Z</time>
      </trkpt>
      <trkpt lat="44.53451" lon="1.38253">
        <ele>164.8</ele>
        <time>2025-05-29T12:12:18Z</time>
      </trkpt>
      <trkpt lat="44.53453" lon="1.3825">
        <ele>164.6</ele>
        <time>2025-05-29T12:12:19Z</time>
      </trkpt>
      <trkpt lat="44.53456" lon="1.38247">
        <ele>164.4</ele>
        <time>2025-05-29T12:12:20Z</time>
      </trkpt>
      <trkpt lat="44.53458" lon="1.38243">
        <ele>164.4</ele>
        <time>2025-05-29T12:12:21Z</time>
      </trkpt>
      <trkpt lat="44.53461" lon="1.3824">
        <ele>164.4</ele>
        <time>2025-05-29T12:12:22Z</time>
      </trkpt>
      <trkpt lat="44.53463" lon="1.38237">
        <ele>164.6</ele>
        <time>2025-05-29T12:12:23Z</time>
      </trkpt>
      <trkpt lat="44.53466" lon="1.38235">
        <ele>164.8</ele>
        <time>2025-05-29T12:12:24Z</time>
      </trkpt>
      <trkpt lat="44.53468" lon="1.38232">
        <ele>164.8</ele>
        <time>2025-05-29T12:12:25Z</time>
      </trkpt>
      <trkpt lat="44.53471" lon="1.3823">
        <ele>164.8</ele>
        <time>2025-05-29T12:12:26Z</time>
      </trkpt>
      <trkpt lat="44.53473" lon="1.38229">
        <ele>164.8</ele>
        <time>2025-05-29T12:12:27Z</time>
      </trkpt>
      <trkpt lat="44.53475" lon="1.38227">
        <ele>165</ele>
        <time>2025-05-29T12:12:28Z</time>
      </trkpt>
      <trkpt lat="44.53477" lon="1.38226">
        <ele>165</ele>
        <time>2025-05-29T12:12:29Z</time>
      </trkpt>
      <trkpt lat="44.5348" lon="1.38226">
        <ele>165</ele>
        <time>2025-05-29T12:12:30Z</time>
      </trkpt>
      <trkpt lat="44.53483" lon="1.38225">
        <ele>165</ele>
        <time>2025-05-29T12:12:31Z</time>
      </trkpt>
      <trkpt lat="44.53486" lon="1.38225">
        <ele>165.2</ele>
        <time>2025-05-29T12:12:32Z</time>
      </trkpt>
      <trkpt lat="44.53489" lon="1.38224">
        <ele>165.2</ele>
        <time>2025-05-29T12:12:33Z</time>
      </trkpt>
      <trkpt lat="44.53491" lon="1.38224">
        <ele>165.4</ele>
        <time>2025-05-29T12:12:34Z</time>
      </trkpt>
      <trkpt lat="44.53494" lon="1.38223">
        <ele>165.4</ele>
        <time>2025-05-29T12:12:35Z</time>
      </trkpt>
      <trkpt lat="44.53497" lon="1.38222">
        <ele>165.4</ele>
        <time>2025-05-29T12:12:36Z</time>
      </trkpt>
      <trkpt lat="44.53499" lon="1.38221">
        <ele>165.2</ele>
        <time>2025-05-29T12:12:37Z</time>
      </trkpt>
      <trkpt lat="44.53502" lon="1.38221">
        <ele>165.2</ele>
        <time>2025-05-29T12:12:38Z</time>
      </trkpt>
      <trkpt lat="44.53504" lon="1.3822">
        <ele>165.4</ele>
        <time>2025-05-29T12:12:39Z</time>
      </trkpt>
      <trkpt lat="44.53507" lon="1.38219">
        <ele>165.4</ele>
        <time>2025-05-29T12:12:40Z</time>
      </trkpt>
      <trkpt lat="44.53509" lon="1.38219">
        <ele>165.6</ele>
        <time>2025-05-29T12:12:41Z</time>
      </trkpt>
      <trkpt lat="44.53511" lon="1.38218">
        <ele>165.8</ele>
        <time>2025-05-29T12:12:42Z</time>
      </trkpt>
      <trkpt lat="44.53513" lon="1.38217">
        <ele>166</ele>
        <time>2025-05-29T12:12:43Z</time>
      </trkpt>
      <trkpt lat="44.53515" lon="1.38216">
        <ele>166.2</ele>
        <time>2025-05-29T12:12:44Z</time>
      </trkpt>
      <trkpt lat="44.53517" lon="1.38215">
        <ele>166.4</ele>
        <time>2025-05-29T12:12:45Z</time>
      </trkpt>
      <trkpt lat="44.53518" lon="1.38213">
        <ele>166.4</ele>
        <time>2025-05-29T12:12:46Z</time>
      </trkpt>
      <trkpt lat="44.5352" lon="1.38211">
        <ele>166.6</ele>
        <time>2025-05-29T12:12:47Z</time>
      </trkpt>
      <trkpt lat="44.5352" lon="1.38208">
        <ele>166.6</ele>
        <time>2025-05-29T12:12:48Z</time>
      </trkpt>
      <trkpt lat="44.53519" lon="1.38206">
        <ele>166.8</ele>
        <time>2025-05-29T12:12:49Z</time>
      </trkpt>
      <trkpt lat="44.53518" lon="1.38204">
        <ele>166.8</ele>
        <time>2025-05-29T12:12:50Z</time>
      </trkpt>
      <trkpt lat="44.53518" lon="1.38201">
        <ele>166.6</ele>
        <time>2025-05-29T12:12:51Z</time>
      </trkpt>
      <trkpt lat="44.53518" lon="1.38198">
        <ele>166.6</ele>
        <time>2025-05-29T12:12:52Z</time>
      </trkpt>
      <trkpt lat="44.53518" lon="1.38196">
        <ele>166.8</ele>
        <time>2025-05-29T12:12:53Z</time>
      </trkpt>
      <trkpt lat="44.53518" lon="1.38193">
        <ele>166.8</ele>
        <time>2025-05-29T12:12:54Z</time>
      </trkpt>
      <trkpt lat="44.53519" lon="1.38191">
        <ele>166.8</ele>
        <time>2025-05-29T12:12:55Z</time>
      </trkpt>
      <trkpt lat="44.53519" lon="1.38188">
        <ele>167</ele>
        <time>2025-05-29T12:12:56Z</time>
      </trkpt>
      <trkpt lat="44.5352" lon="1.38185">
        <ele>167</ele>
        <time>2025-05-29T12:12:57Z</time>
      </trkpt>
      <trkpt lat="44.5352" lon="1.38183">
        <ele>167.2</ele>
        <time>2025-05-29T12:12:58Z</time>
      </trkpt>
      <trkpt lat="44.53521" lon="1.3818">
        <ele>167.2</ele>
        <time>2025-05-29T12:12:59Z</time>
      </trkpt>
      <trkpt lat="44.53522" lon="1.38177">
        <ele>167.4</ele>
        <time>2025-05-29T12:13:00Z</time>
      </trkpt>
      <trkpt lat="44.53522" lon="1.38175">
        <ele>167.4</ele>
        <time>2025-05-29T12:13:01Z</time>
      </trkpt>
      <trkpt lat="44.53523" lon="1.38172">
        <ele>167.6</ele>
        <time>2025-05-29T12:13:02Z</time>
      </trkpt>
      <trkpt lat="44.53523" lon="1.3817">
        <ele>167.8</ele>
        <time>2025-05-29T12:13:03Z</time>
      </trkpt>
      <trkpt lat="44.53524" lon="1.38168">
        <ele>168</ele>
        <time>2025-05-29T12:13:04Z</time>
      </trkpt>
      <trkpt lat="44.53524" lon="1.38165">
        <ele>168.2</ele>
        <time>2025-05-29T12:13:05Z</time>
      </trkpt>
      <trkpt lat="44.53525" lon="1.38163">
        <ele>168.4</ele>
        <time>2025-05-29T12:13:06Z</time>
      </trkpt>
      <trkpt lat="44.53526" lon="1.3816">
        <ele>168.6</ele>
        <time>2025-05-29T12:13:07Z</time>
      </trkpt>
      <trkpt lat="44.53526" lon="1.38158">
        <ele>168.6</ele>
        <time>2025-05-29T12:13:08Z</time>
      </trkpt>
      <trkpt lat="44.53527" lon="1.38155">
        <ele>168.8</ele>
        <time>2025-05-29T12:13:09Z</time>
      </trkpt>
      <trkpt lat="44.53528" lon="1.38153">
        <ele>168.8</ele>
        <time>2025-05-29T12:13:10Z</time>
      </trkpt>
      <trkpt lat="44.53529" lon="1.3815">
        <ele>168.8</ele>
        <time>2025-05-29T12:13:11Z</time>
      </trkpt>
      <trkpt lat="44.5353" lon="1.38147">
        <ele>168.8</ele>
        <time>2025-05-29T12:13:12Z</time>
      </trkpt>
      <trkpt lat="44.5353" lon="1.38145">
        <ele>169</ele>
        <time>2025-05-29T12:13:13Z</time>
      </trkpt>
      <trkpt lat="44.53531" lon="1.38142">
        <ele>169</ele>
        <time>2025-05-29T12:13:14Z</time>
      </trkpt>
      <trkpt lat="44.53532" lon="1.38139">
        <ele>169</ele>
        <time>2025-05-29T12:13:15Z</time>
      </trkpt>
      <trkpt lat="44.53533" lon="1.38137">
        <ele>169</ele>
        <time>2025-05-29T12:13:16Z</time>
      </trkpt>
      <trkpt lat="44.53534" lon="1.38134">
        <ele>169.2</ele>
        <time>2025-05-29T12:13:17Z</time>
      </trkpt>
      <trkpt lat="44.53535" lon="1.38131">
        <ele>169.2</ele>
        <time>2025-05-29T12:13:18Z</time>
      </trkpt>
      <trkpt lat="44.53535" lon="1.38129">
        <ele>169.2</ele>
        <time>2025-05-29T12:13:19Z</time>
      </trkpt>
      <trkpt lat="44.53536" lon="1.38126">
        <ele>169.4</ele>
        <time>2025-05-29T12:13:20Z</time>
      </trkpt>
      <trkpt lat="44.53537" lon="1.38123">
        <ele>169.4</ele>
        <time>2025-05-29T12:13:21Z</time>
      </trkpt>
      <trkpt lat="44.53537" lon="1.3812">
        <ele>169.6</ele>
        <time>2025-05-29T12:13:22Z</time>
      </trkpt>
      <trkpt lat="44.53538" lon="1.38117">
        <ele>169.8</ele>
        <time>2025-05-29T12:13:23Z</time>
      </trkpt>
      <trkpt lat="44.53539" lon="1.38115">
        <ele>169.8</ele>
        <time>2025-05-29T12:13:24Z</time>
      </trkpt>
      <trkpt lat="44.53539" lon="1.38112">
        <ele>169.8</ele>
        <time>2025-05-29T12:13:25Z</time>
      </trkpt>
      <trkpt lat="44.5354" lon="1.38109">
        <ele>169.8</ele>
        <time>2025-05-29T12:13:26Z</time>
      </trkpt>
      <trkpt lat="44.53541" lon="1.38106">
        <ele>169.8</ele>
        <time>2025-05-29T12:13:27Z</time>
      </trkpt>
      <trkpt lat="44.53541" lon="1.38103">
        <ele>169.8</ele>
        <time>2025-05-29T12:13:28Z</time>
      </trkpt>
      <trkpt lat="44.53542" lon="1.381">
        <ele>170</ele>
        <time>2025-05-29T12:13:29Z</time>
      </trkpt>
      <trkpt lat="44.53543" lon="1.38098">
        <ele>170.2</ele>
        <time>2025-05-29T12:13:30Z</time>
      </trkpt>
      <trkpt lat="44.53543" lon="1.38095">
        <ele>170.2</ele>
        <time>2025-05-29T12:13:31Z</time>
      </trkpt>
      <trkpt lat="44.53544" lon="1.38092">
        <ele>170.4</ele>
        <time>2025-05-29T12:13:32Z</time>
      </trkpt>
      <trkpt lat="44.53544" lon="1.3809">
        <ele>170.6</ele>
        <time>2025-05-29T12:13:33Z</time>
      </trkpt>
      <trkpt lat="44.53545" lon="1.38087">
        <ele>170.8</ele>
        <time>2025-05-29T12:13:34Z</time>
      </trkpt>
      <trkpt lat="44.53544" lon="1.38085">
        <ele>171</ele>
        <time>2025-05-29T12:13:35Z</time>
      </trkpt>
      <trkpt lat="44.53545" lon="1.38082">
        <ele>171</ele>
        <time>2025-05-29T12:13:36Z</time>
      </trkpt>
      <trkpt lat="44.53545" lon="1.38079">
        <ele>171.2</ele>
        <time>2025-05-29T12:13:37Z</time>
      </trkpt>
      <trkpt lat="44.53545" lon="1.38076">
        <ele>171.2</ele>
        <time>2025-05-29T12:13:38Z</time>
      </trkpt>
      <trkpt lat="44.53546" lon="1.38074">
        <ele>171.2</ele>
        <time>2025-05-29T12:13:39Z</time>
      </trkpt>
      <trkpt lat="44.53547" lon="1.38073">
        <ele>171.4</ele>
        <time>2025-05-29T12:13:40Z</time>
      </trkpt>
      <trkpt lat="44.53548" lon="1.38072">
        <ele>171.6</ele>
        <time>2025-05-29T12:13:41Z</time>
      </trkpt>
      <trkpt lat="44.53549" lon="1.38073">
        <ele>171.6</ele>
        <time>2025-05-29T12:13:42Z</time>
      </trkpt>
      <trkpt lat="44.5355" lon="1.38074">
        <ele>171.8</ele>
        <time>2025-05-29T12:13:43Z</time>
      </trkpt>
      <trkpt lat="44.53551" lon="1.38075">
        <ele>172</ele>
        <time>2025-05-29T12:13:44Z</time>
      </trkpt>
      <trkpt lat="44.53553" lon="1.38076">
        <ele>172</ele>
        <time>2025-05-29T12:13:45Z</time>
      </trkpt>
      <trkpt lat="44.53554" lon="1.38077">
        <ele>172.2</ele>
        <time>2025-05-29T12:13:46Z</time>
      </trkpt>
      <trkpt lat="44.53555" lon="1.38078">
        <ele>172.4</ele>
        <time>2025-05-29T12:13:47Z</time>
      </trkpt>
      <trkpt lat="44.53556" lon="1.38079">
        <ele>172.4</ele>
        <time>2025-05-29T12:13:48Z</time>
      </trkpt>
      <trkpt lat="44.53558" lon="1.3808">
        <ele>172.8</ele>
        <time>2025-05-29T12:13:49Z</time>
      </trkpt>
      <trkpt lat="44.53559" lon="1.38081">
        <ele>173</ele>
        <time>2025-05-29T12:13:50Z</time>
      </trkpt>
      <trkpt lat="44.5356" lon="1.38082">
        <ele>173.2</ele>
        <time>2025-05-29T12:13:51Z</time>
      </trkpt>
      <trkpt lat="44.53562" lon="1.38083">
        <ele>173.4</ele>
        <time>2025-05-29T12:13:52Z</time>
      </trkpt>
      <trkpt lat="44.53563" lon="1.38084">
        <ele>173.6</ele>
        <time>2025-05-29T12:13:53Z</time>
      </trkpt>
      <trkpt lat="44.53565" lon="1.38085">
        <ele>173.8</ele>
        <time>2025-05-29T12:13:54Z</time>
      </trkpt>
      <trkpt lat="44.53566" lon="1.38086">
        <ele>174.2</ele>
        <time>2025-05-29T12:13:55Z</time>
      </trkpt>
      <trkpt lat="44.53567" lon="1.38087">
        <ele>174.4</ele>
        <time>2025-05-29T12:13:56Z</time>
      </trkpt>
      <trkpt lat="44.53569" lon="1.38087">
        <ele>174.4</ele>
        <time>2025-05-29T12:13:57Z</time>
      </trkpt>
      <trkpt lat="44.5357" lon="1.38088">
        <ele>174.6</ele>
        <time>2025-05-29T12:13:58Z</time>
      </trkpt>
      <trkpt lat="44.53571" lon="1.38088">
        <ele>174.8</ele>
        <time>2025-05-29T12:13:59Z</time>
      </trkpt>
      <trkpt lat="44.53573" lon="1.38089">
        <ele>175</ele>
        <time>2025-05-29T12:14:00Z</time>
      </trkpt>
      <trkpt lat="44.53574" lon="1.38089">
        <ele>175.2</ele>
        <time>2025-05-29T12:14:01Z</time>
      </trkpt>
      <trkpt lat="44.53575" lon="1.3809">
        <ele>175.4</ele>
        <time>2025-05-29T12:14:02Z</time>
      </trkpt>
      <trkpt lat="44.53576" lon="1.3809">
        <ele>175.6</ele>
        <time>2025-05-29T12:14:03Z</time>
      </trkpt>
      <trkpt lat="44.53578" lon="1.3809">
        <ele>175.8</ele>
        <time>2025-05-29T12:14:04Z</time>
      </trkpt>
      <trkpt lat="44.53579" lon="1.3809">
        <ele>176</ele>
        <time>2025-05-29T12:14:05Z</time>
      </trkpt>
      <trkpt lat="44.53581" lon="1.3809">
        <ele>176.2</ele>
        <time>2025-05-29T12:14:06Z</time>
      </trkpt>
      <trkpt lat="44.53582" lon="1.3809">
        <ele>176.2</ele>
        <time>2025-05-29T12:14:07Z</time>
      </trkpt>
      <trkpt lat="44.53584" lon="1.38091">
        <ele>176.4</ele>
        <time>2025-05-29T12:14:08Z</time>
      </trkpt>
      <trkpt lat="44.53585" lon="1.38091">
        <ele>176.6</ele>
        <time>2025-05-29T12:14:09Z</time>
      </trkpt>
      <trkpt lat="44.53587" lon="1.38092">
        <ele>176.6</ele>
        <time>2025-05-29T12:14:10Z</time>
      </trkpt>
      <trkpt lat="44.53589" lon="1.38092">
        <ele>176.8</ele>
        <time>2025-05-29T12:14:11Z</time>
      </trkpt>
      <trkpt lat="44.5359" lon="1.38092">
        <ele>177</ele>
        <time>2025-05-29T12:14:12Z</time>
      </trkpt>
      <trkpt lat="44.53591" lon="1.38092">
        <ele>177.2</ele>
        <time>2025-05-29T12:14:13Z</time>
      </trkpt>
      <trkpt lat="44.53593" lon="1.38092">
        <ele>177.4</ele>
        <time>2025-05-29T12:14:14Z</time>
      </trkpt>
      <trkpt lat="44.53594" lon="1.38092">
        <ele>177.6</ele>
        <time>2025-05-29T12:14:15Z</time>
      </trkpt>
      <trkpt lat="44.53596" lon="1.38093">
        <ele>177.8</ele>
        <time>2025-05-29T12:14:16Z</time>
      </trkpt>
      <trkpt lat="44.53598" lon="1.38093">
        <ele>177.8</ele>
        <time>2025-05-29T12:14:17Z</time>
      </trkpt>
      <trkpt lat="44.53599" lon="1.38093">
        <ele>177.8</ele>
        <time>2025-05-29T12:14:18Z</time>
      </trkpt>
      <trkpt lat="44.536" lon="1.38093">
        <ele>177.8</ele>
        <time>2025-05-29T12:14:19Z</time>
      </trkpt>
      <trkpt lat="44.53602" lon="1.38093">
        <ele>178</ele>
        <time>2025-05-29T12:14:20Z</time>
      </trkpt>
      <trkpt lat="44.53603" lon="1.38094">
        <ele>178</ele>
        <time>2025-05-29T12:14:21Z</time>
      </trkpt>
      <trkpt lat="44.53605" lon="1.38094">
        <ele>178.2</ele>
        <time>2025-05-29T12:14:22Z</time>
      </trkpt>
      <trkpt lat="44.53607" lon="1.38094">
        <ele>178.2</ele>
        <time>2025-05-29T12:14:23Z</time>
      </trkpt>
      <trkpt lat="44.53609" lon="1.38095">
        <ele>178.4</ele>
        <time>2025-05-29T12:14:24Z</time>
      </trkpt>
      <trkpt lat="44.53611" lon="1.38095">
        <ele>178.4</ele>
        <time>2025-05-29T12:14:25Z</time>
      </trkpt>
      <trkpt lat="44.53613" lon="1.38095">
        <ele>178.4</ele>
        <time>2025-05-29T12:14:26Z</time>
      </trkpt>
      <trkpt lat="44.53614" lon="1.38095">
        <ele>178.4</ele>
        <time>2025-05-29T12:14:27Z</time>
      </trkpt>
      <trkpt lat="44.53616" lon="1.38095">
        <ele>178.4</ele>
        <time>2025-05-29T12:14:28Z</time>
      </trkpt>
      <trkpt lat="44.53617" lon="1.38095">
        <ele>178.4</ele>
        <time>2025-05-29T12:14:29Z</time>
      </trkpt>
      <trkpt lat="44.53619" lon="1.38095">
        <ele>178.4</ele>
        <time>2025-05-29T12:14:30Z</time>
      </trkpt>
      <trkpt lat="44.53621" lon="1.38096">
        <ele>178.6</ele>
        <time>2025-05-29T12:14:31Z</time>
      </trkpt>
      <trkpt lat="44.53623" lon="1.38096">
        <ele>178.6</ele>
        <time>2025-05-29T12:14:32Z</time>
      </trkpt>
      <trkpt lat="44.53624" lon="1.38096">
        <ele>178.6</ele>
        <time>2025-05-29T12:14:33Z</time>
      </trkpt>
      <trkpt lat="44.53626" lon="1.38096">
        <ele>178.8</ele>
        <time>2025-05-29T12:14:34Z</time>
      </trkpt>
      <trkpt lat="44.53628" lon="1.38096">
        <ele>178.8</ele>
        <time>2025-05-29T12:14:35Z</time>
      </trkpt>
      <trkpt lat="44.53629" lon="1.38097">
        <ele>178.8</ele>
        <time>2025-05-29T12:14:36Z</time>
      </trkpt>
      <trkpt lat="44.53631" lon="1.38097">
        <ele>179</ele>
        <time>2025-05-29T12:14:37Z</time>
      </trkpt>
      <trkpt lat="44.53633" lon="1.38098">
        <ele>179</ele>
        <time>2025-05-29T12:14:38Z</time>
      </trkpt>
      <trkpt lat="44.53634" lon="1.38098">
        <ele>179</ele>
        <time>2025-05-29T12:14:39Z</time>
      </trkpt>
      <trkpt lat="44.53635" lon="1.38099">
        <ele>179</ele>
        <time>2025-05-29T12:14:40Z</time>
      </trkpt>
      <trkpt lat="44.53637" lon="1.381">
        <ele>179</ele>
        <time>2025-05-29T12:14:41Z</time>
      </trkpt>
      <trkpt lat="44.53639" lon="1.381">
        <ele>179</ele>
        <time>2025-05-29T12:14:42Z</time>
      </trkpt>
      <trkpt lat="44.5364" lon="1.38101">
        <ele>179</ele>
        <time>2025-05-29T12:14:43Z</time>
      </trkpt>
      <trkpt lat="44.53641" lon="1.38102">
        <ele>179</ele>
        <time>2025-05-29T12:14:44Z</time>
      </trkpt>
      <trkpt lat="44.53643" lon="1.38103">
        <ele>179</ele>
        <time>2025-05-29T12:14:45Z</time>
      </trkpt>
      <trkpt lat="44.53644" lon="1.38104">
        <ele>179</ele>
        <time>2025-05-29T12:14:46Z</time>
      </trkpt>
      <trkpt lat="44.53646" lon="1.38105">
        <ele>179.2</ele>
        <time>2025-05-29T12:14:47Z</time>
      </trkpt>
      <trkpt lat="44.53649" lon="1.38106">
        <ele>179.2</ele>
        <time>2025-05-29T12:14:48Z</time>
      </trkpt>
      <trkpt lat="44.53652" lon="1.38108">
        <ele>179.2</ele>
        <time>2025-05-29T12:14:49Z</time>
      </trkpt>
      <trkpt lat="44.53655" lon="1.38111">
        <ele>179.2</ele>
        <time>2025-05-29T12:14:50Z</time>
      </trkpt>
      <trkpt lat="44.5366" lon="1.38113">
        <ele>179</ele>
        <time>2025-05-29T12:14:51Z</time>
      </trkpt>
      <trkpt lat="44.53665" lon="1.38115">
        <ele>178.6</ele>
        <time>2025-05-29T12:14:52Z</time>
      </trkpt>
      <trkpt lat="44.53672" lon="1.38117">
        <ele>178.2</ele>
        <time>2025-05-29T12:14:53Z</time>
      </trkpt>
      <trkpt lat="44.53678" lon="1.38117">
        <ele>177.8</ele>
        <time>2025-05-29T12:14:54Z</time>
      </trkpt>
      <trkpt lat="44.53684" lon="1.38117">
        <ele>177.4</ele>
        <time>2025-05-29T12:14:55Z</time>
      </trkpt>
      <trkpt lat="44.5369" lon="1.38116">
        <ele>177.2</ele>
        <time>2025-05-29T12:14:56Z</time>
      </trkpt>
      <trkpt lat="44.53695" lon="1.38115">
        <ele>177.2</ele>
        <time>2025-05-29T12:14:57Z</time>
      </trkpt>
      <trkpt lat="44.53699" lon="1.38112">
        <ele>177.6</ele>
        <time>2025-05-29T12:14:58Z</time>
      </trkpt>
      <trkpt lat="44.53703" lon="1.38111">
        <ele>177.8</ele>
        <time>2025-05-29T12:14:59Z</time>
      </trkpt>
      <trkpt lat="44.53707" lon="1.38109">
        <ele>178.2</ele>
        <time>2025-05-29T12:15:00Z</time>
      </trkpt>
      <trkpt lat="44.53711" lon="1.38106">
        <ele>178.6</ele>
        <time>2025-05-29T12:15:01Z</time>
      </trkpt>
      <trkpt lat="44.53715" lon="1.38104">
        <ele>179</ele>
        <time>2025-05-29T12:15:02Z</time>
      </trkpt>
      <trkpt lat="44.53718" lon="1.38102">
        <ele>179.2</ele>
        <time>2025-05-29T12:15:03Z</time>
      </trkpt>
      <trkpt lat="44.53721" lon="1.38099">
        <ele>179.8</ele>
        <time>2025-05-29T12:15:04Z</time>
      </trkpt>
      <trkpt lat="44.53724" lon="1.38097">
        <ele>180</ele>
        <time>2025-05-29T12:15:05Z</time>
      </trkpt>
      <trkpt lat="44.53726" lon="1.38096">
        <ele>180.4</ele>
        <time>2025-05-29T12:15:06Z</time>
      </trkpt>
      <trkpt lat="44.53727" lon="1.38094">
        <ele>180.8</ele>
        <time>2025-05-29T12:15:07Z</time>
      </trkpt>
      <trkpt lat="44.53729" lon="1.38093">
        <ele>181</ele>
        <time>2025-05-29T12:15:08Z</time>
      </trkpt>
      <trkpt lat="44.5373" lon="1.38092">
        <ele>181.4</ele>
        <time>2025-05-29T12:15:09Z</time>
      </trkpt>
      <trkpt lat="44.53731" lon="1.38091">
        <ele>181.6</ele>
        <time>2025-05-29T12:15:10Z</time>
      </trkpt>
      <trkpt lat="44.53733" lon="1.3809">
        <ele>181.8</ele>
        <time>2025-05-29T12:15:11Z</time>
      </trkpt>
      <trkpt lat="44.53734" lon="1.38089">
        <ele>182</ele>
        <time>2025-05-29T12:15:12Z</time>
      </trkpt>
      <trkpt lat="44.53736" lon="1.38088">
        <ele>182.2</ele>
        <time>2025-05-29T12:15:13Z</time>
      </trkpt>
      <trkpt lat="44.53738" lon="1.38087">
        <ele>182.4</ele>
        <time>2025-05-29T12:15:14Z</time>
      </trkpt>
      <trkpt lat="44.53739" lon="1.38086">
        <ele>182.6</ele>
        <time>2025-05-29T12:15:15Z</time>
      </trkpt>
      <trkpt lat="44.5374" lon="1.38085">
        <ele>182.8</ele>
        <time>2025-05-29T12:15:16Z</time>
      </trkpt>
      <trkpt lat="44.53741" lon="1.38084">
        <ele>183.2</ele>
        <time>2025-05-29T12:15:17Z</time>
      </trkpt>
      <trkpt lat="44.53742" lon="1.38083">
        <ele>183.4</ele>
        <time>2025-05-29T12:15:18Z</time>
      </trkpt>
      <trkpt lat="44.53744" lon="1.38083">
        <ele>183.6</ele>
        <time>2025-05-29T12:15:19Z</time>
      </trkpt>
      <trkpt lat="44.53745" lon="1.38082">
        <ele>183.8</ele>
        <time>2025-05-29T12:15:20Z</time>
      </trkpt>
      <trkpt lat="44.53747" lon="1.38082">
        <ele>184</ele>
        <time>2025-05-29T12:15:21Z</time>
      </trkpt>
      <trkpt lat="44.53749" lon="1.38081">
        <ele>184.2</ele>
        <time>2025-05-29T12:15:22Z</time>
      </trkpt>
      <trkpt lat="44.5375" lon="1.38079">
        <ele>184.4</ele>
        <time>2025-05-29T12:15:23Z</time>
      </trkpt>
      <trkpt lat="44.53752" lon="1.38078">
        <ele>184.6</ele>
        <time>2025-05-29T12:15:24Z</time>
      </trkpt>
      <trkpt lat="44.53753" lon="1.38077">
        <ele>184.8</ele>
        <time>2025-05-29T12:15:25Z</time>
      </trkpt>
      <trkpt lat="44.53754" lon="1.38076">
        <ele>184.8</ele>
        <time>2025-05-29T12:15:26Z</time>
      </trkpt>
      <trkpt lat="44.53755" lon="1.38075">
        <ele>185</ele>
        <time>2025-05-29T12:15:27Z</time>
      </trkpt>
      <trkpt lat="44.53756" lon="1.38074">
        <ele>185.2</ele>
        <time>2025-05-29T12:15:28Z</time>
      </trkpt>
      <trkpt lat="44.53757" lon="1.38073">
        <ele>185.2</ele>
        <time>2025-05-29T12:15:29Z</time>
      </trkpt>
      <trkpt lat="44.53758" lon="1.38071">
        <ele>185.2</ele>
        <time>2025-05-29T12:15:30Z</time>
      </trkpt>
      <trkpt lat="44.53759" lon="1.3807">
        <ele>185.4</ele>
        <time>2025-05-29T12:15:31Z</time>
      </trkpt>
      <trkpt lat="44.5376" lon="1.38068">
        <ele>185.4</ele>
        <time>2025-05-29T12:15:32Z</time>
      </trkpt>
      <trkpt lat="44.53761" lon="1.38067">
        <ele>185.6</ele>
        <time>2025-05-29T12:15:33Z</time>
      </trkpt>
      <trkpt lat="44.53763" lon="1.38066">
        <ele>185.6</ele>
        <time>2025-05-29T12:15:34Z</time>
      </trkpt>
      <trkpt lat="44.53764" lon="1.38064">
        <ele>185.8</ele>
        <time>2025-05-29T12:15:35Z</time>
      </trkpt>
      <trkpt lat="44.53765" lon="1.38062">
        <ele>186</ele>
        <time>2025-05-29T12:15:36Z</time>
      </trkpt>
      <trkpt lat="44.53765" lon="1.3806">
        <ele>186.2</ele>
        <time>2025-05-29T12:15:37Z</time>
      </trkpt>
      <trkpt lat="44.53766" lon="1.38059">
        <ele>186.2</ele>
        <time>2025-05-29T12:15:38Z</time>
      </trkpt>
      <trkpt lat="44.53767" lon="1.38058">
        <ele>186.4</ele>
        <time>2025-05-29T12:15:39Z</time>
      </trkpt>
      <trkpt lat="44.53768" lon="1.38057">
        <ele>186.4</ele>
        <time>2025-05-29T12:15:40Z</time>
      </trkpt>
      <trkpt lat="44.53769" lon="1.38055">
        <ele>186.6</ele>
        <time>2025-05-29T12:15:41Z</time>
      </trkpt>
      <trkpt lat="44.53769" lon="1.38054">
        <ele>187</ele>
        <time>2025-05-29T12:15:42Z</time>
      </trkpt>
      <trkpt lat="44.5377" lon="1.38052">
        <ele>187.2</ele>
        <time>2025-05-29T12:15:43Z</time>
      </trkpt>
      <trkpt lat="44.53771" lon="1.38051">
        <ele>187.6</ele>
        <time>2025-05-29T12:15:44Z</time>
      </trkpt>
      <trkpt lat="44.53772" lon="1.3805">
        <ele>187.8</ele>
        <time>2025-05-29T12:15:45Z</time>
      </trkpt>
      <trkpt lat="44.53773" lon="1.38049">
        <ele>188.2</ele>
        <time>2025-05-29T12:15:46Z</time>
      </trkpt>
      <trkpt lat="44.53774" lon="1.38047">
        <ele>188.4</ele>
        <time>2025-05-29T12:15:47Z</time>
      </trkpt>
      <trkpt lat="44.53775" lon="1.38046">
        <ele>188.4</ele>
        <time>2025-05-29T12:15:48Z</time>
      </trkpt>
      <trkpt lat="44.53776" lon="1.38044">
        <ele>188.6</ele>
        <time>2025-05-29T12:15:49Z</time>
      </trkpt>
      <trkpt lat="44.53777" lon="1.38042">
        <ele>188.8</ele>
        <time>2025-05-29T12:15:50Z</time>
      </trkpt>
      <trkpt lat="44.53778" lon="1.3804">
        <ele>188.8</ele>
        <time>2025-05-29T12:15:51Z</time>
      </trkpt>
      <trkpt lat="44.53778" lon="1.38039">
        <ele>189</ele>
        <time>2025-05-29T12:15:52Z</time>
      </trkpt>
      <trkpt lat="44.53779" lon="1.38037">
        <ele>189.2</ele>
        <time>2025-05-29T12:15:53Z</time>
      </trkpt>
      <trkpt lat="44.5378" lon="1.38036">
        <ele>189.4</ele>
        <time>2025-05-29T12:15:54Z</time>
      </trkpt>
      <trkpt lat="44.53781" lon="1.38035">
        <ele>189.6</ele>
        <time>2025-05-29T12:15:55Z</time>
      </trkpt>
      <trkpt lat="44.53782" lon="1.38033">
        <ele>189.6</ele>
        <time>2025-05-29T12:15:56Z</time>
      </trkpt>
      <trkpt lat="44.53783" lon="1.38031">
        <ele>189.8</ele>
        <time>2025-05-29T12:15:57Z</time>
      </trkpt>
      <trkpt lat="44.53784" lon="1.38029">
        <ele>190</ele>
        <time>2025-05-29T12:15:58Z</time>
      </trkpt>
      <trkpt lat="44.53785" lon="1.38027">
        <ele>190.2</ele>
        <time>2025-05-29T12:15:59Z</time>
      </trkpt>
      <trkpt lat="44.53786" lon="1.38026">
        <ele>190.4</ele>
        <time>2025-05-29T12:16:00Z</time>
      </trkpt>
      <trkpt lat="44.53787" lon="1.38024">
        <ele>190.6</ele>
        <time>2025-05-29T12:16:01Z</time>
      </trkpt>
      <trkpt lat="44.53788" lon="1.38022">
        <ele>190.6</ele>
        <time>2025-05-29T12:16:02Z</time>
      </trkpt>
      <trkpt lat="44.5379" lon="1.3802">
        <ele>190.6</ele>
        <time>2025-05-29T12:16:03Z</time>
      </trkpt>
      <trkpt lat="44.53791" lon="1.38018">
        <ele>190.8</ele>
        <time>2025-05-29T12:16:04Z</time>
      </trkpt>
      <trkpt lat="44.53792" lon="1.38016">
        <ele>191</ele>
        <time>2025-05-29T12:16:05Z</time>
      </trkpt>
      <trkpt lat="44.53793" lon="1.38015">
        <ele>191</ele>
        <time>2025-05-29T12:16:06Z</time>
      </trkpt>
      <trkpt lat="44.53794" lon="1.38013">
        <ele>191.2</ele>
        <time>2025-05-29T12:16:07Z</time>
      </trkpt>
      <trkpt lat="44.53795" lon="1.38011">
        <ele>191.4</ele>
        <time>2025-05-29T12:16:08Z</time>
      </trkpt>
      <trkpt lat="44.53797" lon="1.3801">
        <ele>191.6</ele>
        <time>2025-05-29T12:16:09Z</time>
      </trkpt>
      <trkpt lat="44.53799" lon="1.38009">
        <ele>191.6</ele>
        <time>2025-05-29T12:16:10Z</time>
      </trkpt>
      <trkpt lat="44.538" lon="1.38008">
        <ele>191.6</ele>
        <time>2025-05-29T12:16:11Z</time>
      </trkpt>
      <trkpt lat="44.53802" lon="1.38007">
        <ele>191.6</ele>
        <time>2025-05-29T12:16:12Z</time>
      </trkpt>
      <trkpt lat="44.53804" lon="1.38006">
        <ele>191.6</ele>
        <time>2025-05-29T12:16:13Z</time>
      </trkpt>
      <trkpt lat="44.53806" lon="1.38006">
        <ele>191.4</ele>
        <time>2025-05-29T12:16:14Z</time>
      </trkpt>
      <trkpt lat="44.53809" lon="1.38006">
        <ele>191.2</ele>
        <time>2025-05-29T12:16:15Z</time>
      </trkpt>
      <trkpt lat="44.53812" lon="1.38006">
        <ele>191</ele>
        <time>2025-05-29T12:16:16Z</time>
      </trkpt>
      <trkpt lat="44.53816" lon="1.38005">
        <ele>190.8</ele>
        <time>2025-05-29T12:16:17Z</time>
      </trkpt>
      <trkpt lat="44.53821" lon="1.38004">
        <ele>190.4</ele>
        <time>2025-05-29T12:16:18Z</time>
      </trkpt>
      <trkpt lat="44.53825" lon="1.38003">
        <ele>190.2</ele>
        <time>2025-05-29T12:16:19Z</time>
      </trkpt>
      <trkpt lat="44.53829" lon="1.38002">
        <ele>190</ele>
        <time>2025-05-29T12:16:20Z</time>
      </trkpt>
      <trkpt lat="44.53834" lon="1.38001">
        <ele>189.6</ele>
        <time>2025-05-29T12:16:21Z</time>
      </trkpt>
      <trkpt lat="44.53839" lon="1.38">
        <ele>189.2</ele>
        <time>2025-05-29T12:16:22Z</time>
      </trkpt>
      <trkpt lat="44.53843" lon="1.37998">
        <ele>188.8</ele>
        <time>2025-05-29T12:16:23Z</time>
      </trkpt>
      <trkpt lat="44.53846" lon="1.37997">
        <ele>188.4</ele>
        <time>2025-05-29T12:16:24Z</time>
      </trkpt>
      <trkpt lat="44.5385" lon="1.37995">
        <ele>188.2</ele>
        <time>2025-05-29T12:16:25Z</time>
      </trkpt>
      <trkpt lat="44.53854" lon="1.37993">
        <ele>188</ele>
        <time>2025-05-29T12:16:26Z</time>
      </trkpt>
      <trkpt lat="44.53858" lon="1.37993">
        <ele>187.8</ele>
        <time>2025-05-29T12:16:27Z</time>
      </trkpt>
      <trkpt lat="44.5386" lon="1.37995">
        <ele>187.8</ele>
        <time>2025-05-29T12:16:28Z</time>
      </trkpt>
      <trkpt lat="44.53861" lon="1.38">
        <ele>187.6</ele>
        <time>2025-05-29T12:16:29Z</time>
      </trkpt>
      <trkpt lat="44.53861" lon="1.38005">
        <ele>187.4</ele>
        <time>2025-05-29T12:16:30Z</time>
      </trkpt>
      <trkpt lat="44.53861" lon="1.3801">
        <ele>187.4</ele>
        <time>2025-05-29T12:16:31Z</time>
      </trkpt>
      <trkpt lat="44.53861" lon="1.38015">
        <ele>187.2</ele>
        <time>2025-05-29T12:16:32Z</time>
      </trkpt>
      <trkpt lat="44.5386" lon="1.38022">
        <ele>187</ele>
        <time>2025-05-29T12:16:33Z</time>
      </trkpt>
      <trkpt lat="44.5386" lon="1.38028">
        <ele>186.8</ele>
        <time>2025-05-29T12:16:34Z</time>
      </trkpt>
      <trkpt lat="44.5386" lon="1.38035">
        <ele>186.6</ele>
        <time>2025-05-29T12:16:35Z</time>
      </trkpt>
      <trkpt lat="44.53859" lon="1.38041">
        <ele>186.2</ele>
        <time>2025-05-29T12:16:36Z</time>
      </trkpt>
      <trkpt lat="44.53857" lon="1.38046">
        <ele>186</ele>
        <time>2025-05-29T12:16:37Z</time>
      </trkpt>
      <trkpt lat="44.53856" lon="1.3805">
        <ele>186</ele>
        <time>2025-05-29T12:16:38Z</time>
      </trkpt>
      <trkpt lat="44.53856" lon="1.38055">
        <ele>185.8</ele>
        <time>2025-05-29T12:16:39Z</time>
      </trkpt>
      <trkpt lat="44.53857" lon="1.38059">
        <ele>185.8</ele>
        <time>2025-05-29T12:16:40Z</time>
      </trkpt>
      <trkpt lat="44.5386" lon="1.38063">
        <ele>185.6</ele>
        <time>2025-05-29T12:16:41Z</time>
      </trkpt>
      <trkpt lat="44.53864" lon="1.38065">
        <ele>185.6</ele>
        <time>2025-05-29T12:16:42Z</time>
      </trkpt>
      <trkpt lat="44.53867" lon="1.38067">
        <ele>185.4</ele>
        <time>2025-05-29T12:16:43Z</time>
      </trkpt>
      <trkpt lat="44.53871" lon="1.38069">
        <ele>185</ele>
        <time>2025-05-29T12:16:44Z</time>
      </trkpt>
      <trkpt lat="44.53875" lon="1.38069">
        <ele>184.8</ele>
        <time>2025-05-29T12:16:45Z</time>
      </trkpt>
      <trkpt lat="44.53879" lon="1.38067">
        <ele>184.4</ele>
        <time>2025-05-29T12:16:46Z</time>
      </trkpt>
      <trkpt lat="44.53882" lon="1.38063">
        <ele>184</ele>
        <time>2025-05-29T12:16:47Z</time>
      </trkpt>
      <trkpt lat="44.53884" lon="1.38059">
        <ele>183.8</ele>
        <time>2025-05-29T12:16:48Z</time>
      </trkpt>
      <trkpt lat="44.53887" lon="1.38054">
        <ele>183.4</ele>
        <time>2025-05-29T12:16:49Z</time>
      </trkpt>
      <trkpt lat="44.5389" lon="1.3805">
        <ele>183.2</ele>
        <time>2025-05-29T12:16:50Z</time>
      </trkpt>
      <trkpt lat="44.53893" lon="1.38046">
        <ele>183</ele>
        <time>2025-05-29T12:16:51Z</time>
      </trkpt>
      <trkpt lat="44.53896" lon="1.38042">
        <ele>182.8</ele>
        <time>2025-05-29T12:16:52Z</time>
      </trkpt>
      <trkpt lat="44.53899" lon="1.38038">
        <ele>182.8</ele>
        <time>2025-05-29T12:16:53Z</time>
      </trkpt>
      <trkpt lat="44.53902" lon="1.38033">
        <ele>182.8</ele>
        <time>2025-05-29T12:16:54Z</time>
      </trkpt>
      <trkpt lat="44.53905" lon="1.3803">
        <ele>182.8</ele>
        <time>2025-05-29T12:16:55Z</time>
      </trkpt>
      <trkpt lat="44.53908" lon="1.38026">
        <ele>182.8</ele>
        <time>2025-05-29T12:16:56Z</time>
      </trkpt>
      <trkpt lat="44.53911" lon="1.38023">
        <ele>182.8</ele>
        <time>2025-05-29T12:16:57Z</time>
      </trkpt>
      <trkpt lat="44.53914" lon="1.3802">
        <ele>182.8</ele>
        <time>2025-05-29T12:16:58Z</time>
      </trkpt>
      <trkpt lat="44.53917" lon="1.38017">
        <ele>182.6</ele>
        <time>2025-05-29T12:16:59Z</time>
      </trkpt>
      <trkpt lat="44.5392" lon="1.38016">
        <ele>182.6</ele>
        <time>2025-05-29T12:17:00Z</time>
      </trkpt>
      <trkpt lat="44.53924" lon="1.38015">
        <ele>182.6</ele>
        <time>2025-05-29T12:17:01Z</time>
      </trkpt>
      <trkpt lat="44.53928" lon="1.38014">
        <ele>182.6</ele>
        <time>2025-05-29T12:17:02Z</time>
      </trkpt>
      <trkpt lat="44.53931" lon="1.38016">
        <ele>182.6</ele>
        <time>2025-05-29T12:17:03Z</time>
      </trkpt>
      <trkpt lat="44.53934" lon="1.38017">
        <ele>182.6</ele>
        <time>2025-05-29T12:17:04Z</time>
      </trkpt>
      <trkpt lat="44.53937" lon="1.38019">
        <ele>182.8</ele>
        <time>2025-05-29T12:17:05Z</time>
      </trkpt>
      <trkpt lat="44.53941" lon="1.38021">
        <ele>182.8</ele>
        <time>2025-05-29T12:17:06Z</time>
      </trkpt>
      <trkpt lat="44.53944" lon="1.38023">
        <ele>183</ele>
        <time>2025-05-29T12:17:07Z</time>
      </trkpt>
      <trkpt lat="44.53947" lon="1.38025">
        <ele>183.4</ele>
        <time>2025-05-29T12:17:08Z</time>
      </trkpt>
      <trkpt lat="44.5395" lon="1.38028">
        <ele>183.6</ele>
        <time>2025-05-29T12:17:09Z</time>
      </trkpt>
      <trkpt lat="44.53952" lon="1.3803">
        <ele>183.6</ele>
        <time>2025-05-29T12:17:10Z</time>
      </trkpt>
      <trkpt lat="44.53955" lon="1.38032">
        <ele>183.8</ele>
        <time>2025-05-29T12:17:11Z</time>
      </trkpt>
      <trkpt lat="44.53958" lon="1.38034">
        <ele>184</ele>
        <time>2025-05-29T12:17:12Z</time>
      </trkpt>
      <trkpt lat="44.5396" lon="1.38036">
        <ele>184.2</ele>
        <time>2025-05-29T12:17:13Z</time>
      </trkpt>
      <trkpt lat="44.53963" lon="1.38039">
        <ele>184.4</ele>
        <time>2025-05-29T12:17:14Z</time>
      </trkpt>
      <trkpt lat="44.53966" lon="1.38042">
        <ele>184.8</ele>
        <time>2025-05-29T12:17:15Z</time>
      </trkpt>
      <trkpt lat="44.53968" lon="1.38046">
        <ele>185</ele>
        <time>2025-05-29T12:17:16Z</time>
      </trkpt>
      <trkpt lat="44.5397" lon="1.38051">
        <ele>185</ele>
        <time>2025-05-29T12:17:17Z</time>
      </trkpt>
      <trkpt lat="44.53972" lon="1.38057">
        <ele>184.8</ele>
        <time>2025-05-29T12:17:18Z</time>
      </trkpt>
      <trkpt lat="44.53973" lon="1.38065">
        <ele>184.4</ele>
        <time>2025-05-29T12:17:19Z</time>
      </trkpt>
      <trkpt lat="44.53974" lon="1.38074">
        <ele>184</ele>
        <time>2025-05-29T12:17:20Z</time>
      </trkpt>
      <trkpt lat="44.53975" lon="1.38082">
        <ele>183.4</ele>
        <time>2025-05-29T12:17:21Z</time>
      </trkpt>
      <trkpt lat="44.53977" lon="1.3809">
        <ele>183</ele>
        <time>2025-05-29T12:17:22Z</time>
      </trkpt>
      <trkpt lat="44.5398" lon="1.38099">
        <ele>182.2</ele>
        <time>2025-05-29T12:17:23Z</time>
      </trkpt>
      <trkpt lat="44.53983" lon="1.38108">
        <ele>181.8</ele>
        <time>2025-05-29T12:17:24Z</time>
      </trkpt>
      <trkpt lat="44.53987" lon="1.38116">
        <ele>181.2</ele>
        <time>2025-05-29T12:17:25Z</time>
      </trkpt>
      <trkpt lat="44.53991" lon="1.38124">
        <ele>180.8</ele>
        <time>2025-05-29T12:17:26Z</time>
      </trkpt>
      <trkpt lat="44.53995" lon="1.3813">
        <ele>180.4</ele>
        <time>2025-05-29T12:17:27Z</time>
      </trkpt>
      <trkpt lat="44.54" lon="1.38135">
        <ele>180</ele>
        <time>2025-05-29T12:17:28Z</time>
      </trkpt>
      <trkpt lat="44.54005" lon="1.38139">
        <ele>179.6</ele>
        <time>2025-05-29T12:17:29Z</time>
      </trkpt>
      <trkpt lat="44.5401" lon="1.38144">
        <ele>179.4</ele>
        <time>2025-05-29T12:17:30Z</time>
      </trkpt>
      <trkpt lat="44.54015" lon="1.38148">
        <ele>179.2</ele>
        <time>2025-05-29T12:17:31Z</time>
      </trkpt>
      <trkpt lat="44.54021" lon="1.38152">
        <ele>179.2</ele>
        <time>2025-05-29T12:17:32Z</time>
      </trkpt>
      <trkpt lat="44.54027" lon="1.38156">
        <ele>179</ele>
        <time>2025-05-29T12:17:33Z</time>
      </trkpt>
      <trkpt lat="44.54033" lon="1.38159">
        <ele>178.8</ele>
        <time>2025-05-29T12:17:34Z</time>
      </trkpt>
      <trkpt lat="44.54039" lon="1.38163">
        <ele>178.6</ele>
        <time>2025-05-29T12:17:35Z</time>
      </trkpt>
      <trkpt lat="44.54045" lon="1.38166">
        <ele>178.4</ele>
        <time>2025-05-29T12:17:36Z</time>
      </trkpt>
      <trkpt lat="44.54051" lon="1.38169">
        <ele>178.2</ele>
        <time>2025-05-29T12:17:37Z</time>
      </trkpt>
      <trkpt lat="44.54057" lon="1.38172">
        <ele>178.2</ele>
        <time>2025-05-29T12:17:38Z</time>
      </trkpt>
      <trkpt lat="44.54063" lon="1.38175">
        <ele>178.2</ele>
        <time>2025-05-29T12:17:39Z</time>
      </trkpt>
      <trkpt lat="44.54069" lon="1.38176">
        <ele>178.2</ele>
        <time>2025-05-29T12:17:40Z</time>
      </trkpt>
      <trkpt lat="44.54075" lon="1.38178">
        <ele>178.2</ele>
        <time>2025-05-29T12:17:41Z</time>
      </trkpt>
      <trkpt lat="44.54081" lon="1.38179">
        <ele>178.2</ele>
        <time>2025-05-29T12:17:42Z</time>
      </trkpt>
      <trkpt lat="44.54086" lon="1.3818">
        <ele>178.2</ele>
        <time>2025-05-29T12:17:43Z</time>
      </trkpt>
      <trkpt lat="44.54091" lon="1.3818">
        <ele>178.2</ele>
        <time>2025-05-29T12:17:44Z</time>
      </trkpt>
      <trkpt lat="44.54096" lon="1.3818">
        <ele>178.2</ele>
        <time>2025-05-29T12:17:45Z</time>
      </trkpt>
      <trkpt lat="44.54102" lon="1.3818">
        <ele>178.2</ele>
        <time>2025-05-29T12:17:46Z</time>
      </trkpt>
      <trkpt lat="44.54107" lon="1.3818">
        <ele>178.2</ele>
        <time>2025-05-29T12:17:47Z</time>
      </trkpt>
      <trkpt lat="44.54112" lon="1.38181">
        <ele>178.2</ele>
        <time>2025-05-29T12:17:48Z</time>
      </trkpt>
      <trkpt lat="44.54116" lon="1.38182">
        <ele>178</ele>
        <time>2025-05-29T12:17:49Z</time>
      </trkpt>
      <trkpt lat="44.54121" lon="1.38183">
        <ele>178</ele>
        <time>2025-05-29T12:17:50Z</time>
      </trkpt>
      <trkpt lat="44.54126" lon="1.38185">
        <ele>178</ele>
        <time>2025-05-29T12:17:51Z</time>
      </trkpt>
      <trkpt lat="44.5413" lon="1.38188">
        <ele>178</ele>
        <time>2025-05-29T12:17:52Z</time>
      </trkpt>
      <trkpt lat="44.54134" lon="1.3819">
        <ele>178.2</ele>
        <time>2025-05-29T12:17:53Z</time>
      </trkpt>
      <trkpt lat="44.54138" lon="1.38192">
        <ele>178.2</ele>
        <time>2025-05-29T12:17:54Z</time>
      </trkpt>
      <trkpt lat="44.54142" lon="1.38194">
        <ele>178.4</ele>
        <time>2025-05-29T12:17:55Z</time>
      </trkpt>
      <trkpt lat="44.54147" lon="1.38196">
        <ele>178.4</ele>
        <time>2025-05-29T12:17:56Z</time>
      </trkpt>
      <trkpt lat="44.54152" lon="1.38198">
        <ele>178.6</ele>
        <time>2025-05-29T12:17:57Z</time>
      </trkpt>
      <trkpt lat="44.54157" lon="1.382">
        <ele>178.6</ele>
        <time>2025-05-29T12:17:58Z</time>
      </trkpt>
      <trkpt lat="44.54161" lon="1.38201">
        <ele>178.6</ele>
        <time>2025-05-29T12:17:59Z</time>
      </trkpt>
      <trkpt lat="44.54166" lon="1.38202">
        <ele>178.6</ele>
        <time>2025-05-29T12:18:00Z</time>
      </trkpt>
      <trkpt lat="44.54171" lon="1.38203">
        <ele>178.4</ele>
        <time>2025-05-29T12:18:01Z</time>
      </trkpt>
      <trkpt lat="44.54175" lon="1.38203">
        <ele>178.4</ele>
        <time>2025-05-29T12:18:02Z</time>
      </trkpt>
      <trkpt lat="44.5418" lon="1.38204">
        <ele>178.2</ele>
        <time>2025-05-29T12:18:03Z</time>
      </trkpt>
      <trkpt lat="44.54185" lon="1.38205">
        <ele>178</ele>
        <time>2025-05-29T12:18:04Z</time>
      </trkpt>
      <trkpt lat="44.54189" lon="1.38205">
        <ele>178</ele>
        <time>2025-05-29T12:18:05Z</time>
      </trkpt>
      <trkpt lat="44.54194" lon="1.38206">
        <ele>178</ele>
        <time>2025-05-29T12:18:06Z</time>
      </trkpt>
      <trkpt lat="44.54199" lon="1.38206">
        <ele>178</ele>
        <time>2025-05-29T12:18:07Z</time>
      </trkpt>
      <trkpt lat="44.54204" lon="1.38207">
        <ele>178.2</ele>
        <time>2025-05-29T12:18:08Z</time>
      </trkpt>
      <trkpt lat="44.54209" lon="1.38208">
        <ele>178.4</ele>
        <time>2025-05-29T12:18:09Z</time>
      </trkpt>
      <trkpt lat="44.54213" lon="1.38209">
        <ele>178.6</ele>
        <time>2025-05-29T12:18:10Z</time>
      </trkpt>
      <trkpt lat="44.54218" lon="1.3821">
        <ele>178.6</ele>
        <time>2025-05-29T12:18:11Z</time>
      </trkpt>
      <trkpt lat="44.54223" lon="1.38211">
        <ele>178.8</ele>
        <time>2025-05-29T12:18:12Z</time>
      </trkpt>
      <trkpt lat="44.54228" lon="1.38212">
        <ele>178.8</ele>
        <time>2025-05-29T12:18:13Z</time>
      </trkpt>
      <trkpt lat="44.54232" lon="1.38212">
        <ele>178.8</ele>
        <time>2025-05-29T12:18:14Z</time>
      </trkpt>
      <trkpt lat="44.54236" lon="1.38212">
        <ele>178.8</ele>
        <time>2025-05-29T12:18:15Z</time>
      </trkpt>
      <trkpt lat="44.5424" lon="1.38213">
        <ele>179</ele>
        <time>2025-05-29T12:18:16Z</time>
      </trkpt>
      <trkpt lat="44.54243" lon="1.38213">
        <ele>179</ele>
        <time>2025-05-29T12:18:17Z</time>
      </trkpt>
      <trkpt lat="44.54246" lon="1.38212">
        <ele>179.2</ele>
        <time>2025-05-29T12:18:18Z</time>
      </trkpt>
      <trkpt lat="44.5425" lon="1.38212">
        <ele>179.6</ele>
        <time>2025-05-29T12:18:19Z</time>
      </trkpt>
      <trkpt lat="44.54253" lon="1.38211">
        <ele>179.8</ele>
        <time>2025-05-29T12:18:20Z</time>
      </trkpt>
      <trkpt lat="44.54257" lon="1.3821">
        <ele>180</ele>
        <time>2025-05-29T12:18:21Z</time>
      </trkpt>
      <trkpt lat="44.5426" lon="1.38209">
        <ele>180.4</ele>
        <time>2025-05-29T12:18:22Z</time>
      </trkpt>
      <trkpt lat="44.54264" lon="1.38209">
        <ele>180.6</ele>
        <time>2025-05-29T12:18:23Z</time>
      </trkpt>
      <trkpt lat="44.54267" lon="1.38208">
        <ele>180.8</ele>
        <time>2025-05-29T12:18:24Z</time>
      </trkpt>
      <trkpt lat="44.54271" lon="1.38207">
        <ele>181</ele>
        <time>2025-05-29T12:18:25Z</time>
      </trkpt>
      <trkpt lat="44.54275" lon="1.38206">
        <ele>181</ele>
        <time>2025-05-29T12:18:26Z</time>
      </trkpt>
      <trkpt lat="44.5428" lon="1.38207">
        <ele>181</ele>
        <time>2025-05-29T12:18:27Z</time>
      </trkpt>
      <trkpt lat="44.54284" lon="1.38206">
        <ele>180.8</ele>
        <time>2025-05-29T12:18:28Z</time>
      </trkpt>
      <trkpt lat="44.54289" lon="1.38206">
        <ele>180.8</ele>
        <time>2025-05-29T12:18:29Z</time>
      </trkpt>
      <trkpt lat="44.54293" lon="1.38206">
        <ele>180.6</ele>
        <time>2025-05-29T12:18:30Z</time>
      </trkpt>
      <trkpt lat="44.54297" lon="1.38205">
        <ele>180.6</ele>
        <time>2025-05-29T12:18:31Z</time>
      </trkpt>
      <trkpt lat="44.54301" lon="1.38206">
        <ele>180.4</ele>
        <time>2025-05-29T12:18:32Z</time>
      </trkpt>
      <trkpt lat="44.54305" lon="1.38206">
        <ele>180.4</ele>
        <time>2025-05-29T12:18:33Z</time>
      </trkpt>
      <trkpt lat="44.5431" lon="1.38207">
        <ele>180.4</ele>
        <time>2025-05-29T12:18:34Z</time>
      </trkpt>
      <trkpt lat="44.54314" lon="1.38207">
        <ele>180.6</ele>
        <time>2025-05-29T12:18:35Z</time>
      </trkpt>
      <trkpt lat="44.54318" lon="1.38208">
        <ele>180.6</ele>
        <time>2025-05-29T12:18:36Z</time>
      </trkpt>
      <trkpt lat="44.54323" lon="1.38209">
        <ele>180.8</ele>
        <time>2025-05-29T12:18:37Z</time>
      </trkpt>
      <trkpt lat="44.54327" lon="1.3821">
        <ele>181</ele>
        <time>2025-05-29T12:18:38Z</time>
      </trkpt>
      <trkpt lat="44.54331" lon="1.38211">
        <ele>181</ele>
        <time>2025-05-29T12:18:39Z</time>
      </trkpt>
      <trkpt lat="44.54335" lon="1.38213">
        <ele>181.2</ele>
        <time>2025-05-29T12:18:40Z</time>
      </trkpt>
      <trkpt lat="44.54339" lon="1.38215">
        <ele>181.2</ele>
        <time>2025-05-29T12:18:41Z</time>
      </trkpt>
      <trkpt lat="44.54343" lon="1.38215">
        <ele>181.2</ele>
        <time>2025-05-29T12:18:42Z</time>
      </trkpt>
      <trkpt lat="44.54347" lon="1.38216">
        <ele>181.4</ele>
        <time>2025-05-29T12:18:43Z</time>
      </trkpt>
      <trkpt lat="44.54351" lon="1.38217">
        <ele>181.6</ele>
        <time>2025-05-29T12:18:44Z</time>
      </trkpt>
      <trkpt lat="44.54356" lon="1.38218">
        <ele>181.6</ele>
        <time>2025-05-29T12:18:45Z</time>
      </trkpt>
      <trkpt lat="44.5436" lon="1.38219">
        <ele>181.8</ele>
        <time>2025-05-29T12:18:46Z</time>
      </trkpt>
      <trkpt lat="44.54365" lon="1.3822">
        <ele>182</ele>
        <time>2025-05-29T12:18:47Z</time>
      </trkpt>
      <trkpt lat="44.54369" lon="1.38221">
        <ele>182.2</ele>
        <time>2025-05-29T12:18:48Z</time>
      </trkpt>
      <trkpt lat="44.54374" lon="1.38221">
        <ele>182.2</ele>
        <time>2025-05-29T12:18:49Z</time>
      </trkpt>
      <trkpt lat="44.54379" lon="1.38222">
        <ele>182.4</ele>
        <time>2025-05-29T12:18:50Z</time>
      </trkpt>
      <trkpt lat="44.54383" lon="1.38221">
        <ele>182.4</ele>
        <time>2025-05-29T12:18:51Z</time>
      </trkpt>
      <trkpt lat="44.54388" lon="1.38221">
        <ele>182.4</ele>
        <time>2025-05-29T12:18:52Z</time>
      </trkpt>
      <trkpt lat="44.54392" lon="1.3822">
        <ele>182.4</ele>
        <time>2025-05-29T12:18:53Z</time>
      </trkpt>
      <trkpt lat="44.54397" lon="1.3822">
        <ele>182.4</ele>
        <time>2025-05-29T12:18:54Z</time>
      </trkpt>
      <trkpt lat="44.54401" lon="1.38219">
        <ele>182.4</ele>
        <time>2025-05-29T12:18:55Z</time>
      </trkpt>
      <trkpt lat="44.54405" lon="1.38219">
        <ele>182.2</ele>
        <time>2025-05-29T12:18:56Z</time>
      </trkpt>
      <trkpt lat="44.54409" lon="1.38218">
        <ele>182.4</ele>
        <time>2025-05-29T12:18:57Z</time>
      </trkpt>
      <trkpt lat="44.54413" lon="1.38217">
        <ele>182.4</ele>
        <time>2025-05-29T12:18:58Z</time>
      </trkpt>
      <trkpt lat="44.54417" lon="1.38216">
        <ele>182.6</ele>
        <time>2025-05-29T12:18:59Z</time>
      </trkpt>
      <trkpt lat="44.54421" lon="1.38215">
        <ele>182.6</ele>
        <time>2025-05-29T12:19:00Z</time>
      </trkpt>
      <trkpt lat="44.54425" lon="1.38214">
        <ele>182.8</ele>
        <time>2025-05-29T12:19:01Z</time>
      </trkpt>
      <trkpt lat="44.54429" lon="1.38213">
        <ele>182.8</ele>
        <time>2025-05-29T12:19:02Z</time>
      </trkpt>
      <trkpt lat="44.54433" lon="1.38212">
        <ele>183</ele>
        <time>2025-05-29T12:19:03Z</time>
      </trkpt>
      <trkpt lat="44.54436" lon="1.38211">
        <ele>183</ele>
        <time>2025-05-29T12:19:04Z</time>
      </trkpt>
      <trkpt lat="44.5444" lon="1.38211">
        <ele>183</ele>
        <time>2025-05-29T12:19:05Z</time>
      </trkpt>
      <trkpt lat="44.54443" lon="1.3821">
        <ele>183.2</ele>
        <time>2025-05-29T12:19:06Z</time>
      </trkpt>
      <trkpt lat="44.54446" lon="1.38209">
        <ele>183.2</ele>
        <time>2025-05-29T12:19:07Z</time>
      </trkpt>
      <trkpt lat="44.54449" lon="1.38207">
        <ele>183.4</ele>
        <time>2025-05-29T12:19:08Z</time>
      </trkpt>
      <trkpt lat="44.5445" lon="1.38204">
        <ele>183.4</ele>
        <time>2025-05-29T12:19:09Z</time>
      </trkpt>
      <trkpt lat="44.54451" lon="1.382">
        <ele>183.6</ele>
        <time>2025-05-29T12:19:10Z</time>
      </trkpt>
      <trkpt lat="44.54451" lon="1.38196">
        <ele>183.8</ele>
        <time>2025-05-29T12:19:11Z</time>
      </trkpt>
      <trkpt lat="44.54452" lon="1.38193">
        <ele>184</ele>
        <time>2025-05-29T12:19:12Z</time>
      </trkpt>
      <trkpt lat="44.54453" lon="1.38189">
        <ele>184.2</ele>
        <time>2025-05-29T12:19:13Z</time>
      </trkpt>
      <trkpt lat="44.54454" lon="1.38185">
        <ele>184.6</ele>
        <time>2025-05-29T12:19:14Z</time>
      </trkpt>
      <trkpt lat="44.54454" lon="1.38182">
        <ele>184.6</ele>
        <time>2025-05-29T12:19:15Z</time>
      </trkpt>
      <trkpt lat="44.54455" lon="1.38177">
        <ele>184.8</ele>
        <time>2025-05-29T12:19:16Z</time>
      </trkpt>
      <trkpt lat="44.54456" lon="1.38173">
        <ele>185</ele>
        <time>2025-05-29T12:19:17Z</time>
      </trkpt>
      <trkpt lat="44.54457" lon="1.38169">
        <ele>185.2</ele>
        <time>2025-05-29T12:19:18Z</time>
      </trkpt>
      <trkpt lat="44.54458" lon="1.38165">
        <ele>185.4</ele>
        <time>2025-05-29T12:19:19Z</time>
      </trkpt>
      <trkpt lat="44.5446" lon="1.38162">
        <ele>185.8</ele>
        <time>2025-05-29T12:19:20Z</time>
      </trkpt>
      <trkpt lat="44.54461" lon="1.38158">
        <ele>186</ele>
        <time>2025-05-29T12:19:21Z</time>
      </trkpt>
      <trkpt lat="44.54462" lon="1.38154">
        <ele>186.2</ele>
        <time>2025-05-29T12:19:22Z</time>
      </trkpt>
      <trkpt lat="44.54463" lon="1.3815">
        <ele>186.4</ele>
        <time>2025-05-29T12:19:23Z</time>
      </trkpt>
      <trkpt lat="44.54464" lon="1.38147">
        <ele>186.4</ele>
        <time>2025-05-29T12:19:24Z</time>
      </trkpt>
      <trkpt lat="44.54466" lon="1.38143">
        <ele>186.6</ele>
        <time>2025-05-29T12:19:25Z</time>
      </trkpt>
      <trkpt lat="44.54467" lon="1.3814">
        <ele>186.8</ele>
        <time>2025-05-29T12:19:26Z</time>
      </trkpt>
      <trkpt lat="44.54468" lon="1.38137">
        <ele>187</ele>
        <time>2025-05-29T12:19:27Z</time>
      </trkpt>
      <trkpt lat="44.54469" lon="1.38133">
        <ele>187</ele>
        <time>2025-05-29T12:19:28Z</time>
      </trkpt>
      <trkpt lat="44.5447" lon="1.3813">
        <ele>187.2</ele>
        <time>2025-05-29T12:19:29Z</time>
      </trkpt>
      <trkpt lat="44.54471" lon="1.38128">
        <ele>187.2</ele>
        <time>2025-05-29T12:19:30Z</time>
      </trkpt>
      <trkpt lat="44.54472" lon="1.38125">
        <ele>187.4</ele>
        <time>2025-05-29T12:19:31Z</time>
      </trkpt>
      <trkpt lat="44.54473" lon="1.38122">
        <ele>187.6</ele>
        <time>2025-05-29T12:19:32Z</time>
      </trkpt>
      <trkpt lat="44.54474" lon="1.38119">
        <ele>187.8</ele>
        <time>2025-05-29T12:19:33Z</time>
      </trkpt>
      <trkpt lat="44.54475" lon="1.38116">
        <ele>187.8</ele>
        <time>2025-05-29T12:19:34Z</time>
      </trkpt>
      <trkpt lat="44.54475" lon="1.38114">
        <ele>188</ele>
        <time>2025-05-29T12:19:35Z</time>
      </trkpt>
      <trkpt lat="44.54476" lon="1.38111">
        <ele>188.2</ele>
        <time>2025-05-29T12:19:36Z</time>
      </trkpt>
      <trkpt lat="44.54477" lon="1.38109">
        <ele>188.4</ele>
        <time>2025-05-29T12:19:37Z</time>
      </trkpt>
      <trkpt lat="44.54479" lon="1.38107">
        <ele>188.6</ele>
        <time>2025-05-29T12:19:38Z</time>
      </trkpt>
      <trkpt lat="44.5448" lon="1.38104">
        <ele>188.6</ele>
        <time>2025-05-29T12:19:39Z</time>
      </trkpt>
      <trkpt lat="44.54481" lon="1.38102">
        <ele>188.8</ele>
        <time>2025-05-29T12:19:40Z</time>
      </trkpt>
      <trkpt lat="44.54482" lon="1.381">
        <ele>188.8</ele>
        <time>2025-05-29T12:19:41Z</time>
      </trkpt>
      <trkpt lat="44.54483" lon="1.38097">
        <ele>189</ele>
        <time>2025-05-29T12:19:42Z</time>
      </trkpt>
      <trkpt lat="44.54485" lon="1.38095">
        <ele>189</ele>
        <time>2025-05-29T12:19:43Z</time>
      </trkpt>
      <trkpt lat="44.54486" lon="1.38092">
        <ele>189.2</ele>
        <time>2025-05-29T12:19:44Z</time>
      </trkpt>
      <trkpt lat="44.54487" lon="1.3809">
        <ele>189.4</ele>
        <time>2025-05-29T12:19:45Z</time>
      </trkpt>
      <trkpt lat="44.54488" lon="1.38088">
        <ele>189.6</ele>
        <time>2025-05-29T12:19:46Z</time>
      </trkpt>
      <trkpt lat="44.5449" lon="1.38085">
        <ele>189.8</ele>
        <time>2025-05-29T12:19:47Z</time>
      </trkpt>
      <trkpt lat="44.54491" lon="1.38082">
        <ele>190</ele>
        <time>2025-05-29T12:19:48Z</time>
      </trkpt>
      <trkpt lat="44.54493" lon="1.3808">
        <ele>190</ele>
        <time>2025-05-29T12:19:49Z</time>
      </trkpt>
      <trkpt lat="44.54495" lon="1.38078">
        <ele>190.2</ele>
        <time>2025-05-29T12:19:50Z</time>
      </trkpt>
      <trkpt lat="44.54497" lon="1.38077">
        <ele>190.4</ele>
        <time>2025-05-29T12:19:51Z</time>
      </trkpt>
      <trkpt lat="44.54499" lon="1.38076">
        <ele>190.4</ele>
        <time>2025-05-29T12:19:52Z</time>
      </trkpt>
      <trkpt lat="44.545" lon="1.38074">
        <ele>190.6</ele>
        <time>2025-05-29T12:19:53Z</time>
      </trkpt>
      <trkpt lat="44.54502" lon="1.38072">
        <ele>190.8</ele>
        <time>2025-05-29T12:19:54Z</time>
      </trkpt>
      <trkpt lat="44.54503" lon="1.3807">
        <ele>190.8</ele>
        <time>2025-05-29T12:19:55Z</time>
      </trkpt>
      <trkpt lat="44.54505" lon="1.38068">
        <ele>191</ele>
        <time>2025-05-29T12:19:56Z</time>
      </trkpt>
      <trkpt lat="44.54506" lon="1.38066">
        <ele>191.2</ele>
        <time>2025-05-29T12:19:57Z</time>
      </trkpt>
      <trkpt lat="44.54507" lon="1.38064">
        <ele>191.4</ele>
        <time>2025-05-29T12:19:58Z</time>
      </trkpt>
      <trkpt lat="44.54509" lon="1.38062">
        <ele>191.6</ele>
        <time>2025-05-29T12:19:59Z</time>
      </trkpt>
      <trkpt lat="44.5451" lon="1.38061">
        <ele>191.8</ele>
        <time>2025-05-29T12:20:00Z</time>
      </trkpt>
      <trkpt lat="44.54511" lon="1.38059">
        <ele>191.8</ele>
        <time>2025-05-29T12:20:01Z</time>
      </trkpt>
      <trkpt lat="44.54512" lon="1.38058">
        <ele>192</ele>
        <time>2025-05-29T12:20:02Z</time>
      </trkpt>
      <trkpt lat="44.54514" lon="1.38056">
        <ele>192.2</ele>
        <time>2025-05-29T12:20:03Z</time>
      </trkpt>
      <trkpt lat="44.54515" lon="1.38054">
        <ele>192.2</ele>
        <time>2025-05-29T12:20:04Z</time>
      </trkpt>
      <trkpt lat="44.54516" lon="1.38052">
        <ele>192.4</ele>
        <time>2025-05-29T12:20:05Z</time>
      </trkpt>
      <trkpt lat="44.54518" lon="1.38049">
        <ele>192.6</ele>
        <time>2025-05-29T12:20:06Z</time>
      </trkpt>
      <trkpt lat="44.54519" lon="1.38046">
        <ele>192.6</ele>
        <time>2025-05-29T12:20:07Z</time>
      </trkpt>
      <trkpt lat="44.5452" lon="1.38044">
        <ele>192.8</ele>
        <time>2025-05-29T12:20:08Z</time>
      </trkpt>
      <trkpt lat="44.54521" lon="1.38042">
        <ele>193</ele>
        <time>2025-05-29T12:20:09Z</time>
      </trkpt>
      <trkpt lat="44.54522" lon="1.3804">
        <ele>193</ele>
        <time>2025-05-29T12:20:10Z</time>
      </trkpt>
      <trkpt lat="44.54523" lon="1.38038">
        <ele>193.2</ele>
        <time>2025-05-29T12:20:11Z</time>
      </trkpt>
      <trkpt lat="44.54524" lon="1.38036">
        <ele>193.2</ele>
        <time>2025-05-29T12:20:12Z</time>
      </trkpt>
      <trkpt lat="44.54525" lon="1.38033">
        <ele>193.4</ele>
        <time>2025-05-29T12:20:13Z</time>
      </trkpt>
      <trkpt lat="44.54526" lon="1.38031">
        <ele>193.4</ele>
        <time>2025-05-29T12:20:14Z</time>
      </trkpt>
      <trkpt lat="44.54527" lon="1.38028">
        <ele>193.4</ele>
        <time>2025-05-29T12:20:15Z</time>
      </trkpt>
      <trkpt lat="44.54528" lon="1.38025">
        <ele>193.6</ele>
        <time>2025-05-29T12:20:16Z</time>
      </trkpt>
      <trkpt lat="44.54528" lon="1.38023">
        <ele>193.6</ele>
        <time>2025-05-29T12:20:17Z</time>
      </trkpt>
      <trkpt lat="44.5453" lon="1.38022">
        <ele>193.8</ele>
        <time>2025-05-29T12:20:18Z</time>
      </trkpt>
      <trkpt lat="44.54531" lon="1.3802">
        <ele>194</ele>
        <time>2025-05-29T12:20:19Z</time>
      </trkpt>
      <trkpt lat="44.54532" lon="1.38018">
        <ele>194.2</ele>
        <time>2025-05-29T12:20:20Z</time>
      </trkpt>
      <trkpt lat="44.54533" lon="1.38016">
        <ele>194.2</ele>
        <time>2025-05-29T12:20:21Z</time>
      </trkpt>
      <trkpt lat="44.54534" lon="1.38014">
        <ele>194.4</ele>
        <time>2025-05-29T12:20:22Z</time>
      </trkpt>
      <trkpt lat="44.54534" lon="1.38013">
        <ele>194.6</ele>
        <time>2025-05-29T12:20:23Z</time>
      </trkpt>
      <trkpt lat="44.54534" lon="1.38014">
        <ele>194.6</ele>
        <time>2025-05-29T12:20:24Z</time>
      </trkpt>
      <trkpt lat="44.54539" lon="1.37997">
        <ele>195.2</ele>
        <time>2025-05-29T12:26:48Z</time>
      </trkpt>
      <trkpt lat="44.5454" lon="1.37995">
        <ele>195.2</ele>
        <time>2025-05-29T12:26:49Z</time>
      </trkpt>
      <trkpt lat="44.5454" lon="1.37992">
        <ele>195.4</ele>
        <time>2025-05-29T12:26:50Z</time>
      </trkpt>
      <trkpt lat="44.54541" lon="1.3799">
        <ele>195.4</ele>
        <time>2025-05-29T12:26:51Z</time>
      </trkpt>
      <trkpt lat="44.54543" lon="1.37989">
        <ele>195.4</ele>
        <time>2025-05-29T12:26:52Z</time>
      </trkpt>
      <trkpt lat="44.54544" lon="1.37988">
        <ele>195.6</ele>
        <time>2025-05-29T12:26:53Z</time>
      </trkpt>
      <trkpt lat="44.54545" lon="1.37986">
        <ele>195.6</ele>
        <time>2025-05-29T12:26:54Z</time>
      </trkpt>
      <trkpt lat="44.54546" lon="1.37983">
        <ele>195.8</ele>
        <time>2025-05-29T12:26:55Z</time>
      </trkpt>
      <trkpt lat="44.54546" lon="1.3798">
        <ele>196</ele>
        <time>2025-05-29T12:26:56Z</time>
      </trkpt>
      <trkpt lat="44.54547" lon="1.37978">
        <ele>196.2</ele>
        <time>2025-05-29T12:26:57Z</time>
      </trkpt>
      <trkpt lat="44.54548" lon="1.37976">
        <ele>196.2</ele>
        <time>2025-05-29T12:26:58Z</time>
      </trkpt>
      <trkpt lat="44.54548" lon="1.37973">
        <ele>196.4</ele>
        <time>2025-05-29T12:26:59Z</time>
      </trkpt>
      <trkpt lat="44.54548" lon="1.37971">
        <ele>196.6</ele>
        <time>2025-05-29T12:27:00Z</time>
      </trkpt>
      <trkpt lat="44.54549" lon="1.37969">
        <ele>196.8</ele>
        <time>2025-05-29T12:27:01Z</time>
      </trkpt>
      <trkpt lat="44.5455" lon="1.37967">
        <ele>197</ele>
        <time>2025-05-29T12:27:02Z</time>
      </trkpt>
      <trkpt lat="44.54551" lon="1.37965">
        <ele>197.2</ele>
        <time>2025-05-29T12:27:03Z</time>
      </trkpt>
      <trkpt lat="44.54552" lon="1.37963">
        <ele>197.4</ele>
        <time>2025-05-29T12:27:04Z</time>
      </trkpt>
      <trkpt lat="44.54553" lon="1.37962">
        <ele>197.6</ele>
        <time>2025-05-29T12:27:05Z</time>
      </trkpt>
      <trkpt lat="44.54554" lon="1.3796">
        <ele>197.6</ele>
        <time>2025-05-29T12:27:06Z</time>
      </trkpt>
      <trkpt lat="44.54555" lon="1.37959">
        <ele>197.8</ele>
        <time>2025-05-29T12:27:07Z</time>
      </trkpt>
      <trkpt lat="44.54556" lon="1.37957">
        <ele>198</ele>
        <time>2025-05-29T12:27:08Z</time>
      </trkpt>
      <trkpt lat="44.54556" lon="1.37956">
        <ele>198</ele>
        <time>2025-05-29T12:27:09Z</time>
      </trkpt>
      <trkpt lat="44.54557" lon="1.37955">
        <ele>198.2</ele>
        <time>2025-05-29T12:27:10Z</time>
      </trkpt>
      <trkpt lat="44.54559" lon="1.37954">
        <ele>198.4</ele>
        <time>2025-05-29T12:27:11Z</time>
      </trkpt>
      <trkpt lat="44.5456" lon="1.37953">
        <ele>198.6</ele>
        <time>2025-05-29T12:27:12Z</time>
      </trkpt>
      <trkpt lat="44.54562" lon="1.37951">
        <ele>198.6</ele>
        <time>2025-05-29T12:27:13Z</time>
      </trkpt>
      <trkpt lat="44.54563" lon="1.3795">
        <ele>198.8</ele>
        <time>2025-05-29T12:27:14Z</time>
      </trkpt>
      <trkpt lat="44.54563" lon="1.37949">
        <ele>199.2</ele>
        <time>2025-05-29T12:27:15Z</time>
      </trkpt>
      <trkpt lat="44.54564" lon="1.37947">
        <ele>199.4</ele>
        <time>2025-05-29T12:27:16Z</time>
      </trkpt>
      <trkpt lat="44.54565" lon="1.37946">
        <ele>199.6</ele>
        <time>2025-05-29T12:27:17Z</time>
      </trkpt>
      <trkpt lat="44.54566" lon="1.37944">
        <ele>199.8</ele>
        <time>2025-05-29T12:27:18Z</time>
      </trkpt>
      <trkpt lat="44.54567" lon="1.37942">
        <ele>200</ele>
        <time>2025-05-29T12:27:19Z</time>
      </trkpt>
      <trkpt lat="44.54568" lon="1.37941">
        <ele>200</ele>
        <time>2025-05-29T12:27:20Z</time>
      </trkpt>
      <trkpt lat="44.54569" lon="1.37939">
        <ele>200.2</ele>
        <time>2025-05-29T12:27:21Z</time>
      </trkpt>
      <trkpt lat="44.5457" lon="1.37938">
        <ele>200.4</ele>
        <time>2025-05-29T12:27:22Z</time>
      </trkpt>
      <trkpt lat="44.54571" lon="1.37937">
        <ele>200.4</ele>
        <time>2025-05-29T12:27:23Z</time>
      </trkpt>
      <trkpt lat="44.54572" lon="1.37937">
        <ele>200.6</ele>
        <time>2025-05-29T12:27:24Z</time>
      </trkpt>
      <trkpt lat="44.54573" lon="1.37937">
        <ele>200.6</ele>
        <time>2025-05-29T12:27:25Z</time>
      </trkpt>
      <trkpt lat="44.54575" lon="1.37936">
        <ele>200.8</ele>
        <time>2025-05-29T12:27:26Z</time>
      </trkpt>
      <trkpt lat="44.54576" lon="1.37935">
        <ele>201</ele>
        <time>2025-05-29T12:27:27Z</time>
      </trkpt>
      <trkpt lat="44.54578" lon="1.37935">
        <ele>201.2</ele>
        <time>2025-05-29T12:27:28Z</time>
      </trkpt>
      <trkpt lat="44.54579" lon="1.37934">
        <ele>201.4</ele>
        <time>2025-05-29T12:27:29Z</time>
      </trkpt>
      <trkpt lat="44.54581" lon="1.37933">
        <ele>201.4</ele>
        <time>2025-05-29T12:27:30Z</time>
      </trkpt>
      <trkpt lat="44.54582" lon="1.37932">
        <ele>201.6</ele>
        <time>2025-05-29T12:27:31Z</time>
      </trkpt>
      <trkpt lat="44.54584" lon="1.37932">
        <ele>201.8</ele>
        <time>2025-05-29T12:27:32Z</time>
      </trkpt>
      <trkpt lat="44.54586" lon="1.37931">
        <ele>202</ele>
        <time>2025-05-29T12:27:33Z</time>
      </trkpt>
      <trkpt lat="44.54587" lon="1.3793">
        <ele>202.2</ele>
        <time>2025-05-29T12:27:34Z</time>
      </trkpt>
      <trkpt lat="44.54588" lon="1.37929">
        <ele>202.4</ele>
        <time>2025-05-29T12:27:35Z</time>
      </trkpt>
      <trkpt lat="44.5459" lon="1.37929">
        <ele>202.6</ele>
        <time>2025-05-29T12:27:36Z</time>
      </trkpt>
      <trkpt lat="44.54591" lon="1.37928">
        <ele>202.8</ele>
        <time>2025-05-29T12:27:37Z</time>
      </trkpt>
      <trkpt lat="44.54592" lon="1.37927">
        <ele>203</ele>
        <time>2025-05-29T12:27:38Z</time>
      </trkpt>
      <trkpt lat="44.54594" lon="1.37926">
        <ele>203.2</ele>
        <time>2025-05-29T12:27:39Z</time>
      </trkpt>
      <trkpt lat="44.54595" lon="1.37925">
        <ele>203.4</ele>
        <time>2025-05-29T12:27:40Z</time>
      </trkpt>
      <trkpt lat="44.54597" lon="1.37924">
        <ele>203.6</ele>
        <time>2025-05-29T12:27:41Z</time>
      </trkpt>
      <trkpt lat="44.54598" lon="1.37924">
        <ele>203.8</ele>
        <time>2025-05-29T12:27:42Z</time>
      </trkpt>
      <trkpt lat="44.54599" lon="1.37924">
        <ele>204</ele>
        <time>2025-05-29T12:27:43Z</time>
      </trkpt>
      <trkpt lat="44.546" lon="1.37924">
        <ele>204.2</ele>
        <time>2025-05-29T12:27:44Z</time>
      </trkpt>
      <trkpt lat="44.54602" lon="1.37923">
        <ele>204.2</ele>
        <time>2025-05-29T12:27:45Z</time>
      </trkpt>
      <trkpt lat="44.54603" lon="1.37922">
        <ele>204.4</ele>
        <time>2025-05-29T12:27:46Z</time>
      </trkpt>
      <trkpt lat="44.54604" lon="1.37921">
        <ele>204.6</ele>
        <time>2025-05-29T12:27:47Z</time>
      </trkpt>
      <trkpt lat="44.54605" lon="1.3792">
        <ele>204.8</ele>
        <time>2025-05-29T12:27:48Z</time>
      </trkpt>
      <trkpt lat="44.54606" lon="1.3792">
        <ele>204.8</ele>
        <time>2025-05-29T12:27:49Z</time>
      </trkpt>
      <trkpt lat="44.54608" lon="1.37919">
        <ele>205</ele>
        <time>2025-05-29T12:27:50Z</time>
      </trkpt>
      <trkpt lat="44.54609" lon="1.37918">
        <ele>205.2</ele>
        <time>2025-05-29T12:27:51Z</time>
      </trkpt>
      <trkpt lat="44.5461" lon="1.37917">
        <ele>205.4</ele>
        <time>2025-05-29T12:27:52Z</time>
      </trkpt>
      <trkpt lat="44.54611" lon="1.37917">
        <ele>205.6</ele>
        <time>2025-05-29T12:27:53Z</time>
      </trkpt>
      <trkpt lat="44.54612" lon="1.37916">
        <ele>205.6</ele>
        <time>2025-05-29T12:27:54Z</time>
      </trkpt>
      <trkpt lat="44.54613" lon="1.37915">
        <ele>205.8</ele>
        <time>2025-05-29T12:27:55Z</time>
      </trkpt>
      <trkpt lat="44.54614" lon="1.37914">
        <ele>206</ele>
        <time>2025-05-29T12:27:56Z</time>
      </trkpt>
      <trkpt lat="44.54616" lon="1.37912">
        <ele>206</ele>
        <time>2025-05-29T12:27:57Z</time>
      </trkpt>
      <trkpt lat="44.54617" lon="1.37911">
        <ele>206.2</ele>
        <time>2025-05-29T12:27:58Z</time>
      </trkpt>
      <trkpt lat="44.54618" lon="1.37911">
        <ele>206.4</ele>
        <time>2025-05-29T12:27:59Z</time>
      </trkpt>
      <trkpt lat="44.5462" lon="1.3791">
        <ele>206.4</ele>
        <time>2025-05-29T12:28:00Z</time>
      </trkpt>
      <trkpt lat="44.54621" lon="1.37909">
        <ele>206.6</ele>
        <time>2025-05-29T12:28:01Z</time>
      </trkpt>
      <trkpt lat="44.54622" lon="1.37909">
        <ele>206.8</ele>
        <time>2025-05-29T12:28:02Z</time>
      </trkpt>
      <trkpt lat="44.54624" lon="1.37908">
        <ele>206.8</ele>
        <time>2025-05-29T12:28:03Z</time>
      </trkpt>
      <trkpt lat="44.54625" lon="1.37907">
        <ele>207</ele>
        <time>2025-05-29T12:28:04Z</time>
      </trkpt>
      <trkpt lat="44.54627" lon="1.37905">
        <ele>207.2</ele>
        <time>2025-05-29T12:28:05Z</time>
      </trkpt>
      <trkpt lat="44.54628" lon="1.37904">
        <ele>207.2</ele>
        <time>2025-05-29T12:28:06Z</time>
      </trkpt>
      <trkpt lat="44.54629" lon="1.37903">
        <ele>207.4</ele>
        <time>2025-05-29T12:28:07Z</time>
      </trkpt>
      <trkpt lat="44.5463" lon="1.37902">
        <ele>207.4</ele>
        <time>2025-05-29T12:28:08Z</time>
      </trkpt>
      <trkpt lat="44.54631" lon="1.37901">
        <ele>207.6</ele>
        <time>2025-05-29T12:28:09Z</time>
      </trkpt>
      <trkpt lat="44.54632" lon="1.37901">
        <ele>207.8</ele>
        <time>2025-05-29T12:28:10Z</time>
      </trkpt>
      <trkpt lat="44.54634" lon="1.37899">
        <ele>207.8</ele>
        <time>2025-05-29T12:28:11Z</time>
      </trkpt>
      <trkpt lat="44.54635" lon="1.37898">
        <ele>208</ele>
        <time>2025-05-29T12:28:12Z</time>
      </trkpt>
      <trkpt lat="44.54636" lon="1.37897">
        <ele>208.2</ele>
        <time>2025-05-29T12:28:13Z</time>
      </trkpt>
      <trkpt lat="44.54638" lon="1.37895">
        <ele>208.2</ele>
        <time>2025-05-29T12:28:14Z</time>
      </trkpt>
      <trkpt lat="44.54639" lon="1.37894">
        <ele>208.2</ele>
        <time>2025-05-29T12:28:15Z</time>
      </trkpt>
      <trkpt lat="44.5464" lon="1.37892">
        <ele>208.4</ele>
        <time>2025-05-29T12:28:16Z</time>
      </trkpt>
      <trkpt lat="44.54641" lon="1.37891">
        <ele>208.4</ele>
        <time>2025-05-29T12:28:17Z</time>
      </trkpt>
      <trkpt lat="44.54642" lon="1.3789">
        <ele>208.6</ele>
        <time>2025-05-29T12:28:18Z</time>
      </trkpt>
      <trkpt lat="44.54643" lon="1.37889">
        <ele>208.8</ele>
        <time>2025-05-29T12:28:19Z</time>
      </trkpt>
      <trkpt lat="44.54644" lon="1.37888">
        <ele>209</ele>
        <time>2025-05-29T12:28:20Z</time>
      </trkpt>
      <trkpt lat="44.54646" lon="1.37886">
        <ele>209.2</ele>
        <time>2025-05-29T12:28:21Z</time>
      </trkpt>
      <trkpt lat="44.54647" lon="1.37885">
        <ele>209.4</ele>
        <time>2025-05-29T12:28:22Z</time>
      </trkpt>
      <trkpt lat="44.54647" lon="1.37884">
        <ele>209.6</ele>
        <time>2025-05-29T12:28:23Z</time>
      </trkpt>
      <trkpt lat="44.54649" lon="1.37882">
        <ele>209.8</ele>
        <time>2025-05-29T12:28:24Z</time>
      </trkpt>
      <trkpt lat="44.5465" lon="1.37881">
        <ele>210.2</ele>
        <time>2025-05-29T12:28:25Z</time>
      </trkpt>
      <trkpt lat="44.54651" lon="1.3788">
        <ele>210.4</ele>
        <time>2025-05-29T12:28:26Z</time>
      </trkpt>
      <trkpt lat="44.54651" lon="1.37878">
        <ele>210.6</ele>
        <time>2025-05-29T12:28:27Z</time>
      </trkpt>
      <trkpt lat="44.54653" lon="1.37877">
        <ele>210.8</ele>
        <time>2025-05-29T12:28:28Z</time>
      </trkpt>
      <trkpt lat="44.54654" lon="1.37876">
        <ele>211</ele>
        <time>2025-05-29T12:28:29Z</time>
      </trkpt>
      <trkpt lat="44.54654" lon="1.37874">
        <ele>211.2</ele>
        <time>2025-05-29T12:28:30Z</time>
      </trkpt>
      <trkpt lat="44.54655" lon="1.37872">
        <ele>211.4</ele>
        <time>2025-05-29T12:28:31Z</time>
      </trkpt>
      <trkpt lat="44.54656" lon="1.37871">
        <ele>211.6</ele>
        <time>2025-05-29T12:28:32Z</time>
      </trkpt>
      <trkpt lat="44.54656" lon="1.37869">
        <ele>211.8</ele>
        <time>2025-05-29T12:28:33Z</time>
      </trkpt>
      <trkpt lat="44.54657" lon="1.37867">
        <ele>212</ele>
        <time>2025-05-29T12:28:34Z</time>
      </trkpt>
      <trkpt lat="44.54657" lon="1.37866">
        <ele>212</ele>
        <time>2025-05-29T12:28:35Z</time>
      </trkpt>
      <trkpt lat="44.54658" lon="1.37863">
        <ele>212.4</ele>
        <time>2025-05-29T12:28:36Z</time>
      </trkpt>
      <trkpt lat="44.54658" lon="1.37862">
        <ele>212.6</ele>
        <time>2025-05-29T12:28:37Z</time>
      </trkpt>
      <trkpt lat="44.54659" lon="1.3786">
        <ele>212.8</ele>
        <time>2025-05-29T12:28:38Z</time>
      </trkpt>
      <trkpt lat="44.54659" lon="1.37859">
        <ele>213</ele>
        <time>2025-05-29T12:28:39Z</time>
      </trkpt>
      <trkpt lat="44.5466" lon="1.37858">
        <ele>213.2</ele>
        <time>2025-05-29T12:28:40Z</time>
      </trkpt>
      <trkpt lat="44.54661" lon="1.37857">
        <ele>213.6</ele>
        <time>2025-05-29T12:28:41Z</time>
      </trkpt>
      <trkpt lat="44.54662" lon="1.37855">
        <ele>214</ele>
        <time>2025-05-29T12:28:42Z</time>
      </trkpt>
      <trkpt lat="44.54663" lon="1.37853">
        <ele>214.2</ele>
        <time>2025-05-29T12:28:43Z</time>
      </trkpt>
      <trkpt lat="44.54664" lon="1.37852">
        <ele>214.4</ele>
        <time>2025-05-29T12:28:44Z</time>
      </trkpt>
      <trkpt lat="44.54664" lon="1.37851">
        <ele>214.6</ele>
        <time>2025-05-29T12:28:45Z</time>
      </trkpt>
      <trkpt lat="44.54665" lon="1.37849">
        <ele>215</ele>
        <time>2025-05-29T12:28:46Z</time>
      </trkpt>
      <trkpt lat="44.54665" lon="1.37848">
        <ele>215.2</ele>
        <time>2025-05-29T12:28:47Z</time>
      </trkpt>
      <trkpt lat="44.54666" lon="1.37847">
        <ele>215.4</ele>
        <time>2025-05-29T12:28:48Z</time>
      </trkpt>
      <trkpt lat="44.54666" lon="1.37846">
        <ele>215.6</ele>
        <time>2025-05-29T12:28:49Z</time>
      </trkpt>
      <trkpt lat="44.54666" lon="1.37844">
        <ele>215.8</ele>
        <time>2025-05-29T12:28:50Z</time>
      </trkpt>
      <trkpt lat="44.54667" lon="1.37842">
        <ele>216</ele>
        <time>2025-05-29T12:28:51Z</time>
      </trkpt>
      <trkpt lat="44.54667" lon="1.3784">
        <ele>216.2</ele>
        <time>2025-05-29T12:28:52Z</time>
      </trkpt>
      <trkpt lat="44.54667" lon="1.37839">
        <ele>216.2</ele>
        <time>2025-05-29T12:28:53Z</time>
      </trkpt>
      <trkpt lat="44.54667" lon="1.37837">
        <ele>216.4</ele>
        <time>2025-05-29T12:28:54Z</time>
      </trkpt>
      <trkpt lat="44.54668" lon="1.37835">
        <ele>216.6</ele>
        <time>2025-05-29T12:28:55Z</time>
      </trkpt>
      <trkpt lat="44.54668" lon="1.37833">
        <ele>216.8</ele>
        <time>2025-05-29T12:28:56Z</time>
      </trkpt>
      <trkpt lat="44.54669" lon="1.37832">
        <ele>217</ele>
        <time>2025-05-29T12:28:57Z</time>
      </trkpt>
      <trkpt lat="44.54669" lon="1.3783">
        <ele>217.2</ele>
        <time>2025-05-29T12:28:58Z</time>
      </trkpt>
      <trkpt lat="44.54669" lon="1.37828">
        <ele>217.4</ele>
        <time>2025-05-29T12:28:59Z</time>
      </trkpt>
      <trkpt lat="44.54668" lon="1.37826">
        <ele>217.6</ele>
        <time>2025-05-29T12:29:00Z</time>
      </trkpt>
      <trkpt lat="44.54669" lon="1.37825">
        <ele>217.8</ele>
        <time>2025-05-29T12:29:01Z</time>
      </trkpt>
      <trkpt lat="44.54669" lon="1.37823">
        <ele>218</ele>
        <time>2025-05-29T12:29:02Z</time>
      </trkpt>
      <trkpt lat="44.54669" lon="1.37821">
        <ele>218.2</ele>
        <time>2025-05-29T12:29:03Z</time>
      </trkpt>
      <trkpt lat="44.54669" lon="1.37819">
        <ele>218.4</ele>
        <time>2025-05-29T12:29:04Z</time>
      </trkpt>
      <trkpt lat="44.54669" lon="1.37817">
        <ele>218.6</ele>
        <time>2025-05-29T12:29:05Z</time>
      </trkpt>
      <trkpt lat="44.54669" lon="1.37816">
        <ele>218.6</ele>
        <time>2025-05-29T12:29:06Z</time>
      </trkpt>
      <trkpt lat="44.54669" lon="1.37814">
        <ele>218.8</ele>
        <time>2025-05-29T12:29:07Z</time>
      </trkpt>
      <trkpt lat="44.54669" lon="1.37812">
        <ele>219</ele>
        <time>2025-05-29T12:29:08Z</time>
      </trkpt>
      <trkpt lat="44.54669" lon="1.37811">
        <ele>219.2</ele>
        <time>2025-05-29T12:29:09Z</time>
      </trkpt>
      <trkpt lat="44.54669" lon="1.37809">
        <ele>219.2</ele>
        <time>2025-05-29T12:29:10Z</time>
      </trkpt>
      <trkpt lat="44.54669" lon="1.37807">
        <ele>219.4</ele>
        <time>2025-05-29T12:29:11Z</time>
      </trkpt>
      <trkpt lat="44.54669" lon="1.37805">
        <ele>219.6</ele>
        <time>2025-05-29T12:29:12Z</time>
      </trkpt>
      <trkpt lat="44.54669" lon="1.37803">
        <ele>219.8</ele>
        <time>2025-05-29T12:29:13Z</time>
      </trkpt>
      <trkpt lat="44.54669" lon="1.37802">
        <ele>220</ele>
        <time>2025-05-29T12:29:14Z</time>
      </trkpt>
      <trkpt lat="44.54669" lon="1.37801">
        <ele>220.2</ele>
        <time>2025-05-29T12:29:15Z</time>
      </trkpt>
      <trkpt lat="44.54669" lon="1.37799">
        <ele>220.4</ele>
        <time>2025-05-29T12:29:16Z</time>
      </trkpt>
      <trkpt lat="44.5467" lon="1.37797">
        <ele>220.6</ele>
        <time>2025-05-29T12:29:17Z</time>
      </trkpt>
      <trkpt lat="44.5467" lon="1.37796">
        <ele>220.8</ele>
        <time>2025-05-29T12:29:18Z</time>
      </trkpt>
      <trkpt lat="44.5467" lon="1.37794">
        <ele>220.8</ele>
        <time>2025-05-29T12:29:19Z</time>
      </trkpt>
      <trkpt lat="44.5467" lon="1.37792">
        <ele>221</ele>
        <time>2025-05-29T12:29:20Z</time>
      </trkpt>
      <trkpt lat="44.54671" lon="1.3779">
        <ele>221.2</ele>
        <time>2025-05-29T12:29:21Z</time>
      </trkpt>
      <trkpt lat="44.54671" lon="1.37788">
        <ele>221.4</ele>
        <time>2025-05-29T12:29:22Z</time>
      </trkpt>
      <trkpt lat="44.54671" lon="1.37787">
        <ele>221.4</ele>
        <time>2025-05-29T12:29:23Z</time>
      </trkpt>
      <trkpt lat="44.54671" lon="1.37786">
        <ele>221.6</ele>
        <time>2025-05-29T12:29:24Z</time>
      </trkpt>
      <trkpt lat="44.54671" lon="1.37784">
        <ele>221.8</ele>
        <time>2025-05-29T12:29:25Z</time>
      </trkpt>
      <trkpt lat="44.54671" lon="1.37782">
        <ele>222</ele>
        <time>2025-05-29T12:29:26Z</time>
      </trkpt>
      <trkpt lat="44.54672" lon="1.3778">
        <ele>222</ele>
        <time>2025-05-29T12:29:27Z</time>
      </trkpt>
      <trkpt lat="44.54672" lon="1.37778">
        <ele>222.2</ele>
        <time>2025-05-29T12:29:28Z</time>
      </trkpt>
      <trkpt lat="44.54672" lon="1.37776">
        <ele>222.4</ele>
        <time>2025-05-29T12:29:29Z</time>
      </trkpt>
      <trkpt lat="44.54672" lon="1.37775">
        <ele>222.6</ele>
        <time>2025-05-29T12:29:30Z</time>
      </trkpt>
      <trkpt lat="44.54672" lon="1.37772">
        <ele>222.6</ele>
        <time>2025-05-29T12:29:31Z</time>
      </trkpt>
      <trkpt lat="44.54673" lon="1.37771">
        <ele>222.8</ele>
        <time>2025-05-29T12:29:32Z</time>
      </trkpt>
      <trkpt lat="44.54673" lon="1.37769">
        <ele>222.8</ele>
        <time>2025-05-29T12:29:33Z</time>
      </trkpt>
      <trkpt lat="44.54673" lon="1.37767">
        <ele>223</ele>
        <time>2025-05-29T12:29:34Z</time>
      </trkpt>
      <trkpt lat="44.54674" lon="1.37765">
        <ele>223.2</ele>
        <time>2025-05-29T12:29:35Z</time>
      </trkpt>
      <trkpt lat="44.54674" lon="1.37763">
        <ele>223.4</ele>
        <time>2025-05-29T12:29:36Z</time>
      </trkpt>
      <trkpt lat="44.54674" lon="1.37762">
        <ele>223.6</ele>
        <time>2025-05-29T12:29:37Z</time>
      </trkpt>
      <trkpt lat="44.54674" lon="1.3776">
        <ele>223.8</ele>
        <time>2025-05-29T12:29:38Z</time>
      </trkpt>
      <trkpt lat="44.54674" lon="1.37758">
        <ele>223.8</ele>
        <time>2025-05-29T12:29:39Z</time>
      </trkpt>
      <trkpt lat="44.54674" lon="1.37757">
        <ele>224</ele>
        <time>2025-05-29T12:29:40Z</time>
      </trkpt>
      <trkpt lat="44.54675" lon="1.37755">
        <ele>224.2</ele>
        <time>2025-05-29T12:29:41Z</time>
      </trkpt>
      <trkpt lat="44.54675" lon="1.37753">
        <ele>224.4</ele>
        <time>2025-05-29T12:29:42Z</time>
      </trkpt>
      <trkpt lat="44.54675" lon="1.37751">
        <ele>224.8</ele>
        <time>2025-05-29T12:29:43Z</time>
      </trkpt>
      <trkpt lat="44.54675" lon="1.3775">
        <ele>225</ele>
        <time>2025-05-29T12:29:44Z</time>
      </trkpt>
      <trkpt lat="44.54675" lon="1.37748">
        <ele>225.2</ele>
        <time>2025-05-29T12:29:45Z</time>
      </trkpt>
      <trkpt lat="44.54676" lon="1.37747">
        <ele>225.2</ele>
        <time>2025-05-29T12:29:46Z</time>
      </trkpt>
      <trkpt lat="44.54677" lon="1.37745">
        <ele>225.4</ele>
        <time>2025-05-29T12:29:47Z</time>
      </trkpt>
      <trkpt lat="44.54678" lon="1.37744">
        <ele>225.6</ele>
        <time>2025-05-29T12:29:48Z</time>
      </trkpt>
      <trkpt lat="44.54679" lon="1.37743">
        <ele>225.8</ele>
        <time>2025-05-29T12:29:49Z</time>
      </trkpt>
      <trkpt lat="44.5468" lon="1.37743">
        <ele>226</ele>
        <time>2025-05-29T12:29:50Z</time>
      </trkpt>
      <trkpt lat="44.54681" lon="1.37743">
        <ele>226</ele>
        <time>2025-05-29T12:29:51Z</time>
      </trkpt>
      <trkpt lat="44.54682" lon="1.37744">
        <ele>226.4</ele>
        <time>2025-05-29T12:29:52Z</time>
      </trkpt>
      <trkpt lat="44.54684" lon="1.37745">
        <ele>226.6</ele>
        <time>2025-05-29T12:29:53Z</time>
      </trkpt>
      <trkpt lat="44.54685" lon="1.37745">
        <ele>226.8</ele>
        <time>2025-05-29T12:29:54Z</time>
      </trkpt>
      <trkpt lat="44.54686" lon="1.37746">
        <ele>226.8</ele>
        <time>2025-05-29T12:29:55Z</time>
      </trkpt>
      <trkpt lat="44.54687" lon="1.37746">
        <ele>227</ele>
        <time>2025-05-29T12:29:56Z</time>
      </trkpt>
      <trkpt lat="44.54688" lon="1.37747">
        <ele>227.2</ele>
        <time>2025-05-29T12:29:57Z</time>
      </trkpt>
      <trkpt lat="44.54689" lon="1.37747">
        <ele>227.6</ele>
        <time>2025-05-29T12:29:58Z</time>
      </trkpt>
      <trkpt lat="44.5469" lon="1.37749">
        <ele>227.8</ele>
        <time>2025-05-29T12:29:59Z</time>
      </trkpt>
      <trkpt lat="44.54691" lon="1.3775">
        <ele>228</ele>
        <time>2025-05-29T12:30:00Z</time>
      </trkpt>
      <trkpt lat="44.54692" lon="1.37751">
        <ele>228</ele>
        <time>2025-05-29T12:30:01Z</time>
      </trkpt>
      <trkpt lat="44.54693" lon="1.37752">
        <ele>228.2</ele>
        <time>2025-05-29T12:30:02Z</time>
      </trkpt>
      <trkpt lat="44.54694" lon="1.37754">
        <ele>228.4</ele>
        <time>2025-05-29T12:30:03Z</time>
      </trkpt>
      <trkpt lat="44.54694" lon="1.37755">
        <ele>228.6</ele>
        <time>2025-05-29T12:30:04Z</time>
      </trkpt>
      <trkpt lat="44.54695" lon="1.37757">
        <ele>228.8</ele>
        <time>2025-05-29T12:30:05Z</time>
      </trkpt>
      <trkpt lat="44.54695" lon="1.37758">
        <ele>228.8</ele>
        <time>2025-05-29T12:30:06Z</time>
      </trkpt>
      <trkpt lat="44.54696" lon="1.3776">
        <ele>229</ele>
        <time>2025-05-29T12:30:07Z</time>
      </trkpt>
      <trkpt lat="44.54696" lon="1.37762">
        <ele>229</ele>
        <time>2025-05-29T12:30:08Z</time>
      </trkpt>
      <trkpt lat="44.54697" lon="1.37764">
        <ele>229</ele>
        <time>2025-05-29T12:30:09Z</time>
      </trkpt>
      <trkpt lat="44.54697" lon="1.37766">
        <ele>229</ele>
        <time>2025-05-29T12:30:10Z</time>
      </trkpt>
      <trkpt lat="44.54698" lon="1.37767">
        <ele>229.2</ele>
        <time>2025-05-29T12:30:11Z</time>
      </trkpt>
      <trkpt lat="44.54699" lon="1.37769">
        <ele>229.2</ele>
        <time>2025-05-29T12:30:12Z</time>
      </trkpt>
      <trkpt lat="44.54699" lon="1.37771">
        <ele>229.4</ele>
        <time>2025-05-29T12:30:13Z</time>
      </trkpt>
      <trkpt lat="44.547" lon="1.37773">
        <ele>229.4</ele>
        <time>2025-05-29T12:30:14Z</time>
      </trkpt>
      <trkpt lat="44.547" lon="1.37775">
        <ele>229.6</ele>
        <time>2025-05-29T12:30:15Z</time>
      </trkpt>
      <trkpt lat="44.54701" lon="1.37777">
        <ele>229.6</ele>
        <time>2025-05-29T12:30:16Z</time>
      </trkpt>
      <trkpt lat="44.54702" lon="1.37778">
        <ele>229.6</ele>
        <time>2025-05-29T12:30:17Z</time>
      </trkpt>
      <trkpt lat="44.54702" lon="1.37781">
        <ele>229.6</ele>
        <time>2025-05-29T12:30:18Z</time>
      </trkpt>
      <trkpt lat="44.54703" lon="1.37782">
        <ele>229.8</ele>
        <time>2025-05-29T12:30:19Z</time>
      </trkpt>
      <trkpt lat="44.54704" lon="1.37784">
        <ele>229.8</ele>
        <time>2025-05-29T12:30:20Z</time>
      </trkpt>
      <trkpt lat="44.54705" lon="1.37785">
        <ele>229.8</ele>
        <time>2025-05-29T12:30:21Z</time>
      </trkpt>
      <trkpt lat="44.54706" lon="1.37786">
        <ele>229.8</ele>
        <time>2025-05-29T12:30:22Z</time>
      </trkpt>
      <trkpt lat="44.54707" lon="1.37787">
        <ele>230</ele>
        <time>2025-05-29T12:30:23Z</time>
      </trkpt>
      <trkpt lat="44.54708" lon="1.37789">
        <ele>230</ele>
        <time>2025-05-29T12:30:24Z</time>
      </trkpt>
      <trkpt lat="44.54709" lon="1.37791">
        <ele>230.2</ele>
        <time>2025-05-29T12:30:25Z</time>
      </trkpt>
      <trkpt lat="44.5471" lon="1.37792">
        <ele>230.4</ele>
        <time>2025-05-29T12:30:26Z</time>
      </trkpt>
      <trkpt lat="44.54711" lon="1.37793">
        <ele>230.6</ele>
        <time>2025-05-29T12:30:27Z</time>
      </trkpt>
      <trkpt lat="44.54712" lon="1.37795">
        <ele>231</ele>
        <time>2025-05-29T12:30:28Z</time>
      </trkpt>
      <trkpt lat="44.54713" lon="1.37797">
        <ele>231.2</ele>
        <time>2025-05-29T12:30:29Z</time>
      </trkpt>
      <trkpt lat="44.54714" lon="1.37798">
        <ele>231.4</ele>
        <time>2025-05-29T12:30:30Z</time>
      </trkpt>
      <trkpt lat="44.54715" lon="1.37799">
        <ele>231.6</ele>
        <time>2025-05-29T12:30:31Z</time>
      </trkpt>
      <trkpt lat="44.54716" lon="1.378">
        <ele>231.8</ele>
        <time>2025-05-29T12:30:32Z</time>
      </trkpt>
      <trkpt lat="44.54717" lon="1.37801">
        <ele>231.8</ele>
        <time>2025-05-29T12:30:33Z</time>
      </trkpt>
      <trkpt lat="44.54718" lon="1.37802">
        <ele>232</ele>
        <time>2025-05-29T12:30:34Z</time>
      </trkpt>
      <trkpt lat="44.54719" lon="1.37802">
        <ele>232.2</ele>
        <time>2025-05-29T12:30:35Z</time>
      </trkpt>
      <trkpt lat="44.5472" lon="1.37803">
        <ele>232.4</ele>
        <time>2025-05-29T12:30:36Z</time>
      </trkpt>
      <trkpt lat="44.54721" lon="1.37804">
        <ele>232.6</ele>
        <time>2025-05-29T12:30:37Z</time>
      </trkpt>
      <trkpt lat="44.54722" lon="1.37804">
        <ele>232.8</ele>
        <time>2025-05-29T12:30:38Z</time>
      </trkpt>
      <trkpt lat="44.54724" lon="1.37805">
        <ele>233</ele>
        <time>2025-05-29T12:30:39Z</time>
      </trkpt>
      <trkpt lat="44.54725" lon="1.37806">
        <ele>233.2</ele>
        <time>2025-05-29T12:30:40Z</time>
      </trkpt>
      <trkpt lat="44.54726" lon="1.37806">
        <ele>233.4</ele>
        <time>2025-05-29T12:30:41Z</time>
      </trkpt>
      <trkpt lat="44.54727" lon="1.37806">
        <ele>233.6</ele>
        <time>2025-05-29T12:30:42Z</time>
      </trkpt>
      <trkpt lat="44.54729" lon="1.37807">
        <ele>233.8</ele>
        <time>2025-05-29T12:30:43Z</time>
      </trkpt>
      <trkpt lat="44.5473" lon="1.37808">
        <ele>234</ele>
        <time>2025-05-29T12:30:44Z</time>
      </trkpt>
      <trkpt lat="44.54731" lon="1.37809">
        <ele>234.2</ele>
        <time>2025-05-29T12:30:45Z</time>
      </trkpt>
      <trkpt lat="44.54733" lon="1.3781">
        <ele>234.2</ele>
        <time>2025-05-29T12:30:46Z</time>
      </trkpt>
      <trkpt lat="44.54734" lon="1.37811">
        <ele>234.4</ele>
        <time>2025-05-29T12:30:47Z</time>
      </trkpt>
      <trkpt lat="44.54735" lon="1.37813">
        <ele>234.4</ele>
        <time>2025-05-29T12:30:48Z</time>
      </trkpt>
      <trkpt lat="44.54736" lon="1.37814">
        <ele>234.6</ele>
        <time>2025-05-29T12:30:49Z</time>
      </trkpt>
      <trkpt lat="44.54737" lon="1.37815">
        <ele>234.6</ele>
        <time>2025-05-29T12:30:50Z</time>
      </trkpt>
      <trkpt lat="44.54739" lon="1.37817">
        <ele>234.8</ele>
        <time>2025-05-29T12:30:51Z</time>
      </trkpt>
      <trkpt lat="44.5474" lon="1.37818">
        <ele>234.8</ele>
        <time>2025-05-29T12:30:52Z</time>
      </trkpt>
      <trkpt lat="44.54741" lon="1.37819">
        <ele>235</ele>
        <time>2025-05-29T12:30:53Z</time>
      </trkpt>
      <trkpt lat="44.54742" lon="1.3782">
        <ele>235.2</ele>
        <time>2025-05-29T12:30:54Z</time>
      </trkpt>
      <trkpt lat="44.54743" lon="1.37822">
        <ele>235.2</ele>
        <time>2025-05-29T12:30:55Z</time>
      </trkpt>
      <trkpt lat="44.54743" lon="1.37823">
        <ele>235.4</ele>
        <time>2025-05-29T12:30:56Z</time>
      </trkpt>
      <trkpt lat="44.54744" lon="1.37824">
        <ele>235.6</ele>
        <time>2025-05-29T12:30:57Z</time>
      </trkpt>
      <trkpt lat="44.54745" lon="1.37826">
        <ele>235.6</ele>
        <time>2025-05-29T12:30:58Z</time>
      </trkpt>
      <trkpt lat="44.54746" lon="1.37828">
        <ele>235.8</ele>
        <time>2025-05-29T12:30:59Z</time>
      </trkpt>
      <trkpt lat="44.54747" lon="1.37829">
        <ele>236</ele>
        <time>2025-05-29T12:31:00Z</time>
      </trkpt>
      <trkpt lat="44.54748" lon="1.37831">
        <ele>236.2</ele>
        <time>2025-05-29T12:31:01Z</time>
      </trkpt>
      <trkpt lat="44.54749" lon="1.37832">
        <ele>236.4</ele>
        <time>2025-05-29T12:31:02Z</time>
      </trkpt>
      <trkpt lat="44.5475" lon="1.37833">
        <ele>236.6</ele>
        <time>2025-05-29T12:31:03Z</time>
      </trkpt>
      <trkpt lat="44.54752" lon="1.37834">
        <ele>236.6</ele>
        <time>2025-05-29T12:31:04Z</time>
      </trkpt>
      <trkpt lat="44.54753" lon="1.37835">
        <ele>236.8</ele>
        <time>2025-05-29T12:31:05Z</time>
      </trkpt>
      <trkpt lat="44.54754" lon="1.37837">
        <ele>237</ele>
        <time>2025-05-29T12:31:06Z</time>
      </trkpt>
      <trkpt lat="44.54755" lon="1.37838">
        <ele>237.2</ele>
        <time>2025-05-29T12:31:07Z</time>
      </trkpt>
      <trkpt lat="44.54757" lon="1.37839">
        <ele>237.4</ele>
        <time>2025-05-29T12:31:08Z</time>
      </trkpt>
      <trkpt lat="44.54758" lon="1.37841">
        <ele>237.4</ele>
        <time>2025-05-29T12:31:09Z</time>
      </trkpt>
      <trkpt lat="44.54759" lon="1.37843">
        <ele>237.6</ele>
        <time>2025-05-29T12:31:10Z</time>
      </trkpt>
      <trkpt lat="44.5476" lon="1.37844">
        <ele>237.8</ele>
        <time>2025-05-29T12:31:11Z</time>
      </trkpt>
      <trkpt lat="44.54761" lon="1.37845">
        <ele>238</ele>
        <time>2025-05-29T12:31:12Z</time>
      </trkpt>
      <trkpt lat="44.54762" lon="1.37846">
        <ele>238.2</ele>
        <time>2025-05-29T12:31:13Z</time>
      </trkpt>
      <trkpt lat="44.54763" lon="1.37848">
        <ele>238.4</ele>
        <time>2025-05-29T12:31:14Z</time>
      </trkpt>
      <trkpt lat="44.54764" lon="1.37849">
        <ele>238.6</ele>
        <time>2025-05-29T12:31:15Z</time>
      </trkpt>
      <trkpt lat="44.54765" lon="1.3785">
        <ele>238.8</ele>
        <time>2025-05-29T12:31:16Z</time>
      </trkpt>
      <trkpt lat="44.54766" lon="1.37851">
        <ele>239</ele>
        <time>2025-05-29T12:31:17Z</time>
      </trkpt>
      <trkpt lat="44.54767" lon="1.37852">
        <ele>239.2</ele>
        <time>2025-05-29T12:31:18Z</time>
      </trkpt>
      <trkpt lat="44.54768" lon="1.37853">
        <ele>239.4</ele>
        <time>2025-05-29T12:31:19Z</time>
      </trkpt>
      <trkpt lat="44.5477" lon="1.37855">
        <ele>239.6</ele>
        <time>2025-05-29T12:31:20Z</time>
      </trkpt>
      <trkpt lat="44.54771" lon="1.37856">
        <ele>239.6</ele>
        <time>2025-05-29T12:31:21Z</time>
      </trkpt>
      <trkpt lat="44.54772" lon="1.37858">
        <ele>239.8</ele>
        <time>2025-05-29T12:31:22Z</time>
      </trkpt>
      <trkpt lat="44.54773" lon="1.37859">
        <ele>240</ele>
        <time>2025-05-29T12:31:23Z</time>
      </trkpt>
      <trkpt lat="44.54774" lon="1.3786">
        <ele>240.2</ele>
        <time>2025-05-29T12:31:24Z</time>
      </trkpt>
      <trkpt lat="44.54775" lon="1.3786">
        <ele>240.2</ele>
        <time>2025-05-29T12:31:25Z</time>
      </trkpt>
      <trkpt lat="44.54776" lon="1.37861">
        <ele>240.4</ele>
        <time>2025-05-29T12:31:26Z</time>
      </trkpt>
      <trkpt lat="44.54777" lon="1.37862">
        <ele>240.6</ele>
        <time>2025-05-29T12:31:27Z</time>
      </trkpt>
      <trkpt lat="44.54778" lon="1.37863">
        <ele>240.8</ele>
        <time>2025-05-29T12:31:28Z</time>
      </trkpt>
      <trkpt lat="44.54779" lon="1.37864">
        <ele>240.8</ele>
        <time>2025-05-29T12:31:29Z</time>
      </trkpt>
      <trkpt lat="44.54781" lon="1.37865">
        <ele>241</ele>
        <time>2025-05-29T12:31:30Z</time>
      </trkpt>
      <trkpt lat="44.54782" lon="1.37867">
        <ele>241.2</ele>
        <time>2025-05-29T12:31:31Z</time>
      </trkpt>
      <trkpt lat="44.54783" lon="1.37868">
        <ele>241.4</ele>
        <time>2025-05-29T12:31:32Z</time>
      </trkpt>
      <trkpt lat="44.54785" lon="1.37869">
        <ele>241.4</ele>
        <time>2025-05-29T12:31:33Z</time>
      </trkpt>
      <trkpt lat="44.54786" lon="1.3787">
        <ele>241.6</ele>
        <time>2025-05-29T12:31:34Z</time>
      </trkpt>
      <trkpt lat="44.54788" lon="1.37871">
        <ele>241.8</ele>
        <time>2025-05-29T12:31:35Z</time>
      </trkpt>
      <trkpt lat="44.54789" lon="1.37871">
        <ele>242</ele>
        <time>2025-05-29T12:31:36Z</time>
      </trkpt>
      <trkpt lat="44.5479" lon="1.37872">
        <ele>242</ele>
        <time>2025-05-29T12:31:37Z</time>
      </trkpt>
      <trkpt lat="44.54792" lon="1.37873">
        <ele>242.2</ele>
        <time>2025-05-29T12:31:38Z</time>
      </trkpt>
      <trkpt lat="44.54794" lon="1.37873">
        <ele>242.4</ele>
        <time>2025-05-29T12:31:39Z</time>
      </trkpt>
      <trkpt lat="44.54795" lon="1.37874">
        <ele>242.4</ele>
        <time>2025-05-29T12:31:40Z</time>
      </trkpt>
      <trkpt lat="44.54797" lon="1.37875">
        <ele>242.6</ele>
        <time>2025-05-29T12:31:41Z</time>
      </trkpt>
      <trkpt lat="44.54798" lon="1.37875">
        <ele>242.8</ele>
        <time>2025-05-29T12:31:42Z</time>
      </trkpt>
      <trkpt lat="44.54799" lon="1.37876">
        <ele>243</ele>
        <time>2025-05-29T12:31:43Z</time>
      </trkpt>
      <trkpt lat="44.54801" lon="1.37877">
        <ele>243.2</ele>
        <time>2025-05-29T12:31:44Z</time>
      </trkpt>
      <trkpt lat="44.54802" lon="1.37877">
        <ele>243.4</ele>
        <time>2025-05-29T12:31:45Z</time>
      </trkpt>
      <trkpt lat="44.54803" lon="1.37878">
        <ele>243.6</ele>
        <time>2025-05-29T12:31:46Z</time>
      </trkpt>
      <trkpt lat="44.54804" lon="1.37879">
        <ele>243.6</ele>
        <time>2025-05-29T12:31:47Z</time>
      </trkpt>
      <trkpt lat="44.54805" lon="1.37879">
        <ele>243.8</ele>
        <time>2025-05-29T12:31:48Z</time>
      </trkpt>
      <trkpt lat="44.54806" lon="1.3788">
        <ele>244</ele>
        <time>2025-05-29T12:31:49Z</time>
      </trkpt>
      <trkpt lat="44.54808" lon="1.3788">
        <ele>244</ele>
        <time>2025-05-29T12:31:50Z</time>
      </trkpt>
      <trkpt lat="44.54809" lon="1.37879">
        <ele>244.2</ele>
        <time>2025-05-29T12:31:51Z</time>
      </trkpt>
      <trkpt lat="44.5481" lon="1.37878">
        <ele>244.2</ele>
        <time>2025-05-29T12:31:52Z</time>
      </trkpt>
      <trkpt lat="44.54811" lon="1.37876">
        <ele>244.4</ele>
        <time>2025-05-29T12:31:53Z</time>
      </trkpt>
      <trkpt lat="44.54812" lon="1.37874">
        <ele>244.4</ele>
        <time>2025-05-29T12:31:54Z</time>
      </trkpt>
      <trkpt lat="44.54812" lon="1.37872">
        <ele>244.6</ele>
        <time>2025-05-29T12:31:55Z</time>
      </trkpt>
      <trkpt lat="44.54812" lon="1.3787">
        <ele>244.6</ele>
        <time>2025-05-29T12:31:56Z</time>
      </trkpt>
      <trkpt lat="44.54812" lon="1.37869">
        <ele>244.8</ele>
        <time>2025-05-29T12:31:57Z</time>
      </trkpt>
      <trkpt lat="44.54813" lon="1.37867">
        <ele>244.8</ele>
        <time>2025-05-29T12:31:58Z</time>
      </trkpt>
      <trkpt lat="44.54813" lon="1.37865">
        <ele>245</ele>
        <time>2025-05-29T12:31:59Z</time>
      </trkpt>
      <trkpt lat="44.54813" lon="1.37863">
        <ele>245</ele>
        <time>2025-05-29T12:32:00Z</time>
      </trkpt>
      <trkpt lat="44.54813" lon="1.37861">
        <ele>245.2</ele>
        <time>2025-05-29T12:32:01Z</time>
      </trkpt>
      <trkpt lat="44.54813" lon="1.37859">
        <ele>245.2</ele>
        <time>2025-05-29T12:32:02Z</time>
      </trkpt>
      <trkpt lat="44.54813" lon="1.37857">
        <ele>245.4</ele>
        <time>2025-05-29T12:32:03Z</time>
      </trkpt>
      <trkpt lat="44.54813" lon="1.37854">
        <ele>245.4</ele>
        <time>2025-05-29T12:32:04Z</time>
      </trkpt>
      <trkpt lat="44.54813" lon="1.37851">
        <ele>245.4</ele>
        <time>2025-05-29T12:32:05Z</time>
      </trkpt>
      <trkpt lat="44.54813" lon="1.37848">
        <ele>245.6</ele>
        <time>2025-05-29T12:32:06Z</time>
      </trkpt>
      <trkpt lat="44.54812" lon="1.37846">
        <ele>245.6</ele>
        <time>2025-05-29T12:32:07Z</time>
      </trkpt>
      <trkpt lat="44.54812" lon="1.37843">
        <ele>245.6</ele>
        <time>2025-05-29T12:32:08Z</time>
      </trkpt>
      <trkpt lat="44.54812" lon="1.37841">
        <ele>245.6</ele>
        <time>2025-05-29T12:32:09Z</time>
      </trkpt>
      <trkpt lat="44.54812" lon="1.37838">
        <ele>245.6</ele>
        <time>2025-05-29T12:32:10Z</time>
      </trkpt>
      <trkpt lat="44.54812" lon="1.37835">
        <ele>245.8</ele>
        <time>2025-05-29T12:32:11Z</time>
      </trkpt>
      <trkpt lat="44.54812" lon="1.37833">
        <ele>245.8</ele>
        <time>2025-05-29T12:32:12Z</time>
      </trkpt>
      <trkpt lat="44.54812" lon="1.3783">
        <ele>245.8</ele>
        <time>2025-05-29T12:32:13Z</time>
      </trkpt>
      <trkpt lat="44.54812" lon="1.37828">
        <ele>245.8</ele>
        <time>2025-05-29T12:32:14Z</time>
      </trkpt>
      <trkpt lat="44.54812" lon="1.37825">
        <ele>245.8</ele>
        <time>2025-05-29T12:32:15Z</time>
      </trkpt>
      <trkpt lat="44.54811" lon="1.37822">
        <ele>246</ele>
        <time>2025-05-29T12:32:16Z</time>
      </trkpt>
      <trkpt lat="44.54811" lon="1.3782">
        <ele>246</ele>
        <time>2025-05-29T12:32:17Z</time>
      </trkpt>
      <trkpt lat="44.54811" lon="1.37818">
        <ele>246</ele>
        <time>2025-05-29T12:32:18Z</time>
      </trkpt>
      <trkpt lat="44.54811" lon="1.37815">
        <ele>246.2</ele>
        <time>2025-05-29T12:32:19Z</time>
      </trkpt>
      <trkpt lat="44.54811" lon="1.37813">
        <ele>246.2</ele>
        <time>2025-05-29T12:32:20Z</time>
      </trkpt>
      <trkpt lat="44.54811" lon="1.3781">
        <ele>246.4</ele>
        <time>2025-05-29T12:32:21Z</time>
      </trkpt>
      <trkpt lat="44.54812" lon="1.37807">
        <ele>246.4</ele>
        <time>2025-05-29T12:32:22Z</time>
      </trkpt>
      <trkpt lat="44.54813" lon="1.37804">
        <ele>246.6</ele>
        <time>2025-05-29T12:32:23Z</time>
      </trkpt>
      <trkpt lat="44.54813" lon="1.37802">
        <ele>246.6</ele>
        <time>2025-05-29T12:32:24Z</time>
      </trkpt>
      <trkpt lat="44.54813" lon="1.37799">
        <ele>246.6</ele>
        <time>2025-05-29T12:32:25Z</time>
      </trkpt>
      <trkpt lat="44.54813" lon="1.37796">
        <ele>246.8</ele>
        <time>2025-05-29T12:32:26Z</time>
      </trkpt>
      <trkpt lat="44.54813" lon="1.37793">
        <ele>246.8</ele>
        <time>2025-05-29T12:32:27Z</time>
      </trkpt>
      <trkpt lat="44.54814" lon="1.37791">
        <ele>247</ele>
        <time>2025-05-29T12:32:28Z</time>
      </trkpt>
      <trkpt lat="44.54814" lon="1.37788">
        <ele>247</ele>
        <time>2025-05-29T12:32:29Z</time>
      </trkpt>
      <trkpt lat="44.54814" lon="1.37786">
        <ele>247.2</ele>
        <time>2025-05-29T12:32:30Z</time>
      </trkpt>
      <trkpt lat="44.54813" lon="1.37783">
        <ele>247.4</ele>
        <time>2025-05-29T12:32:31Z</time>
      </trkpt>
      <trkpt lat="44.54813" lon="1.3778">
        <ele>247.4</ele>
        <time>2025-05-29T12:32:32Z</time>
      </trkpt>
      <trkpt lat="44.54813" lon="1.37777">
        <ele>247.6</ele>
        <time>2025-05-29T12:32:33Z</time>
      </trkpt>
      <trkpt lat="44.54812" lon="1.37774">
        <ele>247.6</ele>
        <time>2025-05-29T12:32:34Z</time>
      </trkpt>
      <trkpt lat="44.54812" lon="1.37772">
        <ele>247.6</ele>
        <time>2025-05-29T12:32:35Z</time>
      </trkpt>
      <trkpt lat="44.54812" lon="1.37769">
        <ele>247.6</ele>
        <time>2025-05-29T12:32:36Z</time>
      </trkpt>
      <trkpt lat="44.54812" lon="1.37767">
        <ele>247.6</ele>
        <time>2025-05-29T12:32:37Z</time>
      </trkpt>
      <trkpt lat="44.54811" lon="1.37765">
        <ele>247.8</ele>
        <time>2025-05-29T12:32:38Z</time>
      </trkpt>
      <trkpt lat="44.54811" lon="1.37763">
        <ele>247.8</ele>
        <time>2025-05-29T12:32:39Z</time>
      </trkpt>
      <trkpt lat="44.54811" lon="1.37761">
        <ele>248</ele>
        <time>2025-05-29T12:32:40Z</time>
      </trkpt>
      <trkpt lat="44.54811" lon="1.37759">
        <ele>248.2</ele>
        <time>2025-05-29T12:32:41Z</time>
      </trkpt>
      <trkpt lat="44.54811" lon="1.37757">
        <ele>248.2</ele>
        <time>2025-05-29T12:32:42Z</time>
      </trkpt>
      <trkpt lat="44.54811" lon="1.37754">
        <ele>248.4</ele>
        <time>2025-05-29T12:32:43Z</time>
      </trkpt>
      <trkpt lat="44.54812" lon="1.37752">
        <ele>248.4</ele>
        <time>2025-05-29T12:32:44Z</time>
      </trkpt>
      <trkpt lat="44.54811" lon="1.3775">
        <ele>248.6</ele>
        <time>2025-05-29T12:32:45Z</time>
      </trkpt>
      <trkpt lat="44.54811" lon="1.37748">
        <ele>248.8</ele>
        <time>2025-05-29T12:32:46Z</time>
      </trkpt>
      <trkpt lat="44.54811" lon="1.37746">
        <ele>249</ele>
        <time>2025-05-29T12:32:47Z</time>
      </trkpt>
      <trkpt lat="44.54811" lon="1.37744">
        <ele>249.2</ele>
        <time>2025-05-29T12:32:48Z</time>
      </trkpt>
      <trkpt lat="44.54811" lon="1.37742">
        <ele>249.4</ele>
        <time>2025-05-29T12:32:49Z</time>
      </trkpt>
      <trkpt lat="44.54811" lon="1.3774">
        <ele>249.6</ele>
        <time>2025-05-29T12:32:50Z</time>
      </trkpt>
      <trkpt lat="44.54811" lon="1.37738">
        <ele>249.8</ele>
        <time>2025-05-29T12:32:51Z</time>
      </trkpt>
      <trkpt lat="44.54811" lon="1.37736">
        <ele>250</ele>
        <time>2025-05-29T12:32:52Z</time>
      </trkpt>
      <trkpt lat="44.54811" lon="1.37735">
        <ele>250.2</ele>
        <time>2025-05-29T12:32:53Z</time>
      </trkpt>
      <trkpt lat="44.54811" lon="1.37733">
        <ele>250.4</ele>
        <time>2025-05-29T12:32:54Z</time>
      </trkpt>
      <trkpt lat="44.54812" lon="1.37731">
        <ele>250.6</ele>
        <time>2025-05-29T12:32:55Z</time>
      </trkpt>
      <trkpt lat="44.54812" lon="1.37729">
        <ele>250.8</ele>
        <time>2025-05-29T12:32:56Z</time>
      </trkpt>
      <trkpt lat="44.54812" lon="1.37728">
        <ele>250.8</ele>
        <time>2025-05-29T12:32:57Z</time>
      </trkpt>
      <trkpt lat="44.54813" lon="1.37725">
        <ele>251</ele>
        <time>2025-05-29T12:32:58Z</time>
      </trkpt>
      <trkpt lat="44.54813" lon="1.37723">
        <ele>251.2</ele>
        <time>2025-05-29T12:32:59Z</time>
      </trkpt>
      <trkpt lat="44.54813" lon="1.37721">
        <ele>251.4</ele>
        <time>2025-05-29T12:33:00Z</time>
      </trkpt>
      <trkpt lat="44.54813" lon="1.37719">
        <ele>251.4</ele>
        <time>2025-05-29T12:33:01Z</time>
      </trkpt>
      <trkpt lat="44.54814" lon="1.37718">
        <ele>251.8</ele>
        <time>2025-05-29T12:33:02Z</time>
      </trkpt>
      <trkpt lat="44.54814" lon="1.37716">
        <ele>252</ele>
        <time>2025-05-29T12:33:03Z</time>
      </trkpt>
      <trkpt lat="44.54815" lon="1.37715">
        <ele>252.2</ele>
        <time>2025-05-29T12:33:04Z</time>
      </trkpt>
      <trkpt lat="44.54816" lon="1.37713">
        <ele>252.4</ele>
        <time>2025-05-29T12:33:05Z</time>
      </trkpt>
      <trkpt lat="44.54816" lon="1.37711">
        <ele>252.6</ele>
        <time>2025-05-29T12:33:06Z</time>
      </trkpt>
      <trkpt lat="44.54816" lon="1.37709">
        <ele>252.6</ele>
        <time>2025-05-29T12:33:07Z</time>
      </trkpt>
      <trkpt lat="44.54817" lon="1.37708">
        <ele>252.8</ele>
        <time>2025-05-29T12:33:08Z</time>
      </trkpt>
      <trkpt lat="44.54817" lon="1.37706">
        <ele>253</ele>
        <time>2025-05-29T12:33:09Z</time>
      </trkpt>
      <trkpt lat="44.54817" lon="1.37704">
        <ele>253.2</ele>
        <time>2025-05-29T12:33:10Z</time>
      </trkpt>
      <trkpt lat="44.54818" lon="1.37702">
        <ele>253.4</ele>
        <time>2025-05-29T12:33:11Z</time>
      </trkpt>
      <trkpt lat="44.54818" lon="1.377">
        <ele>253.6</ele>
        <time>2025-05-29T12:33:12Z</time>
      </trkpt>
      <trkpt lat="44.54819" lon="1.37699">
        <ele>254</ele>
        <time>2025-05-29T12:33:13Z</time>
      </trkpt>
      <trkpt lat="44.54819" lon="1.37697">
        <ele>254.2</ele>
        <time>2025-05-29T12:33:14Z</time>
      </trkpt>
      <trkpt lat="44.5482" lon="1.37695">
        <ele>254.4</ele>
        <time>2025-05-29T12:33:15Z</time>
      </trkpt>
      <trkpt lat="44.5482" lon="1.37694">
        <ele>254.6</ele>
        <time>2025-05-29T12:33:16Z</time>
      </trkpt>
      <trkpt lat="44.5482" lon="1.37692">
        <ele>254.8</ele>
        <time>2025-05-29T12:33:17Z</time>
      </trkpt>
      <trkpt lat="44.54821" lon="1.37691">
        <ele>255</ele>
        <time>2025-05-29T12:33:18Z</time>
      </trkpt>
      <trkpt lat="44.54821" lon="1.3769">
        <ele>255.2</ele>
        <time>2025-05-29T12:33:19Z</time>
      </trkpt>
      <trkpt lat="44.54822" lon="1.37688">
        <ele>255.4</ele>
        <time>2025-05-29T12:33:20Z</time>
      </trkpt>
      <trkpt lat="44.54822" lon="1.37687">
        <ele>255.6</ele>
        <time>2025-05-29T12:33:21Z</time>
      </trkpt>
      <trkpt lat="44.54823" lon="1.37685">
        <ele>255.8</ele>
        <time>2025-05-29T12:33:22Z</time>
      </trkpt>
      <trkpt lat="44.54823" lon="1.37683">
        <ele>256</ele>
        <time>2025-05-29T12:33:23Z</time>
      </trkpt>
      <trkpt lat="44.54824" lon="1.37682">
        <ele>256.4</ele>
        <time>2025-05-29T12:33:24Z</time>
      </trkpt>
      <trkpt lat="44.54824" lon="1.3768">
        <ele>256.6</ele>
        <time>2025-05-29T12:33:25Z</time>
      </trkpt>
      <trkpt lat="44.54825" lon="1.37679">
        <ele>256.8</ele>
        <time>2025-05-29T12:33:26Z</time>
      </trkpt>
      <trkpt lat="44.54825" lon="1.37677">
        <ele>257</ele>
        <time>2025-05-29T12:33:27Z</time>
      </trkpt>
      <trkpt lat="44.54825" lon="1.37676">
        <ele>257.2</ele>
        <time>2025-05-29T12:33:28Z</time>
      </trkpt>
      <trkpt lat="44.54825" lon="1.37675">
        <ele>257.4</ele>
        <time>2025-05-29T12:33:29Z</time>
      </trkpt>
      <trkpt lat="44.54826" lon="1.37674">
        <ele>257.6</ele>
        <time>2025-05-29T12:33:30Z</time>
      </trkpt>
      <trkpt lat="44.54826" lon="1.37672">
        <ele>257.8</ele>
        <time>2025-05-29T12:33:31Z</time>
      </trkpt>
      <trkpt lat="44.54826" lon="1.37671">
        <ele>257.8</ele>
        <time>2025-05-29T12:33:32Z</time>
      </trkpt>
      <trkpt lat="44.54826" lon="1.37669">
        <ele>258</ele>
        <time>2025-05-29T12:33:33Z</time>
      </trkpt>
      <trkpt lat="44.54827" lon="1.37668">
        <ele>258.2</ele>
        <time>2025-05-29T12:33:34Z</time>
      </trkpt>
      <trkpt lat="44.54827" lon="1.37666">
        <ele>258.2</ele>
        <time>2025-05-29T12:33:35Z</time>
      </trkpt>
      <trkpt lat="44.54827" lon="1.37665">
        <ele>258.4</ele>
        <time>2025-05-29T12:33:36Z</time>
      </trkpt>
      <trkpt lat="44.54827" lon="1.37663">
        <ele>258.6</ele>
        <time>2025-05-29T12:33:37Z</time>
      </trkpt>
      <trkpt lat="44.54827" lon="1.37662">
        <ele>258.6</ele>
        <time>2025-05-29T12:33:38Z</time>
      </trkpt>
      <trkpt lat="44.54828" lon="1.37661">
        <ele>258.8</ele>
        <time>2025-05-29T12:33:39Z</time>
      </trkpt>
      <trkpt lat="44.54829" lon="1.3766">
        <ele>259</ele>
        <time>2025-05-29T12:33:40Z</time>
      </trkpt>
      <trkpt lat="44.54829" lon="1.37658">
        <ele>259.2</ele>
        <time>2025-05-29T12:33:41Z</time>
      </trkpt>
      <trkpt lat="44.54829" lon="1.37656">
        <ele>259.2</ele>
        <time>2025-05-29T12:33:42Z</time>
      </trkpt>
      <trkpt lat="44.54829" lon="1.37655">
        <ele>259.4</ele>
        <time>2025-05-29T12:33:43Z</time>
      </trkpt>
      <trkpt lat="44.54829" lon="1.37654">
        <ele>259.6</ele>
        <time>2025-05-29T12:33:44Z</time>
      </trkpt>
      <trkpt lat="44.5483" lon="1.37652">
        <ele>259.8</ele>
        <time>2025-05-29T12:33:45Z</time>
      </trkpt>
      <trkpt lat="44.5483" lon="1.37651">
        <ele>260</ele>
        <time>2025-05-29T12:33:46Z</time>
      </trkpt>
      <trkpt lat="44.5483" lon="1.3765">
        <ele>260.2</ele>
        <time>2025-05-29T12:33:47Z</time>
      </trkpt>
      <trkpt lat="44.54831" lon="1.37648">
        <ele>260.4</ele>
        <time>2025-05-29T12:33:48Z</time>
      </trkpt>
      <trkpt lat="44.54832" lon="1.37646">
        <ele>260.6</ele>
        <time>2025-05-29T12:33:49Z</time>
      </trkpt>
      <trkpt lat="44.54832" lon="1.37645">
        <ele>260.6</ele>
        <time>2025-05-29T12:33:50Z</time>
      </trkpt>
      <trkpt lat="44.54832" lon="1.37644">
        <ele>260.8</ele>
        <time>2025-05-29T12:33:51Z</time>
      </trkpt>
      <trkpt lat="44.54832" lon="1.37642">
        <ele>261</ele>
        <time>2025-05-29T12:33:52Z</time>
      </trkpt>
      <trkpt lat="44.54833" lon="1.37641">
        <ele>261.2</ele>
        <time>2025-05-29T12:33:53Z</time>
      </trkpt>
      <trkpt lat="44.54833" lon="1.37639">
        <ele>261.4</ele>
        <time>2025-05-29T12:33:54Z</time>
      </trkpt>
      <trkpt lat="44.54834" lon="1.37638">
        <ele>261.4</ele>
        <time>2025-05-29T12:33:55Z</time>
      </trkpt>
      <trkpt lat="44.54834" lon="1.37636">
        <ele>261.6</ele>
        <time>2025-05-29T12:33:56Z</time>
      </trkpt>
      <trkpt lat="44.54834" lon="1.37635">
        <ele>261.8</ele>
        <time>2025-05-29T12:33:57Z</time>
      </trkpt>
      <trkpt lat="44.54835" lon="1.37634">
        <ele>262</ele>
        <time>2025-05-29T12:33:58Z</time>
      </trkpt>
      <trkpt lat="44.54836" lon="1.37633">
        <ele>262.2</ele>
        <time>2025-05-29T12:33:59Z</time>
      </trkpt>
      <trkpt lat="44.54836" lon="1.37632">
        <ele>262.4</ele>
        <time>2025-05-29T12:34:00Z</time>
      </trkpt>
      <trkpt lat="44.54837" lon="1.3763">
        <ele>262.6</ele>
        <time>2025-05-29T12:34:01Z</time>
      </trkpt>
      <trkpt lat="44.54837" lon="1.37628">
        <ele>262.6</ele>
        <time>2025-05-29T12:34:02Z</time>
      </trkpt>
      <trkpt lat="44.54838" lon="1.37627">
        <ele>262.8</ele>
        <time>2025-05-29T12:34:03Z</time>
      </trkpt>
      <trkpt lat="44.54838" lon="1.37625">
        <ele>263</ele>
        <time>2025-05-29T12:34:04Z</time>
      </trkpt>
      <trkpt lat="44.54838" lon="1.37623">
        <ele>263</ele>
        <time>2025-05-29T12:34:05Z</time>
      </trkpt>
      <trkpt lat="44.54838" lon="1.37622">
        <ele>263.2</ele>
        <time>2025-05-29T12:34:06Z</time>
      </trkpt>
      <trkpt lat="44.54838" lon="1.3762">
        <ele>263.4</ele>
        <time>2025-05-29T12:34:07Z</time>
      </trkpt>
      <trkpt lat="44.54839" lon="1.37619">
        <ele>263.4</ele>
        <time>2025-05-29T12:34:08Z</time>
      </trkpt>
      <trkpt lat="44.54839" lon="1.37617">
        <ele>263.6</ele>
        <time>2025-05-29T12:34:09Z</time>
      </trkpt>
      <trkpt lat="44.54839" lon="1.37616">
        <ele>263.8</ele>
        <time>2025-05-29T12:34:10Z</time>
      </trkpt>
      <trkpt lat="44.5484" lon="1.37614">
        <ele>264</ele>
        <time>2025-05-29T12:34:11Z</time>
      </trkpt>
      <trkpt lat="44.5484" lon="1.37612">
        <ele>264.4</ele>
        <time>2025-05-29T12:34:12Z</time>
      </trkpt>
      <trkpt lat="44.5484" lon="1.37611">
        <ele>264.6</ele>
        <time>2025-05-29T12:34:13Z</time>
      </trkpt>
      <trkpt lat="44.5484" lon="1.3761">
        <ele>264.8</ele>
        <time>2025-05-29T12:34:14Z</time>
      </trkpt>
      <trkpt lat="44.54841" lon="1.37609">
        <ele>265</ele>
        <time>2025-05-29T12:34:15Z</time>
      </trkpt>
      <trkpt lat="44.54841" lon="1.37607">
        <ele>265.2</ele>
        <time>2025-05-29T12:34:16Z</time>
      </trkpt>
      <trkpt lat="44.54842" lon="1.37606">
        <ele>265.4</ele>
        <time>2025-05-29T12:34:17Z</time>
      </trkpt>
      <trkpt lat="44.54842" lon="1.37604">
        <ele>265.6</ele>
        <time>2025-05-29T12:34:18Z</time>
      </trkpt>
      <trkpt lat="44.54842" lon="1.37602">
        <ele>265.8</ele>
        <time>2025-05-29T12:34:19Z</time>
      </trkpt>
      <trkpt lat="44.54843" lon="1.37601">
        <ele>266</ele>
        <time>2025-05-29T12:34:20Z</time>
      </trkpt>
      <trkpt lat="44.54843" lon="1.37599">
        <ele>266.2</ele>
        <time>2025-05-29T12:34:21Z</time>
      </trkpt>
      <trkpt lat="44.54844" lon="1.37598">
        <ele>266.4</ele>
        <time>2025-05-29T12:34:22Z</time>
      </trkpt>
      <trkpt lat="44.54844" lon="1.37596">
        <ele>266.6</ele>
        <time>2025-05-29T12:34:23Z</time>
      </trkpt>
      <trkpt lat="44.54844" lon="1.37595">
        <ele>266.8</ele>
        <time>2025-05-29T12:34:24Z</time>
      </trkpt>
      <trkpt lat="44.54844" lon="1.37593">
        <ele>267</ele>
        <time>2025-05-29T12:34:25Z</time>
      </trkpt>
      <trkpt lat="44.54845" lon="1.37592">
        <ele>267.2</ele>
        <time>2025-05-29T12:34:26Z</time>
      </trkpt>
      <trkpt lat="44.54845" lon="1.3759">
        <ele>267.4</ele>
        <time>2025-05-29T12:34:27Z</time>
      </trkpt>
      <trkpt lat="44.54845" lon="1.37589">
        <ele>267.6</ele>
        <time>2025-05-29T12:34:28Z</time>
      </trkpt>
      <trkpt lat="44.54846" lon="1.37588">
        <ele>267.8</ele>
        <time>2025-05-29T12:34:29Z</time>
      </trkpt>
      <trkpt lat="44.54847" lon="1.37586">
        <ele>268</ele>
        <time>2025-05-29T12:34:30Z</time>
      </trkpt>
      <trkpt lat="44.54847" lon="1.37585">
        <ele>268.2</ele>
        <time>2025-05-29T12:34:31Z</time>
      </trkpt>
      <trkpt lat="44.54848" lon="1.37584">
        <ele>268.4</ele>
        <time>2025-05-29T12:34:32Z</time>
      </trkpt>
      <trkpt lat="44.54849" lon="1.37584">
        <ele>268.4</ele>
        <time>2025-05-29T12:34:33Z</time>
      </trkpt>
      <trkpt lat="44.5485" lon="1.37583">
        <ele>268.6</ele>
        <time>2025-05-29T12:34:34Z</time>
      </trkpt>
      <trkpt lat="44.54852" lon="1.37582">
        <ele>268.8</ele>
        <time>2025-05-29T12:34:35Z</time>
      </trkpt>
      <trkpt lat="44.54853" lon="1.37582">
        <ele>269</ele>
        <time>2025-05-29T12:34:36Z</time>
      </trkpt>
      <trkpt lat="44.54854" lon="1.37582">
        <ele>269.2</ele>
        <time>2025-05-29T12:34:37Z</time>
      </trkpt>
      <trkpt lat="44.54856" lon="1.37581">
        <ele>269.2</ele>
        <time>2025-05-29T12:34:38Z</time>
      </trkpt>
      <trkpt lat="44.54857" lon="1.37581">
        <ele>269.4</ele>
        <time>2025-05-29T12:34:39Z</time>
      </trkpt>
      <trkpt lat="44.54859" lon="1.37581">
        <ele>269.6</ele>
        <time>2025-05-29T12:34:40Z</time>
      </trkpt>
      <trkpt lat="44.5486" lon="1.37581">
        <ele>269.6</ele>
        <time>2025-05-29T12:34:41Z</time>
      </trkpt>
      <trkpt lat="44.5486" lon="1.37581">
        <ele>269.6</ele>
        <time>2025-05-29T12:34:42Z</time>
      </trkpt>
      <trkpt lat="44.54861" lon="1.37581">
        <ele>269.8</ele>
        <time>2025-05-29T12:34:43Z</time>
      </trkpt>
      <trkpt lat="44.54863" lon="1.3758">
        <ele>269.8</ele>
        <time>2025-05-29T12:34:44Z</time>
      </trkpt>
      <trkpt lat="44.54864" lon="1.3758">
        <ele>270</ele>
        <time>2025-05-29T12:34:45Z</time>
      </trkpt>
      <trkpt lat="44.54867" lon="1.3758">
        <ele>270</ele>
        <time>2025-05-29T12:34:46Z</time>
      </trkpt>
      <trkpt lat="44.54869" lon="1.37581">
        <ele>270</ele>
        <time>2025-05-29T12:34:47Z</time>
      </trkpt>
      <trkpt lat="44.54871" lon="1.3758">
        <ele>270</ele>
        <time>2025-05-29T12:34:48Z</time>
      </trkpt>
      <trkpt lat="44.54873" lon="1.3758">
        <ele>269.8</ele>
        <time>2025-05-29T12:34:49Z</time>
      </trkpt>
      <trkpt lat="44.54876" lon="1.3758">
        <ele>269.8</ele>
        <time>2025-05-29T12:34:50Z</time>
      </trkpt>
      <trkpt lat="44.54878" lon="1.3758">
        <ele>269.8</ele>
        <time>2025-05-29T12:34:51Z</time>
      </trkpt>
      <trkpt lat="44.54881" lon="1.37579">
        <ele>269.8</ele>
        <time>2025-05-29T12:34:52Z</time>
      </trkpt>
      <trkpt lat="44.54883" lon="1.37579">
        <ele>269.8</ele>
        <time>2025-05-29T12:34:53Z</time>
      </trkpt>
      <trkpt lat="44.54886" lon="1.37578">
        <ele>269.8</ele>
        <time>2025-05-29T12:34:54Z</time>
      </trkpt>
      <trkpt lat="44.54889" lon="1.37578">
        <ele>269.8</ele>
        <time>2025-05-29T12:34:55Z</time>
      </trkpt>
      <trkpt lat="44.54892" lon="1.37578">
        <ele>269.8</ele>
        <time>2025-05-29T12:34:56Z</time>
      </trkpt>
      <trkpt lat="44.54894" lon="1.37578">
        <ele>269.8</ele>
        <time>2025-05-29T12:34:57Z</time>
      </trkpt>
      <trkpt lat="44.54897" lon="1.37578">
        <ele>269.8</ele>
        <time>2025-05-29T12:34:58Z</time>
      </trkpt>
      <trkpt lat="44.54899" lon="1.37578">
        <ele>269.8</ele>
        <time>2025-05-29T12:34:59Z</time>
      </trkpt>
      <trkpt lat="44.54902" lon="1.37577">
        <ele>269.8</ele>
        <time>2025-05-29T12:35:00Z</time>
      </trkpt>
      <trkpt lat="44.54904" lon="1.37577">
        <ele>269.8</ele>
        <time>2025-05-29T12:35:01Z</time>
      </trkpt>
      <trkpt lat="44.54906" lon="1.37577">
        <ele>269.8</ele>
        <time>2025-05-29T12:35:02Z</time>
      </trkpt>
      <trkpt lat="44.54909" lon="1.37577">
        <ele>270</ele>
        <time>2025-05-29T12:35:03Z</time>
      </trkpt>
      <trkpt lat="44.54912" lon="1.37576">
        <ele>270.2</ele>
        <time>2025-05-29T12:35:04Z</time>
      </trkpt>
      <trkpt lat="44.54914" lon="1.37576">
        <ele>270.2</ele>
        <time>2025-05-29T12:35:05Z</time>
      </trkpt>
      <trkpt lat="44.54917" lon="1.37575">
        <ele>270.4</ele>
        <time>2025-05-29T12:35:06Z</time>
      </trkpt>
      <trkpt lat="44.54919" lon="1.37574">
        <ele>270.4</ele>
        <time>2025-05-29T12:35:07Z</time>
      </trkpt>
      <trkpt lat="44.54921" lon="1.37573">
        <ele>270.6</ele>
        <time>2025-05-29T12:35:08Z</time>
      </trkpt>
      <trkpt lat="44.54923" lon="1.37572">
        <ele>270.6</ele>
        <time>2025-05-29T12:35:09Z</time>
      </trkpt>
      <trkpt lat="44.54925" lon="1.37571">
        <ele>270.8</ele>
        <time>2025-05-29T12:35:10Z</time>
      </trkpt>
      <trkpt lat="44.54928" lon="1.3757">
        <ele>271</ele>
        <time>2025-05-29T12:35:11Z</time>
      </trkpt>
      <trkpt lat="44.5493" lon="1.37569">
        <ele>271.2</ele>
        <time>2025-05-29T12:35:12Z</time>
      </trkpt>
      <trkpt lat="44.54932" lon="1.37567">
        <ele>271.4</ele>
        <time>2025-05-29T12:35:13Z</time>
      </trkpt>
      <trkpt lat="44.54934" lon="1.37566">
        <ele>271.6</ele>
        <time>2025-05-29T12:35:14Z</time>
      </trkpt>
      <trkpt lat="44.54937" lon="1.37563">
        <ele>271.6</ele>
        <time>2025-05-29T12:35:15Z</time>
      </trkpt>
      <trkpt lat="44.54939" lon="1.37561">
        <ele>271.6</ele>
        <time>2025-05-29T12:35:16Z</time>
      </trkpt>
      <trkpt lat="44.54941" lon="1.37559">
        <ele>271.6</ele>
        <time>2025-05-29T12:35:17Z</time>
      </trkpt>
      <trkpt lat="44.54943" lon="1.37557">
        <ele>271.6</ele>
        <time>2025-05-29T12:35:18Z</time>
      </trkpt>
      <trkpt lat="44.54945" lon="1.37556">
        <ele>271.6</ele>
        <time>2025-05-29T12:35:19Z</time>
      </trkpt>
      <trkpt lat="44.54947" lon="1.37554">
        <ele>271.6</ele>
        <time>2025-05-29T12:35:20Z</time>
      </trkpt>
      <trkpt lat="44.54949" lon="1.37552">
        <ele>271.6</ele>
        <time>2025-05-29T12:35:21Z</time>
      </trkpt>
      <trkpt lat="44.54951" lon="1.3755">
        <ele>271.8</ele>
        <time>2025-05-29T12:35:22Z</time>
      </trkpt>
      <trkpt lat="44.54953" lon="1.37548">
        <ele>271.8</ele>
        <time>2025-05-29T12:35:23Z</time>
      </trkpt>
      <trkpt lat="44.54955" lon="1.37545">
        <ele>272</ele>
        <time>2025-05-29T12:35:24Z</time>
      </trkpt>
      <trkpt lat="44.54956" lon="1.37542">
        <ele>272.2</ele>
        <time>2025-05-29T12:35:25Z</time>
      </trkpt>
      <trkpt lat="44.54957" lon="1.3754">
        <ele>272.2</ele>
        <time>2025-05-29T12:35:26Z</time>
      </trkpt>
      <trkpt lat="44.54957" lon="1.37538">
        <ele>272.4</ele>
        <time>2025-05-29T12:35:27Z</time>
      </trkpt>
      <trkpt lat="44.54957" lon="1.37536">
        <ele>272.6</ele>
        <time>2025-05-29T12:35:28Z</time>
      </trkpt>
      <trkpt lat="44.54958" lon="1.37535">
        <ele>272.8</ele>
        <time>2025-05-29T12:35:29Z</time>
      </trkpt>
      <trkpt lat="44.54957" lon="1.37532">
        <ele>273</ele>
        <time>2025-05-29T12:35:30Z</time>
      </trkpt>
      <trkpt lat="44.54957" lon="1.3753">
        <ele>273.2</ele>
        <time>2025-05-29T12:35:31Z</time>
      </trkpt>
      <trkpt lat="44.54956" lon="1.37529">
        <ele>273.4</ele>
        <time>2025-05-29T12:35:32Z</time>
      </trkpt>
      <trkpt lat="44.54956" lon="1.37527">
        <ele>273.8</ele>
        <time>2025-05-29T12:35:33Z</time>
      </trkpt>
      <trkpt lat="44.54956" lon="1.37525">
        <ele>274</ele>
        <time>2025-05-29T12:35:34Z</time>
      </trkpt>
      <trkpt lat="44.54955" lon="1.37524">
        <ele>274.2</ele>
        <time>2025-05-29T12:35:35Z</time>
      </trkpt>
      <trkpt lat="44.54955" lon="1.37522">
        <ele>274.4</ele>
        <time>2025-05-29T12:35:36Z</time>
      </trkpt>
      <trkpt lat="44.54955" lon="1.37521">
        <ele>274.8</ele>
        <time>2025-05-29T12:35:37Z</time>
      </trkpt>
      <trkpt lat="44.54955" lon="1.37518">
        <ele>275</ele>
        <time>2025-05-29T12:35:38Z</time>
      </trkpt>
      <trkpt lat="44.54954" lon="1.37516">
        <ele>275.2</ele>
        <time>2025-05-29T12:35:39Z</time>
      </trkpt>
      <trkpt lat="44.54954" lon="1.37514">
        <ele>275.4</ele>
        <time>2025-05-29T12:35:40Z</time>
      </trkpt>
      <trkpt lat="44.54954" lon="1.37513">
        <ele>275.8</ele>
        <time>2025-05-29T12:35:41Z</time>
      </trkpt>
      <trkpt lat="44.54953" lon="1.37511">
        <ele>276</ele>
        <time>2025-05-29T12:35:42Z</time>
      </trkpt>
      <trkpt lat="44.54953" lon="1.3751">
        <ele>276.2</ele>
        <time>2025-05-29T12:35:43Z</time>
      </trkpt>
      <trkpt lat="44.54953" lon="1.37508">
        <ele>276.6</ele>
        <time>2025-05-29T12:35:44Z</time>
      </trkpt>
      <trkpt lat="44.54953" lon="1.37506">
        <ele>276.8</ele>
        <time>2025-05-29T12:35:45Z</time>
      </trkpt>
      <trkpt lat="44.54953" lon="1.37504">
        <ele>277</ele>
        <time>2025-05-29T12:35:46Z</time>
      </trkpt>
      <trkpt lat="44.54953" lon="1.37503">
        <ele>277.4</ele>
        <time>2025-05-29T12:35:47Z</time>
      </trkpt>
      <trkpt lat="44.54952" lon="1.37501">
        <ele>277.6</ele>
        <time>2025-05-29T12:35:48Z</time>
      </trkpt>
      <trkpt lat="44.54952" lon="1.37499">
        <ele>277.6</ele>
        <time>2025-05-29T12:35:49Z</time>
      </trkpt>
      <trkpt lat="44.5495" lon="1.37497">
        <ele>277.8</ele>
        <time>2025-05-29T12:35:50Z</time>
      </trkpt>
      <trkpt lat="44.54949" lon="1.37496">
        <ele>277.8</ele>
        <time>2025-05-29T12:35:51Z</time>
      </trkpt>
      <trkpt lat="44.54947" lon="1.37496">
        <ele>278</ele>
        <time>2025-05-29T12:35:52Z</time>
      </trkpt>
      <trkpt lat="44.54946" lon="1.37495">
        <ele>278</ele>
        <time>2025-05-29T12:35:53Z</time>
      </trkpt>
      <trkpt lat="44.54944" lon="1.37495">
        <ele>278</ele>
        <time>2025-05-29T12:35:54Z</time>
      </trkpt>
      <trkpt lat="44.54943" lon="1.37495">
        <ele>278.2</ele>
        <time>2025-05-29T12:35:55Z</time>
      </trkpt>
      <trkpt lat="44.54941" lon="1.37495">
        <ele>278.4</ele>
        <time>2025-05-29T12:35:56Z</time>
      </trkpt>
      <trkpt lat="44.54939" lon="1.37495">
        <ele>278.4</ele>
        <time>2025-05-29T12:35:57Z</time>
      </trkpt>
      <trkpt lat="44.54938" lon="1.37495">
        <ele>278.4</ele>
        <time>2025-05-29T12:35:58Z</time>
      </trkpt>
      <trkpt lat="44.54936" lon="1.37495">
        <ele>278.6</ele>
        <time>2025-05-29T12:35:59Z</time>
      </trkpt>
      <trkpt lat="44.54934" lon="1.37494">
        <ele>278.6</ele>
        <time>2025-05-29T12:36:00Z</time>
      </trkpt>
      <trkpt lat="44.54933" lon="1.37494">
        <ele>278.6</ele>
        <time>2025-05-29T12:36:01Z</time>
      </trkpt>
      <trkpt lat="44.54931" lon="1.37494">
        <ele>278.6</ele>
        <time>2025-05-29T12:36:02Z</time>
      </trkpt>
      <trkpt lat="44.54929" lon="1.37493">
        <ele>278.6</ele>
        <time>2025-05-29T12:36:03Z</time>
      </trkpt>
      <trkpt lat="44.54927" lon="1.37493">
        <ele>278.8</ele>
        <time>2025-05-29T12:36:04Z</time>
      </trkpt>
      <trkpt lat="44.54926" lon="1.37492">
        <ele>278.8</ele>
        <time>2025-05-29T12:36:05Z</time>
      </trkpt>
      <trkpt lat="44.54924" lon="1.37492">
        <ele>279</ele>
        <time>2025-05-29T12:36:06Z</time>
      </trkpt>
      <trkpt lat="44.54922" lon="1.37492">
        <ele>279</ele>
        <time>2025-05-29T12:36:07Z</time>
      </trkpt>
      <trkpt lat="44.5492" lon="1.37491">
        <ele>279.2</ele>
        <time>2025-05-29T12:36:08Z</time>
      </trkpt>
      <trkpt lat="44.54918" lon="1.37491">
        <ele>279.2</ele>
        <time>2025-05-29T12:36:09Z</time>
      </trkpt>
      <trkpt lat="44.54916" lon="1.3749">
        <ele>279.4</ele>
        <time>2025-05-29T12:36:10Z</time>
      </trkpt>
      <trkpt lat="44.54914" lon="1.3749">
        <ele>279.6</ele>
        <time>2025-05-29T12:36:11Z</time>
      </trkpt>
      <trkpt lat="44.54912" lon="1.3749">
        <ele>279.6</ele>
        <time>2025-05-29T12:36:12Z</time>
      </trkpt>
      <trkpt lat="44.54911" lon="1.37489">
        <ele>279.8</ele>
        <time>2025-05-29T12:36:13Z</time>
      </trkpt>
      <trkpt lat="44.54908" lon="1.37489">
        <ele>279.8</ele>
        <time>2025-05-29T12:36:14Z</time>
      </trkpt>
      <trkpt lat="44.54906" lon="1.37489">
        <ele>279.8</ele>
        <time>2025-05-29T12:36:15Z</time>
      </trkpt>
      <trkpt lat="44.54904" lon="1.37488">
        <ele>280</ele>
        <time>2025-05-29T12:36:16Z</time>
      </trkpt>
      <trkpt lat="44.54902" lon="1.37487">
        <ele>280</ele>
        <time>2025-05-29T12:36:17Z</time>
      </trkpt>
      <trkpt lat="44.549" lon="1.37487">
        <ele>280</ele>
        <time>2025-05-29T12:36:18Z</time>
      </trkpt>
      <trkpt lat="44.54898" lon="1.37486">
        <ele>280.2</ele>
        <time>2025-05-29T12:36:19Z</time>
      </trkpt>
      <trkpt lat="44.54896" lon="1.37485">
        <ele>280.4</ele>
        <time>2025-05-29T12:36:20Z</time>
      </trkpt>
      <trkpt lat="44.54894" lon="1.37484">
        <ele>280.4</ele>
        <time>2025-05-29T12:36:21Z</time>
      </trkpt>
      <trkpt lat="44.54892" lon="1.37484">
        <ele>280.6</ele>
        <time>2025-05-29T12:36:22Z</time>
      </trkpt>
      <trkpt lat="44.5489" lon="1.37483">
        <ele>280.8</ele>
        <time>2025-05-29T12:36:23Z</time>
      </trkpt>
      <trkpt lat="44.54888" lon="1.37483">
        <ele>280.8</ele>
        <time>2025-05-29T12:36:24Z</time>
      </trkpt>
      <trkpt lat="44.54886" lon="1.37482">
        <ele>280.8</ele>
        <time>2025-05-29T12:36:25Z</time>
      </trkpt>
      <trkpt lat="44.54884" lon="1.37482">
        <ele>281</ele>
        <time>2025-05-29T12:36:26Z</time>
      </trkpt>
      <trkpt lat="44.54882" lon="1.37481">
        <ele>281</ele>
        <time>2025-05-29T12:36:27Z</time>
      </trkpt>
      <trkpt lat="44.5488" lon="1.3748">
        <ele>281</ele>
        <time>2025-05-29T12:36:28Z</time>
      </trkpt>
      <trkpt lat="44.54878" lon="1.37479">
        <ele>281.2</ele>
        <time>2025-05-29T12:36:29Z</time>
      </trkpt>
      <trkpt lat="44.54876" lon="1.37479">
        <ele>281.2</ele>
        <time>2025-05-29T12:36:30Z</time>
      </trkpt>
      <trkpt lat="44.54874" lon="1.37478">
        <ele>281.2</ele>
        <time>2025-05-29T12:36:31Z</time>
      </trkpt>
      <trkpt lat="44.54872" lon="1.37477">
        <ele>281.4</ele>
        <time>2025-05-29T12:36:32Z</time>
      </trkpt>
      <trkpt lat="44.5487" lon="1.37476">
        <ele>281.4</ele>
        <time>2025-05-29T12:36:33Z</time>
      </trkpt>
      <trkpt lat="44.54868" lon="1.37475">
        <ele>281.4</ele>
        <time>2025-05-29T12:36:34Z</time>
      </trkpt>
      <trkpt lat="44.54865" lon="1.37474">
        <ele>281.6</ele>
        <time>2025-05-29T12:36:35Z</time>
      </trkpt>
      <trkpt lat="44.54863" lon="1.37474">
        <ele>281.6</ele>
        <time>2025-05-29T12:36:36Z</time>
      </trkpt>
      <trkpt lat="44.54861" lon="1.37473">
        <ele>281.8</ele>
        <time>2025-05-29T12:36:37Z</time>
      </trkpt>
      <trkpt lat="44.54859" lon="1.37472">
        <ele>281.8</ele>
        <time>2025-05-29T12:36:38Z</time>
      </trkpt>
      <trkpt lat="44.54857" lon="1.37471">
        <ele>281.8</ele>
        <time>2025-05-29T12:36:39Z</time>
      </trkpt>
      <trkpt lat="44.54855" lon="1.3747">
        <ele>282</ele>
        <time>2025-05-29T12:36:40Z</time>
      </trkpt>
      <trkpt lat="44.54852" lon="1.37469">
        <ele>282</ele>
        <time>2025-05-29T12:36:41Z</time>
      </trkpt>
      <trkpt lat="44.5485" lon="1.37467">
        <ele>282.2</ele>
        <time>2025-05-29T12:36:42Z</time>
      </trkpt>
      <trkpt lat="44.54848" lon="1.37466">
        <ele>282.2</ele>
        <time>2025-05-29T12:36:43Z</time>
      </trkpt>
      <trkpt lat="44.54845" lon="1.37466">
        <ele>282.4</ele>
        <time>2025-05-29T12:36:44Z</time>
      </trkpt>
      <trkpt lat="44.54843" lon="1.37464">
        <ele>282.6</ele>
        <time>2025-05-29T12:36:45Z</time>
      </trkpt>
      <trkpt lat="44.54841" lon="1.37463">
        <ele>282.6</ele>
        <time>2025-05-29T12:36:46Z</time>
      </trkpt>
      <trkpt lat="44.54839" lon="1.37462">
        <ele>282.8</ele>
        <time>2025-05-29T12:36:47Z</time>
      </trkpt>
      <trkpt lat="44.54836" lon="1.3746">
        <ele>282.8</ele>
        <time>2025-05-29T12:36:48Z</time>
      </trkpt>
      <trkpt lat="44.54834" lon="1.37459">
        <ele>283</ele>
        <time>2025-05-29T12:36:49Z</time>
      </trkpt>
      <trkpt lat="44.54832" lon="1.37458">
        <ele>283</ele>
        <time>2025-05-29T12:36:50Z</time>
      </trkpt>
      <trkpt lat="44.5483" lon="1.37457">
        <ele>283.2</ele>
        <time>2025-05-29T12:36:51Z</time>
      </trkpt>
      <trkpt lat="44.54828" lon="1.37455">
        <ele>283.2</ele>
        <time>2025-05-29T12:36:52Z</time>
      </trkpt>
      <trkpt lat="44.54826" lon="1.37454">
        <ele>283.4</ele>
        <time>2025-05-29T12:36:53Z</time>
      </trkpt>
      <trkpt lat="44.54824" lon="1.37452">
        <ele>283.4</ele>
        <time>2025-05-29T12:36:54Z</time>
      </trkpt>
      <trkpt lat="44.54822" lon="1.37451">
        <ele>283.6</ele>
        <time>2025-05-29T12:36:55Z</time>
      </trkpt>
      <trkpt lat="44.54819" lon="1.3745">
        <ele>283.6</ele>
        <time>2025-05-29T12:36:56Z</time>
      </trkpt>
      <trkpt lat="44.54817" lon="1.37448">
        <ele>283.8</ele>
        <time>2025-05-29T12:36:57Z</time>
      </trkpt>
      <trkpt lat="44.54815" lon="1.37447">
        <ele>283.8</ele>
        <time>2025-05-29T12:36:58Z</time>
      </trkpt>
      <trkpt lat="44.54813" lon="1.37445">
        <ele>284</ele>
        <time>2025-05-29T12:36:59Z</time>
      </trkpt>
      <trkpt lat="44.54811" lon="1.37444">
        <ele>284.2</ele>
        <time>2025-05-29T12:37:00Z</time>
      </trkpt>
      <trkpt lat="44.54808" lon="1.37443">
        <ele>284.4</ele>
        <time>2025-05-29T12:37:01Z</time>
      </trkpt>
      <trkpt lat="44.54806" lon="1.37442">
        <ele>284.6</ele>
        <time>2025-05-29T12:37:02Z</time>
      </trkpt>
      <trkpt lat="44.54804" lon="1.3744">
        <ele>284.6</ele>
        <time>2025-05-29T12:37:03Z</time>
      </trkpt>
      <trkpt lat="44.54802" lon="1.37439">
        <ele>284.8</ele>
        <time>2025-05-29T12:37:04Z</time>
      </trkpt>
      <trkpt lat="44.54799" lon="1.37437">
        <ele>284.8</ele>
        <time>2025-05-29T12:37:05Z</time>
      </trkpt>
      <trkpt lat="44.54797" lon="1.37435">
        <ele>285</ele>
        <time>2025-05-29T12:37:06Z</time>
      </trkpt>
      <trkpt lat="44.54795" lon="1.37434">
        <ele>285.2</ele>
        <time>2025-05-29T12:37:07Z</time>
      </trkpt>
      <trkpt lat="44.54792" lon="1.37432">
        <ele>285.4</ele>
        <time>2025-05-29T12:37:08Z</time>
      </trkpt>
      <trkpt lat="44.5479" lon="1.37431">
        <ele>285.4</ele>
        <time>2025-05-29T12:37:09Z</time>
      </trkpt>
      <trkpt lat="44.54788" lon="1.37429">
        <ele>285.6</ele>
        <time>2025-05-29T12:37:10Z</time>
      </trkpt>
      <trkpt lat="44.54786" lon="1.37428">
        <ele>285.8</ele>
        <time>2025-05-29T12:37:11Z</time>
      </trkpt>
      <trkpt lat="44.54784" lon="1.37426">
        <ele>286</ele>
        <time>2025-05-29T12:37:12Z</time>
      </trkpt>
      <trkpt lat="44.54782" lon="1.37424">
        <ele>286.2</ele>
        <time>2025-05-29T12:37:13Z</time>
      </trkpt>
      <trkpt lat="44.5478" lon="1.37422">
        <ele>286.4</ele>
        <time>2025-05-29T12:37:14Z</time>
      </trkpt>
      <trkpt lat="44.54778" lon="1.37421">
        <ele>286.4</ele>
        <time>2025-05-29T12:37:15Z</time>
      </trkpt>
      <trkpt lat="44.54776" lon="1.37419">
        <ele>286.6</ele>
        <time>2025-05-29T12:37:16Z</time>
      </trkpt>
      <trkpt lat="44.54774" lon="1.37417">
        <ele>286.8</ele>
        <time>2025-05-29T12:37:17Z</time>
      </trkpt>
      <trkpt lat="44.54772" lon="1.37416">
        <ele>286.8</ele>
        <time>2025-05-29T12:37:18Z</time>
      </trkpt>
      <trkpt lat="44.5477" lon="1.37414">
        <ele>287</ele>
        <time>2025-05-29T12:37:19Z</time>
      </trkpt>
      <trkpt lat="44.54768" lon="1.37412">
        <ele>287</ele>
        <time>2025-05-29T12:37:20Z</time>
      </trkpt>
      <trkpt lat="44.54765" lon="1.3741">
        <ele>287.2</ele>
        <time>2025-05-29T12:37:21Z</time>
      </trkpt>
      <trkpt lat="44.54763" lon="1.37408">
        <ele>287.4</ele>
        <time>2025-05-29T12:37:22Z</time>
      </trkpt>
      <trkpt lat="44.54761" lon="1.37407">
        <ele>287.4</ele>
        <time>2025-05-29T12:37:23Z</time>
      </trkpt>
      <trkpt lat="44.54759" lon="1.37405">
        <ele>287.4</ele>
        <time>2025-05-29T12:37:24Z</time>
      </trkpt>
      <trkpt lat="44.54757" lon="1.37403">
        <ele>287.6</ele>
        <time>2025-05-29T12:37:25Z</time>
      </trkpt>
      <trkpt lat="44.54755" lon="1.37401">
        <ele>287.6</ele>
        <time>2025-05-29T12:37:26Z</time>
      </trkpt>
      <trkpt lat="44.54753" lon="1.37399">
        <ele>287.6</ele>
        <time>2025-05-29T12:37:27Z</time>
      </trkpt>
      <trkpt lat="44.54751" lon="1.37397">
        <ele>287.6</ele>
        <time>2025-05-29T12:37:28Z</time>
      </trkpt>
      <trkpt lat="44.54749" lon="1.37394">
        <ele>287.6</ele>
        <time>2025-05-29T12:37:29Z</time>
      </trkpt>
      <trkpt lat="44.54747" lon="1.37392">
        <ele>287.6</ele>
        <time>2025-05-29T12:37:30Z</time>
      </trkpt>
      <trkpt lat="44.54745" lon="1.3739">
        <ele>287.8</ele>
        <time>2025-05-29T12:37:31Z</time>
      </trkpt>
      <trkpt lat="44.54743" lon="1.37388">
        <ele>287.8</ele>
        <time>2025-05-29T12:37:32Z</time>
      </trkpt>
      <trkpt lat="44.54742" lon="1.37386">
        <ele>288</ele>
        <time>2025-05-29T12:37:33Z</time>
      </trkpt>
      <trkpt lat="44.54739" lon="1.37384">
        <ele>288.2</ele>
        <time>2025-05-29T12:37:34Z</time>
      </trkpt>
      <trkpt lat="44.54738" lon="1.37383">
        <ele>288.4</ele>
        <time>2025-05-29T12:37:35Z</time>
      </trkpt>
      <trkpt lat="44.54736" lon="1.37381">
        <ele>288.6</ele>
        <time>2025-05-29T12:37:36Z</time>
      </trkpt>
      <trkpt lat="44.54734" lon="1.37379">
        <ele>288.8</ele>
        <time>2025-05-29T12:37:37Z</time>
      </trkpt>
      <trkpt lat="44.54732" lon="1.37377">
        <ele>289</ele>
        <time>2025-05-29T12:37:38Z</time>
      </trkpt>
      <trkpt lat="44.5473" lon="1.37375">
        <ele>289.2</ele>
        <time>2025-05-29T12:37:39Z</time>
      </trkpt>
      <trkpt lat="44.54728" lon="1.37373">
        <ele>289.2</ele>
        <time>2025-05-29T12:37:40Z</time>
      </trkpt>
      <trkpt lat="44.54726" lon="1.37371">
        <ele>289.4</ele>
        <time>2025-05-29T12:37:41Z</time>
      </trkpt>
      <trkpt lat="44.54724" lon="1.37369">
        <ele>289.4</ele>
        <time>2025-05-29T12:37:42Z</time>
      </trkpt>
      <trkpt lat="44.54722" lon="1.37367">
        <ele>289.6</ele>
        <time>2025-05-29T12:37:43Z</time>
      </trkpt>
      <trkpt lat="44.5472" lon="1.37365">
        <ele>289.8</ele>
        <time>2025-05-29T12:37:44Z</time>
      </trkpt>
      <trkpt lat="44.54718" lon="1.37363">
        <ele>290</ele>
        <time>2025-05-29T12:37:45Z</time>
      </trkpt>
      <trkpt lat="44.54716" lon="1.37361">
        <ele>290.2</ele>
        <time>2025-05-29T12:37:46Z</time>
      </trkpt>
      <trkpt lat="44.54714" lon="1.37359">
        <ele>290.2</ele>
        <time>2025-05-29T12:37:47Z</time>
      </trkpt>
      <trkpt lat="44.54712" lon="1.37357">
        <ele>290.4</ele>
        <time>2025-05-29T12:37:48Z</time>
      </trkpt>
      <trkpt lat="44.54711" lon="1.37355">
        <ele>290.6</ele>
        <time>2025-05-29T12:37:49Z</time>
      </trkpt>
      <trkpt lat="44.54709" lon="1.37352">
        <ele>290.6</ele>
        <time>2025-05-29T12:37:50Z</time>
      </trkpt>
      <trkpt lat="44.54707" lon="1.3735">
        <ele>290.8</ele>
        <time>2025-05-29T12:37:51Z</time>
      </trkpt>
      <trkpt lat="44.54705" lon="1.37348">
        <ele>290.8</ele>
        <time>2025-05-29T12:37:52Z</time>
      </trkpt>
      <trkpt lat="44.54703" lon="1.37345">
        <ele>291</ele>
        <time>2025-05-29T12:37:53Z</time>
      </trkpt>
      <trkpt lat="44.54701" lon="1.37343">
        <ele>291</ele>
        <time>2025-05-29T12:37:54Z</time>
      </trkpt>
      <trkpt lat="44.547" lon="1.37341">
        <ele>291.2</ele>
        <time>2025-05-29T12:37:55Z</time>
      </trkpt>
      <trkpt lat="44.54698" lon="1.37339">
        <ele>291.2</ele>
        <time>2025-05-29T12:37:56Z</time>
      </trkpt>
      <trkpt lat="44.54696" lon="1.37337">
        <ele>291.4</ele>
        <time>2025-05-29T12:37:57Z</time>
      </trkpt>
      <trkpt lat="44.54694" lon="1.37335">
        <ele>291.4</ele>
        <time>2025-05-29T12:37:58Z</time>
      </trkpt>
      <trkpt lat="44.54692" lon="1.37334">
        <ele>291.6</ele>
        <time>2025-05-29T12:37:59Z</time>
      </trkpt>
      <trkpt lat="44.5469" lon="1.37332">
        <ele>291.6</ele>
        <time>2025-05-29T12:38:00Z</time>
      </trkpt>
      <trkpt lat="44.54688" lon="1.3733">
        <ele>291.8</ele>
        <time>2025-05-29T12:38:01Z</time>
      </trkpt>
      <trkpt lat="44.54686" lon="1.37328">
        <ele>292</ele>
        <time>2025-05-29T12:38:02Z</time>
      </trkpt>
      <trkpt lat="44.54684" lon="1.37326">
        <ele>292</ele>
        <time>2025-05-29T12:38:03Z</time>
      </trkpt>
      <trkpt lat="44.54681" lon="1.37325">
        <ele>292.4</ele>
        <time>2025-05-29T12:38:04Z</time>
      </trkpt>
      <trkpt lat="44.54679" lon="1.37324">
        <ele>292.8</ele>
        <time>2025-05-29T12:38:05Z</time>
      </trkpt>
      <trkpt lat="44.54677" lon="1.37323">
        <ele>293.2</ele>
        <time>2025-05-29T12:38:06Z</time>
      </trkpt>
      <trkpt lat="44.54675" lon="1.37322">
        <ele>293</ele>
        <time>2025-05-29T12:38:07Z</time>
      </trkpt>
      <trkpt lat="44.54673" lon="1.3732">
        <ele>292.6</ele>
        <time>2025-05-29T12:38:08Z</time>
      </trkpt>
      <trkpt lat="44.54671" lon="1.37319">
        <ele>292.2</ele>
        <time>2025-05-29T12:38:09Z</time>
      </trkpt>
      <trkpt lat="44.54669" lon="1.37318">
        <ele>292.2</ele>
        <time>2025-05-29T12:38:10Z</time>
      </trkpt>
      <trkpt lat="44.54666" lon="1.37318">
        <ele>292.2</ele>
        <time>2025-05-29T12:38:11Z</time>
      </trkpt>
      <trkpt lat="44.54664" lon="1.37317">
        <ele>292.4</ele>
        <time>2025-05-29T12:38:12Z</time>
      </trkpt>
      <trkpt lat="44.54661" lon="1.37316">
        <ele>292.8</ele>
        <time>2025-05-29T12:38:13Z</time>
      </trkpt>
      <trkpt lat="44.54659" lon="1.37315">
        <ele>293</ele>
        <time>2025-05-29T12:38:14Z</time>
      </trkpt>
      <trkpt lat="44.54657" lon="1.37312">
        <ele>293</ele>
        <time>2025-05-29T12:38:15Z</time>
      </trkpt>
      <trkpt lat="44.54657" lon="1.37309">
        <ele>293.2</ele>
        <time>2025-05-29T12:38:16Z</time>
      </trkpt>
      <trkpt lat="44.54657" lon="1.37307">
        <ele>293.2</ele>
        <time>2025-05-29T12:38:17Z</time>
      </trkpt>
      <trkpt lat="44.54657" lon="1.37305">
        <ele>293.4</ele>
        <time>2025-05-29T12:38:18Z</time>
      </trkpt>
      <trkpt lat="44.54658" lon="1.37304">
        <ele>293.4</ele>
        <time>2025-05-29T12:38:19Z</time>
      </trkpt>
      <trkpt lat="44.5466" lon="1.37303">
        <ele>293.6</ele>
        <time>2025-05-29T12:38:20Z</time>
      </trkpt>
      <trkpt lat="44.54662" lon="1.37302">
        <ele>293.8</ele>
        <time>2025-05-29T12:38:21Z</time>
      </trkpt>
      <trkpt lat="44.54665" lon="1.37301">
        <ele>293.8</ele>
        <time>2025-05-29T12:38:22Z</time>
      </trkpt>
      <trkpt lat="44.54668" lon="1.373">
        <ele>294</ele>
        <time>2025-05-29T12:38:23Z</time>
      </trkpt>
      <trkpt lat="44.5467" lon="1.37299">
        <ele>294</ele>
        <time>2025-05-29T12:38:24Z</time>
      </trkpt>
      <trkpt lat="44.54673" lon="1.37297">
        <ele>294</ele>
        <time>2025-05-29T12:38:25Z</time>
      </trkpt>
      <trkpt lat="44.54675" lon="1.37296">
        <ele>294</ele>
        <time>2025-05-29T12:38:26Z</time>
      </trkpt>
      <trkpt lat="44.54678" lon="1.37294">
        <ele>294</ele>
        <time>2025-05-29T12:38:27Z</time>
      </trkpt>
      <trkpt lat="44.5468" lon="1.37293">
        <ele>294</ele>
        <time>2025-05-29T12:38:28Z</time>
      </trkpt>
      <trkpt lat="44.54682" lon="1.37292">
        <ele>293.8</ele>
        <time>2025-05-29T12:38:29Z</time>
      </trkpt>
      <trkpt lat="44.54685" lon="1.37291">
        <ele>293.8</ele>
        <time>2025-05-29T12:38:30Z</time>
      </trkpt>
      <trkpt lat="44.54687" lon="1.3729">
        <ele>293.8</ele>
        <time>2025-05-29T12:38:31Z</time>
      </trkpt>
      <trkpt lat="44.54689" lon="1.37288">
        <ele>293.8</ele>
        <time>2025-05-29T12:38:32Z</time>
      </trkpt>
      <trkpt lat="44.54691" lon="1.37287">
        <ele>293.8</ele>
        <time>2025-05-29T12:38:33Z</time>
      </trkpt>
      <trkpt lat="44.54694" lon="1.37285">
        <ele>293.6</ele>
        <time>2025-05-29T12:38:34Z</time>
      </trkpt>
      <trkpt lat="44.54697" lon="1.37283">
        <ele>293.6</ele>
        <time>2025-05-29T12:38:35Z</time>
      </trkpt>
      <trkpt lat="44.54699" lon="1.37282">
        <ele>293.6</ele>
        <time>2025-05-29T12:38:36Z</time>
      </trkpt>
      <trkpt lat="44.54702" lon="1.3728">
        <ele>293.6</ele>
        <time>2025-05-29T12:38:37Z</time>
      </trkpt>
      <trkpt lat="44.54705" lon="1.37278">
        <ele>293.4</ele>
        <time>2025-05-29T12:38:38Z</time>
      </trkpt>
      <trkpt lat="44.54709" lon="1.37276">
        <ele>293.4</ele>
        <time>2025-05-29T12:38:39Z</time>
      </trkpt>
      <trkpt lat="44.54711" lon="1.37275">
        <ele>293.4</ele>
        <time>2025-05-29T12:38:40Z</time>
      </trkpt>
      <trkpt lat="44.54714" lon="1.37274">
        <ele>293.6</ele>
        <time>2025-05-29T12:38:41Z</time>
      </trkpt>
      <trkpt lat="44.54717" lon="1.37273">
        <ele>293.6</ele>
        <time>2025-05-29T12:38:42Z</time>
      </trkpt>
      <trkpt lat="44.54721" lon="1.37272">
        <ele>293.6</ele>
        <time>2025-05-29T12:38:43Z</time>
      </trkpt>
      <trkpt lat="44.54723" lon="1.37272">
        <ele>293.6</ele>
        <time>2025-05-29T12:38:44Z</time>
      </trkpt>
      <trkpt lat="44.54726" lon="1.37272">
        <ele>293.8</ele>
        <time>2025-05-29T12:38:45Z</time>
      </trkpt>
      <trkpt lat="44.54725" lon="1.37269">
        <ele>293.6</ele>
        <time>2025-05-29T12:38:57Z</time>
      </trkpt>
      <trkpt lat="44.54722" lon="1.37266">
        <ele>293.4</ele>
        <time>2025-05-29T12:38:58Z</time>
      </trkpt>
      <trkpt lat="44.54719" lon="1.37264">
        <ele>293.2</ele>
        <time>2025-05-29T12:38:59Z</time>
      </trkpt>
      <trkpt lat="44.54715" lon="1.37262">
        <ele>293</ele>
        <time>2025-05-29T12:39:00Z</time>
      </trkpt>
      <trkpt lat="44.54712" lon="1.37261">
        <ele>292.8</ele>
        <time>2025-05-29T12:39:01Z</time>
      </trkpt>
      <trkpt lat="44.54709" lon="1.37261">
        <ele>292.6</ele>
        <time>2025-05-29T12:39:02Z</time>
      </trkpt>
      <trkpt lat="44.54706" lon="1.3726">
        <ele>292.6</ele>
        <time>2025-05-29T12:39:03Z</time>
      </trkpt>
      <trkpt lat="44.54702" lon="1.37259">
        <ele>292.6</ele>
        <time>2025-05-29T12:39:04Z</time>
      </trkpt>
      <trkpt lat="44.54699" lon="1.37259">
        <ele>292.6</ele>
        <time>2025-05-29T12:39:05Z</time>
      </trkpt>
      <trkpt lat="44.54696" lon="1.37258">
        <ele>292.6</ele>
        <time>2025-05-29T12:39:06Z</time>
      </trkpt>
      <trkpt lat="44.54693" lon="1.37258">
        <ele>292.8</ele>
        <time>2025-05-29T12:39:07Z</time>
      </trkpt>
      <trkpt lat="44.5469" lon="1.37258">
        <ele>292.8</ele>
        <time>2025-05-29T12:39:08Z</time>
      </trkpt>
      <trkpt lat="44.54686" lon="1.37258">
        <ele>292.8</ele>
        <time>2025-05-29T12:39:09Z</time>
      </trkpt>
      <trkpt lat="44.54683" lon="1.37258">
        <ele>292.8</ele>
        <time>2025-05-29T12:39:10Z</time>
      </trkpt>
      <trkpt lat="44.5468" lon="1.37258">
        <ele>292.8</ele>
        <time>2025-05-29T12:39:11Z</time>
      </trkpt>
      <trkpt lat="44.54676" lon="1.37258">
        <ele>292.8</ele>
        <time>2025-05-29T12:39:12Z</time>
      </trkpt>
      <trkpt lat="44.54673" lon="1.37259">
        <ele>292.8</ele>
        <time>2025-05-29T12:39:13Z</time>
      </trkpt>
      <trkpt lat="44.54668" lon="1.37259">
        <ele>292.8</ele>
        <time>2025-05-29T12:39:14Z</time>
      </trkpt>
      <trkpt lat="44.54665" lon="1.3726">
        <ele>292.8</ele>
        <time>2025-05-29T12:39:15Z</time>
      </trkpt>
      <trkpt lat="44.54661" lon="1.3726">
        <ele>292.8</ele>
        <time>2025-05-29T12:39:16Z</time>
      </trkpt>
      <trkpt lat="44.54657" lon="1.37261">
        <ele>292.8</ele>
        <time>2025-05-29T12:39:17Z</time>
      </trkpt>
      <trkpt lat="44.54654" lon="1.37262">
        <ele>292.8</ele>
        <time>2025-05-29T12:39:18Z</time>
      </trkpt>
      <trkpt lat="44.5465" lon="1.37263">
        <ele>292.6</ele>
        <time>2025-05-29T12:39:19Z</time>
      </trkpt>
      <trkpt lat="44.54646" lon="1.37264">
        <ele>292.8</ele>
        <time>2025-05-29T12:39:20Z</time>
      </trkpt>
      <trkpt lat="44.54642" lon="1.37265">
        <ele>292.8</ele>
        <time>2025-05-29T12:39:21Z</time>
      </trkpt>
      <trkpt lat="44.54638" lon="1.37266">
        <ele>292.6</ele>
        <time>2025-05-29T12:39:22Z</time>
      </trkpt>
      <trkpt lat="44.54635" lon="1.37267">
        <ele>292.8</ele>
        <time>2025-05-29T12:39:23Z</time>
      </trkpt>
      <trkpt lat="44.54633" lon="1.37268">
        <ele>292.8</ele>
        <time>2025-05-29T12:39:24Z</time>
      </trkpt>
      <trkpt lat="44.54631" lon="1.37268">
        <ele>292.8</ele>
        <time>2025-05-29T12:39:25Z</time>
      </trkpt>
      <trkpt lat="44.54629" lon="1.37269">
        <ele>293</ele>
        <time>2025-05-29T12:39:26Z</time>
      </trkpt>
      <trkpt lat="44.54627" lon="1.3727">
        <ele>293.2</ele>
        <time>2025-05-29T12:39:27Z</time>
      </trkpt>
      <trkpt lat="44.54625" lon="1.3727">
        <ele>292.4</ele>
        <time>2025-05-29T12:42:19Z</time>
      </trkpt>
      <trkpt lat="44.54623" lon="1.37271">
        <ele>292.4</ele>
        <time>2025-05-29T12:42:20Z</time>
      </trkpt>
      <trkpt lat="44.5462" lon="1.37272">
        <ele>292.2</ele>
        <time>2025-05-29T12:42:21Z</time>
      </trkpt>
      <trkpt lat="44.54616" lon="1.37273">
        <ele>292.2</ele>
        <time>2025-05-29T12:42:22Z</time>
      </trkpt>
      <trkpt lat="44.54613" lon="1.37274">
        <ele>292.2</ele>
        <time>2025-05-29T12:42:23Z</time>
      </trkpt>
      <trkpt lat="44.54609" lon="1.37275">
        <ele>292.4</ele>
        <time>2025-05-29T12:42:24Z</time>
      </trkpt>
      <trkpt lat="44.54605" lon="1.37276">
        <ele>292.4</ele>
        <time>2025-05-29T12:42:25Z</time>
      </trkpt>
      <trkpt lat="44.54602" lon="1.37277">
        <ele>292.6</ele>
        <time>2025-05-29T12:42:26Z</time>
      </trkpt>
      <trkpt lat="44.54598" lon="1.37278">
        <ele>292.6</ele>
        <time>2025-05-29T12:42:27Z</time>
      </trkpt>
      <trkpt lat="44.54594" lon="1.37279">
        <ele>292.8</ele>
        <time>2025-05-29T12:42:28Z</time>
      </trkpt>
      <trkpt lat="44.54589" lon="1.3728">
        <ele>292.6</ele>
        <time>2025-05-29T12:42:29Z</time>
      </trkpt>
      <trkpt lat="44.54585" lon="1.37281">
        <ele>292.6</ele>
        <time>2025-05-29T12:42:30Z</time>
      </trkpt>
      <trkpt lat="44.54581" lon="1.37282">
        <ele>292.6</ele>
        <time>2025-05-29T12:42:31Z</time>
      </trkpt>
      <trkpt lat="44.54575" lon="1.37283">
        <ele>292.4</ele>
        <time>2025-05-29T12:42:32Z</time>
      </trkpt>
      <trkpt lat="44.5457" lon="1.37283">
        <ele>292</ele>
        <time>2025-05-29T12:42:33Z</time>
      </trkpt>
      <trkpt lat="44.54565" lon="1.37284">
        <ele>291.8</ele>
        <time>2025-05-29T12:42:34Z</time>
      </trkpt>
      <trkpt lat="44.54558" lon="1.37283">
        <ele>291.4</ele>
        <time>2025-05-29T12:42:35Z</time>
      </trkpt>
      <trkpt lat="44.54552" lon="1.37282">
        <ele>291</ele>
        <time>2025-05-29T12:42:36Z</time>
      </trkpt>
      <trkpt lat="44.54546" lon="1.37282">
        <ele>290.4</ele>
        <time>2025-05-29T12:42:37Z</time>
      </trkpt>
      <trkpt lat="44.5454" lon="1.37281">
        <ele>290.2</ele>
        <time>2025-05-29T12:42:38Z</time>
      </trkpt>
      <trkpt lat="44.54534" lon="1.3728">
        <ele>290</ele>
        <time>2025-05-29T12:42:39Z</time>
      </trkpt>
      <trkpt lat="44.54528" lon="1.3728">
        <ele>289.6</ele>
        <time>2025-05-29T12:42:40Z</time>
      </trkpt>
      <trkpt lat="44.54523" lon="1.3728">
        <ele>289.6</ele>
        <time>2025-05-29T12:42:41Z</time>
      </trkpt>
      <trkpt lat="44.54518" lon="1.3728">
        <ele>289.6</ele>
        <time>2025-05-29T12:42:42Z</time>
      </trkpt>
      <trkpt lat="44.54513" lon="1.37279">
        <ele>289.6</ele>
        <time>2025-05-29T12:42:43Z</time>
      </trkpt>
      <trkpt lat="44.54508" lon="1.37277">
        <ele>289.8</ele>
        <time>2025-05-29T12:42:44Z</time>
      </trkpt>
      <trkpt lat="44.54504" lon="1.37274">
        <ele>289.8</ele>
        <time>2025-05-29T12:42:45Z</time>
      </trkpt>
      <trkpt lat="44.54499" lon="1.37272">
        <ele>290</ele>
        <time>2025-05-29T12:42:46Z</time>
      </trkpt>
      <trkpt lat="44.54495" lon="1.37271">
        <ele>290</ele>
        <time>2025-05-29T12:42:47Z</time>
      </trkpt>
      <trkpt lat="44.54491" lon="1.3727">
        <ele>290.2</ele>
        <time>2025-05-29T12:42:48Z</time>
      </trkpt>
      <trkpt lat="44.54488" lon="1.37269">
        <ele>290.2</ele>
        <time>2025-05-29T12:42:49Z</time>
      </trkpt>
      <trkpt lat="44.54484" lon="1.37268">
        <ele>290.4</ele>
        <time>2025-05-29T12:42:50Z</time>
      </trkpt>
      <trkpt lat="44.54481" lon="1.37267">
        <ele>290.4</ele>
        <time>2025-05-29T12:42:51Z</time>
      </trkpt>
      <trkpt lat="44.54477" lon="1.37265">
        <ele>290.6</ele>
        <time>2025-05-29T12:42:52Z</time>
      </trkpt>
      <trkpt lat="44.54474" lon="1.37264">
        <ele>290.8</ele>
        <time>2025-05-29T12:42:53Z</time>
      </trkpt>
      <trkpt lat="44.5447" lon="1.37263">
        <ele>291</ele>
        <time>2025-05-29T12:42:54Z</time>
      </trkpt>
      <trkpt lat="44.54467" lon="1.37261">
        <ele>291.2</ele>
        <time>2025-05-29T12:42:55Z</time>
      </trkpt>
      <trkpt lat="44.54464" lon="1.37261">
        <ele>291.2</ele>
        <time>2025-05-29T12:42:56Z</time>
      </trkpt>
      <trkpt lat="44.5446" lon="1.37259">
        <ele>291.4</ele>
        <time>2025-05-29T12:42:57Z</time>
      </trkpt>
      <trkpt lat="44.54456" lon="1.37258">
        <ele>291.6</ele>
        <time>2025-05-29T12:42:58Z</time>
      </trkpt>
      <trkpt lat="44.54452" lon="1.37256">
        <ele>291.6</ele>
        <time>2025-05-29T12:42:59Z</time>
      </trkpt>
      <trkpt lat="44.54448" lon="1.37254">
        <ele>291.8</ele>
        <time>2025-05-29T12:43:00Z</time>
      </trkpt>
      <trkpt lat="44.54444" lon="1.37253">
        <ele>292</ele>
        <time>2025-05-29T12:43:01Z</time>
      </trkpt>
      <trkpt lat="44.54441" lon="1.37251">
        <ele>292</ele>
        <time>2025-05-29T12:43:02Z</time>
      </trkpt>
      <trkpt lat="44.54437" lon="1.3725">
        <ele>292</ele>
        <time>2025-05-29T12:43:03Z</time>
      </trkpt>
      <trkpt lat="44.54433" lon="1.37249">
        <ele>292.2</ele>
        <time>2025-05-29T12:43:04Z</time>
      </trkpt>
      <trkpt lat="44.5443" lon="1.37246">
        <ele>292</ele>
        <time>2025-05-29T12:43:05Z</time>
      </trkpt>
      <trkpt lat="44.54427" lon="1.37244">
        <ele>291.8</ele>
        <time>2025-05-29T12:43:06Z</time>
      </trkpt>
      <trkpt lat="44.54423" lon="1.37242">
        <ele>291.8</ele>
        <time>2025-05-29T12:43:07Z</time>
      </trkpt>
      <trkpt lat="44.54419" lon="1.37241">
        <ele>291.6</ele>
        <time>2025-05-29T12:43:08Z</time>
      </trkpt>
      <trkpt lat="44.54414" lon="1.3724">
        <ele>291.4</ele>
        <time>2025-05-29T12:43:09Z</time>
      </trkpt>
      <trkpt lat="44.54409" lon="1.37239">
        <ele>291.4</ele>
        <time>2025-05-29T12:43:10Z</time>
      </trkpt>
      <trkpt lat="44.54405" lon="1.37237">
        <ele>291.4</ele>
        <time>2025-05-29T12:43:11Z</time>
      </trkpt>
      <trkpt lat="44.544" lon="1.37235">
        <ele>291.2</ele>
        <time>2025-05-29T12:43:12Z</time>
      </trkpt>
      <trkpt lat="44.54396" lon="1.37234">
        <ele>291.2</ele>
        <time>2025-05-29T12:43:13Z</time>
      </trkpt>
      <trkpt lat="44.54391" lon="1.37231">
        <ele>291.2</ele>
        <time>2025-05-29T12:43:14Z</time>
      </trkpt>
      <trkpt lat="44.54387" lon="1.37229">
        <ele>291.2</ele>
        <time>2025-05-29T12:43:15Z</time>
      </trkpt>
      <trkpt lat="44.54383" lon="1.37227">
        <ele>291.4</ele>
        <time>2025-05-29T12:43:16Z</time>
      </trkpt>
      <trkpt lat="44.54379" lon="1.37226">
        <ele>291.4</ele>
        <time>2025-05-29T12:43:17Z</time>
      </trkpt>
      <trkpt lat="44.54374" lon="1.37225">
        <ele>291.4</ele>
        <time>2025-05-29T12:43:18Z</time>
      </trkpt>
      <trkpt lat="44.5437" lon="1.37224">
        <ele>291.2</ele>
        <time>2025-05-29T12:43:19Z</time>
      </trkpt>
      <trkpt lat="44.54365" lon="1.37222">
        <ele>291.2</ele>
        <time>2025-05-29T12:43:20Z</time>
      </trkpt>
      <trkpt lat="44.54361" lon="1.3722">
        <ele>291.2</ele>
        <time>2025-05-29T12:43:21Z</time>
      </trkpt>
      <trkpt lat="44.54356" lon="1.37218">
        <ele>291.2</ele>
        <time>2025-05-29T12:43:22Z</time>
      </trkpt>
      <trkpt lat="44.54351" lon="1.37217">
        <ele>291.2</ele>
        <time>2025-05-29T12:43:23Z</time>
      </trkpt>
      <trkpt lat="44.54347" lon="1.37215">
        <ele>291.2</ele>
        <time>2025-05-29T12:43:24Z</time>
      </trkpt>
      <trkpt lat="44.54342" lon="1.37213">
        <ele>291.2</ele>
        <time>2025-05-29T12:43:25Z</time>
      </trkpt>
      <trkpt lat="44.54337" lon="1.37211">
        <ele>291</ele>
        <time>2025-05-29T12:43:26Z</time>
      </trkpt>
      <trkpt lat="44.54332" lon="1.37209">
        <ele>291.2</ele>
        <time>2025-05-29T12:43:27Z</time>
      </trkpt>
      <trkpt lat="44.54327" lon="1.37208">
        <ele>291.2</ele>
        <time>2025-05-29T12:43:28Z</time>
      </trkpt>
      <trkpt lat="44.54323" lon="1.37205">
        <ele>291.2</ele>
        <time>2025-05-29T12:43:29Z</time>
      </trkpt>
      <trkpt lat="44.54318" lon="1.37203">
        <ele>291.2</ele>
        <time>2025-05-29T12:43:30Z</time>
      </trkpt>
      <trkpt lat="44.54314" lon="1.37202">
        <ele>291.4</ele>
        <time>2025-05-29T12:43:31Z</time>
      </trkpt>
      <trkpt lat="44.54309" lon="1.37199">
        <ele>291.2</ele>
        <time>2025-05-29T12:43:32Z</time>
      </trkpt>
      <trkpt lat="44.54304" lon="1.37198">
        <ele>291</ele>
        <time>2025-05-29T12:43:33Z</time>
      </trkpt>
      <trkpt lat="44.54298" lon="1.37197">
        <ele>290.8</ele>
        <time>2025-05-29T12:43:34Z</time>
      </trkpt>
      <trkpt lat="44.54293" lon="1.37195">
        <ele>290.6</ele>
        <time>2025-05-29T12:43:35Z</time>
      </trkpt>
      <trkpt lat="44.54287" lon="1.37194">
        <ele>290.2</ele>
        <time>2025-05-29T12:43:36Z</time>
      </trkpt>
      <trkpt lat="44.54281" lon="1.37193">
        <ele>290</ele>
        <time>2025-05-29T12:43:37Z</time>
      </trkpt>
      <trkpt lat="44.54275" lon="1.37193">
        <ele>290</ele>
        <time>2025-05-29T12:43:38Z</time>
      </trkpt>
      <trkpt lat="44.54269" lon="1.37192">
        <ele>289.8</ele>
        <time>2025-05-29T12:43:39Z</time>
      </trkpt>
      <trkpt lat="44.54264" lon="1.37191">
        <ele>289.8</ele>
        <time>2025-05-29T12:43:40Z</time>
      </trkpt>
      <trkpt lat="44.54258" lon="1.37189">
        <ele>289.8</ele>
        <time>2025-05-29T12:43:41Z</time>
      </trkpt>
      <trkpt lat="44.54253" lon="1.37189">
        <ele>289.8</ele>
        <time>2025-05-29T12:43:42Z</time>
      </trkpt>
      <trkpt lat="44.54248" lon="1.37187">
        <ele>289.8</ele>
        <time>2025-05-29T12:43:43Z</time>
      </trkpt>
      <trkpt lat="44.54242" lon="1.37186">
        <ele>289.8</ele>
        <time>2025-05-29T12:43:44Z</time>
      </trkpt>
      <trkpt lat="44.54236" lon="1.37184">
        <ele>290</ele>
        <time>2025-05-29T12:43:45Z</time>
      </trkpt>
      <trkpt lat="44.5423" lon="1.37183">
        <ele>290</ele>
        <time>2025-05-29T12:43:46Z</time>
      </trkpt>
      <trkpt lat="44.54224" lon="1.37181">
        <ele>290</ele>
        <time>2025-05-29T12:43:47Z</time>
      </trkpt>
      <trkpt lat="44.54219" lon="1.37179">
        <ele>290.2</ele>
        <time>2025-05-29T12:43:48Z</time>
      </trkpt>
      <trkpt lat="44.54213" lon="1.37178">
        <ele>290</ele>
        <time>2025-05-29T12:43:49Z</time>
      </trkpt>
      <trkpt lat="44.54208" lon="1.37177">
        <ele>290</ele>
        <time>2025-05-29T12:43:50Z</time>
      </trkpt>
      <trkpt lat="44.54202" lon="1.37176">
        <ele>290</ele>
        <time>2025-05-29T12:43:51Z</time>
      </trkpt>
      <trkpt lat="44.54196" lon="1.37175">
        <ele>289.8</ele>
        <time>2025-05-29T12:43:52Z</time>
      </trkpt>
      <trkpt lat="44.54189" lon="1.37175">
        <ele>289.4</ele>
        <time>2025-05-29T12:43:53Z</time>
      </trkpt>
      <trkpt lat="44.54182" lon="1.37176">
        <ele>289.2</ele>
        <time>2025-05-29T12:43:54Z</time>
      </trkpt>
      <trkpt lat="44.54175" lon="1.37177">
        <ele>289</ele>
        <time>2025-05-29T12:43:55Z</time>
      </trkpt>
      <trkpt lat="44.54169" lon="1.37177">
        <ele>288.4</ele>
        <time>2025-05-29T12:43:56Z</time>
      </trkpt>
      <trkpt lat="44.54162" lon="1.37177">
        <ele>287.6</ele>
        <time>2025-05-29T12:43:57Z</time>
      </trkpt>
      <trkpt lat="44.54155" lon="1.37175">
        <ele>287.2</ele>
        <time>2025-05-29T12:43:58Z</time>
      </trkpt>
      <trkpt lat="44.54147" lon="1.37173">
        <ele>286.6</ele>
        <time>2025-05-29T12:43:59Z</time>
      </trkpt>
      <trkpt lat="44.54138" lon="1.37171">
        <ele>285.6</ele>
        <time>2025-05-29T12:44:00Z</time>
      </trkpt>
      <trkpt lat="44.5413" lon="1.37169">
        <ele>284.4</ele>
        <time>2025-05-29T12:44:01Z</time>
      </trkpt>
      <trkpt lat="44.54122" lon="1.37168">
        <ele>283.2</ele>
        <time>2025-05-29T12:44:02Z</time>
      </trkpt>
      <trkpt lat="44.54113" lon="1.37167">
        <ele>281.8</ele>
        <time>2025-05-29T12:44:03Z</time>
      </trkpt>
      <trkpt lat="44.54105" lon="1.37169">
        <ele>280.6</ele>
        <time>2025-05-29T12:44:04Z</time>
      </trkpt>
      <trkpt lat="44.54096" lon="1.3717">
        <ele>279.6</ele>
        <time>2025-05-29T12:44:05Z</time>
      </trkpt>
      <trkpt lat="44.54089" lon="1.37172">
        <ele>278.4</ele>
        <time>2025-05-29T12:44:06Z</time>
      </trkpt>
      <trkpt lat="44.54083" lon="1.37174">
        <ele>276.8</ele>
        <time>2025-05-29T12:44:07Z</time>
      </trkpt>
      <trkpt lat="44.54078" lon="1.37175">
        <ele>275.2</ele>
        <time>2025-05-29T12:44:08Z</time>
      </trkpt>
      <trkpt lat="44.54074" lon="1.37175">
        <ele>274.6</ele>
        <time>2025-05-29T12:44:09Z</time>
      </trkpt>
      <trkpt lat="44.5407" lon="1.37174">
        <ele>274.4</ele>
        <time>2025-05-29T12:44:10Z</time>
      </trkpt>
      <trkpt lat="44.54066" lon="1.37172">
        <ele>273.8</ele>
        <time>2025-05-29T12:44:11Z</time>
      </trkpt>
      <trkpt lat="44.54062" lon="1.37169">
        <ele>273.6</ele>
        <time>2025-05-29T12:44:12Z</time>
      </trkpt>
      <trkpt lat="44.54057" lon="1.37165">
        <ele>273</ele>
        <time>2025-05-29T12:44:13Z</time>
      </trkpt>
      <trkpt lat="44.54053" lon="1.37162">
        <ele>272.6</ele>
        <time>2025-05-29T12:44:14Z</time>
      </trkpt>
      <trkpt lat="44.54047" lon="1.37159">
        <ele>272</ele>
        <time>2025-05-29T12:44:15Z</time>
      </trkpt>
      <trkpt lat="44.54042" lon="1.37156">
        <ele>271.8</ele>
        <time>2025-05-29T12:44:16Z</time>
      </trkpt>
      <trkpt lat="44.54036" lon="1.37153">
        <ele>271.6</ele>
        <time>2025-05-29T12:44:17Z</time>
      </trkpt>
      <trkpt lat="44.5403" lon="1.37149">
        <ele>271.2</ele>
        <time>2025-05-29T12:44:18Z</time>
      </trkpt>
      <trkpt lat="44.54025" lon="1.37145">
        <ele>270.8</ele>
        <time>2025-05-29T12:44:19Z</time>
      </trkpt>
      <trkpt lat="44.5402" lon="1.37141">
        <ele>270.2</ele>
        <time>2025-05-29T12:44:20Z</time>
      </trkpt>
      <trkpt lat="44.54014" lon="1.37138">
        <ele>269.4</ele>
        <time>2025-05-29T12:44:21Z</time>
      </trkpt>
      <trkpt lat="44.5401" lon="1.37136">
        <ele>268.8</ele>
        <time>2025-05-29T12:44:22Z</time>
      </trkpt>
      <trkpt lat="44.54007" lon="1.37134">
        <ele>268.4</ele>
        <time>2025-05-29T12:44:23Z</time>
      </trkpt>
      <trkpt lat="44.54003" lon="1.37132">
        <ele>268</ele>
        <time>2025-05-29T12:44:24Z</time>
      </trkpt>
      <trkpt lat="44.54001" lon="1.3713">
        <ele>268</ele>
        <time>2025-05-29T12:44:25Z</time>
      </trkpt>
      <trkpt lat="44.53999" lon="1.37128">
        <ele>268</ele>
        <time>2025-05-29T12:44:26Z</time>
      </trkpt>
      <trkpt lat="44.53997" lon="1.37127">
        <ele>267.8</ele>
        <time>2025-05-29T12:44:27Z</time>
      </trkpt>
      <trkpt lat="44.53997" lon="1.37126">
        <ele>268</ele>
        <time>2025-05-29T12:44:28Z</time>
      </trkpt>
      <trkpt lat="44.53998" lon="1.37126">
        <ele>268.4</ele>
        <time>2025-05-29T12:44:29Z</time>
      </trkpt>
      <trkpt lat="44.53992" lon="1.37125">
        <ele>268.4</ele>
        <time>2025-05-29T12:44:41Z</time>
      </trkpt>
      <trkpt lat="44.53989" lon="1.37123">
        <ele>268.2</ele>
        <time>2025-05-29T12:44:42Z</time>
      </trkpt>
      <trkpt lat="44.53986" lon="1.37121">
        <ele>268.2</ele>
        <time>2025-05-29T12:44:43Z</time>
      </trkpt>
      <trkpt lat="44.53982" lon="1.37119">
        <ele>268</ele>
        <time>2025-05-29T12:44:44Z</time>
      </trkpt>
      <trkpt lat="44.53978" lon="1.37117">
        <ele>267.8</ele>
        <time>2025-05-29T12:44:45Z</time>
      </trkpt>
      <trkpt lat="44.53975" lon="1.37115">
        <ele>267.6</ele>
        <time>2025-05-29T12:44:46Z</time>
      </trkpt>
      <trkpt lat="44.5397" lon="1.37113">
        <ele>267.6</ele>
        <time>2025-05-29T12:44:47Z</time>
      </trkpt>
      <trkpt lat="44.53966" lon="1.3711">
        <ele>267.4</ele>
        <time>2025-05-29T12:44:48Z</time>
      </trkpt>
      <trkpt lat="44.53961" lon="1.37106">
        <ele>267.4</ele>
        <time>2025-05-29T12:44:49Z</time>
      </trkpt>
      <trkpt lat="44.53956" lon="1.37103">
        <ele>267.2</ele>
        <time>2025-05-29T12:44:50Z</time>
      </trkpt>
      <trkpt lat="44.53951" lon="1.371">
        <ele>266.8</ele>
        <time>2025-05-29T12:44:51Z</time>
      </trkpt>
      <trkpt lat="44.53945" lon="1.37097">
        <ele>266.6</ele>
        <time>2025-05-29T12:44:52Z</time>
      </trkpt>
      <trkpt lat="44.53939" lon="1.37093">
        <ele>266.4</ele>
        <time>2025-05-29T12:44:53Z</time>
      </trkpt>
      <trkpt lat="44.53933" lon="1.37089">
        <ele>266</ele>
        <time>2025-05-29T12:44:54Z</time>
      </trkpt>
      <trkpt lat="44.53926" lon="1.37085">
        <ele>265.6</ele>
        <time>2025-05-29T12:44:55Z</time>
      </trkpt>
      <trkpt lat="44.5392" lon="1.37082">
        <ele>265</ele>
        <time>2025-05-29T12:44:56Z</time>
      </trkpt>
      <trkpt lat="44.53913" lon="1.37078">
        <ele>264.6</ele>
        <time>2025-05-29T12:44:57Z</time>
      </trkpt>
      <trkpt lat="44.53906" lon="1.37074">
        <ele>264.2</ele>
        <time>2025-05-29T12:44:58Z</time>
      </trkpt>
      <trkpt lat="44.53898" lon="1.37069">
        <ele>263.6</ele>
        <time>2025-05-29T12:44:59Z</time>
      </trkpt>
      <trkpt lat="44.5389" lon="1.37065">
        <ele>263.2</ele>
        <time>2025-05-29T12:45:00Z</time>
      </trkpt>
      <trkpt lat="44.53882" lon="1.37061">
        <ele>262.6</ele>
        <time>2025-05-29T12:45:01Z</time>
      </trkpt>
      <trkpt lat="44.53874" lon="1.37056">
        <ele>261.6</ele>
        <time>2025-05-29T12:45:02Z</time>
      </trkpt>
      <trkpt lat="44.53866" lon="1.37051">
        <ele>261.2</ele>
        <time>2025-05-29T12:45:03Z</time>
      </trkpt>
      <trkpt lat="44.53858" lon="1.37046">
        <ele>260.4</ele>
        <time>2025-05-29T12:45:04Z</time>
      </trkpt>
      <trkpt lat="44.53849" lon="1.37041">
        <ele>259.8</ele>
        <time>2025-05-29T12:45:05Z</time>
      </trkpt>
      <trkpt lat="44.53841" lon="1.37036">
        <ele>259</ele>
        <time>2025-05-29T12:45:06Z</time>
      </trkpt>
      <trkpt lat="44.53832" lon="1.37031">
        <ele>258.2</ele>
        <time>2025-05-29T12:45:07Z</time>
      </trkpt>
      <trkpt lat="44.53823" lon="1.37026">
        <ele>257.6</ele>
        <time>2025-05-29T12:45:08Z</time>
      </trkpt>
      <trkpt lat="44.53814" lon="1.37021">
        <ele>257</ele>
        <time>2025-05-29T12:45:09Z</time>
      </trkpt>
      <trkpt lat="44.53805" lon="1.37016">
        <ele>256.6</ele>
        <time>2025-05-29T12:45:10Z</time>
      </trkpt>
      <trkpt lat="44.53796" lon="1.37011">
        <ele>256</ele>
        <time>2025-05-29T12:45:11Z</time>
      </trkpt>
      <trkpt lat="44.53787" lon="1.37006">
        <ele>255.4</ele>
        <time>2025-05-29T12:45:12Z</time>
      </trkpt>
      <trkpt lat="44.53778" lon="1.37001">
        <ele>254.6</ele>
        <time>2025-05-29T12:45:13Z</time>
      </trkpt>
      <trkpt lat="44.5377" lon="1.36996">
        <ele>254.2</ele>
        <time>2025-05-29T12:45:14Z</time>
      </trkpt>
      <trkpt lat="44.53761" lon="1.36991">
        <ele>253.6</ele>
        <time>2025-05-29T12:45:15Z</time>
      </trkpt>
      <trkpt lat="44.53752" lon="1.36985">
        <ele>253</ele>
        <time>2025-05-29T12:45:16Z</time>
      </trkpt>
      <trkpt lat="44.53743" lon="1.3698">
        <ele>252.4</ele>
        <time>2025-05-29T12:45:17Z</time>
      </trkpt>
      <trkpt lat="44.53734" lon="1.36975">
        <ele>251.8</ele>
        <time>2025-05-29T12:45:18Z</time>
      </trkpt>
      <trkpt lat="44.53725" lon="1.3697">
        <ele>251.2</ele>
        <time>2025-05-29T12:45:19Z</time>
      </trkpt>
      <trkpt lat="44.53716" lon="1.36964">
        <ele>250.8</ele>
        <time>2025-05-29T12:45:20Z</time>
      </trkpt>
      <trkpt lat="44.53706" lon="1.36959">
        <ele>250.2</ele>
        <time>2025-05-29T12:45:21Z</time>
      </trkpt>
      <trkpt lat="44.53697" lon="1.36954">
        <ele>249.6</ele>
        <time>2025-05-29T12:45:22Z</time>
      </trkpt>
      <trkpt lat="44.53688" lon="1.36948">
        <ele>249</ele>
        <time>2025-05-29T12:45:23Z</time>
      </trkpt>
      <trkpt lat="44.53678" lon="1.36943">
        <ele>248.4</ele>
        <time>2025-05-29T12:45:24Z</time>
      </trkpt>
      <trkpt lat="44.53669" lon="1.36939">
        <ele>247.8</ele>
        <time>2025-05-29T12:45:25Z</time>
      </trkpt>
      <trkpt lat="44.5366" lon="1.36935">
        <ele>247.4</ele>
        <time>2025-05-29T12:45:26Z</time>
      </trkpt>
      <trkpt lat="44.53652" lon="1.36933">
        <ele>247</ele>
        <time>2025-05-29T12:45:27Z</time>
      </trkpt>
      <trkpt lat="44.53643" lon="1.36933">
        <ele>246.6</ele>
        <time>2025-05-29T12:45:28Z</time>
      </trkpt>
      <trkpt lat="44.53635" lon="1.36935">
        <ele>246.6</ele>
        <time>2025-05-29T12:45:29Z</time>
      </trkpt>
      <trkpt lat="44.53627" lon="1.36938">
        <ele>246.4</ele>
        <time>2025-05-29T12:45:30Z</time>
      </trkpt>
      <trkpt lat="44.5362" lon="1.36942">
        <ele>246.4</ele>
        <time>2025-05-29T12:45:31Z</time>
      </trkpt>
      <trkpt lat="44.53613" lon="1.36946">
        <ele>246.6</ele>
        <time>2025-05-29T12:45:32Z</time>
      </trkpt>
      <trkpt lat="44.53608" lon="1.36949">
        <ele>246.6</ele>
        <time>2025-05-29T12:45:33Z</time>
      </trkpt>
      <trkpt lat="44.53604" lon="1.36951">
        <ele>247</ele>
        <time>2025-05-29T12:45:34Z</time>
      </trkpt>
      <trkpt lat="44.53601" lon="1.36953">
        <ele>247.4</ele>
        <time>2025-05-29T12:45:35Z</time>
      </trkpt>
      <trkpt lat="44.53599" lon="1.36956">
        <ele>247.8</ele>
        <time>2025-05-29T12:45:36Z</time>
      </trkpt>
      <trkpt lat="44.53598" lon="1.36959">
        <ele>248</ele>
        <time>2025-05-29T12:45:37Z</time>
      </trkpt>
      <trkpt lat="44.53597" lon="1.36964">
        <ele>248.2</ele>
        <time>2025-05-29T12:45:38Z</time>
      </trkpt>
      <trkpt lat="44.53596" lon="1.3697">
        <ele>248.2</ele>
        <time>2025-05-29T12:45:39Z</time>
      </trkpt>
      <trkpt lat="44.53595" lon="1.36974">
        <ele>248.2</ele>
        <time>2025-05-29T12:45:40Z</time>
      </trkpt>
      <trkpt lat="44.53593" lon="1.36978">
        <ele>248.2</ele>
        <time>2025-05-29T12:45:41Z</time>
      </trkpt>
      <trkpt lat="44.5359" lon="1.36983">
        <ele>248.4</ele>
        <time>2025-05-29T12:45:42Z</time>
      </trkpt>
      <trkpt lat="44.53588" lon="1.36987">
        <ele>248.4</ele>
        <time>2025-05-29T12:45:43Z</time>
      </trkpt>
      <trkpt lat="44.53585" lon="1.36991">
        <ele>248.8</ele>
        <time>2025-05-29T12:45:44Z</time>
      </trkpt>
      <trkpt lat="44.53583" lon="1.36993">
        <ele>249</ele>
        <time>2025-05-29T12:45:45Z</time>
      </trkpt>
      <trkpt lat="44.53581" lon="1.36996">
        <ele>249.4</ele>
        <time>2025-05-29T12:45:46Z</time>
      </trkpt>
      <trkpt lat="44.53578" lon="1.36998">
        <ele>249.6</ele>
        <time>2025-05-29T12:45:47Z</time>
      </trkpt>
      <trkpt lat="44.53575" lon="1.37">
        <ele>249.8</ele>
        <time>2025-05-29T12:45:48Z</time>
      </trkpt>
      <trkpt lat="44.53572" lon="1.37001">
        <ele>250</ele>
        <time>2025-05-29T12:45:49Z</time>
      </trkpt>
      <trkpt lat="44.5357" lon="1.37003">
        <ele>250.2</ele>
        <time>2025-05-29T12:45:50Z</time>
      </trkpt>
      <trkpt lat="44.53567" lon="1.37004">
        <ele>250.4</ele>
        <time>2025-05-29T12:45:51Z</time>
      </trkpt>
      <trkpt lat="44.53565" lon="1.37005">
        <ele>250.4</ele>
        <time>2025-05-29T12:45:52Z</time>
      </trkpt>
      <trkpt lat="44.53562" lon="1.37006">
        <ele>250.6</ele>
        <time>2025-05-29T12:45:53Z</time>
      </trkpt>
      <trkpt lat="44.53559" lon="1.37008">
        <ele>250.6</ele>
        <time>2025-05-29T12:45:54Z</time>
      </trkpt>
      <trkpt lat="44.53556" lon="1.37009">
        <ele>250.8</ele>
        <time>2025-05-29T12:45:55Z</time>
      </trkpt>
      <trkpt lat="44.53554" lon="1.37011">
        <ele>251</ele>
        <time>2025-05-29T12:45:56Z</time>
      </trkpt>
      <trkpt lat="44.53551" lon="1.37012">
        <ele>251.2</ele>
        <time>2025-05-29T12:45:57Z</time>
      </trkpt>
      <trkpt lat="44.53548" lon="1.37012">
        <ele>251.4</ele>
        <time>2025-05-29T12:45:58Z</time>
      </trkpt>
      <trkpt lat="44.53546" lon="1.37013">
        <ele>251.6</ele>
        <time>2025-05-29T12:45:59Z</time>
      </trkpt>
      <trkpt lat="44.53543" lon="1.37014">
        <ele>251.6</ele>
        <time>2025-05-29T12:46:00Z</time>
      </trkpt>
      <trkpt lat="44.53541" lon="1.37015">
        <ele>252</ele>
        <time>2025-05-29T12:46:01Z</time>
      </trkpt>
      <trkpt lat="44.53538" lon="1.37016">
        <ele>252</ele>
        <time>2025-05-29T12:46:02Z</time>
      </trkpt>
      <trkpt lat="44.53536" lon="1.37015">
        <ele>252.2</ele>
        <time>2025-05-29T12:46:03Z</time>
      </trkpt>
      <trkpt lat="44.53533" lon="1.37016">
        <ele>252.4</ele>
        <time>2025-05-29T12:46:04Z</time>
      </trkpt>
      <trkpt lat="44.5353" lon="1.37018">
        <ele>252.4</ele>
        <time>2025-05-29T12:46:05Z</time>
      </trkpt>
      <trkpt lat="44.53527" lon="1.37019">
        <ele>252.6</ele>
        <time>2025-05-29T12:46:06Z</time>
      </trkpt>
      <trkpt lat="44.53524" lon="1.3702">
        <ele>252.8</ele>
        <time>2025-05-29T12:46:07Z</time>
      </trkpt>
      <trkpt lat="44.53521" lon="1.37021">
        <ele>252.8</ele>
        <time>2025-05-29T12:46:08Z</time>
      </trkpt>
      <trkpt lat="44.53519" lon="1.37022">
        <ele>253</ele>
        <time>2025-05-29T12:46:09Z</time>
      </trkpt>
      <trkpt lat="44.53516" lon="1.37024">
        <ele>253.2</ele>
        <time>2025-05-29T12:46:10Z</time>
      </trkpt>
      <trkpt lat="44.53513" lon="1.37026">
        <ele>253.4</ele>
        <time>2025-05-29T12:46:11Z</time>
      </trkpt>
      <trkpt lat="44.53511" lon="1.37027">
        <ele>253.4</ele>
        <time>2025-05-29T12:46:12Z</time>
      </trkpt>
      <trkpt lat="44.53508" lon="1.37028">
        <ele>253.6</ele>
        <time>2025-05-29T12:46:13Z</time>
      </trkpt>
      <trkpt lat="44.53505" lon="1.37029">
        <ele>253.6</ele>
        <time>2025-05-29T12:46:14Z</time>
      </trkpt>
      <trkpt lat="44.53502" lon="1.3703">
        <ele>253.8</ele>
        <time>2025-05-29T12:46:15Z</time>
      </trkpt>
      <trkpt lat="44.535" lon="1.37031">
        <ele>253.8</ele>
        <time>2025-05-29T12:46:16Z</time>
      </trkpt>
      <trkpt lat="44.53497" lon="1.37031">
        <ele>254</ele>
        <time>2025-05-29T12:46:17Z</time>
      </trkpt>
      <trkpt lat="44.53495" lon="1.37032">
        <ele>254</ele>
        <time>2025-05-29T12:46:18Z</time>
      </trkpt>
      <trkpt lat="44.53492" lon="1.37032">
        <ele>254</ele>
        <time>2025-05-29T12:46:19Z</time>
      </trkpt>
      <trkpt lat="44.5349" lon="1.37031">
        <ele>254.2</ele>
        <time>2025-05-29T12:46:20Z</time>
      </trkpt>
      <trkpt lat="44.53487" lon="1.3703">
        <ele>254.2</ele>
        <time>2025-05-29T12:46:21Z</time>
      </trkpt>
      <trkpt lat="44.53484" lon="1.37028">
        <ele>254.4</ele>
        <time>2025-05-29T12:46:22Z</time>
      </trkpt>
      <trkpt lat="44.53482" lon="1.37024">
        <ele>254.4</ele>
        <time>2025-05-29T12:46:23Z</time>
      </trkpt>
      <trkpt lat="44.53479" lon="1.37021">
        <ele>254.6</ele>
        <time>2025-05-29T12:46:24Z</time>
      </trkpt>
      <trkpt lat="44.53477" lon="1.37017">
        <ele>254.4</ele>
        <time>2025-05-29T12:46:25Z</time>
      </trkpt>
      <trkpt lat="44.53474" lon="1.37013">
        <ele>254.2</ele>
        <time>2025-05-29T12:46:26Z</time>
      </trkpt>
      <trkpt lat="44.53472" lon="1.37009">
        <ele>254.2</ele>
        <time>2025-05-29T12:46:27Z</time>
      </trkpt>
      <trkpt lat="44.53469" lon="1.37005">
        <ele>254</ele>
        <time>2025-05-29T12:46:28Z</time>
      </trkpt>
      <trkpt lat="44.53467" lon="1.37001">
        <ele>253.8</ele>
        <time>2025-05-29T12:46:29Z</time>
      </trkpt>
      <trkpt lat="44.53464" lon="1.36996">
        <ele>253.8</ele>
        <time>2025-05-29T12:46:30Z</time>
      </trkpt>
      <trkpt lat="44.53461" lon="1.36992">
        <ele>253.8</ele>
        <time>2025-05-29T12:46:31Z</time>
      </trkpt>
      <trkpt lat="44.53458" lon="1.36988">
        <ele>253.8</ele>
        <time>2025-05-29T12:46:32Z</time>
      </trkpt>
      <trkpt lat="44.53455" lon="1.36983">
        <ele>253.8</ele>
        <time>2025-05-29T12:46:33Z</time>
      </trkpt>
      <trkpt lat="44.53452" lon="1.36979">
        <ele>254</ele>
        <time>2025-05-29T12:46:34Z</time>
      </trkpt>
      <trkpt lat="44.53449" lon="1.36974">
        <ele>254</ele>
        <time>2025-05-29T12:46:35Z</time>
      </trkpt>
      <trkpt lat="44.53447" lon="1.36969">
        <ele>254</ele>
        <time>2025-05-29T12:46:36Z</time>
      </trkpt>
      <trkpt lat="44.53444" lon="1.36965">
        <ele>254</ele>
        <time>2025-05-29T12:46:37Z</time>
      </trkpt>
      <trkpt lat="44.53442" lon="1.3696">
        <ele>254</ele>
        <time>2025-05-29T12:46:38Z</time>
      </trkpt>
      <trkpt lat="44.53439" lon="1.36954">
        <ele>254</ele>
        <time>2025-05-29T12:46:39Z</time>
      </trkpt>
      <trkpt lat="44.53437" lon="1.36949">
        <ele>254</ele>
        <time>2025-05-29T12:46:40Z</time>
      </trkpt>
      <trkpt lat="44.53434" lon="1.36944">
        <ele>254</ele>
        <time>2025-05-29T12:46:41Z</time>
      </trkpt>
      <trkpt lat="44.53431" lon="1.36939">
        <ele>253.8</ele>
        <time>2025-05-29T12:46:42Z</time>
      </trkpt>
      <trkpt lat="44.53429" lon="1.36934">
        <ele>253.8</ele>
        <time>2025-05-29T12:46:43Z</time>
      </trkpt>
      <trkpt lat="44.53427" lon="1.36928">
        <ele>253.8</ele>
        <time>2025-05-29T12:46:44Z</time>
      </trkpt>
      <trkpt lat="44.53425" lon="1.36923">
        <ele>254</ele>
        <time>2025-05-29T12:46:45Z</time>
      </trkpt>
      <trkpt lat="44.53423" lon="1.36917">
        <ele>254</ele>
        <time>2025-05-29T12:46:46Z</time>
      </trkpt>
      <trkpt lat="44.53422" lon="1.36911">
        <ele>254.2</ele>
        <time>2025-05-29T12:46:47Z</time>
      </trkpt>
      <trkpt lat="44.5342" lon="1.36905">
        <ele>254.2</ele>
        <time>2025-05-29T12:46:48Z</time>
      </trkpt>
      <trkpt lat="44.53418" lon="1.36899">
        <ele>254.4</ele>
        <time>2025-05-29T12:46:49Z</time>
      </trkpt>
      <trkpt lat="44.53415" lon="1.36895">
        <ele>254.4</ele>
        <time>2025-05-29T12:46:50Z</time>
      </trkpt>
      <trkpt lat="44.5341" lon="1.36894">
        <ele>254.2</ele>
        <time>2025-05-29T12:46:51Z</time>
      </trkpt>
      <trkpt lat="44.53406" lon="1.36894">
        <ele>254.2</ele>
        <time>2025-05-29T12:46:52Z</time>
      </trkpt>
      <trkpt lat="44.53401" lon="1.36896">
        <ele>254</ele>
        <time>2025-05-29T12:46:53Z</time>
      </trkpt>
      <trkpt lat="44.53396" lon="1.36899">
        <ele>253.6</ele>
        <time>2025-05-29T12:46:54Z</time>
      </trkpt>
      <trkpt lat="44.53391" lon="1.36902">
        <ele>253.2</ele>
        <time>2025-05-29T12:46:55Z</time>
      </trkpt>
      <trkpt lat="44.53386" lon="1.36905">
        <ele>252.8</ele>
        <time>2025-05-29T12:46:56Z</time>
      </trkpt>
      <trkpt lat="44.53381" lon="1.36908">
        <ele>252.4</ele>
        <time>2025-05-29T12:46:57Z</time>
      </trkpt>
      <trkpt lat="44.53375" lon="1.36912">
        <ele>252</ele>
        <time>2025-05-29T12:46:58Z</time>
      </trkpt>
      <trkpt lat="44.5337" lon="1.36915">
        <ele>251.6</ele>
        <time>2025-05-29T12:46:59Z</time>
      </trkpt>
      <trkpt lat="44.53364" lon="1.36919">
        <ele>251.2</ele>
        <time>2025-05-29T12:47:00Z</time>
      </trkpt>
      <trkpt lat="44.53358" lon="1.36924">
        <ele>251</ele>
        <time>2025-05-29T12:47:01Z</time>
      </trkpt>
      <trkpt lat="44.53353" lon="1.36929">
        <ele>251</ele>
        <time>2025-05-29T12:47:02Z</time>
      </trkpt>
      <trkpt lat="44.53348" lon="1.36934">
        <ele>250.8</ele>
        <time>2025-05-29T12:47:03Z</time>
      </trkpt>
      <trkpt lat="44.53343" lon="1.3694">
        <ele>250.6</ele>
        <time>2025-05-29T12:47:04Z</time>
      </trkpt>
      <trkpt lat="44.53337" lon="1.36945">
        <ele>250.4</ele>
        <time>2025-05-29T12:47:05Z</time>
      </trkpt>
      <trkpt lat="44.53332" lon="1.36951">
        <ele>250.2</ele>
        <time>2025-05-29T12:47:06Z</time>
      </trkpt>
      <trkpt lat="44.53327" lon="1.36957">
        <ele>250</ele>
        <time>2025-05-29T12:47:07Z</time>
      </trkpt>
      <trkpt lat="44.53322" lon="1.36962">
        <ele>249.8</ele>
        <time>2025-05-29T12:47:08Z</time>
      </trkpt>
      <trkpt lat="44.53317" lon="1.36967">
        <ele>249.6</ele>
        <time>2025-05-29T12:47:09Z</time>
      </trkpt>
      <trkpt lat="44.53312" lon="1.36973">
        <ele>249.6</ele>
        <time>2025-05-29T12:47:10Z</time>
      </trkpt>
      <trkpt lat="44.53307" lon="1.36978">
        <ele>249.6</ele>
        <time>2025-05-29T12:47:11Z</time>
      </trkpt>
      <trkpt lat="44.53301" lon="1.36984">
        <ele>249.4</ele>
        <time>2025-05-29T12:47:12Z</time>
      </trkpt>
      <trkpt lat="44.53296" lon="1.3699">
        <ele>249.4</ele>
        <time>2025-05-29T12:47:13Z</time>
      </trkpt>
      <trkpt lat="44.53291" lon="1.36996">
        <ele>249.2</ele>
        <time>2025-05-29T12:47:14Z</time>
      </trkpt>
      <trkpt lat="44.53285" lon="1.37003">
        <ele>248.8</ele>
        <time>2025-05-29T12:47:15Z</time>
      </trkpt>
      <trkpt lat="44.5328" lon="1.37009">
        <ele>248.6</ele>
        <time>2025-05-29T12:47:16Z</time>
      </trkpt>
      <trkpt lat="44.53274" lon="1.37015">
        <ele>248.4</ele>
        <time>2025-05-29T12:47:17Z</time>
      </trkpt>
      <trkpt lat="44.53269" lon="1.37021">
        <ele>248.2</ele>
        <time>2025-05-29T12:47:18Z</time>
      </trkpt>
      <trkpt lat="44.53263" lon="1.37027">
        <ele>248.2</ele>
        <time>2025-05-29T12:47:19Z</time>
      </trkpt>
      <trkpt lat="44.53258" lon="1.37033">
        <ele>248</ele>
        <time>2025-05-29T12:47:20Z</time>
      </trkpt>
      <trkpt lat="44.53252" lon="1.37039">
        <ele>247.8</ele>
        <time>2025-05-29T12:47:21Z</time>
      </trkpt>
      <trkpt lat="44.53246" lon="1.37046">
        <ele>247.6</ele>
        <time>2025-05-29T12:47:22Z</time>
      </trkpt>
      <trkpt lat="44.5324" lon="1.37052">
        <ele>247.4</ele>
        <time>2025-05-29T12:47:23Z</time>
      </trkpt>
      <trkpt lat="44.53233" lon="1.37059">
        <ele>247</ele>
        <time>2025-05-29T12:47:24Z</time>
      </trkpt>
      <trkpt lat="44.53227" lon="1.37066">
        <ele>246.8</ele>
        <time>2025-05-29T12:47:25Z</time>
      </trkpt>
      <trkpt lat="44.5322" lon="1.37073">
        <ele>246.2</ele>
        <time>2025-05-29T12:47:26Z</time>
      </trkpt>
      <trkpt lat="44.53213" lon="1.3708">
        <ele>245.8</ele>
        <time>2025-05-29T12:47:27Z</time>
      </trkpt>
      <trkpt lat="44.53206" lon="1.37088">
        <ele>245.2</ele>
        <time>2025-05-29T12:47:28Z</time>
      </trkpt>
      <trkpt lat="44.53198" lon="1.37096">
        <ele>244.6</ele>
        <time>2025-05-29T12:47:29Z</time>
      </trkpt>
      <trkpt lat="44.53191" lon="1.37104">
        <ele>243.6</ele>
        <time>2025-05-29T12:47:30Z</time>
      </trkpt>
      <trkpt lat="44.53183" lon="1.37113">
        <ele>242.6</ele>
        <time>2025-05-29T12:47:31Z</time>
      </trkpt>
      <trkpt lat="44.53175" lon="1.37121">
        <ele>241.8</ele>
        <time>2025-05-29T12:47:32Z</time>
      </trkpt>
      <trkpt lat="44.53167" lon="1.3713">
        <ele>241</ele>
        <time>2025-05-29T12:47:33Z</time>
      </trkpt>
      <trkpt lat="44.5316" lon="1.3714">
        <ele>240.2</ele>
        <time>2025-05-29T12:47:34Z</time>
      </trkpt>
      <trkpt lat="44.53153" lon="1.3715">
        <ele>239.8</ele>
        <time>2025-05-29T12:47:35Z</time>
      </trkpt>
      <trkpt lat="44.53146" lon="1.37161">
        <ele>239.2</ele>
        <time>2025-05-29T12:47:36Z</time>
      </trkpt>
      <trkpt lat="44.53139" lon="1.37172">
        <ele>238.4</ele>
        <time>2025-05-29T12:47:37Z</time>
      </trkpt>
      <trkpt lat="44.53133" lon="1.37183">
        <ele>237.8</ele>
        <time>2025-05-29T12:47:38Z</time>
      </trkpt>
      <trkpt lat="44.53127" lon="1.37194">
        <ele>237.4</ele>
        <time>2025-05-29T12:47:39Z</time>
      </trkpt>
      <trkpt lat="44.53121" lon="1.37205">
        <ele>236.8</ele>
        <time>2025-05-29T12:47:40Z</time>
      </trkpt>
      <trkpt lat="44.53116" lon="1.37216">
        <ele>236.6</ele>
        <time>2025-05-29T12:47:41Z</time>
      </trkpt>
      <trkpt lat="44.53111" lon="1.37227">
        <ele>236.6</ele>
        <time>2025-05-29T12:47:42Z</time>
      </trkpt>
      <trkpt lat="44.53107" lon="1.37238">
        <ele>236.6</ele>
        <time>2025-05-29T12:47:43Z</time>
      </trkpt>
      <trkpt lat="44.53103" lon="1.37248">
        <ele>236.6</ele>
        <time>2025-05-29T12:47:44Z</time>
      </trkpt>
      <trkpt lat="44.531" lon="1.37257">
        <ele>236.8</ele>
        <time>2025-05-29T12:47:45Z</time>
      </trkpt>
      <trkpt lat="44.53097" lon="1.37266">
        <ele>237</ele>
        <time>2025-05-29T12:47:46Z</time>
      </trkpt>
      <trkpt lat="44.53094" lon="1.37273">
        <ele>237.4</ele>
        <time>2025-05-29T12:47:47Z</time>
      </trkpt>
      <trkpt lat="44.5309" lon="1.37277">
        <ele>238</ele>
        <time>2025-05-29T12:47:48Z</time>
      </trkpt>
      <trkpt lat="44.53086" lon="1.37278">
        <ele>238.4</ele>
        <time>2025-05-29T12:47:49Z</time>
      </trkpt>
      <trkpt lat="44.53081" lon="1.37278">
        <ele>238.8</ele>
        <time>2025-05-29T12:47:50Z</time>
      </trkpt>
      <trkpt lat="44.53076" lon="1.37276">
        <ele>239</ele>
        <time>2025-05-29T12:47:51Z</time>
      </trkpt>
      <trkpt lat="44.53072" lon="1.37275">
        <ele>239.2</ele>
        <time>2025-05-29T12:47:52Z</time>
      </trkpt>
      <trkpt lat="44.53067" lon="1.37273">
        <ele>239.2</ele>
        <time>2025-05-29T12:47:53Z</time>
      </trkpt>
      <trkpt lat="44.53062" lon="1.37272">
        <ele>239.2</ele>
        <time>2025-05-29T12:47:54Z</time>
      </trkpt>
      <trkpt lat="44.53056" lon="1.3727">
        <ele>239.2</ele>
        <time>2025-05-29T12:47:55Z</time>
      </trkpt>
      <trkpt lat="44.53051" lon="1.37267">
        <ele>239.2</ele>
        <time>2025-05-29T12:47:56Z</time>
      </trkpt>
      <trkpt lat="44.53046" lon="1.37265">
        <ele>239.4</ele>
        <time>2025-05-29T12:47:57Z</time>
      </trkpt>
      <trkpt lat="44.53041" lon="1.37262">
        <ele>239.4</ele>
        <time>2025-05-29T12:47:58Z</time>
      </trkpt>
      <trkpt lat="44.53035" lon="1.3726">
        <ele>239.4</ele>
        <time>2025-05-29T12:47:59Z</time>
      </trkpt>
      <trkpt lat="44.53029" lon="1.37259">
        <ele>239.4</ele>
        <time>2025-05-29T12:48:00Z</time>
      </trkpt>
      <trkpt lat="44.53023" lon="1.37258">
        <ele>239.4</ele>
        <time>2025-05-29T12:48:01Z</time>
      </trkpt>
      <trkpt lat="44.53017" lon="1.37257">
        <ele>239.4</ele>
        <time>2025-05-29T12:48:02Z</time>
      </trkpt>
      <trkpt lat="44.53012" lon="1.37255">
        <ele>239.4</ele>
        <time>2025-05-29T12:48:03Z</time>
      </trkpt>
      <trkpt lat="44.53007" lon="1.37254">
        <ele>239.4</ele>
        <time>2025-05-29T12:48:04Z</time>
      </trkpt>
      <trkpt lat="44.53001" lon="1.37251">
        <ele>239.4</ele>
        <time>2025-05-29T12:48:05Z</time>
      </trkpt>
      <trkpt lat="44.52996" lon="1.37249">
        <ele>239.4</ele>
        <time>2025-05-29T12:48:06Z</time>
      </trkpt>
      <trkpt lat="44.52991" lon="1.37246">
        <ele>239.4</ele>
        <time>2025-05-29T12:48:07Z</time>
      </trkpt>
      <trkpt lat="44.52986" lon="1.37243">
        <ele>239.4</ele>
        <time>2025-05-29T12:48:08Z</time>
      </trkpt>
      <trkpt lat="44.52981" lon="1.37243">
        <ele>239.4</ele>
        <time>2025-05-29T12:48:09Z</time>
      </trkpt>
      <trkpt lat="44.52976" lon="1.37245">
        <ele>239.4</ele>
        <time>2025-05-29T12:48:10Z</time>
      </trkpt>
      <trkpt lat="44.52971" lon="1.37247">
        <ele>239.4</ele>
        <time>2025-05-29T12:48:11Z</time>
      </trkpt>
      <trkpt lat="44.52967" lon="1.37249">
        <ele>239.4</ele>
        <time>2025-05-29T12:48:12Z</time>
      </trkpt>
      <trkpt lat="44.52963" lon="1.37251">
        <ele>239.6</ele>
        <time>2025-05-29T12:48:13Z</time>
      </trkpt>
      <trkpt lat="44.52958" lon="1.37253">
        <ele>239.6</ele>
        <time>2025-05-29T12:48:14Z</time>
      </trkpt>
      <trkpt lat="44.52954" lon="1.37255">
        <ele>239.8</ele>
        <time>2025-05-29T12:48:15Z</time>
      </trkpt>
      <trkpt lat="44.5295" lon="1.37255">
        <ele>240</ele>
        <time>2025-05-29T12:48:16Z</time>
      </trkpt>
      <trkpt lat="44.52945" lon="1.37255">
        <ele>240</ele>
        <time>2025-05-29T12:48:17Z</time>
      </trkpt>
      <trkpt lat="44.52942" lon="1.37254">
        <ele>240.2</ele>
        <time>2025-05-29T12:48:18Z</time>
      </trkpt>
      <trkpt lat="44.52938" lon="1.37254">
        <ele>240.6</ele>
        <time>2025-05-29T12:48:19Z</time>
      </trkpt>
      <trkpt lat="44.52934" lon="1.37254">
        <ele>240.8</ele>
        <time>2025-05-29T12:48:20Z</time>
      </trkpt>
      <trkpt lat="44.5293" lon="1.37253">
        <ele>241</ele>
        <time>2025-05-29T12:48:21Z</time>
      </trkpt>
      <trkpt lat="44.52926" lon="1.37253">
        <ele>241.4</ele>
        <time>2025-05-29T12:48:22Z</time>
      </trkpt>
      <trkpt lat="44.52923" lon="1.37252">
        <ele>241.6</ele>
        <time>2025-05-29T12:48:23Z</time>
      </trkpt>
      <trkpt lat="44.52919" lon="1.37251">
        <ele>241.8</ele>
        <time>2025-05-29T12:48:24Z</time>
      </trkpt>
      <trkpt lat="44.52915" lon="1.37251">
        <ele>242</ele>
        <time>2025-05-29T12:48:25Z</time>
      </trkpt>
      <trkpt lat="44.52912" lon="1.37251">
        <ele>242.2</ele>
        <time>2025-05-29T12:48:26Z</time>
      </trkpt>
      <trkpt lat="44.52909" lon="1.37251">
        <ele>242.6</ele>
        <time>2025-05-29T12:48:27Z</time>
      </trkpt>
      <trkpt lat="44.52906" lon="1.37251">
        <ele>242.8</ele>
        <time>2025-05-29T12:48:28Z</time>
      </trkpt>
      <trkpt lat="44.52902" lon="1.37251">
        <ele>243.2</ele>
        <time>2025-05-29T12:48:29Z</time>
      </trkpt>
      <trkpt lat="44.52899" lon="1.37251">
        <ele>243.4</ele>
        <time>2025-05-29T12:48:30Z</time>
      </trkpt>
      <trkpt lat="44.52896" lon="1.37251">
        <ele>243.6</ele>
        <time>2025-05-29T12:48:31Z</time>
      </trkpt>
      <trkpt lat="44.52892" lon="1.37252">
        <ele>243.8</ele>
        <time>2025-05-29T12:48:32Z</time>
      </trkpt>
      <trkpt lat="44.52889" lon="1.37253">
        <ele>243.8</ele>
        <time>2025-05-29T12:48:33Z</time>
      </trkpt>
      <trkpt lat="44.52886" lon="1.37254">
        <ele>244</ele>
        <time>2025-05-29T12:48:34Z</time>
      </trkpt>
      <trkpt lat="44.52883" lon="1.37255">
        <ele>244.2</ele>
        <time>2025-05-29T12:48:35Z</time>
      </trkpt>
      <trkpt lat="44.52879" lon="1.37256">
        <ele>244.4</ele>
        <time>2025-05-29T12:48:36Z</time>
      </trkpt>
      <trkpt lat="44.52877" lon="1.37257">
        <ele>244.6</ele>
        <time>2025-05-29T12:48:37Z</time>
      </trkpt>
      <trkpt lat="44.52874" lon="1.37259">
        <ele>244.8</ele>
        <time>2025-05-29T12:48:38Z</time>
      </trkpt>
      <trkpt lat="44.52871" lon="1.37261">
        <ele>245</ele>
        <time>2025-05-29T12:48:39Z</time>
      </trkpt>
      <trkpt lat="44.52868" lon="1.37262">
        <ele>245.2</ele>
        <time>2025-05-29T12:48:40Z</time>
      </trkpt>
      <trkpt lat="44.52865" lon="1.37263">
        <ele>245.4</ele>
        <time>2025-05-29T12:48:41Z</time>
      </trkpt>
      <trkpt lat="44.52862" lon="1.37264">
        <ele>245.4</ele>
        <time>2025-05-29T12:48:42Z</time>
      </trkpt>
      <trkpt lat="44.52858" lon="1.37265">
        <ele>245.6</ele>
        <time>2025-05-29T12:48:43Z</time>
      </trkpt>
      <trkpt lat="44.52855" lon="1.37266">
        <ele>245.6</ele>
        <time>2025-05-29T12:48:44Z</time>
      </trkpt>
      <trkpt lat="44.52852" lon="1.37267">
        <ele>245.8</ele>
        <time>2025-05-29T12:48:45Z</time>
      </trkpt>
      <trkpt lat="44.52849" lon="1.37268">
        <ele>246</ele>
        <time>2025-05-29T12:48:46Z</time>
      </trkpt>
      <trkpt lat="44.52846" lon="1.37269">
        <ele>246.2</ele>
        <time>2025-05-29T12:48:47Z</time>
      </trkpt>
      <trkpt lat="44.52843" lon="1.37271">
        <ele>246.4</ele>
        <time>2025-05-29T12:48:48Z</time>
      </trkpt>
      <trkpt lat="44.5284" lon="1.37272">
        <ele>246.4</ele>
        <time>2025-05-29T12:48:49Z</time>
      </trkpt>
      <trkpt lat="44.52837" lon="1.37273">
        <ele>246.6</ele>
        <time>2025-05-29T12:48:50Z</time>
      </trkpt>
      <trkpt lat="44.52834" lon="1.37274">
        <ele>246.8</ele>
        <time>2025-05-29T12:48:51Z</time>
      </trkpt>
      <trkpt lat="44.52831" lon="1.37275">
        <ele>246.8</ele>
        <time>2025-05-29T12:48:52Z</time>
      </trkpt>
      <trkpt lat="44.52828" lon="1.37276">
        <ele>247</ele>
        <time>2025-05-29T12:48:53Z</time>
      </trkpt>
      <trkpt lat="44.52826" lon="1.37277">
        <ele>247.2</ele>
        <time>2025-05-29T12:48:54Z</time>
      </trkpt>
      <trkpt lat="44.52823" lon="1.37278">
        <ele>247.2</ele>
        <time>2025-05-29T12:48:55Z</time>
      </trkpt>
      <trkpt lat="44.5282" lon="1.37279">
        <ele>247.2</ele>
        <time>2025-05-29T12:48:56Z</time>
      </trkpt>
      <trkpt lat="44.52817" lon="1.37279">
        <ele>247.4</ele>
        <time>2025-05-29T12:48:57Z</time>
      </trkpt>
      <trkpt lat="44.52813" lon="1.37281">
        <ele>247.4</ele>
        <time>2025-05-29T12:48:58Z</time>
      </trkpt>
      <trkpt lat="44.5281" lon="1.37282">
        <ele>247.6</ele>
        <time>2025-05-29T12:48:59Z</time>
      </trkpt>
      <trkpt lat="44.52807" lon="1.37282">
        <ele>247.6</ele>
        <time>2025-05-29T12:49:00Z</time>
      </trkpt>
      <trkpt lat="44.52804" lon="1.37283">
        <ele>247.8</ele>
        <time>2025-05-29T12:49:01Z</time>
      </trkpt>
      <trkpt lat="44.52801" lon="1.37283">
        <ele>247.8</ele>
        <time>2025-05-29T12:49:02Z</time>
      </trkpt>
      <trkpt lat="44.52797" lon="1.37283">
        <ele>247.8</ele>
        <time>2025-05-29T12:49:03Z</time>
      </trkpt>
      <trkpt lat="44.52793" lon="1.37283">
        <ele>248</ele>
        <time>2025-05-29T12:49:04Z</time>
      </trkpt>
      <trkpt lat="44.52789" lon="1.37282">
        <ele>247.8</ele>
        <time>2025-05-29T12:49:05Z</time>
      </trkpt>
      <trkpt lat="44.52784" lon="1.37282">
        <ele>247.6</ele>
        <time>2025-05-29T12:49:06Z</time>
      </trkpt>
      <trkpt lat="44.5278" lon="1.37282">
        <ele>247.4</ele>
        <time>2025-05-29T12:49:07Z</time>
      </trkpt>
      <trkpt lat="44.52775" lon="1.37281">
        <ele>247</ele>
        <time>2025-05-29T12:49:08Z</time>
      </trkpt>
      <trkpt lat="44.5277" lon="1.37281">
        <ele>246.4</ele>
        <time>2025-05-29T12:49:09Z</time>
      </trkpt>
      <trkpt lat="44.52764" lon="1.37281">
        <ele>246</ele>
        <time>2025-05-29T12:49:10Z</time>
      </trkpt>
      <trkpt lat="44.52757" lon="1.37281">
        <ele>245.4</ele>
        <time>2025-05-29T12:49:11Z</time>
      </trkpt>
      <trkpt lat="44.52751" lon="1.37281">
        <ele>245</ele>
        <time>2025-05-29T12:49:12Z</time>
      </trkpt>
      <trkpt lat="44.52744" lon="1.37281">
        <ele>244.4</ele>
        <time>2025-05-29T12:49:13Z</time>
      </trkpt>
      <trkpt lat="44.52737" lon="1.37282">
        <ele>243.8</ele>
        <time>2025-05-29T12:49:14Z</time>
      </trkpt>
      <trkpt lat="44.5273" lon="1.37283">
        <ele>243.2</ele>
        <time>2025-05-29T12:49:15Z</time>
      </trkpt>
      <trkpt lat="44.52723" lon="1.37283">
        <ele>242.6</ele>
        <time>2025-05-29T12:49:16Z</time>
      </trkpt>
      <trkpt lat="44.52716" lon="1.37284">
        <ele>242.2</ele>
        <time>2025-05-29T12:49:17Z</time>
      </trkpt>
      <trkpt lat="44.52711" lon="1.37284">
        <ele>242.2</ele>
        <time>2025-05-29T12:49:18Z</time>
      </trkpt>
      <trkpt lat="44.52706" lon="1.37284">
        <ele>242</ele>
        <time>2025-05-29T12:49:19Z</time>
      </trkpt>
      <trkpt lat="44.52701" lon="1.37284">
        <ele>242</ele>
        <time>2025-05-29T12:49:20Z</time>
      </trkpt>
      <trkpt lat="44.52697" lon="1.37284">
        <ele>242.2</ele>
        <time>2025-05-29T12:49:21Z</time>
      </trkpt>
      <trkpt lat="44.52693" lon="1.37284">
        <ele>242.2</ele>
        <time>2025-05-29T12:49:22Z</time>
      </trkpt>
      <trkpt lat="44.5269" lon="1.37283">
        <ele>242.4</ele>
        <time>2025-05-29T12:49:23Z</time>
      </trkpt>
      <trkpt lat="44.52686" lon="1.37283">
        <ele>242.6</ele>
        <time>2025-05-29T12:49:24Z</time>
      </trkpt>
      <trkpt lat="44.52683" lon="1.37283">
        <ele>242.8</ele>
        <time>2025-05-29T12:49:25Z</time>
      </trkpt>
      <trkpt lat="44.5268" lon="1.37283">
        <ele>243</ele>
        <time>2025-05-29T12:49:26Z</time>
      </trkpt>
      <trkpt lat="44.52678" lon="1.37282">
        <ele>243.4</ele>
        <time>2025-05-29T12:49:27Z</time>
      </trkpt>
      <trkpt lat="44.52675" lon="1.37282">
        <ele>243.6</ele>
        <time>2025-05-29T12:49:28Z</time>
      </trkpt>
      <trkpt lat="44.52673" lon="1.37281">
        <ele>244</ele>
        <time>2025-05-29T12:49:29Z</time>
      </trkpt>
      <trkpt lat="44.5267" lon="1.37281">
        <ele>244.2</ele>
        <time>2025-05-29T12:49:30Z</time>
      </trkpt>
      <trkpt lat="44.52668" lon="1.3728">
        <ele>244.4</ele>
        <time>2025-05-29T12:49:31Z</time>
      </trkpt>
      <trkpt lat="44.52665" lon="1.37278">
        <ele>244.6</ele>
        <time>2025-05-29T12:49:32Z</time>
      </trkpt>
      <trkpt lat="44.52663" lon="1.37277">
        <ele>245</ele>
        <time>2025-05-29T12:49:33Z</time>
      </trkpt>
      <trkpt lat="44.5266" lon="1.37277">
        <ele>245.2</ele>
        <time>2025-05-29T12:49:34Z</time>
      </trkpt>
      <trkpt lat="44.52658" lon="1.37276">
        <ele>245.4</ele>
        <time>2025-05-29T12:49:35Z</time>
      </trkpt>
      <trkpt lat="44.52655" lon="1.37276">
        <ele>245.6</ele>
        <time>2025-05-29T12:49:36Z</time>
      </trkpt>
      <trkpt lat="44.52652" lon="1.37275">
        <ele>245.8</ele>
        <time>2025-05-29T12:49:37Z</time>
      </trkpt>
      <trkpt lat="44.5265" lon="1.37274">
        <ele>246</ele>
        <time>2025-05-29T12:49:38Z</time>
      </trkpt>
      <trkpt lat="44.52648" lon="1.37273">
        <ele>246.2</ele>
        <time>2025-05-29T12:49:39Z</time>
      </trkpt>
      <trkpt lat="44.52645" lon="1.37273">
        <ele>246.4</ele>
        <time>2025-05-29T12:49:40Z</time>
      </trkpt>
      <trkpt lat="44.52642" lon="1.37272">
        <ele>246.6</ele>
        <time>2025-05-29T12:49:41Z</time>
      </trkpt>
      <trkpt lat="44.5264" lon="1.37271">
        <ele>246.8</ele>
        <time>2025-05-29T12:49:42Z</time>
      </trkpt>
      <trkpt lat="44.52638" lon="1.3727">
        <ele>247</ele>
        <time>2025-05-29T12:49:43Z</time>
      </trkpt>
      <trkpt lat="44.52636" lon="1.37268">
        <ele>247.2</ele>
        <time>2025-05-29T12:49:44Z</time>
      </trkpt>
      <trkpt lat="44.52634" lon="1.37267">
        <ele>247.4</ele>
        <time>2025-05-29T12:49:45Z</time>
      </trkpt>
      <trkpt lat="44.52632" lon="1.37265">
        <ele>247.4</ele>
        <time>2025-05-29T12:49:46Z</time>
      </trkpt>
      <trkpt lat="44.5263" lon="1.37263">
        <ele>247.6</ele>
        <time>2025-05-29T12:49:47Z</time>
      </trkpt>
      <trkpt lat="44.52628" lon="1.37261">
        <ele>247.8</ele>
        <time>2025-05-29T12:49:48Z</time>
      </trkpt>
      <trkpt lat="44.52626" lon="1.37259">
        <ele>247.8</ele>
        <time>2025-05-29T12:49:49Z</time>
      </trkpt>
      <trkpt lat="44.52623" lon="1.37257">
        <ele>248</ele>
        <time>2025-05-29T12:49:50Z</time>
      </trkpt>
      <trkpt lat="44.52621" lon="1.37256">
        <ele>248.2</ele>
        <time>2025-05-29T12:49:51Z</time>
      </trkpt>
      <trkpt lat="44.52619" lon="1.37254">
        <ele>248.4</ele>
        <time>2025-05-29T12:49:52Z</time>
      </trkpt>
      <trkpt lat="44.52617" lon="1.37253">
        <ele>248.6</ele>
        <time>2025-05-29T12:49:53Z</time>
      </trkpt>
      <trkpt lat="44.52615" lon="1.37252">
        <ele>248.8</ele>
        <time>2025-05-29T12:49:54Z</time>
      </trkpt>
      <trkpt lat="44.52613" lon="1.3725">
        <ele>249</ele>
        <time>2025-05-29T12:49:55Z</time>
      </trkpt>
      <trkpt lat="44.5261" lon="1.37249">
        <ele>249.2</ele>
        <time>2025-05-29T12:49:56Z</time>
      </trkpt>
      <trkpt lat="44.52608" lon="1.37248">
        <ele>249.4</ele>
        <time>2025-05-29T12:49:57Z</time>
      </trkpt>
      <trkpt lat="44.52606" lon="1.37247">
        <ele>249.8</ele>
        <time>2025-05-29T12:49:58Z</time>
      </trkpt>
      <trkpt lat="44.52603" lon="1.37246">
        <ele>250</ele>
        <time>2025-05-29T12:49:59Z</time>
      </trkpt>
      <trkpt lat="44.52601" lon="1.37245">
        <ele>250.2</ele>
        <time>2025-05-29T12:50:00Z</time>
      </trkpt>
      <trkpt lat="44.52599" lon="1.37244">
        <ele>250.4</ele>
        <time>2025-05-29T12:50:01Z</time>
      </trkpt>
      <trkpt lat="44.52596" lon="1.37243">
        <ele>250.6</ele>
        <time>2025-05-29T12:50:02Z</time>
      </trkpt>
      <trkpt lat="44.52594" lon="1.37242">
        <ele>250.8</ele>
        <time>2025-05-29T12:50:03Z</time>
      </trkpt>
      <trkpt lat="44.52592" lon="1.37241">
        <ele>250.8</ele>
        <time>2025-05-29T12:50:04Z</time>
      </trkpt>
      <trkpt lat="44.5259" lon="1.3724">
        <ele>251</ele>
        <time>2025-05-29T12:50:05Z</time>
      </trkpt>
      <trkpt lat="44.52587" lon="1.37239">
        <ele>251.2</ele>
        <time>2025-05-29T12:50:06Z</time>
      </trkpt>
      <trkpt lat="44.52585" lon="1.37238">
        <ele>251.4</ele>
        <time>2025-05-29T12:50:07Z</time>
      </trkpt>
      <trkpt lat="44.52583" lon="1.37237">
        <ele>251.4</ele>
        <time>2025-05-29T12:50:08Z</time>
      </trkpt>
      <trkpt lat="44.5258" lon="1.37236">
        <ele>251.6</ele>
        <time>2025-05-29T12:50:09Z</time>
      </trkpt>
      <trkpt lat="44.52577" lon="1.37235">
        <ele>251.6</ele>
        <time>2025-05-29T12:50:10Z</time>
      </trkpt>
      <trkpt lat="44.52575" lon="1.37234">
        <ele>251.6</ele>
        <time>2025-05-29T12:50:11Z</time>
      </trkpt>
      <trkpt lat="44.52572" lon="1.37233">
        <ele>251.8</ele>
        <time>2025-05-29T12:50:12Z</time>
      </trkpt>
      <trkpt lat="44.52569" lon="1.37232">
        <ele>251.8</ele>
        <time>2025-05-29T12:50:13Z</time>
      </trkpt>
      <trkpt lat="44.52566" lon="1.3723">
        <ele>251.8</ele>
        <time>2025-05-29T12:50:14Z</time>
      </trkpt>
      <trkpt lat="44.52563" lon="1.37228">
        <ele>251.6</ele>
        <time>2025-05-29T12:50:15Z</time>
      </trkpt>
      <trkpt lat="44.52559" lon="1.37226">
        <ele>251.6</ele>
        <time>2025-05-29T12:50:16Z</time>
      </trkpt>
      <trkpt lat="44.52556" lon="1.37222">
        <ele>251.4</ele>
        <time>2025-05-29T12:50:17Z</time>
      </trkpt>
      <trkpt lat="44.52554" lon="1.37219">
        <ele>251.2</ele>
        <time>2025-05-29T12:50:18Z</time>
      </trkpt>
      <trkpt lat="44.52552" lon="1.37214">
        <ele>251</ele>
        <time>2025-05-29T12:50:19Z</time>
      </trkpt>
      <trkpt lat="44.52551" lon="1.3721">
        <ele>251</ele>
        <time>2025-05-29T12:50:20Z</time>
      </trkpt>
      <trkpt lat="44.52549" lon="1.37206">
        <ele>250.8</ele>
        <time>2025-05-29T12:50:21Z</time>
      </trkpt>
      <trkpt lat="44.52548" lon="1.37201">
        <ele>251</ele>
        <time>2025-05-29T12:50:22Z</time>
      </trkpt>
      <trkpt lat="44.52546" lon="1.37197">
        <ele>251</ele>
        <time>2025-05-29T12:50:23Z</time>
      </trkpt>
      <trkpt lat="44.52545" lon="1.37192">
        <ele>251</ele>
        <time>2025-05-29T12:50:24Z</time>
      </trkpt>
      <trkpt lat="44.52544" lon="1.37187">
        <ele>251.2</ele>
        <time>2025-05-29T12:50:25Z</time>
      </trkpt>
      <trkpt lat="44.52542" lon="1.37183">
        <ele>251.4</ele>
        <time>2025-05-29T12:50:26Z</time>
      </trkpt>
      <trkpt lat="44.52541" lon="1.37178">
        <ele>251.4</ele>
        <time>2025-05-29T12:50:27Z</time>
      </trkpt>
      <trkpt lat="44.5254" lon="1.37174">
        <ele>251.4</ele>
        <time>2025-05-29T12:50:28Z</time>
      </trkpt>
      <trkpt lat="44.52539" lon="1.3717">
        <ele>251.6</ele>
        <time>2025-05-29T12:50:29Z</time>
      </trkpt>
      <trkpt lat="44.52539" lon="1.37166">
        <ele>251.6</ele>
        <time>2025-05-29T12:50:30Z</time>
      </trkpt>
      <trkpt lat="44.52538" lon="1.37162">
        <ele>251.8</ele>
        <time>2025-05-29T12:50:31Z</time>
      </trkpt>
      <trkpt lat="44.52537" lon="1.37158">
        <ele>252</ele>
        <time>2025-05-29T12:50:32Z</time>
      </trkpt>
      <trkpt lat="44.52536" lon="1.37153">
        <ele>252.4</ele>
        <time>2025-05-29T12:50:33Z</time>
      </trkpt>
      <trkpt lat="44.52535" lon="1.37149">
        <ele>252.4</ele>
        <time>2025-05-29T12:50:34Z</time>
      </trkpt>
      <trkpt lat="44.52535" lon="1.37145">
        <ele>252.8</ele>
        <time>2025-05-29T12:50:35Z</time>
      </trkpt>
      <trkpt lat="44.52534" lon="1.37141">
        <ele>253</ele>
        <time>2025-05-29T12:50:36Z</time>
      </trkpt>
      <trkpt lat="44.52533" lon="1.37137">
        <ele>253.2</ele>
        <time>2025-05-29T12:50:37Z</time>
      </trkpt>
      <trkpt lat="44.52532" lon="1.37133">
        <ele>253.2</ele>
        <time>2025-05-29T12:50:38Z</time>
      </trkpt>
      <trkpt lat="44.52532" lon="1.37129">
        <ele>253.4</ele>
        <time>2025-05-29T12:50:39Z</time>
      </trkpt>
      <trkpt lat="44.52531" lon="1.37125">
        <ele>253.4</ele>
        <time>2025-05-29T12:50:40Z</time>
      </trkpt>
      <trkpt lat="44.5253" lon="1.37121">
        <ele>253.6</ele>
        <time>2025-05-29T12:50:41Z</time>
      </trkpt>
      <trkpt lat="44.52529" lon="1.37117">
        <ele>253.6</ele>
        <time>2025-05-29T12:50:42Z</time>
      </trkpt>
      <trkpt lat="44.52528" lon="1.37113">
        <ele>253.8</ele>
        <time>2025-05-29T12:50:43Z</time>
      </trkpt>
      <trkpt lat="44.52527" lon="1.37109">
        <ele>254</ele>
        <time>2025-05-29T12:50:44Z</time>
      </trkpt>
      <trkpt lat="44.52526" lon="1.37105">
        <ele>254.2</ele>
        <time>2025-05-29T12:50:45Z</time>
      </trkpt>
      <trkpt lat="44.52526" lon="1.37101">
        <ele>254.2</ele>
        <time>2025-05-29T12:50:46Z</time>
      </trkpt>
      <trkpt lat="44.52525" lon="1.37097">
        <ele>254.4</ele>
        <time>2025-05-29T12:50:47Z</time>
      </trkpt>
      <trkpt lat="44.52524" lon="1.37093">
        <ele>254.6</ele>
        <time>2025-05-29T12:50:48Z</time>
      </trkpt>
      <trkpt lat="44.52523" lon="1.37089">
        <ele>254.8</ele>
        <time>2025-05-29T12:50:49Z</time>
      </trkpt>
      <trkpt lat="44.52522" lon="1.37086">
        <ele>254.8</ele>
        <time>2025-05-29T12:50:50Z</time>
      </trkpt>
      <trkpt lat="44.52522" lon="1.37082">
        <ele>255</ele>
        <time>2025-05-29T12:50:51Z</time>
      </trkpt>
      <trkpt lat="44.52521" lon="1.37078">
        <ele>255.2</ele>
        <time>2025-05-29T12:50:52Z</time>
      </trkpt>
      <trkpt lat="44.5252" lon="1.37074">
        <ele>255.2</ele>
        <time>2025-05-29T12:50:53Z</time>
      </trkpt>
      <trkpt lat="44.5252" lon="1.3707">
        <ele>255.2</ele>
        <time>2025-05-29T12:50:54Z</time>
      </trkpt>
      <trkpt lat="44.52519" lon="1.37066">
        <ele>255.2</ele>
        <time>2025-05-29T12:50:55Z</time>
      </trkpt>
      <trkpt lat="44.52519" lon="1.37062">
        <ele>255.2</ele>
        <time>2025-05-29T12:50:56Z</time>
      </trkpt>
      <trkpt lat="44.52518" lon="1.37058">
        <ele>255.2</ele>
        <time>2025-05-29T12:50:57Z</time>
      </trkpt>
      <trkpt lat="44.52518" lon="1.37054">
        <ele>255.4</ele>
        <time>2025-05-29T12:50:58Z</time>
      </trkpt>
      <trkpt lat="44.52517" lon="1.3705">
        <ele>255.6</ele>
        <time>2025-05-29T12:50:59Z</time>
      </trkpt>
      <trkpt lat="44.52517" lon="1.37046">
        <ele>255.8</ele>
        <time>2025-05-29T12:51:00Z</time>
      </trkpt>
      <trkpt lat="44.52516" lon="1.37041">
        <ele>255.8</ele>
        <time>2025-05-29T12:51:01Z</time>
      </trkpt>
      <trkpt lat="44.52516" lon="1.37037">
        <ele>256</ele>
        <time>2025-05-29T12:51:02Z</time>
      </trkpt>
      <trkpt lat="44.52515" lon="1.37033">
        <ele>256</ele>
        <time>2025-05-29T12:51:03Z</time>
      </trkpt>
      <trkpt lat="44.52514" lon="1.37029">
        <ele>256</ele>
        <time>2025-05-29T12:51:04Z</time>
      </trkpt>
      <trkpt lat="44.52513" lon="1.37024">
        <ele>256</ele>
        <time>2025-05-29T12:51:05Z</time>
      </trkpt>
      <trkpt lat="44.52512" lon="1.3702">
        <ele>256.2</ele>
        <time>2025-05-29T12:51:06Z</time>
      </trkpt>
      <trkpt lat="44.52511" lon="1.37016">
        <ele>256</ele>
        <time>2025-05-29T12:51:07Z</time>
      </trkpt>
      <trkpt lat="44.5251" lon="1.37013">
        <ele>256</ele>
        <time>2025-05-29T12:51:08Z</time>
      </trkpt>
      <trkpt lat="44.52508" lon="1.37008">
        <ele>256.2</ele>
        <time>2025-05-29T12:51:09Z</time>
      </trkpt>
      <trkpt lat="44.52507" lon="1.37004">
        <ele>256.2</ele>
        <time>2025-05-29T12:51:10Z</time>
      </trkpt>
      <trkpt lat="44.52506" lon="1.37">
        <ele>256.4</ele>
        <time>2025-05-29T12:51:11Z</time>
      </trkpt>
      <trkpt lat="44.52505" lon="1.36995">
        <ele>256.4</ele>
        <time>2025-05-29T12:51:12Z</time>
      </trkpt>
      <trkpt lat="44.52504" lon="1.36991">
        <ele>256.4</ele>
        <time>2025-05-29T12:51:13Z</time>
      </trkpt>
      <trkpt lat="44.52502" lon="1.36987">
        <ele>256.4</ele>
        <time>2025-05-29T12:51:14Z</time>
      </trkpt>
      <trkpt lat="44.52501" lon="1.36982">
        <ele>256.6</ele>
        <time>2025-05-29T12:51:15Z</time>
      </trkpt>
      <trkpt lat="44.52499" lon="1.36977">
        <ele>256.6</ele>
        <time>2025-05-29T12:51:16Z</time>
      </trkpt>
      <trkpt lat="44.52498" lon="1.36973">
        <ele>256.8</ele>
        <time>2025-05-29T12:51:17Z</time>
      </trkpt>
      <trkpt lat="44.52496" lon="1.36968">
        <ele>256.8</ele>
        <time>2025-05-29T12:51:18Z</time>
      </trkpt>
      <trkpt lat="44.52494" lon="1.36964">
        <ele>256.8</ele>
        <time>2025-05-29T12:51:19Z</time>
      </trkpt>
      <trkpt lat="44.52493" lon="1.36959">
        <ele>256.8</ele>
        <time>2025-05-29T12:51:20Z</time>
      </trkpt>
      <trkpt lat="44.52491" lon="1.36954">
        <ele>256.8</ele>
        <time>2025-05-29T12:51:21Z</time>
      </trkpt>
      <trkpt lat="44.52489" lon="1.36949">
        <ele>256.8</ele>
        <time>2025-05-29T12:51:22Z</time>
      </trkpt>
      <trkpt lat="44.52487" lon="1.36945">
        <ele>256.6</ele>
        <time>2025-05-29T12:51:23Z</time>
      </trkpt>
      <trkpt lat="44.52486" lon="1.36939">
        <ele>256.6</ele>
        <time>2025-05-29T12:51:24Z</time>
      </trkpt>
      <trkpt lat="44.52484" lon="1.36933">
        <ele>256.6</ele>
        <time>2025-05-29T12:51:25Z</time>
      </trkpt>
      <trkpt lat="44.52482" lon="1.36928">
        <ele>256.4</ele>
        <time>2025-05-29T12:51:26Z</time>
      </trkpt>
      <trkpt lat="44.52479" lon="1.36922">
        <ele>256.2</ele>
        <time>2025-05-29T12:51:27Z</time>
      </trkpt>
      <trkpt lat="44.52477" lon="1.36917">
        <ele>256.4</ele>
        <time>2025-05-29T12:51:28Z</time>
      </trkpt>
      <trkpt lat="44.52475" lon="1.36912">
        <ele>256.4</ele>
        <time>2025-05-29T12:51:29Z</time>
      </trkpt>
      <trkpt lat="44.52473" lon="1.36907">
        <ele>256.4</ele>
        <time>2025-05-29T12:51:30Z</time>
      </trkpt>
      <trkpt lat="44.52471" lon="1.36902">
        <ele>256.4</ele>
        <time>2025-05-29T12:51:31Z</time>
      </trkpt>
      <trkpt lat="44.52469" lon="1.36897">
        <ele>256.6</ele>
        <time>2025-05-29T12:51:32Z</time>
      </trkpt>
      <trkpt lat="44.52468" lon="1.36892">
        <ele>256.6</ele>
        <time>2025-05-29T12:51:33Z</time>
      </trkpt>
      <trkpt lat="44.52466" lon="1.36887">
        <ele>256.6</ele>
        <time>2025-05-29T12:51:34Z</time>
      </trkpt>
      <trkpt lat="44.52464" lon="1.36883">
        <ele>256.8</ele>
        <time>2025-05-29T12:51:35Z</time>
      </trkpt>
      <trkpt lat="44.52463" lon="1.36878">
        <ele>256.8</ele>
        <time>2025-05-29T12:51:36Z</time>
      </trkpt>
      <trkpt lat="44.52461" lon="1.36874">
        <ele>256.8</ele>
        <time>2025-05-29T12:51:37Z</time>
      </trkpt>
      <trkpt lat="44.5246" lon="1.36871">
        <ele>257</ele>
        <time>2025-05-29T12:51:38Z</time>
      </trkpt>
      <trkpt lat="44.52458" lon="1.36867">
        <ele>257.2</ele>
        <time>2025-05-29T12:51:39Z</time>
      </trkpt>
      <trkpt lat="44.52457" lon="1.36863">
        <ele>257.4</ele>
        <time>2025-05-29T12:51:40Z</time>
      </trkpt>
      <trkpt lat="44.52456" lon="1.3686">
        <ele>257.6</ele>
        <time>2025-05-29T12:51:41Z</time>
      </trkpt>
      <trkpt lat="44.52455" lon="1.36856">
        <ele>258</ele>
        <time>2025-05-29T12:51:42Z</time>
      </trkpt>
      <trkpt lat="44.52454" lon="1.36853">
        <ele>258.2</ele>
        <time>2025-05-29T12:51:43Z</time>
      </trkpt>
      <trkpt lat="44.52453" lon="1.36849">
        <ele>258.4</ele>
        <time>2025-05-29T12:51:44Z</time>
      </trkpt>
      <trkpt lat="44.52451" lon="1.36846">
        <ele>258.8</ele>
        <time>2025-05-29T12:51:45Z</time>
      </trkpt>
      <trkpt lat="44.5245" lon="1.36843">
        <ele>259</ele>
        <time>2025-05-29T12:51:46Z</time>
      </trkpt>
      <trkpt lat="44.52449" lon="1.36841">
        <ele>259.2</ele>
        <time>2025-05-29T12:51:47Z</time>
      </trkpt>
      <trkpt lat="44.52448" lon="1.36839">
        <ele>259.4</ele>
        <time>2025-05-29T12:51:48Z</time>
      </trkpt>
      <trkpt lat="44.52446" lon="1.36836">
        <ele>259.6</ele>
        <time>2025-05-29T12:51:49Z</time>
      </trkpt>
      <trkpt lat="44.52445" lon="1.36834">
        <ele>259.8</ele>
        <time>2025-05-29T12:51:50Z</time>
      </trkpt>
      <trkpt lat="44.52444" lon="1.36832">
        <ele>260.2</ele>
        <time>2025-05-29T12:51:51Z</time>
      </trkpt>
      <trkpt lat="44.52443" lon="1.3683">
        <ele>260.4</ele>
        <time>2025-05-29T12:51:52Z</time>
      </trkpt>
      <trkpt lat="44.52441" lon="1.36828">
        <ele>260.6</ele>
        <time>2025-05-29T12:51:53Z</time>
      </trkpt>
      <trkpt lat="44.5244" lon="1.36826">
        <ele>260.8</ele>
        <time>2025-05-29T12:51:54Z</time>
      </trkpt>
      <trkpt lat="44.52439" lon="1.36824">
        <ele>261</ele>
        <time>2025-05-29T12:51:55Z</time>
      </trkpt>
      <trkpt lat="44.52437" lon="1.36822">
        <ele>261</ele>
        <time>2025-05-29T12:51:56Z</time>
      </trkpt>
      <trkpt lat="44.52436" lon="1.3682">
        <ele>261.2</ele>
        <time>2025-05-29T12:51:57Z</time>
      </trkpt>
      <trkpt lat="44.52434" lon="1.36818">
        <ele>261.4</ele>
        <time>2025-05-29T12:51:58Z</time>
      </trkpt>
      <trkpt lat="44.52433" lon="1.36816">
        <ele>261.8</ele>
        <time>2025-05-29T12:51:59Z</time>
      </trkpt>
      <trkpt lat="44.52432" lon="1.36814">
        <ele>262</ele>
        <time>2025-05-29T12:52:00Z</time>
      </trkpt>
      <trkpt lat="44.52431" lon="1.36812">
        <ele>262</ele>
        <time>2025-05-29T12:52:01Z</time>
      </trkpt>
      <trkpt lat="44.5243" lon="1.3681">
        <ele>262.2</ele>
        <time>2025-05-29T12:52:02Z</time>
      </trkpt>
      <trkpt lat="44.52428" lon="1.36808">
        <ele>262.4</ele>
        <time>2025-05-29T12:52:03Z</time>
      </trkpt>
      <trkpt lat="44.52428" lon="1.36806">
        <ele>262.6</ele>
        <time>2025-05-29T12:52:04Z</time>
      </trkpt>
      <trkpt lat="44.52427" lon="1.36804">
        <ele>262.8</ele>
        <time>2025-05-29T12:52:05Z</time>
      </trkpt>
      <trkpt lat="44.52426" lon="1.36802">
        <ele>263</ele>
        <time>2025-05-29T12:52:06Z</time>
      </trkpt>
      <trkpt lat="44.52424" lon="1.368">
        <ele>263.2</ele>
        <time>2025-05-29T12:52:07Z</time>
      </trkpt>
      <trkpt lat="44.52423" lon="1.36798">
        <ele>263.4</ele>
        <time>2025-05-29T12:52:08Z</time>
      </trkpt>
      <trkpt lat="44.52423" lon="1.36796">
        <ele>263.6</ele>
        <time>2025-05-29T12:52:09Z</time>
      </trkpt>
      <trkpt lat="44.52422" lon="1.36794">
        <ele>263.8</ele>
        <time>2025-05-29T12:52:10Z</time>
      </trkpt>
      <trkpt lat="44.52421" lon="1.36792">
        <ele>264</ele>
        <time>2025-05-29T12:52:11Z</time>
      </trkpt>
      <trkpt lat="44.52421" lon="1.3679">
        <ele>264.2</ele>
        <time>2025-05-29T12:52:12Z</time>
      </trkpt>
      <trkpt lat="44.5242" lon="1.36788">
        <ele>264.4</ele>
        <time>2025-05-29T12:52:13Z</time>
      </trkpt>
      <trkpt lat="44.52419" lon="1.36786">
        <ele>264.4</ele>
        <time>2025-05-29T12:52:14Z</time>
      </trkpt>
      <trkpt lat="44.52418" lon="1.36784">
        <ele>264.6</ele>
        <time>2025-05-29T12:52:15Z</time>
      </trkpt>
      <trkpt lat="44.52418" lon="1.36781">
        <ele>264.8</ele>
        <time>2025-05-29T12:52:16Z</time>
      </trkpt>
      <trkpt lat="44.52418" lon="1.36779">
        <ele>265</ele>
        <time>2025-05-29T12:52:17Z</time>
      </trkpt>
      <trkpt lat="44.52417" lon="1.36777">
        <ele>265.2</ele>
        <time>2025-05-29T12:52:18Z</time>
      </trkpt>
      <trkpt lat="44.52417" lon="1.36776">
        <ele>265.4</ele>
        <time>2025-05-29T12:52:19Z</time>
      </trkpt>
      <trkpt lat="44.52416" lon="1.36774">
        <ele>265.6</ele>
        <time>2025-05-29T12:52:20Z</time>
      </trkpt>
      <trkpt lat="44.52415" lon="1.36772">
        <ele>266</ele>
        <time>2025-05-29T12:52:21Z</time>
      </trkpt>
      <trkpt lat="44.52414" lon="1.3677">
        <ele>266.2</ele>
        <time>2025-05-29T12:52:22Z</time>
      </trkpt>
      <trkpt lat="44.52414" lon="1.36769">
        <ele>266.4</ele>
        <time>2025-05-29T12:52:23Z</time>
      </trkpt>
      <trkpt lat="44.52413" lon="1.36768">
        <ele>266.6</ele>
        <time>2025-05-29T12:52:24Z</time>
      </trkpt>
      <trkpt lat="44.52413" lon="1.36766">
        <ele>266.8</ele>
        <time>2025-05-29T12:52:25Z</time>
      </trkpt>
      <trkpt lat="44.52413" lon="1.36764">
        <ele>267</ele>
        <time>2025-05-29T12:52:26Z</time>
      </trkpt>
      <trkpt lat="44.52412" lon="1.36762">
        <ele>267.2</ele>
        <time>2025-05-29T12:52:27Z</time>
      </trkpt>
      <trkpt lat="44.52411" lon="1.36761">
        <ele>267.4</ele>
        <time>2025-05-29T12:52:28Z</time>
      </trkpt>
      <trkpt lat="44.5241" lon="1.36759">
        <ele>267.6</ele>
        <time>2025-05-29T12:52:29Z</time>
      </trkpt>
      <trkpt lat="44.52409" lon="1.36757">
        <ele>267.8</ele>
        <time>2025-05-29T12:52:30Z</time>
      </trkpt>
      <trkpt lat="44.52409" lon="1.36755">
        <ele>268</ele>
        <time>2025-05-29T12:52:31Z</time>
      </trkpt>
      <trkpt lat="44.52408" lon="1.36753">
        <ele>268.4</ele>
        <time>2025-05-29T12:52:32Z</time>
      </trkpt>
      <trkpt lat="44.52408" lon="1.36752">
        <ele>268.6</ele>
        <time>2025-05-29T12:52:33Z</time>
      </trkpt>
      <trkpt lat="44.52407" lon="1.3675">
        <ele>268.8</ele>
        <time>2025-05-29T12:52:34Z</time>
      </trkpt>
      <trkpt lat="44.52407" lon="1.36749">
        <ele>269</ele>
        <time>2025-05-29T12:52:35Z</time>
      </trkpt>
      <trkpt lat="44.52406" lon="1.36748">
        <ele>269.2</ele>
        <time>2025-05-29T12:52:36Z</time>
      </trkpt>
      <trkpt lat="44.52406" lon="1.36746">
        <ele>269.4</ele>
        <time>2025-05-29T12:52:37Z</time>
      </trkpt>
      <trkpt lat="44.52405" lon="1.36745">
        <ele>269.6</ele>
        <time>2025-05-29T12:52:38Z</time>
      </trkpt>
      <trkpt lat="44.52404" lon="1.36743">
        <ele>269.8</ele>
        <time>2025-05-29T12:52:39Z</time>
      </trkpt>
      <trkpt lat="44.52403" lon="1.36741">
        <ele>270</ele>
        <time>2025-05-29T12:52:40Z</time>
      </trkpt>
      <trkpt lat="44.52402" lon="1.36739">
        <ele>270.2</ele>
        <time>2025-05-29T12:52:41Z</time>
      </trkpt>
      <trkpt lat="44.52402" lon="1.36737">
        <ele>270.4</ele>
        <time>2025-05-29T12:52:42Z</time>
      </trkpt>
      <trkpt lat="44.52401" lon="1.36736">
        <ele>270.4</ele>
        <time>2025-05-29T12:52:43Z</time>
      </trkpt>
      <trkpt lat="44.524" lon="1.36734">
        <ele>270.6</ele>
        <time>2025-05-29T12:52:44Z</time>
      </trkpt>
      <trkpt lat="44.52399" lon="1.36732">
        <ele>270.8</ele>
        <time>2025-05-29T12:52:45Z</time>
      </trkpt>
      <trkpt lat="44.52398" lon="1.3673">
        <ele>271</ele>
        <time>2025-05-29T12:52:46Z</time>
      </trkpt>
      <trkpt lat="44.52398" lon="1.36729">
        <ele>271.2</ele>
        <time>2025-05-29T12:52:47Z</time>
      </trkpt>
      <trkpt lat="44.52397" lon="1.36727">
        <ele>271.4</ele>
        <time>2025-05-29T12:52:48Z</time>
      </trkpt>
      <trkpt lat="44.52396" lon="1.36725">
        <ele>271.6</ele>
        <time>2025-05-29T12:52:49Z</time>
      </trkpt>
      <trkpt lat="44.52395" lon="1.36723">
        <ele>271.8</ele>
        <time>2025-05-29T12:52:50Z</time>
      </trkpt>
      <trkpt lat="44.52394" lon="1.36721">
        <ele>271.8</ele>
        <time>2025-05-29T12:52:51Z</time>
      </trkpt>
      <trkpt lat="44.52393" lon="1.3672">
        <ele>272</ele>
        <time>2025-05-29T12:52:52Z</time>
      </trkpt>
      <trkpt lat="44.52392" lon="1.36718">
        <ele>272.2</ele>
        <time>2025-05-29T12:52:53Z</time>
      </trkpt>
      <trkpt lat="44.52391" lon="1.36716">
        <ele>272.4</ele>
        <time>2025-05-29T12:52:54Z</time>
      </trkpt>
      <trkpt lat="44.5239" lon="1.36715">
        <ele>272.6</ele>
        <time>2025-05-29T12:52:55Z</time>
      </trkpt>
      <trkpt lat="44.52389" lon="1.36713">
        <ele>272.6</ele>
        <time>2025-05-29T12:52:56Z</time>
      </trkpt>
      <trkpt lat="44.52388" lon="1.36711">
        <ele>272.8</ele>
        <time>2025-05-29T12:52:57Z</time>
      </trkpt>
      <trkpt lat="44.52387" lon="1.36709">
        <ele>272.8</ele>
        <time>2025-05-29T12:52:58Z</time>
      </trkpt>
      <trkpt lat="44.52386" lon="1.36707">
        <ele>273</ele>
        <time>2025-05-29T12:52:59Z</time>
      </trkpt>
      <trkpt lat="44.52385" lon="1.36704">
        <ele>273</ele>
        <time>2025-05-29T12:53:00Z</time>
      </trkpt>
      <trkpt lat="44.52383" lon="1.36702">
        <ele>273.2</ele>
        <time>2025-05-29T12:53:01Z</time>
      </trkpt>
      <trkpt lat="44.52382" lon="1.367">
        <ele>273.2</ele>
        <time>2025-05-29T12:53:02Z</time>
      </trkpt>
      <trkpt lat="44.52381" lon="1.36697">
        <ele>273.2</ele>
        <time>2025-05-29T12:53:03Z</time>
      </trkpt>
      <trkpt lat="44.5238" lon="1.36695">
        <ele>273.2</ele>
        <time>2025-05-29T12:53:04Z</time>
      </trkpt>
      <trkpt lat="44.52379" lon="1.36692">
        <ele>273.2</ele>
        <time>2025-05-29T12:53:05Z</time>
      </trkpt>
      <trkpt lat="44.52377" lon="1.36689">
        <ele>273.2</ele>
        <time>2025-05-29T12:53:06Z</time>
      </trkpt>
      <trkpt lat="44.52376" lon="1.36686">
        <ele>273.2</ele>
        <time>2025-05-29T12:53:07Z</time>
      </trkpt>
      <trkpt lat="44.52375" lon="1.36683">
        <ele>273.2</ele>
        <time>2025-05-29T12:53:08Z</time>
      </trkpt>
      <trkpt lat="44.52373" lon="1.36679">
        <ele>273.2</ele>
        <time>2025-05-29T12:53:09Z</time>
      </trkpt>
      <trkpt lat="44.52372" lon="1.36676">
        <ele>273.2</ele>
        <time>2025-05-29T12:53:10Z</time>
      </trkpt>
      <trkpt lat="44.52371" lon="1.36673">
        <ele>273.2</ele>
        <time>2025-05-29T12:53:11Z</time>
      </trkpt>
      <trkpt lat="44.52369" lon="1.36669">
        <ele>273.2</ele>
        <time>2025-05-29T12:53:12Z</time>
      </trkpt>
      <trkpt lat="44.52367" lon="1.36666">
        <ele>273</ele>
        <time>2025-05-29T12:53:13Z</time>
      </trkpt>
      <trkpt lat="44.52366" lon="1.36662">
        <ele>273</ele>
        <time>2025-05-29T12:53:14Z</time>
      </trkpt>
      <trkpt lat="44.52365" lon="1.36658">
        <ele>273</ele>
        <time>2025-05-29T12:53:15Z</time>
      </trkpt>
      <trkpt lat="44.52364" lon="1.36654">
        <ele>273</ele>
        <time>2025-05-29T12:53:16Z</time>
      </trkpt>
      <trkpt lat="44.52363" lon="1.3665">
        <ele>273</ele>
        <time>2025-05-29T12:53:17Z</time>
      </trkpt>
      <trkpt lat="44.52362" lon="1.36646">
        <ele>273.2</ele>
        <time>2025-05-29T12:53:18Z</time>
      </trkpt>
      <trkpt lat="44.52361" lon="1.36642">
        <ele>273.2</ele>
        <time>2025-05-29T12:53:19Z</time>
      </trkpt>
      <trkpt lat="44.5236" lon="1.36638">
        <ele>273.4</ele>
        <time>2025-05-29T12:53:20Z</time>
      </trkpt>
      <trkpt lat="44.5236" lon="1.36634">
        <ele>273.4</ele>
        <time>2025-05-29T12:53:21Z</time>
      </trkpt>
      <trkpt lat="44.5236" lon="1.3663">
        <ele>273.6</ele>
        <time>2025-05-29T12:53:22Z</time>
      </trkpt>
      <trkpt lat="44.5236" lon="1.36626">
        <ele>273.6</ele>
        <time>2025-05-29T12:53:23Z</time>
      </trkpt>
      <trkpt lat="44.5236" lon="1.36621">
        <ele>273.6</ele>
        <time>2025-05-29T12:53:24Z</time>
      </trkpt>
      <trkpt lat="44.5236" lon="1.36617">
        <ele>273.8</ele>
        <time>2025-05-29T12:53:25Z</time>
      </trkpt>
      <trkpt lat="44.52359" lon="1.36612">
        <ele>273.8</ele>
        <time>2025-05-29T12:53:26Z</time>
      </trkpt>
      <trkpt lat="44.52359" lon="1.36608">
        <ele>273.8</ele>
        <time>2025-05-29T12:53:27Z</time>
      </trkpt>
      <trkpt lat="44.52358" lon="1.36604">
        <ele>274</ele>
        <time>2025-05-29T12:53:28Z</time>
      </trkpt>
      <trkpt lat="44.52356" lon="1.366">
        <ele>274</ele>
        <time>2025-05-29T12:53:29Z</time>
      </trkpt>
      <trkpt lat="44.52354" lon="1.36597">
        <ele>274</ele>
        <time>2025-05-29T12:53:30Z</time>
      </trkpt>
      <trkpt lat="44.52352" lon="1.36594">
        <ele>274.2</ele>
        <time>2025-05-29T12:53:31Z</time>
      </trkpt>
      <trkpt lat="44.5235" lon="1.36591">
        <ele>274.2</ele>
        <time>2025-05-29T12:53:32Z</time>
      </trkpt>
      <trkpt lat="44.52347" lon="1.36587">
        <ele>274.2</ele>
        <time>2025-05-29T12:53:33Z</time>
      </trkpt>
      <trkpt lat="44.52345" lon="1.36584">
        <ele>274.2</ele>
        <time>2025-05-29T12:53:34Z</time>
      </trkpt>
      <trkpt lat="44.52342" lon="1.3658">
        <ele>274.2</ele>
        <time>2025-05-29T12:53:35Z</time>
      </trkpt>
      <trkpt lat="44.52339" lon="1.36575">
        <ele>274.2</ele>
        <time>2025-05-29T12:53:36Z</time>
      </trkpt>
      <trkpt lat="44.52336" lon="1.36571">
        <ele>273.8</ele>
        <time>2025-05-29T12:53:37Z</time>
      </trkpt>
      <trkpt lat="44.52332" lon="1.36566">
        <ele>273.6</ele>
        <time>2025-05-29T12:53:38Z</time>
      </trkpt>
      <trkpt lat="44.52328" lon="1.36561">
        <ele>273.4</ele>
        <time>2025-05-29T12:53:39Z</time>
      </trkpt>
      <trkpt lat="44.52324" lon="1.36557">
        <ele>273.2</ele>
        <time>2025-05-29T12:53:40Z</time>
      </trkpt>
      <trkpt lat="44.5232" lon="1.36552">
        <ele>272.8</ele>
        <time>2025-05-29T12:53:41Z</time>
      </trkpt>
      <trkpt lat="44.52316" lon="1.36548">
        <ele>272.6</ele>
        <time>2025-05-29T12:53:42Z</time>
      </trkpt>
      <trkpt lat="44.52312" lon="1.36543">
        <ele>272.4</ele>
        <time>2025-05-29T12:53:43Z</time>
      </trkpt>
      <trkpt lat="44.52307" lon="1.36538">
        <ele>272.4</ele>
        <time>2025-05-29T12:53:44Z</time>
      </trkpt>
      <trkpt lat="44.52304" lon="1.36533">
        <ele>272.2</ele>
        <time>2025-05-29T12:53:45Z</time>
      </trkpt>
      <trkpt lat="44.52302" lon="1.36527">
        <ele>272.2</ele>
        <time>2025-05-29T12:53:46Z</time>
      </trkpt>
      <trkpt lat="44.523" lon="1.3652">
        <ele>272.2</ele>
        <time>2025-05-29T12:53:47Z</time>
      </trkpt>
      <trkpt lat="44.523" lon="1.36515">
        <ele>272.2</ele>
        <time>2025-05-29T12:53:48Z</time>
      </trkpt>
      <trkpt lat="44.52301" lon="1.36509">
        <ele>272.4</ele>
        <time>2025-05-29T12:53:49Z</time>
      </trkpt>
      <trkpt lat="44.52302" lon="1.36505">
        <ele>272.4</ele>
        <time>2025-05-29T12:53:50Z</time>
      </trkpt>
      <trkpt lat="44.52302" lon="1.365">
        <ele>272.4</ele>
        <time>2025-05-29T12:53:51Z</time>
      </trkpt>
      <trkpt lat="44.52303" lon="1.36495">
        <ele>272.6</ele>
        <time>2025-05-29T12:53:52Z</time>
      </trkpt>
      <trkpt lat="44.52303" lon="1.3649">
        <ele>272.6</ele>
        <time>2025-05-29T12:53:53Z</time>
      </trkpt>
      <trkpt lat="44.52304" lon="1.36485">
        <ele>272.8</ele>
        <time>2025-05-29T12:53:54Z</time>
      </trkpt>
      <trkpt lat="44.52305" lon="1.3648">
        <ele>272.8</ele>
        <time>2025-05-29T12:53:55Z</time>
      </trkpt>
      <trkpt lat="44.52307" lon="1.36474">
        <ele>273</ele>
        <time>2025-05-29T12:53:56Z</time>
      </trkpt>
      <trkpt lat="44.52308" lon="1.36469">
        <ele>273.2</ele>
        <time>2025-05-29T12:53:57Z</time>
      </trkpt>
      <trkpt lat="44.5231" lon="1.36464">
        <ele>273.2</ele>
        <time>2025-05-29T12:53:58Z</time>
      </trkpt>
      <trkpt lat="44.52311" lon="1.36458">
        <ele>273.2</ele>
        <time>2025-05-29T12:53:59Z</time>
      </trkpt>
      <trkpt lat="44.52313" lon="1.36453">
        <ele>273.4</ele>
        <time>2025-05-29T12:54:00Z</time>
      </trkpt>
      <trkpt lat="44.52314" lon="1.36448">
        <ele>273.4</ele>
        <time>2025-05-29T12:54:01Z</time>
      </trkpt>
      <trkpt lat="44.52316" lon="1.36443">
        <ele>273.6</ele>
        <time>2025-05-29T12:54:02Z</time>
      </trkpt>
      <trkpt lat="44.52317" lon="1.36438">
        <ele>273.8</ele>
        <time>2025-05-29T12:54:03Z</time>
      </trkpt>
      <trkpt lat="44.52319" lon="1.36432">
        <ele>273.8</ele>
        <time>2025-05-29T12:54:04Z</time>
      </trkpt>
      <trkpt lat="44.5232" lon="1.36427">
        <ele>274</ele>
        <time>2025-05-29T12:54:05Z</time>
      </trkpt>
      <trkpt lat="44.52322" lon="1.36422">
        <ele>274</ele>
        <time>2025-05-29T12:54:06Z</time>
      </trkpt>
      <trkpt lat="44.52324" lon="1.36416">
        <ele>274</ele>
        <time>2025-05-29T12:54:07Z</time>
      </trkpt>
      <trkpt lat="44.52326" lon="1.36411">
        <ele>274</ele>
        <time>2025-05-29T12:54:08Z</time>
      </trkpt>
      <trkpt lat="44.52328" lon="1.36405">
        <ele>274</ele>
        <time>2025-05-29T12:54:09Z</time>
      </trkpt>
      <trkpt lat="44.5233" lon="1.36398">
        <ele>273.8</ele>
        <time>2025-05-29T12:54:10Z</time>
      </trkpt>
      <trkpt lat="44.52333" lon="1.36392">
        <ele>273.6</ele>
        <time>2025-05-29T12:54:11Z</time>
      </trkpt>
      <trkpt lat="44.52335" lon="1.36386">
        <ele>273.2</ele>
        <time>2025-05-29T12:54:12Z</time>
      </trkpt>
      <trkpt lat="44.52338" lon="1.36379">
        <ele>273</ele>
        <time>2025-05-29T12:54:13Z</time>
      </trkpt>
      <trkpt lat="44.5234" lon="1.36372">
        <ele>272.8</ele>
        <time>2025-05-29T12:54:14Z</time>
      </trkpt>
      <trkpt lat="44.52343" lon="1.36365">
        <ele>272.8</ele>
        <time>2025-05-29T12:54:15Z</time>
      </trkpt>
      <trkpt lat="44.52345" lon="1.36358">
        <ele>273</ele>
        <time>2025-05-29T12:54:16Z</time>
      </trkpt>
      <trkpt lat="44.52347" lon="1.36351">
        <ele>272.8</ele>
        <time>2025-05-29T12:54:17Z</time>
      </trkpt>
      <trkpt lat="44.52349" lon="1.36344">
        <ele>272.6</ele>
        <time>2025-05-29T12:54:18Z</time>
      </trkpt>
      <trkpt lat="44.52351" lon="1.36335">
        <ele>272.6</ele>
        <time>2025-05-29T12:54:19Z</time>
      </trkpt>
      <trkpt lat="44.52353" lon="1.36326">
        <ele>272.2</ele>
        <time>2025-05-29T12:54:20Z</time>
      </trkpt>
      <trkpt lat="44.52355" lon="1.36318">
        <ele>271.6</ele>
        <time>2025-05-29T12:54:21Z</time>
      </trkpt>
      <trkpt lat="44.52358" lon="1.36309">
        <ele>271.2</ele>
        <time>2025-05-29T12:54:22Z</time>
      </trkpt>
      <trkpt lat="44.5236" lon="1.36301">
        <ele>270.8</ele>
        <time>2025-05-29T12:54:23Z</time>
      </trkpt>
      <trkpt lat="44.52363" lon="1.36292">
        <ele>270</ele>
        <time>2025-05-29T12:54:24Z</time>
      </trkpt>
      <trkpt lat="44.52365" lon="1.36284">
        <ele>269.8</ele>
        <time>2025-05-29T12:54:25Z</time>
      </trkpt>
      <trkpt lat="44.52368" lon="1.36276">
        <ele>269.6</ele>
        <time>2025-05-29T12:54:26Z</time>
      </trkpt>
      <trkpt lat="44.52371" lon="1.36268">
        <ele>269.4</ele>
        <time>2025-05-29T12:54:27Z</time>
      </trkpt>
      <trkpt lat="44.52375" lon="1.3626">
        <ele>269.4</ele>
        <time>2025-05-29T12:54:28Z</time>
      </trkpt>
      <trkpt lat="44.52379" lon="1.36254">
        <ele>269.2</ele>
        <time>2025-05-29T12:54:29Z</time>
      </trkpt>
      <trkpt lat="44.52383" lon="1.36248">
        <ele>269</ele>
        <time>2025-05-29T12:54:30Z</time>
      </trkpt>
      <trkpt lat="44.52386" lon="1.36241">
        <ele>268.8</ele>
        <time>2025-05-29T12:54:31Z</time>
      </trkpt>
      <trkpt lat="44.52389" lon="1.36233">
        <ele>268.8</ele>
        <time>2025-05-29T12:54:32Z</time>
      </trkpt>
      <trkpt lat="44.52391" lon="1.36226">
        <ele>268.6</ele>
        <time>2025-05-29T12:54:33Z</time>
      </trkpt>
      <trkpt lat="44.52392" lon="1.36218">
        <ele>268.6</ele>
        <time>2025-05-29T12:54:34Z</time>
      </trkpt>
      <trkpt lat="44.52394" lon="1.36212">
        <ele>268.8</ele>
        <time>2025-05-29T12:54:35Z</time>
      </trkpt>
      <trkpt lat="44.52395" lon="1.36205">
        <ele>269</ele>
        <time>2025-05-29T12:54:36Z</time>
      </trkpt>
      <trkpt lat="44.52396" lon="1.36199">
        <ele>269</ele>
        <time>2025-05-29T12:54:37Z</time>
      </trkpt>
      <trkpt lat="44.52398" lon="1.36193">
        <ele>269.4</ele>
        <time>2025-05-29T12:54:38Z</time>
      </trkpt>
      <trkpt lat="44.52399" lon="1.36186">
        <ele>269.4</ele>
        <time>2025-05-29T12:54:39Z</time>
      </trkpt>
      <trkpt lat="44.524" lon="1.36179">
        <ele>269.4</ele>
        <time>2025-05-29T12:54:40Z</time>
      </trkpt>
      <trkpt lat="44.524" lon="1.36172">
        <ele>269.4</ele>
        <time>2025-05-29T12:54:41Z</time>
      </trkpt>
      <trkpt lat="44.52401" lon="1.36165">
        <ele>269.4</ele>
        <time>2025-05-29T12:54:42Z</time>
      </trkpt>
      <trkpt lat="44.52402" lon="1.36158">
        <ele>269.4</ele>
        <time>2025-05-29T12:54:43Z</time>
      </trkpt>
      <trkpt lat="44.52402" lon="1.3615">
        <ele>269.4</ele>
        <time>2025-05-29T12:54:44Z</time>
      </trkpt>
      <trkpt lat="44.52403" lon="1.36144">
        <ele>269.4</ele>
        <time>2025-05-29T12:54:45Z</time>
      </trkpt>
      <trkpt lat="44.52403" lon="1.36137">
        <ele>269.4</ele>
        <time>2025-05-29T12:54:46Z</time>
      </trkpt>
      <trkpt lat="44.52403" lon="1.3613">
        <ele>269.4</ele>
        <time>2025-05-29T12:54:47Z</time>
      </trkpt>
      <trkpt lat="44.52404" lon="1.36123">
        <ele>269.4</ele>
        <time>2025-05-29T12:54:48Z</time>
      </trkpt>
      <trkpt lat="44.52406" lon="1.36117">
        <ele>269.6</ele>
        <time>2025-05-29T12:54:49Z</time>
      </trkpt>
      <trkpt lat="44.52407" lon="1.36111">
        <ele>269.6</ele>
        <time>2025-05-29T12:54:50Z</time>
      </trkpt>
      <trkpt lat="44.52409" lon="1.36105">
        <ele>269.8</ele>
        <time>2025-05-29T12:54:51Z</time>
      </trkpt>
      <trkpt lat="44.52412" lon="1.36101">
        <ele>270</ele>
        <time>2025-05-29T12:54:52Z</time>
      </trkpt>
      <trkpt lat="44.52414" lon="1.36097">
        <ele>270.2</ele>
        <time>2025-05-29T12:54:53Z</time>
      </trkpt>
      <trkpt lat="44.52417" lon="1.36092">
        <ele>270.4</ele>
        <time>2025-05-29T12:54:54Z</time>
      </trkpt>
      <trkpt lat="44.52419" lon="1.36089">
        <ele>270.6</ele>
        <time>2025-05-29T12:54:55Z</time>
      </trkpt>
      <trkpt lat="44.52422" lon="1.36085">
        <ele>271</ele>
        <time>2025-05-29T12:54:56Z</time>
      </trkpt>
      <trkpt lat="44.52424" lon="1.36081">
        <ele>271.2</ele>
        <time>2025-05-29T12:54:57Z</time>
      </trkpt>
      <trkpt lat="44.52426" lon="1.36078">
        <ele>271.2</ele>
        <time>2025-05-29T12:54:58Z</time>
      </trkpt>
      <trkpt lat="44.52428" lon="1.36074">
        <ele>271.4</ele>
        <time>2025-05-29T12:54:59Z</time>
      </trkpt>
      <trkpt lat="44.52429" lon="1.3607">
        <ele>271.6</ele>
        <time>2025-05-29T12:55:00Z</time>
      </trkpt>
      <trkpt lat="44.52431" lon="1.36067">
        <ele>271.8</ele>
        <time>2025-05-29T12:55:01Z</time>
      </trkpt>
      <trkpt lat="44.52433" lon="1.36064">
        <ele>271.8</ele>
        <time>2025-05-29T12:55:02Z</time>
      </trkpt>
      <trkpt lat="44.52435" lon="1.36061">
        <ele>272</ele>
        <time>2025-05-29T12:55:03Z</time>
      </trkpt>
      <trkpt lat="44.52437" lon="1.36057">
        <ele>272.2</ele>
        <time>2025-05-29T12:55:04Z</time>
      </trkpt>
      <trkpt lat="44.52439" lon="1.36054">
        <ele>272.4</ele>
        <time>2025-05-29T12:55:05Z</time>
      </trkpt>
      <trkpt lat="44.52441" lon="1.3605">
        <ele>272.4</ele>
        <time>2025-05-29T12:55:06Z</time>
      </trkpt>
      <trkpt lat="44.52443" lon="1.36047">
        <ele>272.8</ele>
        <time>2025-05-29T12:55:07Z</time>
      </trkpt>
      <trkpt lat="44.52445" lon="1.36043">
        <ele>273</ele>
        <time>2025-05-29T12:55:08Z</time>
      </trkpt>
      <trkpt lat="44.52447" lon="1.3604">
        <ele>273.2</ele>
        <time>2025-05-29T12:55:09Z</time>
      </trkpt>
      <trkpt lat="44.52448" lon="1.36036">
        <ele>273.4</ele>
        <time>2025-05-29T12:55:10Z</time>
      </trkpt>
      <trkpt lat="44.52449" lon="1.36032">
        <ele>273.6</ele>
        <time>2025-05-29T12:55:11Z</time>
      </trkpt>
      <trkpt lat="44.5245" lon="1.36027">
        <ele>273.8</ele>
        <time>2025-05-29T12:55:12Z</time>
      </trkpt>
      <trkpt lat="44.5245" lon="1.36023">
        <ele>274</ele>
        <time>2025-05-29T12:55:13Z</time>
      </trkpt>
      <trkpt lat="44.52449" lon="1.36019">
        <ele>274</ele>
        <time>2025-05-29T12:55:14Z</time>
      </trkpt>
      <trkpt lat="44.52449" lon="1.36014">
        <ele>274</ele>
        <time>2025-05-29T12:55:15Z</time>
      </trkpt>
      <trkpt lat="44.52448" lon="1.36009">
        <ele>274</ele>
        <time>2025-05-29T12:55:16Z</time>
      </trkpt>
      <trkpt lat="44.52448" lon="1.36004">
        <ele>274</ele>
        <time>2025-05-29T12:55:17Z</time>
      </trkpt>
      <trkpt lat="44.52448" lon="1.35999">
        <ele>274</ele>
        <time>2025-05-29T12:55:18Z</time>
      </trkpt>
      <trkpt lat="44.52448" lon="1.35994">
        <ele>274</ele>
        <time>2025-05-29T12:55:19Z</time>
      </trkpt>
      <trkpt lat="44.52449" lon="1.35989">
        <ele>274</ele>
        <time>2025-05-29T12:55:20Z</time>
      </trkpt>
      <trkpt lat="44.5245" lon="1.35984">
        <ele>274</ele>
        <time>2025-05-29T12:55:21Z</time>
      </trkpt>
      <trkpt lat="44.5245" lon="1.35978">
        <ele>273.8</ele>
        <time>2025-05-29T12:55:22Z</time>
      </trkpt>
      <trkpt lat="44.5245" lon="1.35972">
        <ele>273.8</ele>
        <time>2025-05-29T12:55:23Z</time>
      </trkpt>
      <trkpt lat="44.52451" lon="1.35966">
        <ele>273.6</ele>
        <time>2025-05-29T12:55:24Z</time>
      </trkpt>
      <trkpt lat="44.52451" lon="1.35959">
        <ele>273.6</ele>
        <time>2025-05-29T12:55:25Z</time>
      </trkpt>
      <trkpt lat="44.52451" lon="1.35953">
        <ele>273.8</ele>
        <time>2025-05-29T12:55:26Z</time>
      </trkpt>
      <trkpt lat="44.52451" lon="1.35946">
        <ele>273.6</ele>
        <time>2025-05-29T12:55:27Z</time>
      </trkpt>
      <trkpt lat="44.52451" lon="1.35939">
        <ele>273.6</ele>
        <time>2025-05-29T12:55:28Z</time>
      </trkpt>
      <trkpt lat="44.52451" lon="1.35932">
        <ele>273.6</ele>
        <time>2025-05-29T12:55:29Z</time>
      </trkpt>
      <trkpt lat="44.52451" lon="1.35926">
        <ele>273.6</ele>
        <time>2025-05-29T12:55:30Z</time>
      </trkpt>
      <trkpt lat="44.5245" lon="1.3592">
        <ele>273.4</ele>
        <time>2025-05-29T12:55:31Z</time>
      </trkpt>
      <trkpt lat="44.5245" lon="1.35914">
        <ele>273.2</ele>
        <time>2025-05-29T12:55:32Z</time>
      </trkpt>
      <trkpt lat="44.5245" lon="1.35908">
        <ele>273.2</ele>
        <time>2025-05-29T12:55:33Z</time>
      </trkpt>
      <trkpt lat="44.5245" lon="1.35902">
        <ele>273.2</ele>
        <time>2025-05-29T12:55:34Z</time>
      </trkpt>
      <trkpt lat="44.5245" lon="1.35895">
        <ele>273.2</ele>
        <time>2025-05-29T12:55:35Z</time>
      </trkpt>
      <trkpt lat="44.5245" lon="1.35889">
        <ele>273.2</ele>
        <time>2025-05-29T12:55:36Z</time>
      </trkpt>
      <trkpt lat="44.5245" lon="1.35883">
        <ele>273.4</ele>
        <time>2025-05-29T12:55:37Z</time>
      </trkpt>
      <trkpt lat="44.5245" lon="1.35877">
        <ele>273.6</ele>
        <time>2025-05-29T12:55:38Z</time>
      </trkpt>
      <trkpt lat="44.5245" lon="1.3587">
        <ele>274</ele>
        <time>2025-05-29T12:55:39Z</time>
      </trkpt>
      <trkpt lat="44.52451" lon="1.35864">
        <ele>274</ele>
        <time>2025-05-29T12:55:40Z</time>
      </trkpt>
      <trkpt lat="44.52451" lon="1.35858">
        <ele>274.2</ele>
        <time>2025-05-29T12:55:41Z</time>
      </trkpt>
      <trkpt lat="44.52451" lon="1.35851">
        <ele>274.2</ele>
        <time>2025-05-29T12:55:42Z</time>
      </trkpt>
      <trkpt lat="44.52451" lon="1.35845">
        <ele>274.2</ele>
        <time>2025-05-29T12:55:43Z</time>
      </trkpt>
      <trkpt lat="44.5245" lon="1.3584">
        <ele>274.4</ele>
        <time>2025-05-29T12:55:44Z</time>
      </trkpt>
      <trkpt lat="44.5245" lon="1.35835">
        <ele>274.6</ele>
        <time>2025-05-29T12:55:45Z</time>
      </trkpt>
      <trkpt lat="44.52449" lon="1.35831">
        <ele>274.8</ele>
        <time>2025-05-29T12:55:46Z</time>
      </trkpt>
      <trkpt lat="44.52448" lon="1.35826">
        <ele>275</ele>
        <time>2025-05-29T12:55:47Z</time>
      </trkpt>
      <trkpt lat="44.52446" lon="1.35822">
        <ele>275.2</ele>
        <time>2025-05-29T12:55:48Z</time>
      </trkpt>
      <trkpt lat="44.52444" lon="1.35818">
        <ele>275.2</ele>
        <time>2025-05-29T12:55:49Z</time>
      </trkpt>
      <trkpt lat="44.52443" lon="1.35814">
        <ele>275.6</ele>
        <time>2025-05-29T12:55:50Z</time>
      </trkpt>
      <trkpt lat="44.52441" lon="1.3581">
        <ele>275.8</ele>
        <time>2025-05-29T12:55:51Z</time>
      </trkpt>
      <trkpt lat="44.52438" lon="1.35807">
        <ele>275.8</ele>
        <time>2025-05-29T12:55:52Z</time>
      </trkpt>
      <trkpt lat="44.52436" lon="1.35805">
        <ele>276.2</ele>
        <time>2025-05-29T12:55:53Z</time>
      </trkpt>
      <trkpt lat="44.52433" lon="1.35803">
        <ele>276.4</ele>
        <time>2025-05-29T12:55:54Z</time>
      </trkpt>
      <trkpt lat="44.52431" lon="1.35801">
        <ele>276.6</ele>
        <time>2025-05-29T12:55:55Z</time>
      </trkpt>
      <trkpt lat="44.52428" lon="1.358">
        <ele>276.8</ele>
        <time>2025-05-29T12:55:56Z</time>
      </trkpt>
      <trkpt lat="44.52425" lon="1.35799">
        <ele>277</ele>
        <time>2025-05-29T12:55:57Z</time>
      </trkpt>
      <trkpt lat="44.52422" lon="1.35798">
        <ele>277.2</ele>
        <time>2025-05-29T12:55:58Z</time>
      </trkpt>
      <trkpt lat="44.52419" lon="1.35797">
        <ele>277.2</ele>
        <time>2025-05-29T12:55:59Z</time>
      </trkpt>
      <trkpt lat="44.52417" lon="1.35795">
        <ele>277.4</ele>
        <time>2025-05-29T12:56:00Z</time>
      </trkpt>
      <trkpt lat="44.52414" lon="1.35793">
        <ele>277.4</ele>
        <time>2025-05-29T12:56:01Z</time>
      </trkpt>
      <trkpt lat="44.52411" lon="1.35791">
        <ele>277.6</ele>
        <time>2025-05-29T12:56:02Z</time>
      </trkpt>
      <trkpt lat="44.52408" lon="1.35789">
        <ele>277.8</ele>
        <time>2025-05-29T12:56:03Z</time>
      </trkpt>
      <trkpt lat="44.52406" lon="1.35786">
        <ele>277.8</ele>
        <time>2025-05-29T12:56:04Z</time>
      </trkpt>
      <trkpt lat="44.52403" lon="1.35784">
        <ele>277.8</ele>
        <time>2025-05-29T12:56:05Z</time>
      </trkpt>
      <trkpt lat="44.52401" lon="1.35781">
        <ele>278</ele>
        <time>2025-05-29T12:56:06Z</time>
      </trkpt>
      <trkpt lat="44.52398" lon="1.35778">
        <ele>278</ele>
        <time>2025-05-29T12:56:07Z</time>
      </trkpt>
      <trkpt lat="44.52396" lon="1.35775">
        <ele>278</ele>
        <time>2025-05-29T12:56:08Z</time>
      </trkpt>
      <trkpt lat="44.52395" lon="1.35772">
        <ele>278.2</ele>
        <time>2025-05-29T12:56:09Z</time>
      </trkpt>
      <trkpt lat="44.52393" lon="1.35768">
        <ele>278.2</ele>
        <time>2025-05-29T12:56:10Z</time>
      </trkpt>
      <trkpt lat="44.52391" lon="1.35765">
        <ele>278.4</ele>
        <time>2025-05-29T12:56:11Z</time>
      </trkpt>
      <trkpt lat="44.5239" lon="1.35761">
        <ele>278.6</ele>
        <time>2025-05-29T12:56:12Z</time>
      </trkpt>
      <trkpt lat="44.52389" lon="1.35757">
        <ele>279</ele>
        <time>2025-05-29T12:56:13Z</time>
      </trkpt>
      <trkpt lat="44.52388" lon="1.35754">
        <ele>279</ele>
        <time>2025-05-29T12:56:14Z</time>
      </trkpt>
      <trkpt lat="44.52387" lon="1.35749">
        <ele>279.2</ele>
        <time>2025-05-29T12:56:15Z</time>
      </trkpt>
      <trkpt lat="44.52386" lon="1.35745">
        <ele>279</ele>
        <time>2025-05-29T12:56:16Z</time>
      </trkpt>
      <trkpt lat="44.52385" lon="1.3574">
        <ele>278.6</ele>
        <time>2025-05-29T12:56:17Z</time>
      </trkpt>
      <trkpt lat="44.52384" lon="1.35735">
        <ele>278.4</ele>
        <time>2025-05-29T12:56:18Z</time>
      </trkpt>
      <trkpt lat="44.52383" lon="1.35731">
        <ele>278.2</ele>
        <time>2025-05-29T12:56:19Z</time>
      </trkpt>
      <trkpt lat="44.52381" lon="1.35726">
        <ele>278.2</ele>
        <time>2025-05-29T12:56:20Z</time>
      </trkpt>
      <trkpt lat="44.5238" lon="1.35722">
        <ele>278.2</ele>
        <time>2025-05-29T12:56:21Z</time>
      </trkpt>
      <trkpt lat="44.52379" lon="1.35717">
        <ele>278.4</ele>
        <time>2025-05-29T12:56:22Z</time>
      </trkpt>
      <trkpt lat="44.52377" lon="1.35712">
        <ele>278.4</ele>
        <time>2025-05-29T12:56:23Z</time>
      </trkpt>
      <trkpt lat="44.52376" lon="1.35707">
        <ele>278.2</ele>
        <time>2025-05-29T12:56:24Z</time>
      </trkpt>
      <trkpt lat="44.52375" lon="1.357">
        <ele>278.2</ele>
        <time>2025-05-29T12:56:25Z</time>
      </trkpt>
      <trkpt lat="44.52374" lon="1.35695">
        <ele>278.2</ele>
        <time>2025-05-29T12:56:26Z</time>
      </trkpt>
      <trkpt lat="44.52372" lon="1.35689">
        <ele>278</ele>
        <time>2025-05-29T12:56:27Z</time>
      </trkpt>
      <trkpt lat="44.5237" lon="1.35682">
        <ele>277.6</ele>
        <time>2025-05-29T12:56:28Z</time>
      </trkpt>
      <trkpt lat="44.52368" lon="1.35675">
        <ele>277.2</ele>
        <time>2025-05-29T12:56:29Z</time>
      </trkpt>
      <trkpt lat="44.52367" lon="1.35667">
        <ele>276.8</ele>
        <time>2025-05-29T12:56:30Z</time>
      </trkpt>
      <trkpt lat="44.52365" lon="1.35659">
        <ele>276.4</ele>
        <time>2025-05-29T12:56:31Z</time>
      </trkpt>
      <trkpt lat="44.52362" lon="1.35651">
        <ele>276</ele>
        <time>2025-05-29T12:56:32Z</time>
      </trkpt>
      <trkpt lat="44.5236" lon="1.35643">
        <ele>275.8</ele>
        <time>2025-05-29T12:56:33Z</time>
      </trkpt>
      <trkpt lat="44.52357" lon="1.35634">
        <ele>275.4</ele>
        <time>2025-05-29T12:56:34Z</time>
      </trkpt>
      <trkpt lat="44.52355" lon="1.35625">
        <ele>275.2</ele>
        <time>2025-05-29T12:56:35Z</time>
      </trkpt>
      <trkpt lat="44.52353" lon="1.35616">
        <ele>275</ele>
        <time>2025-05-29T12:56:36Z</time>
      </trkpt>
      <trkpt lat="44.5235" lon="1.35607">
        <ele>274.6</ele>
        <time>2025-05-29T12:56:37Z</time>
      </trkpt>
      <trkpt lat="44.52346" lon="1.35599">
        <ele>274</ele>
        <time>2025-05-29T12:56:38Z</time>
      </trkpt>
      <trkpt lat="44.52342" lon="1.35591">
        <ele>273.4</ele>
        <time>2025-05-29T12:56:39Z</time>
      </trkpt>
      <trkpt lat="44.52338" lon="1.35583">
        <ele>273.2</ele>
        <time>2025-05-29T12:56:40Z</time>
      </trkpt>
      <trkpt lat="44.52334" lon="1.35576">
        <ele>272.8</ele>
        <time>2025-05-29T12:56:41Z</time>
      </trkpt>
      <trkpt lat="44.5233" lon="1.35569">
        <ele>272.8</ele>
        <time>2025-05-29T12:56:42Z</time>
      </trkpt>
      <trkpt lat="44.52327" lon="1.35562">
        <ele>272.6</ele>
        <time>2025-05-29T12:56:43Z</time>
      </trkpt>
      <trkpt lat="44.52324" lon="1.35555">
        <ele>272.6</ele>
        <time>2025-05-29T12:56:44Z</time>
      </trkpt>
      <trkpt lat="44.5232" lon="1.35549">
        <ele>272.6</ele>
        <time>2025-05-29T12:56:45Z</time>
      </trkpt>
      <trkpt lat="44.52317" lon="1.35542">
        <ele>272.6</ele>
        <time>2025-05-29T12:56:46Z</time>
      </trkpt>
      <trkpt lat="44.52314" lon="1.35536">
        <ele>272.6</ele>
        <time>2025-05-29T12:56:47Z</time>
      </trkpt>
      <trkpt lat="44.52311" lon="1.35529">
        <ele>272.6</ele>
        <time>2025-05-29T12:56:48Z</time>
      </trkpt>
      <trkpt lat="44.52307" lon="1.35522">
        <ele>272.6</ele>
        <time>2025-05-29T12:56:49Z</time>
      </trkpt>
      <trkpt lat="44.52304" lon="1.35515">
        <ele>272.6</ele>
        <time>2025-05-29T12:56:50Z</time>
      </trkpt>
      <trkpt lat="44.523" lon="1.35508">
        <ele>272.4</ele>
        <time>2025-05-29T12:56:51Z</time>
      </trkpt>
      <trkpt lat="44.52295" lon="1.35502">
        <ele>272.2</ele>
        <time>2025-05-29T12:56:52Z</time>
      </trkpt>
      <trkpt lat="44.52291" lon="1.35494">
        <ele>272</ele>
        <time>2025-05-29T12:56:53Z</time>
      </trkpt>
      <trkpt lat="44.52287" lon="1.35487">
        <ele>271.8</ele>
        <time>2025-05-29T12:56:54Z</time>
      </trkpt>
      <trkpt lat="44.52282" lon="1.35481">
        <ele>271.4</ele>
        <time>2025-05-29T12:56:55Z</time>
      </trkpt>
      <trkpt lat="44.52279" lon="1.35474">
        <ele>271.4</ele>
        <time>2025-05-29T12:56:56Z</time>
      </trkpt>
      <trkpt lat="44.52275" lon="1.35467">
        <ele>271.4</ele>
        <time>2025-05-29T12:56:57Z</time>
      </trkpt>
      <trkpt lat="44.5227" lon="1.35461">
        <ele>271.2</ele>
        <time>2025-05-29T12:56:58Z</time>
      </trkpt>
      <trkpt lat="44.52267" lon="1.35454">
        <ele>271.2</ele>
        <time>2025-05-29T12:56:59Z</time>
      </trkpt>
      <trkpt lat="44.52264" lon="1.35447">
        <ele>271.2</ele>
        <time>2025-05-29T12:57:00Z</time>
      </trkpt>
      <trkpt lat="44.52262" lon="1.3544">
        <ele>271.2</ele>
        <time>2025-05-29T12:57:01Z</time>
      </trkpt>
      <trkpt lat="44.52262" lon="1.35433">
        <ele>271.2</ele>
        <time>2025-05-29T12:57:02Z</time>
      </trkpt>
      <trkpt lat="44.52262" lon="1.35426">
        <ele>271.2</ele>
        <time>2025-05-29T12:57:03Z</time>
      </trkpt>
      <trkpt lat="44.52263" lon="1.35419">
        <ele>271.2</ele>
        <time>2025-05-29T12:57:04Z</time>
      </trkpt>
      <trkpt lat="44.52264" lon="1.35412">
        <ele>271.2</ele>
        <time>2025-05-29T12:57:05Z</time>
      </trkpt>
      <trkpt lat="44.52265" lon="1.35405">
        <ele>271.2</ele>
        <time>2025-05-29T12:57:06Z</time>
      </trkpt>
      <trkpt lat="44.52266" lon="1.35398">
        <ele>271.2</ele>
        <time>2025-05-29T12:57:07Z</time>
      </trkpt>
      <trkpt lat="44.52266" lon="1.35392">
        <ele>271.2</ele>
        <time>2025-05-29T12:57:08Z</time>
      </trkpt>
      <trkpt lat="44.52265" lon="1.35385">
        <ele>271.2</ele>
        <time>2025-05-29T12:57:09Z</time>
      </trkpt>
      <trkpt lat="44.52264" lon="1.35379">
        <ele>271</ele>
        <time>2025-05-29T12:57:10Z</time>
      </trkpt>
      <trkpt lat="44.52263" lon="1.35373">
        <ele>270.8</ele>
        <time>2025-05-29T12:57:11Z</time>
      </trkpt>
      <trkpt lat="44.52259" lon="1.35366">
        <ele>270.4</ele>
        <time>2025-05-29T12:57:12Z</time>
      </trkpt>
      <trkpt lat="44.52256" lon="1.35361">
        <ele>270.2</ele>
        <time>2025-05-29T12:57:13Z</time>
      </trkpt>
      <trkpt lat="44.52251" lon="1.35357">
        <ele>270</ele>
        <time>2025-05-29T12:57:14Z</time>
      </trkpt>
      <trkpt lat="44.52245" lon="1.35353">
        <ele>269.8</ele>
        <time>2025-05-29T12:57:15Z</time>
      </trkpt>
      <trkpt lat="44.5224" lon="1.3535">
        <ele>269.4</ele>
        <time>2025-05-29T12:57:16Z</time>
      </trkpt>
      <trkpt lat="44.52235" lon="1.35346">
        <ele>269.2</ele>
        <time>2025-05-29T12:57:17Z</time>
      </trkpt>
      <trkpt lat="44.52229" lon="1.35342">
        <ele>268.6</ele>
        <time>2025-05-29T12:57:18Z</time>
      </trkpt>
      <trkpt lat="44.52224" lon="1.35338">
        <ele>268.2</ele>
        <time>2025-05-29T12:57:19Z</time>
      </trkpt>
      <trkpt lat="44.52218" lon="1.35334">
        <ele>267.6</ele>
        <time>2025-05-29T12:57:20Z</time>
      </trkpt>
      <trkpt lat="44.52212" lon="1.35329">
        <ele>267.2</ele>
        <time>2025-05-29T12:57:21Z</time>
      </trkpt>
      <trkpt lat="44.52206" lon="1.35324">
        <ele>267</ele>
        <time>2025-05-29T12:57:22Z</time>
      </trkpt>
      <trkpt lat="44.522" lon="1.3532">
        <ele>266.8</ele>
        <time>2025-05-29T12:57:23Z</time>
      </trkpt>
      <trkpt lat="44.52194" lon="1.35316">
        <ele>266.4</ele>
        <time>2025-05-29T12:57:24Z</time>
      </trkpt>
      <trkpt lat="44.52188" lon="1.35312">
        <ele>266.2</ele>
        <time>2025-05-29T12:57:25Z</time>
      </trkpt>
      <trkpt lat="44.52181" lon="1.35309">
        <ele>265.8</ele>
        <time>2025-05-29T12:57:26Z</time>
      </trkpt>
      <trkpt lat="44.52175" lon="1.35305">
        <ele>265.6</ele>
        <time>2025-05-29T12:57:27Z</time>
      </trkpt>
      <trkpt lat="44.52169" lon="1.35301">
        <ele>265.4</ele>
        <time>2025-05-29T12:57:28Z</time>
      </trkpt>
      <trkpt lat="44.52162" lon="1.35298">
        <ele>265.2</ele>
        <time>2025-05-29T12:57:29Z</time>
      </trkpt>
      <trkpt lat="44.52156" lon="1.35294">
        <ele>265</ele>
        <time>2025-05-29T12:57:30Z</time>
      </trkpt>
      <trkpt lat="44.52149" lon="1.3529">
        <ele>264.6</ele>
        <time>2025-05-29T12:57:31Z</time>
      </trkpt>
      <trkpt lat="44.52143" lon="1.35287">
        <ele>264.2</ele>
        <time>2025-05-29T12:57:32Z</time>
      </trkpt>
      <trkpt lat="44.52138" lon="1.35284">
        <ele>264</ele>
        <time>2025-05-29T12:57:33Z</time>
      </trkpt>
      <trkpt lat="44.52132" lon="1.35281">
        <ele>263.6</ele>
        <time>2025-05-29T12:57:34Z</time>
      </trkpt>
      <trkpt lat="44.52128" lon="1.35278">
        <ele>263.4</ele>
        <time>2025-05-29T12:57:35Z</time>
      </trkpt>
      <trkpt lat="44.52125" lon="1.35275">
        <ele>263.2</ele>
        <time>2025-05-29T12:57:36Z</time>
      </trkpt>
      <trkpt lat="44.52122" lon="1.35272">
        <ele>263.2</ele>
        <time>2025-05-29T12:57:37Z</time>
      </trkpt>
      <trkpt lat="44.5212" lon="1.3527">
        <ele>263.2</ele>
        <time>2025-05-29T12:57:38Z</time>
      </trkpt>
      <trkpt lat="44.52117" lon="1.35267">
        <ele>263.2</ele>
        <time>2025-05-29T12:57:39Z</time>
      </trkpt>
      <trkpt lat="44.52115" lon="1.35265">
        <ele>263.2</ele>
        <time>2025-05-29T12:57:40Z</time>
      </trkpt>
      <trkpt lat="44.52114" lon="1.35263">
        <ele>263.2</ele>
        <time>2025-05-29T12:57:41Z</time>
      </trkpt>
      <trkpt lat="44.52113" lon="1.3526">
        <ele>263</ele>
        <time>2025-05-29T12:57:42Z</time>
      </trkpt>
      <trkpt lat="44.52112" lon="1.35258">
        <ele>263</ele>
        <time>2025-05-29T12:57:43Z</time>
      </trkpt>
      <trkpt lat="44.52111" lon="1.35254">
        <ele>262.8</ele>
        <time>2025-05-29T12:57:44Z</time>
      </trkpt>
      <trkpt lat="44.5211" lon="1.3525">
        <ele>262.8</ele>
        <time>2025-05-29T12:57:45Z</time>
      </trkpt>
      <trkpt lat="44.5211" lon="1.35245">
        <ele>262.6</ele>
        <time>2025-05-29T12:57:46Z</time>
      </trkpt>
      <trkpt lat="44.52109" lon="1.35239">
        <ele>262.4</ele>
        <time>2025-05-29T12:57:47Z</time>
      </trkpt>
      <trkpt lat="44.52107" lon="1.35233">
        <ele>262</ele>
        <time>2025-05-29T12:57:48Z</time>
      </trkpt>
      <trkpt lat="44.52104" lon="1.35228">
        <ele>261.8</ele>
        <time>2025-05-29T12:57:49Z</time>
      </trkpt>
      <trkpt lat="44.52101" lon="1.35223">
        <ele>261.4</ele>
        <time>2025-05-29T12:57:50Z</time>
      </trkpt>
      <trkpt lat="44.52099" lon="1.35218">
        <ele>261.4</ele>
        <time>2025-05-29T12:57:51Z</time>
      </trkpt>
      <trkpt lat="44.52097" lon="1.35213">
        <ele>261.4</ele>
        <time>2025-05-29T12:57:52Z</time>
      </trkpt>
      <trkpt lat="44.52094" lon="1.35209">
        <ele>261.4</ele>
        <time>2025-05-29T12:57:53Z</time>
      </trkpt>
      <trkpt lat="44.52092" lon="1.35204">
        <ele>261.4</ele>
        <time>2025-05-29T12:57:54Z</time>
      </trkpt>
      <trkpt lat="44.52089" lon="1.352">
        <ele>261.6</ele>
        <time>2025-05-29T12:57:55Z</time>
      </trkpt>
      <trkpt lat="44.52087" lon="1.35196">
        <ele>261.6</ele>
        <time>2025-05-29T12:57:56Z</time>
      </trkpt>
      <trkpt lat="44.52084" lon="1.35192">
        <ele>261.6</ele>
        <time>2025-05-29T12:57:57Z</time>
      </trkpt>
      <trkpt lat="44.52081" lon="1.35189">
        <ele>261.8</ele>
        <time>2025-05-29T12:57:58Z</time>
      </trkpt>
      <trkpt lat="44.52079" lon="1.35186">
        <ele>262</ele>
        <time>2025-05-29T12:57:59Z</time>
      </trkpt>
      <trkpt lat="44.52077" lon="1.35183">
        <ele>262</ele>
        <time>2025-05-29T12:58:00Z</time>
      </trkpt>
      <trkpt lat="44.52076" lon="1.35179">
        <ele>262</ele>
        <time>2025-05-29T12:58:01Z</time>
      </trkpt>
      <trkpt lat="44.52073" lon="1.35177">
        <ele>262.2</ele>
        <time>2025-05-29T12:58:02Z</time>
      </trkpt>
      <trkpt lat="44.52071" lon="1.35175">
        <ele>262.2</ele>
        <time>2025-05-29T12:58:03Z</time>
      </trkpt>
      <trkpt lat="44.52068" lon="1.35173">
        <ele>262.2</ele>
        <time>2025-05-29T12:58:04Z</time>
      </trkpt>
      <trkpt lat="44.52066" lon="1.35171">
        <ele>262.2</ele>
        <time>2025-05-29T12:58:05Z</time>
      </trkpt>
      <trkpt lat="44.52063" lon="1.3517">
        <ele>262.2</ele>
        <time>2025-05-29T12:58:06Z</time>
      </trkpt>
      <trkpt lat="44.52061" lon="1.3517">
        <ele>262.2</ele>
        <time>2025-05-29T12:58:07Z</time>
      </trkpt>
      <trkpt lat="44.52059" lon="1.35169">
        <ele>262.4</ele>
        <time>2025-05-29T12:58:08Z</time>
      </trkpt>
      <trkpt lat="44.52057" lon="1.35168">
        <ele>262.6</ele>
        <time>2025-05-29T12:58:09Z</time>
      </trkpt>
      <trkpt lat="44.52054" lon="1.35168">
        <ele>262.8</ele>
        <time>2025-05-29T12:58:10Z</time>
      </trkpt>
      <trkpt lat="44.52052" lon="1.35168">
        <ele>263</ele>
        <time>2025-05-29T12:58:11Z</time>
      </trkpt>
      <trkpt lat="44.52049" lon="1.35169">
        <ele>263</ele>
        <time>2025-05-29T12:58:12Z</time>
      </trkpt>
      <trkpt lat="44.52047" lon="1.35171">
        <ele>263</ele>
        <time>2025-05-29T12:58:13Z</time>
      </trkpt>
      <trkpt lat="44.52045" lon="1.35174">
        <ele>263</ele>
        <time>2025-05-29T12:58:14Z</time>
      </trkpt>
      <trkpt lat="44.52043" lon="1.35178">
        <ele>263</ele>
        <time>2025-05-29T12:58:15Z</time>
      </trkpt>
      <trkpt lat="44.52043" lon="1.35182">
        <ele>263</ele>
        <time>2025-05-29T12:58:16Z</time>
      </trkpt>
      <trkpt lat="44.52042" lon="1.35186">
        <ele>262.8</ele>
        <time>2025-05-29T12:58:17Z</time>
      </trkpt>
      <trkpt lat="44.52041" lon="1.3519">
        <ele>263</ele>
        <time>2025-05-29T12:58:18Z</time>
      </trkpt>
      <trkpt lat="44.5204" lon="1.35193">
        <ele>263</ele>
        <time>2025-05-29T12:58:19Z</time>
      </trkpt>
      <trkpt lat="44.52037" lon="1.35195">
        <ele>263</ele>
        <time>2025-05-29T12:58:20Z</time>
      </trkpt>
      <trkpt lat="44.52035" lon="1.35198">
        <ele>263.2</ele>
        <time>2025-05-29T12:58:21Z</time>
      </trkpt>
      <trkpt lat="44.52032" lon="1.352">
        <ele>263.2</ele>
        <time>2025-05-29T12:58:22Z</time>
      </trkpt>
      <trkpt lat="44.5203" lon="1.35202">
        <ele>263.2</ele>
        <time>2025-05-29T12:58:23Z</time>
      </trkpt>
      <trkpt lat="44.52027" lon="1.35204">
        <ele>263.4</ele>
        <time>2025-05-29T12:58:24Z</time>
      </trkpt>
      <trkpt lat="44.52025" lon="1.35205">
        <ele>263.6</ele>
        <time>2025-05-29T12:58:25Z</time>
      </trkpt>
      <trkpt lat="44.52022" lon="1.35205">
        <ele>263.8</ele>
        <time>2025-05-29T12:58:26Z</time>
      </trkpt>
      <trkpt lat="44.5202" lon="1.35206">
        <ele>264.2</ele>
        <time>2025-05-29T12:58:27Z</time>
      </trkpt>
      <trkpt lat="44.52017" lon="1.35207">
        <ele>264.4</ele>
        <time>2025-05-29T12:58:28Z</time>
      </trkpt>
      <trkpt lat="44.52014" lon="1.35208">
        <ele>264.4</ele>
        <time>2025-05-29T12:58:29Z</time>
      </trkpt>
      <trkpt lat="44.52012" lon="1.35209">
        <ele>264.4</ele>
        <time>2025-05-29T12:58:30Z</time>
      </trkpt>
      <trkpt lat="44.52009" lon="1.3521">
        <ele>264.6</ele>
        <time>2025-05-29T12:58:31Z</time>
      </trkpt>
      <trkpt lat="44.52006" lon="1.35211">
        <ele>264.4</ele>
        <time>2025-05-29T12:58:32Z</time>
      </trkpt>
      <trkpt lat="44.52003" lon="1.35213">
        <ele>264.6</ele>
        <time>2025-05-29T12:58:33Z</time>
      </trkpt>
      <trkpt lat="44.52" lon="1.35214">
        <ele>264.8</ele>
        <time>2025-05-29T12:58:34Z</time>
      </trkpt>
      <trkpt lat="44.51997" lon="1.35215">
        <ele>265</ele>
        <time>2025-05-29T12:58:35Z</time>
      </trkpt>
      <trkpt lat="44.51995" lon="1.35215">
        <ele>265.2</ele>
        <time>2025-05-29T12:58:36Z</time>
      </trkpt>
      <trkpt lat="44.51992" lon="1.35215">
        <ele>265.2</ele>
        <time>2025-05-29T12:58:37Z</time>
      </trkpt>
      <trkpt lat="44.51989" lon="1.35213">
        <ele>265.4</ele>
        <time>2025-05-29T12:58:38Z</time>
      </trkpt>
      <trkpt lat="44.51986" lon="1.35212">
        <ele>265.4</ele>
        <time>2025-05-29T12:58:39Z</time>
      </trkpt>
      <trkpt lat="44.51983" lon="1.35211">
        <ele>265.6</ele>
        <time>2025-05-29T12:58:40Z</time>
      </trkpt>
      <trkpt lat="44.5198" lon="1.35209">
        <ele>265.6</ele>
        <time>2025-05-29T12:58:41Z</time>
      </trkpt>
      <trkpt lat="44.51978" lon="1.35208">
        <ele>265.6</ele>
        <time>2025-05-29T12:58:42Z</time>
      </trkpt>
      <trkpt lat="44.51975" lon="1.35206">
        <ele>265.8</ele>
        <time>2025-05-29T12:58:43Z</time>
      </trkpt>
      <trkpt lat="44.51972" lon="1.35204">
        <ele>265.8</ele>
        <time>2025-05-29T12:58:44Z</time>
      </trkpt>
      <trkpt lat="44.51969" lon="1.35203">
        <ele>266</ele>
        <time>2025-05-29T12:58:45Z</time>
      </trkpt>
      <trkpt lat="44.51967" lon="1.35201">
        <ele>266.4</ele>
        <time>2025-05-29T12:58:46Z</time>
      </trkpt>
      <trkpt lat="44.51964" lon="1.352">
        <ele>266.6</ele>
        <time>2025-05-29T12:58:47Z</time>
      </trkpt>
      <trkpt lat="44.51961" lon="1.35199">
        <ele>266.8</ele>
        <time>2025-05-29T12:58:48Z</time>
      </trkpt>
      <trkpt lat="44.51959" lon="1.35197">
        <ele>267</ele>
        <time>2025-05-29T12:58:49Z</time>
      </trkpt>
      <trkpt lat="44.51956" lon="1.35196">
        <ele>267.2</ele>
        <time>2025-05-29T12:58:50Z</time>
      </trkpt>
      <trkpt lat="44.51953" lon="1.35195">
        <ele>267.4</ele>
        <time>2025-05-29T12:58:51Z</time>
      </trkpt>
      <trkpt lat="44.5195" lon="1.35194">
        <ele>267.4</ele>
        <time>2025-05-29T12:58:52Z</time>
      </trkpt>
      <trkpt lat="44.51947" lon="1.35193">
        <ele>267.4</ele>
        <time>2025-05-29T12:58:53Z</time>
      </trkpt>
      <trkpt lat="44.51943" lon="1.35192">
        <ele>267.6</ele>
        <time>2025-05-29T12:58:54Z</time>
      </trkpt>
      <trkpt lat="44.5194" lon="1.35191">
        <ele>267.6</ele>
        <time>2025-05-29T12:58:55Z</time>
      </trkpt>
      <trkpt lat="44.51937" lon="1.3519">
        <ele>267.6</ele>
        <time>2025-05-29T12:58:56Z</time>
      </trkpt>
      <trkpt lat="44.51933" lon="1.35189">
        <ele>267.8</ele>
        <time>2025-05-29T12:58:57Z</time>
      </trkpt>
      <trkpt lat="44.5193" lon="1.35188">
        <ele>267.8</ele>
        <time>2025-05-29T12:58:58Z</time>
      </trkpt>
      <trkpt lat="44.51927" lon="1.35187">
        <ele>268</ele>
        <time>2025-05-29T12:58:59Z</time>
      </trkpt>
      <trkpt lat="44.51923" lon="1.35186">
        <ele>268</ele>
        <time>2025-05-29T12:59:00Z</time>
      </trkpt>
      <trkpt lat="44.5192" lon="1.35184">
        <ele>268.2</ele>
        <time>2025-05-29T12:59:01Z</time>
      </trkpt>
      <trkpt lat="44.51917" lon="1.35183">
        <ele>268.2</ele>
        <time>2025-05-29T12:59:02Z</time>
      </trkpt>
      <trkpt lat="44.51914" lon="1.35182">
        <ele>268.4</ele>
        <time>2025-05-29T12:59:03Z</time>
      </trkpt>
      <trkpt lat="44.5191" lon="1.35182">
        <ele>268.6</ele>
        <time>2025-05-29T12:59:04Z</time>
      </trkpt>
      <trkpt lat="44.51907" lon="1.35181">
        <ele>268.6</ele>
        <time>2025-05-29T12:59:05Z</time>
      </trkpt>
      <trkpt lat="44.51903" lon="1.35179">
        <ele>268.8</ele>
        <time>2025-05-29T12:59:06Z</time>
      </trkpt>
      <trkpt lat="44.519" lon="1.35178">
        <ele>268.8</ele>
        <time>2025-05-29T12:59:07Z</time>
      </trkpt>
      <trkpt lat="44.51897" lon="1.35176">
        <ele>269</ele>
        <time>2025-05-29T12:59:08Z</time>
      </trkpt>
      <trkpt lat="44.51893" lon="1.35175">
        <ele>269</ele>
        <time>2025-05-29T12:59:09Z</time>
      </trkpt>
      <trkpt lat="44.5189" lon="1.35174">
        <ele>269.2</ele>
        <time>2025-05-29T12:59:10Z</time>
      </trkpt>
      <trkpt lat="44.51887" lon="1.35172">
        <ele>269.4</ele>
        <time>2025-05-29T12:59:11Z</time>
      </trkpt>
      <trkpt lat="44.51884" lon="1.3517">
        <ele>269.4</ele>
        <time>2025-05-29T12:59:12Z</time>
      </trkpt>
      <trkpt lat="44.5188" lon="1.35168">
        <ele>269.6</ele>
        <time>2025-05-29T12:59:13Z</time>
      </trkpt>
      <trkpt lat="44.51877" lon="1.35167">
        <ele>269.8</ele>
        <time>2025-05-29T12:59:14Z</time>
      </trkpt>
      <trkpt lat="44.51874" lon="1.35165">
        <ele>269.8</ele>
        <time>2025-05-29T12:59:15Z</time>
      </trkpt>
      <trkpt lat="44.5187" lon="1.35163">
        <ele>269.8</ele>
        <time>2025-05-29T12:59:16Z</time>
      </trkpt>
      <trkpt lat="44.51867" lon="1.35162">
        <ele>269.8</ele>
        <time>2025-05-29T12:59:17Z</time>
      </trkpt>
      <trkpt lat="44.51864" lon="1.3516">
        <ele>270</ele>
        <time>2025-05-29T12:59:18Z</time>
      </trkpt>
      <trkpt lat="44.51861" lon="1.35158">
        <ele>270</ele>
        <time>2025-05-29T12:59:19Z</time>
      </trkpt>
      <trkpt lat="44.51857" lon="1.35156">
        <ele>270.2</ele>
        <time>2025-05-29T12:59:20Z</time>
      </trkpt>
      <trkpt lat="44.51854" lon="1.35154">
        <ele>270.4</ele>
        <time>2025-05-29T12:59:21Z</time>
      </trkpt>
      <trkpt lat="44.51851" lon="1.35152">
        <ele>270.6</ele>
        <time>2025-05-29T12:59:22Z</time>
      </trkpt>
      <trkpt lat="44.51848" lon="1.3515">
        <ele>270.6</ele>
        <time>2025-05-29T12:59:23Z</time>
      </trkpt>
      <trkpt lat="44.51845" lon="1.35148">
        <ele>270.8</ele>
        <time>2025-05-29T12:59:24Z</time>
      </trkpt>
      <trkpt lat="44.51842" lon="1.35146">
        <ele>270.8</ele>
        <time>2025-05-29T12:59:25Z</time>
      </trkpt>
      <trkpt lat="44.51839" lon="1.35144">
        <ele>270.8</ele>
        <time>2025-05-29T12:59:26Z</time>
      </trkpt>
      <trkpt lat="44.51836" lon="1.35142">
        <ele>271</ele>
        <time>2025-05-29T12:59:27Z</time>
      </trkpt>
      <trkpt lat="44.51834" lon="1.35141">
        <ele>271.2</ele>
        <time>2025-05-29T12:59:28Z</time>
      </trkpt>
      <trkpt lat="44.51831" lon="1.3514">
        <ele>271.4</ele>
        <time>2025-05-29T12:59:29Z</time>
      </trkpt>
      <trkpt lat="44.51827" lon="1.35138">
        <ele>271.6</ele>
        <time>2025-05-29T12:59:30Z</time>
      </trkpt>
      <trkpt lat="44.51824" lon="1.35137">
        <ele>271.8</ele>
        <time>2025-05-29T12:59:31Z</time>
      </trkpt>
      <trkpt lat="44.51821" lon="1.35135">
        <ele>272</ele>
        <time>2025-05-29T12:59:32Z</time>
      </trkpt>
      <trkpt lat="44.51818" lon="1.35134">
        <ele>272.2</ele>
        <time>2025-05-29T12:59:33Z</time>
      </trkpt>
      <trkpt lat="44.51815" lon="1.35133">
        <ele>272.2</ele>
        <time>2025-05-29T12:59:34Z</time>
      </trkpt>
      <trkpt lat="44.51812" lon="1.35131">
        <ele>272.4</ele>
        <time>2025-05-29T12:59:35Z</time>
      </trkpt>
      <trkpt lat="44.51809" lon="1.3513">
        <ele>272.6</ele>
        <time>2025-05-29T12:59:36Z</time>
      </trkpt>
      <trkpt lat="44.51806" lon="1.35128">
        <ele>272.6</ele>
        <time>2025-05-29T12:59:37Z</time>
      </trkpt>
      <trkpt lat="44.51804" lon="1.35126">
        <ele>272.8</ele>
        <time>2025-05-29T12:59:38Z</time>
      </trkpt>
      <trkpt lat="44.51801" lon="1.35125">
        <ele>273</ele>
        <time>2025-05-29T12:59:39Z</time>
      </trkpt>
      <trkpt lat="44.51798" lon="1.35124">
        <ele>273.2</ele>
        <time>2025-05-29T12:59:40Z</time>
      </trkpt>
      <trkpt lat="44.51796" lon="1.35122">
        <ele>273.4</ele>
        <time>2025-05-29T12:59:41Z</time>
      </trkpt>
      <trkpt lat="44.51793" lon="1.3512">
        <ele>273.6</ele>
        <time>2025-05-29T12:59:42Z</time>
      </trkpt>
      <trkpt lat="44.51791" lon="1.35119">
        <ele>273.8</ele>
        <time>2025-05-29T12:59:43Z</time>
      </trkpt>
      <trkpt lat="44.51788" lon="1.35117">
        <ele>274</ele>
        <time>2025-05-29T12:59:44Z</time>
      </trkpt>
      <trkpt lat="44.51786" lon="1.35114">
        <ele>274.4</ele>
        <time>2025-05-29T12:59:45Z</time>
      </trkpt>
      <trkpt lat="44.51783" lon="1.35112">
        <ele>274.6</ele>
        <time>2025-05-29T12:59:46Z</time>
      </trkpt>
      <trkpt lat="44.51781" lon="1.3511">
        <ele>275</ele>
        <time>2025-05-29T12:59:47Z</time>
      </trkpt>
      <trkpt lat="44.51779" lon="1.35107">
        <ele>275.2</ele>
        <time>2025-05-29T12:59:48Z</time>
      </trkpt>
      <trkpt lat="44.51777" lon="1.35106">
        <ele>275.4</ele>
        <time>2025-05-29T12:59:49Z</time>
      </trkpt>
      <trkpt lat="44.51775" lon="1.35104">
        <ele>275.8</ele>
        <time>2025-05-29T12:59:50Z</time>
      </trkpt>
      <trkpt lat="44.51773" lon="1.35103">
        <ele>276</ele>
        <time>2025-05-29T12:59:51Z</time>
      </trkpt>
      <trkpt lat="44.5177" lon="1.35101">
        <ele>276.2</ele>
        <time>2025-05-29T12:59:52Z</time>
      </trkpt>
      <trkpt lat="44.51768" lon="1.35099">
        <ele>276.4</ele>
        <time>2025-05-29T12:59:53Z</time>
      </trkpt>
      <trkpt lat="44.51766" lon="1.35097">
        <ele>276.6</ele>
        <time>2025-05-29T12:59:54Z</time>
      </trkpt>
      <trkpt lat="44.51764" lon="1.35095">
        <ele>276.8</ele>
        <time>2025-05-29T12:59:55Z</time>
      </trkpt>
      <trkpt lat="44.51762" lon="1.35093">
        <ele>276.8</ele>
        <time>2025-05-29T12:59:56Z</time>
      </trkpt>
      <trkpt lat="44.5176" lon="1.35092">
        <ele>276.8</ele>
        <time>2025-05-29T12:59:57Z</time>
      </trkpt>
      <trkpt lat="44.51758" lon="1.3509">
        <ele>277</ele>
        <time>2025-05-29T12:59:58Z</time>
      </trkpt>
      <trkpt lat="44.51756" lon="1.35089">
        <ele>277</ele>
        <time>2025-05-29T12:59:59Z</time>
      </trkpt>
      <trkpt lat="44.51754" lon="1.35088">
        <ele>277.2</ele>
        <time>2025-05-29T13:00:00Z</time>
      </trkpt>
      <trkpt lat="44.51751" lon="1.35086">
        <ele>277.4</ele>
        <time>2025-05-29T13:00:01Z</time>
      </trkpt>
      <trkpt lat="44.51749" lon="1.35085">
        <ele>277.6</ele>
        <time>2025-05-29T13:00:02Z</time>
      </trkpt>
      <trkpt lat="44.51747" lon="1.35083">
        <ele>277.6</ele>
        <time>2025-05-29T13:00:03Z</time>
      </trkpt>
      <trkpt lat="44.51744" lon="1.35082">
        <ele>277.8</ele>
        <time>2025-05-29T13:00:04Z</time>
      </trkpt>
      <trkpt lat="44.51742" lon="1.35081">
        <ele>278</ele>
        <time>2025-05-29T13:00:05Z</time>
      </trkpt>
      <trkpt lat="44.5174" lon="1.35079">
        <ele>278</ele>
        <time>2025-05-29T13:00:06Z</time>
      </trkpt>
      <trkpt lat="44.51737" lon="1.35078">
        <ele>278.2</ele>
        <time>2025-05-29T13:00:07Z</time>
      </trkpt>
      <trkpt lat="44.51735" lon="1.35077">
        <ele>278.4</ele>
        <time>2025-05-29T13:00:08Z</time>
      </trkpt>
      <trkpt lat="44.51733" lon="1.35075">
        <ele>278.6</ele>
        <time>2025-05-29T13:00:09Z</time>
      </trkpt>
      <trkpt lat="44.5173" lon="1.35074">
        <ele>278.8</ele>
        <time>2025-05-29T13:00:10Z</time>
      </trkpt>
      <trkpt lat="44.51728" lon="1.35073">
        <ele>278.8</ele>
        <time>2025-05-29T13:00:11Z</time>
      </trkpt>
      <trkpt lat="44.51726" lon="1.35071">
        <ele>279.2</ele>
        <time>2025-05-29T13:00:12Z</time>
      </trkpt>
      <trkpt lat="44.51724" lon="1.35069">
        <ele>279.2</ele>
        <time>2025-05-29T13:00:13Z</time>
      </trkpt>
      <trkpt lat="44.51721" lon="1.35068">
        <ele>279.4</ele>
        <time>2025-05-29T13:00:14Z</time>
      </trkpt>
      <trkpt lat="44.51719" lon="1.35067">
        <ele>279.6</ele>
        <time>2025-05-29T13:00:15Z</time>
      </trkpt>
      <trkpt lat="44.51717" lon="1.35066">
        <ele>279.8</ele>
        <time>2025-05-29T13:00:16Z</time>
      </trkpt>
      <trkpt lat="44.51715" lon="1.35064">
        <ele>280</ele>
        <time>2025-05-29T13:00:17Z</time>
      </trkpt>
      <trkpt lat="44.51712" lon="1.35063">
        <ele>280.2</ele>
        <time>2025-05-29T13:00:18Z</time>
      </trkpt>
      <trkpt lat="44.5171" lon="1.35061">
        <ele>280.4</ele>
        <time>2025-05-29T13:00:19Z</time>
      </trkpt>
      <trkpt lat="44.51708" lon="1.35059">
        <ele>280.4</ele>
        <time>2025-05-29T13:00:20Z</time>
      </trkpt>
      <trkpt lat="44.51706" lon="1.35057">
        <ele>280.6</ele>
        <time>2025-05-29T13:00:21Z</time>
      </trkpt>
      <trkpt lat="44.51704" lon="1.35054">
        <ele>280.6</ele>
        <time>2025-05-29T13:00:22Z</time>
      </trkpt>
      <trkpt lat="44.51702" lon="1.35052">
        <ele>280.8</ele>
        <time>2025-05-29T13:00:23Z</time>
      </trkpt>
      <trkpt lat="44.517" lon="1.35049">
        <ele>280.8</ele>
        <time>2025-05-29T13:00:24Z</time>
      </trkpt>
      <trkpt lat="44.51698" lon="1.35047">
        <ele>280.8</ele>
        <time>2025-05-29T13:00:25Z</time>
      </trkpt>
      <trkpt lat="44.51696" lon="1.35044">
        <ele>280.8</ele>
        <time>2025-05-29T13:00:26Z</time>
      </trkpt>
      <trkpt lat="44.51694" lon="1.35042">
        <ele>281</ele>
        <time>2025-05-29T13:00:27Z</time>
      </trkpt>
      <trkpt lat="44.51693" lon="1.3504">
        <ele>281</ele>
        <time>2025-05-29T13:00:28Z</time>
      </trkpt>
      <trkpt lat="44.51691" lon="1.35037">
        <ele>281.2</ele>
        <time>2025-05-29T13:00:29Z</time>
      </trkpt>
      <trkpt lat="44.5169" lon="1.35035">
        <ele>281.2</ele>
        <time>2025-05-29T13:00:30Z</time>
      </trkpt>
      <trkpt lat="44.51689" lon="1.35031">
        <ele>281.2</ele>
        <time>2025-05-29T13:00:31Z</time>
      </trkpt>
      <trkpt lat="44.51687" lon="1.35028">
        <ele>281.2</ele>
        <time>2025-05-29T13:00:32Z</time>
      </trkpt>
      <trkpt lat="44.51686" lon="1.35025">
        <ele>281.4</ele>
        <time>2025-05-29T13:00:33Z</time>
      </trkpt>
      <trkpt lat="44.51686" lon="1.35021">
        <ele>281.4</ele>
        <time>2025-05-29T13:00:34Z</time>
      </trkpt>
      <trkpt lat="44.51685" lon="1.35018">
        <ele>281.4</ele>
        <time>2025-05-29T13:00:35Z</time>
      </trkpt>
      <trkpt lat="44.51685" lon="1.35015">
        <ele>281.6</ele>
        <time>2025-05-29T13:00:36Z</time>
      </trkpt>
      <trkpt lat="44.51685" lon="1.35011">
        <ele>281.6</ele>
        <time>2025-05-29T13:00:37Z</time>
      </trkpt>
      <trkpt lat="44.51684" lon="1.35007">
        <ele>281.8</ele>
        <time>2025-05-29T13:00:38Z</time>
      </trkpt>
      <trkpt lat="44.51684" lon="1.35003">
        <ele>281.8</ele>
        <time>2025-05-29T13:00:39Z</time>
      </trkpt>
      <trkpt lat="44.51683" lon="1.35">
        <ele>282</ele>
        <time>2025-05-29T13:00:40Z</time>
      </trkpt>
      <trkpt lat="44.51682" lon="1.34997">
        <ele>282.4</ele>
        <time>2025-05-29T13:00:41Z</time>
      </trkpt>
      <trkpt lat="44.51681" lon="1.34993">
        <ele>282.6</ele>
        <time>2025-05-29T13:00:42Z</time>
      </trkpt>
      <trkpt lat="44.51679" lon="1.3499">
        <ele>283</ele>
        <time>2025-05-29T13:00:43Z</time>
      </trkpt>
      <trkpt lat="44.51678" lon="1.34987">
        <ele>283.4</ele>
        <time>2025-05-29T13:00:44Z</time>
      </trkpt>
      <trkpt lat="44.51677" lon="1.34984">
        <ele>283.6</ele>
        <time>2025-05-29T13:00:45Z</time>
      </trkpt>
      <trkpt lat="44.51676" lon="1.34981">
        <ele>283.8</ele>
        <time>2025-05-29T13:00:46Z</time>
      </trkpt>
      <trkpt lat="44.51674" lon="1.34978">
        <ele>283.8</ele>
        <time>2025-05-29T13:00:47Z</time>
      </trkpt>
      <trkpt lat="44.51672" lon="1.34975">
        <ele>284</ele>
        <time>2025-05-29T13:00:48Z</time>
      </trkpt>
      <trkpt lat="44.5167" lon="1.34972">
        <ele>284.2</ele>
        <time>2025-05-29T13:00:49Z</time>
      </trkpt>
      <trkpt lat="44.51668" lon="1.3497">
        <ele>284.4</ele>
        <time>2025-05-29T13:00:50Z</time>
      </trkpt>
      <trkpt lat="44.51667" lon="1.34967">
        <ele>284.6</ele>
        <time>2025-05-29T13:00:51Z</time>
      </trkpt>
      <trkpt lat="44.51665" lon="1.34964">
        <ele>285</ele>
        <time>2025-05-29T13:00:52Z</time>
      </trkpt>
      <trkpt lat="44.51663" lon="1.34962">
        <ele>285.2</ele>
        <time>2025-05-29T13:00:53Z</time>
      </trkpt>
      <trkpt lat="44.51661" lon="1.34959">
        <ele>285.4</ele>
        <time>2025-05-29T13:00:54Z</time>
      </trkpt>
      <trkpt lat="44.51659" lon="1.34957">
        <ele>285.8</ele>
        <time>2025-05-29T13:00:55Z</time>
      </trkpt>
      <trkpt lat="44.51657" lon="1.34955">
        <ele>286</ele>
        <time>2025-05-29T13:00:56Z</time>
      </trkpt>
      <trkpt lat="44.51655" lon="1.34953">
        <ele>286.2</ele>
        <time>2025-05-29T13:00:57Z</time>
      </trkpt>
      <trkpt lat="44.51653" lon="1.34951">
        <ele>286.4</ele>
        <time>2025-05-29T13:00:58Z</time>
      </trkpt>
      <trkpt lat="44.51651" lon="1.34949">
        <ele>286.6</ele>
        <time>2025-05-29T13:00:59Z</time>
      </trkpt>
      <trkpt lat="44.51649" lon="1.34947">
        <ele>286.8</ele>
        <time>2025-05-29T13:01:00Z</time>
      </trkpt>
      <trkpt lat="44.51647" lon="1.34944">
        <ele>287</ele>
        <time>2025-05-29T13:01:01Z</time>
      </trkpt>
      <trkpt lat="44.51645" lon="1.34942">
        <ele>287.2</ele>
        <time>2025-05-29T13:01:02Z</time>
      </trkpt>
      <trkpt lat="44.51644" lon="1.34939">
        <ele>287.2</ele>
        <time>2025-05-29T13:01:03Z</time>
      </trkpt>
      <trkpt lat="44.51642" lon="1.34937">
        <ele>287.2</ele>
        <time>2025-05-29T13:01:04Z</time>
      </trkpt>
      <trkpt lat="44.5164" lon="1.34934">
        <ele>287.2</ele>
        <time>2025-05-29T13:01:05Z</time>
      </trkpt>
      <trkpt lat="44.51638" lon="1.34931">
        <ele>287.2</ele>
        <time>2025-05-29T13:01:06Z</time>
      </trkpt>
      <trkpt lat="44.51636" lon="1.34929">
        <ele>287.2</ele>
        <time>2025-05-29T13:01:07Z</time>
      </trkpt>
      <trkpt lat="44.51634" lon="1.34927">
        <ele>287.4</ele>
        <time>2025-05-29T13:01:08Z</time>
      </trkpt>
      <trkpt lat="44.51632" lon="1.34924">
        <ele>287.4</ele>
        <time>2025-05-29T13:01:09Z</time>
      </trkpt>
      <trkpt lat="44.5163" lon="1.34922">
        <ele>287.4</ele>
        <time>2025-05-29T13:01:10Z</time>
      </trkpt>
      <trkpt lat="44.51628" lon="1.34919">
        <ele>287.4</ele>
        <time>2025-05-29T13:01:11Z</time>
      </trkpt>
      <trkpt lat="44.51626" lon="1.34916">
        <ele>287.4</ele>
        <time>2025-05-29T13:01:12Z</time>
      </trkpt>
      <trkpt lat="44.51624" lon="1.34913">
        <ele>287.4</ele>
        <time>2025-05-29T13:01:13Z</time>
      </trkpt>
      <trkpt lat="44.51622" lon="1.34909">
        <ele>287.6</ele>
        <time>2025-05-29T13:01:14Z</time>
      </trkpt>
      <trkpt lat="44.5162" lon="1.34906">
        <ele>287.6</ele>
        <time>2025-05-29T13:01:15Z</time>
      </trkpt>
      <trkpt lat="44.51618" lon="1.34903">
        <ele>287.6</ele>
        <time>2025-05-29T13:01:16Z</time>
      </trkpt>
      <trkpt lat="44.51615" lon="1.349">
        <ele>287.6</ele>
        <time>2025-05-29T13:01:17Z</time>
      </trkpt>
      <trkpt lat="44.51613" lon="1.34896">
        <ele>287.6</ele>
        <time>2025-05-29T13:01:18Z</time>
      </trkpt>
      <trkpt lat="44.51611" lon="1.34893">
        <ele>287.6</ele>
        <time>2025-05-29T13:01:19Z</time>
      </trkpt>
      <trkpt lat="44.51608" lon="1.34889">
        <ele>287.6</ele>
        <time>2025-05-29T13:01:20Z</time>
      </trkpt>
      <trkpt lat="44.51606" lon="1.34885">
        <ele>287.6</ele>
        <time>2025-05-29T13:01:21Z</time>
      </trkpt>
      <trkpt lat="44.51603" lon="1.34882">
        <ele>287.6</ele>
        <time>2025-05-29T13:01:22Z</time>
      </trkpt>
      <trkpt lat="44.51601" lon="1.34878">
        <ele>287.6</ele>
        <time>2025-05-29T13:01:23Z</time>
      </trkpt>
      <trkpt lat="44.51598" lon="1.34875">
        <ele>287.6</ele>
        <time>2025-05-29T13:01:24Z</time>
      </trkpt>
      <trkpt lat="44.51596" lon="1.34872">
        <ele>287.4</ele>
        <time>2025-05-29T13:01:25Z</time>
      </trkpt>
      <trkpt lat="44.51594" lon="1.34868">
        <ele>287.4</ele>
        <time>2025-05-29T13:01:26Z</time>
      </trkpt>
      <trkpt lat="44.51592" lon="1.34865">
        <ele>287.6</ele>
        <time>2025-05-29T13:01:27Z</time>
      </trkpt>
      <trkpt lat="44.51589" lon="1.34861">
        <ele>287.6</ele>
        <time>2025-05-29T13:01:28Z</time>
      </trkpt>
      <trkpt lat="44.51587" lon="1.34858">
        <ele>287.6</ele>
        <time>2025-05-29T13:01:29Z</time>
      </trkpt>
      <trkpt lat="44.51585" lon="1.34855">
        <ele>287.8</ele>
        <time>2025-05-29T13:01:30Z</time>
      </trkpt>
      <trkpt lat="44.51583" lon="1.34851">
        <ele>287.8</ele>
        <time>2025-05-29T13:01:31Z</time>
      </trkpt>
      <trkpt lat="44.51581" lon="1.34848">
        <ele>288</ele>
        <time>2025-05-29T13:01:32Z</time>
      </trkpt>
      <trkpt lat="44.51579" lon="1.34844">
        <ele>288.2</ele>
        <time>2025-05-29T13:01:33Z</time>
      </trkpt>
      <trkpt lat="44.51577" lon="1.3484">
        <ele>288.2</ele>
        <time>2025-05-29T13:01:34Z</time>
      </trkpt>
      <trkpt lat="44.51575" lon="1.34837">
        <ele>288.6</ele>
        <time>2025-05-29T13:01:35Z</time>
      </trkpt>
      <trkpt lat="44.51573" lon="1.34834">
        <ele>288.8</ele>
        <time>2025-05-29T13:01:36Z</time>
      </trkpt>
      <trkpt lat="44.51571" lon="1.34831">
        <ele>289</ele>
        <time>2025-05-29T13:01:37Z</time>
      </trkpt>
      <trkpt lat="44.51569" lon="1.34827">
        <ele>289.4</ele>
        <time>2025-05-29T13:01:38Z</time>
      </trkpt>
      <trkpt lat="44.51566" lon="1.34824">
        <ele>289.6</ele>
        <time>2025-05-29T13:01:39Z</time>
      </trkpt>
      <trkpt lat="44.51564" lon="1.34821">
        <ele>290</ele>
        <time>2025-05-29T13:01:40Z</time>
      </trkpt>
      <trkpt lat="44.51561" lon="1.34818">
        <ele>290.2</ele>
        <time>2025-05-29T13:01:41Z</time>
      </trkpt>
      <trkpt lat="44.51559" lon="1.34816">
        <ele>290.2</ele>
        <time>2025-05-29T13:01:42Z</time>
      </trkpt>
      <trkpt lat="44.51557" lon="1.34814">
        <ele>290.4</ele>
        <time>2025-05-29T13:01:43Z</time>
      </trkpt>
      <trkpt lat="44.51555" lon="1.34812">
        <ele>290.8</ele>
        <time>2025-05-29T13:01:44Z</time>
      </trkpt>
      <trkpt lat="44.51552" lon="1.3481">
        <ele>291</ele>
        <time>2025-05-29T13:01:45Z</time>
      </trkpt>
      <trkpt lat="44.51551" lon="1.34808">
        <ele>291.2</ele>
        <time>2025-05-29T13:01:46Z</time>
      </trkpt>
      <trkpt lat="44.51549" lon="1.34807">
        <ele>291.2</ele>
        <time>2025-05-29T13:01:47Z</time>
      </trkpt>
      <trkpt lat="44.51547" lon="1.34806">
        <ele>291.6</ele>
        <time>2025-05-29T13:01:48Z</time>
      </trkpt>
      <trkpt lat="44.51545" lon="1.34805">
        <ele>291.8</ele>
        <time>2025-05-29T13:01:49Z</time>
      </trkpt>
      <trkpt lat="44.51543" lon="1.34803">
        <ele>291.8</ele>
        <time>2025-05-29T13:01:50Z</time>
      </trkpt>
      <trkpt lat="44.51541" lon="1.34802">
        <ele>292</ele>
        <time>2025-05-29T13:01:51Z</time>
      </trkpt>
      <trkpt lat="44.51539" lon="1.34801">
        <ele>292.2</ele>
        <time>2025-05-29T13:01:52Z</time>
      </trkpt>
      <trkpt lat="44.51538" lon="1.34799">
        <ele>292.4</ele>
        <time>2025-05-29T13:01:53Z</time>
      </trkpt>
      <trkpt lat="44.51536" lon="1.34798">
        <ele>292.6</ele>
        <time>2025-05-29T13:01:54Z</time>
      </trkpt>
      <trkpt lat="44.51534" lon="1.34797">
        <ele>293</ele>
        <time>2025-05-29T13:01:55Z</time>
      </trkpt>
      <trkpt lat="44.51533" lon="1.34796">
        <ele>293.2</ele>
        <time>2025-05-29T13:01:56Z</time>
      </trkpt>
      <trkpt lat="44.51531" lon="1.34795">
        <ele>293.4</ele>
        <time>2025-05-29T13:01:57Z</time>
      </trkpt>
      <trkpt lat="44.5153" lon="1.34793">
        <ele>293.8</ele>
        <time>2025-05-29T13:01:58Z</time>
      </trkpt>
      <trkpt lat="44.51529" lon="1.34792">
        <ele>294</ele>
        <time>2025-05-29T13:01:59Z</time>
      </trkpt>
      <trkpt lat="44.51528" lon="1.34791">
        <ele>294.2</ele>
        <time>2025-05-29T13:02:00Z</time>
      </trkpt>
      <trkpt lat="44.51527" lon="1.34789">
        <ele>294.2</ele>
        <time>2025-05-29T13:02:01Z</time>
      </trkpt>
      <trkpt lat="44.51526" lon="1.34787">
        <ele>294.4</ele>
        <time>2025-05-29T13:02:02Z</time>
      </trkpt>
      <trkpt lat="44.51524" lon="1.34785">
        <ele>294.4</ele>
        <time>2025-05-29T13:02:03Z</time>
      </trkpt>
      <trkpt lat="44.51523" lon="1.34784">
        <ele>294.6</ele>
        <time>2025-05-29T13:02:04Z</time>
      </trkpt>
      <trkpt lat="44.51522" lon="1.34783">
        <ele>294.8</ele>
        <time>2025-05-29T13:02:05Z</time>
      </trkpt>
      <trkpt lat="44.51521" lon="1.34781">
        <ele>295</ele>
        <time>2025-05-29T13:02:06Z</time>
      </trkpt>
      <trkpt lat="44.5152" lon="1.3478">
        <ele>295.2</ele>
        <time>2025-05-29T13:02:07Z</time>
      </trkpt>
      <trkpt lat="44.51519" lon="1.34778">
        <ele>295.4</ele>
        <time>2025-05-29T13:02:08Z</time>
      </trkpt>
      <trkpt lat="44.51518" lon="1.34776">
        <ele>295.8</ele>
        <time>2025-05-29T13:02:09Z</time>
      </trkpt>
      <trkpt lat="44.51517" lon="1.34774">
        <ele>296</ele>
        <time>2025-05-29T13:02:10Z</time>
      </trkpt>
      <trkpt lat="44.51516" lon="1.34773">
        <ele>296.2</ele>
        <time>2025-05-29T13:02:11Z</time>
      </trkpt>
      <trkpt lat="44.51515" lon="1.34771">
        <ele>296.4</ele>
        <time>2025-05-29T13:02:12Z</time>
      </trkpt>
      <trkpt lat="44.51515" lon="1.3477">
        <ele>296.6</ele>
        <time>2025-05-29T13:02:13Z</time>
      </trkpt>
      <trkpt lat="44.51514" lon="1.34768">
        <ele>296.8</ele>
        <time>2025-05-29T13:02:14Z</time>
      </trkpt>
      <trkpt lat="44.51513" lon="1.34767">
        <ele>297</ele>
        <time>2025-05-29T13:02:15Z</time>
      </trkpt>
      <trkpt lat="44.51512" lon="1.34765">
        <ele>297</ele>
        <time>2025-05-29T13:02:16Z</time>
      </trkpt>
      <trkpt lat="44.5151" lon="1.34764">
        <ele>297.2</ele>
        <time>2025-05-29T13:02:17Z</time>
      </trkpt>
      <trkpt lat="44.51509" lon="1.34762">
        <ele>297.4</ele>
        <time>2025-05-29T13:02:18Z</time>
      </trkpt>
      <trkpt lat="44.51508" lon="1.3476">
        <ele>297.4</ele>
        <time>2025-05-29T13:02:19Z</time>
      </trkpt>
      <trkpt lat="44.51507" lon="1.34758">
        <ele>297.6</ele>
        <time>2025-05-29T13:02:20Z</time>
      </trkpt>
      <trkpt lat="44.51506" lon="1.34756">
        <ele>297.6</ele>
        <time>2025-05-29T13:02:21Z</time>
      </trkpt>
      <trkpt lat="44.51505" lon="1.34754">
        <ele>297.8</ele>
        <time>2025-05-29T13:02:22Z</time>
      </trkpt>
      <trkpt lat="44.51504" lon="1.34752">
        <ele>297.8</ele>
        <time>2025-05-29T13:02:23Z</time>
      </trkpt>
      <trkpt lat="44.51502" lon="1.3475">
        <ele>297.8</ele>
        <time>2025-05-29T13:02:24Z</time>
      </trkpt>
      <trkpt lat="44.51501" lon="1.34747">
        <ele>297.8</ele>
        <time>2025-05-29T13:02:25Z</time>
      </trkpt>
      <trkpt lat="44.51499" lon="1.34745">
        <ele>298</ele>
        <time>2025-05-29T13:02:26Z</time>
      </trkpt>
      <trkpt lat="44.51497" lon="1.34743">
        <ele>298</ele>
        <time>2025-05-29T13:02:27Z</time>
      </trkpt>
      <trkpt lat="44.51495" lon="1.34741">
        <ele>298</ele>
        <time>2025-05-29T13:02:28Z</time>
      </trkpt>
      <trkpt lat="44.51493" lon="1.34739">
        <ele>298</ele>
        <time>2025-05-29T13:02:29Z</time>
      </trkpt>
      <trkpt lat="44.51491" lon="1.34738">
        <ele>298.2</ele>
        <time>2025-05-29T13:02:30Z</time>
      </trkpt>
      <trkpt lat="44.51489" lon="1.34736">
        <ele>298.2</ele>
        <time>2025-05-29T13:02:31Z</time>
      </trkpt>
      <trkpt lat="44.51487" lon="1.34734">
        <ele>298.4</ele>
        <time>2025-05-29T13:02:32Z</time>
      </trkpt>
      <trkpt lat="44.51485" lon="1.34733">
        <ele>298.4</ele>
        <time>2025-05-29T13:02:33Z</time>
      </trkpt>
      <trkpt lat="44.51482" lon="1.34731">
        <ele>298.6</ele>
        <time>2025-05-29T13:02:34Z</time>
      </trkpt>
      <trkpt lat="44.5148" lon="1.34729">
        <ele>298.6</ele>
        <time>2025-05-29T13:02:35Z</time>
      </trkpt>
      <trkpt lat="44.51477" lon="1.34728">
        <ele>298.6</ele>
        <time>2025-05-29T13:02:36Z</time>
      </trkpt>
      <trkpt lat="44.51475" lon="1.34727">
        <ele>298.6</ele>
        <time>2025-05-29T13:02:37Z</time>
      </trkpt>
      <trkpt lat="44.51472" lon="1.34726">
        <ele>298.4</ele>
        <time>2025-05-29T13:02:38Z</time>
      </trkpt>
      <trkpt lat="44.51469" lon="1.34725">
        <ele>298.2</ele>
        <time>2025-05-29T13:02:39Z</time>
      </trkpt>
      <trkpt lat="44.51466" lon="1.34723">
        <ele>298.2</ele>
        <time>2025-05-29T13:02:40Z</time>
      </trkpt>
      <trkpt lat="44.51463" lon="1.34721">
        <ele>298</ele>
        <time>2025-05-29T13:02:41Z</time>
      </trkpt>
      <trkpt lat="44.51459" lon="1.3472">
        <ele>298</ele>
        <time>2025-05-29T13:02:42Z</time>
      </trkpt>
      <trkpt lat="44.51456" lon="1.34718">
        <ele>298</ele>
        <time>2025-05-29T13:02:43Z</time>
      </trkpt>
      <trkpt lat="44.51452" lon="1.34715">
        <ele>297.8</ele>
        <time>2025-05-29T13:02:44Z</time>
      </trkpt>
      <trkpt lat="44.51448" lon="1.34712">
        <ele>297.6</ele>
        <time>2025-05-29T13:02:45Z</time>
      </trkpt>
      <trkpt lat="44.51444" lon="1.34709">
        <ele>297.4</ele>
        <time>2025-05-29T13:02:46Z</time>
      </trkpt>
      <trkpt lat="44.5144" lon="1.34706">
        <ele>297.2</ele>
        <time>2025-05-29T13:02:47Z</time>
      </trkpt>
      <trkpt lat="44.51435" lon="1.34702">
        <ele>297</ele>
        <time>2025-05-29T13:02:48Z</time>
      </trkpt>
      <trkpt lat="44.5143" lon="1.34699">
        <ele>296.8</ele>
        <time>2025-05-29T13:02:49Z</time>
      </trkpt>
      <trkpt lat="44.51425" lon="1.34695">
        <ele>296.6</ele>
        <time>2025-05-29T13:02:50Z</time>
      </trkpt>
      <trkpt lat="44.51419" lon="1.34692">
        <ele>296.4</ele>
        <time>2025-05-29T13:02:51Z</time>
      </trkpt>
      <trkpt lat="44.51414" lon="1.34688">
        <ele>296</ele>
        <time>2025-05-29T13:02:52Z</time>
      </trkpt>
      <trkpt lat="44.51408" lon="1.34684">
        <ele>295.6</ele>
        <time>2025-05-29T13:02:53Z</time>
      </trkpt>
      <trkpt lat="44.51402" lon="1.34679">
        <ele>295.2</ele>
        <time>2025-05-29T13:02:54Z</time>
      </trkpt>
      <trkpt lat="44.51396" lon="1.34673">
        <ele>294.8</ele>
        <time>2025-05-29T13:02:55Z</time>
      </trkpt>
      <trkpt lat="44.5139" lon="1.34666">
        <ele>294.6</ele>
        <time>2025-05-29T13:02:56Z</time>
      </trkpt>
      <trkpt lat="44.51384" lon="1.34658">
        <ele>294.2</ele>
        <time>2025-05-29T13:02:57Z</time>
      </trkpt>
      <trkpt lat="44.51378" lon="1.34651">
        <ele>293.4</ele>
        <time>2025-05-29T13:02:58Z</time>
      </trkpt>
      <trkpt lat="44.51372" lon="1.34643">
        <ele>292.8</ele>
        <time>2025-05-29T13:02:59Z</time>
      </trkpt>
      <trkpt lat="44.51367" lon="1.34636">
        <ele>292.4</ele>
        <time>2025-05-29T13:03:00Z</time>
      </trkpt>
      <trkpt lat="44.51361" lon="1.34629">
        <ele>292</ele>
        <time>2025-05-29T13:03:01Z</time>
      </trkpt>
      <trkpt lat="44.51356" lon="1.34622">
        <ele>291.6</ele>
        <time>2025-05-29T13:03:02Z</time>
      </trkpt>
      <trkpt lat="44.5135" lon="1.34616">
        <ele>291.4</ele>
        <time>2025-05-29T13:03:03Z</time>
      </trkpt>
      <trkpt lat="44.51346" lon="1.34611">
        <ele>291.4</ele>
        <time>2025-05-29T13:03:04Z</time>
      </trkpt>
      <trkpt lat="44.51343" lon="1.34607">
        <ele>291.2</ele>
        <time>2025-05-29T13:03:05Z</time>
      </trkpt>
      <trkpt lat="44.5134" lon="1.34605">
        <ele>291.4</ele>
        <time>2025-05-29T13:03:06Z</time>
      </trkpt>
      <trkpt lat="44.51336" lon="1.34605">
        <ele>291.4</ele>
        <time>2025-05-29T13:03:07Z</time>
      </trkpt>
      <trkpt lat="44.51333" lon="1.34608">
        <ele>291.4</ele>
        <time>2025-05-29T13:03:08Z</time>
      </trkpt>
      <trkpt lat="44.51331" lon="1.34611">
        <ele>291.4</ele>
        <time>2025-05-29T13:03:09Z</time>
      </trkpt>
      <trkpt lat="44.51329" lon="1.34614">
        <ele>291.4</ele>
        <time>2025-05-29T13:03:10Z</time>
      </trkpt>
      <trkpt lat="44.51328" lon="1.34617">
        <ele>291.2</ele>
        <time>2025-05-29T13:03:11Z</time>
      </trkpt>
      <trkpt lat="44.51327" lon="1.3462">
        <ele>291</ele>
        <time>2025-05-29T13:03:12Z</time>
      </trkpt>
      <trkpt lat="44.51326" lon="1.34623">
        <ele>291</ele>
        <time>2025-05-29T13:03:13Z</time>
      </trkpt>
      <trkpt lat="44.51325" lon="1.34625">
        <ele>290.6</ele>
        <time>2025-05-29T13:03:14Z</time>
      </trkpt>
      <trkpt lat="44.51324" lon="1.34626">
        <ele>290.6</ele>
        <time>2025-05-29T13:03:15Z</time>
      </trkpt>
      <trkpt lat="44.51324" lon="1.34626">
        <ele>290.6</ele>
        <time>2025-05-29T13:03:16Z</time>
      </trkpt>
      <trkpt lat="44.51323" lon="1.34631">
        <ele>290.6</ele>
        <time>2025-05-29T13:09:21Z</time>
      </trkpt>
      <trkpt lat="44.51324" lon="1.34634">
        <ele>290.8</ele>
        <time>2025-05-29T13:09:22Z</time>
      </trkpt>
      <trkpt lat="44.51326" lon="1.34637">
        <ele>290.6</ele>
        <time>2025-05-29T13:09:23Z</time>
      </trkpt>
      <trkpt lat="44.51328" lon="1.3464">
        <ele>290.4</ele>
        <time>2025-05-29T13:09:24Z</time>
      </trkpt>
      <trkpt lat="44.5133" lon="1.34644">
        <ele>290</ele>
        <time>2025-05-29T13:09:25Z</time>
      </trkpt>
      <trkpt lat="44.51332" lon="1.34648">
        <ele>289.8</ele>
        <time>2025-05-29T13:09:26Z</time>
      </trkpt>
      <trkpt lat="44.51334" lon="1.34653">
        <ele>289.4</ele>
        <time>2025-05-29T13:09:27Z</time>
      </trkpt>
      <trkpt lat="44.51336" lon="1.34658">
        <ele>289.2</ele>
        <time>2025-05-29T13:09:28Z</time>
      </trkpt>
      <trkpt lat="44.51337" lon="1.34663">
        <ele>289</ele>
        <time>2025-05-29T13:09:29Z</time>
      </trkpt>
      <trkpt lat="44.51337" lon="1.34668">
        <ele>288.8</ele>
        <time>2025-05-29T13:09:30Z</time>
      </trkpt>
      <trkpt lat="44.51337" lon="1.34671">
        <ele>288.6</ele>
        <time>2025-05-29T13:09:31Z</time>
      </trkpt>
      <trkpt lat="44.51336" lon="1.34673">
        <ele>288.6</ele>
        <time>2025-05-29T13:09:32Z</time>
      </trkpt>
      <trkpt lat="44.51337" lon="1.34676">
        <ele>288.4</ele>
        <time>2025-05-29T13:09:33Z</time>
      </trkpt>
      <trkpt lat="44.51338" lon="1.34679">
        <ele>288.4</ele>
        <time>2025-05-29T13:09:34Z</time>
      </trkpt>
      <trkpt lat="44.51338" lon="1.34683">
        <ele>288.2</ele>
        <time>2025-05-29T13:09:35Z</time>
      </trkpt>
      <trkpt lat="44.51338" lon="1.34687">
        <ele>288.2</ele>
        <time>2025-05-29T13:09:36Z</time>
      </trkpt>
      <trkpt lat="44.51338" lon="1.34691">
        <ele>288</ele>
        <time>2025-05-29T13:09:37Z</time>
      </trkpt>
      <trkpt lat="44.51338" lon="1.34695">
        <ele>287.8</ele>
        <time>2025-05-29T13:09:38Z</time>
      </trkpt>
      <trkpt lat="44.51338" lon="1.34699">
        <ele>287.8</ele>
        <time>2025-05-29T13:09:39Z</time>
      </trkpt>
      <trkpt lat="44.51337" lon="1.34704">
        <ele>288</ele>
        <time>2025-05-29T13:09:40Z</time>
      </trkpt>
      <trkpt lat="44.51337" lon="1.34709">
        <ele>288</ele>
        <time>2025-05-29T13:09:41Z</time>
      </trkpt>
      <trkpt lat="44.51337" lon="1.34714">
        <ele>288</ele>
        <time>2025-05-29T13:09:42Z</time>
      </trkpt>
      <trkpt lat="44.51336" lon="1.34718">
        <ele>288.2</ele>
        <time>2025-05-29T13:09:43Z</time>
      </trkpt>
      <trkpt lat="44.51336" lon="1.34723">
        <ele>288.2</ele>
        <time>2025-05-29T13:09:44Z</time>
      </trkpt>
      <trkpt lat="44.51335" lon="1.34727">
        <ele>288.2</ele>
        <time>2025-05-29T13:09:45Z</time>
      </trkpt>
      <trkpt lat="44.51334" lon="1.34731">
        <ele>288</ele>
        <time>2025-05-29T13:09:46Z</time>
      </trkpt>
      <trkpt lat="44.51333" lon="1.34734">
        <ele>288.2</ele>
        <time>2025-05-29T13:09:47Z</time>
      </trkpt>
      <trkpt lat="44.51332" lon="1.34738">
        <ele>288.2</ele>
        <time>2025-05-29T13:09:48Z</time>
      </trkpt>
      <trkpt lat="44.51331" lon="1.3474">
        <ele>288.2</ele>
        <time>2025-05-29T13:09:49Z</time>
      </trkpt>
      <trkpt lat="44.51329" lon="1.3474">
        <ele>288</ele>
        <time>2025-05-29T13:10:02Z</time>
      </trkpt>
      <trkpt lat="44.51328" lon="1.3474">
        <ele>287.8</ele>
        <time>2025-05-29T13:10:03Z</time>
      </trkpt>
      <trkpt lat="44.51326" lon="1.3474">
        <ele>287.6</ele>
        <time>2025-05-29T13:10:04Z</time>
      </trkpt>
      <trkpt lat="44.51323" lon="1.34739">
        <ele>287.4</ele>
        <time>2025-05-29T13:10:05Z</time>
      </trkpt>
      <trkpt lat="44.51321" lon="1.34738">
        <ele>286.8</ele>
        <time>2025-05-29T13:10:06Z</time>
      </trkpt>
      <trkpt lat="44.51319" lon="1.34736">
        <ele>286.2</ele>
        <time>2025-05-29T13:10:07Z</time>
      </trkpt>
      <trkpt lat="44.51316" lon="1.34732">
        <ele>285.6</ele>
        <time>2025-05-29T13:10:08Z</time>
      </trkpt>
      <trkpt lat="44.51313" lon="1.34731">
        <ele>285</ele>
        <time>2025-05-29T13:10:09Z</time>
      </trkpt>
      <trkpt lat="44.51309" lon="1.3473">
        <ele>284.2</ele>
        <time>2025-05-29T13:10:10Z</time>
      </trkpt>
      <trkpt lat="44.51305" lon="1.34731">
        <ele>283.8</ele>
        <time>2025-05-29T13:10:11Z</time>
      </trkpt>
      <trkpt lat="44.51301" lon="1.34731">
        <ele>283.2</ele>
        <time>2025-05-29T13:10:12Z</time>
      </trkpt>
      <trkpt lat="44.51297" lon="1.34733">
        <ele>282.2</ele>
        <time>2025-05-29T13:10:13Z</time>
      </trkpt>
      <trkpt lat="44.51294" lon="1.34733">
        <ele>281.4</ele>
        <time>2025-05-29T13:10:14Z</time>
      </trkpt>
      <trkpt lat="44.51291" lon="1.34731">
        <ele>280.2</ele>
        <time>2025-05-29T13:10:15Z</time>
      </trkpt>
      <trkpt lat="44.51289" lon="1.34729">
        <ele>279.2</ele>
        <time>2025-05-29T13:10:16Z</time>
      </trkpt>
      <trkpt lat="44.51287" lon="1.34726">
        <ele>278.4</ele>
        <time>2025-05-29T13:10:17Z</time>
      </trkpt>
      <trkpt lat="44.51284" lon="1.34724">
        <ele>277.6</ele>
        <time>2025-05-29T13:10:18Z</time>
      </trkpt>
      <trkpt lat="44.51281" lon="1.34722">
        <ele>276.8</ele>
        <time>2025-05-29T13:10:19Z</time>
      </trkpt>
      <trkpt lat="44.51277" lon="1.3472">
        <ele>276</ele>
        <time>2025-05-29T13:10:20Z</time>
      </trkpt>
      <trkpt lat="44.51274" lon="1.34719">
        <ele>275.4</ele>
        <time>2025-05-29T13:10:21Z</time>
      </trkpt>
      <trkpt lat="44.5127" lon="1.34717">
        <ele>275</ele>
        <time>2025-05-29T13:10:22Z</time>
      </trkpt>
      <trkpt lat="44.51267" lon="1.34714">
        <ele>274.8</ele>
        <time>2025-05-29T13:10:23Z</time>
      </trkpt>
      <trkpt lat="44.51264" lon="1.34712">
        <ele>274.6</ele>
        <time>2025-05-29T13:10:24Z</time>
      </trkpt>
      <trkpt lat="44.51262" lon="1.34712">
        <ele>274.6</ele>
        <time>2025-05-29T13:10:25Z</time>
      </trkpt>
      <trkpt lat="44.51259" lon="1.34712">
        <ele>274.6</ele>
        <time>2025-05-29T13:10:26Z</time>
      </trkpt>
      <trkpt lat="44.51257" lon="1.34713">
        <ele>274.6</ele>
        <time>2025-05-29T13:10:27Z</time>
      </trkpt>
      <trkpt lat="44.51256" lon="1.34714">
        <ele>274.8</ele>
        <time>2025-05-29T13:10:28Z</time>
      </trkpt>
      <trkpt lat="44.51254" lon="1.34715">
        <ele>274.8</ele>
        <time>2025-05-29T13:10:29Z</time>
      </trkpt>
      <trkpt lat="44.51252" lon="1.34715">
        <ele>274.8</ele>
        <time>2025-05-29T13:10:30Z</time>
      </trkpt>
      <trkpt lat="44.5125" lon="1.34713">
        <ele>274.8</ele>
        <time>2025-05-29T13:10:31Z</time>
      </trkpt>
      <trkpt lat="44.51248" lon="1.34711">
        <ele>274.8</ele>
        <time>2025-05-29T13:10:32Z</time>
      </trkpt>
      <trkpt lat="44.51246" lon="1.34712">
        <ele>274.6</ele>
        <time>2025-05-29T13:10:33Z</time>
      </trkpt>
      <trkpt lat="44.51243" lon="1.34712">
        <ele>274.6</ele>
        <time>2025-05-29T13:10:34Z</time>
      </trkpt>
      <trkpt lat="44.5124" lon="1.34712">
        <ele>274.6</ele>
        <time>2025-05-29T13:10:35Z</time>
      </trkpt>
      <trkpt lat="44.51237" lon="1.34712">
        <ele>274.4</ele>
        <time>2025-05-29T13:10:36Z</time>
      </trkpt>
      <trkpt lat="44.51234" lon="1.34712">
        <ele>274.4</ele>
        <time>2025-05-29T13:10:37Z</time>
      </trkpt>
      <trkpt lat="44.51232" lon="1.34712">
        <ele>274.4</ele>
        <time>2025-05-29T13:10:38Z</time>
      </trkpt>
      <trkpt lat="44.51229" lon="1.34711">
        <ele>274.4</ele>
        <time>2025-05-29T13:10:39Z</time>
      </trkpt>
      <trkpt lat="44.51225" lon="1.34711">
        <ele>274.4</ele>
        <time>2025-05-29T13:10:40Z</time>
      </trkpt>
      <trkpt lat="44.51222" lon="1.3471">
        <ele>274.4</ele>
        <time>2025-05-29T13:10:41Z</time>
      </trkpt>
      <trkpt lat="44.51219" lon="1.3471">
        <ele>274.4</ele>
        <time>2025-05-29T13:10:42Z</time>
      </trkpt>
      <trkpt lat="44.51215" lon="1.3471">
        <ele>274.4</ele>
        <time>2025-05-29T13:10:43Z</time>
      </trkpt>
      <trkpt lat="44.51213" lon="1.34711">
        <ele>274.4</ele>
        <time>2025-05-29T13:10:44Z</time>
      </trkpt>
      <trkpt lat="44.51211" lon="1.34712">
        <ele>274.2</ele>
        <time>2025-05-29T13:10:45Z</time>
      </trkpt>
      <trkpt lat="44.51209" lon="1.34714">
        <ele>274.2</ele>
        <time>2025-05-29T13:10:46Z</time>
      </trkpt>
      <trkpt lat="44.51207" lon="1.34717">
        <ele>273.8</ele>
        <time>2025-05-29T13:10:47Z</time>
      </trkpt>
      <trkpt lat="44.51204" lon="1.34718">
        <ele>273.4</ele>
        <time>2025-05-29T13:10:48Z</time>
      </trkpt>
      <trkpt lat="44.51201" lon="1.3472">
        <ele>272.8</ele>
        <time>2025-05-29T13:10:49Z</time>
      </trkpt>
      <trkpt lat="44.51199" lon="1.34722">
        <ele>272.2</ele>
        <time>2025-05-29T13:10:50Z</time>
      </trkpt>
      <trkpt lat="44.51196" lon="1.34722">
        <ele>271.6</ele>
        <time>2025-05-29T13:10:51Z</time>
      </trkpt>
      <trkpt lat="44.51194" lon="1.34723">
        <ele>271</ele>
        <time>2025-05-29T13:10:52Z</time>
      </trkpt>
      <trkpt lat="44.51192" lon="1.34723">
        <ele>270.4</ele>
        <time>2025-05-29T13:10:53Z</time>
      </trkpt>
      <trkpt lat="44.51189" lon="1.34724">
        <ele>270</ele>
        <time>2025-05-29T13:10:54Z</time>
      </trkpt>
      <trkpt lat="44.51186" lon="1.34724">
        <ele>269.8</ele>
        <time>2025-05-29T13:10:55Z</time>
      </trkpt>
      <trkpt lat="44.51184" lon="1.34726">
        <ele>269.6</ele>
        <time>2025-05-29T13:10:56Z</time>
      </trkpt>
      <trkpt lat="44.51182" lon="1.34728">
        <ele>269.4</ele>
        <time>2025-05-29T13:10:57Z</time>
      </trkpt>
      <trkpt lat="44.51179" lon="1.34729">
        <ele>269.2</ele>
        <time>2025-05-29T13:10:58Z</time>
      </trkpt>
      <trkpt lat="44.51177" lon="1.3473">
        <ele>269</ele>
        <time>2025-05-29T13:10:59Z</time>
      </trkpt>
      <trkpt lat="44.51175" lon="1.3473">
        <ele>268.8</ele>
        <time>2025-05-29T13:11:00Z</time>
      </trkpt>
      <trkpt lat="44.51174" lon="1.34731">
        <ele>268.8</ele>
        <time>2025-05-29T13:11:01Z</time>
      </trkpt>
      <trkpt lat="44.51172" lon="1.34733">
        <ele>268.6</ele>
        <time>2025-05-29T13:11:02Z</time>
      </trkpt>
      <trkpt lat="44.5117" lon="1.34735">
        <ele>268.4</ele>
        <time>2025-05-29T13:11:03Z</time>
      </trkpt>
      <trkpt lat="44.51167" lon="1.34737">
        <ele>268.4</ele>
        <time>2025-05-29T13:11:04Z</time>
      </trkpt>
      <trkpt lat="44.51163" lon="1.34738">
        <ele>268.2</ele>
        <time>2025-05-29T13:11:05Z</time>
      </trkpt>
      <trkpt lat="44.51161" lon="1.34738">
        <ele>268</ele>
        <time>2025-05-29T13:11:06Z</time>
      </trkpt>
      <trkpt lat="44.51159" lon="1.34739">
        <ele>268</ele>
        <time>2025-05-29T13:11:07Z</time>
      </trkpt>
      <trkpt lat="44.51157" lon="1.34741">
        <ele>267.8</ele>
        <time>2025-05-29T13:11:08Z</time>
      </trkpt>
      <trkpt lat="44.51155" lon="1.34743">
        <ele>267.8</ele>
        <time>2025-05-29T13:11:09Z</time>
      </trkpt>
      <trkpt lat="44.51152" lon="1.34745">
        <ele>267.6</ele>
        <time>2025-05-29T13:11:10Z</time>
      </trkpt>
      <trkpt lat="44.51148" lon="1.34747">
        <ele>267.4</ele>
        <time>2025-05-29T13:11:11Z</time>
      </trkpt>
      <trkpt lat="44.51146" lon="1.34748">
        <ele>267.2</ele>
        <time>2025-05-29T13:11:12Z</time>
      </trkpt>
      <trkpt lat="44.51143" lon="1.34748">
        <ele>267</ele>
        <time>2025-05-29T13:11:13Z</time>
      </trkpt>
      <trkpt lat="44.51141" lon="1.34748">
        <ele>267</ele>
        <time>2025-05-29T13:11:14Z</time>
      </trkpt>
      <trkpt lat="44.51139" lon="1.34747">
        <ele>267.2</ele>
        <time>2025-05-29T13:11:15Z</time>
      </trkpt>
      <trkpt lat="44.51137" lon="1.34746">
        <ele>267.4</ele>
        <time>2025-05-29T13:11:16Z</time>
      </trkpt>
      <trkpt lat="44.51135" lon="1.34748">
        <ele>267.6</ele>
        <time>2025-05-29T13:11:17Z</time>
      </trkpt>
      <trkpt lat="44.51133" lon="1.3475">
        <ele>268</ele>
        <time>2025-05-29T13:11:18Z</time>
      </trkpt>
      <trkpt lat="44.51131" lon="1.34751">
        <ele>268.2</ele>
        <time>2025-05-29T13:11:19Z</time>
      </trkpt>
      <trkpt lat="44.51129" lon="1.34752">
        <ele>268.4</ele>
        <time>2025-05-29T13:11:20Z</time>
      </trkpt>
      <trkpt lat="44.51127" lon="1.34753">
        <ele>268.4</ele>
        <time>2025-05-29T13:11:21Z</time>
      </trkpt>
      <trkpt lat="44.51124" lon="1.34755">
        <ele>268.4</ele>
        <time>2025-05-29T13:11:22Z</time>
      </trkpt>
      <trkpt lat="44.51122" lon="1.34757">
        <ele>268.4</ele>
        <time>2025-05-29T13:11:23Z</time>
      </trkpt>
      <trkpt lat="44.51119" lon="1.34758">
        <ele>268.4</ele>
        <time>2025-05-29T13:11:24Z</time>
      </trkpt>
      <trkpt lat="44.51117" lon="1.34757">
        <ele>268.6</ele>
        <time>2025-05-29T13:11:25Z</time>
      </trkpt>
      <trkpt lat="44.51115" lon="1.34756">
        <ele>268.6</ele>
        <time>2025-05-29T13:11:26Z</time>
      </trkpt>
      <trkpt lat="44.51113" lon="1.34757">
        <ele>268.6</ele>
        <time>2025-05-29T13:11:27Z</time>
      </trkpt>
      <trkpt lat="44.5111" lon="1.34758">
        <ele>268.8</ele>
        <time>2025-05-29T13:11:28Z</time>
      </trkpt>
      <trkpt lat="44.51107" lon="1.34758">
        <ele>269</ele>
        <time>2025-05-29T13:11:29Z</time>
      </trkpt>
      <trkpt lat="44.51105" lon="1.34759">
        <ele>269.2</ele>
        <time>2025-05-29T13:11:30Z</time>
      </trkpt>
      <trkpt lat="44.51104" lon="1.34761">
        <ele>269.4</ele>
        <time>2025-05-29T13:11:31Z</time>
      </trkpt>
      <trkpt lat="44.51104" lon="1.34765">
        <ele>269.4</ele>
        <time>2025-05-29T13:11:32Z</time>
      </trkpt>
      <trkpt lat="44.51103" lon="1.34769">
        <ele>269.2</ele>
        <time>2025-05-29T13:11:33Z</time>
      </trkpt>
      <trkpt lat="44.51101" lon="1.34774">
        <ele>269</ele>
        <time>2025-05-29T13:11:34Z</time>
      </trkpt>
      <trkpt lat="44.51099" lon="1.34779">
        <ele>268.6</ele>
        <time>2025-05-29T13:11:35Z</time>
      </trkpt>
      <trkpt lat="44.51096" lon="1.34784">
        <ele>267.8</ele>
        <time>2025-05-29T13:11:36Z</time>
      </trkpt>
      <trkpt lat="44.51094" lon="1.34787">
        <ele>267.2</ele>
        <time>2025-05-29T13:11:37Z</time>
      </trkpt>
      <trkpt lat="44.51091" lon="1.3479">
        <ele>266.8</ele>
        <time>2025-05-29T13:11:38Z</time>
      </trkpt>
      <trkpt lat="44.51089" lon="1.34792">
        <ele>266.6</ele>
        <time>2025-05-29T13:11:39Z</time>
      </trkpt>
      <trkpt lat="44.51087" lon="1.34794">
        <ele>266.4</ele>
        <time>2025-05-29T13:11:40Z</time>
      </trkpt>
      <trkpt lat="44.51085" lon="1.34796">
        <ele>266.4</ele>
        <time>2025-05-29T13:11:41Z</time>
      </trkpt>
      <trkpt lat="44.51083" lon="1.34798">
        <ele>266.4</ele>
        <time>2025-05-29T13:11:42Z</time>
      </trkpt>
      <trkpt lat="44.51081" lon="1.348">
        <ele>266.4</ele>
        <time>2025-05-29T13:11:43Z</time>
      </trkpt>
      <trkpt lat="44.51079" lon="1.34801">
        <ele>266.4</ele>
        <time>2025-05-29T13:11:44Z</time>
      </trkpt>
      <trkpt lat="44.51076" lon="1.34802">
        <ele>266.6</ele>
        <time>2025-05-29T13:11:45Z</time>
      </trkpt>
      <trkpt lat="44.51073" lon="1.34803">
        <ele>266.6</ele>
        <time>2025-05-29T13:11:46Z</time>
      </trkpt>
      <trkpt lat="44.51072" lon="1.34805">
        <ele>266.8</ele>
        <time>2025-05-29T13:11:47Z</time>
      </trkpt>
      <trkpt lat="44.5107" lon="1.34807">
        <ele>267</ele>
        <time>2025-05-29T13:11:48Z</time>
      </trkpt>
      <trkpt lat="44.51067" lon="1.34808">
        <ele>267.2</ele>
        <time>2025-05-29T13:11:49Z</time>
      </trkpt>
      <trkpt lat="44.51065" lon="1.34809">
        <ele>267.4</ele>
        <time>2025-05-29T13:11:50Z</time>
      </trkpt>
      <trkpt lat="44.51063" lon="1.34812">
        <ele>267.6</ele>
        <time>2025-05-29T13:11:51Z</time>
      </trkpt>
      <trkpt lat="44.51061" lon="1.34814">
        <ele>267.6</ele>
        <time>2025-05-29T13:11:52Z</time>
      </trkpt>
      <trkpt lat="44.51059" lon="1.34815">
        <ele>267.8</ele>
        <time>2025-05-29T13:11:53Z</time>
      </trkpt>
      <trkpt lat="44.51057" lon="1.34817">
        <ele>267.8</ele>
        <time>2025-05-29T13:11:54Z</time>
      </trkpt>
      <trkpt lat="44.51055" lon="1.34819">
        <ele>267.8</ele>
        <time>2025-05-29T13:11:55Z</time>
      </trkpt>
      <trkpt lat="44.51054" lon="1.34822">
        <ele>268</ele>
        <time>2025-05-29T13:11:56Z</time>
      </trkpt>
      <trkpt lat="44.51052" lon="1.34825">
        <ele>268</ele>
        <time>2025-05-29T13:11:57Z</time>
      </trkpt>
      <trkpt lat="44.5105" lon="1.34828">
        <ele>267.8</ele>
        <time>2025-05-29T13:11:58Z</time>
      </trkpt>
      <trkpt lat="44.51047" lon="1.3483">
        <ele>267.8</ele>
        <time>2025-05-29T13:11:59Z</time>
      </trkpt>
      <trkpt lat="44.51046" lon="1.34832">
        <ele>267.6</ele>
        <time>2025-05-29T13:12:00Z</time>
      </trkpt>
      <trkpt lat="44.51044" lon="1.34835">
        <ele>267.6</ele>
        <time>2025-05-29T13:12:01Z</time>
      </trkpt>
      <trkpt lat="44.51041" lon="1.34838">
        <ele>267.6</ele>
        <time>2025-05-29T13:12:02Z</time>
      </trkpt>
      <trkpt lat="44.51039" lon="1.34841">
        <ele>267.6</ele>
        <time>2025-05-29T13:12:03Z</time>
      </trkpt>
      <trkpt lat="44.51037" lon="1.34843">
        <ele>267.6</ele>
        <time>2025-05-29T13:12:04Z</time>
      </trkpt>
      <trkpt lat="44.51035" lon="1.34845">
        <ele>267.8</ele>
        <time>2025-05-29T13:12:05Z</time>
      </trkpt>
      <trkpt lat="44.51033" lon="1.34847">
        <ele>267.6</ele>
        <time>2025-05-29T13:12:06Z</time>
      </trkpt>
      <trkpt lat="44.51032" lon="1.3485">
        <ele>267.6</ele>
        <time>2025-05-29T13:12:07Z</time>
      </trkpt>
      <trkpt lat="44.51029" lon="1.34853">
        <ele>267.6</ele>
        <time>2025-05-29T13:12:08Z</time>
      </trkpt>
      <trkpt lat="44.51027" lon="1.34856">
        <ele>267.6</ele>
        <time>2025-05-29T13:12:09Z</time>
      </trkpt>
      <trkpt lat="44.51025" lon="1.34858">
        <ele>267.4</ele>
        <time>2025-05-29T13:12:10Z</time>
      </trkpt>
      <trkpt lat="44.51023" lon="1.34862">
        <ele>267.4</ele>
        <time>2025-05-29T13:12:11Z</time>
      </trkpt>
      <trkpt lat="44.51021" lon="1.34866">
        <ele>267.4</ele>
        <time>2025-05-29T13:12:12Z</time>
      </trkpt>
      <trkpt lat="44.51019" lon="1.34869">
        <ele>267.4</ele>
        <time>2025-05-29T13:12:13Z</time>
      </trkpt>
      <trkpt lat="44.51016" lon="1.34871">
        <ele>267.4</ele>
        <time>2025-05-29T13:12:14Z</time>
      </trkpt>
      <trkpt lat="44.51013" lon="1.34873">
        <ele>267.2</ele>
        <time>2025-05-29T13:12:15Z</time>
      </trkpt>
      <trkpt lat="44.51011" lon="1.34875">
        <ele>267.4</ele>
        <time>2025-05-29T13:12:16Z</time>
      </trkpt>
      <trkpt lat="44.51008" lon="1.34876">
        <ele>267.4</ele>
        <time>2025-05-29T13:12:17Z</time>
      </trkpt>
      <trkpt lat="44.51005" lon="1.34877">
        <ele>267.6</ele>
        <time>2025-05-29T13:12:18Z</time>
      </trkpt>
      <trkpt lat="44.51003" lon="1.34879">
        <ele>267.8</ele>
        <time>2025-05-29T13:12:19Z</time>
      </trkpt>
      <trkpt lat="44.51" lon="1.3488">
        <ele>268</ele>
        <time>2025-05-29T13:12:20Z</time>
      </trkpt>
      <trkpt lat="44.50998" lon="1.34879">
        <ele>268.2</ele>
        <time>2025-05-29T13:12:21Z</time>
      </trkpt>
      <trkpt lat="44.50996" lon="1.3488">
        <ele>268.4</ele>
        <time>2025-05-29T13:12:22Z</time>
      </trkpt>
      <trkpt lat="44.50994" lon="1.3488">
        <ele>268.6</ele>
        <time>2025-05-29T13:12:23Z</time>
      </trkpt>
      <trkpt lat="44.50992" lon="1.34882">
        <ele>268.8</ele>
        <time>2025-05-29T13:12:24Z</time>
      </trkpt>
      <trkpt lat="44.50989" lon="1.34884">
        <ele>269</ele>
        <time>2025-05-29T13:12:25Z</time>
      </trkpt>
      <trkpt lat="44.50986" lon="1.34884">
        <ele>269</ele>
        <time>2025-05-29T13:12:26Z</time>
      </trkpt>
      <trkpt lat="44.50984" lon="1.34884">
        <ele>269</ele>
        <time>2025-05-29T13:12:27Z</time>
      </trkpt>
      <trkpt lat="44.50981" lon="1.34883">
        <ele>269.2</ele>
        <time>2025-05-29T13:12:28Z</time>
      </trkpt>
      <trkpt lat="44.50979" lon="1.34883">
        <ele>269.4</ele>
        <time>2025-05-29T13:12:29Z</time>
      </trkpt>
      <trkpt lat="44.50977" lon="1.34883">
        <ele>269.6</ele>
        <time>2025-05-29T13:12:30Z</time>
      </trkpt>
      <trkpt lat="44.50976" lon="1.34883">
        <ele>269.8</ele>
        <time>2025-05-29T13:12:31Z</time>
      </trkpt>
      <trkpt lat="44.50975" lon="1.34881">
        <ele>270</ele>
        <time>2025-05-29T13:12:32Z</time>
      </trkpt>
      <trkpt lat="44.50974" lon="1.3488">
        <ele>270.4</ele>
        <time>2025-05-29T13:12:33Z</time>
      </trkpt>
      <trkpt lat="44.50973" lon="1.34879">
        <ele>270.6</ele>
        <time>2025-05-29T13:12:34Z</time>
      </trkpt>
      <trkpt lat="44.50971" lon="1.34878">
        <ele>270.8</ele>
        <time>2025-05-29T13:12:35Z</time>
      </trkpt>
      <trkpt lat="44.50969" lon="1.34878">
        <ele>270.8</ele>
        <time>2025-05-29T13:12:36Z</time>
      </trkpt>
      <trkpt lat="44.50967" lon="1.34878">
        <ele>271</ele>
        <time>2025-05-29T13:12:37Z</time>
      </trkpt>
      <trkpt lat="44.50965" lon="1.34878">
        <ele>271</ele>
        <time>2025-05-29T13:12:38Z</time>
      </trkpt>
      <trkpt lat="44.50963" lon="1.34878">
        <ele>271.2</ele>
        <time>2025-05-29T13:12:39Z</time>
      </trkpt>
      <trkpt lat="44.50961" lon="1.34878">
        <ele>271.4</ele>
        <time>2025-05-29T13:12:40Z</time>
      </trkpt>
      <trkpt lat="44.50959" lon="1.34878">
        <ele>271.6</ele>
        <time>2025-05-29T13:12:41Z</time>
      </trkpt>
      <trkpt lat="44.50957" lon="1.34877">
        <ele>271.6</ele>
        <time>2025-05-29T13:12:42Z</time>
      </trkpt>
      <trkpt lat="44.50955" lon="1.34875">
        <ele>271.8</ele>
        <time>2025-05-29T13:12:43Z</time>
      </trkpt>
      <trkpt lat="44.50954" lon="1.34875">
        <ele>272</ele>
        <time>2025-05-29T13:12:44Z</time>
      </trkpt>
      <trkpt lat="44.50953" lon="1.34874">
        <ele>272.2</ele>
        <time>2025-05-29T13:12:45Z</time>
      </trkpt>
      <trkpt lat="44.50951" lon="1.34873">
        <ele>272.2</ele>
        <time>2025-05-29T13:12:46Z</time>
      </trkpt>
      <trkpt lat="44.50949" lon="1.34872">
        <ele>272.4</ele>
        <time>2025-05-29T13:12:47Z</time>
      </trkpt>
      <trkpt lat="44.50948" lon="1.34871">
        <ele>272.6</ele>
        <time>2025-05-29T13:12:48Z</time>
      </trkpt>
      <trkpt lat="44.50946" lon="1.34871">
        <ele>272.8</ele>
        <time>2025-05-29T13:12:49Z</time>
      </trkpt>
      <trkpt lat="44.50944" lon="1.3487">
        <ele>273</ele>
        <time>2025-05-29T13:12:50Z</time>
      </trkpt>
      <trkpt lat="44.50943" lon="1.3487">
        <ele>273.2</ele>
        <time>2025-05-29T13:12:51Z</time>
      </trkpt>
      <trkpt lat="44.50941" lon="1.34869">
        <ele>273.4</ele>
        <time>2025-05-29T13:12:52Z</time>
      </trkpt>
      <trkpt lat="44.5094" lon="1.34868">
        <ele>273.4</ele>
        <time>2025-05-29T13:12:53Z</time>
      </trkpt>
      <trkpt lat="44.50938" lon="1.34868">
        <ele>273.6</ele>
        <time>2025-05-29T13:12:54Z</time>
      </trkpt>
      <trkpt lat="44.50936" lon="1.34868">
        <ele>273.8</ele>
        <time>2025-05-29T13:12:55Z</time>
      </trkpt>
      <trkpt lat="44.50934" lon="1.34868">
        <ele>274</ele>
        <time>2025-05-29T13:12:56Z</time>
      </trkpt>
      <trkpt lat="44.50933" lon="1.34867">
        <ele>274.2</ele>
        <time>2025-05-29T13:12:57Z</time>
      </trkpt>
      <trkpt lat="44.50932" lon="1.34866">
        <ele>274.4</ele>
        <time>2025-05-29T13:12:58Z</time>
      </trkpt>
      <trkpt lat="44.50931" lon="1.34865">
        <ele>274.4</ele>
        <time>2025-05-29T13:12:59Z</time>
      </trkpt>
      <trkpt lat="44.5093" lon="1.34864">
        <ele>274.6</ele>
        <time>2025-05-29T13:13:00Z</time>
      </trkpt>
      <trkpt lat="44.50929" lon="1.34862">
        <ele>274.8</ele>
        <time>2025-05-29T13:13:01Z</time>
      </trkpt>
      <trkpt lat="44.50928" lon="1.34861">
        <ele>275</ele>
        <time>2025-05-29T13:13:02Z</time>
      </trkpt>
      <trkpt lat="44.50927" lon="1.34861">
        <ele>275.2</ele>
        <time>2025-05-29T13:13:03Z</time>
      </trkpt>
      <trkpt lat="44.50926" lon="1.3486">
        <ele>275.4</ele>
        <time>2025-05-29T13:13:04Z</time>
      </trkpt>
      <trkpt lat="44.50925" lon="1.3486">
        <ele>275.6</ele>
        <time>2025-05-29T13:13:05Z</time>
      </trkpt>
      <trkpt lat="44.50923" lon="1.3486">
        <ele>275.8</ele>
        <time>2025-05-29T13:13:06Z</time>
      </trkpt>
      <trkpt lat="44.50922" lon="1.3486">
        <ele>276</ele>
        <time>2025-05-29T13:13:07Z</time>
      </trkpt>
      <trkpt lat="44.50921" lon="1.34859">
        <ele>276.2</ele>
        <time>2025-05-29T13:13:08Z</time>
      </trkpt>
      <trkpt lat="44.50919" lon="1.34859">
        <ele>276.2</ele>
        <time>2025-05-29T13:13:09Z</time>
      </trkpt>
      <trkpt lat="44.50918" lon="1.34859">
        <ele>276.4</ele>
        <time>2025-05-29T13:13:10Z</time>
      </trkpt>
      <trkpt lat="44.50918" lon="1.34858">
        <ele>276.6</ele>
        <time>2025-05-29T13:13:11Z</time>
      </trkpt>
      <trkpt lat="44.50917" lon="1.34857">
        <ele>276.6</ele>
        <time>2025-05-29T13:13:12Z</time>
      </trkpt>
      <trkpt lat="44.50916" lon="1.34856">
        <ele>276.8</ele>
        <time>2025-05-29T13:13:13Z</time>
      </trkpt>
      <trkpt lat="44.50915" lon="1.34856">
        <ele>277</ele>
        <time>2025-05-29T13:13:14Z</time>
      </trkpt>
      <trkpt lat="44.50914" lon="1.34855">
        <ele>277.4</ele>
        <time>2025-05-29T13:13:15Z</time>
      </trkpt>
      <trkpt lat="44.50913" lon="1.34855">
        <ele>277.6</ele>
        <time>2025-05-29T13:13:16Z</time>
      </trkpt>
      <trkpt lat="44.50911" lon="1.34855">
        <ele>277.8</ele>
        <time>2025-05-29T13:13:17Z</time>
      </trkpt>
      <trkpt lat="44.50909" lon="1.34855">
        <ele>278</ele>
        <time>2025-05-29T13:13:18Z</time>
      </trkpt>
      <trkpt lat="44.50908" lon="1.34855">
        <ele>278</ele>
        <time>2025-05-29T13:13:19Z</time>
      </trkpt>
      <trkpt lat="44.50906" lon="1.34855">
        <ele>278</ele>
        <time>2025-05-29T13:13:20Z</time>
      </trkpt>
      <trkpt lat="44.50905" lon="1.34855">
        <ele>278.2</ele>
        <time>2025-05-29T13:13:21Z</time>
      </trkpt>
      <trkpt lat="44.50903" lon="1.34855">
        <ele>278.2</ele>
        <time>2025-05-29T13:13:22Z</time>
      </trkpt>
      <trkpt lat="44.50901" lon="1.34855">
        <ele>278.2</ele>
        <time>2025-05-29T13:13:23Z</time>
      </trkpt>
      <trkpt lat="44.509" lon="1.34854">
        <ele>278.4</ele>
        <time>2025-05-29T13:13:24Z</time>
      </trkpt>
      <trkpt lat="44.50898" lon="1.34854">
        <ele>278.4</ele>
        <time>2025-05-29T13:13:25Z</time>
      </trkpt>
      <trkpt lat="44.50897" lon="1.34854">
        <ele>278.6</ele>
        <time>2025-05-29T13:13:26Z</time>
      </trkpt>
      <trkpt lat="44.50895" lon="1.34855">
        <ele>278.6</ele>
        <time>2025-05-29T13:13:27Z</time>
      </trkpt>
      <trkpt lat="44.50893" lon="1.34855">
        <ele>278.6</ele>
        <time>2025-05-29T13:13:28Z</time>
      </trkpt>
      <trkpt lat="44.50892" lon="1.34855">
        <ele>278.6</ele>
        <time>2025-05-29T13:13:29Z</time>
      </trkpt>
      <trkpt lat="44.5089" lon="1.34854">
        <ele>278.6</ele>
        <time>2025-05-29T13:13:30Z</time>
      </trkpt>
      <trkpt lat="44.50889" lon="1.34853">
        <ele>278.8</ele>
        <time>2025-05-29T13:13:31Z</time>
      </trkpt>
      <trkpt lat="44.50888" lon="1.34852">
        <ele>278.8</ele>
        <time>2025-05-29T13:13:32Z</time>
      </trkpt>
      <trkpt lat="44.50886" lon="1.34852">
        <ele>278.8</ele>
        <time>2025-05-29T13:13:33Z</time>
      </trkpt>
      <trkpt lat="44.50884" lon="1.34853">
        <ele>279</ele>
        <time>2025-05-29T13:13:34Z</time>
      </trkpt>
      <trkpt lat="44.50883" lon="1.34853">
        <ele>279</ele>
        <time>2025-05-29T13:13:35Z</time>
      </trkpt>
      <trkpt lat="44.50881" lon="1.34852">
        <ele>279</ele>
        <time>2025-05-29T13:13:36Z</time>
      </trkpt>
      <trkpt lat="44.5088" lon="1.34852">
        <ele>279.2</ele>
        <time>2025-05-29T13:13:37Z</time>
      </trkpt>
      <trkpt lat="44.50878" lon="1.34852">
        <ele>279.2</ele>
        <time>2025-05-29T13:13:38Z</time>
      </trkpt>
      <trkpt lat="44.50876" lon="1.34851">
        <ele>279.2</ele>
        <time>2025-05-29T13:13:39Z</time>
      </trkpt>
      <trkpt lat="44.50875" lon="1.34851">
        <ele>279.4</ele>
        <time>2025-05-29T13:13:40Z</time>
      </trkpt>
      <trkpt lat="44.50874" lon="1.3485">
        <ele>279.4</ele>
        <time>2025-05-29T13:13:41Z</time>
      </trkpt>
      <trkpt lat="44.50873" lon="1.3485">
        <ele>279.6</ele>
        <time>2025-05-29T13:13:42Z</time>
      </trkpt>
      <trkpt lat="44.50872" lon="1.3485">
        <ele>279.6</ele>
        <time>2025-05-29T13:13:43Z</time>
      </trkpt>
      <trkpt lat="44.5087" lon="1.3485">
        <ele>279.6</ele>
        <time>2025-05-29T13:13:44Z</time>
      </trkpt>
      <trkpt lat="44.50869" lon="1.3485">
        <ele>279.6</ele>
        <time>2025-05-29T13:13:45Z</time>
      </trkpt>
      <trkpt lat="44.50868" lon="1.34849">
        <ele>279.8</ele>
        <time>2025-05-29T13:13:46Z</time>
      </trkpt>
      <trkpt lat="44.50866" lon="1.34849">
        <ele>279.8</ele>
        <time>2025-05-29T13:13:47Z</time>
      </trkpt>
      <trkpt lat="44.50865" lon="1.34848">
        <ele>279.8</ele>
        <time>2025-05-29T13:13:48Z</time>
      </trkpt>
      <trkpt lat="44.50863" lon="1.34848">
        <ele>279.8</ele>
        <time>2025-05-29T13:13:49Z</time>
      </trkpt>
      <trkpt lat="44.50862" lon="1.34847">
        <ele>280</ele>
        <time>2025-05-29T13:13:50Z</time>
      </trkpt>
      <trkpt lat="44.50861" lon="1.34846">
        <ele>280</ele>
        <time>2025-05-29T13:13:51Z</time>
      </trkpt>
      <trkpt lat="44.5086" lon="1.34845">
        <ele>280.2</ele>
        <time>2025-05-29T13:13:52Z</time>
      </trkpt>
      <trkpt lat="44.50859" lon="1.34844">
        <ele>280.2</ele>
        <time>2025-05-29T13:13:53Z</time>
      </trkpt>
      <trkpt lat="44.50858" lon="1.34842">
        <ele>280.4</ele>
        <time>2025-05-29T13:13:54Z</time>
      </trkpt>
      <trkpt lat="44.50857" lon="1.34841">
        <ele>280.6</ele>
        <time>2025-05-29T13:13:55Z</time>
      </trkpt>
      <trkpt lat="44.50856" lon="1.34839">
        <ele>280.6</ele>
        <time>2025-05-29T13:13:56Z</time>
      </trkpt>
      <trkpt lat="44.50854" lon="1.34838">
        <ele>280.8</ele>
        <time>2025-05-29T13:13:57Z</time>
      </trkpt>
      <trkpt lat="44.50853" lon="1.34837">
        <ele>281</ele>
        <time>2025-05-29T13:13:58Z</time>
      </trkpt>
      <trkpt lat="44.50852" lon="1.34836">
        <ele>281.2</ele>
        <time>2025-05-29T13:13:59Z</time>
      </trkpt>
      <trkpt lat="44.50851" lon="1.34835">
        <ele>281.4</ele>
        <time>2025-05-29T13:14:00Z</time>
      </trkpt>
      <trkpt lat="44.5085" lon="1.34835">
        <ele>281.4</ele>
        <time>2025-05-29T13:14:01Z</time>
      </trkpt>
      <trkpt lat="44.50849" lon="1.34836">
        <ele>281.4</ele>
        <time>2025-05-29T13:14:02Z</time>
      </trkpt>
      <trkpt lat="44.50848" lon="1.34835">
        <ele>281.4</ele>
        <time>2025-05-29T13:14:03Z</time>
      </trkpt>
      <trkpt lat="44.50847" lon="1.34835">
        <ele>281.6</ele>
        <time>2025-05-29T13:14:04Z</time>
      </trkpt>
      <trkpt lat="44.50845" lon="1.34835">
        <ele>281.6</ele>
        <time>2025-05-29T13:14:05Z</time>
      </trkpt>
      <trkpt lat="44.50844" lon="1.34835">
        <ele>281.4</ele>
        <time>2025-05-29T13:14:06Z</time>
      </trkpt>
      <trkpt lat="44.50842" lon="1.34835">
        <ele>281.6</ele>
        <time>2025-05-29T13:14:07Z</time>
      </trkpt>
      <trkpt lat="44.5084" lon="1.34834">
        <ele>281.6</ele>
        <time>2025-05-29T13:14:08Z</time>
      </trkpt>
      <trkpt lat="44.50837" lon="1.34834">
        <ele>281.4</ele>
        <time>2025-05-29T13:14:09Z</time>
      </trkpt>
      <trkpt lat="44.50835" lon="1.34833">
        <ele>281.4</ele>
        <time>2025-05-29T13:14:10Z</time>
      </trkpt>
      <trkpt lat="44.50834" lon="1.34831">
        <ele>281.4</ele>
        <time>2025-05-29T13:14:11Z</time>
      </trkpt>
      <trkpt lat="44.50832" lon="1.3483">
        <ele>281.6</ele>
        <time>2025-05-29T13:14:12Z</time>
      </trkpt>
      <trkpt lat="44.50831" lon="1.34828">
        <ele>281.6</ele>
        <time>2025-05-29T13:14:13Z</time>
      </trkpt>
      <trkpt lat="44.5083" lon="1.34826">
        <ele>281.6</ele>
        <time>2025-05-29T13:14:14Z</time>
      </trkpt>
      <trkpt lat="44.50828" lon="1.34823">
        <ele>281.8</ele>
        <time>2025-05-29T13:14:15Z</time>
      </trkpt>
      <trkpt lat="44.50827" lon="1.34822">
        <ele>282</ele>
        <time>2025-05-29T13:14:16Z</time>
      </trkpt>
      <trkpt lat="44.50825" lon="1.34821">
        <ele>282.2</ele>
        <time>2025-05-29T13:14:17Z</time>
      </trkpt>
      <trkpt lat="44.50824" lon="1.3482">
        <ele>282.2</ele>
        <time>2025-05-29T13:14:18Z</time>
      </trkpt>
      <trkpt lat="44.50824" lon="1.34819">
        <ele>282.4</ele>
        <time>2025-05-29T13:14:19Z</time>
      </trkpt>
      <trkpt lat="44.50824" lon="1.3482">
        <ele>282.4</ele>
        <time>2025-05-29T13:14:20Z</time>
      </trkpt>
      <trkpt lat="44.50827" lon="1.34816">
        <ele>282</ele>
        <time>2025-05-29T13:14:33Z</time>
      </trkpt>
      <trkpt lat="44.50829" lon="1.34814">
        <ele>282</ele>
        <time>2025-05-29T13:14:34Z</time>
      </trkpt>
      <trkpt lat="44.50831" lon="1.34812">
        <ele>282.2</ele>
        <time>2025-05-29T13:14:35Z</time>
      </trkpt>
      <trkpt lat="44.50832" lon="1.3481">
        <ele>282.2</ele>
        <time>2025-05-29T13:14:36Z</time>
      </trkpt>
      <trkpt lat="44.50833" lon="1.34808">
        <ele>282.4</ele>
        <time>2025-05-29T13:14:37Z</time>
      </trkpt>
      <trkpt lat="44.50834" lon="1.34806">
        <ele>282.6</ele>
        <time>2025-05-29T13:14:38Z</time>
      </trkpt>
      <trkpt lat="44.50835" lon="1.34804">
        <ele>282.8</ele>
        <time>2025-05-29T13:14:39Z</time>
      </trkpt>
      <trkpt lat="44.50836" lon="1.34801">
        <ele>283</ele>
        <time>2025-05-29T13:14:40Z</time>
      </trkpt>
      <trkpt lat="44.50837" lon="1.34799">
        <ele>283.4</ele>
        <time>2025-05-29T13:14:41Z</time>
      </trkpt>
      <trkpt lat="44.50838" lon="1.34797">
        <ele>283.6</ele>
        <time>2025-05-29T13:14:42Z</time>
      </trkpt>
      <trkpt lat="44.50839" lon="1.34795">
        <ele>284</ele>
        <time>2025-05-29T13:14:43Z</time>
      </trkpt>
      <trkpt lat="44.5084" lon="1.34793">
        <ele>284.2</ele>
        <time>2025-05-29T13:14:44Z</time>
      </trkpt>
      <trkpt lat="44.50841" lon="1.3479">
        <ele>284.6</ele>
        <time>2025-05-29T13:14:45Z</time>
      </trkpt>
      <trkpt lat="44.50841" lon="1.34788">
        <ele>284.8</ele>
        <time>2025-05-29T13:14:46Z</time>
      </trkpt>
      <trkpt lat="44.50842" lon="1.34787">
        <ele>284.8</ele>
        <time>2025-05-29T13:14:47Z</time>
      </trkpt>
      <trkpt lat="44.50843" lon="1.34786">
        <ele>285</ele>
        <time>2025-05-29T13:14:48Z</time>
      </trkpt>
      <trkpt lat="44.50844" lon="1.34785">
        <ele>285</ele>
        <time>2025-05-29T13:14:49Z</time>
      </trkpt>
      <trkpt lat="44.50845" lon="1.34784">
        <ele>285.2</ele>
        <time>2025-05-29T13:14:50Z</time>
      </trkpt>
      <trkpt lat="44.50845" lon="1.34783">
        <ele>285.2</ele>
        <time>2025-05-29T13:14:51Z</time>
      </trkpt>
      <trkpt lat="44.50846" lon="1.34783">
        <ele>285.2</ele>
        <time>2025-05-29T13:14:52Z</time>
      </trkpt>
      <trkpt lat="44.50845" lon="1.34783">
        <ele>285.2</ele>
        <time>2025-05-29T13:14:53Z</time>
      </trkpt>
      <trkpt lat="44.50849" lon="1.3478">
        <ele>285.4</ele>
        <time>2025-05-29T13:15:07Z</time>
      </trkpt>
      <trkpt lat="44.5085" lon="1.34778">
        <ele>285.2</ele>
        <time>2025-05-29T13:15:08Z</time>
      </trkpt>
      <trkpt lat="44.50851" lon="1.34776">
        <ele>285.2</ele>
        <time>2025-05-29T13:15:09Z</time>
      </trkpt>
      <trkpt lat="44.50852" lon="1.34774">
        <ele>285.2</ele>
        <time>2025-05-29T13:15:10Z</time>
      </trkpt>
      <trkpt lat="44.50853" lon="1.34772">
        <ele>285.2</ele>
        <time>2025-05-29T13:15:11Z</time>
      </trkpt>
      <trkpt lat="44.50854" lon="1.3477">
        <ele>285.4</ele>
        <time>2025-05-29T13:15:12Z</time>
      </trkpt>
      <trkpt lat="44.50854" lon="1.34767">
        <ele>285.4</ele>
        <time>2025-05-29T13:15:13Z</time>
      </trkpt>
      <trkpt lat="44.50855" lon="1.34764">
        <ele>285.6</ele>
        <time>2025-05-29T13:15:14Z</time>
      </trkpt>
      <trkpt lat="44.50854" lon="1.34762">
        <ele>285.8</ele>
        <time>2025-05-29T13:15:15Z</time>
      </trkpt>
      <trkpt lat="44.50853" lon="1.3476">
        <ele>285.8</ele>
        <time>2025-05-29T13:15:16Z</time>
      </trkpt>
      <trkpt lat="44.50851" lon="1.34758">
        <ele>286</ele>
        <time>2025-05-29T13:15:17Z</time>
      </trkpt>
      <trkpt lat="44.50849" lon="1.34756">
        <ele>286.2</ele>
        <time>2025-05-29T13:15:18Z</time>
      </trkpt>
      <trkpt lat="44.50848" lon="1.34754">
        <ele>286.4</ele>
        <time>2025-05-29T13:15:19Z</time>
      </trkpt>
      <trkpt lat="44.50847" lon="1.34752">
        <ele>286.8</ele>
        <time>2025-05-29T13:15:20Z</time>
      </trkpt>
      <trkpt lat="44.50847" lon="1.34751">
        <ele>287</ele>
        <time>2025-05-29T13:15:21Z</time>
      </trkpt>
      <trkpt lat="44.50846" lon="1.34749">
        <ele>287.2</ele>
        <time>2025-05-29T13:15:22Z</time>
      </trkpt>
      <trkpt lat="44.50844" lon="1.34746">
        <ele>287.4</ele>
        <time>2025-05-29T13:15:23Z</time>
      </trkpt>
      <trkpt lat="44.50842" lon="1.34744">
        <ele>287.4</ele>
        <time>2025-05-29T13:15:24Z</time>
      </trkpt>
      <trkpt lat="44.50841" lon="1.34742">
        <ele>287.4</ele>
        <time>2025-05-29T13:15:25Z</time>
      </trkpt>
      <trkpt lat="44.50838" lon="1.34741">
        <ele>287.4</ele>
        <time>2025-05-29T13:15:26Z</time>
      </trkpt>
      <trkpt lat="44.50836" lon="1.3474">
        <ele>287.2</ele>
        <time>2025-05-29T13:15:27Z</time>
      </trkpt>
      <trkpt lat="44.50833" lon="1.34739">
        <ele>287.2</ele>
        <time>2025-05-29T13:15:28Z</time>
      </trkpt>
      <trkpt lat="44.50832" lon="1.34737">
        <ele>287.2</ele>
        <time>2025-05-29T13:15:29Z</time>
      </trkpt>
      <trkpt lat="44.50832" lon="1.34735">
        <ele>287</ele>
        <time>2025-05-29T13:15:30Z</time>
      </trkpt>
      <trkpt lat="44.50833" lon="1.34733">
        <ele>287</ele>
        <time>2025-05-29T13:15:31Z</time>
      </trkpt>
      <trkpt lat="44.50834" lon="1.34731">
        <ele>287</ele>
        <time>2025-05-29T13:15:32Z</time>
      </trkpt>
      <trkpt lat="44.50835" lon="1.34727">
        <ele>287</ele>
        <time>2025-05-29T13:15:33Z</time>
      </trkpt>
      <trkpt lat="44.50835" lon="1.34724">
        <ele>287.2</ele>
        <time>2025-05-29T13:15:34Z</time>
      </trkpt>
      <trkpt lat="44.50833" lon="1.34722">
        <ele>287.2</ele>
        <time>2025-05-29T13:15:35Z</time>
      </trkpt>
      <trkpt lat="44.50831" lon="1.34719">
        <ele>287.4</ele>
        <time>2025-05-29T13:15:36Z</time>
      </trkpt>
      <trkpt lat="44.5083" lon="1.34717">
        <ele>287.4</ele>
        <time>2025-05-29T13:15:37Z</time>
      </trkpt>
      <trkpt lat="44.5083" lon="1.34713">
        <ele>287.4</ele>
        <time>2025-05-29T13:15:38Z</time>
      </trkpt>
      <trkpt lat="44.50829" lon="1.3471">
        <ele>287.4</ele>
        <time>2025-05-29T13:15:39Z</time>
      </trkpt>
      <trkpt lat="44.50828" lon="1.34708">
        <ele>287.4</ele>
        <time>2025-05-29T13:15:40Z</time>
      </trkpt>
      <trkpt lat="44.50827" lon="1.34704">
        <ele>287.4</ele>
        <time>2025-05-29T13:15:41Z</time>
      </trkpt>
      <trkpt lat="44.50827" lon="1.34701">
        <ele>287.4</ele>
        <time>2025-05-29T13:15:42Z</time>
      </trkpt>
      <trkpt lat="44.50825" lon="1.34698">
        <ele>287.4</ele>
        <time>2025-05-29T13:15:43Z</time>
      </trkpt>
      <trkpt lat="44.50824" lon="1.34695">
        <ele>287.6</ele>
        <time>2025-05-29T13:15:44Z</time>
      </trkpt>
      <trkpt lat="44.50822" lon="1.34692">
        <ele>287.6</ele>
        <time>2025-05-29T13:15:45Z</time>
      </trkpt>
      <trkpt lat="44.50821" lon="1.3469">
        <ele>287.6</ele>
        <time>2025-05-29T13:15:46Z</time>
      </trkpt>
      <trkpt lat="44.50818" lon="1.3469">
        <ele>287.6</ele>
        <time>2025-05-29T13:15:47Z</time>
      </trkpt>
      <trkpt lat="44.50816" lon="1.3469">
        <ele>287.6</ele>
        <time>2025-05-29T13:15:48Z</time>
      </trkpt>
      <trkpt lat="44.50814" lon="1.34689">
        <ele>287.6</ele>
        <time>2025-05-29T13:15:49Z</time>
      </trkpt>
      <trkpt lat="44.50811" lon="1.34689">
        <ele>287.6</ele>
        <time>2025-05-29T13:15:50Z</time>
      </trkpt>
      <trkpt lat="44.50808" lon="1.34689">
        <ele>287.6</ele>
        <time>2025-05-29T13:15:51Z</time>
      </trkpt>
      <trkpt lat="44.50804" lon="1.34689">
        <ele>287.6</ele>
        <time>2025-05-29T13:15:52Z</time>
      </trkpt>
      <trkpt lat="44.50801" lon="1.34689">
        <ele>287.4</ele>
        <time>2025-05-29T13:15:53Z</time>
      </trkpt>
      <trkpt lat="44.50798" lon="1.34689">
        <ele>287.4</ele>
        <time>2025-05-29T13:15:54Z</time>
      </trkpt>
      <trkpt lat="44.50794" lon="1.34689">
        <ele>287.4</ele>
        <time>2025-05-29T13:15:55Z</time>
      </trkpt>
      <trkpt lat="44.50791" lon="1.3469">
        <ele>287.4</ele>
        <time>2025-05-29T13:15:56Z</time>
      </trkpt>
      <trkpt lat="44.50788" lon="1.3469">
        <ele>287.4</ele>
        <time>2025-05-29T13:15:57Z</time>
      </trkpt>
      <trkpt lat="44.50785" lon="1.3469">
        <ele>287.4</ele>
        <time>2025-05-29T13:15:58Z</time>
      </trkpt>
      <trkpt lat="44.50782" lon="1.34691">
        <ele>287.4</ele>
        <time>2025-05-29T13:15:59Z</time>
      </trkpt>
      <trkpt lat="44.50778" lon="1.34692">
        <ele>287.4</ele>
        <time>2025-05-29T13:16:00Z</time>
      </trkpt>
      <trkpt lat="44.50775" lon="1.34692">
        <ele>287.6</ele>
        <time>2025-05-29T13:16:01Z</time>
      </trkpt>
      <trkpt lat="44.50771" lon="1.34693">
        <ele>287.6</ele>
        <time>2025-05-29T13:16:02Z</time>
      </trkpt>
      <trkpt lat="44.50768" lon="1.34695">
        <ele>287.6</ele>
        <time>2025-05-29T13:16:03Z</time>
      </trkpt>
      <trkpt lat="44.50764" lon="1.34696">
        <ele>287.6</ele>
        <time>2025-05-29T13:16:04Z</time>
      </trkpt>
      <trkpt lat="44.50761" lon="1.34697">
        <ele>287.6</ele>
        <time>2025-05-29T13:16:05Z</time>
      </trkpt>
      <trkpt lat="44.50757" lon="1.34699">
        <ele>287.6</ele>
        <time>2025-05-29T13:16:06Z</time>
      </trkpt>
      <trkpt lat="44.50754" lon="1.347">
        <ele>287.4</ele>
        <time>2025-05-29T13:16:07Z</time>
      </trkpt>
      <trkpt lat="44.50751" lon="1.34702">
        <ele>287.4</ele>
        <time>2025-05-29T13:16:08Z</time>
      </trkpt>
      <trkpt lat="44.50747" lon="1.34704">
        <ele>287.4</ele>
        <time>2025-05-29T13:16:09Z</time>
      </trkpt>
      <trkpt lat="44.50744" lon="1.34706">
        <ele>287.2</ele>
        <time>2025-05-29T13:16:10Z</time>
      </trkpt>
      <trkpt lat="44.5074" lon="1.34708">
        <ele>287.2</ele>
        <time>2025-05-29T13:16:11Z</time>
      </trkpt>
      <trkpt lat="44.50737" lon="1.3471">
        <ele>287</ele>
        <time>2025-05-29T13:16:12Z</time>
      </trkpt>
      <trkpt lat="44.50734" lon="1.34712">
        <ele>287</ele>
        <time>2025-05-29T13:16:13Z</time>
      </trkpt>
      <trkpt lat="44.50731" lon="1.34714">
        <ele>287</ele>
        <time>2025-05-29T13:16:14Z</time>
      </trkpt>
      <trkpt lat="44.50727" lon="1.34716">
        <ele>287</ele>
        <time>2025-05-29T13:16:15Z</time>
      </trkpt>
      <trkpt lat="44.50724" lon="1.34719">
        <ele>286.8</ele>
        <time>2025-05-29T13:16:16Z</time>
      </trkpt>
      <trkpt lat="44.50721" lon="1.34721">
        <ele>286.8</ele>
        <time>2025-05-29T13:16:17Z</time>
      </trkpt>
      <trkpt lat="44.50718" lon="1.34723">
        <ele>286.8</ele>
        <time>2025-05-29T13:16:18Z</time>
      </trkpt>
      <trkpt lat="44.50715" lon="1.34726">
        <ele>286.8</ele>
        <time>2025-05-29T13:16:19Z</time>
      </trkpt>
      <trkpt lat="44.50712" lon="1.34728">
        <ele>286.6</ele>
        <time>2025-05-29T13:16:20Z</time>
      </trkpt>
      <trkpt lat="44.50709" lon="1.34731">
        <ele>286.6</ele>
        <time>2025-05-29T13:16:21Z</time>
      </trkpt>
      <trkpt lat="44.50706" lon="1.34732">
        <ele>286.6</ele>
        <time>2025-05-29T13:16:22Z</time>
      </trkpt>
      <trkpt lat="44.50703" lon="1.34734">
        <ele>286.6</ele>
        <time>2025-05-29T13:16:23Z</time>
      </trkpt>
      <trkpt lat="44.50699" lon="1.34736">
        <ele>286.4</ele>
        <time>2025-05-29T13:16:24Z</time>
      </trkpt>
      <trkpt lat="44.50696" lon="1.34738">
        <ele>286.4</ele>
        <time>2025-05-29T13:16:25Z</time>
      </trkpt>
      <trkpt lat="44.50693" lon="1.34741">
        <ele>286.4</ele>
        <time>2025-05-29T13:16:26Z</time>
      </trkpt>
      <trkpt lat="44.5069" lon="1.34744">
        <ele>286.4</ele>
        <time>2025-05-29T13:16:27Z</time>
      </trkpt>
      <trkpt lat="44.50686" lon="1.34747">
        <ele>286.2</ele>
        <time>2025-05-29T13:16:28Z</time>
      </trkpt>
      <trkpt lat="44.50682" lon="1.34749">
        <ele>286</ele>
        <time>2025-05-29T13:16:29Z</time>
      </trkpt>
      <trkpt lat="44.50678" lon="1.34751">
        <ele>285.8</ele>
        <time>2025-05-29T13:16:30Z</time>
      </trkpt>
      <trkpt lat="44.50674" lon="1.34753">
        <ele>285.8</ele>
        <time>2025-05-29T13:16:31Z</time>
      </trkpt>
      <trkpt lat="44.5067" lon="1.34756">
        <ele>285.6</ele>
        <time>2025-05-29T13:16:32Z</time>
      </trkpt>
      <trkpt lat="44.50666" lon="1.34758">
        <ele>285.4</ele>
        <time>2025-05-29T13:16:33Z</time>
      </trkpt>
      <trkpt lat="44.50662" lon="1.3476">
        <ele>285.4</ele>
        <time>2025-05-29T13:16:34Z</time>
      </trkpt>
      <trkpt lat="44.50658" lon="1.34763">
        <ele>285</ele>
        <time>2025-05-29T13:16:35Z</time>
      </trkpt>
      <trkpt lat="44.50654" lon="1.34765">
        <ele>284.8</ele>
        <time>2025-05-29T13:16:36Z</time>
      </trkpt>
      <trkpt lat="44.5065" lon="1.34768">
        <ele>284.6</ele>
        <time>2025-05-29T13:16:37Z</time>
      </trkpt>
      <trkpt lat="44.50647" lon="1.34771">
        <ele>284.4</ele>
        <time>2025-05-29T13:16:38Z</time>
      </trkpt>
      <trkpt lat="44.50646" lon="1.34775">
        <ele>284.2</ele>
        <time>2025-05-29T13:16:39Z</time>
      </trkpt>
      <trkpt lat="44.50645" lon="1.3478">
        <ele>284</ele>
        <time>2025-05-29T13:16:40Z</time>
      </trkpt>
      <trkpt lat="44.50646" lon="1.34786">
        <ele>284</ele>
        <time>2025-05-29T13:16:41Z</time>
      </trkpt>
      <trkpt lat="44.50646" lon="1.34793">
        <ele>283.6</ele>
        <time>2025-05-29T13:16:42Z</time>
      </trkpt>
      <trkpt lat="44.50644" lon="1.34799">
        <ele>283.4</ele>
        <time>2025-05-29T13:16:43Z</time>
      </trkpt>
      <trkpt lat="44.50641" lon="1.34802">
        <ele>283.2</ele>
        <time>2025-05-29T13:16:44Z</time>
      </trkpt>
      <trkpt lat="44.50637" lon="1.34802">
        <ele>283</ele>
        <time>2025-05-29T13:16:45Z</time>
      </trkpt>
      <trkpt lat="44.50632" lon="1.34803">
        <ele>282.6</ele>
        <time>2025-05-29T13:16:46Z</time>
      </trkpt>
      <trkpt lat="44.50628" lon="1.34803">
        <ele>282.4</ele>
        <time>2025-05-29T13:16:47Z</time>
      </trkpt>
      <trkpt lat="44.50624" lon="1.34801">
        <ele>282.2</ele>
        <time>2025-05-29T13:16:48Z</time>
      </trkpt>
      <trkpt lat="44.50621" lon="1.348">
        <ele>282</ele>
        <time>2025-05-29T13:16:49Z</time>
      </trkpt>
      <trkpt lat="44.50619" lon="1.34802">
        <ele>281.8</ele>
        <time>2025-05-29T13:16:50Z</time>
      </trkpt>
      <trkpt lat="44.50616" lon="1.34805">
        <ele>281.8</ele>
        <time>2025-05-29T13:16:51Z</time>
      </trkpt>
      <trkpt lat="44.50613" lon="1.34807">
        <ele>281.6</ele>
        <time>2025-05-29T13:16:52Z</time>
      </trkpt>
      <trkpt lat="44.5061" lon="1.34809">
        <ele>281.6</ele>
        <time>2025-05-29T13:16:53Z</time>
      </trkpt>
      <trkpt lat="44.50607" lon="1.34812">
        <ele>281.2</ele>
        <time>2025-05-29T13:16:54Z</time>
      </trkpt>
      <trkpt lat="44.50603" lon="1.34814">
        <ele>281</ele>
        <time>2025-05-29T13:16:55Z</time>
      </trkpt>
      <trkpt lat="44.50599" lon="1.34816">
        <ele>280.6</ele>
        <time>2025-05-29T13:16:56Z</time>
      </trkpt>
      <trkpt lat="44.50594" lon="1.34818">
        <ele>280.2</ele>
        <time>2025-05-29T13:16:57Z</time>
      </trkpt>
      <trkpt lat="44.5059" lon="1.34822">
        <ele>279.8</ele>
        <time>2025-05-29T13:16:58Z</time>
      </trkpt>
      <trkpt lat="44.50585" lon="1.34824">
        <ele>279.4</ele>
        <time>2025-05-29T13:16:59Z</time>
      </trkpt>
      <trkpt lat="44.5058" lon="1.34824">
        <ele>279.2</ele>
        <time>2025-05-29T13:17:00Z</time>
      </trkpt>
      <trkpt lat="44.50575" lon="1.34825">
        <ele>278.8</ele>
        <time>2025-05-29T13:17:01Z</time>
      </trkpt>
      <trkpt lat="44.50571" lon="1.34826">
        <ele>278.4</ele>
        <time>2025-05-29T13:17:02Z</time>
      </trkpt>
      <trkpt lat="44.50567" lon="1.34826">
        <ele>278.4</ele>
        <time>2025-05-29T13:17:03Z</time>
      </trkpt>
      <trkpt lat="44.50563" lon="1.34824">
        <ele>278.4</ele>
        <time>2025-05-29T13:17:04Z</time>
      </trkpt>
      <trkpt lat="44.50559" lon="1.34822">
        <ele>278.2</ele>
        <time>2025-05-29T13:17:05Z</time>
      </trkpt>
      <trkpt lat="44.50556" lon="1.34819">
        <ele>278.4</ele>
        <time>2025-05-29T13:17:06Z</time>
      </trkpt>
      <trkpt lat="44.50553" lon="1.34817">
        <ele>278.2</ele>
        <time>2025-05-29T13:17:07Z</time>
      </trkpt>
      <trkpt lat="44.50549" lon="1.34816">
        <ele>278.4</ele>
        <time>2025-05-29T13:17:08Z</time>
      </trkpt>
      <trkpt lat="44.50546" lon="1.34818">
        <ele>278.4</ele>
        <time>2025-05-29T13:17:09Z</time>
      </trkpt>
      <trkpt lat="44.50542" lon="1.3482">
        <ele>278.4</ele>
        <time>2025-05-29T13:17:10Z</time>
      </trkpt>
      <trkpt lat="44.50538" lon="1.34822">
        <ele>278.2</ele>
        <time>2025-05-29T13:17:11Z</time>
      </trkpt>
      <trkpt lat="44.50534" lon="1.34823">
        <ele>278.2</ele>
        <time>2025-05-29T13:17:12Z</time>
      </trkpt>
      <trkpt lat="44.5053" lon="1.34826">
        <ele>278.2</ele>
        <time>2025-05-29T13:17:13Z</time>
      </trkpt>
      <trkpt lat="44.50525" lon="1.34827">
        <ele>277.8</ele>
        <time>2025-05-29T13:17:14Z</time>
      </trkpt>
      <trkpt lat="44.5052" lon="1.34828">
        <ele>277.8</ele>
        <time>2025-05-29T13:17:15Z</time>
      </trkpt>
      <trkpt lat="44.50516" lon="1.3483">
        <ele>277.6</ele>
        <time>2025-05-29T13:17:16Z</time>
      </trkpt>
      <trkpt lat="44.50511" lon="1.3483">
        <ele>277.4</ele>
        <time>2025-05-29T13:17:17Z</time>
      </trkpt>
      <trkpt lat="44.50506" lon="1.34831">
        <ele>277.2</ele>
        <time>2025-05-29T13:17:18Z</time>
      </trkpt>
      <trkpt lat="44.50502" lon="1.34833">
        <ele>277.2</ele>
        <time>2025-05-29T13:17:19Z</time>
      </trkpt>
      <trkpt lat="44.50497" lon="1.34834">
        <ele>277.2</ele>
        <time>2025-05-29T13:17:20Z</time>
      </trkpt>
      <trkpt lat="44.50492" lon="1.34835">
        <ele>277.2</ele>
        <time>2025-05-29T13:17:21Z</time>
      </trkpt>
      <trkpt lat="44.50488" lon="1.34835">
        <ele>277.2</ele>
        <time>2025-05-29T13:17:22Z</time>
      </trkpt>
      <trkpt lat="44.50483" lon="1.34835">
        <ele>277</ele>
        <time>2025-05-29T13:17:23Z</time>
      </trkpt>
      <trkpt lat="44.50479" lon="1.34836">
        <ele>277</ele>
        <time>2025-05-29T13:17:24Z</time>
      </trkpt>
      <trkpt lat="44.50474" lon="1.34836">
        <ele>277</ele>
        <time>2025-05-29T13:17:25Z</time>
      </trkpt>
      <trkpt lat="44.5047" lon="1.34836">
        <ele>277</ele>
        <time>2025-05-29T13:17:26Z</time>
      </trkpt>
      <trkpt lat="44.50466" lon="1.34836">
        <ele>277</ele>
        <time>2025-05-29T13:17:27Z</time>
      </trkpt>
      <trkpt lat="44.50462" lon="1.34836">
        <ele>277.2</ele>
        <time>2025-05-29T13:17:28Z</time>
      </trkpt>
      <trkpt lat="44.50458" lon="1.34836">
        <ele>277.2</ele>
        <time>2025-05-29T13:17:29Z</time>
      </trkpt>
      <trkpt lat="44.50455" lon="1.34836">
        <ele>277.2</ele>
        <time>2025-05-29T13:17:30Z</time>
      </trkpt>
      <trkpt lat="44.50451" lon="1.34837">
        <ele>277.2</ele>
        <time>2025-05-29T13:17:31Z</time>
      </trkpt>
      <trkpt lat="44.50447" lon="1.34838">
        <ele>277.2</ele>
        <time>2025-05-29T13:17:32Z</time>
      </trkpt>
      <trkpt lat="44.50443" lon="1.34839">
        <ele>277.2</ele>
        <time>2025-05-29T13:17:33Z</time>
      </trkpt>
      <trkpt lat="44.50439" lon="1.34839">
        <ele>277.2</ele>
        <time>2025-05-29T13:17:34Z</time>
      </trkpt>
      <trkpt lat="44.50435" lon="1.34839">
        <ele>277.2</ele>
        <time>2025-05-29T13:17:35Z</time>
      </trkpt>
      <trkpt lat="44.50431" lon="1.34839">
        <ele>277.2</ele>
        <time>2025-05-29T13:17:36Z</time>
      </trkpt>
      <trkpt lat="44.50427" lon="1.3484">
        <ele>277.4</ele>
        <time>2025-05-29T13:17:37Z</time>
      </trkpt>
      <trkpt lat="44.50424" lon="1.34842">
        <ele>277.2</ele>
        <time>2025-05-29T13:17:38Z</time>
      </trkpt>
      <trkpt lat="44.5042" lon="1.34842">
        <ele>277.2</ele>
        <time>2025-05-29T13:17:39Z</time>
      </trkpt>
      <trkpt lat="44.50417" lon="1.34841">
        <ele>277.4</ele>
        <time>2025-05-29T13:17:40Z</time>
      </trkpt>
      <trkpt lat="44.50413" lon="1.3484">
        <ele>277.4</ele>
        <time>2025-05-29T13:17:41Z</time>
      </trkpt>
      <trkpt lat="44.50409" lon="1.34839">
        <ele>277.4</ele>
        <time>2025-05-29T13:17:42Z</time>
      </trkpt>
      <trkpt lat="44.50405" lon="1.34837">
        <ele>277.4</ele>
        <time>2025-05-29T13:17:43Z</time>
      </trkpt>
      <trkpt lat="44.50401" lon="1.34837">
        <ele>277.4</ele>
        <time>2025-05-29T13:17:44Z</time>
      </trkpt>
      <trkpt lat="44.50397" lon="1.34837">
        <ele>277.4</ele>
        <time>2025-05-29T13:17:45Z</time>
      </trkpt>
      <trkpt lat="44.50394" lon="1.34838">
        <ele>277.4</ele>
        <time>2025-05-29T13:17:46Z</time>
      </trkpt>
      <trkpt lat="44.5039" lon="1.34839">
        <ele>277.4</ele>
        <time>2025-05-29T13:17:47Z</time>
      </trkpt>
      <trkpt lat="44.50386" lon="1.34839">
        <ele>277.4</ele>
        <time>2025-05-29T13:17:48Z</time>
      </trkpt>
      <trkpt lat="44.50382" lon="1.3484">
        <ele>277.4</ele>
        <time>2025-05-29T13:17:49Z</time>
      </trkpt>
      <trkpt lat="44.50379" lon="1.34844">
        <ele>277.4</ele>
        <time>2025-05-29T13:17:50Z</time>
      </trkpt>
      <trkpt lat="44.50375" lon="1.34846">
        <ele>277.6</ele>
        <time>2025-05-29T13:17:51Z</time>
      </trkpt>
      <trkpt lat="44.5037" lon="1.34845">
        <ele>277.6</ele>
        <time>2025-05-29T13:17:52Z</time>
      </trkpt>
      <trkpt lat="44.50367" lon="1.34842">
        <ele>277.6</ele>
        <time>2025-05-29T13:17:53Z</time>
      </trkpt>
      <trkpt lat="44.50362" lon="1.34841">
        <ele>277.6</ele>
        <time>2025-05-29T13:17:54Z</time>
      </trkpt>
      <trkpt lat="44.50359" lon="1.34843">
        <ele>277.4</ele>
        <time>2025-05-29T13:17:55Z</time>
      </trkpt>
      <trkpt lat="44.50357" lon="1.34847">
        <ele>277.4</ele>
        <time>2025-05-29T13:17:56Z</time>
      </trkpt>
      <trkpt lat="44.50356" lon="1.34852">
        <ele>277.2</ele>
        <time>2025-05-29T13:17:57Z</time>
      </trkpt>
      <trkpt lat="44.50353" lon="1.34856">
        <ele>277.2</ele>
        <time>2025-05-29T13:17:58Z</time>
      </trkpt>
      <trkpt lat="44.5035" lon="1.34856">
        <ele>277.4</ele>
        <time>2025-05-29T13:17:59Z</time>
      </trkpt>
      <trkpt lat="44.50347" lon="1.34855">
        <ele>277.4</ele>
        <time>2025-05-29T13:18:00Z</time>
      </trkpt>
      <trkpt lat="44.50343" lon="1.34858">
        <ele>277.4</ele>
        <time>2025-05-29T13:18:01Z</time>
      </trkpt>
      <trkpt lat="44.5034" lon="1.34861">
        <ele>277.4</ele>
        <time>2025-05-29T13:18:02Z</time>
      </trkpt>
      <trkpt lat="44.50337" lon="1.34865">
        <ele>277.4</ele>
        <time>2025-05-29T13:18:03Z</time>
      </trkpt>
      <trkpt lat="44.50334" lon="1.34869">
        <ele>277.2</ele>
        <time>2025-05-29T13:18:04Z</time>
      </trkpt>
      <trkpt lat="44.50331" lon="1.34873">
        <ele>277</ele>
        <time>2025-05-29T13:18:05Z</time>
      </trkpt>
      <trkpt lat="44.50328" lon="1.34876">
        <ele>277</ele>
        <time>2025-05-29T13:18:06Z</time>
      </trkpt>
      <trkpt lat="44.50324" lon="1.34879">
        <ele>276.8</ele>
        <time>2025-05-29T13:18:07Z</time>
      </trkpt>
      <trkpt lat="44.50321" lon="1.34883">
        <ele>276.6</ele>
        <time>2025-05-29T13:18:08Z</time>
      </trkpt>
      <trkpt lat="44.50318" lon="1.34885">
        <ele>275.4</ele>
      </trkpt>
      <trkpt lat="44.50314" lon="1.34888">
        <ele>275.3</ele>
      </trkpt>
      <trkpt lat="44.50309" lon="1.34889">
        <ele>275.1</ele>
      </trkpt>
      <trkpt lat="44.50305" lon="1.3489">
        <ele>275</ele>
      </trkpt>
      <trkpt lat="44.50301" lon="1.34892">
        <ele>274.7</ele>
      </trkpt>
      <trkpt lat="44.50296" lon="1.34892">
        <ele>274.3</ele>
      </trkpt>
      <trkpt lat="44.5029" lon="1.34892">
        <ele>273.9</ele>
      </trkpt>
      <trkpt lat="44.50286" lon="1.34891">
        <ele>273.6</ele>
      </trkpt>
      <trkpt lat="44.50283" lon="1.34892">
        <ele>273.4</ele>
      </trkpt>
      <trkpt lat="44.5028" lon="1.34893">
        <ele>273.1</ele>
      </trkpt>
      <trkpt lat="44.50276" lon="1.34892">
        <ele>272.9</ele>
      </trkpt>
      <trkpt lat="44.50276" lon="1.34898">
        <ele>272.8</ele>
      </trkpt>
      <trkpt lat="44.50276" lon="1.34899">
        <ele>273.8</ele>
        <time>2025-05-29T13:21:42Z</time>
      </trkpt>
      <trkpt lat="44.50275" lon="1.34902">
        <ele>273.8</ele>
        <time>2025-05-29T13:21:43Z</time>
      </trkpt>
      <trkpt lat="44.50274" lon="1.34906">
        <ele>273.6</ele>
        <time>2025-05-29T13:21:44Z</time>
      </trkpt>
      <trkpt lat="44.50273" lon="1.3491">
        <ele>273.4</ele>
        <time>2025-05-29T13:21:45Z</time>
      </trkpt>
      <trkpt lat="44.50272" lon="1.34916">
        <ele>273.2</ele>
        <time>2025-05-29T13:21:46Z</time>
      </trkpt>
      <trkpt lat="44.50271" lon="1.34922">
        <ele>272.8</ele>
        <time>2025-05-29T13:21:47Z</time>
      </trkpt>
      <trkpt lat="44.50271" lon="1.34929">
        <ele>272.6</ele>
        <time>2025-05-29T13:21:48Z</time>
      </trkpt>
      <trkpt lat="44.50273" lon="1.34935">
        <ele>272.4</ele>
        <time>2025-05-29T13:21:49Z</time>
      </trkpt>
      <trkpt lat="44.50276" lon="1.3494">
        <ele>272.2</ele>
        <time>2025-05-29T13:21:50Z</time>
      </trkpt>
      <trkpt lat="44.50277" lon="1.34945">
        <ele>272.2</ele>
        <time>2025-05-29T13:21:51Z</time>
      </trkpt>
      <trkpt lat="44.50278" lon="1.3495">
        <ele>272.2</ele>
        <time>2025-05-29T13:21:52Z</time>
      </trkpt>
      <trkpt lat="44.50281" lon="1.34956">
        <ele>272.2</ele>
        <time>2025-05-29T13:21:53Z</time>
      </trkpt>
      <trkpt lat="44.50283" lon="1.3496">
        <ele>272.2</ele>
        <time>2025-05-29T13:21:54Z</time>
      </trkpt>
      <trkpt lat="44.50287" lon="1.34965">
        <ele>272</ele>
        <time>2025-05-29T13:21:55Z</time>
      </trkpt>
      <trkpt lat="44.50289" lon="1.34969">
        <ele>271.8</ele>
        <time>2025-05-29T13:21:56Z</time>
      </trkpt>
      <trkpt lat="44.5029" lon="1.34973">
        <ele>271.8</ele>
        <time>2025-05-29T13:21:57Z</time>
      </trkpt>
      <trkpt lat="44.5029" lon="1.34976">
        <ele>271.6</ele>
        <time>2025-05-29T13:21:58Z</time>
      </trkpt>
      <trkpt lat="44.5029" lon="1.34979">
        <ele>271.6</ele>
        <time>2025-05-29T13:21:59Z</time>
      </trkpt>
      <trkpt lat="44.5029" lon="1.34982">
        <ele>271.6</ele>
        <time>2025-05-29T13:22:00Z</time>
      </trkpt>
      <trkpt lat="44.50289" lon="1.34984">
        <ele>271.4</ele>
        <time>2025-05-29T13:22:01Z</time>
      </trkpt>
      <trkpt lat="44.50288" lon="1.34988">
        <ele>271.2</ele>
        <time>2025-05-29T13:22:02Z</time>
      </trkpt>
      <trkpt lat="44.50286" lon="1.34993">
        <ele>270.8</ele>
        <time>2025-05-29T13:22:03Z</time>
      </trkpt>
      <trkpt lat="44.50283" lon="1.34998">
        <ele>270.6</ele>
        <time>2025-05-29T13:22:04Z</time>
      </trkpt>
      <trkpt lat="44.50279" lon="1.35004">
        <ele>270</ele>
        <time>2025-05-29T13:22:05Z</time>
      </trkpt>
      <trkpt lat="44.50277" lon="1.35011">
        <ele>269.6</ele>
        <time>2025-05-29T13:22:06Z</time>
      </trkpt>
      <trkpt lat="44.50275" lon="1.35019">
        <ele>269</ele>
        <time>2025-05-29T13:22:07Z</time>
      </trkpt>
      <trkpt lat="44.50273" lon="1.35026">
        <ele>267.8</ele>
        <time>2025-05-29T13:22:08Z</time>
      </trkpt>
      <trkpt lat="44.5027" lon="1.35031">
        <ele>266.6</ele>
        <time>2025-05-29T13:22:09Z</time>
      </trkpt>
      <trkpt lat="44.50266" lon="1.35034">
        <ele>265.6</ele>
        <time>2025-05-29T13:22:10Z</time>
      </trkpt>
      <trkpt lat="44.50261" lon="1.35036">
        <ele>264.8</ele>
        <time>2025-05-29T13:22:11Z</time>
      </trkpt>
      <trkpt lat="44.5026" lon="1.3504">
        <ele>264.4</ele>
        <time>2025-05-29T13:22:12Z</time>
      </trkpt>
      <trkpt lat="44.50259" lon="1.35046">
        <ele>264</ele>
        <time>2025-05-29T13:22:13Z</time>
      </trkpt>
      <trkpt lat="44.50259" lon="1.35051">
        <ele>263.4</ele>
        <time>2025-05-29T13:22:14Z</time>
      </trkpt>
      <trkpt lat="44.50257" lon="1.35055">
        <ele>262.8</ele>
        <time>2025-05-29T13:22:15Z</time>
      </trkpt>
      <trkpt lat="44.50254" lon="1.35057">
        <ele>262.2</ele>
        <time>2025-05-29T13:22:16Z</time>
      </trkpt>
      <trkpt lat="44.50249" lon="1.3506">
        <ele>261.4</ele>
        <time>2025-05-29T13:22:17Z</time>
      </trkpt>
      <trkpt lat="44.50244" lon="1.3506">
        <ele>260.8</ele>
        <time>2025-05-29T13:22:18Z</time>
      </trkpt>
      <trkpt lat="44.50239" lon="1.3506">
        <ele>259.6</ele>
        <time>2025-05-29T13:22:19Z</time>
      </trkpt>
      <trkpt lat="44.50234" lon="1.35059">
        <ele>258.6</ele>
        <time>2025-05-29T13:22:20Z</time>
      </trkpt>
      <trkpt lat="44.50232" lon="1.35058">
        <ele>258</ele>
        <time>2025-05-29T13:22:21Z</time>
      </trkpt>
      <trkpt lat="44.50229" lon="1.35058">
        <ele>257.4</ele>
        <time>2025-05-29T13:22:22Z</time>
      </trkpt>
      <trkpt lat="44.50226" lon="1.35058">
        <ele>257.2</ele>
        <time>2025-05-29T13:22:23Z</time>
      </trkpt>
      <trkpt lat="44.50221" lon="1.35057">
        <ele>256.8</ele>
        <time>2025-05-29T13:22:24Z</time>
      </trkpt>
      <trkpt lat="44.50217" lon="1.35056">
        <ele>256.4</ele>
        <time>2025-05-29T13:22:25Z</time>
      </trkpt>
      <trkpt lat="44.50212" lon="1.35058">
        <ele>255.8</ele>
        <time>2025-05-29T13:22:26Z</time>
      </trkpt>
      <trkpt lat="44.50208" lon="1.35058">
        <ele>255.4</ele>
        <time>2025-05-29T13:22:27Z</time>
      </trkpt>
      <trkpt lat="44.50204" lon="1.35058">
        <ele>254.8</ele>
        <time>2025-05-29T13:22:28Z</time>
      </trkpt>
      <trkpt lat="44.50199" lon="1.3506">
        <ele>254</ele>
        <time>2025-05-29T13:22:29Z</time>
      </trkpt>
      <trkpt lat="44.50197" lon="1.3506">
        <ele>253.6</ele>
        <time>2025-05-29T13:22:30Z</time>
      </trkpt>
      <trkpt lat="44.50194" lon="1.35059">
        <ele>253.4</ele>
        <time>2025-05-29T13:22:31Z</time>
      </trkpt>
      <trkpt lat="44.50191" lon="1.35059">
        <ele>253</ele>
        <time>2025-05-29T13:22:32Z</time>
      </trkpt>
      <trkpt lat="44.50188" lon="1.3506">
        <ele>252.8</ele>
        <time>2025-05-29T13:22:33Z</time>
      </trkpt>
      <trkpt lat="44.50185" lon="1.3506">
        <ele>252.6</ele>
        <time>2025-05-29T13:22:34Z</time>
      </trkpt>
      <trkpt lat="44.50181" lon="1.35059">
        <ele>252.4</ele>
        <time>2025-05-29T13:22:35Z</time>
      </trkpt>
      <trkpt lat="44.50177" lon="1.35059">
        <ele>252.4</ele>
        <time>2025-05-29T13:22:36Z</time>
      </trkpt>
      <trkpt lat="44.50172" lon="1.35058">
        <ele>252.2</ele>
        <time>2025-05-29T13:22:37Z</time>
      </trkpt>
      <trkpt lat="44.50168" lon="1.35058">
        <ele>252</ele>
        <time>2025-05-29T13:22:38Z</time>
      </trkpt>
      <trkpt lat="44.50163" lon="1.35058">
        <ele>251.8</ele>
        <time>2025-05-29T13:22:39Z</time>
      </trkpt>
      <trkpt lat="44.50158" lon="1.35057">
        <ele>251.4</ele>
        <time>2025-05-29T13:22:40Z</time>
      </trkpt>
      <trkpt lat="44.50154" lon="1.35056">
        <ele>251.2</ele>
        <time>2025-05-29T13:22:41Z</time>
      </trkpt>
      <trkpt lat="44.50153" lon="1.35056">
        <ele>251</ele>
        <time>2025-05-29T13:22:42Z</time>
      </trkpt>
      <trkpt lat="44.50153" lon="1.35056">
        <ele>250.8</ele>
        <time>2025-05-29T13:22:43Z</time>
      </trkpt>
      <trkpt lat="44.50152" lon="1.35055">
        <ele>250.6</ele>
        <time>2025-05-29T13:23:04Z</time>
      </trkpt>
      <trkpt lat="44.50153" lon="1.35053">
        <ele>250.6</ele>
        <time>2025-05-29T13:23:05Z</time>
      </trkpt>
      <trkpt lat="44.50154" lon="1.35051">
        <ele>250.6</ele>
        <time>2025-05-29T13:23:06Z</time>
      </trkpt>
      <trkpt lat="44.50156" lon="1.3505">
        <ele>250.8</ele>
        <time>2025-05-29T13:23:07Z</time>
      </trkpt>
      <trkpt lat="44.50157" lon="1.35047">
        <ele>250.8</ele>
        <time>2025-05-29T13:23:08Z</time>
      </trkpt>
      <trkpt lat="44.50158" lon="1.35045">
        <ele>251.2</ele>
        <time>2025-05-29T13:23:09Z</time>
      </trkpt>
      <trkpt lat="44.50159" lon="1.35042">
        <ele>251.4</ele>
        <time>2025-05-29T13:23:10Z</time>
      </trkpt>
      <trkpt lat="44.50159" lon="1.35039">
        <ele>251.8</ele>
        <time>2025-05-29T13:23:11Z</time>
      </trkpt>
      <trkpt lat="44.50158" lon="1.35036">
        <ele>252.2</ele>
        <time>2025-05-29T13:23:12Z</time>
      </trkpt>
      <trkpt lat="44.50157" lon="1.35035">
        <ele>252.6</ele>
        <time>2025-05-29T13:23:13Z</time>
      </trkpt>
      <trkpt lat="44.50155" lon="1.35034">
        <ele>252.8</ele>
        <time>2025-05-29T13:23:14Z</time>
      </trkpt>
      <trkpt lat="44.50153" lon="1.35035">
        <ele>252.8</ele>
        <time>2025-05-29T13:23:15Z</time>
      </trkpt>
      <trkpt lat="44.50151" lon="1.35036">
        <ele>253</ele>
        <time>2025-05-29T13:23:16Z</time>
      </trkpt>
      <trkpt lat="44.50148" lon="1.35038">
        <ele>253</ele>
        <time>2025-05-29T13:23:17Z</time>
      </trkpt>
      <trkpt lat="44.50144" lon="1.35042">
        <ele>252.6</ele>
        <time>2025-05-29T13:23:18Z</time>
      </trkpt>
      <trkpt lat="44.5014" lon="1.35045">
        <ele>252.4</ele>
        <time>2025-05-29T13:23:19Z</time>
      </trkpt>
      <trkpt lat="44.50137" lon="1.35047">
        <ele>252</ele>
        <time>2025-05-29T13:23:20Z</time>
      </trkpt>
      <trkpt lat="44.50133" lon="1.35049">
        <ele>251.6</ele>
        <time>2025-05-29T13:23:21Z</time>
      </trkpt>
      <trkpt lat="44.5013" lon="1.35048">
        <ele>251</ele>
        <time>2025-05-29T13:23:22Z</time>
      </trkpt>
      <trkpt lat="44.50127" lon="1.35047">
        <ele>250.8</ele>
        <time>2025-05-29T13:23:23Z</time>
      </trkpt>
      <trkpt lat="44.50124" lon="1.35046">
        <ele>250.8</ele>
        <time>2025-05-29T13:23:24Z</time>
      </trkpt>
      <trkpt lat="44.5012" lon="1.35045">
        <ele>250.8</ele>
        <time>2025-05-29T13:23:25Z</time>
      </trkpt>
      <trkpt lat="44.50117" lon="1.35046">
        <ele>250.6</ele>
        <time>2025-05-29T13:23:26Z</time>
      </trkpt>
      <trkpt lat="44.50114" lon="1.35047">
        <ele>250.6</ele>
        <time>2025-05-29T13:23:27Z</time>
      </trkpt>
      <trkpt lat="44.5011" lon="1.35049">
        <ele>250.4</ele>
        <time>2025-05-29T13:23:28Z</time>
      </trkpt>
      <trkpt lat="44.50107" lon="1.35053">
        <ele>250</ele>
        <time>2025-05-29T13:23:29Z</time>
      </trkpt>
      <trkpt lat="44.50104" lon="1.35057">
        <ele>249.6</ele>
        <time>2025-05-29T13:23:30Z</time>
      </trkpt>
      <trkpt lat="44.50099" lon="1.35058">
        <ele>249.2</ele>
        <time>2025-05-29T13:23:31Z</time>
      </trkpt>
      <trkpt lat="44.50095" lon="1.35057">
        <ele>248.6</ele>
        <time>2025-05-29T13:23:32Z</time>
      </trkpt>
      <trkpt lat="44.50092" lon="1.35055">
        <ele>248.2</ele>
        <time>2025-05-29T13:23:33Z</time>
      </trkpt>
      <trkpt lat="44.50089" lon="1.35053">
        <ele>247.8</ele>
        <time>2025-05-29T13:23:34Z</time>
      </trkpt>
      <trkpt lat="44.50086" lon="1.35049">
        <ele>247.4</ele>
        <time>2025-05-29T13:23:35Z</time>
      </trkpt>
      <trkpt lat="44.50083" lon="1.35046">
        <ele>247.2</ele>
        <time>2025-05-29T13:23:36Z</time>
      </trkpt>
      <trkpt lat="44.50081" lon="1.35042">
        <ele>247</ele>
        <time>2025-05-29T13:23:37Z</time>
      </trkpt>
      <trkpt lat="44.50079" lon="1.3504">
        <ele>246.6</ele>
        <time>2025-05-29T13:23:38Z</time>
      </trkpt>
      <trkpt lat="44.50077" lon="1.35039">
        <ele>246.4</ele>
        <time>2025-05-29T13:23:39Z</time>
      </trkpt>
      <trkpt lat="44.50075" lon="1.3504">
        <ele>246.4</ele>
        <time>2025-05-29T13:23:40Z</time>
      </trkpt>
      <trkpt lat="44.50074" lon="1.3504">
        <ele>246.2</ele>
        <time>2025-05-29T13:23:41Z</time>
      </trkpt>
      <trkpt lat="44.50073" lon="1.3504">
        <ele>245.8</ele>
        <time>2025-05-29T13:23:42Z</time>
      </trkpt>
      <trkpt lat="44.50073" lon="1.3504">
        <ele>245.8</ele>
        <time>2025-05-29T13:23:43Z</time>
      </trkpt>
      <trkpt lat="44.50081" lon="1.35052">
        <ele>245.4</ele>
        <time>2025-05-29T13:24:02Z</time>
      </trkpt>
      <trkpt lat="44.50081" lon="1.35055">
        <ele>245.4</ele>
        <time>2025-05-29T13:24:03Z</time>
      </trkpt>
      <trkpt lat="44.50081" lon="1.35058">
        <ele>245.4</ele>
        <time>2025-05-29T13:24:04Z</time>
      </trkpt>
      <trkpt lat="44.50082" lon="1.35062">
        <ele>245.2</ele>
        <time>2025-05-29T13:24:05Z</time>
      </trkpt>
      <trkpt lat="44.50083" lon="1.35065">
        <ele>245.4</ele>
        <time>2025-05-29T13:24:06Z</time>
      </trkpt>
      <trkpt lat="44.50084" lon="1.35068">
        <ele>245.6</ele>
        <time>2025-05-29T13:24:07Z</time>
      </trkpt>
      <trkpt lat="44.50083" lon="1.3507">
        <ele>245.8</ele>
        <time>2025-05-29T13:24:08Z</time>
      </trkpt>
      <trkpt lat="44.50081" lon="1.35072">
        <ele>246</ele>
        <time>2025-05-29T13:24:09Z</time>
      </trkpt>
      <trkpt lat="44.50079" lon="1.35076">
        <ele>245.8</ele>
        <time>2025-05-29T13:24:10Z</time>
      </trkpt>
      <trkpt lat="44.50076" lon="1.35081">
        <ele>245.4</ele>
        <time>2025-05-29T13:24:11Z</time>
      </trkpt>
      <trkpt lat="44.50075" lon="1.35087">
        <ele>244.6</ele>
        <time>2025-05-29T13:24:12Z</time>
      </trkpt>
      <trkpt lat="44.50071" lon="1.35092">
        <ele>243.8</ele>
        <time>2025-05-29T13:24:13Z</time>
      </trkpt>
      <trkpt lat="44.50067" lon="1.35095">
        <ele>242.6</ele>
        <time>2025-05-29T13:24:14Z</time>
      </trkpt>
      <trkpt lat="44.50062" lon="1.35097">
        <ele>242</ele>
        <time>2025-05-29T13:24:15Z</time>
      </trkpt>
      <trkpt lat="44.50058" lon="1.35099">
        <ele>241.6</ele>
        <time>2025-05-29T13:24:16Z</time>
      </trkpt>
      <trkpt lat="44.50053" lon="1.35101">
        <ele>241.4</ele>
        <time>2025-05-29T13:24:17Z</time>
      </trkpt>
      <trkpt lat="44.5005" lon="1.35104">
        <ele>241.2</ele>
        <time>2025-05-29T13:24:18Z</time>
      </trkpt>
      <trkpt lat="44.50046" lon="1.35105">
        <ele>241.2</ele>
        <time>2025-05-29T13:24:19Z</time>
      </trkpt>
      <trkpt lat="44.50043" lon="1.35106">
        <ele>241.4</ele>
        <time>2025-05-29T13:24:20Z</time>
      </trkpt>
      <trkpt lat="44.50041" lon="1.35107">
        <ele>241.4</ele>
        <time>2025-05-29T13:24:21Z</time>
      </trkpt>
      <trkpt lat="44.50039" lon="1.35108">
        <ele>241.6</ele>
        <time>2025-05-29T13:24:22Z</time>
      </trkpt>
      <trkpt lat="44.50036" lon="1.35108">
        <ele>242</ele>
        <time>2025-05-29T13:24:23Z</time>
      </trkpt>
      <trkpt lat="44.50034" lon="1.35106">
        <ele>242</ele>
        <time>2025-05-29T13:24:24Z</time>
      </trkpt>
      <trkpt lat="44.50032" lon="1.35105">
        <ele>242.2</ele>
        <time>2025-05-29T13:24:25Z</time>
      </trkpt>
      <trkpt lat="44.5003" lon="1.35104">
        <ele>242.4</ele>
        <time>2025-05-29T13:24:26Z</time>
      </trkpt>
      <trkpt lat="44.50028" lon="1.35102">
        <ele>242.6</ele>
        <time>2025-05-29T13:24:27Z</time>
      </trkpt>
      <trkpt lat="44.50026" lon="1.35102">
        <ele>242.6</ele>
        <time>2025-05-29T13:24:28Z</time>
      </trkpt>
      <trkpt lat="44.50024" lon="1.35101">
        <ele>242.8</ele>
        <time>2025-05-29T13:24:29Z</time>
      </trkpt>
      <trkpt lat="44.50021" lon="1.35101">
        <ele>243.2</ele>
        <time>2025-05-29T13:24:30Z</time>
      </trkpt>
      <trkpt lat="44.5002" lon="1.35101">
        <ele>243.4</ele>
        <time>2025-05-29T13:24:31Z</time>
      </trkpt>
      <trkpt lat="44.50018" lon="1.35101">
        <ele>243.6</ele>
        <time>2025-05-29T13:24:32Z</time>
      </trkpt>
      <trkpt lat="44.50015" lon="1.35102">
        <ele>243.8</ele>
        <time>2025-05-29T13:24:33Z</time>
      </trkpt>
      <trkpt lat="44.50013" lon="1.35103">
        <ele>244</ele>
        <time>2025-05-29T13:24:34Z</time>
      </trkpt>
      <trkpt lat="44.50011" lon="1.35103">
        <ele>244.2</ele>
        <time>2025-05-29T13:24:35Z</time>
      </trkpt>
      <trkpt lat="44.50009" lon="1.35102">
        <ele>244.2</ele>
        <time>2025-05-29T13:24:36Z</time>
      </trkpt>
      <trkpt lat="44.50008" lon="1.35101">
        <ele>244.4</ele>
        <time>2025-05-29T13:24:37Z</time>
      </trkpt>
      <trkpt lat="44.50006" lon="1.351">
        <ele>244.4</ele>
        <time>2025-05-29T13:24:38Z</time>
      </trkpt>
      <trkpt lat="44.50004" lon="1.35099">
        <ele>244.6</ele>
        <time>2025-05-29T13:24:39Z</time>
      </trkpt>
      <trkpt lat="44.50002" lon="1.351">
        <ele>244.6</ele>
        <time>2025-05-29T13:24:40Z</time>
      </trkpt>
      <trkpt lat="44.5" lon="1.35101">
        <ele>244.8</ele>
        <time>2025-05-29T13:24:41Z</time>
      </trkpt>
      <trkpt lat="44.49998" lon="1.35102">
        <ele>244.8</ele>
        <time>2025-05-29T13:24:42Z</time>
      </trkpt>
      <trkpt lat="44.49996" lon="1.35103">
        <ele>244.8</ele>
        <time>2025-05-29T13:24:43Z</time>
      </trkpt>
      <trkpt lat="44.49994" lon="1.35105">
        <ele>245</ele>
        <time>2025-05-29T13:24:44Z</time>
      </trkpt>
      <trkpt lat="44.49991" lon="1.35107">
        <ele>245</ele>
        <time>2025-05-29T13:24:45Z</time>
      </trkpt>
      <trkpt lat="44.49989" lon="1.35107">
        <ele>245</ele>
        <time>2025-05-29T13:24:46Z</time>
      </trkpt>
      <trkpt lat="44.49986" lon="1.35107">
        <ele>245</ele>
        <time>2025-05-29T13:24:47Z</time>
      </trkpt>
      <trkpt lat="44.49985" lon="1.35108">
        <ele>245.2</ele>
        <time>2025-05-29T13:24:48Z</time>
      </trkpt>
      <trkpt lat="44.49982" lon="1.35109">
        <ele>245.2</ele>
        <time>2025-05-29T13:24:49Z</time>
      </trkpt>
      <trkpt lat="44.4998" lon="1.3511">
        <ele>245.2</ele>
        <time>2025-05-29T13:24:50Z</time>
      </trkpt>
      <trkpt lat="44.49977" lon="1.35111">
        <ele>245.4</ele>
        <time>2025-05-29T13:24:51Z</time>
      </trkpt>
      <trkpt lat="44.49975" lon="1.35112">
        <ele>245.4</ele>
        <time>2025-05-29T13:24:52Z</time>
      </trkpt>
      <trkpt lat="44.49972" lon="1.35112">
        <ele>245.4</ele>
        <time>2025-05-29T13:24:53Z</time>
      </trkpt>
      <trkpt lat="44.4997" lon="1.35113">
        <ele>245.6</ele>
        <time>2025-05-29T13:24:54Z</time>
      </trkpt>
      <trkpt lat="44.49967" lon="1.35115">
        <ele>245.8</ele>
        <time>2025-05-29T13:24:55Z</time>
      </trkpt>
      <trkpt lat="44.49965" lon="1.35117">
        <ele>245.8</ele>
        <time>2025-05-29T13:24:56Z</time>
      </trkpt>
      <trkpt lat="44.49962" lon="1.35118">
        <ele>245.8</ele>
        <time>2025-05-29T13:24:57Z</time>
      </trkpt>
      <trkpt lat="44.4996" lon="1.35119">
        <ele>246</ele>
        <time>2025-05-29T13:24:58Z</time>
      </trkpt>
      <trkpt lat="44.49958" lon="1.35121">
        <ele>246</ele>
        <time>2025-05-29T13:24:59Z</time>
      </trkpt>
      <trkpt lat="44.49956" lon="1.35122">
        <ele>246</ele>
        <time>2025-05-29T13:25:00Z</time>
      </trkpt>
      <trkpt lat="44.49953" lon="1.35121">
        <ele>246.2</ele>
        <time>2025-05-29T13:25:01Z</time>
      </trkpt>
      <trkpt lat="44.49951" lon="1.35121">
        <ele>246.4</ele>
        <time>2025-05-29T13:25:02Z</time>
      </trkpt>
      <trkpt lat="44.49949" lon="1.35123">
        <ele>246.4</ele>
        <time>2025-05-29T13:25:03Z</time>
      </trkpt>
      <trkpt lat="44.49948" lon="1.35125">
        <ele>246.6</ele>
        <time>2025-05-29T13:25:04Z</time>
      </trkpt>
      <trkpt lat="44.49946" lon="1.35128">
        <ele>246.6</ele>
        <time>2025-05-29T13:25:05Z</time>
      </trkpt>
      <trkpt lat="44.49944" lon="1.3513">
        <ele>246.6</ele>
        <time>2025-05-29T13:25:06Z</time>
      </trkpt>
      <trkpt lat="44.49942" lon="1.35133">
        <ele>246.6</ele>
        <time>2025-05-29T13:25:07Z</time>
      </trkpt>
      <trkpt lat="44.49939" lon="1.35134">
        <ele>246.4</ele>
        <time>2025-05-29T13:25:08Z</time>
      </trkpt>
      <trkpt lat="44.49937" lon="1.35136">
        <ele>246.4</ele>
        <time>2025-05-29T13:25:09Z</time>
      </trkpt>
      <trkpt lat="44.49935" lon="1.35139">
        <ele>246.4</ele>
        <time>2025-05-29T13:25:10Z</time>
      </trkpt>
      <trkpt lat="44.49932" lon="1.35141">
        <ele>246.4</ele>
        <time>2025-05-29T13:25:11Z</time>
      </trkpt>
      <trkpt lat="44.49929" lon="1.35143">
        <ele>246.2</ele>
        <time>2025-05-29T13:25:12Z</time>
      </trkpt>
      <trkpt lat="44.49926" lon="1.35144">
        <ele>246.2</ele>
        <time>2025-05-29T13:25:13Z</time>
      </trkpt>
      <trkpt lat="44.49924" lon="1.35146">
        <ele>246.2</ele>
        <time>2025-05-29T13:25:14Z</time>
      </trkpt>
      <trkpt lat="44.49921" lon="1.35147">
        <ele>246.2</ele>
        <time>2025-05-29T13:25:15Z</time>
      </trkpt>
      <trkpt lat="44.49917" lon="1.35148">
        <ele>246.2</ele>
        <time>2025-05-29T13:25:16Z</time>
      </trkpt>
      <trkpt lat="44.49914" lon="1.35147">
        <ele>246.4</ele>
        <time>2025-05-29T13:25:17Z</time>
      </trkpt>
      <trkpt lat="44.49911" lon="1.35148">
        <ele>246.4</ele>
        <time>2025-05-29T13:25:18Z</time>
      </trkpt>
      <trkpt lat="44.49908" lon="1.35148">
        <ele>246.6</ele>
        <time>2025-05-29T13:25:19Z</time>
      </trkpt>
      <trkpt lat="44.49905" lon="1.35149">
        <ele>246.6</ele>
        <time>2025-05-29T13:25:20Z</time>
      </trkpt>
      <trkpt lat="44.49902" lon="1.35149">
        <ele>246.6</ele>
        <time>2025-05-29T13:25:21Z</time>
      </trkpt>
      <trkpt lat="44.49899" lon="1.35147">
        <ele>246.6</ele>
        <time>2025-05-29T13:25:22Z</time>
      </trkpt>
      <trkpt lat="44.49896" lon="1.35146">
        <ele>246.6</ele>
        <time>2025-05-29T13:25:23Z</time>
      </trkpt>
      <trkpt lat="44.49893" lon="1.35146">
        <ele>246.8</ele>
        <time>2025-05-29T13:25:24Z</time>
      </trkpt>
      <trkpt lat="44.4989" lon="1.35146">
        <ele>246.8</ele>
        <time>2025-05-29T13:25:25Z</time>
      </trkpt>
      <trkpt lat="44.49887" lon="1.35146">
        <ele>247</ele>
        <time>2025-05-29T13:25:26Z</time>
      </trkpt>
      <trkpt lat="44.49883" lon="1.35146">
        <ele>247</ele>
        <time>2025-05-29T13:25:27Z</time>
      </trkpt>
      <trkpt lat="44.4988" lon="1.35146">
        <ele>247</ele>
        <time>2025-05-29T13:25:28Z</time>
      </trkpt>
      <trkpt lat="44.49877" lon="1.35147">
        <ele>247</ele>
        <time>2025-05-29T13:25:29Z</time>
      </trkpt>
      <trkpt lat="44.49874" lon="1.35149">
        <ele>247</ele>
        <time>2025-05-29T13:25:30Z</time>
      </trkpt>
      <trkpt lat="44.49871" lon="1.35152">
        <ele>246.8</ele>
        <time>2025-05-29T13:25:31Z</time>
      </trkpt>
      <trkpt lat="44.49869" lon="1.35155">
        <ele>246.8</ele>
        <time>2025-05-29T13:25:32Z</time>
      </trkpt>
      <trkpt lat="44.49866" lon="1.35158">
        <ele>246.6</ele>
        <time>2025-05-29T13:25:33Z</time>
      </trkpt>
      <trkpt lat="44.49863" lon="1.35161">
        <ele>246.6</ele>
        <time>2025-05-29T13:25:34Z</time>
      </trkpt>
      <trkpt lat="44.49859" lon="1.35165">
        <ele>246.6</ele>
        <time>2025-05-29T13:25:35Z</time>
      </trkpt>
      <trkpt lat="44.49857" lon="1.3517">
        <ele>246.4</ele>
        <time>2025-05-29T13:25:36Z</time>
      </trkpt>
      <trkpt lat="44.49855" lon="1.35176">
        <ele>246.2</ele>
        <time>2025-05-29T13:25:37Z</time>
      </trkpt>
      <trkpt lat="44.49854" lon="1.35183">
        <ele>246</ele>
        <time>2025-05-29T13:25:38Z</time>
      </trkpt>
      <trkpt lat="44.49852" lon="1.35189">
        <ele>245.4</ele>
        <time>2025-05-29T13:25:39Z</time>
      </trkpt>
      <trkpt lat="44.49849" lon="1.35194">
        <ele>245</ele>
        <time>2025-05-29T13:25:40Z</time>
      </trkpt>
      <trkpt lat="44.49846" lon="1.352">
        <ele>244.6</ele>
        <time>2025-05-29T13:25:41Z</time>
      </trkpt>
      <trkpt lat="44.49844" lon="1.35206">
        <ele>244.2</ele>
        <time>2025-05-29T13:25:42Z</time>
      </trkpt>
      <trkpt lat="44.49843" lon="1.35212">
        <ele>243.8</ele>
        <time>2025-05-29T13:25:43Z</time>
      </trkpt>
      <trkpt lat="44.49842" lon="1.35219">
        <ele>243.6</ele>
        <time>2025-05-29T13:25:44Z</time>
      </trkpt>
      <trkpt lat="44.4984" lon="1.35225">
        <ele>243.2</ele>
        <time>2025-05-29T13:25:45Z</time>
      </trkpt>
      <trkpt lat="44.49837" lon="1.35231">
        <ele>243</ele>
        <time>2025-05-29T13:25:46Z</time>
      </trkpt>
      <trkpt lat="44.49835" lon="1.35238">
        <ele>242.4</ele>
        <time>2025-05-29T13:25:47Z</time>
      </trkpt>
      <trkpt lat="44.49831" lon="1.35245">
        <ele>241.8</ele>
        <time>2025-05-29T13:25:48Z</time>
      </trkpt>
      <trkpt lat="44.49827" lon="1.35252">
        <ele>241</ele>
        <time>2025-05-29T13:25:49Z</time>
      </trkpt>
      <trkpt lat="44.49823" lon="1.35258">
        <ele>240.6</ele>
        <time>2025-05-29T13:25:50Z</time>
      </trkpt>
      <trkpt lat="44.4982" lon="1.35264">
        <ele>240</ele>
        <time>2025-05-29T13:25:51Z</time>
      </trkpt>
      <trkpt lat="44.49817" lon="1.35271">
        <ele>239.6</ele>
        <time>2025-05-29T13:25:52Z</time>
      </trkpt>
      <trkpt lat="44.49815" lon="1.35272">
        <ele>238.4</ele>
        <time>2025-05-29T13:27:01Z</time>
      </trkpt>
      <trkpt lat="44.49814" lon="1.35271">
        <ele>238.6</ele>
        <time>2025-05-29T13:27:02Z</time>
      </trkpt>
      <trkpt lat="44.49814" lon="1.35269">
        <ele>238.6</ele>
        <time>2025-05-29T13:27:03Z</time>
      </trkpt>
      <trkpt lat="44.49813" lon="1.35268">
        <ele>238.8</ele>
        <time>2025-05-29T13:27:04Z</time>
      </trkpt>
      <trkpt lat="44.49812" lon="1.35266">
        <ele>238.8</ele>
        <time>2025-05-29T13:27:05Z</time>
      </trkpt>
      <trkpt lat="44.49811" lon="1.35264">
        <ele>239</ele>
        <time>2025-05-29T13:27:06Z</time>
      </trkpt>
      <trkpt lat="44.49809" lon="1.35262">
        <ele>239</ele>
        <time>2025-05-29T13:27:07Z</time>
      </trkpt>
      <trkpt lat="44.49808" lon="1.35259">
        <ele>239.2</ele>
        <time>2025-05-29T13:27:08Z</time>
      </trkpt>
      <trkpt lat="44.49807" lon="1.35257">
        <ele>239.2</ele>
        <time>2025-05-29T13:27:09Z</time>
      </trkpt>
      <trkpt lat="44.49807" lon="1.35254">
        <ele>239.2</ele>
        <time>2025-05-29T13:27:10Z</time>
      </trkpt>
      <trkpt lat="44.49806" lon="1.35251">
        <ele>239.4</ele>
        <time>2025-05-29T13:27:11Z</time>
      </trkpt>
      <trkpt lat="44.49805" lon="1.35249">
        <ele>239.4</ele>
        <time>2025-05-29T13:27:12Z</time>
      </trkpt>
      <trkpt lat="44.49804" lon="1.35246">
        <ele>239.6</ele>
        <time>2025-05-29T13:27:13Z</time>
      </trkpt>
      <trkpt lat="44.49803" lon="1.35245">
        <ele>239.8</ele>
        <time>2025-05-29T13:27:14Z</time>
      </trkpt>
      <trkpt lat="44.49801" lon="1.35243">
        <ele>239.8</ele>
        <time>2025-05-29T13:27:15Z</time>
      </trkpt>
      <trkpt lat="44.498" lon="1.35242">
        <ele>240</ele>
        <time>2025-05-29T13:27:16Z</time>
      </trkpt>
      <trkpt lat="44.49798" lon="1.3524">
        <ele>240.2</ele>
        <time>2025-05-29T13:27:17Z</time>
      </trkpt>
      <trkpt lat="44.49797" lon="1.35238">
        <ele>240.4</ele>
        <time>2025-05-29T13:27:18Z</time>
      </trkpt>
      <trkpt lat="44.49797" lon="1.35236">
        <ele>240.6</ele>
        <time>2025-05-29T13:27:19Z</time>
      </trkpt>
      <trkpt lat="44.49796" lon="1.35234">
        <ele>240.6</ele>
        <time>2025-05-29T13:27:20Z</time>
      </trkpt>
      <trkpt lat="44.49796" lon="1.35231">
        <ele>240.8</ele>
        <time>2025-05-29T13:27:21Z</time>
      </trkpt>
      <trkpt lat="44.49797" lon="1.3523">
        <ele>240.8</ele>
        <time>2025-05-29T13:27:22Z</time>
      </trkpt>
      <trkpt lat="44.49798" lon="1.35228">
        <ele>240.8</ele>
        <time>2025-05-29T13:27:23Z</time>
      </trkpt>
      <trkpt lat="44.498" lon="1.35227">
        <ele>240.8</ele>
        <time>2025-05-29T13:27:24Z</time>
      </trkpt>
      <trkpt lat="44.49801" lon="1.35225">
        <ele>240.8</ele>
        <time>2025-05-29T13:27:25Z</time>
      </trkpt>
      <trkpt lat="44.49803" lon="1.35224">
        <ele>240.8</ele>
        <time>2025-05-29T13:27:26Z</time>
      </trkpt>
      <trkpt lat="44.49804" lon="1.35223">
        <ele>240.8</ele>
        <time>2025-05-29T13:27:27Z</time>
      </trkpt>
      <trkpt lat="44.49805" lon="1.35221">
        <ele>240.8</ele>
        <time>2025-05-29T13:27:28Z</time>
      </trkpt>
      <trkpt lat="44.49805" lon="1.35218">
        <ele>241</ele>
        <time>2025-05-29T13:27:29Z</time>
      </trkpt>
      <trkpt lat="44.49804" lon="1.35216">
        <ele>241.2</ele>
        <time>2025-05-29T13:27:30Z</time>
      </trkpt>
      <trkpt lat="44.49804" lon="1.35214">
        <ele>241.4</ele>
        <time>2025-05-29T13:27:31Z</time>
      </trkpt>
      <trkpt lat="44.49804" lon="1.35211">
        <ele>241.4</ele>
        <time>2025-05-29T13:27:32Z</time>
      </trkpt>
      <trkpt lat="44.49805" lon="1.35209">
        <ele>241.6</ele>
        <time>2025-05-29T13:27:33Z</time>
      </trkpt>
      <trkpt lat="44.49805" lon="1.35206">
        <ele>241.6</ele>
        <time>2025-05-29T13:27:34Z</time>
      </trkpt>
      <trkpt lat="44.49805" lon="1.35204">
        <ele>241.8</ele>
        <time>2025-05-29T13:27:35Z</time>
      </trkpt>
      <trkpt lat="44.49806" lon="1.35202">
        <ele>241.8</ele>
        <time>2025-05-29T13:27:36Z</time>
      </trkpt>
      <trkpt lat="44.49806" lon="1.35199">
        <ele>242</ele>
        <time>2025-05-29T13:27:37Z</time>
      </trkpt>
      <trkpt lat="44.49807" lon="1.35197">
        <ele>242.2</ele>
        <time>2025-05-29T13:27:38Z</time>
      </trkpt>
      <trkpt lat="44.49807" lon="1.35195">
        <ele>242.2</ele>
        <time>2025-05-29T13:27:39Z</time>
      </trkpt>
      <trkpt lat="44.49808" lon="1.35193">
        <ele>242.4</ele>
        <time>2025-05-29T13:27:40Z</time>
      </trkpt>
      <trkpt lat="44.49808" lon="1.3519">
        <ele>242.6</ele>
        <time>2025-05-29T13:27:41Z</time>
      </trkpt>
      <trkpt lat="44.49808" lon="1.35187">
        <ele>242.6</ele>
        <time>2025-05-29T13:27:42Z</time>
      </trkpt>
      <trkpt lat="44.49808" lon="1.35184">
        <ele>242.8</ele>
        <time>2025-05-29T13:27:43Z</time>
      </trkpt>
      <trkpt lat="44.49808" lon="1.35182">
        <ele>242.8</ele>
        <time>2025-05-29T13:27:44Z</time>
      </trkpt>
      <trkpt lat="44.49808" lon="1.3518">
        <ele>242.8</ele>
        <time>2025-05-29T13:27:45Z</time>
      </trkpt>
      <trkpt lat="44.49808" lon="1.35177">
        <ele>242.8</ele>
        <time>2025-05-29T13:27:46Z</time>
      </trkpt>
      <trkpt lat="44.49808" lon="1.35175">
        <ele>242.2</ele>
      </trkpt>
      <trkpt lat="44.49807" lon="1.35175">
        <ele>242.1</ele>
      </trkpt>
      <trkpt lat="44.49807" lon="1.35175">
        <ele>242.1</ele>
      </trkpt>
      <trkpt lat="44.49806" lon="1.35176">
        <ele>243</ele>
        <time>2025-05-29T13:28:18Z</time>
      </trkpt>
      <trkpt lat="44.49804" lon="1.35178">
        <ele>243</ele>
        <time>2025-05-29T13:28:19Z</time>
      </trkpt>
      <trkpt lat="44.49803" lon="1.3518">
        <ele>243</ele>
        <time>2025-05-29T13:28:20Z</time>
      </trkpt>
      <trkpt lat="44.49802" lon="1.35182">
        <ele>243</ele>
        <time>2025-05-29T13:28:21Z</time>
      </trkpt>
      <trkpt lat="44.49801" lon="1.35185">
        <ele>243</ele>
        <time>2025-05-29T13:28:22Z</time>
      </trkpt>
      <trkpt lat="44.498" lon="1.35188">
        <ele>243</ele>
        <time>2025-05-29T13:28:23Z</time>
      </trkpt>
      <trkpt lat="44.49799" lon="1.35191">
        <ele>243.2</ele>
        <time>2025-05-29T13:28:24Z</time>
      </trkpt>
      <trkpt lat="44.49798" lon="1.35195">
        <ele>243.2</ele>
        <time>2025-05-29T13:28:25Z</time>
      </trkpt>
      <trkpt lat="44.49796" lon="1.35198">
        <ele>243.2</ele>
        <time>2025-05-29T13:28:26Z</time>
      </trkpt>
      <trkpt lat="44.49793" lon="1.35199">
        <ele>243.2</ele>
        <time>2025-05-29T13:28:27Z</time>
      </trkpt>
      <trkpt lat="44.4979" lon="1.35201">
        <ele>243.2</ele>
        <time>2025-05-29T13:28:28Z</time>
      </trkpt>
      <trkpt lat="44.49788" lon="1.35203">
        <ele>242.8</ele>
        <time>2025-05-29T13:28:29Z</time>
      </trkpt>
      <trkpt lat="44.49784" lon="1.35206">
        <ele>242.4</ele>
        <time>2025-05-29T13:28:30Z</time>
      </trkpt>
      <trkpt lat="44.4978" lon="1.35206">
        <ele>242.2</ele>
        <time>2025-05-29T13:28:31Z</time>
      </trkpt>
      <trkpt lat="44.49775" lon="1.35206">
        <ele>241.6</ele>
        <time>2025-05-29T13:28:32Z</time>
      </trkpt>
      <trkpt lat="44.49771" lon="1.35205">
        <ele>241</ele>
        <time>2025-05-29T13:28:33Z</time>
      </trkpt>
      <trkpt lat="44.49768" lon="1.35206">
        <ele>240.6</ele>
        <time>2025-05-29T13:28:34Z</time>
      </trkpt>
      <trkpt lat="44.49767" lon="1.35209">
        <ele>240.2</ele>
        <time>2025-05-29T13:28:35Z</time>
      </trkpt>
      <trkpt lat="44.49765" lon="1.35213">
        <ele>239.6</ele>
        <time>2025-05-29T13:28:36Z</time>
      </trkpt>
      <trkpt lat="44.49764" lon="1.35217">
        <ele>239.2</ele>
        <time>2025-05-29T13:28:37Z</time>
      </trkpt>
      <trkpt lat="44.49764" lon="1.35221">
        <ele>239</ele>
        <time>2025-05-29T13:28:38Z</time>
      </trkpt>
      <trkpt lat="44.49764" lon="1.35224">
        <ele>238.8</ele>
        <time>2025-05-29T13:28:39Z</time>
      </trkpt>
      <trkpt lat="44.49763" lon="1.35226">
        <ele>238.8</ele>
        <time>2025-05-29T13:28:40Z</time>
      </trkpt>
      <trkpt lat="44.49761" lon="1.35229">
        <ele>238.8</ele>
        <time>2025-05-29T13:28:41Z</time>
      </trkpt>
      <trkpt lat="44.4976" lon="1.35232">
        <ele>238.8</ele>
        <time>2025-05-29T13:28:42Z</time>
      </trkpt>
      <trkpt lat="44.4976" lon="1.35237">
        <ele>238.8</ele>
        <time>2025-05-29T13:28:43Z</time>
      </trkpt>
      <trkpt lat="44.4976" lon="1.35241">
        <ele>238.6</ele>
        <time>2025-05-29T13:28:44Z</time>
      </trkpt>
      <trkpt lat="44.49759" lon="1.35244">
        <ele>238.6</ele>
        <time>2025-05-29T13:28:45Z</time>
      </trkpt>
      <trkpt lat="44.49757" lon="1.35248">
        <ele>238.4</ele>
        <time>2025-05-29T13:28:46Z</time>
      </trkpt>
      <trkpt lat="44.49755" lon="1.35252">
        <ele>238.2</ele>
        <time>2025-05-29T13:28:47Z</time>
      </trkpt>
      <trkpt lat="44.49753" lon="1.35256">
        <ele>238</ele>
        <time>2025-05-29T13:28:48Z</time>
      </trkpt>
      <trkpt lat="44.49751" lon="1.35258">
        <ele>238</ele>
        <time>2025-05-29T13:28:49Z</time>
      </trkpt>
      <trkpt lat="44.49748" lon="1.3526">
        <ele>237.6</ele>
        <time>2025-05-29T13:28:50Z</time>
      </trkpt>
      <trkpt lat="44.49747" lon="1.35265">
        <ele>237.4</ele>
        <time>2025-05-29T13:28:51Z</time>
      </trkpt>
      <trkpt lat="44.49746" lon="1.35269">
        <ele>237</ele>
        <time>2025-05-29T13:28:52Z</time>
      </trkpt>
      <trkpt lat="44.49744" lon="1.35273">
        <ele>236.6</ele>
        <time>2025-05-29T13:28:53Z</time>
      </trkpt>
      <trkpt lat="44.49743" lon="1.35278">
        <ele>236.2</ele>
        <time>2025-05-29T13:28:54Z</time>
      </trkpt>
      <trkpt lat="44.49742" lon="1.35283">
        <ele>236</ele>
        <time>2025-05-29T13:28:55Z</time>
      </trkpt>
      <trkpt lat="44.49742" lon="1.35288">
        <ele>235.6</ele>
        <time>2025-05-29T13:28:56Z</time>
      </trkpt>
      <trkpt lat="44.49742" lon="1.35294">
        <ele>235.4</ele>
        <time>2025-05-29T13:28:57Z</time>
      </trkpt>
      <trkpt lat="44.49742" lon="1.35299">
        <ele>235.2</ele>
        <time>2025-05-29T13:28:58Z</time>
      </trkpt>
      <trkpt lat="44.49743" lon="1.35304">
        <ele>235</ele>
        <time>2025-05-29T13:28:59Z</time>
      </trkpt>
      <trkpt lat="44.49744" lon="1.35309">
        <ele>234.8</ele>
        <time>2025-05-29T13:29:00Z</time>
      </trkpt>
      <trkpt lat="44.49746" lon="1.35313">
        <ele>234.8</ele>
        <time>2025-05-29T13:29:01Z</time>
      </trkpt>
      <trkpt lat="44.49747" lon="1.35317">
        <ele>234.6</ele>
        <time>2025-05-29T13:29:02Z</time>
      </trkpt>
      <trkpt lat="44.49749" lon="1.3532">
        <ele>234.8</ele>
        <time>2025-05-29T13:29:03Z</time>
      </trkpt>
      <trkpt lat="44.49751" lon="1.35323">
        <ele>234.8</ele>
        <time>2025-05-29T13:29:04Z</time>
      </trkpt>
      <trkpt lat="44.49752" lon="1.35326">
        <ele>234.8</ele>
        <time>2025-05-29T13:29:05Z</time>
      </trkpt>
      <trkpt lat="44.49754" lon="1.35329">
        <ele>235</ele>
        <time>2025-05-29T13:29:06Z</time>
      </trkpt>
      <trkpt lat="44.49756" lon="1.35332">
        <ele>235</ele>
        <time>2025-05-29T13:29:07Z</time>
      </trkpt>
      <trkpt lat="44.49758" lon="1.35336">
        <ele>235</ele>
        <time>2025-05-29T13:29:08Z</time>
      </trkpt>
      <trkpt lat="44.49761" lon="1.3534">
        <ele>235</ele>
        <time>2025-05-29T13:29:09Z</time>
      </trkpt>
      <trkpt lat="44.49762" lon="1.35345">
        <ele>234.8</ele>
        <time>2025-05-29T13:29:10Z</time>
      </trkpt>
      <trkpt lat="44.49763" lon="1.35351">
        <ele>234.8</ele>
        <time>2025-05-29T13:29:11Z</time>
      </trkpt>
      <trkpt lat="44.49764" lon="1.35357">
        <ele>234.6</ele>
        <time>2025-05-29T13:29:12Z</time>
      </trkpt>
      <trkpt lat="44.49766" lon="1.35363">
        <ele>234.2</ele>
        <time>2025-05-29T13:29:13Z</time>
      </trkpt>
      <trkpt lat="44.49767" lon="1.3537">
        <ele>233.8</ele>
        <time>2025-05-29T13:29:14Z</time>
      </trkpt>
      <trkpt lat="44.49768" lon="1.35377">
        <ele>233.6</ele>
        <time>2025-05-29T13:29:15Z</time>
      </trkpt>
      <trkpt lat="44.49769" lon="1.35385">
        <ele>233</ele>
        <time>2025-05-29T13:29:16Z</time>
      </trkpt>
      <trkpt lat="44.49767" lon="1.35391">
        <ele>232.4</ele>
        <time>2025-05-29T13:29:17Z</time>
      </trkpt>
      <trkpt lat="44.49764" lon="1.35397">
        <ele>231.8</ele>
        <time>2025-05-29T13:29:18Z</time>
      </trkpt>
      <trkpt lat="44.49761" lon="1.35401">
        <ele>231</ele>
        <time>2025-05-29T13:29:19Z</time>
      </trkpt>
      <trkpt lat="44.4976" lon="1.35406">
        <ele>230.6</ele>
        <time>2025-05-29T13:29:20Z</time>
      </trkpt>
      <trkpt lat="44.4976" lon="1.3541">
        <ele>230.2</ele>
        <time>2025-05-29T13:29:21Z</time>
      </trkpt>
      <trkpt lat="44.49761" lon="1.35416">
        <ele>229.8</ele>
        <time>2025-05-29T13:29:22Z</time>
      </trkpt>
      <trkpt lat="44.4976" lon="1.35423">
        <ele>229.2</ele>
        <time>2025-05-29T13:29:23Z</time>
      </trkpt>
      <trkpt lat="44.49759" lon="1.3543">
        <ele>228.4</ele>
        <time>2025-05-29T13:29:24Z</time>
      </trkpt>
      <trkpt lat="44.4976" lon="1.35435">
        <ele>227.8</ele>
        <time>2025-05-29T13:29:25Z</time>
      </trkpt>
      <trkpt lat="44.49762" lon="1.3544">
        <ele>227</ele>
        <time>2025-05-29T13:29:26Z</time>
      </trkpt>
      <trkpt lat="44.49765" lon="1.35445">
        <ele>226.2</ele>
        <time>2025-05-29T13:29:27Z</time>
      </trkpt>
      <trkpt lat="44.49766" lon="1.35452">
        <ele>225.6</ele>
        <time>2025-05-29T13:29:28Z</time>
      </trkpt>
      <trkpt lat="44.49768" lon="1.35459">
        <ele>225</ele>
        <time>2025-05-29T13:29:29Z</time>
      </trkpt>
      <trkpt lat="44.49772" lon="1.35465">
        <ele>224.2</ele>
        <time>2025-05-29T13:29:30Z</time>
      </trkpt>
      <trkpt lat="44.49775" lon="1.3547">
        <ele>223.6</ele>
        <time>2025-05-29T13:29:31Z</time>
      </trkpt>
      <trkpt lat="44.4978" lon="1.35475">
        <ele>222.8</ele>
        <time>2025-05-29T13:29:32Z</time>
      </trkpt>
      <trkpt lat="44.49785" lon="1.35481">
        <ele>222</ele>
        <time>2025-05-29T13:29:33Z</time>
      </trkpt>
      <trkpt lat="44.49791" lon="1.35485">
        <ele>221</ele>
        <time>2025-05-29T13:29:34Z</time>
      </trkpt>
      <trkpt lat="44.49798" lon="1.35488">
        <ele>220.2</ele>
        <time>2025-05-29T13:29:35Z</time>
      </trkpt>
      <trkpt lat="44.49804" lon="1.3549">
        <ele>219.4</ele>
        <time>2025-05-29T13:29:36Z</time>
      </trkpt>
      <trkpt lat="44.4981" lon="1.35489">
        <ele>219</ele>
        <time>2025-05-29T13:29:37Z</time>
      </trkpt>
      <trkpt lat="44.49812" lon="1.3549">
        <ele>215.9</ele>
      </trkpt>
      <trkpt lat="44.49814" lon="1.3549">
        <ele>215.8</ele>
      </trkpt>
      <trkpt lat="44.49815" lon="1.3549">
        <ele>216.8</ele>
        <time>2025-05-29T13:30:24Z</time>
      </trkpt>
      <trkpt lat="44.49814" lon="1.35491">
        <ele>216.8</ele>
        <time>2025-05-29T13:30:25Z</time>
      </trkpt>
      <trkpt lat="44.49815" lon="1.35491">
        <ele>217</ele>
        <time>2025-05-29T13:30:26Z</time>
      </trkpt>
      <trkpt lat="44.49818" lon="1.3549">
        <ele>217.2</ele>
        <time>2025-05-29T13:30:27Z</time>
      </trkpt>
      <trkpt lat="44.4982" lon="1.3549">
        <ele>218</ele>
        <time>2025-05-29T13:30:39Z</time>
      </trkpt>
      <trkpt lat="44.49822" lon="1.3549">
        <ele>217.8</ele>
        <time>2025-05-29T13:30:40Z</time>
      </trkpt>
      <trkpt lat="44.49827" lon="1.35492">
        <ele>217.4</ele>
        <time>2025-05-29T13:30:41Z</time>
      </trkpt>
      <trkpt lat="44.49827" lon="1.35492">
        <ele>217.4</ele>
        <time>2025-05-29T13:30:41Z</time>
      </trkpt>
      <trkpt lat="44.4983" lon="1.35495">
        <ele>217.2</ele>
        <time>2025-05-29T13:30:42Z</time>
      </trkpt>
      <trkpt lat="44.49831" lon="1.35495">
        <ele>216.8</ele>
        <time>2025-05-29T13:30:43Z</time>
      </trkpt>
      <trkpt lat="44.49831" lon="1.35495">
        <ele>216.6</ele>
        <time>2025-05-29T13:30:44Z</time>
      </trkpt>
      <trkpt lat="44.49832" lon="1.35495">
        <ele>216.8</ele>
        <time>2025-05-29T13:30:45Z</time>
      </trkpt>
      <trkpt lat="44.49835" lon="1.35496">
        <ele>217.4</ele>
        <time>2025-05-29T13:30:51Z</time>
      </trkpt>
      <trkpt lat="44.49839" lon="1.35498">
        <ele>219</ele>
        <time>2025-05-29T13:30:52Z</time>
      </trkpt>
      <trkpt lat="44.49841" lon="1.355">
        <ele>218.2</ele>
        <time>2025-05-29T13:30:53Z</time>
      </trkpt>
      <trkpt lat="44.49841" lon="1.35502">
        <ele>217.6</ele>
        <time>2025-05-29T13:30:54Z</time>
      </trkpt>
      <trkpt lat="44.4984" lon="1.35505">
        <ele>217</ele>
        <time>2025-05-29T13:30:55Z</time>
      </trkpt>
      <trkpt lat="44.49838" lon="1.35509">
        <ele>216.2</ele>
        <time>2025-05-29T13:30:56Z</time>
      </trkpt>
      <trkpt lat="44.49835" lon="1.35512">
        <ele>215.8</ele>
        <time>2025-05-29T13:30:57Z</time>
      </trkpt>
      <trkpt lat="44.49833" lon="1.35517">
        <ele>215.6</ele>
        <time>2025-05-29T13:30:58Z</time>
      </trkpt>
      <trkpt lat="44.49832" lon="1.35522">
        <ele>215.2</ele>
        <time>2025-05-29T13:30:59Z</time>
      </trkpt>
      <trkpt lat="44.49831" lon="1.35529">
        <ele>214.6</ele>
        <time>2025-05-29T13:31:00Z</time>
      </trkpt>
      <trkpt lat="44.49831" lon="1.35538">
        <ele>214.4</ele>
        <time>2025-05-29T13:31:01Z</time>
      </trkpt>
      <trkpt lat="44.49832" lon="1.35546">
        <ele>214</ele>
        <time>2025-05-29T13:31:02Z</time>
      </trkpt>
      <trkpt lat="44.49833" lon="1.35555">
        <ele>213.2</ele>
        <time>2025-05-29T13:31:03Z</time>
      </trkpt>
      <trkpt lat="44.49836" lon="1.35564">
        <ele>212.2</ele>
        <time>2025-05-29T13:31:04Z</time>
      </trkpt>
      <trkpt lat="44.49837" lon="1.35572">
        <ele>211.4</ele>
        <time>2025-05-29T13:31:05Z</time>
      </trkpt>
      <trkpt lat="44.49836" lon="1.3558">
        <ele>210.6</ele>
        <time>2025-05-29T13:31:06Z</time>
      </trkpt>
      <trkpt lat="44.49835" lon="1.35588">
        <ele>209.6</ele>
        <time>2025-05-29T13:31:07Z</time>
      </trkpt>
      <trkpt lat="44.49835" lon="1.35594">
        <ele>209</ele>
        <time>2025-05-29T13:31:08Z</time>
      </trkpt>
      <trkpt lat="44.49837" lon="1.35599">
        <ele>208.2</ele>
        <time>2025-05-29T13:31:09Z</time>
      </trkpt>
      <trkpt lat="44.49841" lon="1.35602">
        <ele>207.6</ele>
        <time>2025-05-29T13:31:10Z</time>
      </trkpt>
      <trkpt lat="44.49844" lon="1.35605">
        <ele>207</ele>
        <time>2025-05-29T13:31:11Z</time>
      </trkpt>
      <trkpt lat="44.49848" lon="1.35609">
        <ele>206.4</ele>
        <time>2025-05-29T13:31:12Z</time>
      </trkpt>
      <trkpt lat="44.4985" lon="1.35615">
        <ele>206</ele>
        <time>2025-05-29T13:31:13Z</time>
      </trkpt>
      <trkpt lat="44.49853" lon="1.35621">
        <ele>205.4</ele>
        <time>2025-05-29T13:31:14Z</time>
      </trkpt>
      <trkpt lat="44.49856" lon="1.35626">
        <ele>204.6</ele>
        <time>2025-05-29T13:31:15Z</time>
      </trkpt>
      <trkpt lat="44.4986" lon="1.35633">
        <ele>204.4</ele>
        <time>2025-05-29T13:31:16Z</time>
      </trkpt>
      <trkpt lat="44.49864" lon="1.35639">
        <ele>203.6</ele>
        <time>2025-05-29T13:31:17Z</time>
      </trkpt>
      <trkpt lat="44.49868" lon="1.35647">
        <ele>203</ele>
        <time>2025-05-29T13:31:18Z</time>
      </trkpt>
      <trkpt lat="44.49872" lon="1.35656">
        <ele>202.4</ele>
        <time>2025-05-29T13:31:19Z</time>
      </trkpt>
      <trkpt lat="44.49874" lon="1.35663">
        <ele>201.4</ele>
        <time>2025-05-29T13:31:20Z</time>
      </trkpt>
      <trkpt lat="44.49875" lon="1.35671">
        <ele>201.2</ele>
        <time>2025-05-29T13:31:21Z</time>
      </trkpt>
      <trkpt lat="44.49876" lon="1.35679">
        <ele>200.6</ele>
        <time>2025-05-29T13:31:22Z</time>
      </trkpt>
      <trkpt lat="44.49878" lon="1.35686">
        <ele>200.2</ele>
        <time>2025-05-29T13:31:23Z</time>
      </trkpt>
      <trkpt lat="44.49881" lon="1.35692">
        <ele>199.8</ele>
        <time>2025-05-29T13:31:24Z</time>
      </trkpt>
      <trkpt lat="44.49881" lon="1.35699">
        <ele>199.4</ele>
        <time>2025-05-29T13:31:25Z</time>
      </trkpt>
      <trkpt lat="44.49881" lon="1.35706">
        <ele>199.2</ele>
        <time>2025-05-29T13:31:26Z</time>
      </trkpt>
      <trkpt lat="44.49882" lon="1.35714">
        <ele>198.8</ele>
        <time>2025-05-29T13:31:27Z</time>
      </trkpt>
      <trkpt lat="44.49883" lon="1.35722">
        <ele>198.6</ele>
        <time>2025-05-29T13:31:28Z</time>
      </trkpt>
      <trkpt lat="44.49884" lon="1.35729">
        <ele>198.4</ele>
        <time>2025-05-29T13:31:29Z</time>
      </trkpt>
      <trkpt lat="44.49885" lon="1.35737">
        <ele>198</ele>
        <time>2025-05-29T13:31:30Z</time>
      </trkpt>
      <trkpt lat="44.49885" lon="1.35744">
        <ele>197.6</ele>
        <time>2025-05-29T13:31:31Z</time>
      </trkpt>
      <trkpt lat="44.49884" lon="1.35751">
        <ele>197.6</ele>
        <time>2025-05-29T13:31:32Z</time>
      </trkpt>
      <trkpt lat="44.49886" lon="1.35757">
        <ele>197.6</ele>
        <time>2025-05-29T13:31:33Z</time>
      </trkpt>
      <trkpt lat="44.49887" lon="1.35764">
        <ele>197.4</ele>
        <time>2025-05-29T13:31:34Z</time>
      </trkpt>
      <trkpt lat="44.49888" lon="1.35769">
        <ele>197.4</ele>
        <time>2025-05-29T13:31:35Z</time>
      </trkpt>
      <trkpt lat="44.4989" lon="1.35774">
        <ele>197.6</ele>
        <time>2025-05-29T13:31:36Z</time>
      </trkpt>
      <trkpt lat="44.49892" lon="1.35779">
        <ele>197.6</ele>
        <time>2025-05-29T13:31:37Z</time>
      </trkpt>
      <trkpt lat="44.49894" lon="1.35782">
        <ele>197.8</ele>
        <time>2025-05-29T13:31:38Z</time>
      </trkpt>
      <trkpt lat="44.49897" lon="1.35786">
        <ele>198</ele>
        <time>2025-05-29T13:31:39Z</time>
      </trkpt>
      <trkpt lat="44.499" lon="1.35789">
        <ele>198.2</ele>
        <time>2025-05-29T13:31:40Z</time>
      </trkpt>
      <trkpt lat="44.49902" lon="1.35791">
        <ele>198.4</ele>
        <time>2025-05-29T13:31:41Z</time>
      </trkpt>
      <trkpt lat="44.49905" lon="1.35794">
        <ele>198.4</ele>
        <time>2025-05-29T13:31:42Z</time>
      </trkpt>
      <trkpt lat="44.49908" lon="1.35797">
        <ele>198.4</ele>
        <time>2025-05-29T13:31:43Z</time>
      </trkpt>
      <trkpt lat="44.49911" lon="1.358">
        <ele>198.4</ele>
        <time>2025-05-29T13:31:44Z</time>
      </trkpt>
      <trkpt lat="44.49915" lon="1.35803">
        <ele>198.4</ele>
        <time>2025-05-29T13:31:45Z</time>
      </trkpt>
      <trkpt lat="44.49917" lon="1.35806">
        <ele>198.4</ele>
        <time>2025-05-29T13:31:46Z</time>
      </trkpt>
      <trkpt lat="44.4992" lon="1.35812">
        <ele>198.2</ele>
        <time>2025-05-29T13:31:47Z</time>
      </trkpt>
      <trkpt lat="44.4992" lon="1.35818">
        <ele>198.2</ele>
        <time>2025-05-29T13:31:48Z</time>
      </trkpt>
      <trkpt lat="44.49921" lon="1.35824">
        <ele>198</ele>
        <time>2025-05-29T13:31:49Z</time>
      </trkpt>
      <trkpt lat="44.49921" lon="1.3583">
        <ele>197.8</ele>
        <time>2025-05-29T13:31:50Z</time>
      </trkpt>
      <trkpt lat="44.4992" lon="1.35835">
        <ele>197.6</ele>
        <time>2025-05-29T13:31:51Z</time>
      </trkpt>
      <trkpt lat="44.49919" lon="1.3584">
        <ele>197.6</ele>
        <time>2025-05-29T13:31:52Z</time>
      </trkpt>
      <trkpt lat="44.49918" lon="1.35845">
        <ele>197.6</ele>
        <time>2025-05-29T13:31:53Z</time>
      </trkpt>
      <trkpt lat="44.49915" lon="1.35849">
        <ele>197.6</ele>
        <time>2025-05-29T13:31:54Z</time>
      </trkpt>
      <trkpt lat="44.49913" lon="1.35853">
        <ele>197.6</ele>
        <time>2025-05-29T13:31:55Z</time>
      </trkpt>
      <trkpt lat="44.4991" lon="1.35858">
        <ele>197.8</ele>
        <time>2025-05-29T13:31:56Z</time>
      </trkpt>
      <trkpt lat="44.49909" lon="1.35864">
        <ele>197.6</ele>
        <time>2025-05-29T13:31:57Z</time>
      </trkpt>
      <trkpt lat="44.49908" lon="1.35869">
        <ele>197.6</ele>
        <time>2025-05-29T13:31:58Z</time>
      </trkpt>
      <trkpt lat="44.4991" lon="1.35875">
        <ele>197.4</ele>
        <time>2025-05-29T13:31:59Z</time>
      </trkpt>
      <trkpt lat="44.49912" lon="1.3588">
        <ele>197.4</ele>
        <time>2025-05-29T13:32:00Z</time>
      </trkpt>
      <trkpt lat="44.49913" lon="1.35886">
        <ele>197.4</ele>
        <time>2025-05-29T13:32:01Z</time>
      </trkpt>
      <trkpt lat="44.49914" lon="1.35892">
        <ele>197.4</ele>
        <time>2025-05-29T13:32:02Z</time>
      </trkpt>
      <trkpt lat="44.49915" lon="1.35898">
        <ele>197.4</ele>
        <time>2025-05-29T13:32:03Z</time>
      </trkpt>
      <trkpt lat="44.49915" lon="1.35905">
        <ele>197.4</ele>
        <time>2025-05-29T13:32:04Z</time>
      </trkpt>
      <trkpt lat="44.49917" lon="1.35911">
        <ele>197.2</ele>
        <time>2025-05-29T13:32:05Z</time>
      </trkpt>
      <trkpt lat="44.49919" lon="1.35917">
        <ele>197</ele>
        <time>2025-05-29T13:32:06Z</time>
      </trkpt>
      <trkpt lat="44.4992" lon="1.35924">
        <ele>196.6</ele>
        <time>2025-05-29T13:32:07Z</time>
      </trkpt>
      <trkpt lat="44.49921" lon="1.35931">
        <ele>196.4</ele>
        <time>2025-05-29T13:32:08Z</time>
      </trkpt>
      <trkpt lat="44.49923" lon="1.3594">
        <ele>196</ele>
        <time>2025-05-29T13:32:09Z</time>
      </trkpt>
      <trkpt lat="44.49923" lon="1.35948">
        <ele>195.6</ele>
        <time>2025-05-29T13:32:10Z</time>
      </trkpt>
      <trkpt lat="44.49926" lon="1.35953">
        <ele>195.2</ele>
        <time>2025-05-29T13:32:11Z</time>
      </trkpt>
      <trkpt lat="44.49929" lon="1.35957">
        <ele>194.6</ele>
        <time>2025-05-29T13:32:12Z</time>
      </trkpt>
      <trkpt lat="44.49933" lon="1.35962">
        <ele>194</ele>
        <time>2025-05-29T13:32:13Z</time>
      </trkpt>
      <trkpt lat="44.49937" lon="1.35966">
        <ele>193.6</ele>
        <time>2025-05-29T13:32:14Z</time>
      </trkpt>
      <trkpt lat="44.49938" lon="1.35971">
        <ele>193.4</ele>
        <time>2025-05-29T13:32:15Z</time>
      </trkpt>
      <trkpt lat="44.49938" lon="1.35976">
        <ele>193</ele>
        <time>2025-05-29T13:32:16Z</time>
      </trkpt>
      <trkpt lat="44.49936" lon="1.35981">
        <ele>192.8</ele>
        <time>2025-05-29T13:32:17Z</time>
      </trkpt>
      <trkpt lat="44.49935" lon="1.35988">
        <ele>192.2</ele>
        <time>2025-05-29T13:32:18Z</time>
      </trkpt>
      <trkpt lat="44.49932" lon="1.35994">
        <ele>191.6</ele>
        <time>2025-05-29T13:32:19Z</time>
      </trkpt>
      <trkpt lat="44.49929" lon="1.35999">
        <ele>191.2</ele>
        <time>2025-05-29T13:32:20Z</time>
      </trkpt>
      <trkpt lat="44.49927" lon="1.36004">
        <ele>190.8</ele>
        <time>2025-05-29T13:32:21Z</time>
      </trkpt>
      <trkpt lat="44.49924" lon="1.36009">
        <ele>190.2</ele>
        <time>2025-05-29T13:32:22Z</time>
      </trkpt>
      <trkpt lat="44.49921" lon="1.36013">
        <ele>189.8</ele>
        <time>2025-05-29T13:32:23Z</time>
      </trkpt>
      <trkpt lat="44.49917" lon="1.36017">
        <ele>189.4</ele>
        <time>2025-05-29T13:32:24Z</time>
      </trkpt>
      <trkpt lat="44.49913" lon="1.36022">
        <ele>189</ele>
        <time>2025-05-29T13:32:25Z</time>
      </trkpt>
      <trkpt lat="44.49908" lon="1.36026">
        <ele>188.6</ele>
        <time>2025-05-29T13:32:26Z</time>
      </trkpt>
      <trkpt lat="44.49904" lon="1.36028">
        <ele>188.2</ele>
        <time>2025-05-29T13:32:27Z</time>
      </trkpt>
      <trkpt lat="44.49902" lon="1.36028">
        <ele>187.8</ele>
        <time>2025-05-29T13:32:28Z</time>
      </trkpt>
      <trkpt lat="44.49902" lon="1.36028">
        <ele>187.4</ele>
        <time>2025-05-29T13:32:29Z</time>
      </trkpt>
      <trkpt lat="44.49902" lon="1.36028">
        <ele>187.2</ele>
        <time>2025-05-29T13:32:30Z</time>
      </trkpt>
      <trkpt lat="44.49905" lon="1.36029">
        <ele>186.4</ele>
        <time>2025-05-29T13:32:41Z</time>
      </trkpt>
      <trkpt lat="44.49907" lon="1.36029">
        <ele>186.4</ele>
        <time>2025-05-29T13:32:42Z</time>
      </trkpt>
      <trkpt lat="44.4991" lon="1.36031">
        <ele>186.4</ele>
        <time>2025-05-29T13:32:43Z</time>
      </trkpt>
      <trkpt lat="44.49913" lon="1.36033">
        <ele>186.4</ele>
        <time>2025-05-29T13:32:44Z</time>
      </trkpt>
      <trkpt lat="44.49916" lon="1.36036">
        <ele>186.2</ele>
        <time>2025-05-29T13:32:45Z</time>
      </trkpt>
      <trkpt lat="44.49919" lon="1.36039">
        <ele>186</ele>
        <time>2025-05-29T13:32:46Z</time>
      </trkpt>
      <trkpt lat="44.49923" lon="1.36042">
        <ele>185.8</ele>
        <time>2025-05-29T13:32:47Z</time>
      </trkpt>
      <trkpt lat="44.49926" lon="1.36046">
        <ele>185.6</ele>
        <time>2025-05-29T13:32:48Z</time>
      </trkpt>
      <trkpt lat="44.49928" lon="1.36051">
        <ele>185</ele>
        <time>2025-05-29T13:32:49Z</time>
      </trkpt>
      <trkpt lat="44.4993" lon="1.36052">
        <ele>184.8</ele>
        <time>2025-05-29T13:32:50Z</time>
      </trkpt>
      <trkpt lat="44.49933" lon="1.36053">
        <ele>184.6</ele>
        <time>2025-05-29T13:32:51Z</time>
      </trkpt>
      <trkpt lat="44.49936" lon="1.36057">
        <ele>184.4</ele>
        <time>2025-05-29T13:32:52Z</time>
      </trkpt>
      <trkpt lat="44.4994" lon="1.36062">
        <ele>184</ele>
        <time>2025-05-29T13:32:53Z</time>
      </trkpt>
      <trkpt lat="44.49945" lon="1.36064">
        <ele>183.4</ele>
        <time>2025-05-29T13:32:54Z</time>
      </trkpt>
      <trkpt lat="44.4995" lon="1.36067">
        <ele>182.8</ele>
        <time>2025-05-29T13:32:55Z</time>
      </trkpt>
      <trkpt lat="44.49954" lon="1.36071">
        <ele>181.8</ele>
        <time>2025-05-29T13:32:56Z</time>
      </trkpt>
      <trkpt lat="44.49959" lon="1.36075">
        <ele>181</ele>
        <time>2025-05-29T13:32:57Z</time>
      </trkpt>
      <trkpt lat="44.49962" lon="1.36077">
        <ele>180.2</ele>
        <time>2025-05-29T13:32:58Z</time>
      </trkpt>
      <trkpt lat="44.49965" lon="1.3608">
        <ele>179.4</ele>
        <time>2025-05-29T13:32:59Z</time>
      </trkpt>
      <trkpt lat="44.49968" lon="1.36083">
        <ele>178.4</ele>
        <time>2025-05-29T13:33:00Z</time>
      </trkpt>
      <trkpt lat="44.49971" lon="1.36088">
        <ele>177.6</ele>
        <time>2025-05-29T13:33:01Z</time>
      </trkpt>
      <trkpt lat="44.49972" lon="1.36094">
        <ele>177</ele>
        <time>2025-05-29T13:33:02Z</time>
      </trkpt>
      <trkpt lat="44.49975" lon="1.36101">
        <ele>176.2</ele>
        <time>2025-05-29T13:33:03Z</time>
      </trkpt>
      <trkpt lat="44.49977" lon="1.36106">
        <ele>175.4</ele>
        <time>2025-05-29T13:33:04Z</time>
      </trkpt>
      <trkpt lat="44.49981" lon="1.36113">
        <ele>173.8</ele>
        <time>2025-05-29T13:33:05Z</time>
      </trkpt>
      <trkpt lat="44.49985" lon="1.36118">
        <ele>172.8</ele>
        <time>2025-05-29T13:33:06Z</time>
      </trkpt>
      <trkpt lat="44.4999" lon="1.36122">
        <ele>171.8</ele>
        <time>2025-05-29T13:33:07Z</time>
      </trkpt>
      <trkpt lat="44.49994" lon="1.36124">
        <ele>170.2</ele>
        <time>2025-05-29T13:33:08Z</time>
      </trkpt>
      <trkpt lat="44.49998" lon="1.36127">
        <ele>168.8</ele>
        <time>2025-05-29T13:33:09Z</time>
      </trkpt>
      <trkpt lat="44.5" lon="1.36131">
        <ele>167.4</ele>
        <time>2025-05-29T13:33:10Z</time>
      </trkpt>
      <trkpt lat="44.50003" lon="1.36135">
        <ele>166.2</ele>
        <time>2025-05-29T13:33:11Z</time>
      </trkpt>
      <trkpt lat="44.50005" lon="1.36138">
        <ele>165.6</ele>
        <time>2025-05-29T13:33:12Z</time>
      </trkpt>
      <trkpt lat="44.50007" lon="1.36138">
        <ele>165</ele>
        <time>2025-05-29T13:33:13Z</time>
      </trkpt>
      <trkpt lat="44.5001" lon="1.36138">
        <ele>164.2</ele>
        <time>2025-05-29T13:33:14Z</time>
      </trkpt>
      <trkpt lat="44.50013" lon="1.36136">
        <ele>163.4</ele>
        <time>2025-05-29T13:33:15Z</time>
      </trkpt>
      <trkpt lat="44.50017" lon="1.36136">
        <ele>162.6</ele>
        <time>2025-05-29T13:33:16Z</time>
      </trkpt>
      <trkpt lat="44.50021" lon="1.36135">
        <ele>161.6</ele>
        <time>2025-05-29T13:33:17Z</time>
      </trkpt>
      <trkpt lat="44.50024" lon="1.36136">
        <ele>160.6</ele>
        <time>2025-05-29T13:33:18Z</time>
      </trkpt>
      <trkpt lat="44.50027" lon="1.3614">
        <ele>159.6</ele>
        <time>2025-05-29T13:33:19Z</time>
      </trkpt>
      <trkpt lat="44.50028" lon="1.36144">
        <ele>159</ele>
        <time>2025-05-29T13:33:20Z</time>
      </trkpt>
      <trkpt lat="44.50031" lon="1.36146">
        <ele>157.8</ele>
        <time>2025-05-29T13:33:21Z</time>
      </trkpt>
      <trkpt lat="44.50034" lon="1.36148">
        <ele>157</ele>
        <time>2025-05-29T13:33:22Z</time>
      </trkpt>
      <trkpt lat="44.50039" lon="1.36151">
        <ele>156</ele>
        <time>2025-05-29T13:33:23Z</time>
      </trkpt>
      <trkpt lat="44.50043" lon="1.36152">
        <ele>155</ele>
        <time>2025-05-29T13:33:24Z</time>
      </trkpt>
      <trkpt lat="44.50048" lon="1.36152">
        <ele>153.8</ele>
        <time>2025-05-29T13:33:25Z</time>
      </trkpt>
      <trkpt lat="44.50052" lon="1.36151">
        <ele>152.6</ele>
        <time>2025-05-29T13:33:26Z</time>
      </trkpt>
      <trkpt lat="44.50055" lon="1.36147">
        <ele>151.6</ele>
        <time>2025-05-29T13:33:27Z</time>
      </trkpt>
      <trkpt lat="44.50057" lon="1.36144">
        <ele>150.8</ele>
        <time>2025-05-29T13:33:28Z</time>
      </trkpt>
      <trkpt lat="44.50061" lon="1.3614">
        <ele>150.2</ele>
        <time>2025-05-29T13:33:29Z</time>
      </trkpt>
      <trkpt lat="44.50064" lon="1.36137">
        <ele>149.8</ele>
        <time>2025-05-29T13:33:30Z</time>
      </trkpt>
      <trkpt lat="44.50066" lon="1.36134">
        <ele>149.2</ele>
        <time>2025-05-29T13:33:31Z</time>
      </trkpt>
      <trkpt lat="44.50068" lon="1.3613">
        <ele>149</ele>
        <time>2025-05-29T13:33:32Z</time>
      </trkpt>
      <trkpt lat="44.50071" lon="1.36127">
        <ele>148.8</ele>
        <time>2025-05-29T13:33:33Z</time>
      </trkpt>
      <trkpt lat="44.50074" lon="1.36125">
        <ele>148.6</ele>
        <time>2025-05-29T13:33:34Z</time>
      </trkpt>
      <trkpt lat="44.50076" lon="1.36124">
        <ele>148.4</ele>
        <time>2025-05-29T13:33:35Z</time>
      </trkpt>
      <trkpt lat="44.50079" lon="1.36122">
        <ele>148.2</ele>
        <time>2025-05-29T13:33:36Z</time>
      </trkpt>
      <trkpt lat="44.50082" lon="1.3612">
        <ele>148</ele>
        <time>2025-05-29T13:33:37Z</time>
      </trkpt>
      <trkpt lat="44.50085" lon="1.36116">
        <ele>147.8</ele>
        <time>2025-05-29T13:33:38Z</time>
      </trkpt>
      <trkpt lat="44.50089" lon="1.36115">
        <ele>147.4</ele>
        <time>2025-05-29T13:33:39Z</time>
      </trkpt>
      <trkpt lat="44.50092" lon="1.36114">
        <ele>147.2</ele>
        <time>2025-05-29T13:33:40Z</time>
      </trkpt>
      <trkpt lat="44.50095" lon="1.36115">
        <ele>146.8</ele>
        <time>2025-05-29T13:33:41Z</time>
      </trkpt>
      <trkpt lat="44.50099" lon="1.36115">
        <ele>146.6</ele>
        <time>2025-05-29T13:33:42Z</time>
      </trkpt>
      <trkpt lat="44.50101" lon="1.36115">
        <ele>146.2</ele>
        <time>2025-05-29T13:33:43Z</time>
      </trkpt>
      <trkpt lat="44.50102" lon="1.36117">
        <ele>146.2</ele>
        <time>2025-05-29T13:33:44Z</time>
      </trkpt>
      <trkpt lat="44.50102" lon="1.36119">
        <ele>146</ele>
        <time>2025-05-29T13:33:45Z</time>
      </trkpt>
      <trkpt lat="44.50102" lon="1.36121">
        <ele>145.8</ele>
        <time>2025-05-29T13:33:46Z</time>
      </trkpt>
      <trkpt lat="44.50102" lon="1.36123">
        <ele>145.6</ele>
        <time>2025-05-29T13:33:47Z</time>
      </trkpt>
      <trkpt lat="44.50102" lon="1.36126">
        <ele>145.4</ele>
        <time>2025-05-29T13:33:48Z</time>
      </trkpt>
      <trkpt lat="44.50101" lon="1.3613">
        <ele>145.2</ele>
        <time>2025-05-29T13:33:49Z</time>
      </trkpt>
      <trkpt lat="44.50101" lon="1.36133">
        <ele>145.2</ele>
        <time>2025-05-29T13:33:50Z</time>
      </trkpt>
      <trkpt lat="44.50101" lon="1.36136">
        <ele>145</ele>
        <time>2025-05-29T13:33:51Z</time>
      </trkpt>
      <trkpt lat="44.50101" lon="1.3614">
        <ele>144.8</ele>
        <time>2025-05-29T13:33:52Z</time>
      </trkpt>
      <trkpt lat="44.501" lon="1.36144">
        <ele>144.8</ele>
        <time>2025-05-29T13:33:53Z</time>
      </trkpt>
      <trkpt lat="44.50099" lon="1.36147">
        <ele>144.8</ele>
        <time>2025-05-29T13:33:54Z</time>
      </trkpt>
      <trkpt lat="44.50098" lon="1.3615">
        <ele>144.8</ele>
        <time>2025-05-29T13:33:55Z</time>
      </trkpt>
      <trkpt lat="44.50097" lon="1.36154">
        <ele>144.6</ele>
        <time>2025-05-29T13:33:56Z</time>
      </trkpt>
      <trkpt lat="44.50097" lon="1.36157">
        <ele>144.6</ele>
        <time>2025-05-29T13:33:57Z</time>
      </trkpt>
      <trkpt lat="44.50095" lon="1.36161">
        <ele>144.8</ele>
        <time>2025-05-29T13:33:58Z</time>
      </trkpt>
      <trkpt lat="44.50094" lon="1.36164">
        <ele>144.8</ele>
        <time>2025-05-29T13:33:59Z</time>
      </trkpt>
      <trkpt lat="44.50093" lon="1.36167">
        <ele>144.8</ele>
        <time>2025-05-29T13:34:00Z</time>
      </trkpt>
      <trkpt lat="44.50091" lon="1.3617">
        <ele>144.8</ele>
        <time>2025-05-29T13:34:01Z</time>
      </trkpt>
      <trkpt lat="44.50089" lon="1.36173">
        <ele>144.8</ele>
        <time>2025-05-29T13:34:02Z</time>
      </trkpt>
      <trkpt lat="44.50087" lon="1.36176">
        <ele>144.6</ele>
        <time>2025-05-29T13:34:03Z</time>
      </trkpt>
      <trkpt lat="44.50084" lon="1.36178">
        <ele>144.4</ele>
        <time>2025-05-29T13:34:04Z</time>
      </trkpt>
      <trkpt lat="44.50082" lon="1.3618">
        <ele>144.4</ele>
        <time>2025-05-29T13:34:05Z</time>
      </trkpt>
      <trkpt lat="44.50079" lon="1.36183">
        <ele>144.4</ele>
        <time>2025-05-29T13:34:06Z</time>
      </trkpt>
      <trkpt lat="44.50077" lon="1.36185">
        <ele>144.4</ele>
        <time>2025-05-29T13:34:07Z</time>
      </trkpt>
      <trkpt lat="44.50074" lon="1.36188">
        <ele>144.4</ele>
        <time>2025-05-29T13:34:08Z</time>
      </trkpt>
      <trkpt lat="44.50072" lon="1.3619">
        <ele>144.6</ele>
        <time>2025-05-29T13:34:09Z</time>
      </trkpt>
      <trkpt lat="44.50069" lon="1.36193">
        <ele>144.6</ele>
        <time>2025-05-29T13:34:10Z</time>
      </trkpt>
      <trkpt lat="44.50067" lon="1.36196">
        <ele>144.6</ele>
        <time>2025-05-29T13:34:11Z</time>
      </trkpt>
      <trkpt lat="44.50065" lon="1.36198">
        <ele>144.6</ele>
        <time>2025-05-29T13:34:12Z</time>
      </trkpt>
      <trkpt lat="44.50062" lon="1.36201">
        <ele>144.6</ele>
        <time>2025-05-29T13:34:13Z</time>
      </trkpt>
      <trkpt lat="44.5006" lon="1.36204">
        <ele>144.8</ele>
        <time>2025-05-29T13:34:14Z</time>
      </trkpt>
      <trkpt lat="44.50059" lon="1.36207">
        <ele>144.8</ele>
        <time>2025-05-29T13:34:15Z</time>
      </trkpt>
      <trkpt lat="44.50057" lon="1.36209">
        <ele>145</ele>
        <time>2025-05-29T13:34:16Z</time>
      </trkpt>
      <trkpt lat="44.50054" lon="1.36211">
        <ele>145</ele>
        <time>2025-05-29T13:34:17Z</time>
      </trkpt>
      <trkpt lat="44.50052" lon="1.36213">
        <ele>145.2</ele>
        <time>2025-05-29T13:34:18Z</time>
      </trkpt>
      <trkpt lat="44.5005" lon="1.36215">
        <ele>145.4</ele>
        <time>2025-05-29T13:34:19Z</time>
      </trkpt>
      <trkpt lat="44.50048" lon="1.36218">
        <ele>145.4</ele>
        <time>2025-05-29T13:34:20Z</time>
      </trkpt>
      <trkpt lat="44.50046" lon="1.3622">
        <ele>145.6</ele>
        <time>2025-05-29T13:34:21Z</time>
      </trkpt>
      <trkpt lat="44.50044" lon="1.36222">
        <ele>145.6</ele>
        <time>2025-05-29T13:34:22Z</time>
      </trkpt>
      <trkpt lat="44.50041" lon="1.36224">
        <ele>145.6</ele>
        <time>2025-05-29T13:34:23Z</time>
      </trkpt>
      <trkpt lat="44.50039" lon="1.36226">
        <ele>145.6</ele>
        <time>2025-05-29T13:34:24Z</time>
      </trkpt>
      <trkpt lat="44.50037" lon="1.36229">
        <ele>145.8</ele>
        <time>2025-05-29T13:34:25Z</time>
      </trkpt>
      <trkpt lat="44.50034" lon="1.36231">
        <ele>146</ele>
        <time>2025-05-29T13:34:26Z</time>
      </trkpt>
      <trkpt lat="44.50032" lon="1.36233">
        <ele>146.2</ele>
        <time>2025-05-29T13:34:27Z</time>
      </trkpt>
      <trkpt lat="44.50029" lon="1.36235">
        <ele>146.4</ele>
        <time>2025-05-29T13:34:28Z</time>
      </trkpt>
      <trkpt lat="44.50027" lon="1.36238">
        <ele>146.4</ele>
        <time>2025-05-29T13:34:29Z</time>
      </trkpt>
      <trkpt lat="44.50024" lon="1.3624">
        <ele>146.4</ele>
        <time>2025-05-29T13:34:30Z</time>
      </trkpt>
      <trkpt lat="44.50022" lon="1.36242">
        <ele>146.2</ele>
        <time>2025-05-29T13:34:31Z</time>
      </trkpt>
      <trkpt lat="44.50019" lon="1.36244">
        <ele>146.4</ele>
        <time>2025-05-29T13:34:32Z</time>
      </trkpt>
      <trkpt lat="44.50017" lon="1.36246">
        <ele>146.6</ele>
        <time>2025-05-29T13:34:33Z</time>
      </trkpt>
      <trkpt lat="44.50014" lon="1.36248">
        <ele>147</ele>
        <time>2025-05-29T13:34:34Z</time>
      </trkpt>
      <trkpt lat="44.50011" lon="1.3625">
        <ele>147</ele>
        <time>2025-05-29T13:34:35Z</time>
      </trkpt>
      <trkpt lat="44.50008" lon="1.36252">
        <ele>147.2</ele>
        <time>2025-05-29T13:34:36Z</time>
      </trkpt>
      <trkpt lat="44.50005" lon="1.36253">
        <ele>147.2</ele>
        <time>2025-05-29T13:34:37Z</time>
      </trkpt>
      <trkpt lat="44.50001" lon="1.36255">
        <ele>147.2</ele>
        <time>2025-05-29T13:34:38Z</time>
      </trkpt>
      <trkpt lat="44.49998" lon="1.36256">
        <ele>147.2</ele>
        <time>2025-05-29T13:34:39Z</time>
      </trkpt>
      <trkpt lat="44.49994" lon="1.36257">
        <ele>147.2</ele>
        <time>2025-05-29T13:34:40Z</time>
      </trkpt>
      <trkpt lat="44.49991" lon="1.36258">
        <ele>147.2</ele>
        <time>2025-05-29T13:34:41Z</time>
      </trkpt>
      <trkpt lat="44.49987" lon="1.36258">
        <ele>147.2</ele>
        <time>2025-05-29T13:34:42Z</time>
      </trkpt>
      <trkpt lat="44.49983" lon="1.36258">
        <ele>147.2</ele>
        <time>2025-05-29T13:34:43Z</time>
      </trkpt>
      <trkpt lat="44.49979" lon="1.36257">
        <ele>147.2</ele>
        <time>2025-05-29T13:34:44Z</time>
      </trkpt>
      <trkpt lat="44.49974" lon="1.36257">
        <ele>147.2</ele>
        <time>2025-05-29T13:34:45Z</time>
      </trkpt>
      <trkpt lat="44.49969" lon="1.36257">
        <ele>147.2</ele>
        <time>2025-05-29T13:34:46Z</time>
      </trkpt>
      <trkpt lat="44.49965" lon="1.36257">
        <ele>147.2</ele>
        <time>2025-05-29T13:34:47Z</time>
      </trkpt>
      <trkpt lat="44.49962" lon="1.36259">
        <ele>147</ele>
        <time>2025-05-29T13:34:48Z</time>
      </trkpt>
      <trkpt lat="44.49961" lon="1.36262">
        <ele>146.8</ele>
        <time>2025-05-29T13:34:49Z</time>
      </trkpt>
      <trkpt lat="44.49963" lon="1.36265">
        <ele>146.4</ele>
        <time>2025-05-29T13:34:50Z</time>
      </trkpt>
      <trkpt lat="44.49966" lon="1.36268">
        <ele>146.2</ele>
        <time>2025-05-29T13:34:51Z</time>
      </trkpt>
      <trkpt lat="44.49969" lon="1.3627">
        <ele>145.8</ele>
        <time>2025-05-29T13:34:52Z</time>
      </trkpt>
      <trkpt lat="44.49973" lon="1.36274">
        <ele>145.4</ele>
        <time>2025-05-29T13:34:53Z</time>
      </trkpt>
      <trkpt lat="44.49978" lon="1.36277">
        <ele>144.8</ele>
        <time>2025-05-29T13:34:54Z</time>
      </trkpt>
      <trkpt lat="44.49982" lon="1.36281">
        <ele>144.2</ele>
        <time>2025-05-29T13:34:55Z</time>
      </trkpt>
      <trkpt lat="44.49986" lon="1.36284">
        <ele>143.8</ele>
        <time>2025-05-29T13:34:56Z</time>
      </trkpt>
      <trkpt lat="44.49991" lon="1.36289">
        <ele>143.4</ele>
        <time>2025-05-29T13:34:57Z</time>
      </trkpt>
      <trkpt lat="44.49995" lon="1.36294">
        <ele>143.4</ele>
        <time>2025-05-29T13:34:58Z</time>
      </trkpt>
      <trkpt lat="44.5" lon="1.36299">
        <ele>143.2</ele>
        <time>2025-05-29T13:34:59Z</time>
      </trkpt>
      <trkpt lat="44.50005" lon="1.36303">
        <ele>143</ele>
        <time>2025-05-29T13:35:00Z</time>
      </trkpt>
      <trkpt lat="44.5001" lon="1.36309">
        <ele>142.4</ele>
        <time>2025-05-29T13:35:01Z</time>
      </trkpt>
      <trkpt lat="44.50015" lon="1.36313">
        <ele>142</ele>
        <time>2025-05-29T13:35:02Z</time>
      </trkpt>
      <trkpt lat="44.5002" lon="1.36318">
        <ele>141.6</ele>
        <time>2025-05-29T13:35:03Z</time>
      </trkpt>
      <trkpt lat="44.50026" lon="1.36323">
        <ele>141</ele>
        <time>2025-05-29T13:35:04Z</time>
      </trkpt>
      <trkpt lat="44.50031" lon="1.36328">
        <ele>140.4</ele>
        <time>2025-05-29T13:35:05Z</time>
      </trkpt>
      <trkpt lat="44.50036" lon="1.36333">
        <ele>140</ele>
        <time>2025-05-29T13:35:06Z</time>
      </trkpt>
      <trkpt lat="44.50042" lon="1.36339">
        <ele>139.8</ele>
        <time>2025-05-29T13:35:07Z</time>
      </trkpt>
      <trkpt lat="44.50047" lon="1.36345">
        <ele>139.6</ele>
        <time>2025-05-29T13:35:08Z</time>
      </trkpt>
      <trkpt lat="44.50052" lon="1.36351">
        <ele>139.4</ele>
        <time>2025-05-29T13:35:09Z</time>
      </trkpt>
      <trkpt lat="44.50058" lon="1.36356">
        <ele>139.2</ele>
        <time>2025-05-29T13:35:10Z</time>
      </trkpt>
      <trkpt lat="44.50063" lon="1.36362">
        <ele>138.8</ele>
        <time>2025-05-29T13:35:11Z</time>
      </trkpt>
      <trkpt lat="44.50069" lon="1.36368">
        <ele>138.6</ele>
        <time>2025-05-29T13:35:12Z</time>
      </trkpt>
      <trkpt lat="44.50075" lon="1.36373">
        <ele>138.4</ele>
        <time>2025-05-29T13:35:13Z</time>
      </trkpt>
      <trkpt lat="44.50081" lon="1.36379">
        <ele>138</ele>
        <time>2025-05-29T13:35:14Z</time>
      </trkpt>
      <trkpt lat="44.50087" lon="1.36384">
        <ele>137.8</ele>
        <time>2025-05-29T13:35:15Z</time>
      </trkpt>
      <trkpt lat="44.50092" lon="1.36391">
        <ele>137.6</ele>
        <time>2025-05-29T13:35:16Z</time>
      </trkpt>
      <trkpt lat="44.50095" lon="1.36399">
        <ele>137.4</ele>
        <time>2025-05-29T13:35:17Z</time>
      </trkpt>
      <trkpt lat="44.50098" lon="1.36407">
        <ele>137.4</ele>
        <time>2025-05-29T13:35:18Z</time>
      </trkpt>
      <trkpt lat="44.50101" lon="1.36414">
        <ele>137.4</ele>
        <time>2025-05-29T13:35:19Z</time>
      </trkpt>
      <trkpt lat="44.50104" lon="1.36421">
        <ele>137.2</ele>
        <time>2025-05-29T13:35:20Z</time>
      </trkpt>
      <trkpt lat="44.50108" lon="1.36427">
        <ele>137.2</ele>
        <time>2025-05-29T13:35:21Z</time>
      </trkpt>
      <trkpt lat="44.50111" lon="1.36432">
        <ele>137.2</ele>
        <time>2025-05-29T13:35:22Z</time>
      </trkpt>
      <trkpt lat="44.50114" lon="1.36437">
        <ele>137.2</ele>
        <time>2025-05-29T13:35:23Z</time>
      </trkpt>
      <trkpt lat="44.50118" lon="1.36442">
        <ele>137.4</ele>
        <time>2025-05-29T13:35:24Z</time>
      </trkpt>
      <trkpt lat="44.50121" lon="1.36446">
        <ele>137.4</ele>
        <time>2025-05-29T13:35:25Z</time>
      </trkpt>
      <trkpt lat="44.50124" lon="1.36451">
        <ele>137.6</ele>
        <time>2025-05-29T13:35:26Z</time>
      </trkpt>
      <trkpt lat="44.50127" lon="1.36455">
        <ele>137.8</ele>
        <time>2025-05-29T13:35:27Z</time>
      </trkpt>
      <trkpt lat="44.50129" lon="1.36458">
        <ele>138</ele>
        <time>2025-05-29T13:35:28Z</time>
      </trkpt>
      <trkpt lat="44.50132" lon="1.36461">
        <ele>138.2</ele>
        <time>2025-05-29T13:35:29Z</time>
      </trkpt>
      <trkpt lat="44.50133" lon="1.36464">
        <ele>138.4</ele>
        <time>2025-05-29T13:35:30Z</time>
      </trkpt>
      <trkpt lat="44.50135" lon="1.36467">
        <ele>138.8</ele>
        <time>2025-05-29T13:35:31Z</time>
      </trkpt>
      <trkpt lat="44.50137" lon="1.36469">
        <ele>139.2</ele>
        <time>2025-05-29T13:35:32Z</time>
      </trkpt>
      <trkpt lat="44.50138" lon="1.36471">
        <ele>139.4</ele>
        <time>2025-05-29T13:35:33Z</time>
      </trkpt>
      <trkpt lat="44.5014" lon="1.36473">
        <ele>139.6</ele>
        <time>2025-05-29T13:35:34Z</time>
      </trkpt>
      <trkpt lat="44.50141" lon="1.36475">
        <ele>139.6</ele>
        <time>2025-05-29T13:35:35Z</time>
      </trkpt>
      <trkpt lat="44.50143" lon="1.36477">
        <ele>139.6</ele>
        <time>2025-05-29T13:35:36Z</time>
      </trkpt>
      <trkpt lat="44.50143" lon="1.36478">
        <ele>139.8</ele>
        <time>2025-05-29T13:35:37Z</time>
      </trkpt>
      <trkpt lat="44.50144" lon="1.36479">
        <ele>140</ele>
        <time>2025-05-29T13:35:38Z</time>
      </trkpt>
      <trkpt lat="44.50143" lon="1.36479">
        <ele>140</ele>
        <time>2025-05-29T13:35:39Z</time>
      </trkpt>
      <trkpt lat="44.50146" lon="1.36482">
        <ele>139.4</ele>
        <time>2025-05-29T13:36:21Z</time>
      </trkpt>
      <trkpt lat="44.50148" lon="1.36485">
        <ele>139.6</ele>
        <time>2025-05-29T13:36:22Z</time>
      </trkpt>
      <trkpt lat="44.50151" lon="1.36487">
        <ele>139.6</ele>
        <time>2025-05-29T13:36:23Z</time>
      </trkpt>
      <trkpt lat="44.50153" lon="1.36489">
        <ele>139.6</ele>
        <time>2025-05-29T13:36:24Z</time>
      </trkpt>
      <trkpt lat="44.50155" lon="1.3649">
        <ele>139.4</ele>
        <time>2025-05-29T13:36:25Z</time>
      </trkpt>
      <trkpt lat="44.50158" lon="1.36491">
        <ele>139.4</ele>
        <time>2025-05-29T13:36:26Z</time>
      </trkpt>
      <trkpt lat="44.5016" lon="1.36494">
        <ele>139.4</ele>
        <time>2025-05-29T13:36:27Z</time>
      </trkpt>
      <trkpt lat="44.50162" lon="1.36497">
        <ele>139.4</ele>
        <time>2025-05-29T13:36:28Z</time>
      </trkpt>
      <trkpt lat="44.50165" lon="1.365">
        <ele>139.4</ele>
        <time>2025-05-29T13:36:29Z</time>
      </trkpt>
      <trkpt lat="44.50167" lon="1.36503">
        <ele>139.4</ele>
        <time>2025-05-29T13:36:30Z</time>
      </trkpt>
      <trkpt lat="44.5017" lon="1.36506">
        <ele>139.4</ele>
        <time>2025-05-29T13:36:31Z</time>
      </trkpt>
      <trkpt lat="44.50173" lon="1.36509">
        <ele>139.2</ele>
        <time>2025-05-29T13:36:32Z</time>
      </trkpt>
      <trkpt lat="44.50176" lon="1.36513">
        <ele>139</ele>
        <time>2025-05-29T13:36:33Z</time>
      </trkpt>
      <trkpt lat="44.5018" lon="1.36517">
        <ele>138.8</ele>
        <time>2025-05-29T13:36:34Z</time>
      </trkpt>
      <trkpt lat="44.50184" lon="1.36522">
        <ele>138.4</ele>
        <time>2025-05-29T13:36:35Z</time>
      </trkpt>
      <trkpt lat="44.50188" lon="1.36527">
        <ele>138</ele>
        <time>2025-05-29T13:36:36Z</time>
      </trkpt>
      <trkpt lat="44.50192" lon="1.36532">
        <ele>137.4</ele>
        <time>2025-05-29T13:36:37Z</time>
      </trkpt>
      <trkpt lat="44.50197" lon="1.36537">
        <ele>137</ele>
        <time>2025-05-29T13:36:38Z</time>
      </trkpt>
      <trkpt lat="44.50201" lon="1.36542">
        <ele>136.6</ele>
        <time>2025-05-29T13:36:39Z</time>
      </trkpt>
      <trkpt lat="44.50206" lon="1.36548">
        <ele>136.2</ele>
        <time>2025-05-29T13:36:40Z</time>
      </trkpt>
      <trkpt lat="44.50211" lon="1.36554">
        <ele>135.8</ele>
        <time>2025-05-29T13:36:41Z</time>
      </trkpt>
      <trkpt lat="44.50216" lon="1.36559">
        <ele>135.4</ele>
        <time>2025-05-29T13:36:42Z</time>
      </trkpt>
      <trkpt lat="44.50221" lon="1.36565">
        <ele>135.2</ele>
        <time>2025-05-29T13:36:43Z</time>
      </trkpt>
      <trkpt lat="44.50226" lon="1.3657">
        <ele>135</ele>
        <time>2025-05-29T13:36:44Z</time>
      </trkpt>
      <trkpt lat="44.50231" lon="1.36576">
        <ele>135</ele>
        <time>2025-05-29T13:36:45Z</time>
      </trkpt>
      <trkpt lat="44.50235" lon="1.36581">
        <ele>135</ele>
        <time>2025-05-29T13:36:46Z</time>
      </trkpt>
      <trkpt lat="44.5024" lon="1.36587">
        <ele>134.8</ele>
        <time>2025-05-29T13:36:47Z</time>
      </trkpt>
      <trkpt lat="44.50244" lon="1.36592">
        <ele>134.6</ele>
        <time>2025-05-29T13:36:48Z</time>
      </trkpt>
      <trkpt lat="44.50249" lon="1.36597">
        <ele>134.6</ele>
        <time>2025-05-29T13:36:49Z</time>
      </trkpt>
      <trkpt lat="44.50252" lon="1.36602">
        <ele>134.4</ele>
        <time>2025-05-29T13:36:50Z</time>
      </trkpt>
      <trkpt lat="44.50256" lon="1.36607">
        <ele>134.2</ele>
        <time>2025-05-29T13:36:51Z</time>
      </trkpt>
      <trkpt lat="44.5026" lon="1.36611">
        <ele>134.2</ele>
        <time>2025-05-29T13:36:52Z</time>
      </trkpt>
      <trkpt lat="44.50262" lon="1.36616">
        <ele>134.2</ele>
        <time>2025-05-29T13:36:53Z</time>
      </trkpt>
      <trkpt lat="44.50265" lon="1.3662">
        <ele>134.4</ele>
        <time>2025-05-29T13:36:54Z</time>
      </trkpt>
      <trkpt lat="44.50268" lon="1.36623">
        <ele>134.4</ele>
        <time>2025-05-29T13:36:55Z</time>
      </trkpt>
      <trkpt lat="44.50271" lon="1.36627">
        <ele>134.4</ele>
        <time>2025-05-29T13:36:56Z</time>
      </trkpt>
      <trkpt lat="44.50273" lon="1.3663">
        <ele>134.6</ele>
        <time>2025-05-29T13:36:57Z</time>
      </trkpt>
      <trkpt lat="44.50276" lon="1.36634">
        <ele>134.6</ele>
        <time>2025-05-29T13:36:58Z</time>
      </trkpt>
      <trkpt lat="44.50278" lon="1.36637">
        <ele>134.6</ele>
        <time>2025-05-29T13:36:59Z</time>
      </trkpt>
      <trkpt lat="44.50281" lon="1.3664">
        <ele>134.6</ele>
        <time>2025-05-29T13:37:00Z</time>
      </trkpt>
      <trkpt lat="44.50283" lon="1.36643">
        <ele>134.8</ele>
        <time>2025-05-29T13:37:01Z</time>
      </trkpt>
      <trkpt lat="44.50285" lon="1.36647">
        <ele>134.8</ele>
        <time>2025-05-29T13:37:02Z</time>
      </trkpt>
      <trkpt lat="44.50287" lon="1.3665">
        <ele>135</ele>
        <time>2025-05-29T13:37:03Z</time>
      </trkpt>
      <trkpt lat="44.50289" lon="1.36653">
        <ele>135.2</ele>
        <time>2025-05-29T13:37:04Z</time>
      </trkpt>
      <trkpt lat="44.50292" lon="1.36656">
        <ele>135.2</ele>
        <time>2025-05-29T13:37:05Z</time>
      </trkpt>
      <trkpt lat="44.50294" lon="1.36659">
        <ele>135.4</ele>
        <time>2025-05-29T13:37:06Z</time>
      </trkpt>
      <trkpt lat="44.50297" lon="1.36663">
        <ele>135.6</ele>
        <time>2025-05-29T13:37:07Z</time>
      </trkpt>
      <trkpt lat="44.50299" lon="1.36666">
        <ele>135.6</ele>
        <time>2025-05-29T13:37:08Z</time>
      </trkpt>
      <trkpt lat="44.50302" lon="1.3667">
        <ele>135.8</ele>
        <time>2025-05-29T13:37:09Z</time>
      </trkpt>
      <trkpt lat="44.50304" lon="1.36674">
        <ele>136</ele>
        <time>2025-05-29T13:37:10Z</time>
      </trkpt>
      <trkpt lat="44.50306" lon="1.36678">
        <ele>136.2</ele>
        <time>2025-05-29T13:37:11Z</time>
      </trkpt>
      <trkpt lat="44.50308" lon="1.36681">
        <ele>136.6</ele>
        <time>2025-05-29T13:37:12Z</time>
      </trkpt>
      <trkpt lat="44.5031" lon="1.36684">
        <ele>136.8</ele>
        <time>2025-05-29T13:37:13Z</time>
      </trkpt>
      <trkpt lat="44.50313" lon="1.36687">
        <ele>137.2</ele>
        <time>2025-05-29T13:37:14Z</time>
      </trkpt>
      <trkpt lat="44.50315" lon="1.3669">
        <ele>137.4</ele>
        <time>2025-05-29T13:37:15Z</time>
      </trkpt>
      <trkpt lat="44.50317" lon="1.36694">
        <ele>137.6</ele>
        <time>2025-05-29T13:37:16Z</time>
      </trkpt>
      <trkpt lat="44.50319" lon="1.36697">
        <ele>137.8</ele>
        <time>2025-05-29T13:37:17Z</time>
      </trkpt>
      <trkpt lat="44.50321" lon="1.367">
        <ele>138.2</ele>
        <time>2025-05-29T13:37:18Z</time>
      </trkpt>
      <trkpt lat="44.50323" lon="1.36703">
        <ele>138.4</ele>
        <time>2025-05-29T13:37:19Z</time>
      </trkpt>
      <trkpt lat="44.50325" lon="1.36705">
        <ele>138.6</ele>
        <time>2025-05-29T13:37:20Z</time>
      </trkpt>
      <trkpt lat="44.50328" lon="1.36706">
        <ele>138.8</ele>
        <time>2025-05-29T13:37:21Z</time>
      </trkpt>
      <trkpt lat="44.50331" lon="1.36707">
        <ele>139</ele>
        <time>2025-05-29T13:37:22Z</time>
      </trkpt>
      <trkpt lat="44.50334" lon="1.36706">
        <ele>139</ele>
        <time>2025-05-29T13:37:23Z</time>
      </trkpt>
      <trkpt lat="44.50337" lon="1.36705">
        <ele>139</ele>
        <time>2025-05-29T13:37:24Z</time>
      </trkpt>
      <trkpt lat="44.50339" lon="1.36702">
        <ele>139.2</ele>
        <time>2025-05-29T13:37:25Z</time>
      </trkpt>
      <trkpt lat="44.50341" lon="1.36698">
        <ele>139.2</ele>
        <time>2025-05-29T13:37:26Z</time>
      </trkpt>
      <trkpt lat="44.50343" lon="1.36694">
        <ele>139.2</ele>
        <time>2025-05-29T13:37:27Z</time>
      </trkpt>
      <trkpt lat="44.50344" lon="1.3669">
        <ele>139.2</ele>
        <time>2025-05-29T13:37:28Z</time>
      </trkpt>
      <trkpt lat="44.50345" lon="1.36686">
        <ele>139.2</ele>
        <time>2025-05-29T13:37:29Z</time>
      </trkpt>
      <trkpt lat="44.50346" lon="1.36682">
        <ele>139.2</ele>
        <time>2025-05-29T13:37:30Z</time>
      </trkpt>
      <trkpt lat="44.50347" lon="1.36677">
        <ele>139.2</ele>
        <time>2025-05-29T13:37:31Z</time>
      </trkpt>
      <trkpt lat="44.50349" lon="1.36673">
        <ele>139.2</ele>
        <time>2025-05-29T13:37:32Z</time>
      </trkpt>
      <trkpt lat="44.5035" lon="1.36669">
        <ele>139</ele>
        <time>2025-05-29T13:37:33Z</time>
      </trkpt>
      <trkpt lat="44.50352" lon="1.36664">
        <ele>139</ele>
        <time>2025-05-29T13:37:34Z</time>
      </trkpt>
      <trkpt lat="44.50353" lon="1.3666">
        <ele>138.8</ele>
        <time>2025-05-29T13:37:35Z</time>
      </trkpt>
      <trkpt lat="44.50355" lon="1.36655">
        <ele>138.8</ele>
        <time>2025-05-29T13:37:36Z</time>
      </trkpt>
      <trkpt lat="44.50356" lon="1.3665">
        <ele>138.8</ele>
        <time>2025-05-29T13:37:37Z</time>
      </trkpt>
      <trkpt lat="44.50357" lon="1.36646">
        <ele>138.6</ele>
        <time>2025-05-29T13:37:38Z</time>
      </trkpt>
      <trkpt lat="44.50358" lon="1.36642">
        <ele>138.6</ele>
        <time>2025-05-29T13:37:39Z</time>
      </trkpt>
      <trkpt lat="44.5036" lon="1.36637">
        <ele>138.4</ele>
        <time>2025-05-29T13:37:40Z</time>
      </trkpt>
      <trkpt lat="44.50361" lon="1.36632">
        <ele>138.4</ele>
        <time>2025-05-29T13:37:41Z</time>
      </trkpt>
      <trkpt lat="44.50362" lon="1.36627">
        <ele>138.4</ele>
        <time>2025-05-29T13:37:42Z</time>
      </trkpt>
      <trkpt lat="44.50363" lon="1.36622">
        <ele>138.4</ele>
        <time>2025-05-29T13:37:43Z</time>
      </trkpt>
      <trkpt lat="44.50365" lon="1.36618">
        <ele>138.4</ele>
        <time>2025-05-29T13:37:44Z</time>
      </trkpt>
      <trkpt lat="44.50366" lon="1.36613">
        <ele>138.4</ele>
        <time>2025-05-29T13:37:45Z</time>
      </trkpt>
      <trkpt lat="44.50367" lon="1.36608">
        <ele>138.4</ele>
        <time>2025-05-29T13:37:46Z</time>
      </trkpt>
      <trkpt lat="44.50369" lon="1.36604">
        <ele>138.6</ele>
        <time>2025-05-29T13:37:47Z</time>
      </trkpt>
      <trkpt lat="44.5037" lon="1.366">
        <ele>138.8</ele>
        <time>2025-05-29T13:37:48Z</time>
      </trkpt>
      <trkpt lat="44.50372" lon="1.36595">
        <ele>138.8</ele>
        <time>2025-05-29T13:37:49Z</time>
      </trkpt>
      <trkpt lat="44.50373" lon="1.36591">
        <ele>139</ele>
        <time>2025-05-29T13:37:50Z</time>
      </trkpt>
      <trkpt lat="44.50374" lon="1.36587">
        <ele>139</ele>
        <time>2025-05-29T13:37:51Z</time>
      </trkpt>
      <trkpt lat="44.50375" lon="1.36582">
        <ele>139</ele>
        <time>2025-05-29T13:37:52Z</time>
      </trkpt>
      <trkpt lat="44.50376" lon="1.36577">
        <ele>139.2</ele>
        <time>2025-05-29T13:37:53Z</time>
      </trkpt>
      <trkpt lat="44.50377" lon="1.36572">
        <ele>139.2</ele>
        <time>2025-05-29T13:37:54Z</time>
      </trkpt>
      <trkpt lat="44.50378" lon="1.36568">
        <ele>139.4</ele>
        <time>2025-05-29T13:37:55Z</time>
      </trkpt>
      <trkpt lat="44.50379" lon="1.36563">
        <ele>139.8</ele>
        <time>2025-05-29T13:37:56Z</time>
      </trkpt>
      <trkpt lat="44.5038" lon="1.36558">
        <ele>140</ele>
        <time>2025-05-29T13:37:57Z</time>
      </trkpt>
      <trkpt lat="44.5038" lon="1.36554">
        <ele>140</ele>
        <time>2025-05-29T13:37:58Z</time>
      </trkpt>
      <trkpt lat="44.50381" lon="1.36548">
        <ele>140.2</ele>
        <time>2025-05-29T13:37:59Z</time>
      </trkpt>
      <trkpt lat="44.50382" lon="1.36543">
        <ele>140.2</ele>
        <time>2025-05-29T13:38:00Z</time>
      </trkpt>
      <trkpt lat="44.50383" lon="1.36537">
        <ele>140</ele>
        <time>2025-05-29T13:38:01Z</time>
      </trkpt>
      <trkpt lat="44.50385" lon="1.3653">
        <ele>139.8</ele>
        <time>2025-05-29T13:38:02Z</time>
      </trkpt>
      <trkpt lat="44.50387" lon="1.36524">
        <ele>139.4</ele>
        <time>2025-05-29T13:38:03Z</time>
      </trkpt>
      <trkpt lat="44.50389" lon="1.36517">
        <ele>139.2</ele>
        <time>2025-05-29T13:38:04Z</time>
      </trkpt>
      <trkpt lat="44.50392" lon="1.3651">
        <ele>138.8</ele>
        <time>2025-05-29T13:38:05Z</time>
      </trkpt>
      <trkpt lat="44.50395" lon="1.36503">
        <ele>138.6</ele>
        <time>2025-05-29T13:38:06Z</time>
      </trkpt>
      <trkpt lat="44.50397" lon="1.36495">
        <ele>138.2</ele>
        <time>2025-05-29T13:38:07Z</time>
      </trkpt>
      <trkpt lat="44.504" lon="1.36488">
        <ele>138</ele>
        <time>2025-05-29T13:38:08Z</time>
      </trkpt>
      <trkpt lat="44.50404" lon="1.36481">
        <ele>138</ele>
        <time>2025-05-29T13:38:09Z</time>
      </trkpt>
      <trkpt lat="44.50408" lon="1.36475">
        <ele>137.8</ele>
        <time>2025-05-29T13:38:10Z</time>
      </trkpt>
      <trkpt lat="44.50413" lon="1.36471">
        <ele>137.8</ele>
        <time>2025-05-29T13:38:11Z</time>
      </trkpt>
      <trkpt lat="44.50417" lon="1.36467">
        <ele>137.8</ele>
        <time>2025-05-29T13:38:12Z</time>
      </trkpt>
      <trkpt lat="44.50419" lon="1.36464">
        <ele>137.8</ele>
        <time>2025-05-29T13:38:13Z</time>
      </trkpt>
      <trkpt lat="44.50422" lon="1.36463">
        <ele>138</ele>
        <time>2025-05-29T13:38:14Z</time>
      </trkpt>
      <trkpt lat="44.50424" lon="1.36463">
        <ele>138.2</ele>
        <time>2025-05-29T13:38:15Z</time>
      </trkpt>
      <trkpt lat="44.50426" lon="1.36464">
        <ele>138.4</ele>
        <time>2025-05-29T13:38:16Z</time>
      </trkpt>
      <trkpt lat="44.50428" lon="1.36465">
        <ele>138.6</ele>
        <time>2025-05-29T13:38:17Z</time>
      </trkpt>
      <trkpt lat="44.50429" lon="1.36466">
        <ele>138.8</ele>
        <time>2025-05-29T13:38:18Z</time>
      </trkpt>
      <trkpt lat="44.5043" lon="1.36468">
        <ele>138.8</ele>
        <time>2025-05-29T13:38:19Z</time>
      </trkpt>
      <trkpt lat="44.5043" lon="1.3647">
        <ele>139</ele>
        <time>2025-05-29T13:38:20Z</time>
      </trkpt>
      <trkpt lat="44.5043" lon="1.36472">
        <ele>139.2</ele>
        <time>2025-05-29T13:38:21Z</time>
      </trkpt>
      <trkpt lat="44.5043" lon="1.36475">
        <ele>139.4</ele>
        <time>2025-05-29T13:38:22Z</time>
      </trkpt>
      <trkpt lat="44.5043" lon="1.36477">
        <ele>139.8</ele>
        <time>2025-05-29T13:38:23Z</time>
      </trkpt>
      <trkpt lat="44.5043" lon="1.36479">
        <ele>140</ele>
        <time>2025-05-29T13:38:24Z</time>
      </trkpt>
      <trkpt lat="44.5043" lon="1.36481">
        <ele>140.4</ele>
        <time>2025-05-29T13:38:25Z</time>
      </trkpt>
      <trkpt lat="44.5043" lon="1.36483">
        <ele>140.8</ele>
        <time>2025-05-29T13:38:26Z</time>
      </trkpt>
      <trkpt lat="44.5043" lon="1.36486">
        <ele>141</ele>
        <time>2025-05-29T13:38:27Z</time>
      </trkpt>
      <trkpt lat="44.50429" lon="1.36488">
        <ele>141.4</ele>
        <time>2025-05-29T13:38:28Z</time>
      </trkpt>
      <trkpt lat="44.50429" lon="1.3649">
        <ele>141.6</ele>
        <time>2025-05-29T13:38:29Z</time>
      </trkpt>
      <trkpt lat="44.50429" lon="1.36492">
        <ele>141.8</ele>
        <time>2025-05-29T13:38:30Z</time>
      </trkpt>
      <trkpt lat="44.50428" lon="1.36495">
        <ele>142</ele>
        <time>2025-05-29T13:38:31Z</time>
      </trkpt>
      <trkpt lat="44.50428" lon="1.36497">
        <ele>142.2</ele>
        <time>2025-05-29T13:38:32Z</time>
      </trkpt>
      <trkpt lat="44.50428" lon="1.36499">
        <ele>142.4</ele>
        <time>2025-05-29T13:38:33Z</time>
      </trkpt>
      <trkpt lat="44.50428" lon="1.36501">
        <ele>142.6</ele>
        <time>2025-05-29T13:38:34Z</time>
      </trkpt>
      <trkpt lat="44.50429" lon="1.36503">
        <ele>142.8</ele>
        <time>2025-05-29T13:38:35Z</time>
      </trkpt>
      <trkpt lat="44.50429" lon="1.36505">
        <ele>143</ele>
        <time>2025-05-29T13:38:36Z</time>
      </trkpt>
      <trkpt lat="44.50429" lon="1.36508">
        <ele>143.2</ele>
        <time>2025-05-29T13:38:37Z</time>
      </trkpt>
      <trkpt lat="44.50429" lon="1.3651">
        <ele>143.4</ele>
        <time>2025-05-29T13:38:38Z</time>
      </trkpt>
      <trkpt lat="44.5043" lon="1.36513">
        <ele>143.6</ele>
        <time>2025-05-29T13:38:39Z</time>
      </trkpt>
      <trkpt lat="44.5043" lon="1.36515">
        <ele>143.8</ele>
        <time>2025-05-29T13:38:40Z</time>
      </trkpt>
      <trkpt lat="44.50431" lon="1.36516">
        <ele>144</ele>
        <time>2025-05-29T13:38:41Z</time>
      </trkpt>
      <trkpt lat="44.50431" lon="1.36518">
        <ele>144.2</ele>
        <time>2025-05-29T13:38:42Z</time>
      </trkpt>
      <trkpt lat="44.50432" lon="1.3652">
        <ele>144.4</ele>
        <time>2025-05-29T13:38:43Z</time>
      </trkpt>
      <trkpt lat="44.50432" lon="1.36523">
        <ele>144.6</ele>
        <time>2025-05-29T13:38:44Z</time>
      </trkpt>
      <trkpt lat="44.50432" lon="1.36525">
        <ele>145</ele>
        <time>2025-05-29T13:38:45Z</time>
      </trkpt>
      <trkpt lat="44.50432" lon="1.36527">
        <ele>145.2</ele>
        <time>2025-05-29T13:38:46Z</time>
      </trkpt>
      <trkpt lat="44.50433" lon="1.36529">
        <ele>145.4</ele>
        <time>2025-05-29T13:38:47Z</time>
      </trkpt>
      <trkpt lat="44.50433" lon="1.36531">
        <ele>145.6</ele>
        <time>2025-05-29T13:38:48Z</time>
      </trkpt>
      <trkpt lat="44.50434" lon="1.36534">
        <ele>145.8</ele>
        <time>2025-05-29T13:38:49Z</time>
      </trkpt>
      <trkpt lat="44.50434" lon="1.36535">
        <ele>146</ele>
        <time>2025-05-29T13:38:50Z</time>
      </trkpt>
      <trkpt lat="44.50434" lon="1.36538">
        <ele>146.2</ele>
        <time>2025-05-29T13:38:51Z</time>
      </trkpt>
      <trkpt lat="44.50434" lon="1.3654">
        <ele>146.2</ele>
        <time>2025-05-29T13:38:52Z</time>
      </trkpt>
      <trkpt lat="44.50435" lon="1.36542">
        <ele>146.4</ele>
        <time>2025-05-29T13:38:53Z</time>
      </trkpt>
      <trkpt lat="44.50435" lon="1.36544">
        <ele>146.6</ele>
        <time>2025-05-29T13:38:54Z</time>
      </trkpt>
      <trkpt lat="44.50435" lon="1.36546">
        <ele>146.8</ele>
        <time>2025-05-29T13:38:55Z</time>
      </trkpt>
      <trkpt lat="44.50436" lon="1.36548">
        <ele>146.8</ele>
        <time>2025-05-29T13:38:56Z</time>
      </trkpt>
      <trkpt lat="44.50436" lon="1.36551">
        <ele>147</ele>
        <time>2025-05-29T13:38:57Z</time>
      </trkpt>
      <trkpt lat="44.50437" lon="1.36553">
        <ele>147.2</ele>
        <time>2025-05-29T13:38:58Z</time>
      </trkpt>
      <trkpt lat="44.50437" lon="1.36555">
        <ele>147.4</ele>
        <time>2025-05-29T13:38:59Z</time>
      </trkpt>
      <trkpt lat="44.50437" lon="1.36557">
        <ele>147.6</ele>
        <time>2025-05-29T13:39:00Z</time>
      </trkpt>
      <trkpt lat="44.50438" lon="1.36559">
        <ele>147.8</ele>
        <time>2025-05-29T13:39:01Z</time>
      </trkpt>
      <trkpt lat="44.50439" lon="1.36561">
        <ele>148</ele>
        <time>2025-05-29T13:39:02Z</time>
      </trkpt>
      <trkpt lat="44.50439" lon="1.36563">
        <ele>148</ele>
        <time>2025-05-29T13:39:03Z</time>
      </trkpt>
      <trkpt lat="44.50441" lon="1.36565">
        <ele>148.2</ele>
        <time>2025-05-29T13:39:04Z</time>
      </trkpt>
      <trkpt lat="44.50442" lon="1.36566">
        <ele>148.4</ele>
        <time>2025-05-29T13:39:05Z</time>
      </trkpt>
      <trkpt lat="44.50443" lon="1.36567">
        <ele>148.8</ele>
        <time>2025-05-29T13:39:06Z</time>
      </trkpt>
      <trkpt lat="44.50444" lon="1.36568">
        <ele>148.8</ele>
        <time>2025-05-29T13:39:07Z</time>
      </trkpt>
      <trkpt lat="44.50446" lon="1.36568">
        <ele>149</ele>
        <time>2025-05-29T13:39:08Z</time>
      </trkpt>
      <trkpt lat="44.50447" lon="1.36569">
        <ele>149</ele>
        <time>2025-05-29T13:39:09Z</time>
      </trkpt>
      <trkpt lat="44.50448" lon="1.3657">
        <ele>149.2</ele>
        <time>2025-05-29T13:39:10Z</time>
      </trkpt>
      <trkpt lat="44.5045" lon="1.3657">
        <ele>149.2</ele>
        <time>2025-05-29T13:39:11Z</time>
      </trkpt>
      <trkpt lat="44.50451" lon="1.36571">
        <ele>149.2</ele>
        <time>2025-05-29T13:39:12Z</time>
      </trkpt>
      <trkpt lat="44.50452" lon="1.36572">
        <ele>149.2</ele>
        <time>2025-05-29T13:39:13Z</time>
      </trkpt>
      <trkpt lat="44.50454" lon="1.36573">
        <ele>149.2</ele>
        <time>2025-05-29T13:39:14Z</time>
      </trkpt>
      <trkpt lat="44.50455" lon="1.36574">
        <ele>149.4</ele>
        <time>2025-05-29T13:39:15Z</time>
      </trkpt>
      <trkpt lat="44.50456" lon="1.36575">
        <ele>149.6</ele>
        <time>2025-05-29T13:39:16Z</time>
      </trkpt>
      <trkpt lat="44.50458" lon="1.36576">
        <ele>149.8</ele>
        <time>2025-05-29T13:39:17Z</time>
      </trkpt>
      <trkpt lat="44.50459" lon="1.36577">
        <ele>150</ele>
        <time>2025-05-29T13:39:18Z</time>
      </trkpt>
      <trkpt lat="44.5046" lon="1.36578">
        <ele>150.2</ele>
        <time>2025-05-29T13:39:19Z</time>
      </trkpt>
      <trkpt lat="44.50461" lon="1.36579">
        <ele>150.4</ele>
        <time>2025-05-29T13:39:20Z</time>
      </trkpt>
      <trkpt lat="44.50463" lon="1.3658">
        <ele>150.8</ele>
        <time>2025-05-29T13:39:21Z</time>
      </trkpt>
      <trkpt lat="44.50464" lon="1.36581">
        <ele>151</ele>
        <time>2025-05-29T13:39:22Z</time>
      </trkpt>
      <trkpt lat="44.50465" lon="1.36582">
        <ele>151.2</ele>
        <time>2025-05-29T13:39:23Z</time>
      </trkpt>
      <trkpt lat="44.50466" lon="1.36582">
        <ele>151.4</ele>
        <time>2025-05-29T13:39:24Z</time>
      </trkpt>
      <trkpt lat="44.50467" lon="1.36583">
        <ele>151.6</ele>
        <time>2025-05-29T13:39:25Z</time>
      </trkpt>
      <trkpt lat="44.50468" lon="1.36584">
        <ele>151.8</ele>
        <time>2025-05-29T13:39:26Z</time>
      </trkpt>
      <trkpt lat="44.5047" lon="1.36585">
        <ele>152</ele>
        <time>2025-05-29T13:39:27Z</time>
      </trkpt>
      <trkpt lat="44.50471" lon="1.36587">
        <ele>152.2</ele>
        <time>2025-05-29T13:39:28Z</time>
      </trkpt>
      <trkpt lat="44.50471" lon="1.36589">
        <ele>152.4</ele>
        <time>2025-05-29T13:39:29Z</time>
      </trkpt>
      <trkpt lat="44.50471" lon="1.36591">
        <ele>152.6</ele>
        <time>2025-05-29T13:39:30Z</time>
      </trkpt>
      <trkpt lat="44.50471" lon="1.36594">
        <ele>152.6</ele>
        <time>2025-05-29T13:39:31Z</time>
      </trkpt>
      <trkpt lat="44.50471" lon="1.36596">
        <ele>152.8</ele>
        <time>2025-05-29T13:39:32Z</time>
      </trkpt>
      <trkpt lat="44.50471" lon="1.36598">
        <ele>152.8</ele>
        <time>2025-05-29T13:39:33Z</time>
      </trkpt>
      <trkpt lat="44.50471" lon="1.366">
        <ele>153</ele>
        <time>2025-05-29T13:39:34Z</time>
      </trkpt>
      <trkpt lat="44.50471" lon="1.36603">
        <ele>153</ele>
        <time>2025-05-29T13:39:35Z</time>
      </trkpt>
      <trkpt lat="44.50471" lon="1.36605">
        <ele>153.2</ele>
        <time>2025-05-29T13:39:36Z</time>
      </trkpt>
      <trkpt lat="44.50472" lon="1.36607">
        <ele>153.2</ele>
        <time>2025-05-29T13:39:37Z</time>
      </trkpt>
      <trkpt lat="44.50473" lon="1.36609">
        <ele>153.6</ele>
        <time>2025-05-29T13:39:38Z</time>
      </trkpt>
      <trkpt lat="44.50474" lon="1.36611">
        <ele>153.8</ele>
        <time>2025-05-29T13:39:39Z</time>
      </trkpt>
      <trkpt lat="44.50475" lon="1.36613">
        <ele>153.8</ele>
        <time>2025-05-29T13:39:40Z</time>
      </trkpt>
      <trkpt lat="44.50476" lon="1.36614">
        <ele>154</ele>
        <time>2025-05-29T13:39:41Z</time>
      </trkpt>
      <trkpt lat="44.50477" lon="1.36615">
        <ele>154</ele>
        <time>2025-05-29T13:39:42Z</time>
      </trkpt>
      <trkpt lat="44.50478" lon="1.36616">
        <ele>154</ele>
        <time>2025-05-29T13:39:43Z</time>
      </trkpt>
      <trkpt lat="44.5048" lon="1.36616">
        <ele>154.2</ele>
        <time>2025-05-29T13:39:44Z</time>
      </trkpt>
      <trkpt lat="44.50481" lon="1.36617">
        <ele>154.4</ele>
        <time>2025-05-29T13:39:45Z</time>
      </trkpt>
      <trkpt lat="44.50483" lon="1.36617">
        <ele>154.4</ele>
        <time>2025-05-29T13:39:46Z</time>
      </trkpt>
      <trkpt lat="44.50484" lon="1.36618">
        <ele>154.6</ele>
        <time>2025-05-29T13:39:47Z</time>
      </trkpt>
      <trkpt lat="44.50486" lon="1.36619">
        <ele>154.8</ele>
        <time>2025-05-29T13:39:48Z</time>
      </trkpt>
      <trkpt lat="44.50487" lon="1.3662">
        <ele>155</ele>
        <time>2025-05-29T13:39:49Z</time>
      </trkpt>
      <trkpt lat="44.50489" lon="1.36621">
        <ele>155</ele>
        <time>2025-05-29T13:39:50Z</time>
      </trkpt>
      <trkpt lat="44.5049" lon="1.36622">
        <ele>155.2</ele>
        <time>2025-05-29T13:39:51Z</time>
      </trkpt>
      <trkpt lat="44.50491" lon="1.36624">
        <ele>155.2</ele>
        <time>2025-05-29T13:39:52Z</time>
      </trkpt>
      <trkpt lat="44.50492" lon="1.36625">
        <ele>155.2</ele>
        <time>2025-05-29T13:39:53Z</time>
      </trkpt>
      <trkpt lat="44.50494" lon="1.36626">
        <ele>155.6</ele>
        <time>2025-05-29T13:39:54Z</time>
      </trkpt>
      <trkpt lat="44.50495" lon="1.36628">
        <ele>155.8</ele>
        <time>2025-05-29T13:39:55Z</time>
      </trkpt>
      <trkpt lat="44.50496" lon="1.36629">
        <ele>156</ele>
        <time>2025-05-29T13:39:56Z</time>
      </trkpt>
      <trkpt lat="44.50497" lon="1.36631">
        <ele>156.2</ele>
        <time>2025-05-29T13:39:57Z</time>
      </trkpt>
      <trkpt lat="44.50498" lon="1.36632">
        <ele>156.2</ele>
        <time>2025-05-29T13:39:58Z</time>
      </trkpt>
      <trkpt lat="44.505" lon="1.36633">
        <ele>156.4</ele>
        <time>2025-05-29T13:39:59Z</time>
      </trkpt>
      <trkpt lat="44.50501" lon="1.36634">
        <ele>156.6</ele>
        <time>2025-05-29T13:40:00Z</time>
      </trkpt>
      <trkpt lat="44.50503" lon="1.36635">
        <ele>156.6</ele>
        <time>2025-05-29T13:40:01Z</time>
      </trkpt>
      <trkpt lat="44.50504" lon="1.36636">
        <ele>156.8</ele>
        <time>2025-05-29T13:40:02Z</time>
      </trkpt>
      <trkpt lat="44.50505" lon="1.36636">
        <ele>156.8</ele>
        <time>2025-05-29T13:40:03Z</time>
      </trkpt>
      <trkpt lat="44.50507" lon="1.36637">
        <ele>157</ele>
        <time>2025-05-29T13:40:04Z</time>
      </trkpt>
      <trkpt lat="44.50509" lon="1.36638">
        <ele>157.2</ele>
        <time>2025-05-29T13:40:05Z</time>
      </trkpt>
      <trkpt lat="44.5051" lon="1.36638">
        <ele>157.2</ele>
        <time>2025-05-29T13:40:06Z</time>
      </trkpt>
      <trkpt lat="44.50512" lon="1.36638">
        <ele>157.4</ele>
        <time>2025-05-29T13:40:07Z</time>
      </trkpt>
      <trkpt lat="44.50513" lon="1.36638">
        <ele>157.6</ele>
        <time>2025-05-29T13:40:08Z</time>
      </trkpt>
      <trkpt lat="44.50514" lon="1.36637">
        <ele>158</ele>
        <time>2025-05-29T13:40:09Z</time>
      </trkpt>
      <trkpt lat="44.50516" lon="1.36636">
        <ele>158.2</ele>
        <time>2025-05-29T13:40:10Z</time>
      </trkpt>
      <trkpt lat="44.50517" lon="1.36635">
        <ele>158.6</ele>
        <time>2025-05-29T13:40:11Z</time>
      </trkpt>
      <trkpt lat="44.50518" lon="1.36634">
        <ele>159</ele>
        <time>2025-05-29T13:40:12Z</time>
      </trkpt>
      <trkpt lat="44.50519" lon="1.36633">
        <ele>159.2</ele>
        <time>2025-05-29T13:40:13Z</time>
      </trkpt>
      <trkpt lat="44.50521" lon="1.36633">
        <ele>159.6</ele>
        <time>2025-05-29T13:40:14Z</time>
      </trkpt>
      <trkpt lat="44.50522" lon="1.36631">
        <ele>160</ele>
        <time>2025-05-29T13:40:15Z</time>
      </trkpt>
      <trkpt lat="44.50523" lon="1.3663">
        <ele>160.2</ele>
        <time>2025-05-29T13:40:16Z</time>
      </trkpt>
      <trkpt lat="44.50524" lon="1.36629">
        <ele>160.4</ele>
        <time>2025-05-29T13:40:17Z</time>
      </trkpt>
      <trkpt lat="44.50525" lon="1.36629">
        <ele>160.4</ele>
        <time>2025-05-29T13:40:18Z</time>
      </trkpt>
      <trkpt lat="44.50527" lon="1.36628">
        <ele>160.6</ele>
        <time>2025-05-29T13:40:19Z</time>
      </trkpt>
      <trkpt lat="44.50528" lon="1.36629">
        <ele>160.8</ele>
        <time>2025-05-29T13:40:20Z</time>
      </trkpt>
      <trkpt lat="44.50529" lon="1.36629">
        <ele>161</ele>
        <time>2025-05-29T13:40:21Z</time>
      </trkpt>
      <trkpt lat="44.50531" lon="1.3663">
        <ele>161</ele>
        <time>2025-05-29T13:40:22Z</time>
      </trkpt>
      <trkpt lat="44.50531" lon="1.36632">
        <ele>161.2</ele>
        <time>2025-05-29T13:40:23Z</time>
      </trkpt>
      <trkpt lat="44.50532" lon="1.36633">
        <ele>161.4</ele>
        <time>2025-05-29T13:40:24Z</time>
      </trkpt>
      <trkpt lat="44.50533" lon="1.36634">
        <ele>161.6</ele>
        <time>2025-05-29T13:40:25Z</time>
      </trkpt>
      <trkpt lat="44.50534" lon="1.36635">
        <ele>162</ele>
        <time>2025-05-29T13:40:26Z</time>
      </trkpt>
      <trkpt lat="44.50535" lon="1.36636">
        <ele>162.2</ele>
        <time>2025-05-29T13:40:27Z</time>
      </trkpt>
      <trkpt lat="44.50536" lon="1.36637">
        <ele>162.6</ele>
        <time>2025-05-29T13:40:28Z</time>
      </trkpt>
      <trkpt lat="44.50537" lon="1.36638">
        <ele>162.8</ele>
        <time>2025-05-29T13:40:29Z</time>
      </trkpt>
      <trkpt lat="44.50538" lon="1.36639">
        <ele>163</ele>
        <time>2025-05-29T13:40:30Z</time>
      </trkpt>
      <trkpt lat="44.5054" lon="1.3664">
        <ele>163.2</ele>
        <time>2025-05-29T13:40:31Z</time>
      </trkpt>
      <trkpt lat="44.50541" lon="1.36641">
        <ele>163.2</ele>
        <time>2025-05-29T13:40:32Z</time>
      </trkpt>
      <trkpt lat="44.50542" lon="1.36641">
        <ele>163.2</ele>
        <time>2025-05-29T13:40:33Z</time>
      </trkpt>
      <trkpt lat="44.50543" lon="1.36642">
        <ele>163.2</ele>
        <time>2025-05-29T13:40:34Z</time>
      </trkpt>
      <trkpt lat="44.50545" lon="1.36642">
        <ele>163.2</ele>
        <time>2025-05-29T13:40:35Z</time>
      </trkpt>
      <trkpt lat="44.50546" lon="1.36642">
        <ele>163.2</ele>
        <time>2025-05-29T13:40:36Z</time>
      </trkpt>
      <trkpt lat="44.50548" lon="1.36643">
        <ele>163.2</ele>
        <time>2025-05-29T13:40:37Z</time>
      </trkpt>
      <trkpt lat="44.50549" lon="1.36643">
        <ele>163.4</ele>
        <time>2025-05-29T13:40:38Z</time>
      </trkpt>
      <trkpt lat="44.5055" lon="1.36643">
        <ele>163.6</ele>
        <time>2025-05-29T13:40:39Z</time>
      </trkpt>
      <trkpt lat="44.50552" lon="1.36643">
        <ele>163.8</ele>
        <time>2025-05-29T13:40:40Z</time>
      </trkpt>
      <trkpt lat="44.50553" lon="1.36643">
        <ele>164</ele>
        <time>2025-05-29T13:40:41Z</time>
      </trkpt>
      <trkpt lat="44.50555" lon="1.36644">
        <ele>164.4</ele>
        <time>2025-05-29T13:40:42Z</time>
      </trkpt>
      <trkpt lat="44.50556" lon="1.36644">
        <ele>164.4</ele>
        <time>2025-05-29T13:40:43Z</time>
      </trkpt>
      <trkpt lat="44.50557" lon="1.36645">
        <ele>164.6</ele>
        <time>2025-05-29T13:40:44Z</time>
      </trkpt>
      <trkpt lat="44.50559" lon="1.36646">
        <ele>164.8</ele>
        <time>2025-05-29T13:40:45Z</time>
      </trkpt>
      <trkpt lat="44.5056" lon="1.36646">
        <ele>165</ele>
        <time>2025-05-29T13:40:46Z</time>
      </trkpt>
      <trkpt lat="44.50561" lon="1.36647">
        <ele>165.4</ele>
        <time>2025-05-29T13:40:47Z</time>
      </trkpt>
      <trkpt lat="44.50563" lon="1.36647">
        <ele>165.6</ele>
        <time>2025-05-29T13:40:48Z</time>
      </trkpt>
      <trkpt lat="44.50564" lon="1.36647">
        <ele>165.8</ele>
        <time>2025-05-29T13:40:49Z</time>
      </trkpt>
      <trkpt lat="44.50566" lon="1.36648">
        <ele>166</ele>
        <time>2025-05-29T13:40:50Z</time>
      </trkpt>
      <trkpt lat="44.50567" lon="1.36647">
        <ele>166.2</ele>
        <time>2025-05-29T13:40:51Z</time>
      </trkpt>
      <trkpt lat="44.50569" lon="1.36647">
        <ele>166.6</ele>
        <time>2025-05-29T13:40:52Z</time>
      </trkpt>
      <trkpt lat="44.5057" lon="1.36647">
        <ele>166.8</ele>
        <time>2025-05-29T13:40:53Z</time>
      </trkpt>
      <trkpt lat="44.50572" lon="1.36646">
        <ele>167</ele>
        <time>2025-05-29T13:40:54Z</time>
      </trkpt>
      <trkpt lat="44.50573" lon="1.36646">
        <ele>167.2</ele>
        <time>2025-05-29T13:40:55Z</time>
      </trkpt>
      <trkpt lat="44.50574" lon="1.36645">
        <ele>167.2</ele>
        <time>2025-05-29T13:40:56Z</time>
      </trkpt>
      <trkpt lat="44.50576" lon="1.36644">
        <ele>167.4</ele>
        <time>2025-05-29T13:40:57Z</time>
      </trkpt>
      <trkpt lat="44.50577" lon="1.36643">
        <ele>167.6</ele>
        <time>2025-05-29T13:40:58Z</time>
      </trkpt>
      <trkpt lat="44.50578" lon="1.36642">
        <ele>167.8</ele>
        <time>2025-05-29T13:40:59Z</time>
      </trkpt>
      <trkpt lat="44.50579" lon="1.36641">
        <ele>168</ele>
        <time>2025-05-29T13:41:00Z</time>
      </trkpt>
      <trkpt lat="44.5058" lon="1.36639">
        <ele>168.4</ele>
        <time>2025-05-29T13:41:01Z</time>
      </trkpt>
      <trkpt lat="44.5058" lon="1.36638">
        <ele>168.6</ele>
        <time>2025-05-29T13:41:02Z</time>
      </trkpt>
      <trkpt lat="44.5058" lon="1.36637">
        <ele>169</ele>
        <time>2025-05-29T13:41:03Z</time>
      </trkpt>
      <trkpt lat="44.50581" lon="1.36635">
        <ele>169.2</ele>
        <time>2025-05-29T13:41:04Z</time>
      </trkpt>
      <trkpt lat="44.50581" lon="1.36634">
        <ele>169.4</ele>
        <time>2025-05-29T13:41:05Z</time>
      </trkpt>
      <trkpt lat="44.50582" lon="1.36632">
        <ele>169.6</ele>
        <time>2025-05-29T13:41:06Z</time>
      </trkpt>
      <trkpt lat="44.50583" lon="1.3663">
        <ele>169.6</ele>
        <time>2025-05-29T13:41:07Z</time>
      </trkpt>
      <trkpt lat="44.50584" lon="1.36628">
        <ele>169.6</ele>
        <time>2025-05-29T13:41:08Z</time>
      </trkpt>
      <trkpt lat="44.50585" lon="1.36627">
        <ele>169.6</ele>
        <time>2025-05-29T13:41:09Z</time>
      </trkpt>
      <trkpt lat="44.50586" lon="1.36626">
        <ele>169.6</ele>
        <time>2025-05-29T13:41:10Z</time>
      </trkpt>
      <trkpt lat="44.50588" lon="1.36625">
        <ele>169.6</ele>
        <time>2025-05-29T13:41:11Z</time>
      </trkpt>
      <trkpt lat="44.50589" lon="1.36626">
        <ele>169.6</ele>
        <time>2025-05-29T13:41:12Z</time>
      </trkpt>
      <trkpt lat="44.50591" lon="1.36626">
        <ele>169.6</ele>
        <time>2025-05-29T13:41:13Z</time>
      </trkpt>
      <trkpt lat="44.50592" lon="1.36626">
        <ele>169.6</ele>
        <time>2025-05-29T13:41:14Z</time>
      </trkpt>
      <trkpt lat="44.50593" lon="1.36626">
        <ele>169.8</ele>
        <time>2025-05-29T13:41:15Z</time>
      </trkpt>
      <trkpt lat="44.50595" lon="1.36627">
        <ele>170</ele>
        <time>2025-05-29T13:41:16Z</time>
      </trkpt>
      <trkpt lat="44.50597" lon="1.36627">
        <ele>170</ele>
        <time>2025-05-29T13:41:17Z</time>
      </trkpt>
      <trkpt lat="44.50598" lon="1.36627">
        <ele>170.2</ele>
        <time>2025-05-29T13:41:18Z</time>
      </trkpt>
      <trkpt lat="44.50599" lon="1.36627">
        <ele>170.6</ele>
        <time>2025-05-29T13:41:19Z</time>
      </trkpt>
      <trkpt lat="44.50601" lon="1.36628">
        <ele>170.8</ele>
        <time>2025-05-29T13:41:20Z</time>
      </trkpt>
      <trkpt lat="44.50602" lon="1.36629">
        <ele>171</ele>
        <time>2025-05-29T13:41:21Z</time>
      </trkpt>
      <trkpt lat="44.50603" lon="1.3663">
        <ele>171.2</ele>
        <time>2025-05-29T13:41:22Z</time>
      </trkpt>
      <trkpt lat="44.50605" lon="1.3663">
        <ele>171.4</ele>
        <time>2025-05-29T13:41:23Z</time>
      </trkpt>
      <trkpt lat="44.50606" lon="1.36631">
        <ele>171.6</ele>
        <time>2025-05-29T13:41:24Z</time>
      </trkpt>
      <trkpt lat="44.50608" lon="1.36631">
        <ele>171.6</ele>
        <time>2025-05-29T13:41:25Z</time>
      </trkpt>
      <trkpt lat="44.50609" lon="1.36631">
        <ele>171.8</ele>
        <time>2025-05-29T13:41:26Z</time>
      </trkpt>
      <trkpt lat="44.5061" lon="1.36632">
        <ele>172</ele>
        <time>2025-05-29T13:41:27Z</time>
      </trkpt>
      <trkpt lat="44.50612" lon="1.36632">
        <ele>172.4</ele>
        <time>2025-05-29T13:41:28Z</time>
      </trkpt>
      <trkpt lat="44.50613" lon="1.36632">
        <ele>172.6</ele>
        <time>2025-05-29T13:41:29Z</time>
      </trkpt>
      <trkpt lat="44.50615" lon="1.36633">
        <ele>172.8</ele>
        <time>2025-05-29T13:41:30Z</time>
      </trkpt>
      <trkpt lat="44.50616" lon="1.36633">
        <ele>173.2</ele>
        <time>2025-05-29T13:41:31Z</time>
      </trkpt>
      <trkpt lat="44.50618" lon="1.36633">
        <ele>173.6</ele>
        <time>2025-05-29T13:41:32Z</time>
      </trkpt>
      <trkpt lat="44.50619" lon="1.36632">
        <ele>173.8</ele>
        <time>2025-05-29T13:41:33Z</time>
      </trkpt>
      <trkpt lat="44.5062" lon="1.36632">
        <ele>174.2</ele>
        <time>2025-05-29T13:41:34Z</time>
      </trkpt>
      <trkpt lat="44.50621" lon="1.36633">
        <ele>174.4</ele>
        <time>2025-05-29T13:41:35Z</time>
      </trkpt>
      <trkpt lat="44.50622" lon="1.36633">
        <ele>174.6</ele>
        <time>2025-05-29T13:41:36Z</time>
      </trkpt>
      <trkpt lat="44.50624" lon="1.36633">
        <ele>174.8</ele>
        <time>2025-05-29T13:41:37Z</time>
      </trkpt>
      <trkpt lat="44.50625" lon="1.36633">
        <ele>175</ele>
        <time>2025-05-29T13:41:38Z</time>
      </trkpt>
      <trkpt lat="44.50626" lon="1.36634">
        <ele>175.2</ele>
        <time>2025-05-29T13:41:39Z</time>
      </trkpt>
      <trkpt lat="44.50627" lon="1.36635">
        <ele>175.4</ele>
        <time>2025-05-29T13:41:40Z</time>
      </trkpt>
      <trkpt lat="44.50629" lon="1.36635">
        <ele>175.6</ele>
        <time>2025-05-29T13:41:41Z</time>
      </trkpt>
      <trkpt lat="44.5063" lon="1.36636">
        <ele>175.8</ele>
        <time>2025-05-29T13:41:42Z</time>
      </trkpt>
      <trkpt lat="44.50631" lon="1.36636">
        <ele>176</ele>
        <time>2025-05-29T13:41:43Z</time>
      </trkpt>
      <trkpt lat="44.50633" lon="1.36636">
        <ele>176.2</ele>
        <time>2025-05-29T13:41:44Z</time>
      </trkpt>
      <trkpt lat="44.50634" lon="1.36636">
        <ele>176.4</ele>
        <time>2025-05-29T13:41:45Z</time>
      </trkpt>
      <trkpt lat="44.50635" lon="1.36637">
        <ele>176.6</ele>
        <time>2025-05-29T13:41:46Z</time>
      </trkpt>
      <trkpt lat="44.50637" lon="1.36637">
        <ele>176.8</ele>
        <time>2025-05-29T13:41:47Z</time>
      </trkpt>
      <trkpt lat="44.50638" lon="1.36637">
        <ele>177</ele>
        <time>2025-05-29T13:41:48Z</time>
      </trkpt>
      <trkpt lat="44.5064" lon="1.36637">
        <ele>177.4</ele>
        <time>2025-05-29T13:41:49Z</time>
      </trkpt>
      <trkpt lat="44.50641" lon="1.36636">
        <ele>177.6</ele>
        <time>2025-05-29T13:41:50Z</time>
      </trkpt>
      <trkpt lat="44.50642" lon="1.36636">
        <ele>177.8</ele>
        <time>2025-05-29T13:41:51Z</time>
      </trkpt>
      <trkpt lat="44.50644" lon="1.36635">
        <ele>178</ele>
        <time>2025-05-29T13:41:52Z</time>
      </trkpt>
      <trkpt lat="44.50645" lon="1.36635">
        <ele>178.2</ele>
        <time>2025-05-29T13:41:53Z</time>
      </trkpt>
      <trkpt lat="44.50646" lon="1.36634">
        <ele>178.2</ele>
        <time>2025-05-29T13:41:54Z</time>
      </trkpt>
      <trkpt lat="44.50647" lon="1.36634">
        <ele>178.4</ele>
        <time>2025-05-29T13:41:55Z</time>
      </trkpt>
      <trkpt lat="44.50649" lon="1.36634">
        <ele>178.4</ele>
        <time>2025-05-29T13:41:56Z</time>
      </trkpt>
      <trkpt lat="44.5065" lon="1.36634">
        <ele>178.4</ele>
        <time>2025-05-29T13:41:57Z</time>
      </trkpt>
      <trkpt lat="44.50651" lon="1.36634">
        <ele>178.6</ele>
        <time>2025-05-29T13:41:58Z</time>
      </trkpt>
      <trkpt lat="44.50652" lon="1.36634">
        <ele>178.8</ele>
        <time>2025-05-29T13:41:59Z</time>
      </trkpt>
      <trkpt lat="44.50654" lon="1.36635">
        <ele>179</ele>
        <time>2025-05-29T13:42:00Z</time>
      </trkpt>
      <trkpt lat="44.50655" lon="1.36635">
        <ele>179.2</ele>
        <time>2025-05-29T13:42:01Z</time>
      </trkpt>
      <trkpt lat="44.50656" lon="1.36636">
        <ele>179.4</ele>
        <time>2025-05-29T13:42:02Z</time>
      </trkpt>
      <trkpt lat="44.50658" lon="1.36637">
        <ele>179.6</ele>
        <time>2025-05-29T13:42:03Z</time>
      </trkpt>
      <trkpt lat="44.50659" lon="1.36637">
        <ele>179.8</ele>
        <time>2025-05-29T13:42:04Z</time>
      </trkpt>
      <trkpt lat="44.5066" lon="1.36637">
        <ele>180</ele>
        <time>2025-05-29T13:42:05Z</time>
      </trkpt>
      <trkpt lat="44.50662" lon="1.36637">
        <ele>180.2</ele>
        <time>2025-05-29T13:42:06Z</time>
      </trkpt>
      <trkpt lat="44.50663" lon="1.36638">
        <ele>180.4</ele>
        <time>2025-05-29T13:42:07Z</time>
      </trkpt>
      <trkpt lat="44.50664" lon="1.36638">
        <ele>180.4</ele>
        <time>2025-05-29T13:42:08Z</time>
      </trkpt>
      <trkpt lat="44.50666" lon="1.36638">
        <ele>180.6</ele>
        <time>2025-05-29T13:42:09Z</time>
      </trkpt>
      <trkpt lat="44.50667" lon="1.36638">
        <ele>180.6</ele>
        <time>2025-05-29T13:42:10Z</time>
      </trkpt>
      <trkpt lat="44.50668" lon="1.36639">
        <ele>180.8</ele>
        <time>2025-05-29T13:42:11Z</time>
      </trkpt>
      <trkpt lat="44.5067" lon="1.36639">
        <ele>181</ele>
        <time>2025-05-29T13:42:12Z</time>
      </trkpt>
      <trkpt lat="44.50671" lon="1.3664">
        <ele>181.2</ele>
        <time>2025-05-29T13:42:13Z</time>
      </trkpt>
      <trkpt lat="44.50672" lon="1.3664">
        <ele>181.4</ele>
        <time>2025-05-29T13:42:14Z</time>
      </trkpt>
      <trkpt lat="44.50674" lon="1.36641">
        <ele>181.6</ele>
        <time>2025-05-29T13:42:15Z</time>
      </trkpt>
      <trkpt lat="44.50675" lon="1.36641">
        <ele>181.8</ele>
        <time>2025-05-29T13:42:16Z</time>
      </trkpt>
      <trkpt lat="44.50676" lon="1.36642">
        <ele>182</ele>
        <time>2025-05-29T13:42:17Z</time>
      </trkpt>
      <trkpt lat="44.50678" lon="1.36643">
        <ele>182.2</ele>
        <time>2025-05-29T13:42:18Z</time>
      </trkpt>
      <trkpt lat="44.50679" lon="1.36644">
        <ele>182.4</ele>
        <time>2025-05-29T13:42:19Z</time>
      </trkpt>
      <trkpt lat="44.5068" lon="1.36646">
        <ele>182.6</ele>
        <time>2025-05-29T13:42:20Z</time>
      </trkpt>
      <trkpt lat="44.50681" lon="1.36647">
        <ele>182.6</ele>
        <time>2025-05-29T13:42:21Z</time>
      </trkpt>
      <trkpt lat="44.50683" lon="1.36649">
        <ele>182.8</ele>
        <time>2025-05-29T13:42:22Z</time>
      </trkpt>
      <trkpt lat="44.50684" lon="1.36651">
        <ele>183</ele>
        <time>2025-05-29T13:42:23Z</time>
      </trkpt>
      <trkpt lat="44.50685" lon="1.36653">
        <ele>183</ele>
        <time>2025-05-29T13:42:24Z</time>
      </trkpt>
      <trkpt lat="44.50685" lon="1.36655">
        <ele>183.2</ele>
        <time>2025-05-29T13:42:25Z</time>
      </trkpt>
      <trkpt lat="44.50686" lon="1.36657">
        <ele>183.2</ele>
        <time>2025-05-29T13:42:26Z</time>
      </trkpt>
      <trkpt lat="44.50688" lon="1.36658">
        <ele>183.2</ele>
        <time>2025-05-29T13:42:27Z</time>
      </trkpt>
      <trkpt lat="44.50689" lon="1.3666">
        <ele>183.4</ele>
        <time>2025-05-29T13:42:28Z</time>
      </trkpt>
      <trkpt lat="44.5069" lon="1.36661">
        <ele>183.4</ele>
        <time>2025-05-29T13:42:29Z</time>
      </trkpt>
      <trkpt lat="44.50691" lon="1.36662">
        <ele>183.4</ele>
        <time>2025-05-29T13:42:30Z</time>
      </trkpt>
      <trkpt lat="44.50693" lon="1.36662">
        <ele>183.6</ele>
        <time>2025-05-29T13:42:31Z</time>
      </trkpt>
      <trkpt lat="44.50694" lon="1.36662">
        <ele>183.6</ele>
        <time>2025-05-29T13:42:32Z</time>
      </trkpt>
      <trkpt lat="44.50695" lon="1.36662">
        <ele>183.8</ele>
        <time>2025-05-29T13:42:33Z</time>
      </trkpt>
      <trkpt lat="44.50697" lon="1.36661">
        <ele>183.8</ele>
        <time>2025-05-29T13:42:34Z</time>
      </trkpt>
      <trkpt lat="44.50698" lon="1.36661">
        <ele>184</ele>
        <time>2025-05-29T13:42:35Z</time>
      </trkpt>
      <trkpt lat="44.507" lon="1.36661">
        <ele>184</ele>
        <time>2025-05-29T13:42:36Z</time>
      </trkpt>
      <trkpt lat="44.50702" lon="1.3666">
        <ele>184.2</ele>
        <time>2025-05-29T13:42:37Z</time>
      </trkpt>
      <trkpt lat="44.50703" lon="1.3666">
        <ele>184.2</ele>
        <time>2025-05-29T13:42:38Z</time>
      </trkpt>
      <trkpt lat="44.50705" lon="1.36659">
        <ele>184.4</ele>
        <time>2025-05-29T13:42:39Z</time>
      </trkpt>
      <trkpt lat="44.50706" lon="1.36658">
        <ele>184.4</ele>
        <time>2025-05-29T13:42:40Z</time>
      </trkpt>
      <trkpt lat="44.50708" lon="1.36657">
        <ele>184.6</ele>
        <time>2025-05-29T13:42:41Z</time>
      </trkpt>
      <trkpt lat="44.50709" lon="1.36656">
        <ele>184.6</ele>
        <time>2025-05-29T13:42:42Z</time>
      </trkpt>
      <trkpt lat="44.5071" lon="1.36655">
        <ele>184.8</ele>
        <time>2025-05-29T13:42:43Z</time>
      </trkpt>
      <trkpt lat="44.50712" lon="1.36653">
        <ele>184.8</ele>
        <time>2025-05-29T13:42:44Z</time>
      </trkpt>
      <trkpt lat="44.50713" lon="1.36652">
        <ele>185</ele>
        <time>2025-05-29T13:42:45Z</time>
      </trkpt>
      <trkpt lat="44.50714" lon="1.3665">
        <ele>185.2</ele>
        <time>2025-05-29T13:42:46Z</time>
      </trkpt>
      <trkpt lat="44.50715" lon="1.36649">
        <ele>185.4</ele>
        <time>2025-05-29T13:42:47Z</time>
      </trkpt>
      <trkpt lat="44.50716" lon="1.36648">
        <ele>185.6</ele>
        <time>2025-05-29T13:42:48Z</time>
      </trkpt>
      <trkpt lat="44.50718" lon="1.36646">
        <ele>185.6</ele>
        <time>2025-05-29T13:42:49Z</time>
      </trkpt>
      <trkpt lat="44.50719" lon="1.36645">
        <ele>185.8</ele>
        <time>2025-05-29T13:42:50Z</time>
      </trkpt>
      <trkpt lat="44.5072" lon="1.36645">
        <ele>185.8</ele>
        <time>2025-05-29T13:42:51Z</time>
      </trkpt>
      <trkpt lat="44.50722" lon="1.36644">
        <ele>185.8</ele>
        <time>2025-05-29T13:42:52Z</time>
      </trkpt>
      <trkpt lat="44.50723" lon="1.36643">
        <ele>185.8</ele>
        <time>2025-05-29T13:42:53Z</time>
      </trkpt>
      <trkpt lat="44.50725" lon="1.36642">
        <ele>186</ele>
        <time>2025-05-29T13:42:54Z</time>
      </trkpt>
      <trkpt lat="44.50726" lon="1.36641">
        <ele>186</ele>
        <time>2025-05-29T13:42:55Z</time>
      </trkpt>
      <trkpt lat="44.50728" lon="1.3664">
        <ele>186.2</ele>
        <time>2025-05-29T13:42:56Z</time>
      </trkpt>
      <trkpt lat="44.50729" lon="1.36639">
        <ele>186.2</ele>
        <time>2025-05-29T13:42:57Z</time>
      </trkpt>
      <trkpt lat="44.50731" lon="1.36638">
        <ele>186.4</ele>
        <time>2025-05-29T13:42:58Z</time>
      </trkpt>
      <trkpt lat="44.50732" lon="1.36637">
        <ele>186.4</ele>
        <time>2025-05-29T13:42:59Z</time>
      </trkpt>
      <trkpt lat="44.50734" lon="1.36636">
        <ele>186.6</ele>
        <time>2025-05-29T13:43:00Z</time>
      </trkpt>
      <trkpt lat="44.50735" lon="1.36635">
        <ele>186.6</ele>
        <time>2025-05-29T13:43:01Z</time>
      </trkpt>
      <trkpt lat="44.50736" lon="1.36635">
        <ele>186.8</ele>
        <time>2025-05-29T13:43:02Z</time>
      </trkpt>
      <trkpt lat="44.50737" lon="1.36635">
        <ele>187</ele>
        <time>2025-05-29T13:43:03Z</time>
      </trkpt>
      <trkpt lat="44.50738" lon="1.36634">
        <ele>187.2</ele>
        <time>2025-05-29T13:43:04Z</time>
      </trkpt>
      <trkpt lat="44.5074" lon="1.36634">
        <ele>187.6</ele>
        <time>2025-05-29T13:43:05Z</time>
      </trkpt>
      <trkpt lat="44.50741" lon="1.36633">
        <ele>187.8</ele>
        <time>2025-05-29T13:43:06Z</time>
      </trkpt>
      <trkpt lat="44.50743" lon="1.36633">
        <ele>188.2</ele>
        <time>2025-05-29T13:43:07Z</time>
      </trkpt>
      <trkpt lat="44.50744" lon="1.36632">
        <ele>188.4</ele>
        <time>2025-05-29T13:43:08Z</time>
      </trkpt>
      <trkpt lat="44.50746" lon="1.36632">
        <ele>188.6</ele>
        <time>2025-05-29T13:43:09Z</time>
      </trkpt>
      <trkpt lat="44.50747" lon="1.36632">
        <ele>188.6</ele>
        <time>2025-05-29T13:43:10Z</time>
      </trkpt>
      <trkpt lat="44.50749" lon="1.36633">
        <ele>188.8</ele>
        <time>2025-05-29T13:43:11Z</time>
      </trkpt>
      <trkpt lat="44.5075" lon="1.36633">
        <ele>188.8</ele>
        <time>2025-05-29T13:43:12Z</time>
      </trkpt>
      <trkpt lat="44.50752" lon="1.36633">
        <ele>189</ele>
        <time>2025-05-29T13:43:13Z</time>
      </trkpt>
      <trkpt lat="44.50753" lon="1.36633">
        <ele>189</ele>
        <time>2025-05-29T13:43:14Z</time>
      </trkpt>
      <trkpt lat="44.50754" lon="1.36633">
        <ele>189.2</ele>
        <time>2025-05-29T13:43:15Z</time>
      </trkpt>
      <trkpt lat="44.50756" lon="1.36634">
        <ele>189.4</ele>
        <time>2025-05-29T13:43:16Z</time>
      </trkpt>
      <trkpt lat="44.50758" lon="1.36634">
        <ele>189.6</ele>
        <time>2025-05-29T13:43:17Z</time>
      </trkpt>
      <trkpt lat="44.50759" lon="1.36635">
        <ele>189.6</ele>
        <time>2025-05-29T13:43:18Z</time>
      </trkpt>
      <trkpt lat="44.5076" lon="1.36636">
        <ele>189.8</ele>
        <time>2025-05-29T13:43:19Z</time>
      </trkpt>
      <trkpt lat="44.50762" lon="1.36638">
        <ele>190.2</ele>
        <time>2025-05-29T13:43:20Z</time>
      </trkpt>
      <trkpt lat="44.50763" lon="1.36639">
        <ele>190.4</ele>
        <time>2025-05-29T13:43:21Z</time>
      </trkpt>
      <trkpt lat="44.50765" lon="1.36641">
        <ele>190.6</ele>
        <time>2025-05-29T13:43:22Z</time>
      </trkpt>
      <trkpt lat="44.50766" lon="1.36642">
        <ele>190.8</ele>
        <time>2025-05-29T13:43:23Z</time>
      </trkpt>
      <trkpt lat="44.50768" lon="1.36643">
        <ele>191</ele>
        <time>2025-05-29T13:43:24Z</time>
      </trkpt>
      <trkpt lat="44.50769" lon="1.36645">
        <ele>191.2</ele>
        <time>2025-05-29T13:43:25Z</time>
      </trkpt>
      <trkpt lat="44.5077" lon="1.36647">
        <ele>191.2</ele>
        <time>2025-05-29T13:43:26Z</time>
      </trkpt>
      <trkpt lat="44.50771" lon="1.36648">
        <ele>191.4</ele>
        <time>2025-05-29T13:43:27Z</time>
      </trkpt>
      <trkpt lat="44.50772" lon="1.3665">
        <ele>191.4</ele>
        <time>2025-05-29T13:43:28Z</time>
      </trkpt>
      <trkpt lat="44.50774" lon="1.36652">
        <ele>191.6</ele>
        <time>2025-05-29T13:43:29Z</time>
      </trkpt>
      <trkpt lat="44.50775" lon="1.36653">
        <ele>191.8</ele>
        <time>2025-05-29T13:43:30Z</time>
      </trkpt>
      <trkpt lat="44.50777" lon="1.36655">
        <ele>192</ele>
        <time>2025-05-29T13:43:31Z</time>
      </trkpt>
      <trkpt lat="44.50778" lon="1.36657">
        <ele>192</ele>
        <time>2025-05-29T13:43:32Z</time>
      </trkpt>
      <trkpt lat="44.5078" lon="1.36658">
        <ele>192.2</ele>
        <time>2025-05-29T13:43:33Z</time>
      </trkpt>
      <trkpt lat="44.50782" lon="1.3666">
        <ele>192.2</ele>
        <time>2025-05-29T13:43:34Z</time>
      </trkpt>
      <trkpt lat="44.50784" lon="1.36661">
        <ele>192.4</ele>
        <time>2025-05-29T13:43:35Z</time>
      </trkpt>
      <trkpt lat="44.50785" lon="1.36662">
        <ele>192.4</ele>
        <time>2025-05-29T13:43:36Z</time>
      </trkpt>
      <trkpt lat="44.50787" lon="1.36663">
        <ele>192.4</ele>
        <time>2025-05-29T13:43:37Z</time>
      </trkpt>
      <trkpt lat="44.50789" lon="1.36664">
        <ele>192.6</ele>
        <time>2025-05-29T13:43:38Z</time>
      </trkpt>
      <trkpt lat="44.5079" lon="1.36666">
        <ele>192.6</ele>
        <time>2025-05-29T13:43:39Z</time>
      </trkpt>
      <trkpt lat="44.50792" lon="1.36668">
        <ele>192.6</ele>
        <time>2025-05-29T13:43:40Z</time>
      </trkpt>
      <trkpt lat="44.50793" lon="1.3667">
        <ele>192.8</ele>
        <time>2025-05-29T13:43:41Z</time>
      </trkpt>
      <trkpt lat="44.50794" lon="1.36672">
        <ele>193</ele>
        <time>2025-05-29T13:43:42Z</time>
      </trkpt>
      <trkpt lat="44.50794" lon="1.36674">
        <ele>193.2</ele>
        <time>2025-05-29T13:43:43Z</time>
      </trkpt>
      <trkpt lat="44.50795" lon="1.36676">
        <ele>193.4</ele>
        <time>2025-05-29T13:43:44Z</time>
      </trkpt>
      <trkpt lat="44.50796" lon="1.36679">
        <ele>193.6</ele>
        <time>2025-05-29T13:43:45Z</time>
      </trkpt>
      <trkpt lat="44.50797" lon="1.36682">
        <ele>193.8</ele>
        <time>2025-05-29T13:43:46Z</time>
      </trkpt>
      <trkpt lat="44.50798" lon="1.36684">
        <ele>193.8</ele>
        <time>2025-05-29T13:43:47Z</time>
      </trkpt>
      <trkpt lat="44.50799" lon="1.36686">
        <ele>194</ele>
        <time>2025-05-29T13:43:48Z</time>
      </trkpt>
      <trkpt lat="44.50801" lon="1.36688">
        <ele>194</ele>
        <time>2025-05-29T13:43:49Z</time>
      </trkpt>
      <trkpt lat="44.50802" lon="1.3669">
        <ele>194</ele>
        <time>2025-05-29T13:43:50Z</time>
      </trkpt>
      <trkpt lat="44.50804" lon="1.36692">
        <ele>194</ele>
        <time>2025-05-29T13:43:51Z</time>
      </trkpt>
      <trkpt lat="44.50805" lon="1.36694">
        <ele>194.2</ele>
        <time>2025-05-29T13:43:52Z</time>
      </trkpt>
      <trkpt lat="44.50807" lon="1.36695">
        <ele>194.2</ele>
        <time>2025-05-29T13:43:53Z</time>
      </trkpt>
      <trkpt lat="44.50809" lon="1.36696">
        <ele>194.2</ele>
        <time>2025-05-29T13:43:54Z</time>
      </trkpt>
      <trkpt lat="44.5081" lon="1.36698">
        <ele>194.4</ele>
        <time>2025-05-29T13:43:55Z</time>
      </trkpt>
      <trkpt lat="44.50812" lon="1.36698">
        <ele>194.6</ele>
        <time>2025-05-29T13:43:56Z</time>
      </trkpt>
      <trkpt lat="44.50813" lon="1.36699">
        <ele>194.6</ele>
        <time>2025-05-29T13:43:57Z</time>
      </trkpt>
      <trkpt lat="44.50815" lon="1.36699">
        <ele>194.8</ele>
        <time>2025-05-29T13:43:58Z</time>
      </trkpt>
      <trkpt lat="44.50817" lon="1.36699">
        <ele>194.8</ele>
        <time>2025-05-29T13:43:59Z</time>
      </trkpt>
      <trkpt lat="44.50819" lon="1.36699">
        <ele>195</ele>
        <time>2025-05-29T13:44:00Z</time>
      </trkpt>
      <trkpt lat="44.50821" lon="1.36699">
        <ele>195</ele>
        <time>2025-05-29T13:44:01Z</time>
      </trkpt>
      <trkpt lat="44.50823" lon="1.367">
        <ele>195.4</ele>
        <time>2025-05-29T13:44:02Z</time>
      </trkpt>
      <trkpt lat="44.50825" lon="1.367">
        <ele>195.6</ele>
        <time>2025-05-29T13:44:03Z</time>
      </trkpt>
      <trkpt lat="44.50828" lon="1.36701">
        <ele>195.6</ele>
        <time>2025-05-29T13:44:04Z</time>
      </trkpt>
      <trkpt lat="44.5083" lon="1.367">
        <ele>195.6</ele>
        <time>2025-05-29T13:44:05Z</time>
      </trkpt>
      <trkpt lat="44.50832" lon="1.367">
        <ele>195.6</ele>
        <time>2025-05-29T13:44:06Z</time>
      </trkpt>
      <trkpt lat="44.50834" lon="1.36699">
        <ele>195.6</ele>
        <time>2025-05-29T13:44:07Z</time>
      </trkpt>
      <trkpt lat="44.50836" lon="1.36698">
        <ele>195.6</ele>
        <time>2025-05-29T13:44:08Z</time>
      </trkpt>
      <trkpt lat="44.50838" lon="1.36697">
        <ele>195.6</ele>
        <time>2025-05-29T13:44:09Z</time>
      </trkpt>
      <trkpt lat="44.50839" lon="1.36695">
        <ele>195.6</ele>
        <time>2025-05-29T13:44:10Z</time>
      </trkpt>
      <trkpt lat="44.50841" lon="1.36694">
        <ele>195.6</ele>
        <time>2025-05-29T13:44:11Z</time>
      </trkpt>
      <trkpt lat="44.50843" lon="1.36693">
        <ele>195.8</ele>
        <time>2025-05-29T13:44:12Z</time>
      </trkpt>
      <trkpt lat="44.50846" lon="1.36692">
        <ele>196</ele>
        <time>2025-05-29T13:44:13Z</time>
      </trkpt>
      <trkpt lat="44.50848" lon="1.36692">
        <ele>196.2</ele>
        <time>2025-05-29T13:44:14Z</time>
      </trkpt>
      <trkpt lat="44.5085" lon="1.36692">
        <ele>196.4</ele>
        <time>2025-05-29T13:44:15Z</time>
      </trkpt>
      <trkpt lat="44.50852" lon="1.36691">
        <ele>196.4</ele>
        <time>2025-05-29T13:44:16Z</time>
      </trkpt>
      <trkpt lat="44.50854" lon="1.3669">
        <ele>196.6</ele>
        <time>2025-05-29T13:44:17Z</time>
      </trkpt>
      <trkpt lat="44.50856" lon="1.36689">
        <ele>196.6</ele>
        <time>2025-05-29T13:44:18Z</time>
      </trkpt>
      <trkpt lat="44.50858" lon="1.36687">
        <ele>196.6</ele>
        <time>2025-05-29T13:44:19Z</time>
      </trkpt>
      <trkpt lat="44.50861" lon="1.36686">
        <ele>196.6</ele>
        <time>2025-05-29T13:44:20Z</time>
      </trkpt>
      <trkpt lat="44.50863" lon="1.36684">
        <ele>196.8</ele>
        <time>2025-05-29T13:44:21Z</time>
      </trkpt>
      <trkpt lat="44.50865" lon="1.36683">
        <ele>196.8</ele>
        <time>2025-05-29T13:44:22Z</time>
      </trkpt>
      <trkpt lat="44.50868" lon="1.36684">
        <ele>196.8</ele>
        <time>2025-05-29T13:44:23Z</time>
      </trkpt>
      <trkpt lat="44.5087" lon="1.36685">
        <ele>196.8</ele>
        <time>2025-05-29T13:44:24Z</time>
      </trkpt>
      <trkpt lat="44.50873" lon="1.36685">
        <ele>196.8</ele>
        <time>2025-05-29T13:44:25Z</time>
      </trkpt>
      <trkpt lat="44.50875" lon="1.36686">
        <ele>196.8</ele>
        <time>2025-05-29T13:44:26Z</time>
      </trkpt>
      <trkpt lat="44.50877" lon="1.36686">
        <ele>196.8</ele>
        <time>2025-05-29T13:44:27Z</time>
      </trkpt>
      <trkpt lat="44.5088" lon="1.36686">
        <ele>196.8</ele>
        <time>2025-05-29T13:44:28Z</time>
      </trkpt>
      <trkpt lat="44.50882" lon="1.36686">
        <ele>196.8</ele>
        <time>2025-05-29T13:44:29Z</time>
      </trkpt>
      <trkpt lat="44.50884" lon="1.36687">
        <ele>197</ele>
        <time>2025-05-29T13:44:30Z</time>
      </trkpt>
      <trkpt lat="44.50886" lon="1.36688">
        <ele>197.2</ele>
        <time>2025-05-29T13:44:31Z</time>
      </trkpt>
      <trkpt lat="44.50888" lon="1.36688">
        <ele>197.4</ele>
        <time>2025-05-29T13:44:32Z</time>
      </trkpt>
      <trkpt lat="44.5089" lon="1.36689">
        <ele>197.6</ele>
        <time>2025-05-29T13:44:33Z</time>
      </trkpt>
      <trkpt lat="44.50892" lon="1.3669">
        <ele>197.8</ele>
        <time>2025-05-29T13:44:34Z</time>
      </trkpt>
      <trkpt lat="44.50894" lon="1.36692">
        <ele>198</ele>
        <time>2025-05-29T13:44:35Z</time>
      </trkpt>
      <trkpt lat="44.50896" lon="1.36693">
        <ele>198</ele>
        <time>2025-05-29T13:44:36Z</time>
      </trkpt>
      <trkpt lat="44.50898" lon="1.36695">
        <ele>198.2</ele>
        <time>2025-05-29T13:44:37Z</time>
      </trkpt>
      <trkpt lat="44.509" lon="1.36696">
        <ele>198.4</ele>
        <time>2025-05-29T13:44:38Z</time>
      </trkpt>
      <trkpt lat="44.50902" lon="1.36699">
        <ele>198.6</ele>
        <time>2025-05-29T13:44:39Z</time>
      </trkpt>
      <trkpt lat="44.50904" lon="1.367">
        <ele>198.8</ele>
        <time>2025-05-29T13:44:40Z</time>
      </trkpt>
      <trkpt lat="44.50905" lon="1.36702">
        <ele>198.8</ele>
        <time>2025-05-29T13:44:41Z</time>
      </trkpt>
      <trkpt lat="44.50908" lon="1.36704">
        <ele>199</ele>
        <time>2025-05-29T13:44:42Z</time>
      </trkpt>
      <trkpt lat="44.50911" lon="1.36705">
        <ele>199</ele>
        <time>2025-05-29T13:44:43Z</time>
      </trkpt>
      <trkpt lat="44.50913" lon="1.36707">
        <ele>199.2</ele>
        <time>2025-05-29T13:44:44Z</time>
      </trkpt>
      <trkpt lat="44.50914" lon="1.36709">
        <ele>199.4</ele>
        <time>2025-05-29T13:44:45Z</time>
      </trkpt>
      <trkpt lat="44.50916" lon="1.36711">
        <ele>199.6</ele>
        <time>2025-05-29T13:44:46Z</time>
      </trkpt>
      <trkpt lat="44.50917" lon="1.36714">
        <ele>199.8</ele>
        <time>2025-05-29T13:44:47Z</time>
      </trkpt>
      <trkpt lat="44.50919" lon="1.36716">
        <ele>200</ele>
        <time>2025-05-29T13:44:48Z</time>
      </trkpt>
      <trkpt lat="44.50921" lon="1.36718">
        <ele>200.4</ele>
        <time>2025-05-29T13:44:49Z</time>
      </trkpt>
      <trkpt lat="44.50923" lon="1.36718">
        <ele>200.4</ele>
        <time>2025-05-29T13:44:50Z</time>
      </trkpt>
      <trkpt lat="44.50925" lon="1.36718">
        <ele>200.6</ele>
        <time>2025-05-29T13:44:51Z</time>
      </trkpt>
      <trkpt lat="44.50927" lon="1.36718">
        <ele>200.6</ele>
        <time>2025-05-29T13:44:52Z</time>
      </trkpt>
      <trkpt lat="44.50929" lon="1.36717">
        <ele>200.8</ele>
        <time>2025-05-29T13:44:53Z</time>
      </trkpt>
      <trkpt lat="44.50931" lon="1.36716">
        <ele>200.8</ele>
        <time>2025-05-29T13:44:54Z</time>
      </trkpt>
      <trkpt lat="44.50934" lon="1.36716">
        <ele>201</ele>
        <time>2025-05-29T13:44:55Z</time>
      </trkpt>
      <trkpt lat="44.50936" lon="1.36716">
        <ele>201.2</ele>
        <time>2025-05-29T13:44:56Z</time>
      </trkpt>
      <trkpt lat="44.50938" lon="1.36715">
        <ele>201.4</ele>
        <time>2025-05-29T13:44:57Z</time>
      </trkpt>
      <trkpt lat="44.5094" lon="1.36715">
        <ele>201.6</ele>
        <time>2025-05-29T13:44:58Z</time>
      </trkpt>
      <trkpt lat="44.50941" lon="1.36714">
        <ele>201.8</ele>
        <time>2025-05-29T13:44:59Z</time>
      </trkpt>
      <trkpt lat="44.50943" lon="1.36713">
        <ele>202</ele>
        <time>2025-05-29T13:45:00Z</time>
      </trkpt>
      <trkpt lat="44.50945" lon="1.36712">
        <ele>202.2</ele>
        <time>2025-05-29T13:45:01Z</time>
      </trkpt>
      <trkpt lat="44.50945" lon="1.36709">
        <ele>202.4</ele>
        <time>2025-05-29T13:45:02Z</time>
      </trkpt>
      <trkpt lat="44.50946" lon="1.36707">
        <ele>202.6</ele>
        <time>2025-05-29T13:45:03Z</time>
      </trkpt>
      <trkpt lat="44.50947" lon="1.36705">
        <ele>202.8</ele>
        <time>2025-05-29T13:45:04Z</time>
      </trkpt>
      <trkpt lat="44.50949" lon="1.36703">
        <ele>203</ele>
        <time>2025-05-29T13:45:05Z</time>
      </trkpt>
      <trkpt lat="44.5095" lon="1.36703">
        <ele>203.2</ele>
        <time>2025-05-29T13:45:06Z</time>
      </trkpt>
      <trkpt lat="44.50952" lon="1.36702">
        <ele>203.2</ele>
        <time>2025-05-29T13:45:07Z</time>
      </trkpt>
      <trkpt lat="44.50954" lon="1.36701">
        <ele>203.2</ele>
        <time>2025-05-29T13:45:08Z</time>
      </trkpt>
      <trkpt lat="44.50955" lon="1.36701">
        <ele>203.2</ele>
        <time>2025-05-29T13:45:09Z</time>
      </trkpt>
      <trkpt lat="44.50957" lon="1.36701">
        <ele>203.2</ele>
        <time>2025-05-29T13:45:10Z</time>
      </trkpt>
      <trkpt lat="44.50959" lon="1.367">
        <ele>203.4</ele>
        <time>2025-05-29T13:45:11Z</time>
      </trkpt>
      <trkpt lat="44.50961" lon="1.36699">
        <ele>203.4</ele>
        <time>2025-05-29T13:45:12Z</time>
      </trkpt>
      <trkpt lat="44.50962" lon="1.36699">
        <ele>203.4</ele>
        <time>2025-05-29T13:45:13Z</time>
      </trkpt>
      <trkpt lat="44.50964" lon="1.36699">
        <ele>203.6</ele>
        <time>2025-05-29T13:45:14Z</time>
      </trkpt>
      <trkpt lat="44.50966" lon="1.36699">
        <ele>203.6</ele>
        <time>2025-05-29T13:45:15Z</time>
      </trkpt>
      <trkpt lat="44.50968" lon="1.36699">
        <ele>203.8</ele>
        <time>2025-05-29T13:45:16Z</time>
      </trkpt>
      <trkpt lat="44.5097" lon="1.36698">
        <ele>203.8</ele>
        <time>2025-05-29T13:45:17Z</time>
      </trkpt>
      <trkpt lat="44.50972" lon="1.36698">
        <ele>204</ele>
        <time>2025-05-29T13:45:18Z</time>
      </trkpt>
      <trkpt lat="44.50974" lon="1.36697">
        <ele>204.2</ele>
        <time>2025-05-29T13:45:19Z</time>
      </trkpt>
      <trkpt lat="44.50976" lon="1.36697">
        <ele>204.2</ele>
        <time>2025-05-29T13:45:20Z</time>
      </trkpt>
      <trkpt lat="44.50977" lon="1.36697">
        <ele>204.4</ele>
        <time>2025-05-29T13:45:21Z</time>
      </trkpt>
      <trkpt lat="44.50979" lon="1.36697">
        <ele>204.6</ele>
        <time>2025-05-29T13:45:22Z</time>
      </trkpt>
      <trkpt lat="44.50981" lon="1.36697">
        <ele>204.6</ele>
        <time>2025-05-29T13:45:23Z</time>
      </trkpt>
      <trkpt lat="44.50982" lon="1.36697">
        <ele>204.8</ele>
        <time>2025-05-29T13:45:24Z</time>
      </trkpt>
      <trkpt lat="44.50985" lon="1.36697">
        <ele>204.8</ele>
        <time>2025-05-29T13:45:25Z</time>
      </trkpt>
      <trkpt lat="44.50987" lon="1.36697">
        <ele>204.8</ele>
        <time>2025-05-29T13:45:26Z</time>
      </trkpt>
      <trkpt lat="44.50989" lon="1.36697">
        <ele>205</ele>
        <time>2025-05-29T13:45:27Z</time>
      </trkpt>
      <trkpt lat="44.50991" lon="1.36696">
        <ele>205</ele>
        <time>2025-05-29T13:45:28Z</time>
      </trkpt>
      <trkpt lat="44.50993" lon="1.36696">
        <ele>205</ele>
        <time>2025-05-29T13:45:29Z</time>
      </trkpt>
      <trkpt lat="44.50995" lon="1.36696">
        <ele>205</ele>
        <time>2025-05-29T13:45:30Z</time>
      </trkpt>
      <trkpt lat="44.50996" lon="1.36694">
        <ele>205.2</ele>
        <time>2025-05-29T13:45:31Z</time>
      </trkpt>
      <trkpt lat="44.50998" lon="1.36693">
        <ele>205.4</ele>
        <time>2025-05-29T13:45:32Z</time>
      </trkpt>
      <trkpt lat="44.51" lon="1.36692">
        <ele>205.4</ele>
        <time>2025-05-29T13:45:33Z</time>
      </trkpt>
      <trkpt lat="44.51002" lon="1.3669">
        <ele>205.4</ele>
        <time>2025-05-29T13:45:34Z</time>
      </trkpt>
      <trkpt lat="44.51005" lon="1.36689">
        <ele>205.4</ele>
        <time>2025-05-29T13:45:35Z</time>
      </trkpt>
      <trkpt lat="44.51007" lon="1.36687">
        <ele>205.4</ele>
        <time>2025-05-29T13:45:36Z</time>
      </trkpt>
      <trkpt lat="44.51009" lon="1.36685">
        <ele>205.2</ele>
        <time>2025-05-29T13:45:37Z</time>
      </trkpt>
      <trkpt lat="44.5101" lon="1.36684">
        <ele>205.2</ele>
        <time>2025-05-29T13:45:38Z</time>
      </trkpt>
      <trkpt lat="44.51012" lon="1.36682">
        <ele>205</ele>
        <time>2025-05-29T13:45:39Z</time>
      </trkpt>
      <trkpt lat="44.51014" lon="1.3668">
        <ele>205</ele>
        <time>2025-05-29T13:45:40Z</time>
      </trkpt>
      <trkpt lat="44.51015" lon="1.36678">
        <ele>205</ele>
        <time>2025-05-29T13:45:41Z</time>
      </trkpt>
      <trkpt lat="44.51017" lon="1.36677">
        <ele>205</ele>
        <time>2025-05-29T13:45:42Z</time>
      </trkpt>
      <trkpt lat="44.51019" lon="1.36676">
        <ele>205</ele>
        <time>2025-05-29T13:45:43Z</time>
      </trkpt>
      <trkpt lat="44.51021" lon="1.36676">
        <ele>205.2</ele>
        <time>2025-05-29T13:45:44Z</time>
      </trkpt>
      <trkpt lat="44.51023" lon="1.36676">
        <ele>205.2</ele>
        <time>2025-05-29T13:45:45Z</time>
      </trkpt>
      <trkpt lat="44.51024" lon="1.36677">
        <ele>205.2</ele>
        <time>2025-05-29T13:45:46Z</time>
      </trkpt>
      <trkpt lat="44.51026" lon="1.36677">
        <ele>205.4</ele>
        <time>2025-05-29T13:45:47Z</time>
      </trkpt>
      <trkpt lat="44.51027" lon="1.36679">
        <ele>205.6</ele>
        <time>2025-05-29T13:45:48Z</time>
      </trkpt>
      <trkpt lat="44.51028" lon="1.36681">
        <ele>205.8</ele>
        <time>2025-05-29T13:45:49Z</time>
      </trkpt>
      <trkpt lat="44.51029" lon="1.36683">
        <ele>206</ele>
        <time>2025-05-29T13:45:50Z</time>
      </trkpt>
      <trkpt lat="44.5103" lon="1.36686">
        <ele>206.2</ele>
        <time>2025-05-29T13:45:51Z</time>
      </trkpt>
      <trkpt lat="44.51032" lon="1.36688">
        <ele>206.2</ele>
        <time>2025-05-29T13:45:52Z</time>
      </trkpt>
      <trkpt lat="44.51034" lon="1.36689">
        <ele>206.6</ele>
        <time>2025-05-29T13:45:53Z</time>
      </trkpt>
      <trkpt lat="44.51035" lon="1.3669">
        <ele>206.8</ele>
        <time>2025-05-29T13:45:54Z</time>
      </trkpt>
      <trkpt lat="44.51037" lon="1.3669">
        <ele>207</ele>
        <time>2025-05-29T13:45:55Z</time>
      </trkpt>
      <trkpt lat="44.51039" lon="1.3669">
        <ele>207</ele>
        <time>2025-05-29T13:45:56Z</time>
      </trkpt>
      <trkpt lat="44.51041" lon="1.36689">
        <ele>207</ele>
        <time>2025-05-29T13:45:57Z</time>
      </trkpt>
      <trkpt lat="44.51043" lon="1.36688">
        <ele>206.8</ele>
        <time>2025-05-29T13:45:58Z</time>
      </trkpt>
      <trkpt lat="44.51044" lon="1.36687">
        <ele>206.8</ele>
        <time>2025-05-29T13:45:59Z</time>
      </trkpt>
      <trkpt lat="44.51046" lon="1.36685">
        <ele>206.8</ele>
        <time>2025-05-29T13:46:00Z</time>
      </trkpt>
      <trkpt lat="44.51048" lon="1.36683">
        <ele>207</ele>
        <time>2025-05-29T13:46:01Z</time>
      </trkpt>
      <trkpt lat="44.51049" lon="1.36682">
        <ele>207.2</ele>
        <time>2025-05-29T13:46:02Z</time>
      </trkpt>
      <trkpt lat="44.5105" lon="1.3668">
        <ele>207.4</ele>
        <time>2025-05-29T13:46:03Z</time>
      </trkpt>
      <trkpt lat="44.51052" lon="1.36678">
        <ele>207.4</ele>
        <time>2025-05-29T13:46:04Z</time>
      </trkpt>
      <trkpt lat="44.51053" lon="1.36677">
        <ele>207.6</ele>
        <time>2025-05-29T13:46:05Z</time>
      </trkpt>
      <trkpt lat="44.51055" lon="1.36675">
        <ele>207.8</ele>
        <time>2025-05-29T13:46:06Z</time>
      </trkpt>
      <trkpt lat="44.51057" lon="1.36674">
        <ele>208</ele>
        <time>2025-05-29T13:46:07Z</time>
      </trkpt>
      <trkpt lat="44.51058" lon="1.36673">
        <ele>208.2</ele>
        <time>2025-05-29T13:46:08Z</time>
      </trkpt>
      <trkpt lat="44.5106" lon="1.36671">
        <ele>208.4</ele>
        <time>2025-05-29T13:46:09Z</time>
      </trkpt>
      <trkpt lat="44.51061" lon="1.36669">
        <ele>208.6</ele>
        <time>2025-05-29T13:46:10Z</time>
      </trkpt>
      <trkpt lat="44.51062" lon="1.36666">
        <ele>208.6</ele>
        <time>2025-05-29T13:46:11Z</time>
      </trkpt>
      <trkpt lat="44.51063" lon="1.36664">
        <ele>208.8</ele>
        <time>2025-05-29T13:46:12Z</time>
      </trkpt>
      <trkpt lat="44.51063" lon="1.36661">
        <ele>208.8</ele>
        <time>2025-05-29T13:46:13Z</time>
      </trkpt>
      <trkpt lat="44.51063" lon="1.36658">
        <ele>209</ele>
        <time>2025-05-29T13:46:14Z</time>
      </trkpt>
      <trkpt lat="44.51064" lon="1.36655">
        <ele>209.2</ele>
        <time>2025-05-29T13:46:15Z</time>
      </trkpt>
      <trkpt lat="44.51065" lon="1.36653">
        <ele>209.2</ele>
        <time>2025-05-29T13:46:16Z</time>
      </trkpt>
      <trkpt lat="44.51066" lon="1.36652">
        <ele>209.4</ele>
        <time>2025-05-29T13:46:17Z</time>
      </trkpt>
      <trkpt lat="44.51067" lon="1.36649">
        <ele>209.6</ele>
        <time>2025-05-29T13:46:18Z</time>
      </trkpt>
      <trkpt lat="44.51069" lon="1.36647">
        <ele>209.6</ele>
        <time>2025-05-29T13:46:19Z</time>
      </trkpt>
      <trkpt lat="44.5107" lon="1.36645">
        <ele>209.8</ele>
        <time>2025-05-29T13:46:20Z</time>
      </trkpt>
      <trkpt lat="44.51071" lon="1.36644">
        <ele>210</ele>
        <time>2025-05-29T13:46:21Z</time>
      </trkpt>
      <trkpt lat="44.51073" lon="1.36642">
        <ele>210.2</ele>
        <time>2025-05-29T13:46:22Z</time>
      </trkpt>
      <trkpt lat="44.51074" lon="1.36641">
        <ele>210.4</ele>
        <time>2025-05-29T13:46:23Z</time>
      </trkpt>
      <trkpt lat="44.51076" lon="1.36639">
        <ele>210.6</ele>
        <time>2025-05-29T13:46:24Z</time>
      </trkpt>
      <trkpt lat="44.51078" lon="1.36638">
        <ele>210.6</ele>
        <time>2025-05-29T13:46:25Z</time>
      </trkpt>
      <trkpt lat="44.51079" lon="1.36637">
        <ele>210.8</ele>
        <time>2025-05-29T13:46:26Z</time>
      </trkpt>
      <trkpt lat="44.51081" lon="1.36637">
        <ele>211</ele>
        <time>2025-05-29T13:46:27Z</time>
      </trkpt>
      <trkpt lat="44.51082" lon="1.36637">
        <ele>211.2</ele>
        <time>2025-05-29T13:46:28Z</time>
      </trkpt>
      <trkpt lat="44.51084" lon="1.36636">
        <ele>211.4</ele>
        <time>2025-05-29T13:46:29Z</time>
      </trkpt>
      <trkpt lat="44.51086" lon="1.36635">
        <ele>211.6</ele>
        <time>2025-05-29T13:46:30Z</time>
      </trkpt>
      <trkpt lat="44.51087" lon="1.36634">
        <ele>211.8</ele>
        <time>2025-05-29T13:46:31Z</time>
      </trkpt>
      <trkpt lat="44.51089" lon="1.36632">
        <ele>211.8</ele>
        <time>2025-05-29T13:46:32Z</time>
      </trkpt>
      <trkpt lat="44.5109" lon="1.3663">
        <ele>211.8</ele>
        <time>2025-05-29T13:46:33Z</time>
      </trkpt>
      <trkpt lat="44.51091" lon="1.36628">
        <ele>212</ele>
        <time>2025-05-29T13:46:34Z</time>
      </trkpt>
      <trkpt lat="44.51092" lon="1.36626">
        <ele>212</ele>
        <time>2025-05-29T13:46:35Z</time>
      </trkpt>
      <trkpt lat="44.51093" lon="1.36624">
        <ele>212.2</ele>
        <time>2025-05-29T13:46:36Z</time>
      </trkpt>
      <trkpt lat="44.51095" lon="1.36623">
        <ele>212.2</ele>
        <time>2025-05-29T13:46:37Z</time>
      </trkpt>
      <trkpt lat="44.51096" lon="1.36621">
        <ele>212.2</ele>
        <time>2025-05-29T13:46:38Z</time>
      </trkpt>
      <trkpt lat="44.51097" lon="1.3662">
        <ele>212.4</ele>
        <time>2025-05-29T13:46:39Z</time>
      </trkpt>
      <trkpt lat="44.51098" lon="1.36619">
        <ele>212.6</ele>
        <time>2025-05-29T13:46:40Z</time>
      </trkpt>
      <trkpt lat="44.51099" lon="1.36618">
        <ele>212.8</ele>
        <time>2025-05-29T13:46:41Z</time>
      </trkpt>
      <trkpt lat="44.511" lon="1.36617">
        <ele>213.2</ele>
        <time>2025-05-29T13:46:42Z</time>
      </trkpt>
      <trkpt lat="44.51101" lon="1.36616">
        <ele>213.4</ele>
        <time>2025-05-29T13:46:43Z</time>
      </trkpt>
      <trkpt lat="44.51103" lon="1.36615">
        <ele>213.6</ele>
        <time>2025-05-29T13:46:44Z</time>
      </trkpt>
      <trkpt lat="44.51104" lon="1.36614">
        <ele>213.8</ele>
        <time>2025-05-29T13:46:45Z</time>
      </trkpt>
      <trkpt lat="44.51106" lon="1.36613">
        <ele>213.8</ele>
        <time>2025-05-29T13:46:46Z</time>
      </trkpt>
      <trkpt lat="44.51107" lon="1.36612">
        <ele>214</ele>
        <time>2025-05-29T13:46:47Z</time>
      </trkpt>
      <trkpt lat="44.51108" lon="1.36611">
        <ele>214</ele>
        <time>2025-05-29T13:46:48Z</time>
      </trkpt>
      <trkpt lat="44.51109" lon="1.3661">
        <ele>214.2</ele>
        <time>2025-05-29T13:46:49Z</time>
      </trkpt>
      <trkpt lat="44.5111" lon="1.36608">
        <ele>214.4</ele>
        <time>2025-05-29T13:46:50Z</time>
      </trkpt>
      <trkpt lat="44.51111" lon="1.36607">
        <ele>214.6</ele>
        <time>2025-05-29T13:46:51Z</time>
      </trkpt>
      <trkpt lat="44.51112" lon="1.36606">
        <ele>214.8</ele>
        <time>2025-05-29T13:46:52Z</time>
      </trkpt>
      <trkpt lat="44.51113" lon="1.36607">
        <ele>215</ele>
        <time>2025-05-29T13:46:53Z</time>
      </trkpt>
      <trkpt lat="44.51115" lon="1.36607">
        <ele>215.2</ele>
        <time>2025-05-29T13:46:54Z</time>
      </trkpt>
      <trkpt lat="44.51116" lon="1.36609">
        <ele>215.4</ele>
        <time>2025-05-29T13:46:55Z</time>
      </trkpt>
      <trkpt lat="44.51117" lon="1.3661">
        <ele>215.4</ele>
        <time>2025-05-29T13:46:56Z</time>
      </trkpt>
      <trkpt lat="44.51118" lon="1.36611">
        <ele>215.6</ele>
        <time>2025-05-29T13:46:57Z</time>
      </trkpt>
      <trkpt lat="44.51119" lon="1.36612">
        <ele>215.6</ele>
        <time>2025-05-29T13:46:58Z</time>
      </trkpt>
      <trkpt lat="44.5112" lon="1.36613">
        <ele>215.6</ele>
        <time>2025-05-29T13:46:59Z</time>
      </trkpt>
      <trkpt lat="44.51121" lon="1.36614">
        <ele>215.6</ele>
        <time>2025-05-29T13:47:00Z</time>
      </trkpt>
      <trkpt lat="44.51123" lon="1.36616">
        <ele>215.6</ele>
        <time>2025-05-29T13:47:01Z</time>
      </trkpt>
      <trkpt lat="44.51125" lon="1.36618">
        <ele>215.6</ele>
        <time>2025-05-29T13:47:02Z</time>
      </trkpt>
      <trkpt lat="44.51126" lon="1.36619">
        <ele>215.6</ele>
        <time>2025-05-29T13:47:03Z</time>
      </trkpt>
      <trkpt lat="44.51127" lon="1.3662">
        <ele>215.6</ele>
        <time>2025-05-29T13:47:04Z</time>
      </trkpt>
      <trkpt lat="44.51129" lon="1.36622">
        <ele>215.8</ele>
        <time>2025-05-29T13:47:05Z</time>
      </trkpt>
      <trkpt lat="44.5113" lon="1.36623">
        <ele>215.8</ele>
        <time>2025-05-29T13:47:06Z</time>
      </trkpt>
      <trkpt lat="44.51132" lon="1.36625">
        <ele>215.8</ele>
        <time>2025-05-29T13:47:07Z</time>
      </trkpt>
      <trkpt lat="44.51134" lon="1.36626">
        <ele>215.8</ele>
        <time>2025-05-29T13:47:08Z</time>
      </trkpt>
      <trkpt lat="44.51135" lon="1.36626">
        <ele>216</ele>
        <time>2025-05-29T13:47:09Z</time>
      </trkpt>
      <trkpt lat="44.51137" lon="1.36627">
        <ele>216</ele>
        <time>2025-05-29T13:47:10Z</time>
      </trkpt>
      <trkpt lat="44.51139" lon="1.36627">
        <ele>216</ele>
        <time>2025-05-29T13:47:11Z</time>
      </trkpt>
      <trkpt lat="44.51141" lon="1.36628">
        <ele>216</ele>
        <time>2025-05-29T13:47:12Z</time>
      </trkpt>
      <trkpt lat="44.51143" lon="1.36627">
        <ele>216.2</ele>
        <time>2025-05-29T13:47:13Z</time>
      </trkpt>
      <trkpt lat="44.51145" lon="1.36626">
        <ele>216.2</ele>
        <time>2025-05-29T13:47:14Z</time>
      </trkpt>
      <trkpt lat="44.51147" lon="1.36626">
        <ele>216.2</ele>
        <time>2025-05-29T13:47:15Z</time>
      </trkpt>
      <trkpt lat="44.51148" lon="1.36625">
        <ele>216.4</ele>
        <time>2025-05-29T13:47:16Z</time>
      </trkpt>
      <trkpt lat="44.5115" lon="1.36624">
        <ele>216.6</ele>
        <time>2025-05-29T13:47:17Z</time>
      </trkpt>
      <trkpt lat="44.51152" lon="1.36623">
        <ele>216.6</ele>
        <time>2025-05-29T13:47:18Z</time>
      </trkpt>
      <trkpt lat="44.51154" lon="1.36622">
        <ele>216.8</ele>
        <time>2025-05-29T13:47:19Z</time>
      </trkpt>
      <trkpt lat="44.51156" lon="1.36621">
        <ele>217</ele>
        <time>2025-05-29T13:47:20Z</time>
      </trkpt>
      <trkpt lat="44.51159" lon="1.3662">
        <ele>217</ele>
        <time>2025-05-29T13:47:21Z</time>
      </trkpt>
      <trkpt lat="44.5116" lon="1.3662">
        <ele>217.2</ele>
        <time>2025-05-29T13:47:22Z</time>
      </trkpt>
      <trkpt lat="44.51162" lon="1.36619">
        <ele>217.4</ele>
        <time>2025-05-29T13:47:23Z</time>
      </trkpt>
      <trkpt lat="44.51164" lon="1.36618">
        <ele>217.6</ele>
        <time>2025-05-29T13:47:24Z</time>
      </trkpt>
      <trkpt lat="44.51166" lon="1.36617">
        <ele>217.6</ele>
        <time>2025-05-29T13:47:25Z</time>
      </trkpt>
      <trkpt lat="44.51168" lon="1.36616">
        <ele>217.8</ele>
        <time>2025-05-29T13:47:26Z</time>
      </trkpt>
      <trkpt lat="44.5117" lon="1.36614">
        <ele>217.8</ele>
        <time>2025-05-29T13:47:27Z</time>
      </trkpt>
      <trkpt lat="44.51171" lon="1.36613">
        <ele>218</ele>
        <time>2025-05-29T13:47:28Z</time>
      </trkpt>
      <trkpt lat="44.51173" lon="1.36612">
        <ele>218</ele>
        <time>2025-05-29T13:47:29Z</time>
      </trkpt>
      <trkpt lat="44.51175" lon="1.36611">
        <ele>218.2</ele>
        <time>2025-05-29T13:47:30Z</time>
      </trkpt>
      <trkpt lat="44.51177" lon="1.36609">
        <ele>218.4</ele>
        <time>2025-05-29T13:47:31Z</time>
      </trkpt>
      <trkpt lat="44.51179" lon="1.36608">
        <ele>218.6</ele>
        <time>2025-05-29T13:47:32Z</time>
      </trkpt>
      <trkpt lat="44.51181" lon="1.36608">
        <ele>218.6</ele>
        <time>2025-05-29T13:47:33Z</time>
      </trkpt>
      <trkpt lat="44.51183" lon="1.36607">
        <ele>218.8</ele>
        <time>2025-05-29T13:47:34Z</time>
      </trkpt>
      <trkpt lat="44.51185" lon="1.36606">
        <ele>218.8</ele>
        <time>2025-05-29T13:47:35Z</time>
      </trkpt>
      <trkpt lat="44.51187" lon="1.36605">
        <ele>219</ele>
        <time>2025-05-29T13:47:36Z</time>
      </trkpt>
      <trkpt lat="44.51189" lon="1.36603">
        <ele>219</ele>
        <time>2025-05-29T13:47:37Z</time>
      </trkpt>
      <trkpt lat="44.51191" lon="1.36602">
        <ele>219</ele>
        <time>2025-05-29T13:47:38Z</time>
      </trkpt>
      <trkpt lat="44.51194" lon="1.36601">
        <ele>219</ele>
        <time>2025-05-29T13:47:39Z</time>
      </trkpt>
      <trkpt lat="44.51196" lon="1.366">
        <ele>219</ele>
        <time>2025-05-29T13:47:40Z</time>
      </trkpt>
      <trkpt lat="44.51198" lon="1.36598">
        <ele>219</ele>
        <time>2025-05-29T13:47:41Z</time>
      </trkpt>
      <trkpt lat="44.512" lon="1.36597">
        <ele>219</ele>
        <time>2025-05-29T13:47:42Z</time>
      </trkpt>
      <trkpt lat="44.51203" lon="1.36596">
        <ele>219.2</ele>
        <time>2025-05-29T13:47:43Z</time>
      </trkpt>
      <trkpt lat="44.51205" lon="1.36595">
        <ele>219.2</ele>
        <time>2025-05-29T13:47:44Z</time>
      </trkpt>
      <trkpt lat="44.51208" lon="1.36593">
        <ele>219.2</ele>
        <time>2025-05-29T13:47:45Z</time>
      </trkpt>
      <trkpt lat="44.5121" lon="1.36592">
        <ele>219.2</ele>
        <time>2025-05-29T13:47:46Z</time>
      </trkpt>
      <trkpt lat="44.51212" lon="1.36591">
        <ele>219.2</ele>
        <time>2025-05-29T13:47:47Z</time>
      </trkpt>
      <trkpt lat="44.51214" lon="1.36589">
        <ele>219.4</ele>
        <time>2025-05-29T13:47:48Z</time>
      </trkpt>
      <trkpt lat="44.51216" lon="1.36588">
        <ele>219.6</ele>
        <time>2025-05-29T13:47:49Z</time>
      </trkpt>
      <trkpt lat="44.51218" lon="1.36587">
        <ele>219.6</ele>
        <time>2025-05-29T13:47:50Z</time>
      </trkpt>
      <trkpt lat="44.5122" lon="1.36585">
        <ele>219.8</ele>
        <time>2025-05-29T13:47:51Z</time>
      </trkpt>
      <trkpt lat="44.51221" lon="1.36583">
        <ele>220</ele>
        <time>2025-05-29T13:47:52Z</time>
      </trkpt>
      <trkpt lat="44.51222" lon="1.3658">
        <ele>220.2</ele>
        <time>2025-05-29T13:47:53Z</time>
      </trkpt>
      <trkpt lat="44.51223" lon="1.36577">
        <ele>220.4</ele>
        <time>2025-05-29T13:47:54Z</time>
      </trkpt>
      <trkpt lat="44.51223" lon="1.36573">
        <ele>220.4</ele>
        <time>2025-05-29T13:47:55Z</time>
      </trkpt>
      <trkpt lat="44.51224" lon="1.3657">
        <ele>220.6</ele>
        <time>2025-05-29T13:47:56Z</time>
      </trkpt>
      <trkpt lat="44.51224" lon="1.36567">
        <ele>220.6</ele>
        <time>2025-05-29T13:47:57Z</time>
      </trkpt>
      <trkpt lat="44.51224" lon="1.36565">
        <ele>220.8</ele>
        <time>2025-05-29T13:47:58Z</time>
      </trkpt>
      <trkpt lat="44.51224" lon="1.36563">
        <ele>221.2</ele>
        <time>2025-05-29T13:47:59Z</time>
      </trkpt>
      <trkpt lat="44.51224" lon="1.3656">
        <ele>221.4</ele>
        <time>2025-05-29T13:48:00Z</time>
      </trkpt>
      <trkpt lat="44.51225" lon="1.36558">
        <ele>221.8</ele>
        <time>2025-05-29T13:48:01Z</time>
      </trkpt>
      <trkpt lat="44.51225" lon="1.36555">
        <ele>222</ele>
        <time>2025-05-29T13:48:02Z</time>
      </trkpt>
      <trkpt lat="44.51225" lon="1.36553">
        <ele>222.2</ele>
        <time>2025-05-29T13:48:03Z</time>
      </trkpt>
      <trkpt lat="44.51226" lon="1.36551">
        <ele>222.6</ele>
        <time>2025-05-29T13:48:04Z</time>
      </trkpt>
      <trkpt lat="44.51225" lon="1.36548">
        <ele>222.8</ele>
        <time>2025-05-29T13:48:05Z</time>
      </trkpt>
      <trkpt lat="44.51225" lon="1.36546">
        <ele>223</ele>
        <time>2025-05-29T13:48:06Z</time>
      </trkpt>
      <trkpt lat="44.51226" lon="1.36543">
        <ele>223.2</ele>
        <time>2025-05-29T13:48:07Z</time>
      </trkpt>
      <trkpt lat="44.51226" lon="1.3654">
        <ele>223.4</ele>
        <time>2025-05-29T13:48:08Z</time>
      </trkpt>
      <trkpt lat="44.51225" lon="1.36538">
        <ele>223.8</ele>
        <time>2025-05-29T13:48:09Z</time>
      </trkpt>
      <trkpt lat="44.51226" lon="1.36536">
        <ele>224</ele>
        <time>2025-05-29T13:48:10Z</time>
      </trkpt>
      <trkpt lat="44.51226" lon="1.36534">
        <ele>224.4</ele>
        <time>2025-05-29T13:48:11Z</time>
      </trkpt>
      <trkpt lat="44.51226" lon="1.36533">
        <ele>224.6</ele>
        <time>2025-05-29T13:48:12Z</time>
      </trkpt>
      <trkpt lat="44.51226" lon="1.36531">
        <ele>224.8</ele>
        <time>2025-05-29T13:48:13Z</time>
      </trkpt>
      <trkpt lat="44.51226" lon="1.36528">
        <ele>225.2</ele>
        <time>2025-05-29T13:48:14Z</time>
      </trkpt>
      <trkpt lat="44.51227" lon="1.36526">
        <ele>225.4</ele>
        <time>2025-05-29T13:48:15Z</time>
      </trkpt>
      <trkpt lat="44.51228" lon="1.36524">
        <ele>225.6</ele>
        <time>2025-05-29T13:48:16Z</time>
      </trkpt>
      <trkpt lat="44.51229" lon="1.36523">
        <ele>225.6</ele>
        <time>2025-05-29T13:48:17Z</time>
      </trkpt>
      <trkpt lat="44.51231" lon="1.36522">
        <ele>225.6</ele>
        <time>2025-05-29T13:48:18Z</time>
      </trkpt>
      <trkpt lat="44.51232" lon="1.36521">
        <ele>225.8</ele>
        <time>2025-05-29T13:48:19Z</time>
      </trkpt>
      <trkpt lat="44.51233" lon="1.3652">
        <ele>225.8</ele>
        <time>2025-05-29T13:48:20Z</time>
      </trkpt>
      <trkpt lat="44.51234" lon="1.36518">
        <ele>225.8</ele>
        <time>2025-05-29T13:48:21Z</time>
      </trkpt>
      <trkpt lat="44.51236" lon="1.36517">
        <ele>226</ele>
        <time>2025-05-29T13:48:22Z</time>
      </trkpt>
      <trkpt lat="44.51237" lon="1.36516">
        <ele>226.2</ele>
        <time>2025-05-29T13:48:23Z</time>
      </trkpt>
      <trkpt lat="44.51238" lon="1.36515">
        <ele>226.2</ele>
        <time>2025-05-29T13:48:24Z</time>
      </trkpt>
      <trkpt lat="44.5124" lon="1.36515">
        <ele>226.2</ele>
        <time>2025-05-29T13:48:25Z</time>
      </trkpt>
      <trkpt lat="44.51241" lon="1.36514">
        <ele>226.4</ele>
        <time>2025-05-29T13:48:26Z</time>
      </trkpt>
      <trkpt lat="44.51243" lon="1.36514">
        <ele>226.4</ele>
        <time>2025-05-29T13:48:27Z</time>
      </trkpt>
      <trkpt lat="44.51243" lon="1.36513">
        <ele>226.4</ele>
        <time>2025-05-29T13:48:28Z</time>
      </trkpt>
      <trkpt lat="44.51244" lon="1.36512">
        <ele>226.6</ele>
        <time>2025-05-29T13:48:29Z</time>
      </trkpt>
      <trkpt lat="44.51245" lon="1.36511">
        <ele>226.6</ele>
        <time>2025-05-29T13:48:30Z</time>
      </trkpt>
      <trkpt lat="44.51247" lon="1.36511">
        <ele>226.6</ele>
        <time>2025-05-29T13:48:31Z</time>
      </trkpt>
      <trkpt lat="44.51248" lon="1.36511">
        <ele>226.6</ele>
        <time>2025-05-29T13:48:32Z</time>
      </trkpt>
      <trkpt lat="44.5125" lon="1.3651">
        <ele>226.6</ele>
        <time>2025-05-29T13:48:33Z</time>
      </trkpt>
      <trkpt lat="44.51251" lon="1.3651">
        <ele>226.6</ele>
        <time>2025-05-29T13:48:34Z</time>
      </trkpt>
      <trkpt lat="44.51253" lon="1.36509">
        <ele>226.6</ele>
        <time>2025-05-29T13:48:35Z</time>
      </trkpt>
      <trkpt lat="44.51254" lon="1.36507">
        <ele>226.6</ele>
        <time>2025-05-29T13:48:36Z</time>
      </trkpt>
      <trkpt lat="44.51255" lon="1.36506">
        <ele>226.6</ele>
        <time>2025-05-29T13:48:37Z</time>
      </trkpt>
      <trkpt lat="44.51256" lon="1.36505">
        <ele>226.6</ele>
        <time>2025-05-29T13:48:38Z</time>
      </trkpt>
      <trkpt lat="44.51256" lon="1.36503">
        <ele>226.8</ele>
        <time>2025-05-29T13:48:39Z</time>
      </trkpt>
      <trkpt lat="44.51257" lon="1.36501">
        <ele>227</ele>
        <time>2025-05-29T13:48:40Z</time>
      </trkpt>
      <trkpt lat="44.51258" lon="1.36499">
        <ele>227.2</ele>
        <time>2025-05-29T13:48:41Z</time>
      </trkpt>
      <trkpt lat="44.51259" lon="1.36497">
        <ele>227.4</ele>
        <time>2025-05-29T13:48:42Z</time>
      </trkpt>
      <trkpt lat="44.51259" lon="1.36494">
        <ele>227.6</ele>
        <time>2025-05-29T13:48:43Z</time>
      </trkpt>
      <trkpt lat="44.5126" lon="1.36492">
        <ele>227.8</ele>
        <time>2025-05-29T13:48:44Z</time>
      </trkpt>
      <trkpt lat="44.5126" lon="1.3649">
        <ele>228</ele>
        <time>2025-05-29T13:48:45Z</time>
      </trkpt>
      <trkpt lat="44.51261" lon="1.36488">
        <ele>228.4</ele>
        <time>2025-05-29T13:48:46Z</time>
      </trkpt>
      <trkpt lat="44.51261" lon="1.36486">
        <ele>228.6</ele>
        <time>2025-05-29T13:48:47Z</time>
      </trkpt>
      <trkpt lat="44.51262" lon="1.36484">
        <ele>228.8</ele>
        <time>2025-05-29T13:48:48Z</time>
      </trkpt>
      <trkpt lat="44.51262" lon="1.36482">
        <ele>229</ele>
        <time>2025-05-29T13:48:49Z</time>
      </trkpt>
      <trkpt lat="44.51263" lon="1.3648">
        <ele>229.2</ele>
        <time>2025-05-29T13:48:50Z</time>
      </trkpt>
      <trkpt lat="44.51263" lon="1.36478">
        <ele>229.4</ele>
        <time>2025-05-29T13:48:51Z</time>
      </trkpt>
      <trkpt lat="44.51264" lon="1.36476">
        <ele>229.6</ele>
        <time>2025-05-29T13:48:52Z</time>
      </trkpt>
      <trkpt lat="44.51264" lon="1.36474">
        <ele>230</ele>
        <time>2025-05-29T13:48:53Z</time>
      </trkpt>
      <trkpt lat="44.51265" lon="1.36472">
        <ele>230.2</ele>
        <time>2025-05-29T13:48:54Z</time>
      </trkpt>
      <trkpt lat="44.51266" lon="1.3647">
        <ele>230.4</ele>
        <time>2025-05-29T13:48:55Z</time>
      </trkpt>
      <trkpt lat="44.51266" lon="1.36468">
        <ele>230.6</ele>
        <time>2025-05-29T13:48:56Z</time>
      </trkpt>
      <trkpt lat="44.51267" lon="1.36466">
        <ele>230.8</ele>
        <time>2025-05-29T13:48:57Z</time>
      </trkpt>
      <trkpt lat="44.51267" lon="1.36464">
        <ele>230.8</ele>
        <time>2025-05-29T13:48:58Z</time>
      </trkpt>
      <trkpt lat="44.51267" lon="1.36462">
        <ele>231</ele>
        <time>2025-05-29T13:48:59Z</time>
      </trkpt>
      <trkpt lat="44.51268" lon="1.3646">
        <ele>231.2</ele>
        <time>2025-05-29T13:49:00Z</time>
      </trkpt>
      <trkpt lat="44.51268" lon="1.36458">
        <ele>231.4</ele>
        <time>2025-05-29T13:49:01Z</time>
      </trkpt>
      <trkpt lat="44.51269" lon="1.36455">
        <ele>231.6</ele>
        <time>2025-05-29T13:49:02Z</time>
      </trkpt>
      <trkpt lat="44.5127" lon="1.36453">
        <ele>231.6</ele>
        <time>2025-05-29T13:49:03Z</time>
      </trkpt>
      <trkpt lat="44.5127" lon="1.36451">
        <ele>231.8</ele>
        <time>2025-05-29T13:49:04Z</time>
      </trkpt>
      <trkpt lat="44.51271" lon="1.36449">
        <ele>232</ele>
        <time>2025-05-29T13:49:05Z</time>
      </trkpt>
      <trkpt lat="44.51271" lon="1.36447">
        <ele>232.2</ele>
        <time>2025-05-29T13:49:06Z</time>
      </trkpt>
      <trkpt lat="44.51272" lon="1.36445">
        <ele>232.4</ele>
        <time>2025-05-29T13:49:07Z</time>
      </trkpt>
      <trkpt lat="44.51272" lon="1.36443">
        <ele>232.6</ele>
        <time>2025-05-29T13:49:08Z</time>
      </trkpt>
      <trkpt lat="44.51273" lon="1.36441">
        <ele>232.8</ele>
        <time>2025-05-29T13:49:09Z</time>
      </trkpt>
      <trkpt lat="44.51273" lon="1.36439">
        <ele>233</ele>
        <time>2025-05-29T13:49:10Z</time>
      </trkpt>
      <trkpt lat="44.51274" lon="1.36437">
        <ele>233</ele>
        <time>2025-05-29T13:49:11Z</time>
      </trkpt>
      <trkpt lat="44.51274" lon="1.36435">
        <ele>233.2</ele>
        <time>2025-05-29T13:49:12Z</time>
      </trkpt>
      <trkpt lat="44.51275" lon="1.36433">
        <ele>233.4</ele>
        <time>2025-05-29T13:49:13Z</time>
      </trkpt>
      <trkpt lat="44.51275" lon="1.36431">
        <ele>233.6</ele>
        <time>2025-05-29T13:49:14Z</time>
      </trkpt>
      <trkpt lat="44.51276" lon="1.36429">
        <ele>233.8</ele>
        <time>2025-05-29T13:49:15Z</time>
      </trkpt>
      <trkpt lat="44.51276" lon="1.36427">
        <ele>234</ele>
        <time>2025-05-29T13:49:16Z</time>
      </trkpt>
      <trkpt lat="44.51276" lon="1.36425">
        <ele>234.2</ele>
        <time>2025-05-29T13:49:17Z</time>
      </trkpt>
      <trkpt lat="44.51277" lon="1.36423">
        <ele>234.4</ele>
        <time>2025-05-29T13:49:18Z</time>
      </trkpt>
      <trkpt lat="44.51277" lon="1.36421">
        <ele>234.6</ele>
        <time>2025-05-29T13:49:19Z</time>
      </trkpt>
      <trkpt lat="44.51278" lon="1.36419">
        <ele>234.8</ele>
        <time>2025-05-29T13:49:20Z</time>
      </trkpt>
      <trkpt lat="44.51279" lon="1.36416">
        <ele>235</ele>
        <time>2025-05-29T13:49:21Z</time>
      </trkpt>
      <trkpt lat="44.51279" lon="1.36414">
        <ele>235.2</ele>
        <time>2025-05-29T13:49:22Z</time>
      </trkpt>
      <trkpt lat="44.5128" lon="1.36412">
        <ele>235.4</ele>
        <time>2025-05-29T13:49:23Z</time>
      </trkpt>
      <trkpt lat="44.5128" lon="1.3641">
        <ele>235.6</ele>
        <time>2025-05-29T13:49:24Z</time>
      </trkpt>
      <trkpt lat="44.51281" lon="1.36408">
        <ele>235.8</ele>
        <time>2025-05-29T13:49:25Z</time>
      </trkpt>
      <trkpt lat="44.51282" lon="1.36406">
        <ele>236</ele>
        <time>2025-05-29T13:49:26Z</time>
      </trkpt>
      <trkpt lat="44.51282" lon="1.36405">
        <ele>236.2</ele>
        <time>2025-05-29T13:49:27Z</time>
      </trkpt>
      <trkpt lat="44.51283" lon="1.36402">
        <ele>236.4</ele>
        <time>2025-05-29T13:49:28Z</time>
      </trkpt>
      <trkpt lat="44.51284" lon="1.364">
        <ele>236.6</ele>
        <time>2025-05-29T13:49:29Z</time>
      </trkpt>
      <trkpt lat="44.51284" lon="1.36398">
        <ele>236.8</ele>
        <time>2025-05-29T13:49:30Z</time>
      </trkpt>
      <trkpt lat="44.51285" lon="1.36396">
        <ele>236.8</ele>
        <time>2025-05-29T13:49:31Z</time>
      </trkpt>
      <trkpt lat="44.51285" lon="1.36395">
        <ele>237.2</ele>
        <time>2025-05-29T13:49:32Z</time>
      </trkpt>
      <trkpt lat="44.51286" lon="1.36392">
        <ele>237.4</ele>
        <time>2025-05-29T13:49:33Z</time>
      </trkpt>
      <trkpt lat="44.51286" lon="1.36391">
        <ele>237.6</ele>
        <time>2025-05-29T13:49:34Z</time>
      </trkpt>
      <trkpt lat="44.51287" lon="1.36389">
        <ele>238</ele>
        <time>2025-05-29T13:49:35Z</time>
      </trkpt>
      <trkpt lat="44.51288" lon="1.36387">
        <ele>238.2</ele>
        <time>2025-05-29T13:49:36Z</time>
      </trkpt>
      <trkpt lat="44.51289" lon="1.36385">
        <ele>238.4</ele>
        <time>2025-05-29T13:49:37Z</time>
      </trkpt>
      <trkpt lat="44.51289" lon="1.36383">
        <ele>238.6</ele>
        <time>2025-05-29T13:49:38Z</time>
      </trkpt>
      <trkpt lat="44.5129" lon="1.3638">
        <ele>238.8</ele>
        <time>2025-05-29T13:49:39Z</time>
      </trkpt>
      <trkpt lat="44.5129" lon="1.36378">
        <ele>239</ele>
        <time>2025-05-29T13:49:40Z</time>
      </trkpt>
      <trkpt lat="44.51291" lon="1.36376">
        <ele>239.4</ele>
        <time>2025-05-29T13:49:41Z</time>
      </trkpt>
      <trkpt lat="44.51292" lon="1.36375">
        <ele>239.6</ele>
        <time>2025-05-29T13:49:42Z</time>
      </trkpt>
      <trkpt lat="44.51293" lon="1.36373">
        <ele>239.6</ele>
        <time>2025-05-29T13:49:43Z</time>
      </trkpt>
      <trkpt lat="44.51294" lon="1.36371">
        <ele>239.8</ele>
        <time>2025-05-29T13:49:44Z</time>
      </trkpt>
      <trkpt lat="44.51295" lon="1.36369">
        <ele>240</ele>
        <time>2025-05-29T13:49:45Z</time>
      </trkpt>
      <trkpt lat="44.51295" lon="1.36367">
        <ele>239.6</ele>
        <time>2025-05-29T13:49:46Z</time>
      </trkpt>
      <trkpt lat="44.51296" lon="1.36364">
        <ele>239.6</ele>
        <time>2025-05-29T13:49:47Z</time>
      </trkpt>
      <trkpt lat="44.51297" lon="1.36362">
        <ele>239.8</ele>
        <time>2025-05-29T13:49:48Z</time>
      </trkpt>
      <trkpt lat="44.51298" lon="1.36359">
        <ele>239.8</ele>
        <time>2025-05-29T13:49:49Z</time>
      </trkpt>
      <trkpt lat="44.51299" lon="1.36357">
        <ele>240</ele>
        <time>2025-05-29T13:49:50Z</time>
      </trkpt>
      <trkpt lat="44.513" lon="1.36355">
        <ele>240</ele>
        <time>2025-05-29T13:49:51Z</time>
      </trkpt>
      <trkpt lat="44.51301" lon="1.36352">
        <ele>240</ele>
        <time>2025-05-29T13:49:52Z</time>
      </trkpt>
      <trkpt lat="44.51301" lon="1.3635">
        <ele>240.2</ele>
        <time>2025-05-29T13:49:53Z</time>
      </trkpt>
      <trkpt lat="44.51302" lon="1.36347">
        <ele>240.2</ele>
        <time>2025-05-29T13:49:54Z</time>
      </trkpt>
      <trkpt lat="44.51303" lon="1.36345">
        <ele>240.2</ele>
        <time>2025-05-29T13:49:55Z</time>
      </trkpt>
      <trkpt lat="44.51304" lon="1.36342">
        <ele>240.4</ele>
        <time>2025-05-29T13:49:56Z</time>
      </trkpt>
      <trkpt lat="44.51305" lon="1.3634">
        <ele>240.4</ele>
        <time>2025-05-29T13:49:57Z</time>
      </trkpt>
      <trkpt lat="44.51305" lon="1.36338">
        <ele>240.4</ele>
        <time>2025-05-29T13:49:58Z</time>
      </trkpt>
      <trkpt lat="44.51306" lon="1.36336">
        <ele>240.6</ele>
        <time>2025-05-29T13:49:59Z</time>
      </trkpt>
      <trkpt lat="44.51307" lon="1.36333">
        <ele>240.6</ele>
        <time>2025-05-29T13:50:00Z</time>
      </trkpt>
      <trkpt lat="44.51308" lon="1.3633">
        <ele>240.8</ele>
        <time>2025-05-29T13:50:01Z</time>
      </trkpt>
      <trkpt lat="44.51309" lon="1.36326">
        <ele>240.8</ele>
        <time>2025-05-29T13:50:02Z</time>
      </trkpt>
      <trkpt lat="44.5131" lon="1.36323">
        <ele>240.8</ele>
        <time>2025-05-29T13:50:03Z</time>
      </trkpt>
      <trkpt lat="44.51311" lon="1.36319">
        <ele>240.8</ele>
        <time>2025-05-29T13:50:04Z</time>
      </trkpt>
      <trkpt lat="44.51312" lon="1.36315">
        <ele>240.8</ele>
        <time>2025-05-29T13:50:05Z</time>
      </trkpt>
      <trkpt lat="44.51314" lon="1.36311">
        <ele>240.6</ele>
        <time>2025-05-29T13:50:06Z</time>
      </trkpt>
      <trkpt lat="44.51315" lon="1.36307">
        <ele>240.6</ele>
        <time>2025-05-29T13:50:07Z</time>
      </trkpt>
      <trkpt lat="44.51317" lon="1.36303">
        <ele>240.4</ele>
        <time>2025-05-29T13:50:08Z</time>
      </trkpt>
      <trkpt lat="44.51318" lon="1.36299">
        <ele>240.2</ele>
        <time>2025-05-29T13:50:09Z</time>
      </trkpt>
      <trkpt lat="44.5132" lon="1.36295">
        <ele>240.2</ele>
        <time>2025-05-29T13:50:10Z</time>
      </trkpt>
      <trkpt lat="44.51321" lon="1.36291">
        <ele>240.2</ele>
        <time>2025-05-29T13:50:11Z</time>
      </trkpt>
      <trkpt lat="44.51322" lon="1.36287">
        <ele>240.2</ele>
        <time>2025-05-29T13:50:12Z</time>
      </trkpt>
      <trkpt lat="44.51323" lon="1.36282">
        <ele>240</ele>
        <time>2025-05-29T13:50:13Z</time>
      </trkpt>
      <trkpt lat="44.51325" lon="1.36278">
        <ele>240</ele>
        <time>2025-05-29T13:50:14Z</time>
      </trkpt>
      <trkpt lat="44.51327" lon="1.36273">
        <ele>240</ele>
        <time>2025-05-29T13:50:15Z</time>
      </trkpt>
      <trkpt lat="44.51328" lon="1.36269">
        <ele>239.8</ele>
        <time>2025-05-29T13:50:16Z</time>
      </trkpt>
      <trkpt lat="44.5133" lon="1.36264">
        <ele>239.8</ele>
        <time>2025-05-29T13:50:17Z</time>
      </trkpt>
      <trkpt lat="44.51332" lon="1.36259">
        <ele>239.8</ele>
        <time>2025-05-29T13:50:18Z</time>
      </trkpt>
      <trkpt lat="44.51334" lon="1.36254">
        <ele>239.6</ele>
        <time>2025-05-29T13:50:19Z</time>
      </trkpt>
      <trkpt lat="44.51336" lon="1.36249">
        <ele>239.4</ele>
        <time>2025-05-29T13:50:20Z</time>
      </trkpt>
      <trkpt lat="44.51339" lon="1.36243">
        <ele>239.2</ele>
        <time>2025-05-29T13:50:21Z</time>
      </trkpt>
      <trkpt lat="44.51341" lon="1.36237">
        <ele>239</ele>
        <time>2025-05-29T13:50:22Z</time>
      </trkpt>
      <trkpt lat="44.51342" lon="1.36231">
        <ele>239</ele>
        <time>2025-05-29T13:50:23Z</time>
      </trkpt>
      <trkpt lat="44.51345" lon="1.36225">
        <ele>238.8</ele>
        <time>2025-05-29T13:50:24Z</time>
      </trkpt>
      <trkpt lat="44.51347" lon="1.36218">
        <ele>238.6</ele>
        <time>2025-05-29T13:50:25Z</time>
      </trkpt>
      <trkpt lat="44.51349" lon="1.3621">
        <ele>238.4</ele>
        <time>2025-05-29T13:50:26Z</time>
      </trkpt>
      <trkpt lat="44.51352" lon="1.36203">
        <ele>237.8</ele>
        <time>2025-05-29T13:50:27Z</time>
      </trkpt>
      <trkpt lat="44.51355" lon="1.36196">
        <ele>237.2</ele>
        <time>2025-05-29T13:50:28Z</time>
      </trkpt>
      <trkpt lat="44.51357" lon="1.36188">
        <ele>236.8</ele>
        <time>2025-05-29T13:50:29Z</time>
      </trkpt>
      <trkpt lat="44.5136" lon="1.3618">
        <ele>236.2</ele>
        <time>2025-05-29T13:50:30Z</time>
      </trkpt>
      <trkpt lat="44.51363" lon="1.36172">
        <ele>235.8</ele>
        <time>2025-05-29T13:50:31Z</time>
      </trkpt>
      <trkpt lat="44.51365" lon="1.36164">
        <ele>235.6</ele>
        <time>2025-05-29T13:50:32Z</time>
      </trkpt>
      <trkpt lat="44.51367" lon="1.36156">
        <ele>235.6</ele>
        <time>2025-05-29T13:50:33Z</time>
      </trkpt>
      <trkpt lat="44.5137" lon="1.36148">
        <ele>235.2</ele>
        <time>2025-05-29T13:50:34Z</time>
      </trkpt>
      <trkpt lat="44.51371" lon="1.36139">
        <ele>235</ele>
        <time>2025-05-29T13:50:35Z</time>
      </trkpt>
      <trkpt lat="44.51372" lon="1.3613">
        <ele>235</ele>
        <time>2025-05-29T13:50:36Z</time>
      </trkpt>
      <trkpt lat="44.51373" lon="1.36122">
        <ele>234.8</ele>
        <time>2025-05-29T13:50:37Z</time>
      </trkpt>
      <trkpt lat="44.51373" lon="1.36114">
        <ele>234.6</ele>
        <time>2025-05-29T13:50:38Z</time>
      </trkpt>
      <trkpt lat="44.51374" lon="1.36107">
        <ele>234.4</ele>
        <time>2025-05-29T13:50:39Z</time>
      </trkpt>
      <trkpt lat="44.51375" lon="1.36099">
        <ele>234.4</ele>
        <time>2025-05-29T13:50:40Z</time>
      </trkpt>
      <trkpt lat="44.51376" lon="1.36092">
        <ele>234.4</ele>
        <time>2025-05-29T13:50:41Z</time>
      </trkpt>
      <trkpt lat="44.51376" lon="1.36086">
        <ele>234.4</ele>
        <time>2025-05-29T13:50:42Z</time>
      </trkpt>
      <trkpt lat="44.51377" lon="1.36079">
        <ele>234.4</ele>
        <time>2025-05-29T13:50:43Z</time>
      </trkpt>
      <trkpt lat="44.51377" lon="1.36074">
        <ele>234.6</ele>
        <time>2025-05-29T13:50:44Z</time>
      </trkpt>
      <trkpt lat="44.51377" lon="1.3607">
        <ele>234.6</ele>
        <time>2025-05-29T13:50:45Z</time>
      </trkpt>
      <trkpt lat="44.51377" lon="1.36065">
        <ele>235</ele>
        <time>2025-05-29T13:50:46Z</time>
      </trkpt>
      <trkpt lat="44.51376" lon="1.36061">
        <ele>235.2</ele>
        <time>2025-05-29T13:50:47Z</time>
      </trkpt>
      <trkpt lat="44.51375" lon="1.36057">
        <ele>235.4</ele>
        <time>2025-05-29T13:50:48Z</time>
      </trkpt>
      <trkpt lat="44.51375" lon="1.36052">
        <ele>235.6</ele>
        <time>2025-05-29T13:50:49Z</time>
      </trkpt>
      <trkpt lat="44.51374" lon="1.36048">
        <ele>235.8</ele>
        <time>2025-05-29T13:50:50Z</time>
      </trkpt>
      <trkpt lat="44.51373" lon="1.36043">
        <ele>235.8</ele>
        <time>2025-05-29T13:50:51Z</time>
      </trkpt>
      <trkpt lat="44.51373" lon="1.36039">
        <ele>236</ele>
        <time>2025-05-29T13:50:52Z</time>
      </trkpt>
      <trkpt lat="44.51373" lon="1.36035">
        <ele>236.2</ele>
        <time>2025-05-29T13:50:53Z</time>
      </trkpt>
      <trkpt lat="44.51373" lon="1.36031">
        <ele>236.2</ele>
        <time>2025-05-29T13:50:54Z</time>
      </trkpt>
      <trkpt lat="44.51373" lon="1.36026">
        <ele>236.4</ele>
        <time>2025-05-29T13:50:55Z</time>
      </trkpt>
      <trkpt lat="44.51373" lon="1.36022">
        <ele>236.4</ele>
        <time>2025-05-29T13:50:56Z</time>
      </trkpt>
      <trkpt lat="44.51374" lon="1.36018">
        <ele>236.4</ele>
        <time>2025-05-29T13:50:57Z</time>
      </trkpt>
      <trkpt lat="44.51373" lon="1.36013">
        <ele>236.8</ele>
        <time>2025-05-29T13:50:58Z</time>
      </trkpt>
      <trkpt lat="44.51373" lon="1.36009">
        <ele>237</ele>
        <time>2025-05-29T13:50:59Z</time>
      </trkpt>
      <trkpt lat="44.51373" lon="1.36005">
        <ele>237.2</ele>
        <time>2025-05-29T13:51:00Z</time>
      </trkpt>
      <trkpt lat="44.51374" lon="1.36001">
        <ele>237.4</ele>
        <time>2025-05-29T13:51:01Z</time>
      </trkpt>
      <trkpt lat="44.51374" lon="1.35997">
        <ele>237.8</ele>
        <time>2025-05-29T13:51:02Z</time>
      </trkpt>
      <trkpt lat="44.51374" lon="1.35993">
        <ele>238</ele>
        <time>2025-05-29T13:51:03Z</time>
      </trkpt>
      <trkpt lat="44.51374" lon="1.35989">
        <ele>238.2</ele>
        <time>2025-05-29T13:51:04Z</time>
      </trkpt>
      <trkpt lat="44.51373" lon="1.35985">
        <ele>238.4</ele>
        <time>2025-05-29T13:51:05Z</time>
      </trkpt>
      <trkpt lat="44.51373" lon="1.35981">
        <ele>238.8</ele>
        <time>2025-05-29T13:51:06Z</time>
      </trkpt>
      <trkpt lat="44.51373" lon="1.35977">
        <ele>239</ele>
        <time>2025-05-29T13:51:07Z</time>
      </trkpt>
      <trkpt lat="44.51373" lon="1.35973">
        <ele>239.2</ele>
        <time>2025-05-29T13:51:08Z</time>
      </trkpt>
      <trkpt lat="44.51373" lon="1.35969">
        <ele>239.4</ele>
        <time>2025-05-29T13:51:09Z</time>
      </trkpt>
      <trkpt lat="44.51372" lon="1.35966">
        <ele>239.6</ele>
        <time>2025-05-29T13:51:10Z</time>
      </trkpt>
      <trkpt lat="44.51372" lon="1.35962">
        <ele>239.6</ele>
        <time>2025-05-29T13:51:11Z</time>
      </trkpt>
      <trkpt lat="44.51372" lon="1.3596">
        <ele>240</ele>
        <time>2025-05-29T13:51:12Z</time>
      </trkpt>
      <trkpt lat="44.51371" lon="1.35958">
        <ele>240</ele>
        <time>2025-05-29T13:51:13Z</time>
      </trkpt>
      <trkpt lat="44.51371" lon="1.35956">
        <ele>240.4</ele>
        <time>2025-05-29T13:51:14Z</time>
      </trkpt>
      <trkpt lat="44.51371" lon="1.35954">
        <ele>240.6</ele>
        <time>2025-05-29T13:51:15Z</time>
      </trkpt>
      <trkpt lat="44.51371" lon="1.35952">
        <ele>240.6</ele>
        <time>2025-05-29T13:51:16Z</time>
      </trkpt>
      <trkpt lat="44.51371" lon="1.3595">
        <ele>240.8</ele>
        <time>2025-05-29T13:51:17Z</time>
      </trkpt>
      <trkpt lat="44.5137" lon="1.35948">
        <ele>241</ele>
        <time>2025-05-29T13:51:18Z</time>
      </trkpt>
      <trkpt lat="44.5137" lon="1.35945">
        <ele>241.2</ele>
        <time>2025-05-29T13:51:19Z</time>
      </trkpt>
      <trkpt lat="44.5137" lon="1.35943">
        <ele>241.2</ele>
        <time>2025-05-29T13:51:20Z</time>
      </trkpt>
      <trkpt lat="44.5137" lon="1.35941">
        <ele>241.4</ele>
        <time>2025-05-29T13:51:21Z</time>
      </trkpt>
      <trkpt lat="44.5137" lon="1.35939">
        <ele>241.6</ele>
        <time>2025-05-29T13:51:22Z</time>
      </trkpt>
      <trkpt lat="44.51369" lon="1.35937">
        <ele>241.8</ele>
        <time>2025-05-29T13:51:23Z</time>
      </trkpt>
      <trkpt lat="44.51369" lon="1.35935">
        <ele>241.8</ele>
        <time>2025-05-29T13:51:24Z</time>
      </trkpt>
      <trkpt lat="44.51369" lon="1.35933">
        <ele>242</ele>
        <time>2025-05-29T13:51:25Z</time>
      </trkpt>
      <trkpt lat="44.51369" lon="1.3593">
        <ele>242.2</ele>
        <time>2025-05-29T13:51:26Z</time>
      </trkpt>
      <trkpt lat="44.51369" lon="1.35928">
        <ele>242.4</ele>
        <time>2025-05-29T13:51:27Z</time>
      </trkpt>
      <trkpt lat="44.51368" lon="1.35926">
        <ele>242.6</ele>
        <time>2025-05-29T13:51:28Z</time>
      </trkpt>
      <trkpt lat="44.51368" lon="1.35924">
        <ele>242.6</ele>
        <time>2025-05-29T13:51:29Z</time>
      </trkpt>
      <trkpt lat="44.51368" lon="1.35921">
        <ele>242.8</ele>
        <time>2025-05-29T13:51:30Z</time>
      </trkpt>
      <trkpt lat="44.51368" lon="1.35919">
        <ele>242.8</ele>
        <time>2025-05-29T13:51:31Z</time>
      </trkpt>
      <trkpt lat="44.51368" lon="1.35916">
        <ele>242.8</ele>
        <time>2025-05-29T13:51:32Z</time>
      </trkpt>
      <trkpt lat="44.51367" lon="1.35914">
        <ele>243</ele>
        <time>2025-05-29T13:51:33Z</time>
      </trkpt>
      <trkpt lat="44.51367" lon="1.35912">
        <ele>243</ele>
        <time>2025-05-29T13:51:34Z</time>
      </trkpt>
      <trkpt lat="44.51367" lon="1.3591">
        <ele>243.2</ele>
        <time>2025-05-29T13:51:35Z</time>
      </trkpt>
      <trkpt lat="44.51367" lon="1.35908">
        <ele>243.2</ele>
        <time>2025-05-29T13:51:36Z</time>
      </trkpt>
      <trkpt lat="44.51366" lon="1.35906">
        <ele>243.4</ele>
        <time>2025-05-29T13:51:37Z</time>
      </trkpt>
      <trkpt lat="44.51366" lon="1.35903">
        <ele>243.6</ele>
        <time>2025-05-29T13:51:38Z</time>
      </trkpt>
      <trkpt lat="44.51366" lon="1.35901">
        <ele>243.6</ele>
        <time>2025-05-29T13:51:39Z</time>
      </trkpt>
      <trkpt lat="44.51366" lon="1.35899">
        <ele>243.8</ele>
        <time>2025-05-29T13:51:40Z</time>
      </trkpt>
      <trkpt lat="44.51366" lon="1.35897">
        <ele>244</ele>
        <time>2025-05-29T13:51:41Z</time>
      </trkpt>
      <trkpt lat="44.51366" lon="1.35895">
        <ele>244.2</ele>
        <time>2025-05-29T13:51:42Z</time>
      </trkpt>
      <trkpt lat="44.51366" lon="1.35893">
        <ele>244.4</ele>
        <time>2025-05-29T13:51:43Z</time>
      </trkpt>
      <trkpt lat="44.51365" lon="1.35891">
        <ele>244.6</ele>
        <time>2025-05-29T13:51:44Z</time>
      </trkpt>
      <trkpt lat="44.51365" lon="1.35889">
        <ele>244.8</ele>
        <time>2025-05-29T13:51:45Z</time>
      </trkpt>
      <trkpt lat="44.51365" lon="1.35886">
        <ele>245</ele>
        <time>2025-05-29T13:51:46Z</time>
      </trkpt>
      <trkpt lat="44.51365" lon="1.35884">
        <ele>245.2</ele>
        <time>2025-05-29T13:51:47Z</time>
      </trkpt>
      <trkpt lat="44.51364" lon="1.35882">
        <ele>245.2</ele>
        <time>2025-05-29T13:51:48Z</time>
      </trkpt>
      <trkpt lat="44.51364" lon="1.3588">
        <ele>245.4</ele>
        <time>2025-05-29T13:51:49Z</time>
      </trkpt>
      <trkpt lat="44.51364" lon="1.35877">
        <ele>245.4</ele>
        <time>2025-05-29T13:51:50Z</time>
      </trkpt>
      <trkpt lat="44.51364" lon="1.35875">
        <ele>245.6</ele>
        <time>2025-05-29T13:51:51Z</time>
      </trkpt>
      <trkpt lat="44.51364" lon="1.35873">
        <ele>245.6</ele>
        <time>2025-05-29T13:51:52Z</time>
      </trkpt>
      <trkpt lat="44.51364" lon="1.3587">
        <ele>245.8</ele>
        <time>2025-05-29T13:51:53Z</time>
      </trkpt>
      <trkpt lat="44.51364" lon="1.35868">
        <ele>246</ele>
        <time>2025-05-29T13:51:54Z</time>
      </trkpt>
      <trkpt lat="44.51364" lon="1.35865">
        <ele>246</ele>
        <time>2025-05-29T13:51:55Z</time>
      </trkpt>
      <trkpt lat="44.51364" lon="1.35862">
        <ele>246.4</ele>
        <time>2025-05-29T13:51:56Z</time>
      </trkpt>
      <trkpt lat="44.51364" lon="1.35859">
        <ele>246.6</ele>
        <time>2025-05-29T13:51:57Z</time>
      </trkpt>
      <trkpt lat="44.51364" lon="1.35856">
        <ele>246.6</ele>
        <time>2025-05-29T13:51:58Z</time>
      </trkpt>
      <trkpt lat="44.51364" lon="1.35853">
        <ele>246.8</ele>
        <time>2025-05-29T13:51:59Z</time>
      </trkpt>
      <trkpt lat="44.51364" lon="1.35851">
        <ele>247</ele>
        <time>2025-05-29T13:52:00Z</time>
      </trkpt>
      <trkpt lat="44.51364" lon="1.35848">
        <ele>247.2</ele>
        <time>2025-05-29T13:52:01Z</time>
      </trkpt>
      <trkpt lat="44.51363" lon="1.35845">
        <ele>247.2</ele>
        <time>2025-05-29T13:52:02Z</time>
      </trkpt>
      <trkpt lat="44.51363" lon="1.35843">
        <ele>247.4</ele>
        <time>2025-05-29T13:52:03Z</time>
      </trkpt>
      <trkpt lat="44.51363" lon="1.3584">
        <ele>247.6</ele>
        <time>2025-05-29T13:52:04Z</time>
      </trkpt>
      <trkpt lat="44.51363" lon="1.35838">
        <ele>247.6</ele>
        <time>2025-05-29T13:52:05Z</time>
      </trkpt>
      <trkpt lat="44.51363" lon="1.35835">
        <ele>247.8</ele>
        <time>2025-05-29T13:52:06Z</time>
      </trkpt>
      <trkpt lat="44.51363" lon="1.35832">
        <ele>248</ele>
        <time>2025-05-29T13:52:07Z</time>
      </trkpt>
      <trkpt lat="44.51363" lon="1.35829">
        <ele>248.2</ele>
        <time>2025-05-29T13:52:08Z</time>
      </trkpt>
      <trkpt lat="44.51362" lon="1.35827">
        <ele>248.2</ele>
        <time>2025-05-29T13:52:09Z</time>
      </trkpt>
      <trkpt lat="44.51362" lon="1.35824">
        <ele>248.2</ele>
        <time>2025-05-29T13:52:10Z</time>
      </trkpt>
      <trkpt lat="44.51362" lon="1.35821">
        <ele>248.4</ele>
        <time>2025-05-29T13:52:11Z</time>
      </trkpt>
      <trkpt lat="44.51362" lon="1.35818">
        <ele>248.4</ele>
        <time>2025-05-29T13:52:12Z</time>
      </trkpt>
      <trkpt lat="44.51362" lon="1.35816">
        <ele>248.4</ele>
        <time>2025-05-29T13:52:13Z</time>
      </trkpt>
      <trkpt lat="44.51362" lon="1.35813">
        <ele>248.6</ele>
        <time>2025-05-29T13:52:14Z</time>
      </trkpt>
      <trkpt lat="44.51362" lon="1.3581">
        <ele>249</ele>
        <time>2025-05-29T13:52:15Z</time>
      </trkpt>
      <trkpt lat="44.51362" lon="1.35807">
        <ele>249.2</ele>
        <time>2025-05-29T13:52:16Z</time>
      </trkpt>
      <trkpt lat="44.51362" lon="1.35804">
        <ele>249.6</ele>
        <time>2025-05-29T13:52:17Z</time>
      </trkpt>
      <trkpt lat="44.51362" lon="1.35802">
        <ele>249.6</ele>
        <time>2025-05-29T13:52:18Z</time>
      </trkpt>
      <trkpt lat="44.51361" lon="1.35799">
        <ele>249.6</ele>
        <time>2025-05-29T13:52:19Z</time>
      </trkpt>
      <trkpt lat="44.51361" lon="1.35796">
        <ele>249.6</ele>
        <time>2025-05-29T13:52:20Z</time>
      </trkpt>
      <trkpt lat="44.51361" lon="1.35793">
        <ele>249.8</ele>
        <time>2025-05-29T13:52:21Z</time>
      </trkpt>
      <trkpt lat="44.5136" lon="1.3579">
        <ele>249.8</ele>
        <time>2025-05-29T13:52:22Z</time>
      </trkpt>
      <trkpt lat="44.5136" lon="1.35787">
        <ele>249.8</ele>
        <time>2025-05-29T13:52:23Z</time>
      </trkpt>
      <trkpt lat="44.5136" lon="1.35785">
        <ele>250</ele>
        <time>2025-05-29T13:52:24Z</time>
      </trkpt>
      <trkpt lat="44.5136" lon="1.35782">
        <ele>250.2</ele>
        <time>2025-05-29T13:52:25Z</time>
      </trkpt>
      <trkpt lat="44.5136" lon="1.3578">
        <ele>250.4</ele>
        <time>2025-05-29T13:52:26Z</time>
      </trkpt>
      <trkpt lat="44.5136" lon="1.35777">
        <ele>250.6</ele>
        <time>2025-05-29T13:52:27Z</time>
      </trkpt>
      <trkpt lat="44.51359" lon="1.35774">
        <ele>250.6</ele>
        <time>2025-05-29T13:52:28Z</time>
      </trkpt>
      <trkpt lat="44.51359" lon="1.35772">
        <ele>250.8</ele>
        <time>2025-05-29T13:52:29Z</time>
      </trkpt>
      <trkpt lat="44.51359" lon="1.35769">
        <ele>250.8</ele>
        <time>2025-05-29T13:52:30Z</time>
      </trkpt>
      <trkpt lat="44.51359" lon="1.35766">
        <ele>251</ele>
        <time>2025-05-29T13:52:31Z</time>
      </trkpt>
      <trkpt lat="44.51359" lon="1.35763">
        <ele>251.2</ele>
        <time>2025-05-29T13:52:32Z</time>
      </trkpt>
      <trkpt lat="44.51359" lon="1.35761">
        <ele>251.4</ele>
        <time>2025-05-29T13:52:33Z</time>
      </trkpt>
      <trkpt lat="44.51359" lon="1.35758">
        <ele>251.6</ele>
        <time>2025-05-29T13:52:34Z</time>
      </trkpt>
      <trkpt lat="44.51359" lon="1.35755">
        <ele>251.8</ele>
        <time>2025-05-29T13:52:35Z</time>
      </trkpt>
      <trkpt lat="44.51359" lon="1.35752">
        <ele>251.8</ele>
        <time>2025-05-29T13:52:36Z</time>
      </trkpt>
      <trkpt lat="44.51359" lon="1.3575">
        <ele>252</ele>
        <time>2025-05-29T13:52:37Z</time>
      </trkpt>
      <trkpt lat="44.51359" lon="1.35747">
        <ele>252.2</ele>
        <time>2025-05-29T13:52:38Z</time>
      </trkpt>
      <trkpt lat="44.51359" lon="1.35744">
        <ele>252.2</ele>
        <time>2025-05-29T13:52:39Z</time>
      </trkpt>
      <trkpt lat="44.51359" lon="1.35741">
        <ele>252.4</ele>
        <time>2025-05-29T13:52:40Z</time>
      </trkpt>
      <trkpt lat="44.51359" lon="1.35739">
        <ele>252.6</ele>
        <time>2025-05-29T13:52:41Z</time>
      </trkpt>
      <trkpt lat="44.51359" lon="1.35736">
        <ele>252.8</ele>
        <time>2025-05-29T13:52:42Z</time>
      </trkpt>
      <trkpt lat="44.51359" lon="1.35733">
        <ele>252.8</ele>
        <time>2025-05-29T13:52:43Z</time>
      </trkpt>
      <trkpt lat="44.51359" lon="1.3573">
        <ele>252.8</ele>
        <time>2025-05-29T13:52:44Z</time>
      </trkpt>
      <trkpt lat="44.51359" lon="1.35727">
        <ele>253</ele>
        <time>2025-05-29T13:52:45Z</time>
      </trkpt>
      <trkpt lat="44.51359" lon="1.35724">
        <ele>253</ele>
        <time>2025-05-29T13:52:46Z</time>
      </trkpt>
      <trkpt lat="44.51359" lon="1.35722">
        <ele>253</ele>
        <time>2025-05-29T13:52:47Z</time>
      </trkpt>
      <trkpt lat="44.51359" lon="1.35719">
        <ele>253.4</ele>
        <time>2025-05-29T13:52:48Z</time>
      </trkpt>
      <trkpt lat="44.51359" lon="1.35716">
        <ele>253.6</ele>
        <time>2025-05-29T13:52:49Z</time>
      </trkpt>
      <trkpt lat="44.51359" lon="1.35713">
        <ele>253.8</ele>
        <time>2025-05-29T13:52:50Z</time>
      </trkpt>
      <trkpt lat="44.51359" lon="1.3571">
        <ele>254</ele>
        <time>2025-05-29T13:52:51Z</time>
      </trkpt>
      <trkpt lat="44.51359" lon="1.35707">
        <ele>254.2</ele>
        <time>2025-05-29T13:52:52Z</time>
      </trkpt>
      <trkpt lat="44.51359" lon="1.35704">
        <ele>254.2</ele>
        <time>2025-05-29T13:52:53Z</time>
      </trkpt>
      <trkpt lat="44.51359" lon="1.35701">
        <ele>254.4</ele>
        <time>2025-05-29T13:52:54Z</time>
      </trkpt>
      <trkpt lat="44.51359" lon="1.35698">
        <ele>254.4</ele>
        <time>2025-05-29T13:52:55Z</time>
      </trkpt>
      <trkpt lat="44.51359" lon="1.35695">
        <ele>254.6</ele>
        <time>2025-05-29T13:52:56Z</time>
      </trkpt>
      <trkpt lat="44.51359" lon="1.35693">
        <ele>254.6</ele>
        <time>2025-05-29T13:52:57Z</time>
      </trkpt>
      <trkpt lat="44.51359" lon="1.35689">
        <ele>254.6</ele>
        <time>2025-05-29T13:52:58Z</time>
      </trkpt>
      <trkpt lat="44.51359" lon="1.35686">
        <ele>254.8</ele>
        <time>2025-05-29T13:52:59Z</time>
      </trkpt>
      <trkpt lat="44.51359" lon="1.35682">
        <ele>254.8</ele>
        <time>2025-05-29T13:53:00Z</time>
      </trkpt>
      <trkpt lat="44.51359" lon="1.35679">
        <ele>255</ele>
        <time>2025-05-29T13:53:01Z</time>
      </trkpt>
      <trkpt lat="44.51359" lon="1.35675">
        <ele>255</ele>
        <time>2025-05-29T13:53:02Z</time>
      </trkpt>
      <trkpt lat="44.5136" lon="1.35672">
        <ele>255</ele>
        <time>2025-05-29T13:53:03Z</time>
      </trkpt>
      <trkpt lat="44.5136" lon="1.35668">
        <ele>255.2</ele>
        <time>2025-05-29T13:53:04Z</time>
      </trkpt>
      <trkpt lat="44.5136" lon="1.35665">
        <ele>255.2</ele>
        <time>2025-05-29T13:53:05Z</time>
      </trkpt>
      <trkpt lat="44.5136" lon="1.35661">
        <ele>255.4</ele>
        <time>2025-05-29T13:53:06Z</time>
      </trkpt>
      <trkpt lat="44.51361" lon="1.35658">
        <ele>255.4</ele>
        <time>2025-05-29T13:53:07Z</time>
      </trkpt>
      <trkpt lat="44.51361" lon="1.35654">
        <ele>255.6</ele>
        <time>2025-05-29T13:53:08Z</time>
      </trkpt>
      <trkpt lat="44.51362" lon="1.3565">
        <ele>255.6</ele>
        <time>2025-05-29T13:53:09Z</time>
      </trkpt>
      <trkpt lat="44.51362" lon="1.35646">
        <ele>255.6</ele>
        <time>2025-05-29T13:53:10Z</time>
      </trkpt>
      <trkpt lat="44.51362" lon="1.35642">
        <ele>255.6</ele>
        <time>2025-05-29T13:53:11Z</time>
      </trkpt>
      <trkpt lat="44.51362" lon="1.35638">
        <ele>255.4</ele>
        <time>2025-05-29T13:53:12Z</time>
      </trkpt>
      <trkpt lat="44.51363" lon="1.35633">
        <ele>255.4</ele>
        <time>2025-05-29T13:53:13Z</time>
      </trkpt>
      <trkpt lat="44.51363" lon="1.35629">
        <ele>255.2</ele>
        <time>2025-05-29T13:53:14Z</time>
      </trkpt>
      <trkpt lat="44.51363" lon="1.35625">
        <ele>255.2</ele>
        <time>2025-05-29T13:53:15Z</time>
      </trkpt>
      <trkpt lat="44.51363" lon="1.3562">
        <ele>255</ele>
        <time>2025-05-29T13:53:16Z</time>
      </trkpt>
      <trkpt lat="44.51363" lon="1.35615">
        <ele>255</ele>
        <time>2025-05-29T13:53:17Z</time>
      </trkpt>
      <trkpt lat="44.51363" lon="1.3561">
        <ele>255</ele>
        <time>2025-05-29T13:53:18Z</time>
      </trkpt>
      <trkpt lat="44.51364" lon="1.35604">
        <ele>254.8</ele>
        <time>2025-05-29T13:53:19Z</time>
      </trkpt>
      <trkpt lat="44.51365" lon="1.35598">
        <ele>255</ele>
        <time>2025-05-29T13:53:20Z</time>
      </trkpt>
      <trkpt lat="44.51366" lon="1.35592">
        <ele>254.8</ele>
        <time>2025-05-29T13:53:21Z</time>
      </trkpt>
      <trkpt lat="44.51368" lon="1.35587">
        <ele>254.6</ele>
        <time>2025-05-29T13:53:22Z</time>
      </trkpt>
      <trkpt lat="44.5137" lon="1.35581">
        <ele>254.6</ele>
        <time>2025-05-29T13:53:23Z</time>
      </trkpt>
      <trkpt lat="44.51372" lon="1.35575">
        <ele>254.6</ele>
        <time>2025-05-29T13:53:24Z</time>
      </trkpt>
      <trkpt lat="44.51374" lon="1.35569">
        <ele>254.6</ele>
        <time>2025-05-29T13:53:25Z</time>
      </trkpt>
      <trkpt lat="44.51376" lon="1.35562">
        <ele>254.4</ele>
        <time>2025-05-29T13:53:26Z</time>
      </trkpt>
      <trkpt lat="44.51376" lon="1.35554">
        <ele>254.2</ele>
        <time>2025-05-29T13:53:27Z</time>
      </trkpt>
      <trkpt lat="44.51377" lon="1.35546">
        <ele>253.8</ele>
        <time>2025-05-29T13:53:28Z</time>
      </trkpt>
      <trkpt lat="44.51378" lon="1.35537">
        <ele>253.4</ele>
        <time>2025-05-29T13:53:29Z</time>
      </trkpt>
      <trkpt lat="44.51379" lon="1.35528">
        <ele>252.8</ele>
        <time>2025-05-29T13:53:30Z</time>
      </trkpt>
      <trkpt lat="44.5138" lon="1.35518">
        <ele>252.2</ele>
        <time>2025-05-29T13:53:31Z</time>
      </trkpt>
      <trkpt lat="44.51382" lon="1.35509">
        <ele>251.8</ele>
        <time>2025-05-29T13:53:32Z</time>
      </trkpt>
      <trkpt lat="44.51383" lon="1.355">
        <ele>251.4</ele>
        <time>2025-05-29T13:53:33Z</time>
      </trkpt>
      <trkpt lat="44.51385" lon="1.35491">
        <ele>251</ele>
        <time>2025-05-29T13:53:34Z</time>
      </trkpt>
      <trkpt lat="44.51386" lon="1.35481">
        <ele>250.8</ele>
        <time>2025-05-29T13:53:35Z</time>
      </trkpt>
      <trkpt lat="44.51386" lon="1.35471">
        <ele>250.8</ele>
        <time>2025-05-29T13:53:36Z</time>
      </trkpt>
      <trkpt lat="44.51387" lon="1.35462">
        <ele>250.4</ele>
        <time>2025-05-29T13:53:37Z</time>
      </trkpt>
      <trkpt lat="44.51387" lon="1.35453">
        <ele>250.4</ele>
        <time>2025-05-29T13:53:38Z</time>
      </trkpt>
      <trkpt lat="44.51387" lon="1.35446">
        <ele>250.2</ele>
        <time>2025-05-29T13:53:39Z</time>
      </trkpt>
      <trkpt lat="44.51387" lon="1.35439">
        <ele>250.4</ele>
        <time>2025-05-29T13:53:40Z</time>
      </trkpt>
      <trkpt lat="44.51387" lon="1.35432">
        <ele>250.6</ele>
        <time>2025-05-29T13:53:41Z</time>
      </trkpt>
      <trkpt lat="44.51386" lon="1.35426">
        <ele>251</ele>
        <time>2025-05-29T13:53:42Z</time>
      </trkpt>
      <trkpt lat="44.51386" lon="1.3542">
        <ele>251.2</ele>
        <time>2025-05-29T13:53:43Z</time>
      </trkpt>
      <trkpt lat="44.51385" lon="1.35415">
        <ele>251.6</ele>
        <time>2025-05-29T13:53:44Z</time>
      </trkpt>
      <trkpt lat="44.51384" lon="1.35411">
        <ele>251.8</ele>
        <time>2025-05-29T13:53:45Z</time>
      </trkpt>
      <trkpt lat="44.51383" lon="1.35406">
        <ele>252</ele>
        <time>2025-05-29T13:53:46Z</time>
      </trkpt>
      <trkpt lat="44.51382" lon="1.35403">
        <ele>252.2</ele>
        <time>2025-05-29T13:53:47Z</time>
      </trkpt>
      <trkpt lat="44.51381" lon="1.354">
        <ele>252.6</ele>
        <time>2025-05-29T13:53:48Z</time>
      </trkpt>
      <trkpt lat="44.5138" lon="1.35397">
        <ele>252.8</ele>
        <time>2025-05-29T13:53:49Z</time>
      </trkpt>
      <trkpt lat="44.51379" lon="1.35394">
        <ele>253</ele>
        <time>2025-05-29T13:53:50Z</time>
      </trkpt>
      <trkpt lat="44.51378" lon="1.35391">
        <ele>253.2</ele>
        <time>2025-05-29T13:53:51Z</time>
      </trkpt>
      <trkpt lat="44.51377" lon="1.35389">
        <ele>253.4</ele>
        <time>2025-05-29T13:53:52Z</time>
      </trkpt>
      <trkpt lat="44.51377" lon="1.35387">
        <ele>253.8</ele>
        <time>2025-05-29T13:53:53Z</time>
      </trkpt>
      <trkpt lat="44.51376" lon="1.35384">
        <ele>254</ele>
        <time>2025-05-29T13:53:54Z</time>
      </trkpt>
      <trkpt lat="44.51375" lon="1.35382">
        <ele>254.2</ele>
        <time>2025-05-29T13:53:55Z</time>
      </trkpt>
      <trkpt lat="44.51374" lon="1.3538">
        <ele>254.4</ele>
        <time>2025-05-29T13:53:56Z</time>
      </trkpt>
      <trkpt lat="44.51373" lon="1.35378">
        <ele>254.8</ele>
        <time>2025-05-29T13:53:57Z</time>
      </trkpt>
      <trkpt lat="44.51372" lon="1.35376">
        <ele>254.8</ele>
        <time>2025-05-29T13:53:58Z</time>
      </trkpt>
      <trkpt lat="44.51372" lon="1.35374">
        <ele>255</ele>
        <time>2025-05-29T13:53:59Z</time>
      </trkpt>
      <trkpt lat="44.51371" lon="1.35372">
        <ele>255</ele>
        <time>2025-05-29T13:54:00Z</time>
      </trkpt>
      <trkpt lat="44.5137" lon="1.3537">
        <ele>255.2</ele>
        <time>2025-05-29T13:54:01Z</time>
      </trkpt>
      <trkpt lat="44.51369" lon="1.35368">
        <ele>255.2</ele>
        <time>2025-05-29T13:54:02Z</time>
      </trkpt>
      <trkpt lat="44.51368" lon="1.35366">
        <ele>255.4</ele>
        <time>2025-05-29T13:54:03Z</time>
      </trkpt>
      <trkpt lat="44.51368" lon="1.35364">
        <ele>255.6</ele>
        <time>2025-05-29T13:54:04Z</time>
      </trkpt>
      <trkpt lat="44.51367" lon="1.35362">
        <ele>255.8</ele>
        <time>2025-05-29T13:54:05Z</time>
      </trkpt>
      <trkpt lat="44.51367" lon="1.35359">
        <ele>256</ele>
        <time>2025-05-29T13:54:06Z</time>
      </trkpt>
      <trkpt lat="44.51368" lon="1.35357">
        <ele>256.2</ele>
        <time>2025-05-29T13:54:07Z</time>
      </trkpt>
      <trkpt lat="44.51367" lon="1.35355">
        <ele>256.4</ele>
        <time>2025-05-29T13:54:08Z</time>
      </trkpt>
      <trkpt lat="44.51367" lon="1.35353">
        <ele>256.4</ele>
        <time>2025-05-29T13:54:09Z</time>
      </trkpt>
      <trkpt lat="44.51366" lon="1.35352">
        <ele>256.6</ele>
        <time>2025-05-29T13:54:10Z</time>
      </trkpt>
      <trkpt lat="44.51365" lon="1.3535">
        <ele>256.8</ele>
        <time>2025-05-29T13:54:11Z</time>
      </trkpt>
      <trkpt lat="44.51364" lon="1.35348">
        <ele>256.8</ele>
        <time>2025-05-29T13:54:12Z</time>
      </trkpt>
      <trkpt lat="44.51363" lon="1.35346">
        <ele>257</ele>
        <time>2025-05-29T13:54:13Z</time>
      </trkpt>
      <trkpt lat="44.51363" lon="1.35345">
        <ele>257.2</ele>
        <time>2025-05-29T13:54:14Z</time>
      </trkpt>
      <trkpt lat="44.51362" lon="1.35343">
        <ele>257.4</ele>
        <time>2025-05-29T13:54:15Z</time>
      </trkpt>
      <trkpt lat="44.51362" lon="1.3534">
        <ele>257.6</ele>
        <time>2025-05-29T13:54:16Z</time>
      </trkpt>
      <trkpt lat="44.51361" lon="1.35338">
        <ele>257.8</ele>
        <time>2025-05-29T13:54:17Z</time>
      </trkpt>
      <trkpt lat="44.51361" lon="1.35336">
        <ele>258</ele>
        <time>2025-05-29T13:54:18Z</time>
      </trkpt>
      <trkpt lat="44.51361" lon="1.35335">
        <ele>258</ele>
        <time>2025-05-29T13:54:19Z</time>
      </trkpt>
      <trkpt lat="44.5136" lon="1.35333">
        <ele>258.2</ele>
        <time>2025-05-29T13:54:20Z</time>
      </trkpt>
      <trkpt lat="44.5136" lon="1.35331">
        <ele>258.4</ele>
        <time>2025-05-29T13:54:21Z</time>
      </trkpt>
      <trkpt lat="44.51359" lon="1.35329">
        <ele>258.6</ele>
        <time>2025-05-29T13:54:22Z</time>
      </trkpt>
      <trkpt lat="44.51359" lon="1.35327">
        <ele>258.8</ele>
        <time>2025-05-29T13:54:23Z</time>
      </trkpt>
      <trkpt lat="44.51359" lon="1.35326">
        <ele>258.8</ele>
        <time>2025-05-29T13:54:24Z</time>
      </trkpt>
      <trkpt lat="44.51359" lon="1.35324">
        <ele>259</ele>
        <time>2025-05-29T13:54:25Z</time>
      </trkpt>
      <trkpt lat="44.51359" lon="1.35322">
        <ele>259.2</ele>
        <time>2025-05-29T13:54:26Z</time>
      </trkpt>
      <trkpt lat="44.51359" lon="1.3532">
        <ele>259.4</ele>
        <time>2025-05-29T13:54:27Z</time>
      </trkpt>
      <trkpt lat="44.51359" lon="1.35318">
        <ele>259.8</ele>
        <time>2025-05-29T13:54:28Z</time>
      </trkpt>
      <trkpt lat="44.51358" lon="1.35316">
        <ele>259.8</ele>
        <time>2025-05-29T13:54:29Z</time>
      </trkpt>
      <trkpt lat="44.51358" lon="1.35314">
        <ele>260</ele>
        <time>2025-05-29T13:54:30Z</time>
      </trkpt>
      <trkpt lat="44.51358" lon="1.35312">
        <ele>260.2</ele>
        <time>2025-05-29T13:54:31Z</time>
      </trkpt>
      <trkpt lat="44.51358" lon="1.3531">
        <ele>260.4</ele>
        <time>2025-05-29T13:54:32Z</time>
      </trkpt>
      <trkpt lat="44.51358" lon="1.35308">
        <ele>260.6</ele>
        <time>2025-05-29T13:54:33Z</time>
      </trkpt>
      <trkpt lat="44.51358" lon="1.35306">
        <ele>260.8</ele>
        <time>2025-05-29T13:54:34Z</time>
      </trkpt>
      <trkpt lat="44.51358" lon="1.35304">
        <ele>261.2</ele>
        <time>2025-05-29T13:54:35Z</time>
      </trkpt>
      <trkpt lat="44.51357" lon="1.35301">
        <ele>261.4</ele>
        <time>2025-05-29T13:54:36Z</time>
      </trkpt>
      <trkpt lat="44.51357" lon="1.35299">
        <ele>261.6</ele>
        <time>2025-05-29T13:54:37Z</time>
      </trkpt>
      <trkpt lat="44.51357" lon="1.35297">
        <ele>261.6</ele>
        <time>2025-05-29T13:54:38Z</time>
      </trkpt>
      <trkpt lat="44.51357" lon="1.35295">
        <ele>261.8</ele>
        <time>2025-05-29T13:54:39Z</time>
      </trkpt>
      <trkpt lat="44.51357" lon="1.35293">
        <ele>261.6</ele>
        <time>2025-05-29T13:54:40Z</time>
      </trkpt>
      <trkpt lat="44.51356" lon="1.35291">
        <ele>261.6</ele>
        <time>2025-05-29T13:54:41Z</time>
      </trkpt>
      <trkpt lat="44.51356" lon="1.35289">
        <ele>261.4</ele>
        <time>2025-05-29T13:54:42Z</time>
      </trkpt>
      <trkpt lat="44.51355" lon="1.35287">
        <ele>261.4</ele>
        <time>2025-05-29T13:54:43Z</time>
      </trkpt>
      <trkpt lat="44.51355" lon="1.35285">
        <ele>261.6</ele>
        <time>2025-05-29T13:54:44Z</time>
      </trkpt>
      <trkpt lat="44.51355" lon="1.35282">
        <ele>261.8</ele>
        <time>2025-05-29T13:54:45Z</time>
      </trkpt>
      <trkpt lat="44.51354" lon="1.3528">
        <ele>261.8</ele>
        <time>2025-05-29T13:54:46Z</time>
      </trkpt>
      <trkpt lat="44.51353" lon="1.35277">
        <ele>262</ele>
        <time>2025-05-29T13:54:47Z</time>
      </trkpt>
      <trkpt lat="44.51353" lon="1.35274">
        <ele>262</ele>
        <time>2025-05-29T13:54:48Z</time>
      </trkpt>
      <trkpt lat="44.51352" lon="1.35271">
        <ele>262.2</ele>
        <time>2025-05-29T13:54:49Z</time>
      </trkpt>
      <trkpt lat="44.51351" lon="1.35268">
        <ele>262.2</ele>
        <time>2025-05-29T13:54:50Z</time>
      </trkpt>
      <trkpt lat="44.51351" lon="1.35265">
        <ele>262.2</ele>
        <time>2025-05-29T13:54:51Z</time>
      </trkpt>
      <trkpt lat="44.51351" lon="1.35262">
        <ele>262.4</ele>
        <time>2025-05-29T13:54:52Z</time>
      </trkpt>
      <trkpt lat="44.5135" lon="1.35258">
        <ele>262.4</ele>
        <time>2025-05-29T13:54:53Z</time>
      </trkpt>
      <trkpt lat="44.5135" lon="1.35255">
        <ele>262.6</ele>
        <time>2025-05-29T13:54:54Z</time>
      </trkpt>
      <trkpt lat="44.5135" lon="1.35252">
        <ele>262.8</ele>
        <time>2025-05-29T13:54:55Z</time>
      </trkpt>
      <trkpt lat="44.5135" lon="1.35248">
        <ele>262.8</ele>
        <time>2025-05-29T13:54:56Z</time>
      </trkpt>
      <trkpt lat="44.51349" lon="1.35245">
        <ele>262.8</ele>
        <time>2025-05-29T13:54:57Z</time>
      </trkpt>
      <trkpt lat="44.51348" lon="1.35241">
        <ele>262.8</ele>
        <time>2025-05-29T13:54:58Z</time>
      </trkpt>
      <trkpt lat="44.51348" lon="1.35238">
        <ele>262.8</ele>
        <time>2025-05-29T13:54:59Z</time>
      </trkpt>
      <trkpt lat="44.51347" lon="1.35234">
        <ele>262.8</ele>
        <time>2025-05-29T13:55:00Z</time>
      </trkpt>
      <trkpt lat="44.51346" lon="1.3523">
        <ele>262.8</ele>
        <time>2025-05-29T13:55:01Z</time>
      </trkpt>
      <trkpt lat="44.51346" lon="1.35227">
        <ele>262.8</ele>
        <time>2025-05-29T13:55:02Z</time>
      </trkpt>
      <trkpt lat="44.51346" lon="1.35223">
        <ele>262.8</ele>
        <time>2025-05-29T13:55:03Z</time>
      </trkpt>
      <trkpt lat="44.51346" lon="1.3522">
        <ele>263</ele>
        <time>2025-05-29T13:55:04Z</time>
      </trkpt>
      <trkpt lat="44.51345" lon="1.35216">
        <ele>263</ele>
        <time>2025-05-29T13:55:05Z</time>
      </trkpt>
      <trkpt lat="44.51344" lon="1.35213">
        <ele>263</ele>
        <time>2025-05-29T13:55:06Z</time>
      </trkpt>
      <trkpt lat="44.51344" lon="1.35209">
        <ele>263.2</ele>
        <time>2025-05-29T13:55:07Z</time>
      </trkpt>
      <trkpt lat="44.51343" lon="1.35205">
        <ele>263.4</ele>
        <time>2025-05-29T13:55:08Z</time>
      </trkpt>
      <trkpt lat="44.51343" lon="1.35202">
        <ele>263.4</ele>
        <time>2025-05-29T13:55:09Z</time>
      </trkpt>
      <trkpt lat="44.51342" lon="1.35198">
        <ele>263.4</ele>
        <time>2025-05-29T13:55:10Z</time>
      </trkpt>
      <trkpt lat="44.51342" lon="1.35194">
        <ele>263.6</ele>
        <time>2025-05-29T13:55:11Z</time>
      </trkpt>
      <trkpt lat="44.51342" lon="1.3519">
        <ele>263.6</ele>
        <time>2025-05-29T13:55:12Z</time>
      </trkpt>
      <trkpt lat="44.51342" lon="1.35186">
        <ele>263.8</ele>
        <time>2025-05-29T13:55:13Z</time>
      </trkpt>
      <trkpt lat="44.51342" lon="1.35182">
        <ele>264</ele>
        <time>2025-05-29T13:55:14Z</time>
      </trkpt>
      <trkpt lat="44.51341" lon="1.35178">
        <ele>264</ele>
        <time>2025-05-29T13:55:15Z</time>
      </trkpt>
      <trkpt lat="44.5134" lon="1.35174">
        <ele>264.2</ele>
        <time>2025-05-29T13:55:16Z</time>
      </trkpt>
      <trkpt lat="44.5134" lon="1.3517">
        <ele>264.4</ele>
        <time>2025-05-29T13:55:17Z</time>
      </trkpt>
      <trkpt lat="44.51339" lon="1.35167">
        <ele>264.4</ele>
        <time>2025-05-29T13:55:18Z</time>
      </trkpt>
      <trkpt lat="44.51338" lon="1.35163">
        <ele>264.6</ele>
        <time>2025-05-29T13:55:19Z</time>
      </trkpt>
      <trkpt lat="44.51338" lon="1.35159">
        <ele>264.8</ele>
        <time>2025-05-29T13:55:20Z</time>
      </trkpt>
      <trkpt lat="44.51337" lon="1.35156">
        <ele>265</ele>
        <time>2025-05-29T13:55:21Z</time>
      </trkpt>
      <trkpt lat="44.51337" lon="1.35152">
        <ele>265.2</ele>
        <time>2025-05-29T13:55:22Z</time>
      </trkpt>
      <trkpt lat="44.51336" lon="1.35149">
        <ele>265.4</ele>
        <time>2025-05-29T13:55:23Z</time>
      </trkpt>
      <trkpt lat="44.51336" lon="1.35145">
        <ele>265.6</ele>
        <time>2025-05-29T13:55:24Z</time>
      </trkpt>
      <trkpt lat="44.51335" lon="1.35142">
        <ele>265.8</ele>
        <time>2025-05-29T13:55:25Z</time>
      </trkpt>
      <trkpt lat="44.51334" lon="1.35138">
        <ele>266</ele>
        <time>2025-05-29T13:55:26Z</time>
      </trkpt>
      <trkpt lat="44.51334" lon="1.35134">
        <ele>266.2</ele>
        <time>2025-05-29T13:55:27Z</time>
      </trkpt>
      <trkpt lat="44.51333" lon="1.3513">
        <ele>266.2</ele>
        <time>2025-05-29T13:55:28Z</time>
      </trkpt>
      <trkpt lat="44.51333" lon="1.35127">
        <ele>266.4</ele>
        <time>2025-05-29T13:55:29Z</time>
      </trkpt>
      <trkpt lat="44.51332" lon="1.35123">
        <ele>266.6</ele>
        <time>2025-05-29T13:55:30Z</time>
      </trkpt>
      <trkpt lat="44.51331" lon="1.35119">
        <ele>266.8</ele>
        <time>2025-05-29T13:55:31Z</time>
      </trkpt>
      <trkpt lat="44.51331" lon="1.35116">
        <ele>267</ele>
        <time>2025-05-29T13:55:32Z</time>
      </trkpt>
      <trkpt lat="44.5133" lon="1.35112">
        <ele>267.2</ele>
        <time>2025-05-29T13:55:33Z</time>
      </trkpt>
      <trkpt lat="44.5133" lon="1.35108">
        <ele>267.2</ele>
        <time>2025-05-29T13:55:34Z</time>
      </trkpt>
      <trkpt lat="44.51329" lon="1.35104">
        <ele>267.4</ele>
        <time>2025-05-29T13:55:35Z</time>
      </trkpt>
      <trkpt lat="44.51329" lon="1.35101">
        <ele>267.4</ele>
        <time>2025-05-29T13:55:36Z</time>
      </trkpt>
      <trkpt lat="44.51328" lon="1.35097">
        <ele>267.6</ele>
        <time>2025-05-29T13:55:37Z</time>
      </trkpt>
      <trkpt lat="44.51327" lon="1.35094">
        <ele>267.8</ele>
        <time>2025-05-29T13:55:38Z</time>
      </trkpt>
      <trkpt lat="44.51327" lon="1.3509">
        <ele>267.8</ele>
        <time>2025-05-29T13:55:39Z</time>
      </trkpt>
      <trkpt lat="44.51326" lon="1.35087">
        <ele>268</ele>
        <time>2025-05-29T13:55:40Z</time>
      </trkpt>
      <trkpt lat="44.51325" lon="1.35083">
        <ele>268</ele>
        <time>2025-05-29T13:55:41Z</time>
      </trkpt>
      <trkpt lat="44.51325" lon="1.3508">
        <ele>268.2</ele>
        <time>2025-05-29T13:55:42Z</time>
      </trkpt>
      <trkpt lat="44.51324" lon="1.35076">
        <ele>268.4</ele>
        <time>2025-05-29T13:55:43Z</time>
      </trkpt>
      <trkpt lat="44.51324" lon="1.35073">
        <ele>268.4</ele>
        <time>2025-05-29T13:55:44Z</time>
      </trkpt>
      <trkpt lat="44.51322" lon="1.3507">
        <ele>268.6</ele>
        <time>2025-05-29T13:55:45Z</time>
      </trkpt>
      <trkpt lat="44.51322" lon="1.35067">
        <ele>268.8</ele>
        <time>2025-05-29T13:55:46Z</time>
      </trkpt>
      <trkpt lat="44.51321" lon="1.35063">
        <ele>269</ele>
        <time>2025-05-29T13:55:47Z</time>
      </trkpt>
      <trkpt lat="44.5132" lon="1.35059">
        <ele>269</ele>
        <time>2025-05-29T13:55:48Z</time>
      </trkpt>
      <trkpt lat="44.51319" lon="1.35056">
        <ele>269.2</ele>
        <time>2025-05-29T13:55:49Z</time>
      </trkpt>
      <trkpt lat="44.51319" lon="1.35052">
        <ele>269.4</ele>
        <time>2025-05-29T13:55:50Z</time>
      </trkpt>
      <trkpt lat="44.51318" lon="1.35049">
        <ele>269.6</ele>
        <time>2025-05-29T13:55:51Z</time>
      </trkpt>
      <trkpt lat="44.51317" lon="1.35046">
        <ele>269.8</ele>
        <time>2025-05-29T13:55:52Z</time>
      </trkpt>
      <trkpt lat="44.51316" lon="1.35043">
        <ele>269.8</ele>
        <time>2025-05-29T13:55:53Z</time>
      </trkpt>
      <trkpt lat="44.51316" lon="1.3504">
        <ele>270</ele>
        <time>2025-05-29T13:55:54Z</time>
      </trkpt>
      <trkpt lat="44.51315" lon="1.35037">
        <ele>270.2</ele>
        <time>2025-05-29T13:55:55Z</time>
      </trkpt>
      <trkpt lat="44.51315" lon="1.35035">
        <ele>270.4</ele>
        <time>2025-05-29T13:55:56Z</time>
      </trkpt>
      <trkpt lat="44.51314" lon="1.35033">
        <ele>270.6</ele>
        <time>2025-05-29T13:55:57Z</time>
      </trkpt>
      <trkpt lat="44.51314" lon="1.3503">
        <ele>270.8</ele>
        <time>2025-05-29T13:55:58Z</time>
      </trkpt>
      <trkpt lat="44.51313" lon="1.35028">
        <ele>271</ele>
        <time>2025-05-29T13:55:59Z</time>
      </trkpt>
      <trkpt lat="44.51312" lon="1.35026">
        <ele>271.2</ele>
        <time>2025-05-29T13:56:00Z</time>
      </trkpt>
      <trkpt lat="44.51311" lon="1.35024">
        <ele>271.2</ele>
        <time>2025-05-29T13:56:01Z</time>
      </trkpt>
      <trkpt lat="44.51311" lon="1.35021">
        <ele>271.4</ele>
        <time>2025-05-29T13:56:02Z</time>
      </trkpt>
      <trkpt lat="44.5131" lon="1.35019">
        <ele>271.4</ele>
        <time>2025-05-29T13:56:03Z</time>
      </trkpt>
      <trkpt lat="44.5131" lon="1.35016">
        <ele>271.6</ele>
        <time>2025-05-29T13:56:04Z</time>
      </trkpt>
      <trkpt lat="44.5131" lon="1.35014">
        <ele>271.8</ele>
        <time>2025-05-29T13:56:05Z</time>
      </trkpt>
      <trkpt lat="44.51309" lon="1.35011">
        <ele>271.8</ele>
        <time>2025-05-29T13:56:06Z</time>
      </trkpt>
      <trkpt lat="44.51309" lon="1.35009">
        <ele>272</ele>
        <time>2025-05-29T13:56:07Z</time>
      </trkpt>
      <trkpt lat="44.51309" lon="1.35007">
        <ele>272.2</ele>
        <time>2025-05-29T13:56:08Z</time>
      </trkpt>
      <trkpt lat="44.51308" lon="1.35005">
        <ele>272.4</ele>
        <time>2025-05-29T13:56:09Z</time>
      </trkpt>
      <trkpt lat="44.51308" lon="1.35002">
        <ele>272.4</ele>
        <time>2025-05-29T13:56:10Z</time>
      </trkpt>
      <trkpt lat="44.51308" lon="1.35">
        <ele>272.6</ele>
        <time>2025-05-29T13:56:11Z</time>
      </trkpt>
      <trkpt lat="44.51307" lon="1.34998">
        <ele>272.8</ele>
        <time>2025-05-29T13:56:12Z</time>
      </trkpt>
      <trkpt lat="44.51307" lon="1.34996">
        <ele>273</ele>
        <time>2025-05-29T13:56:13Z</time>
      </trkpt>
      <trkpt lat="44.51307" lon="1.34994">
        <ele>273.2</ele>
        <time>2025-05-29T13:56:14Z</time>
      </trkpt>
      <trkpt lat="44.51306" lon="1.34991">
        <ele>273.4</ele>
        <time>2025-05-29T13:56:15Z</time>
      </trkpt>
      <trkpt lat="44.51306" lon="1.34989">
        <ele>273.6</ele>
        <time>2025-05-29T13:56:16Z</time>
      </trkpt>
      <trkpt lat="44.51305" lon="1.34987">
        <ele>273.8</ele>
        <time>2025-05-29T13:56:17Z</time>
      </trkpt>
      <trkpt lat="44.51305" lon="1.34985">
        <ele>274</ele>
        <time>2025-05-29T13:56:18Z</time>
      </trkpt>
      <trkpt lat="44.51304" lon="1.34983">
        <ele>274.2</ele>
        <time>2025-05-29T13:56:19Z</time>
      </trkpt>
      <trkpt lat="44.51304" lon="1.34981">
        <ele>274.4</ele>
        <time>2025-05-29T13:56:20Z</time>
      </trkpt>
      <trkpt lat="44.51304" lon="1.34979">
        <ele>274.4</ele>
        <time>2025-05-29T13:56:21Z</time>
      </trkpt>
      <trkpt lat="44.51304" lon="1.34977">
        <ele>274.6</ele>
        <time>2025-05-29T13:56:22Z</time>
      </trkpt>
      <trkpt lat="44.51303" lon="1.34975">
        <ele>274.8</ele>
        <time>2025-05-29T13:56:23Z</time>
      </trkpt>
      <trkpt lat="44.51303" lon="1.34973">
        <ele>275</ele>
        <time>2025-05-29T13:56:24Z</time>
      </trkpt>
      <trkpt lat="44.51303" lon="1.34971">
        <ele>275</ele>
        <time>2025-05-29T13:56:25Z</time>
      </trkpt>
      <trkpt lat="44.51303" lon="1.34969">
        <ele>275.2</ele>
        <time>2025-05-29T13:56:26Z</time>
      </trkpt>
      <trkpt lat="44.51302" lon="1.34966">
        <ele>275.4</ele>
        <time>2025-05-29T13:56:27Z</time>
      </trkpt>
      <trkpt lat="44.51302" lon="1.34964">
        <ele>275.4</ele>
        <time>2025-05-29T13:56:28Z</time>
      </trkpt>
      <trkpt lat="44.51302" lon="1.34962">
        <ele>275.6</ele>
        <time>2025-05-29T13:56:29Z</time>
      </trkpt>
      <trkpt lat="44.51302" lon="1.3496">
        <ele>275.8</ele>
        <time>2025-05-29T13:56:30Z</time>
      </trkpt>
      <trkpt lat="44.51302" lon="1.34958">
        <ele>276</ele>
        <time>2025-05-29T13:56:31Z</time>
      </trkpt>
      <trkpt lat="44.51302" lon="1.34956">
        <ele>276.2</ele>
        <time>2025-05-29T13:56:32Z</time>
      </trkpt>
      <trkpt lat="44.51302" lon="1.34954">
        <ele>276.4</ele>
        <time>2025-05-29T13:56:33Z</time>
      </trkpt>
      <trkpt lat="44.51302" lon="1.34952">
        <ele>276.6</ele>
        <time>2025-05-29T13:56:34Z</time>
      </trkpt>
      <trkpt lat="44.51302" lon="1.34949">
        <ele>277</ele>
        <time>2025-05-29T13:56:35Z</time>
      </trkpt>
      <trkpt lat="44.51302" lon="1.34947">
        <ele>277.2</ele>
        <time>2025-05-29T13:56:36Z</time>
      </trkpt>
      <trkpt lat="44.51302" lon="1.34945">
        <ele>277.4</ele>
        <time>2025-05-29T13:56:37Z</time>
      </trkpt>
      <trkpt lat="44.51302" lon="1.34943">
        <ele>277.6</ele>
        <time>2025-05-29T13:56:38Z</time>
      </trkpt>
      <trkpt lat="44.51301" lon="1.3494">
        <ele>277.8</ele>
        <time>2025-05-29T13:56:39Z</time>
      </trkpt>
      <trkpt lat="44.51301" lon="1.34938">
        <ele>278</ele>
        <time>2025-05-29T13:56:40Z</time>
      </trkpt>
      <trkpt lat="44.51301" lon="1.34936">
        <ele>278</ele>
        <time>2025-05-29T13:56:41Z</time>
      </trkpt>
      <trkpt lat="44.51302" lon="1.34934">
        <ele>278.2</ele>
        <time>2025-05-29T13:56:42Z</time>
      </trkpt>
      <trkpt lat="44.51302" lon="1.34932">
        <ele>278.4</ele>
        <time>2025-05-29T13:56:43Z</time>
      </trkpt>
      <trkpt lat="44.51302" lon="1.3493">
        <ele>278.6</ele>
        <time>2025-05-29T13:56:44Z</time>
      </trkpt>
      <trkpt lat="44.51302" lon="1.34928">
        <ele>278.8</ele>
        <time>2025-05-29T13:56:45Z</time>
      </trkpt>
      <trkpt lat="44.51303" lon="1.34927">
        <ele>279</ele>
        <time>2025-05-29T13:56:46Z</time>
      </trkpt>
      <trkpt lat="44.51303" lon="1.34925">
        <ele>279.2</ele>
        <time>2025-05-29T13:56:47Z</time>
      </trkpt>
      <trkpt lat="44.51304" lon="1.34923">
        <ele>279.4</ele>
        <time>2025-05-29T13:56:48Z</time>
      </trkpt>
      <trkpt lat="44.51304" lon="1.34921">
        <ele>279.6</ele>
        <time>2025-05-29T13:56:49Z</time>
      </trkpt>
      <trkpt lat="44.51305" lon="1.34919">
        <ele>279.8</ele>
        <time>2025-05-29T13:56:50Z</time>
      </trkpt>
      <trkpt lat="44.51305" lon="1.34917">
        <ele>280</ele>
        <time>2025-05-29T13:56:51Z</time>
      </trkpt>
      <trkpt lat="44.51306" lon="1.34915">
        <ele>280</ele>
        <time>2025-05-29T13:56:52Z</time>
      </trkpt>
      <trkpt lat="44.51306" lon="1.34913">
        <ele>280.2</ele>
        <time>2025-05-29T13:56:53Z</time>
      </trkpt>
      <trkpt lat="44.51306" lon="1.34911">
        <ele>280.4</ele>
        <time>2025-05-29T13:56:54Z</time>
      </trkpt>
      <trkpt lat="44.51306" lon="1.34909">
        <ele>280.4</ele>
        <time>2025-05-29T13:56:55Z</time>
      </trkpt>
      <trkpt lat="44.51307" lon="1.34907">
        <ele>280.6</ele>
        <time>2025-05-29T13:56:56Z</time>
      </trkpt>
      <trkpt lat="44.51307" lon="1.34904">
        <ele>280.8</ele>
        <time>2025-05-29T13:56:57Z</time>
      </trkpt>
      <trkpt lat="44.51307" lon="1.34902">
        <ele>281</ele>
        <time>2025-05-29T13:56:58Z</time>
      </trkpt>
      <trkpt lat="44.51307" lon="1.349">
        <ele>281.2</ele>
        <time>2025-05-29T13:56:59Z</time>
      </trkpt>
      <trkpt lat="44.51308" lon="1.34898">
        <ele>281.4</ele>
        <time>2025-05-29T13:57:00Z</time>
      </trkpt>
      <trkpt lat="44.51308" lon="1.34896">
        <ele>281.6</ele>
        <time>2025-05-29T13:57:01Z</time>
      </trkpt>
      <trkpt lat="44.51308" lon="1.34893">
        <ele>281.8</ele>
        <time>2025-05-29T13:57:02Z</time>
      </trkpt>
      <trkpt lat="44.51309" lon="1.34891">
        <ele>281.8</ele>
        <time>2025-05-29T13:57:03Z</time>
      </trkpt>
      <trkpt lat="44.51309" lon="1.34889">
        <ele>282</ele>
        <time>2025-05-29T13:57:04Z</time>
      </trkpt>
      <trkpt lat="44.51309" lon="1.34887">
        <ele>282.2</ele>
        <time>2025-05-29T13:57:05Z</time>
      </trkpt>
      <trkpt lat="44.5131" lon="1.34885">
        <ele>282.4</ele>
        <time>2025-05-29T13:57:06Z</time>
      </trkpt>
      <trkpt lat="44.51311" lon="1.34883">
        <ele>282.6</ele>
        <time>2025-05-29T13:57:07Z</time>
      </trkpt>
      <trkpt lat="44.51312" lon="1.34881">
        <ele>282.6</ele>
        <time>2025-05-29T13:57:08Z</time>
      </trkpt>
      <trkpt lat="44.51312" lon="1.34879">
        <ele>282.8</ele>
        <time>2025-05-29T13:57:09Z</time>
      </trkpt>
      <trkpt lat="44.51313" lon="1.34877">
        <ele>282.8</ele>
        <time>2025-05-29T13:57:10Z</time>
      </trkpt>
      <trkpt lat="44.51313" lon="1.34875">
        <ele>282.8</ele>
        <time>2025-05-29T13:57:11Z</time>
      </trkpt>
      <trkpt lat="44.51313" lon="1.34872">
        <ele>282.8</ele>
        <time>2025-05-29T13:57:12Z</time>
      </trkpt>
      <trkpt lat="44.51313" lon="1.3487">
        <ele>283</ele>
        <time>2025-05-29T13:57:13Z</time>
      </trkpt>
      <trkpt lat="44.51313" lon="1.34867">
        <ele>283</ele>
        <time>2025-05-29T13:57:14Z</time>
      </trkpt>
      <trkpt lat="44.51313" lon="1.34865">
        <ele>283.2</ele>
        <time>2025-05-29T13:57:15Z</time>
      </trkpt>
      <trkpt lat="44.51314" lon="1.34862">
        <ele>283.4</ele>
        <time>2025-05-29T13:57:16Z</time>
      </trkpt>
      <trkpt lat="44.51314" lon="1.34859">
        <ele>283.6</ele>
        <time>2025-05-29T13:57:17Z</time>
      </trkpt>
      <trkpt lat="44.51315" lon="1.34857">
        <ele>283.6</ele>
        <time>2025-05-29T13:57:18Z</time>
      </trkpt>
      <trkpt lat="44.51316" lon="1.34854">
        <ele>283.6</ele>
        <time>2025-05-29T13:57:19Z</time>
      </trkpt>
      <trkpt lat="44.51316" lon="1.34851">
        <ele>283.8</ele>
        <time>2025-05-29T13:57:20Z</time>
      </trkpt>
      <trkpt lat="44.51317" lon="1.34849">
        <ele>284</ele>
        <time>2025-05-29T13:57:21Z</time>
      </trkpt>
      <trkpt lat="44.51317" lon="1.34846">
        <ele>284</ele>
        <time>2025-05-29T13:57:22Z</time>
      </trkpt>
      <trkpt lat="44.51318" lon="1.34843">
        <ele>284.2</ele>
        <time>2025-05-29T13:57:23Z</time>
      </trkpt>
      <trkpt lat="44.51318" lon="1.34841">
        <ele>284.4</ele>
        <time>2025-05-29T13:57:24Z</time>
      </trkpt>
      <trkpt lat="44.51319" lon="1.34838">
        <ele>284.4</ele>
        <time>2025-05-29T13:57:25Z</time>
      </trkpt>
      <trkpt lat="44.51319" lon="1.34835">
        <ele>284.6</ele>
        <time>2025-05-29T13:57:26Z</time>
      </trkpt>
      <trkpt lat="44.5132" lon="1.34832">
        <ele>284.6</ele>
        <time>2025-05-29T13:57:27Z</time>
      </trkpt>
      <trkpt lat="44.5132" lon="1.3483">
        <ele>284.8</ele>
        <time>2025-05-29T13:57:28Z</time>
      </trkpt>
      <trkpt lat="44.51321" lon="1.34827">
        <ele>285</ele>
        <time>2025-05-29T13:57:29Z</time>
      </trkpt>
      <trkpt lat="44.51321" lon="1.34824">
        <ele>285</ele>
        <time>2025-05-29T13:57:30Z</time>
      </trkpt>
      <trkpt lat="44.51321" lon="1.34821">
        <ele>285.4</ele>
        <time>2025-05-29T13:57:31Z</time>
      </trkpt>
      <trkpt lat="44.51322" lon="1.34819">
        <ele>285.6</ele>
        <time>2025-05-29T13:57:32Z</time>
      </trkpt>
      <trkpt lat="44.51323" lon="1.34816">
        <ele>286</ele>
        <time>2025-05-29T13:57:33Z</time>
      </trkpt>
      <trkpt lat="44.51323" lon="1.34813">
        <ele>286.2</ele>
        <time>2025-05-29T13:57:34Z</time>
      </trkpt>
      <trkpt lat="44.51324" lon="1.34811">
        <ele>286.4</ele>
        <time>2025-05-29T13:57:35Z</time>
      </trkpt>
      <trkpt lat="44.51325" lon="1.34808">
        <ele>286.4</ele>
        <time>2025-05-29T13:57:36Z</time>
      </trkpt>
      <trkpt lat="44.51325" lon="1.34805">
        <ele>286.6</ele>
        <time>2025-05-29T13:57:37Z</time>
      </trkpt>
      <trkpt lat="44.51326" lon="1.34802">
        <ele>286.6</ele>
        <time>2025-05-29T13:57:38Z</time>
      </trkpt>
      <trkpt lat="44.51327" lon="1.348">
        <ele>286.8</ele>
        <time>2025-05-29T13:57:39Z</time>
      </trkpt>
      <trkpt lat="44.51327" lon="1.34797">
        <ele>286.8</ele>
        <time>2025-05-29T13:57:40Z</time>
      </trkpt>
      <trkpt lat="44.51327" lon="1.34795">
        <ele>287</ele>
        <time>2025-05-29T13:57:41Z</time>
      </trkpt>
      <trkpt lat="44.51327" lon="1.34792">
        <ele>287</ele>
        <time>2025-05-29T13:57:42Z</time>
      </trkpt>
      <trkpt lat="44.51327" lon="1.34789">
        <ele>287</ele>
        <time>2025-05-29T13:57:43Z</time>
      </trkpt>
      <trkpt lat="44.51328" lon="1.34786">
        <ele>287</ele>
        <time>2025-05-29T13:57:44Z</time>
      </trkpt>
      <trkpt lat="44.51328" lon="1.34783">
        <ele>287</ele>
        <time>2025-05-29T13:57:45Z</time>
      </trkpt>
      <trkpt lat="44.51329" lon="1.3478">
        <ele>287</ele>
        <time>2025-05-29T13:57:46Z</time>
      </trkpt>
      <trkpt lat="44.5133" lon="1.34778">
        <ele>288.9</ele>
      </trkpt>
      <trkpt lat="44.5133" lon="1.34775">
        <ele>288.8</ele>
      </trkpt>
      <trkpt lat="44.5133" lon="1.34771">
        <ele>288.8</ele>
      </trkpt>
      <trkpt lat="44.5133" lon="1.34768">
        <ele>288.8</ele>
      </trkpt>
      <trkpt lat="44.5133" lon="1.34765">
        <ele>288.8</ele>
      </trkpt>
      <trkpt lat="44.51329" lon="1.34762">
        <ele>288.6</ele>
      </trkpt>
      <trkpt lat="44.51328" lon="1.34761">
        <ele>288.6</ele>
      </trkpt>
      <trkpt lat="44.51327" lon="1.3476">
        <ele>288</ele>
        <time>2025-05-29T14:00:17Z</time>
      </trkpt>
      <trkpt lat="44.51326" lon="1.34759">
        <ele>287.8</ele>
        <time>2025-05-29T14:00:18Z</time>
      </trkpt>
      <trkpt lat="44.51324" lon="1.34759">
        <ele>287.8</ele>
        <time>2025-05-29T14:00:19Z</time>
      </trkpt>
      <trkpt lat="44.51323" lon="1.34757">
        <ele>287.8</ele>
        <time>2025-05-29T14:00:20Z</time>
      </trkpt>
      <trkpt lat="44.51323" lon="1.34756">
        <ele>288</ele>
        <time>2025-05-29T14:00:21Z</time>
      </trkpt>
      <trkpt lat="44.51321" lon="1.34756">
        <ele>288</ele>
        <time>2025-05-29T14:00:22Z</time>
      </trkpt>
      <trkpt lat="44.51319" lon="1.34756">
        <ele>288.2</ele>
        <time>2025-05-29T14:00:23Z</time>
      </trkpt>
      <trkpt lat="44.51318" lon="1.34756">
        <ele>288.2</ele>
        <time>2025-05-29T14:00:24Z</time>
      </trkpt>
      <trkpt lat="44.51318" lon="1.34756">
        <ele>288.2</ele>
        <time>2025-05-29T14:00:25Z</time>
      </trkpt>
      <trkpt lat="44.51318" lon="1.34756">
        <ele>288.2</ele>
        <time>2025-05-29T14:00:26Z</time>
      </trkpt>
      <trkpt lat="44.51314" lon="1.34756">
        <ele>288.2</ele>
        <time>2025-05-29T14:00:33Z</time>
      </trkpt>
      <trkpt lat="44.51312" lon="1.34756">
        <ele>288</ele>
        <time>2025-05-29T14:00:34Z</time>
      </trkpt>
      <trkpt lat="44.5131" lon="1.34756">
        <ele>288</ele>
        <time>2025-05-29T14:00:35Z</time>
      </trkpt>
      <trkpt lat="44.51308" lon="1.34756">
        <ele>288</ele>
        <time>2025-05-29T14:00:36Z</time>
      </trkpt>
      <trkpt lat="44.51305" lon="1.34756">
        <ele>287.8</ele>
        <time>2025-05-29T14:00:37Z</time>
      </trkpt>
      <trkpt lat="44.51302" lon="1.34756">
        <ele>287.8</ele>
        <time>2025-05-29T14:00:38Z</time>
      </trkpt>
      <trkpt lat="44.51299" lon="1.34756">
        <ele>287.6</ele>
        <time>2025-05-29T14:00:39Z</time>
      </trkpt>
      <trkpt lat="44.51296" lon="1.34758">
        <ele>287.4</ele>
        <time>2025-05-29T14:00:40Z</time>
      </trkpt>
      <trkpt lat="44.51294" lon="1.34761">
        <ele>287.2</ele>
        <time>2025-05-29T14:00:41Z</time>
      </trkpt>
      <trkpt lat="44.51294" lon="1.34762">
        <ele>287</ele>
        <time>2025-05-29T14:00:42Z</time>
      </trkpt>
      <trkpt lat="44.51294" lon="1.34762">
        <ele>287</ele>
        <time>2025-05-29T14:00:43Z</time>
      </trkpt>
      <trkpt lat="44.51294" lon="1.34762">
        <ele>287</ele>
        <time>2025-05-29T14:00:44Z</time>
      </trkpt>
      <trkpt lat="44.51292" lon="1.3477">
        <ele>286.4</ele>
        <time>2025-05-29T14:01:55Z</time>
      </trkpt>
      <trkpt lat="44.51292" lon="1.34773">
        <ele>286.4</ele>
        <time>2025-05-29T14:01:56Z</time>
      </trkpt>
      <trkpt lat="44.51293" lon="1.34776">
        <ele>286.4</ele>
        <time>2025-05-29T14:01:57Z</time>
      </trkpt>
      <trkpt lat="44.51293" lon="1.3478">
        <ele>286.2</ele>
        <time>2025-05-29T14:01:58Z</time>
      </trkpt>
      <trkpt lat="44.51294" lon="1.3478">
        <ele>286.4</ele>
        <time>2025-05-29T14:01:59Z</time>
      </trkpt>
      <trkpt lat="44.51295" lon="1.3478">
        <ele>286.6</ele>
        <time>2025-05-29T14:02:00Z</time>
      </trkpt>
      <trkpt lat="44.51295" lon="1.34791">
        <ele>288.2</ele>
        <time>2025-05-29T14:02:19Z</time>
      </trkpt>
      <trkpt lat="44.51296" lon="1.34795">
        <ele>288.2</ele>
        <time>2025-05-29T14:02:20Z</time>
      </trkpt>
      <trkpt lat="44.51297" lon="1.34798">
        <ele>288</ele>
        <time>2025-05-29T14:02:21Z</time>
      </trkpt>
      <trkpt lat="44.51297" lon="1.34801">
        <ele>288</ele>
        <time>2025-05-29T14:02:22Z</time>
      </trkpt>
      <trkpt lat="44.51297" lon="1.34804">
        <ele>288</ele>
        <time>2025-05-29T14:02:23Z</time>
      </trkpt>
      <trkpt lat="44.51297" lon="1.34807">
        <ele>287.8</ele>
        <time>2025-05-29T14:02:24Z</time>
      </trkpt>
      <trkpt lat="44.51298" lon="1.3481">
        <ele>287.8</ele>
        <time>2025-05-29T14:02:25Z</time>
      </trkpt>
      <trkpt lat="44.51299" lon="1.34814">
        <ele>287.8</ele>
        <time>2025-05-29T14:02:26Z</time>
      </trkpt>
      <trkpt lat="44.51299" lon="1.34819">
        <ele>287.6</ele>
        <time>2025-05-29T14:02:27Z</time>
      </trkpt>
      <trkpt lat="44.51298" lon="1.34824">
        <ele>287</ele>
        <time>2025-05-29T14:02:28Z</time>
      </trkpt>
      <trkpt lat="44.51298" lon="1.34828">
        <ele>286.6</ele>
        <time>2025-05-29T14:02:29Z</time>
      </trkpt>
      <trkpt lat="44.51298" lon="1.34831">
        <ele>286.4</ele>
        <time>2025-05-29T14:02:30Z</time>
      </trkpt>
      <trkpt lat="44.51298" lon="1.34833">
        <ele>286</ele>
        <time>2025-05-29T14:02:31Z</time>
      </trkpt>
      <trkpt lat="44.51299" lon="1.34835">
        <ele>285.8</ele>
        <time>2025-05-29T14:02:32Z</time>
      </trkpt>
      <trkpt lat="44.51298" lon="1.34837">
        <ele>285.8</ele>
        <time>2025-05-29T14:02:33Z</time>
      </trkpt>
      <trkpt lat="44.51297" lon="1.34837">
        <ele>285.8</ele>
        <time>2025-05-29T14:02:34Z</time>
      </trkpt>
      <trkpt lat="44.51296" lon="1.34838">
        <ele>285.6</ele>
        <time>2025-05-29T14:02:35Z</time>
      </trkpt>
      <trkpt lat="44.51295" lon="1.34839">
        <ele>285.6</ele>
        <time>2025-05-29T14:02:36Z</time>
      </trkpt>
      <trkpt lat="44.51294" lon="1.3484">
        <ele>285.6</ele>
        <time>2025-05-29T14:02:37Z</time>
      </trkpt>
      <trkpt lat="44.51294" lon="1.34842">
        <ele>285.4</ele>
        <time>2025-05-29T14:02:38Z</time>
      </trkpt>
      <trkpt lat="44.51293" lon="1.34843">
        <ele>285.2</ele>
        <time>2025-05-29T14:02:39Z</time>
      </trkpt>
      <trkpt lat="44.51293" lon="1.34844">
        <ele>285.2</ele>
        <time>2025-05-29T14:02:40Z</time>
      </trkpt>
      <trkpt lat="44.51293" lon="1.34846">
        <ele>285.2</ele>
        <time>2025-05-29T14:02:41Z</time>
      </trkpt>
      <trkpt lat="44.51293" lon="1.34847">
        <ele>285</ele>
        <time>2025-05-29T14:02:42Z</time>
      </trkpt>
      <trkpt lat="44.51293" lon="1.34847">
        <ele>285</ele>
        <time>2025-05-29T14:02:43Z</time>
      </trkpt>
      <trkpt lat="44.51294" lon="1.34847">
        <ele>284.8</ele>
        <time>2025-05-29T14:02:44Z</time>
      </trkpt>
      <trkpt lat="44.51288" lon="1.34859">
        <ele>284.8</ele>
        <time>2025-05-29T14:03:43Z</time>
      </trkpt>
      <trkpt lat="44.51287" lon="1.34862">
        <ele>284.6</ele>
        <time>2025-05-29T14:03:44Z</time>
      </trkpt>
      <trkpt lat="44.51287" lon="1.34865">
        <ele>284.2</ele>
        <time>2025-05-29T14:03:45Z</time>
      </trkpt>
      <trkpt lat="44.51286" lon="1.34868">
        <ele>284</ele>
        <time>2025-05-29T14:03:46Z</time>
      </trkpt>
      <trkpt lat="44.51287" lon="1.34871">
        <ele>283.8</ele>
        <time>2025-05-29T14:03:47Z</time>
      </trkpt>
      <trkpt lat="44.51288" lon="1.34873">
        <ele>283.6</ele>
        <time>2025-05-29T14:03:48Z</time>
      </trkpt>
      <trkpt lat="44.51288" lon="1.34873">
        <ele>283.6</ele>
        <time>2025-05-29T14:03:49Z</time>
      </trkpt>
      <trkpt lat="44.51288" lon="1.34873">
        <ele>283.6</ele>
        <time>2025-05-29T14:03:50Z</time>
      </trkpt>
      <trkpt lat="44.51293" lon="1.34884">
        <ele>284</ele>
        <time>2025-05-29T14:04:05Z</time>
      </trkpt>
      <trkpt lat="44.51292" lon="1.34886">
        <ele>283.8</ele>
        <time>2025-05-29T14:04:06Z</time>
      </trkpt>
      <trkpt lat="44.51291" lon="1.34887">
        <ele>283.6</ele>
        <time>2025-05-29T14:04:07Z</time>
      </trkpt>
      <trkpt lat="44.51291" lon="1.34889">
        <ele>283.2</ele>
        <time>2025-05-29T14:04:08Z</time>
      </trkpt>
      <trkpt lat="44.5129" lon="1.34891">
        <ele>282.8</ele>
        <time>2025-05-29T14:04:09Z</time>
      </trkpt>
      <trkpt lat="44.51289" lon="1.34892">
        <ele>282.4</ele>
        <time>2025-05-29T14:04:10Z</time>
      </trkpt>
      <trkpt lat="44.51289" lon="1.34895">
        <ele>282</ele>
        <time>2025-05-29T14:04:11Z</time>
      </trkpt>
      <trkpt lat="44.51288" lon="1.34897">
        <ele>281.6</ele>
        <time>2025-05-29T14:04:12Z</time>
      </trkpt>
      <trkpt lat="44.51287" lon="1.349">
        <ele>281</ele>
        <time>2025-05-29T14:04:13Z</time>
      </trkpt>
      <trkpt lat="44.51286" lon="1.34903">
        <ele>280.4</ele>
        <time>2025-05-29T14:04:14Z</time>
      </trkpt>
      <trkpt lat="44.51287" lon="1.34906">
        <ele>280</ele>
        <time>2025-05-29T14:04:15Z</time>
      </trkpt>
      <trkpt lat="44.51288" lon="1.34908">
        <ele>279.6</ele>
        <time>2025-05-29T14:04:16Z</time>
      </trkpt>
      <trkpt lat="44.51289" lon="1.3491">
        <ele>279.4</ele>
        <time>2025-05-29T14:04:17Z</time>
      </trkpt>
      <trkpt lat="44.5129" lon="1.34912">
        <ele>279.2</ele>
        <time>2025-05-29T14:04:18Z</time>
      </trkpt>
      <trkpt lat="44.51291" lon="1.34914">
        <ele>279.2</ele>
        <time>2025-05-29T14:04:19Z</time>
      </trkpt>
      <trkpt lat="44.51291" lon="1.34916">
        <ele>279.4</ele>
        <time>2025-05-29T14:04:20Z</time>
      </trkpt>
      <trkpt lat="44.51291" lon="1.34918">
        <ele>279.4</ele>
        <time>2025-05-29T14:04:21Z</time>
      </trkpt>
      <trkpt lat="44.51291" lon="1.3492">
        <ele>279.4</ele>
        <time>2025-05-29T14:04:22Z</time>
      </trkpt>
      <trkpt lat="44.51292" lon="1.34922">
        <ele>279.4</ele>
        <time>2025-05-29T14:04:23Z</time>
      </trkpt>
      <trkpt lat="44.51293" lon="1.34924">
        <ele>279.4</ele>
        <time>2025-05-29T14:04:24Z</time>
      </trkpt>
      <trkpt lat="44.51294" lon="1.34925">
        <ele>279.4</ele>
        <time>2025-05-29T14:04:25Z</time>
      </trkpt>
      <trkpt lat="44.51294" lon="1.34926">
        <ele>279.6</ele>
        <time>2025-05-29T14:04:26Z</time>
      </trkpt>
      <trkpt lat="44.51295" lon="1.34928">
        <ele>279.6</ele>
        <time>2025-05-29T14:04:27Z</time>
      </trkpt>
      <trkpt lat="44.51295" lon="1.34931">
        <ele>279.8</ele>
        <time>2025-05-29T14:04:28Z</time>
      </trkpt>
      <trkpt lat="44.51294" lon="1.34935">
        <ele>279.8</ele>
        <time>2025-05-29T14:04:29Z</time>
      </trkpt>
      <trkpt lat="44.51292" lon="1.34938">
        <ele>279.6</ele>
        <time>2025-05-29T14:04:30Z</time>
      </trkpt>
      <trkpt lat="44.51291" lon="1.34941">
        <ele>279.2</ele>
        <time>2025-05-29T14:04:31Z</time>
      </trkpt>
      <trkpt lat="44.5129" lon="1.34944">
        <ele>279</ele>
        <time>2025-05-29T14:04:32Z</time>
      </trkpt>
      <trkpt lat="44.51289" lon="1.34948">
        <ele>278.6</ele>
        <time>2025-05-29T14:04:33Z</time>
      </trkpt>
      <trkpt lat="44.51289" lon="1.34954">
        <ele>278</ele>
        <time>2025-05-29T14:04:34Z</time>
      </trkpt>
      <trkpt lat="44.5129" lon="1.3496">
        <ele>277.8</ele>
        <time>2025-05-29T14:04:35Z</time>
      </trkpt>
      <trkpt lat="44.51291" lon="1.34966">
        <ele>277.4</ele>
        <time>2025-05-29T14:04:36Z</time>
      </trkpt>
      <trkpt lat="44.51292" lon="1.34972">
        <ele>277</ele>
        <time>2025-05-29T14:04:37Z</time>
      </trkpt>
      <trkpt lat="44.51292" lon="1.34979">
        <ele>276.8</ele>
        <time>2025-05-29T14:04:38Z</time>
      </trkpt>
      <trkpt lat="44.51292" lon="1.34985">
        <ele>276.4</ele>
        <time>2025-05-29T14:04:39Z</time>
      </trkpt>
      <trkpt lat="44.51295" lon="1.34989">
        <ele>275.8</ele>
        <time>2025-05-29T14:04:40Z</time>
      </trkpt>
      <trkpt lat="44.51297" lon="1.34991">
        <ele>275.4</ele>
        <time>2025-05-29T14:04:41Z</time>
      </trkpt>
      <trkpt lat="44.51298" lon="1.34996">
        <ele>275</ele>
        <time>2025-05-29T14:04:42Z</time>
      </trkpt>
      <trkpt lat="44.51299" lon="1.35001">
        <ele>274.8</ele>
        <time>2025-05-29T14:04:43Z</time>
      </trkpt>
      <trkpt lat="44.51298" lon="1.35006">
        <ele>274.6</ele>
        <time>2025-05-29T14:04:44Z</time>
      </trkpt>
      <trkpt lat="44.51298" lon="1.35012">
        <ele>274.2</ele>
        <time>2025-05-29T14:04:45Z</time>
      </trkpt>
      <trkpt lat="44.51298" lon="1.35018">
        <ele>273.8</ele>
        <time>2025-05-29T14:04:46Z</time>
      </trkpt>
      <trkpt lat="44.513" lon="1.35025">
        <ele>273.4</ele>
        <time>2025-05-29T14:04:47Z</time>
      </trkpt>
      <trkpt lat="44.51301" lon="1.35031">
        <ele>273</ele>
        <time>2025-05-29T14:04:48Z</time>
      </trkpt>
      <trkpt lat="44.51301" lon="1.35038">
        <ele>272.6</ele>
        <time>2025-05-29T14:04:49Z</time>
      </trkpt>
      <trkpt lat="44.51301" lon="1.35045">
        <ele>272</ele>
        <time>2025-05-29T14:04:50Z</time>
      </trkpt>
      <trkpt lat="44.51304" lon="1.35049">
        <ele>271.6</ele>
        <time>2025-05-29T14:04:51Z</time>
      </trkpt>
      <trkpt lat="44.51307" lon="1.35051">
        <ele>271.2</ele>
        <time>2025-05-29T14:04:52Z</time>
      </trkpt>
      <trkpt lat="44.51309" lon="1.35055">
        <ele>270.8</ele>
        <time>2025-05-29T14:04:53Z</time>
      </trkpt>
      <trkpt lat="44.51308" lon="1.3506">
        <ele>270.6</ele>
        <time>2025-05-29T14:04:54Z</time>
      </trkpt>
      <trkpt lat="44.51306" lon="1.35065">
        <ele>270.2</ele>
        <time>2025-05-29T14:04:55Z</time>
      </trkpt>
      <trkpt lat="44.51307" lon="1.3507">
        <ele>269.8</ele>
        <time>2025-05-29T14:04:56Z</time>
      </trkpt>
      <trkpt lat="44.51309" lon="1.35074">
        <ele>269.4</ele>
        <time>2025-05-29T14:04:57Z</time>
      </trkpt>
      <trkpt lat="44.51312" lon="1.35077">
        <ele>269</ele>
        <time>2025-05-29T14:04:58Z</time>
      </trkpt>
      <trkpt lat="44.51314" lon="1.35079">
        <ele>268.6</ele>
        <time>2025-05-29T14:04:59Z</time>
      </trkpt>
      <trkpt lat="44.51316" lon="1.35081">
        <ele>268.2</ele>
        <time>2025-05-29T14:05:00Z</time>
      </trkpt>
      <trkpt lat="44.51316" lon="1.35085">
        <ele>267.8</ele>
        <time>2025-05-29T14:05:01Z</time>
      </trkpt>
      <trkpt lat="44.51317" lon="1.35088">
        <ele>267.8</ele>
        <time>2025-05-29T14:05:02Z</time>
      </trkpt>
      <trkpt lat="44.51317" lon="1.35093">
        <ele>267.6</ele>
        <time>2025-05-29T14:05:03Z</time>
      </trkpt>
      <trkpt lat="44.51318" lon="1.35097">
        <ele>267.6</ele>
        <time>2025-05-29T14:05:04Z</time>
      </trkpt>
      <trkpt lat="44.51319" lon="1.35102">
        <ele>267.4</ele>
        <time>2025-05-29T14:05:05Z</time>
      </trkpt>
      <trkpt lat="44.51319" lon="1.35107">
        <ele>267</ele>
        <time>2025-05-29T14:05:06Z</time>
      </trkpt>
      <trkpt lat="44.51319" lon="1.35113">
        <ele>266.8</ele>
        <time>2025-05-29T14:05:07Z</time>
      </trkpt>
      <trkpt lat="44.51319" lon="1.3512">
        <ele>266.4</ele>
        <time>2025-05-29T14:05:08Z</time>
      </trkpt>
      <trkpt lat="44.51318" lon="1.35126">
        <ele>266.2</ele>
        <time>2025-05-29T14:05:09Z</time>
      </trkpt>
      <trkpt lat="44.51317" lon="1.35131">
        <ele>265.8</ele>
        <time>2025-05-29T14:05:10Z</time>
      </trkpt>
      <trkpt lat="44.51316" lon="1.35137">
        <ele>265</ele>
        <time>2025-05-29T14:05:11Z</time>
      </trkpt>
      <trkpt lat="44.51316" lon="1.35143">
        <ele>264.6</ele>
        <time>2025-05-29T14:05:12Z</time>
      </trkpt>
      <trkpt lat="44.51317" lon="1.3515">
        <ele>264</ele>
        <time>2025-05-29T14:05:13Z</time>
      </trkpt>
      <trkpt lat="44.51317" lon="1.35157">
        <ele>263.4</ele>
        <time>2025-05-29T14:05:14Z</time>
      </trkpt>
      <trkpt lat="44.51318" lon="1.35165">
        <ele>263</ele>
        <time>2025-05-29T14:05:15Z</time>
      </trkpt>
      <trkpt lat="44.51319" lon="1.35173">
        <ele>262.4</ele>
        <time>2025-05-29T14:05:16Z</time>
      </trkpt>
      <trkpt lat="44.5132" lon="1.35181">
        <ele>262</ele>
        <time>2025-05-29T14:05:17Z</time>
      </trkpt>
      <trkpt lat="44.5132" lon="1.35188">
        <ele>261.6</ele>
        <time>2025-05-29T14:05:18Z</time>
      </trkpt>
      <trkpt lat="44.5132" lon="1.35196">
        <ele>261</ele>
        <time>2025-05-29T14:05:19Z</time>
      </trkpt>
      <trkpt lat="44.5132" lon="1.35203">
        <ele>260.4</ele>
        <time>2025-05-29T14:05:20Z</time>
      </trkpt>
      <trkpt lat="44.5132" lon="1.35211">
        <ele>260.2</ele>
        <time>2025-05-29T14:05:21Z</time>
      </trkpt>
      <trkpt lat="44.5132" lon="1.35219">
        <ele>259.6</ele>
        <time>2025-05-29T14:05:22Z</time>
      </trkpt>
      <trkpt lat="44.5132" lon="1.35228">
        <ele>259.2</ele>
        <time>2025-05-29T14:05:23Z</time>
      </trkpt>
      <trkpt lat="44.5132" lon="1.35236">
        <ele>259</ele>
        <time>2025-05-29T14:05:24Z</time>
      </trkpt>
      <trkpt lat="44.5132" lon="1.35244">
        <ele>258.6</ele>
        <time>2025-05-29T14:05:25Z</time>
      </trkpt>
      <trkpt lat="44.51319" lon="1.35253">
        <ele>258.2</ele>
        <time>2025-05-29T14:05:26Z</time>
      </trkpt>
      <trkpt lat="44.51319" lon="1.35259">
        <ele>257.8</ele>
        <time>2025-05-29T14:05:27Z</time>
      </trkpt>
      <trkpt lat="44.51319" lon="1.35266">
        <ele>257.4</ele>
        <time>2025-05-29T14:05:28Z</time>
      </trkpt>
      <trkpt lat="44.51319" lon="1.35272">
        <ele>257</ele>
        <time>2025-05-29T14:05:29Z</time>
      </trkpt>
      <trkpt lat="44.5132" lon="1.35278">
        <ele>256.8</ele>
        <time>2025-05-29T14:05:30Z</time>
      </trkpt>
      <trkpt lat="44.51321" lon="1.35284">
        <ele>256.6</ele>
        <time>2025-05-29T14:05:31Z</time>
      </trkpt>
      <trkpt lat="44.5132" lon="1.35289">
        <ele>256.6</ele>
        <time>2025-05-29T14:05:32Z</time>
      </trkpt>
      <trkpt lat="44.51319" lon="1.35294">
        <ele>256.6</ele>
        <time>2025-05-29T14:05:33Z</time>
      </trkpt>
      <trkpt lat="44.51317" lon="1.35298">
        <ele>256.6</ele>
        <time>2025-05-29T14:05:34Z</time>
      </trkpt>
      <trkpt lat="44.51314" lon="1.35304">
        <ele>256.4</ele>
        <time>2025-05-29T14:05:35Z</time>
      </trkpt>
      <trkpt lat="44.51312" lon="1.3531">
        <ele>256</ele>
        <time>2025-05-29T14:05:36Z</time>
      </trkpt>
      <trkpt lat="44.5131" lon="1.35318">
        <ele>255.4</ele>
        <time>2025-05-29T14:05:37Z</time>
      </trkpt>
      <trkpt lat="44.5131" lon="1.35325">
        <ele>254.8</ele>
        <time>2025-05-29T14:05:38Z</time>
      </trkpt>
      <trkpt lat="44.51311" lon="1.35331">
        <ele>254.6</ele>
        <time>2025-05-29T14:05:39Z</time>
      </trkpt>
      <trkpt lat="44.51312" lon="1.35336">
        <ele>254.4</ele>
        <time>2025-05-29T14:05:40Z</time>
      </trkpt>
      <trkpt lat="44.51313" lon="1.35341">
        <ele>254.6</ele>
        <time>2025-05-29T14:05:41Z</time>
      </trkpt>
      <trkpt lat="44.51315" lon="1.35345">
        <ele>254.6</ele>
        <time>2025-05-29T14:05:42Z</time>
      </trkpt>
      <trkpt lat="44.51317" lon="1.35348">
        <ele>255</ele>
        <time>2025-05-29T14:05:43Z</time>
      </trkpt>
      <trkpt lat="44.51318" lon="1.35352">
        <ele>255.4</ele>
        <time>2025-05-29T14:05:44Z</time>
      </trkpt>
      <trkpt lat="44.5132" lon="1.35355">
        <ele>255.6</ele>
        <time>2025-05-29T14:05:45Z</time>
      </trkpt>
      <trkpt lat="44.51322" lon="1.35358">
        <ele>255.8</ele>
        <time>2025-05-29T14:05:46Z</time>
      </trkpt>
      <trkpt lat="44.51324" lon="1.35361">
        <ele>256</ele>
        <time>2025-05-29T14:05:47Z</time>
      </trkpt>
      <trkpt lat="44.51327" lon="1.35364">
        <ele>256</ele>
        <time>2025-05-29T14:05:48Z</time>
      </trkpt>
      <trkpt lat="44.5133" lon="1.35366">
        <ele>255.8</ele>
        <time>2025-05-29T14:05:49Z</time>
      </trkpt>
      <trkpt lat="44.51334" lon="1.35368">
        <ele>255.6</ele>
        <time>2025-05-29T14:05:50Z</time>
      </trkpt>
      <trkpt lat="44.51337" lon="1.3537">
        <ele>255.4</ele>
        <time>2025-05-29T14:05:51Z</time>
      </trkpt>
      <trkpt lat="44.5134" lon="1.35373">
        <ele>255.2</ele>
        <time>2025-05-29T14:05:52Z</time>
      </trkpt>
      <trkpt lat="44.51343" lon="1.35376">
        <ele>255.2</ele>
        <time>2025-05-29T14:05:53Z</time>
      </trkpt>
      <trkpt lat="44.51347" lon="1.35379">
        <ele>254.8</ele>
        <time>2025-05-29T14:05:54Z</time>
      </trkpt>
      <trkpt lat="44.51349" lon="1.35384">
        <ele>254.2</ele>
        <time>2025-05-29T14:05:55Z</time>
      </trkpt>
      <trkpt lat="44.51351" lon="1.3539">
        <ele>253.8</ele>
        <time>2025-05-29T14:05:56Z</time>
      </trkpt>
      <trkpt lat="44.51352" lon="1.35396">
        <ele>253.2</ele>
        <time>2025-05-29T14:05:57Z</time>
      </trkpt>
      <trkpt lat="44.51354" lon="1.35403">
        <ele>252</ele>
        <time>2025-05-29T14:05:58Z</time>
      </trkpt>
      <trkpt lat="44.51357" lon="1.35408">
        <ele>251.4</ele>
        <time>2025-05-29T14:05:59Z</time>
      </trkpt>
      <trkpt lat="44.51362" lon="1.35412">
        <ele>250.6</ele>
        <time>2025-05-29T14:06:00Z</time>
      </trkpt>
      <trkpt lat="44.51367" lon="1.35416">
        <ele>249.8</ele>
        <time>2025-05-29T14:06:01Z</time>
      </trkpt>
      <trkpt lat="44.51371" lon="1.35422">
        <ele>249</ele>
        <time>2025-05-29T14:06:02Z</time>
      </trkpt>
      <trkpt lat="44.51373" lon="1.35428">
        <ele>248.4</ele>
        <time>2025-05-29T14:06:03Z</time>
      </trkpt>
      <trkpt lat="44.51373" lon="1.35435">
        <ele>248</ele>
        <time>2025-05-29T14:06:04Z</time>
      </trkpt>
      <trkpt lat="44.51373" lon="1.35443">
        <ele>247.8</ele>
        <time>2025-05-29T14:06:05Z</time>
      </trkpt>
      <trkpt lat="44.51374" lon="1.3545">
        <ele>247.6</ele>
        <time>2025-05-29T14:06:06Z</time>
      </trkpt>
      <trkpt lat="44.51374" lon="1.35457">
        <ele>247.6</ele>
        <time>2025-05-29T14:06:07Z</time>
      </trkpt>
      <trkpt lat="44.51373" lon="1.35463">
        <ele>247.6</ele>
        <time>2025-05-29T14:06:08Z</time>
      </trkpt>
      <trkpt lat="44.51373" lon="1.35469">
        <ele>247.6</ele>
        <time>2025-05-29T14:06:09Z</time>
      </trkpt>
      <trkpt lat="44.51372" lon="1.35474">
        <ele>247.8</ele>
        <time>2025-05-29T14:06:10Z</time>
      </trkpt>
      <trkpt lat="44.51371" lon="1.35479">
        <ele>248</ele>
        <time>2025-05-29T14:06:11Z</time>
      </trkpt>
      <trkpt lat="44.5137" lon="1.35484">
        <ele>248.2</ele>
        <time>2025-05-29T14:06:12Z</time>
      </trkpt>
      <trkpt lat="44.5137" lon="1.35488">
        <ele>248.4</ele>
        <time>2025-05-29T14:06:13Z</time>
      </trkpt>
      <trkpt lat="44.51369" lon="1.35492">
        <ele>248.6</ele>
        <time>2025-05-29T14:06:14Z</time>
      </trkpt>
      <trkpt lat="44.51368" lon="1.35497">
        <ele>248.8</ele>
        <time>2025-05-29T14:06:15Z</time>
      </trkpt>
      <trkpt lat="44.51366" lon="1.35502">
        <ele>248.8</ele>
        <time>2025-05-29T14:06:16Z</time>
      </trkpt>
      <trkpt lat="44.51365" lon="1.35505">
        <ele>249</ele>
        <time>2025-05-29T14:06:17Z</time>
      </trkpt>
      <trkpt lat="44.51363" lon="1.35508">
        <ele>249</ele>
        <time>2025-05-29T14:06:18Z</time>
      </trkpt>
      <trkpt lat="44.51361" lon="1.35511">
        <ele>249.2</ele>
        <time>2025-05-29T14:06:19Z</time>
      </trkpt>
      <trkpt lat="44.51359" lon="1.35515">
        <ele>249.2</ele>
        <time>2025-05-29T14:06:20Z</time>
      </trkpt>
      <trkpt lat="44.51357" lon="1.35519">
        <ele>249.2</ele>
        <time>2025-05-29T14:06:21Z</time>
      </trkpt>
      <trkpt lat="44.51356" lon="1.35523">
        <ele>249.2</ele>
        <time>2025-05-29T14:06:22Z</time>
      </trkpt>
      <trkpt lat="44.51355" lon="1.35527">
        <ele>249.2</ele>
        <time>2025-05-29T14:06:23Z</time>
      </trkpt>
      <trkpt lat="44.51354" lon="1.35531">
        <ele>249.2</ele>
        <time>2025-05-29T14:06:24Z</time>
      </trkpt>
      <trkpt lat="44.51352" lon="1.35534">
        <ele>249.2</ele>
        <time>2025-05-29T14:06:25Z</time>
      </trkpt>
      <trkpt lat="44.51349" lon="1.35536">
        <ele>249.2</ele>
        <time>2025-05-29T14:06:26Z</time>
      </trkpt>
      <trkpt lat="44.51345" lon="1.35537">
        <ele>249.2</ele>
        <time>2025-05-29T14:06:27Z</time>
      </trkpt>
      <trkpt lat="44.51342" lon="1.35538">
        <ele>249.2</ele>
        <time>2025-05-29T14:06:28Z</time>
      </trkpt>
      <trkpt lat="44.51339" lon="1.3554">
        <ele>249.4</ele>
        <time>2025-05-29T14:06:29Z</time>
      </trkpt>
      <trkpt lat="44.51335" lon="1.35543">
        <ele>249.4</ele>
        <time>2025-05-29T14:06:30Z</time>
      </trkpt>
      <trkpt lat="44.51332" lon="1.35545">
        <ele>249.2</ele>
        <time>2025-05-29T14:06:31Z</time>
      </trkpt>
      <trkpt lat="44.51329" lon="1.35547">
        <ele>249.2</ele>
        <time>2025-05-29T14:06:32Z</time>
      </trkpt>
      <trkpt lat="44.51326" lon="1.3555">
        <ele>249</ele>
        <time>2025-05-29T14:06:33Z</time>
      </trkpt>
      <trkpt lat="44.51325" lon="1.35555">
        <ele>248.8</ele>
        <time>2025-05-29T14:06:34Z</time>
      </trkpt>
      <trkpt lat="44.51323" lon="1.35559">
        <ele>248.8</ele>
        <time>2025-05-29T14:06:35Z</time>
      </trkpt>
      <trkpt lat="44.51322" lon="1.35564">
        <ele>248.6</ele>
        <time>2025-05-29T14:06:36Z</time>
      </trkpt>
      <trkpt lat="44.51322" lon="1.35569">
        <ele>248.6</ele>
        <time>2025-05-29T14:06:37Z</time>
      </trkpt>
      <trkpt lat="44.51322" lon="1.35573">
        <ele>248.6</ele>
        <time>2025-05-29T14:06:38Z</time>
      </trkpt>
      <trkpt lat="44.51322" lon="1.35578">
        <ele>248.8</ele>
        <time>2025-05-29T14:06:39Z</time>
      </trkpt>
      <trkpt lat="44.51323" lon="1.35583">
        <ele>248.8</ele>
        <time>2025-05-29T14:06:40Z</time>
      </trkpt>
      <trkpt lat="44.51323" lon="1.35586">
        <ele>249</ele>
        <time>2025-05-29T14:06:41Z</time>
      </trkpt>
      <trkpt lat="44.51323" lon="1.35589">
        <ele>249.2</ele>
        <time>2025-05-29T14:06:42Z</time>
      </trkpt>
      <trkpt lat="44.51323" lon="1.35593">
        <ele>249.4</ele>
        <time>2025-05-29T14:06:43Z</time>
      </trkpt>
      <trkpt lat="44.51324" lon="1.35596">
        <ele>249.6</ele>
        <time>2025-05-29T14:06:44Z</time>
      </trkpt>
      <trkpt lat="44.51325" lon="1.35598">
        <ele>249.8</ele>
        <time>2025-05-29T14:06:45Z</time>
      </trkpt>
      <trkpt lat="44.51327" lon="1.356">
        <ele>250.2</ele>
        <time>2025-05-29T14:06:46Z</time>
      </trkpt>
      <trkpt lat="44.51329" lon="1.35601">
        <ele>250.2</ele>
        <time>2025-05-29T14:06:47Z</time>
      </trkpt>
      <trkpt lat="44.5133" lon="1.35602">
        <ele>250.4</ele>
        <time>2025-05-29T14:06:48Z</time>
      </trkpt>
      <trkpt lat="44.51332" lon="1.35603">
        <ele>250.4</ele>
        <time>2025-05-29T14:06:49Z</time>
      </trkpt>
      <trkpt lat="44.51334" lon="1.35604">
        <ele>250.6</ele>
        <time>2025-05-29T14:06:50Z</time>
      </trkpt>
      <trkpt lat="44.51335" lon="1.35606">
        <ele>251</ele>
        <time>2025-05-29T14:06:51Z</time>
      </trkpt>
      <trkpt lat="44.51335" lon="1.35608">
        <ele>251.4</ele>
        <time>2025-05-29T14:06:52Z</time>
      </trkpt>
      <trkpt lat="44.51335" lon="1.35611">
        <ele>251.8</ele>
        <time>2025-05-29T14:06:53Z</time>
      </trkpt>
      <trkpt lat="44.51335" lon="1.35614">
        <ele>252.2</ele>
        <time>2025-05-29T14:06:54Z</time>
      </trkpt>
      <trkpt lat="44.51335" lon="1.35617">
        <ele>252.4</ele>
        <time>2025-05-29T14:06:55Z</time>
      </trkpt>
      <trkpt lat="44.51335" lon="1.3562">
        <ele>252.6</ele>
        <time>2025-05-29T14:06:56Z</time>
      </trkpt>
      <trkpt lat="44.51335" lon="1.35623">
        <ele>252.8</ele>
        <time>2025-05-29T14:06:57Z</time>
      </trkpt>
      <trkpt lat="44.51334" lon="1.35626">
        <ele>252.8</ele>
        <time>2025-05-29T14:06:58Z</time>
      </trkpt>
      <trkpt lat="44.51334" lon="1.35629">
        <ele>252.8</ele>
        <time>2025-05-29T14:06:59Z</time>
      </trkpt>
      <trkpt lat="44.51334" lon="1.35632">
        <ele>253</ele>
        <time>2025-05-29T14:07:00Z</time>
      </trkpt>
      <trkpt lat="44.51334" lon="1.35636">
        <ele>253.2</ele>
        <time>2025-05-29T14:07:01Z</time>
      </trkpt>
      <trkpt lat="44.51333" lon="1.35639">
        <ele>253</ele>
        <time>2025-05-29T14:07:02Z</time>
      </trkpt>
      <trkpt lat="44.51332" lon="1.35642">
        <ele>253</ele>
        <time>2025-05-29T14:07:03Z</time>
      </trkpt>
      <trkpt lat="44.5133" lon="1.35646">
        <ele>252.8</ele>
        <time>2025-05-29T14:07:04Z</time>
      </trkpt>
      <trkpt lat="44.51328" lon="1.3565">
        <ele>252.6</ele>
        <time>2025-05-29T14:07:05Z</time>
      </trkpt>
      <trkpt lat="44.51325" lon="1.35654">
        <ele>252.4</ele>
        <time>2025-05-29T14:07:06Z</time>
      </trkpt>
      <trkpt lat="44.51323" lon="1.35659">
        <ele>252.2</ele>
        <time>2025-05-29T14:07:07Z</time>
      </trkpt>
      <trkpt lat="44.51322" lon="1.35665">
        <ele>251.8</ele>
        <time>2025-05-29T14:07:08Z</time>
      </trkpt>
      <trkpt lat="44.5132" lon="1.35671">
        <ele>251.6</ele>
        <time>2025-05-29T14:07:09Z</time>
      </trkpt>
      <trkpt lat="44.51319" lon="1.35677">
        <ele>251.4</ele>
        <time>2025-05-29T14:07:10Z</time>
      </trkpt>
      <trkpt lat="44.51317" lon="1.35683">
        <ele>251.2</ele>
        <time>2025-05-29T14:07:11Z</time>
      </trkpt>
      <trkpt lat="44.51316" lon="1.35689">
        <ele>250.6</ele>
        <time>2025-05-29T14:07:12Z</time>
      </trkpt>
      <trkpt lat="44.51316" lon="1.35696">
        <ele>250.6</ele>
        <time>2025-05-29T14:07:13Z</time>
      </trkpt>
      <trkpt lat="44.51315" lon="1.35703">
        <ele>250.4</ele>
        <time>2025-05-29T14:07:14Z</time>
      </trkpt>
      <trkpt lat="44.51315" lon="1.35709">
        <ele>250.2</ele>
        <time>2025-05-29T14:07:15Z</time>
      </trkpt>
      <trkpt lat="44.51316" lon="1.35716">
        <ele>250</ele>
        <time>2025-05-29T14:07:16Z</time>
      </trkpt>
      <trkpt lat="44.51316" lon="1.35723">
        <ele>250</ele>
        <time>2025-05-29T14:07:17Z</time>
      </trkpt>
      <trkpt lat="44.51315" lon="1.35729">
        <ele>249.8</ele>
        <time>2025-05-29T14:07:18Z</time>
      </trkpt>
      <trkpt lat="44.51314" lon="1.35735">
        <ele>249.6</ele>
        <time>2025-05-29T14:07:19Z</time>
      </trkpt>
      <trkpt lat="44.51314" lon="1.35742">
        <ele>249.6</ele>
        <time>2025-05-29T14:07:20Z</time>
      </trkpt>
      <trkpt lat="44.51314" lon="1.35748">
        <ele>249.4</ele>
        <time>2025-05-29T14:07:21Z</time>
      </trkpt>
      <trkpt lat="44.51313" lon="1.35755">
        <ele>249.2</ele>
        <time>2025-05-29T14:07:22Z</time>
      </trkpt>
      <trkpt lat="44.51312" lon="1.35762">
        <ele>249</ele>
        <time>2025-05-29T14:07:23Z</time>
      </trkpt>
      <trkpt lat="44.51309" lon="1.35769">
        <ele>248.8</ele>
        <time>2025-05-29T14:07:24Z</time>
      </trkpt>
      <trkpt lat="44.51307" lon="1.35778">
        <ele>248.4</ele>
        <time>2025-05-29T14:07:25Z</time>
      </trkpt>
      <trkpt lat="44.51307" lon="1.35787">
        <ele>248</ele>
        <time>2025-05-29T14:07:26Z</time>
      </trkpt>
      <trkpt lat="44.51307" lon="1.35795">
        <ele>247.8</ele>
        <time>2025-05-29T14:07:27Z</time>
      </trkpt>
      <trkpt lat="44.51308" lon="1.35804">
        <ele>247.2</ele>
        <time>2025-05-29T14:07:28Z</time>
      </trkpt>
      <trkpt lat="44.51308" lon="1.35812">
        <ele>246.8</ele>
        <time>2025-05-29T14:07:29Z</time>
      </trkpt>
      <trkpt lat="44.51308" lon="1.35819">
        <ele>246.6</ele>
        <time>2025-05-29T14:07:30Z</time>
      </trkpt>
      <trkpt lat="44.51308" lon="1.35827">
        <ele>246.6</ele>
        <time>2025-05-29T14:07:31Z</time>
      </trkpt>
      <trkpt lat="44.51308" lon="1.35835">
        <ele>246.6</ele>
        <time>2025-05-29T14:07:32Z</time>
      </trkpt>
      <trkpt lat="44.51309" lon="1.35843">
        <ele>246.6</ele>
        <time>2025-05-29T14:07:33Z</time>
      </trkpt>
      <trkpt lat="44.51309" lon="1.35851">
        <ele>246.4</ele>
        <time>2025-05-29T14:07:34Z</time>
      </trkpt>
      <trkpt lat="44.51308" lon="1.35858">
        <ele>246.4</ele>
        <time>2025-05-29T14:07:35Z</time>
      </trkpt>
      <trkpt lat="44.51307" lon="1.35864">
        <ele>246.2</ele>
        <time>2025-05-29T14:07:36Z</time>
      </trkpt>
      <trkpt lat="44.51306" lon="1.35871">
        <ele>246</ele>
        <time>2025-05-29T14:07:37Z</time>
      </trkpt>
      <trkpt lat="44.51305" lon="1.35878">
        <ele>245.6</ele>
        <time>2025-05-29T14:07:38Z</time>
      </trkpt>
      <trkpt lat="44.51304" lon="1.35886">
        <ele>245.2</ele>
        <time>2025-05-29T14:07:39Z</time>
      </trkpt>
      <trkpt lat="44.51305" lon="1.35894">
        <ele>245</ele>
        <time>2025-05-29T14:07:40Z</time>
      </trkpt>
      <trkpt lat="44.51305" lon="1.35901">
        <ele>245</ele>
        <time>2025-05-29T14:07:41Z</time>
      </trkpt>
      <trkpt lat="44.51305" lon="1.35908">
        <ele>244.8</ele>
        <time>2025-05-29T14:07:42Z</time>
      </trkpt>
      <trkpt lat="44.51303" lon="1.35915">
        <ele>244.6</ele>
        <time>2025-05-29T14:07:43Z</time>
      </trkpt>
      <trkpt lat="44.51303" lon="1.35923">
        <ele>244.2</ele>
        <time>2025-05-29T14:07:44Z</time>
      </trkpt>
      <trkpt lat="44.51305" lon="1.3593">
        <ele>243.8</ele>
        <time>2025-05-29T14:07:45Z</time>
      </trkpt>
      <trkpt lat="44.51306" lon="1.35938">
        <ele>243.6</ele>
        <time>2025-05-29T14:07:46Z</time>
      </trkpt>
      <trkpt lat="44.51308" lon="1.35946">
        <ele>243.2</ele>
        <time>2025-05-29T14:07:47Z</time>
      </trkpt>
      <trkpt lat="44.51311" lon="1.35952">
        <ele>242.8</ele>
        <time>2025-05-29T14:07:48Z</time>
      </trkpt>
      <trkpt lat="44.51315" lon="1.35956">
        <ele>242.6</ele>
        <time>2025-05-29T14:07:49Z</time>
      </trkpt>
      <trkpt lat="44.5132" lon="1.35958">
        <ele>242.2</ele>
        <time>2025-05-29T14:07:50Z</time>
      </trkpt>
      <trkpt lat="44.51323" lon="1.35961">
        <ele>241.8</ele>
        <time>2025-05-29T14:07:51Z</time>
      </trkpt>
      <trkpt lat="44.51324" lon="1.35967">
        <ele>241.4</ele>
        <time>2025-05-29T14:07:52Z</time>
      </trkpt>
      <trkpt lat="44.51325" lon="1.35973">
        <ele>241.2</ele>
        <time>2025-05-29T14:07:53Z</time>
      </trkpt>
      <trkpt lat="44.51326" lon="1.35979">
        <ele>241</ele>
        <time>2025-05-29T14:07:54Z</time>
      </trkpt>
      <trkpt lat="44.51329" lon="1.35984">
        <ele>240.6</ele>
        <time>2025-05-29T14:07:55Z</time>
      </trkpt>
      <trkpt lat="44.51333" lon="1.35988">
        <ele>240.4</ele>
        <time>2025-05-29T14:07:56Z</time>
      </trkpt>
      <trkpt lat="44.51337" lon="1.35993">
        <ele>240</ele>
        <time>2025-05-29T14:07:57Z</time>
      </trkpt>
      <trkpt lat="44.51342" lon="1.35997">
        <ele>239.6</ele>
        <time>2025-05-29T14:07:58Z</time>
      </trkpt>
      <trkpt lat="44.51346" lon="1.36001">
        <ele>239.2</ele>
        <time>2025-05-29T14:07:59Z</time>
      </trkpt>
      <trkpt lat="44.51348" lon="1.36009">
        <ele>238.8</ele>
        <time>2025-05-29T14:08:00Z</time>
      </trkpt>
      <trkpt lat="44.51349" lon="1.36017">
        <ele>238.4</ele>
        <time>2025-05-29T14:08:01Z</time>
      </trkpt>
      <trkpt lat="44.5135" lon="1.36025">
        <ele>238.2</ele>
        <time>2025-05-29T14:08:02Z</time>
      </trkpt>
      <trkpt lat="44.51353" lon="1.36033">
        <ele>237.8</ele>
        <time>2025-05-29T14:08:03Z</time>
      </trkpt>
      <trkpt lat="44.51356" lon="1.36041">
        <ele>237.2</ele>
        <time>2025-05-29T14:08:04Z</time>
      </trkpt>
      <trkpt lat="44.5136" lon="1.36047">
        <ele>236.8</ele>
        <time>2025-05-29T14:08:05Z</time>
      </trkpt>
      <trkpt lat="44.51365" lon="1.36053">
        <ele>236.4</ele>
        <time>2025-05-29T14:08:06Z</time>
      </trkpt>
      <trkpt lat="44.51369" lon="1.36059">
        <ele>235.8</ele>
        <time>2025-05-29T14:08:07Z</time>
      </trkpt>
      <trkpt lat="44.51371" lon="1.36066">
        <ele>235.8</ele>
        <time>2025-05-29T14:08:08Z</time>
      </trkpt>
      <trkpt lat="44.51371" lon="1.36073">
        <ele>235.6</ele>
        <time>2025-05-29T14:08:09Z</time>
      </trkpt>
      <trkpt lat="44.51371" lon="1.3608">
        <ele>235.6</ele>
        <time>2025-05-29T14:08:10Z</time>
      </trkpt>
      <trkpt lat="44.51369" lon="1.36087">
        <ele>235.4</ele>
        <time>2025-05-29T14:08:11Z</time>
      </trkpt>
      <trkpt lat="44.51366" lon="1.36095">
        <ele>235.4</ele>
        <time>2025-05-29T14:08:12Z</time>
      </trkpt>
      <trkpt lat="44.51363" lon="1.36102">
        <ele>235.2</ele>
        <time>2025-05-29T14:08:13Z</time>
      </trkpt>
      <trkpt lat="44.51358" lon="1.36109">
        <ele>234.6</ele>
        <time>2025-05-29T14:08:14Z</time>
      </trkpt>
      <trkpt lat="44.51355" lon="1.36116">
        <ele>234</ele>
        <time>2025-05-29T14:08:15Z</time>
      </trkpt>
      <trkpt lat="44.51355" lon="1.36124">
        <ele>233.6</ele>
        <time>2025-05-29T14:08:16Z</time>
      </trkpt>
      <trkpt lat="44.51357" lon="1.3613">
        <ele>233.4</ele>
        <time>2025-05-29T14:08:17Z</time>
      </trkpt>
      <trkpt lat="44.51358" lon="1.36135">
        <ele>233.2</ele>
        <time>2025-05-29T14:08:18Z</time>
      </trkpt>
      <trkpt lat="44.51358" lon="1.3614">
        <ele>233.4</ele>
        <time>2025-05-29T14:08:19Z</time>
      </trkpt>
      <trkpt lat="44.51358" lon="1.36144">
        <ele>233.6</ele>
        <time>2025-05-29T14:08:20Z</time>
      </trkpt>
      <trkpt lat="44.51357" lon="1.36148">
        <ele>233.8</ele>
        <time>2025-05-29T14:08:21Z</time>
      </trkpt>
      <trkpt lat="44.51356" lon="1.36152">
        <ele>234</ele>
        <time>2025-05-29T14:08:22Z</time>
      </trkpt>
      <trkpt lat="44.51355" lon="1.36156">
        <ele>234.2</ele>
        <time>2025-05-29T14:08:23Z</time>
      </trkpt>
      <trkpt lat="44.51354" lon="1.3616">
        <ele>234.2</ele>
        <time>2025-05-29T14:08:24Z</time>
      </trkpt>
      <trkpt lat="44.51354" lon="1.3616">
        <ele>234.4</ele>
        <time>2025-05-29T14:08:25Z</time>
      </trkpt>
      <trkpt lat="44.51352" lon="1.36168">
        <ele>234.4</ele>
        <time>2025-05-29T14:08:26Z</time>
      </trkpt>
      <trkpt lat="44.5135" lon="1.36171">
        <ele>234.4</ele>
        <time>2025-05-29T14:08:27Z</time>
      </trkpt>
      <trkpt lat="44.51348" lon="1.36173">
        <ele>234.4</ele>
        <time>2025-05-29T14:08:28Z</time>
      </trkpt>
      <trkpt lat="44.51345" lon="1.36175">
        <ele>234.6</ele>
        <time>2025-05-29T14:08:29Z</time>
      </trkpt>
      <trkpt lat="44.51341" lon="1.36178">
        <ele>234.6</ele>
        <time>2025-05-29T14:08:30Z</time>
      </trkpt>
      <trkpt lat="44.51338" lon="1.36181">
        <ele>234.6</ele>
        <time>2025-05-29T14:08:31Z</time>
      </trkpt>
      <trkpt lat="44.51334" lon="1.36184">
        <ele>234.6</ele>
        <time>2025-05-29T14:08:32Z</time>
      </trkpt>
      <trkpt lat="44.5133" lon="1.36187">
        <ele>234.4</ele>
        <time>2025-05-29T14:08:33Z</time>
      </trkpt>
      <trkpt lat="44.51325" lon="1.36189">
        <ele>234.2</ele>
        <time>2025-05-29T14:08:34Z</time>
      </trkpt>
      <trkpt lat="44.5132" lon="1.36191">
        <ele>233.8</ele>
        <time>2025-05-29T14:08:35Z</time>
      </trkpt>
      <trkpt lat="44.51315" lon="1.36195">
        <ele>233.6</ele>
        <time>2025-05-29T14:08:36Z</time>
      </trkpt>
      <trkpt lat="44.51313" lon="1.36201">
        <ele>233.2</ele>
        <time>2025-05-29T14:08:37Z</time>
      </trkpt>
      <trkpt lat="44.51312" lon="1.36206">
        <ele>233</ele>
        <time>2025-05-29T14:08:38Z</time>
      </trkpt>
      <trkpt lat="44.51312" lon="1.36211">
        <ele>233</ele>
        <time>2025-05-29T14:08:39Z</time>
      </trkpt>
      <trkpt lat="44.51312" lon="1.36215">
        <ele>233</ele>
        <time>2025-05-29T14:08:40Z</time>
      </trkpt>
      <trkpt lat="44.51311" lon="1.36218">
        <ele>233.2</ele>
        <time>2025-05-29T14:08:41Z</time>
      </trkpt>
      <trkpt lat="44.5131" lon="1.36221">
        <ele>233.6</ele>
        <time>2025-05-29T14:08:42Z</time>
      </trkpt>
      <trkpt lat="44.51309" lon="1.36225">
        <ele>233.8</ele>
        <time>2025-05-29T14:08:43Z</time>
      </trkpt>
      <trkpt lat="44.51308" lon="1.36228">
        <ele>234</ele>
        <time>2025-05-29T14:08:44Z</time>
      </trkpt>
      <trkpt lat="44.51306" lon="1.36231">
        <ele>234.4</ele>
        <time>2025-05-29T14:08:45Z</time>
      </trkpt>
      <trkpt lat="44.51303" lon="1.36233">
        <ele>234.6</ele>
        <time>2025-05-29T14:08:46Z</time>
      </trkpt>
      <trkpt lat="44.51301" lon="1.36235">
        <ele>235</ele>
        <time>2025-05-29T14:08:47Z</time>
      </trkpt>
      <trkpt lat="44.51301" lon="1.36239">
        <ele>235.2</ele>
        <time>2025-05-29T14:08:48Z</time>
      </trkpt>
      <trkpt lat="44.51301" lon="1.36243">
        <ele>235.4</ele>
        <time>2025-05-29T14:08:49Z</time>
      </trkpt>
      <trkpt lat="44.51301" lon="1.36247">
        <ele>235.6</ele>
        <time>2025-05-29T14:08:50Z</time>
      </trkpt>
      <trkpt lat="44.513" lon="1.3625">
        <ele>235.8</ele>
        <time>2025-05-29T14:08:51Z</time>
      </trkpt>
      <trkpt lat="44.51299" lon="1.36252">
        <ele>236</ele>
        <time>2025-05-29T14:08:52Z</time>
      </trkpt>
      <trkpt lat="44.51298" lon="1.36255">
        <ele>236.4</ele>
        <time>2025-05-29T14:08:53Z</time>
      </trkpt>
      <trkpt lat="44.51298" lon="1.36258">
        <ele>236.6</ele>
        <time>2025-05-29T14:08:54Z</time>
      </trkpt>
      <trkpt lat="44.51298" lon="1.36261">
        <ele>236.8</ele>
        <time>2025-05-29T14:08:55Z</time>
      </trkpt>
      <trkpt lat="44.51298" lon="1.36264">
        <ele>236.8</ele>
        <time>2025-05-29T14:08:56Z</time>
      </trkpt>
      <trkpt lat="44.51298" lon="1.36267">
        <ele>237</ele>
        <time>2025-05-29T14:08:57Z</time>
      </trkpt>
      <trkpt lat="44.51298" lon="1.36269">
        <ele>237.2</ele>
        <time>2025-05-29T14:08:58Z</time>
      </trkpt>
      <trkpt lat="44.51298" lon="1.36271">
        <ele>237.4</ele>
        <time>2025-05-29T14:08:59Z</time>
      </trkpt>
      <trkpt lat="44.51299" lon="1.36274">
        <ele>237.6</ele>
        <time>2025-05-29T14:09:00Z</time>
      </trkpt>
      <trkpt lat="44.51299" lon="1.36277">
        <ele>238</ele>
        <time>2025-05-29T14:09:01Z</time>
      </trkpt>
      <trkpt lat="44.51299" lon="1.36279">
        <ele>238.2</ele>
        <time>2025-05-29T14:09:02Z</time>
      </trkpt>
      <trkpt lat="44.51299" lon="1.36282">
        <ele>238.4</ele>
        <time>2025-05-29T14:09:03Z</time>
      </trkpt>
      <trkpt lat="44.51298" lon="1.36285">
        <ele>238.8</ele>
        <time>2025-05-29T14:09:04Z</time>
      </trkpt>
      <trkpt lat="44.51297" lon="1.36287">
        <ele>239</ele>
        <time>2025-05-29T14:09:05Z</time>
      </trkpt>
      <trkpt lat="44.51296" lon="1.3629">
        <ele>239</ele>
        <time>2025-05-29T14:09:06Z</time>
      </trkpt>
      <trkpt lat="44.51295" lon="1.36293">
        <ele>239</ele>
        <time>2025-05-29T14:09:07Z</time>
      </trkpt>
      <trkpt lat="44.51295" lon="1.36296">
        <ele>238.8</ele>
        <time>2025-05-29T14:09:08Z</time>
      </trkpt>
      <trkpt lat="44.51294" lon="1.36299">
        <ele>238.8</ele>
        <time>2025-05-29T14:09:09Z</time>
      </trkpt>
      <trkpt lat="44.51293" lon="1.36302">
        <ele>238.8</ele>
        <time>2025-05-29T14:09:10Z</time>
      </trkpt>
      <trkpt lat="44.51292" lon="1.36305">
        <ele>238.8</ele>
        <time>2025-05-29T14:09:11Z</time>
      </trkpt>
      <trkpt lat="44.5129" lon="1.36307">
        <ele>239</ele>
        <time>2025-05-29T14:09:12Z</time>
      </trkpt>
      <trkpt lat="44.51288" lon="1.3631">
        <ele>239.2</ele>
        <time>2025-05-29T14:09:13Z</time>
      </trkpt>
      <trkpt lat="44.51286" lon="1.36312">
        <ele>239.2</ele>
        <time>2025-05-29T14:09:14Z</time>
      </trkpt>
      <trkpt lat="44.51283" lon="1.36314">
        <ele>239.4</ele>
        <time>2025-05-29T14:09:15Z</time>
      </trkpt>
      <trkpt lat="44.5128" lon="1.36316">
        <ele>239.2</ele>
        <time>2025-05-29T14:09:16Z</time>
      </trkpt>
      <trkpt lat="44.51276" lon="1.36319">
        <ele>239.2</ele>
        <time>2025-05-29T14:09:17Z</time>
      </trkpt>
      <trkpt lat="44.51272" lon="1.36323">
        <ele>239.4</ele>
        <time>2025-05-29T14:09:18Z</time>
      </trkpt>
      <trkpt lat="44.51269" lon="1.36327">
        <ele>239</ele>
        <time>2025-05-29T14:09:19Z</time>
      </trkpt>
      <trkpt lat="44.51267" lon="1.36332">
        <ele>238.8</ele>
        <time>2025-05-29T14:09:20Z</time>
      </trkpt>
      <trkpt lat="44.51265" lon="1.36336">
        <ele>238.8</ele>
        <time>2025-05-29T14:09:21Z</time>
      </trkpt>
      <trkpt lat="44.51263" lon="1.36339">
        <ele>238.6</ele>
        <time>2025-05-29T14:09:22Z</time>
      </trkpt>
      <trkpt lat="44.5126" lon="1.36343">
        <ele>238.2</ele>
        <time>2025-05-29T14:09:23Z</time>
      </trkpt>
      <trkpt lat="44.51257" lon="1.36347">
        <ele>238</ele>
        <time>2025-05-29T14:09:24Z</time>
      </trkpt>
      <trkpt lat="44.51254" lon="1.36352">
        <ele>237.8</ele>
        <time>2025-05-29T14:09:25Z</time>
      </trkpt>
      <trkpt lat="44.51254" lon="1.36357">
        <ele>237.8</ele>
        <time>2025-05-29T14:09:26Z</time>
      </trkpt>
      <trkpt lat="44.51255" lon="1.36362">
        <ele>237.6</ele>
        <time>2025-05-29T14:09:27Z</time>
      </trkpt>
      <trkpt lat="44.51256" lon="1.36367">
        <ele>237.6</ele>
        <time>2025-05-29T14:09:28Z</time>
      </trkpt>
      <trkpt lat="44.51258" lon="1.36371">
        <ele>237.8</ele>
        <time>2025-05-29T14:09:29Z</time>
      </trkpt>
      <trkpt lat="44.51259" lon="1.36374">
        <ele>237.8</ele>
        <time>2025-05-29T14:09:30Z</time>
      </trkpt>
      <trkpt lat="44.51258" lon="1.36378">
        <ele>238</ele>
        <time>2025-05-29T14:09:31Z</time>
      </trkpt>
      <trkpt lat="44.51257" lon="1.3638">
        <ele>238.2</ele>
        <time>2025-05-29T14:09:32Z</time>
      </trkpt>
      <trkpt lat="44.51255" lon="1.36384">
        <ele>238.2</ele>
        <time>2025-05-29T14:09:33Z</time>
      </trkpt>
      <trkpt lat="44.51255" lon="1.36387">
        <ele>238.2</ele>
        <time>2025-05-29T14:09:34Z</time>
      </trkpt>
      <trkpt lat="44.51253" lon="1.36392">
        <ele>238.2</ele>
        <time>2025-05-29T14:09:35Z</time>
      </trkpt>
      <trkpt lat="44.51251" lon="1.36395">
        <ele>236.6</ele>
      </trkpt>
      <trkpt lat="44.51249" lon="1.36396">
        <ele>236.4</ele>
      </trkpt>
      <trkpt lat="44.51248" lon="1.36397">
        <ele>237</ele>
        <time>2025-05-29T14:11:09Z</time>
      </trkpt>
      <trkpt lat="44.51246" lon="1.36398">
        <ele>237</ele>
        <time>2025-05-29T14:11:10Z</time>
      </trkpt>
      <trkpt lat="44.51244" lon="1.36399">
        <ele>236.8</ele>
        <time>2025-05-29T14:11:11Z</time>
      </trkpt>
      <trkpt lat="44.51242" lon="1.364">
        <ele>236.6</ele>
        <time>2025-05-29T14:11:12Z</time>
      </trkpt>
      <trkpt lat="44.5124" lon="1.36402">
        <ele>236.4</ele>
        <time>2025-05-29T14:11:13Z</time>
      </trkpt>
      <trkpt lat="44.51239" lon="1.36406">
        <ele>236</ele>
        <time>2025-05-29T14:11:14Z</time>
      </trkpt>
      <trkpt lat="44.51237" lon="1.3641">
        <ele>235.6</ele>
        <time>2025-05-29T14:11:15Z</time>
      </trkpt>
      <trkpt lat="44.51234" lon="1.36413">
        <ele>235.4</ele>
        <time>2025-05-29T14:11:16Z</time>
      </trkpt>
      <trkpt lat="44.5123" lon="1.36414">
        <ele>235.2</ele>
        <time>2025-05-29T14:11:17Z</time>
      </trkpt>
      <trkpt lat="44.51225" lon="1.36415">
        <ele>235</ele>
        <time>2025-05-29T14:11:18Z</time>
      </trkpt>
      <trkpt lat="44.51221" lon="1.36418">
        <ele>234.8</ele>
        <time>2025-05-29T14:11:19Z</time>
      </trkpt>
      <trkpt lat="44.5122" lon="1.36422">
        <ele>234.4</ele>
        <time>2025-05-29T14:11:20Z</time>
      </trkpt>
      <trkpt lat="44.51219" lon="1.36426">
        <ele>234.2</ele>
        <time>2025-05-29T14:11:21Z</time>
      </trkpt>
      <trkpt lat="44.51219" lon="1.3643">
        <ele>234</ele>
        <time>2025-05-29T14:11:22Z</time>
      </trkpt>
      <trkpt lat="44.51218" lon="1.36434">
        <ele>233.8</ele>
        <time>2025-05-29T14:11:23Z</time>
      </trkpt>
      <trkpt lat="44.51216" lon="1.36439">
        <ele>233.8</ele>
        <time>2025-05-29T14:11:24Z</time>
      </trkpt>
      <trkpt lat="44.51213" lon="1.3644">
        <ele>233.6</ele>
        <time>2025-05-29T14:11:25Z</time>
      </trkpt>
      <trkpt lat="44.51212" lon="1.36441">
        <ele>233.6</ele>
        <time>2025-05-29T14:11:26Z</time>
      </trkpt>
      <trkpt lat="44.5121" lon="1.36441">
        <ele>233.4</ele>
        <time>2025-05-29T14:11:27Z</time>
      </trkpt>
      <trkpt lat="44.51209" lon="1.36441">
        <ele>233.6</ele>
        <time>2025-05-29T14:11:28Z</time>
      </trkpt>
      <trkpt lat="44.51207" lon="1.3644">
        <ele>233.6</ele>
        <time>2025-05-29T14:11:29Z</time>
      </trkpt>
      <trkpt lat="44.51205" lon="1.36439">
        <ele>233.8</ele>
        <time>2025-05-29T14:11:30Z</time>
      </trkpt>
      <trkpt lat="44.51204" lon="1.36438">
        <ele>234.2</ele>
        <time>2025-05-29T14:11:31Z</time>
      </trkpt>
      <trkpt lat="44.51202" lon="1.36437">
        <ele>234.2</ele>
        <time>2025-05-29T14:11:32Z</time>
      </trkpt>
      <trkpt lat="44.51201" lon="1.36436">
        <ele>234.2</ele>
        <time>2025-05-29T14:11:33Z</time>
      </trkpt>
      <trkpt lat="44.51199" lon="1.36434">
        <ele>234.2</ele>
        <time>2025-05-29T14:11:34Z</time>
      </trkpt>
      <trkpt lat="44.51196" lon="1.36432">
        <ele>234.2</ele>
        <time>2025-05-29T14:11:35Z</time>
      </trkpt>
      <trkpt lat="44.51192" lon="1.36429">
        <ele>233.8</ele>
        <time>2025-05-29T14:11:36Z</time>
      </trkpt>
      <trkpt lat="44.5119" lon="1.36426">
        <ele>233.4</ele>
        <time>2025-05-29T14:11:37Z</time>
      </trkpt>
      <trkpt lat="44.51188" lon="1.36424">
        <ele>233.2</ele>
        <time>2025-05-29T14:11:38Z</time>
      </trkpt>
      <trkpt lat="44.51185" lon="1.36421">
        <ele>232.8</ele>
        <time>2025-05-29T14:11:39Z</time>
      </trkpt>
      <trkpt lat="44.51182" lon="1.36419">
        <ele>232.4</ele>
        <time>2025-05-29T14:11:40Z</time>
      </trkpt>
      <trkpt lat="44.51178" lon="1.36417">
        <ele>232</ele>
        <time>2025-05-29T14:11:41Z</time>
      </trkpt>
      <trkpt lat="44.51175" lon="1.36414">
        <ele>231.6</ele>
        <time>2025-05-29T14:11:42Z</time>
      </trkpt>
      <trkpt lat="44.51172" lon="1.36411">
        <ele>231</ele>
        <time>2025-05-29T14:11:43Z</time>
      </trkpt>
      <trkpt lat="44.51169" lon="1.3641">
        <ele>230.2</ele>
        <time>2025-05-29T14:11:44Z</time>
      </trkpt>
      <trkpt lat="44.51167" lon="1.36408">
        <ele>229.8</ele>
        <time>2025-05-29T14:11:45Z</time>
      </trkpt>
      <trkpt lat="44.51165" lon="1.36407">
        <ele>229.2</ele>
        <time>2025-05-29T14:11:46Z</time>
      </trkpt>
      <trkpt lat="44.51162" lon="1.36408">
        <ele>228.8</ele>
        <time>2025-05-29T14:11:47Z</time>
      </trkpt>
      <trkpt lat="44.5116" lon="1.3641">
        <ele>228.4</ele>
        <time>2025-05-29T14:11:48Z</time>
      </trkpt>
      <trkpt lat="44.51157" lon="1.36411">
        <ele>228</ele>
        <time>2025-05-29T14:11:49Z</time>
      </trkpt>
      <trkpt lat="44.51153" lon="1.36411">
        <ele>227.6</ele>
        <time>2025-05-29T14:11:50Z</time>
      </trkpt>
      <trkpt lat="44.5115" lon="1.36409">
        <ele>227</ele>
        <time>2025-05-29T14:11:51Z</time>
      </trkpt>
      <trkpt lat="44.51149" lon="1.36406">
        <ele>226.2</ele>
        <time>2025-05-29T14:11:52Z</time>
      </trkpt>
      <trkpt lat="44.51149" lon="1.36402">
        <ele>225.4</ele>
        <time>2025-05-29T14:11:53Z</time>
      </trkpt>
      <trkpt lat="44.51149" lon="1.36397">
        <ele>225</ele>
        <time>2025-05-29T14:11:54Z</time>
      </trkpt>
      <trkpt lat="44.51148" lon="1.36394">
        <ele>224.6</ele>
        <time>2025-05-29T14:11:55Z</time>
      </trkpt>
      <trkpt lat="44.51145" lon="1.36394">
        <ele>224.2</ele>
        <time>2025-05-29T14:11:56Z</time>
      </trkpt>
      <trkpt lat="44.51143" lon="1.36396">
        <ele>223.8</ele>
        <time>2025-05-29T14:11:57Z</time>
      </trkpt>
      <trkpt lat="44.51141" lon="1.364">
        <ele>223.4</ele>
        <time>2025-05-29T14:11:58Z</time>
      </trkpt>
      <trkpt lat="44.51137" lon="1.36402">
        <ele>223</ele>
        <time>2025-05-29T14:11:59Z</time>
      </trkpt>
      <trkpt lat="44.51134" lon="1.36405">
        <ele>222.6</ele>
        <time>2025-05-29T14:12:00Z</time>
      </trkpt>
      <trkpt lat="44.5113" lon="1.36408">
        <ele>222.2</ele>
        <time>2025-05-29T14:12:01Z</time>
      </trkpt>
      <trkpt lat="44.51127" lon="1.36407">
        <ele>221.6</ele>
        <time>2025-05-29T14:12:02Z</time>
      </trkpt>
      <trkpt lat="44.51124" lon="1.36406">
        <ele>221.2</ele>
        <time>2025-05-29T14:12:03Z</time>
      </trkpt>
      <trkpt lat="44.51121" lon="1.36407">
        <ele>220.8</ele>
        <time>2025-05-29T14:12:04Z</time>
      </trkpt>
      <trkpt lat="44.51116" lon="1.36406">
        <ele>220.4</ele>
        <time>2025-05-29T14:12:05Z</time>
      </trkpt>
      <trkpt lat="44.51111" lon="1.36406">
        <ele>220</ele>
        <time>2025-05-29T14:12:06Z</time>
      </trkpt>
      <trkpt lat="44.51105" lon="1.36408">
        <ele>219.4</ele>
        <time>2025-05-29T14:12:07Z</time>
      </trkpt>
      <trkpt lat="44.511" lon="1.36408">
        <ele>218.8</ele>
        <time>2025-05-29T14:12:08Z</time>
      </trkpt>
      <trkpt lat="44.51095" lon="1.36408">
        <ele>218.2</ele>
        <time>2025-05-29T14:12:09Z</time>
      </trkpt>
      <trkpt lat="44.51089" lon="1.36407">
        <ele>217.6</ele>
        <time>2025-05-29T14:12:10Z</time>
      </trkpt>
      <trkpt lat="44.51083" lon="1.36407">
        <ele>217.2</ele>
        <time>2025-05-29T14:12:11Z</time>
      </trkpt>
      <trkpt lat="44.51077" lon="1.36407">
        <ele>217</ele>
        <time>2025-05-29T14:12:12Z</time>
      </trkpt>
      <trkpt lat="44.51072" lon="1.36408">
        <ele>216.4</ele>
        <time>2025-05-29T14:12:13Z</time>
      </trkpt>
      <trkpt lat="44.51066" lon="1.36411">
        <ele>216.2</ele>
        <time>2025-05-29T14:12:14Z</time>
      </trkpt>
      <trkpt lat="44.51061" lon="1.36412">
        <ele>216</ele>
        <time>2025-05-29T14:12:15Z</time>
      </trkpt>
      <trkpt lat="44.51056" lon="1.36411">
        <ele>215.6</ele>
        <time>2025-05-29T14:12:16Z</time>
      </trkpt>
      <trkpt lat="44.51051" lon="1.36409">
        <ele>215.4</ele>
        <time>2025-05-29T14:12:17Z</time>
      </trkpt>
      <trkpt lat="44.51047" lon="1.36408">
        <ele>215.2</ele>
        <time>2025-05-29T14:12:18Z</time>
      </trkpt>
      <trkpt lat="44.51043" lon="1.36406">
        <ele>214.8</ele>
        <time>2025-05-29T14:12:19Z</time>
      </trkpt>
      <trkpt lat="44.5104" lon="1.36402">
        <ele>214.4</ele>
        <time>2025-05-29T14:12:20Z</time>
      </trkpt>
      <trkpt lat="44.51037" lon="1.36399">
        <ele>214</ele>
        <time>2025-05-29T14:12:21Z</time>
      </trkpt>
      <trkpt lat="44.51032" lon="1.36397">
        <ele>214</ele>
        <time>2025-05-29T14:12:22Z</time>
      </trkpt>
      <trkpt lat="44.51029" lon="1.36397">
        <ele>213.6</ele>
        <time>2025-05-29T14:12:23Z</time>
      </trkpt>
      <trkpt lat="44.51025" lon="1.36397">
        <ele>213</ele>
        <time>2025-05-29T14:12:24Z</time>
      </trkpt>
      <trkpt lat="44.51023" lon="1.36396">
        <ele>212.6</ele>
        <time>2025-05-29T14:12:25Z</time>
      </trkpt>
      <trkpt lat="44.5102" lon="1.36396">
        <ele>212.2</ele>
        <time>2025-05-29T14:12:26Z</time>
      </trkpt>
      <trkpt lat="44.51018" lon="1.36396">
        <ele>212</ele>
        <time>2025-05-29T14:12:27Z</time>
      </trkpt>
      <trkpt lat="44.51016" lon="1.36396">
        <ele>211.8</ele>
        <time>2025-05-29T14:12:28Z</time>
      </trkpt>
      <trkpt lat="44.51014" lon="1.36396">
        <ele>211.6</ele>
        <time>2025-05-29T14:12:29Z</time>
      </trkpt>
      <trkpt lat="44.51011" lon="1.36396">
        <ele>211.4</ele>
        <time>2025-05-29T14:12:30Z</time>
      </trkpt>
      <trkpt lat="44.51009" lon="1.36396">
        <ele>211.2</ele>
        <time>2025-05-29T14:12:31Z</time>
      </trkpt>
      <trkpt lat="44.51006" lon="1.36395">
        <ele>211</ele>
        <time>2025-05-29T14:12:32Z</time>
      </trkpt>
      <trkpt lat="44.51002" lon="1.36393">
        <ele>210.8</ele>
        <time>2025-05-29T14:12:33Z</time>
      </trkpt>
      <trkpt lat="44.50998" lon="1.36391">
        <ele>210.4</ele>
        <time>2025-05-29T14:12:34Z</time>
      </trkpt>
      <trkpt lat="44.50994" lon="1.36392">
        <ele>209.8</ele>
        <time>2025-05-29T14:12:35Z</time>
      </trkpt>
      <trkpt lat="44.50989" lon="1.36396">
        <ele>209.2</ele>
        <time>2025-05-29T14:12:36Z</time>
      </trkpt>
      <trkpt lat="44.50984" lon="1.36399">
        <ele>208.8</ele>
        <time>2025-05-29T14:12:37Z</time>
      </trkpt>
      <trkpt lat="44.5098" lon="1.36402">
        <ele>208.2</ele>
        <time>2025-05-29T14:12:38Z</time>
      </trkpt>
      <trkpt lat="44.50975" lon="1.36404">
        <ele>207.8</ele>
        <time>2025-05-29T14:12:39Z</time>
      </trkpt>
      <trkpt lat="44.5097" lon="1.36407">
        <ele>207.2</ele>
        <time>2025-05-29T14:12:40Z</time>
      </trkpt>
      <trkpt lat="44.50965" lon="1.3641">
        <ele>206.8</ele>
        <time>2025-05-29T14:12:41Z</time>
      </trkpt>
      <trkpt lat="44.50961" lon="1.36412">
        <ele>206.6</ele>
        <time>2025-05-29T14:12:42Z</time>
      </trkpt>
      <trkpt lat="44.50957" lon="1.36413">
        <ele>206.4</ele>
        <time>2025-05-29T14:12:43Z</time>
      </trkpt>
      <trkpt lat="44.50953" lon="1.36413">
        <ele>206</ele>
        <time>2025-05-29T14:12:44Z</time>
      </trkpt>
      <trkpt lat="44.5095" lon="1.36411">
        <ele>205.4</ele>
        <time>2025-05-29T14:12:45Z</time>
      </trkpt>
      <trkpt lat="44.50946" lon="1.36409">
        <ele>205</ele>
        <time>2025-05-29T14:12:46Z</time>
      </trkpt>
      <trkpt lat="44.50942" lon="1.3641">
        <ele>204.4</ele>
        <time>2025-05-29T14:12:47Z</time>
      </trkpt>
      <trkpt lat="44.50937" lon="1.36411">
        <ele>204</ele>
        <time>2025-05-29T14:12:48Z</time>
      </trkpt>
      <trkpt lat="44.50931" lon="1.36413">
        <ele>203.4</ele>
        <time>2025-05-29T14:12:49Z</time>
      </trkpt>
      <trkpt lat="44.50924" lon="1.36416">
        <ele>202.8</ele>
        <time>2025-05-29T14:12:50Z</time>
      </trkpt>
      <trkpt lat="44.50919" lon="1.36419">
        <ele>202.2</ele>
        <time>2025-05-29T14:12:51Z</time>
      </trkpt>
      <trkpt lat="44.50917" lon="1.36424">
        <ele>201.4</ele>
        <time>2025-05-29T14:12:52Z</time>
      </trkpt>
      <trkpt lat="44.50916" lon="1.36429">
        <ele>200.8</ele>
        <time>2025-05-29T14:12:53Z</time>
      </trkpt>
      <trkpt lat="44.50912" lon="1.36432">
        <ele>200.4</ele>
        <time>2025-05-29T14:12:54Z</time>
      </trkpt>
      <trkpt lat="44.50907" lon="1.36432">
        <ele>200.2</ele>
        <time>2025-05-29T14:12:55Z</time>
      </trkpt>
      <trkpt lat="44.50902" lon="1.36432">
        <ele>199.8</ele>
        <time>2025-05-29T14:12:56Z</time>
      </trkpt>
      <trkpt lat="44.50897" lon="1.36431">
        <ele>199.4</ele>
        <time>2025-05-29T14:12:57Z</time>
      </trkpt>
      <trkpt lat="44.50891" lon="1.36427">
        <ele>198.8</ele>
        <time>2025-05-29T14:12:58Z</time>
      </trkpt>
      <trkpt lat="44.50886" lon="1.36422">
        <ele>198.4</ele>
        <time>2025-05-29T14:12:59Z</time>
      </trkpt>
      <trkpt lat="44.50882" lon="1.36416">
        <ele>197.8</ele>
        <time>2025-05-29T14:13:00Z</time>
      </trkpt>
      <trkpt lat="44.50877" lon="1.36413">
        <ele>197.4</ele>
        <time>2025-05-29T14:13:01Z</time>
      </trkpt>
      <trkpt lat="44.50872" lon="1.3641">
        <ele>197</ele>
        <time>2025-05-29T14:13:02Z</time>
      </trkpt>
      <trkpt lat="44.50869" lon="1.36407">
        <ele>197</ele>
        <time>2025-05-29T14:13:03Z</time>
      </trkpt>
      <trkpt lat="44.50865" lon="1.36405">
        <ele>197</ele>
        <time>2025-05-29T14:13:04Z</time>
      </trkpt>
      <trkpt lat="44.50861" lon="1.36401">
        <ele>196.8</ele>
        <time>2025-05-29T14:13:05Z</time>
      </trkpt>
      <trkpt lat="44.5086" lon="1.36396">
        <ele>196.6</ele>
        <time>2025-05-29T14:13:06Z</time>
      </trkpt>
      <trkpt lat="44.50858" lon="1.36391">
        <ele>196.6</ele>
        <time>2025-05-29T14:13:07Z</time>
      </trkpt>
      <trkpt lat="44.50855" lon="1.3639">
        <ele>196.2</ele>
        <time>2025-05-29T14:13:08Z</time>
      </trkpt>
      <trkpt lat="44.5085" lon="1.36388">
        <ele>196.2</ele>
        <time>2025-05-29T14:13:09Z</time>
      </trkpt>
      <trkpt lat="44.50845" lon="1.36386">
        <ele>195.8</ele>
        <time>2025-05-29T14:13:10Z</time>
      </trkpt>
      <trkpt lat="44.5084" lon="1.36386">
        <ele>195.6</ele>
        <time>2025-05-29T14:13:11Z</time>
      </trkpt>
      <trkpt lat="44.50835" lon="1.36386">
        <ele>195</ele>
        <time>2025-05-29T14:13:12Z</time>
      </trkpt>
      <trkpt lat="44.5083" lon="1.36383">
        <ele>194.4</ele>
        <time>2025-05-29T14:13:13Z</time>
      </trkpt>
      <trkpt lat="44.50825" lon="1.36382">
        <ele>193.8</ele>
        <time>2025-05-29T14:13:14Z</time>
      </trkpt>
      <trkpt lat="44.50821" lon="1.36384">
        <ele>193</ele>
        <time>2025-05-29T14:13:15Z</time>
      </trkpt>
      <trkpt lat="44.50816" lon="1.36386">
        <ele>192.4</ele>
        <time>2025-05-29T14:13:16Z</time>
      </trkpt>
      <trkpt lat="44.50812" lon="1.36384">
        <ele>191.6</ele>
        <time>2025-05-29T14:13:17Z</time>
      </trkpt>
      <trkpt lat="44.50809" lon="1.36383">
        <ele>191.2</ele>
        <time>2025-05-29T14:13:18Z</time>
      </trkpt>
      <trkpt lat="44.50804" lon="1.36385">
        <ele>190.8</ele>
        <time>2025-05-29T14:13:19Z</time>
      </trkpt>
      <trkpt lat="44.508" lon="1.36385">
        <ele>190.4</ele>
        <time>2025-05-29T14:13:20Z</time>
      </trkpt>
      <trkpt lat="44.50795" lon="1.36384">
        <ele>189.8</ele>
        <time>2025-05-29T14:13:21Z</time>
      </trkpt>
      <trkpt lat="44.5079" lon="1.36382">
        <ele>189.2</ele>
        <time>2025-05-29T14:13:22Z</time>
      </trkpt>
      <trkpt lat="44.50785" lon="1.3638">
        <ele>188.4</ele>
        <time>2025-05-29T14:13:23Z</time>
      </trkpt>
      <trkpt lat="44.50781" lon="1.36377">
        <ele>187.6</ele>
        <time>2025-05-29T14:13:24Z</time>
      </trkpt>
      <trkpt lat="44.50777" lon="1.36375">
        <ele>187.2</ele>
        <time>2025-05-29T14:13:25Z</time>
      </trkpt>
      <trkpt lat="44.50772" lon="1.36375">
        <ele>186.8</ele>
        <time>2025-05-29T14:13:26Z</time>
      </trkpt>
      <trkpt lat="44.50768" lon="1.36373">
        <ele>186.6</ele>
        <time>2025-05-29T14:13:27Z</time>
      </trkpt>
      <trkpt lat="44.50763" lon="1.36372">
        <ele>186.2</ele>
        <time>2025-05-29T14:13:28Z</time>
      </trkpt>
      <trkpt lat="44.50759" lon="1.36371">
        <ele>186</ele>
        <time>2025-05-29T14:13:29Z</time>
      </trkpt>
      <trkpt lat="44.50755" lon="1.36371">
        <ele>185.8</ele>
        <time>2025-05-29T14:13:30Z</time>
      </trkpt>
      <trkpt lat="44.50751" lon="1.36371">
        <ele>185.2</ele>
        <time>2025-05-29T14:13:31Z</time>
      </trkpt>
      <trkpt lat="44.50746" lon="1.3637">
        <ele>184.8</ele>
        <time>2025-05-29T14:13:32Z</time>
      </trkpt>
      <trkpt lat="44.5074" lon="1.36371">
        <ele>184.4</ele>
        <time>2025-05-29T14:13:33Z</time>
      </trkpt>
      <trkpt lat="44.50734" lon="1.36371">
        <ele>183.8</ele>
        <time>2025-05-29T14:13:34Z</time>
      </trkpt>
      <trkpt lat="44.50728" lon="1.36373">
        <ele>183.4</ele>
        <time>2025-05-29T14:13:35Z</time>
      </trkpt>
      <trkpt lat="44.50723" lon="1.36373">
        <ele>183</ele>
        <time>2025-05-29T14:13:36Z</time>
      </trkpt>
      <trkpt lat="44.50718" lon="1.36371">
        <ele>182.4</ele>
        <time>2025-05-29T14:13:37Z</time>
      </trkpt>
      <trkpt lat="44.50713" lon="1.36369">
        <ele>182</ele>
        <time>2025-05-29T14:13:38Z</time>
      </trkpt>
      <trkpt lat="44.50709" lon="1.36367">
        <ele>181.4</ele>
        <time>2025-05-29T14:13:39Z</time>
      </trkpt>
      <trkpt lat="44.50704" lon="1.36365">
        <ele>180.8</ele>
        <time>2025-05-29T14:13:40Z</time>
      </trkpt>
      <trkpt lat="44.507" lon="1.36363">
        <ele>180.2</ele>
        <time>2025-05-29T14:13:41Z</time>
      </trkpt>
      <trkpt lat="44.50697" lon="1.36362">
        <ele>179.8</ele>
        <time>2025-05-29T14:13:42Z</time>
      </trkpt>
      <trkpt lat="44.50695" lon="1.36363">
        <ele>179.8</ele>
        <time>2025-05-29T14:13:43Z</time>
      </trkpt>
      <trkpt lat="44.50692" lon="1.36361">
        <ele>179.6</ele>
        <time>2025-05-29T14:13:44Z</time>
      </trkpt>
      <trkpt lat="44.50689" lon="1.36358">
        <ele>179.4</ele>
        <time>2025-05-29T14:13:45Z</time>
      </trkpt>
      <trkpt lat="44.50685" lon="1.36356">
        <ele>179</ele>
        <time>2025-05-29T14:13:46Z</time>
      </trkpt>
      <trkpt lat="44.50681" lon="1.36354">
        <ele>178.4</ele>
        <time>2025-05-29T14:13:47Z</time>
      </trkpt>
      <trkpt lat="44.50678" lon="1.3635">
        <ele>177.6</ele>
        <time>2025-05-29T14:13:48Z</time>
      </trkpt>
      <trkpt lat="44.50675" lon="1.36347">
        <ele>176.6</ele>
        <time>2025-05-29T14:13:49Z</time>
      </trkpt>
      <trkpt lat="44.50672" lon="1.36346">
        <ele>175.6</ele>
        <time>2025-05-29T14:13:50Z</time>
      </trkpt>
      <trkpt lat="44.50669" lon="1.36347">
        <ele>175</ele>
        <time>2025-05-29T14:13:51Z</time>
      </trkpt>
      <trkpt lat="44.50666" lon="1.36348">
        <ele>174.2</ele>
        <time>2025-05-29T14:13:52Z</time>
      </trkpt>
      <trkpt lat="44.50664" lon="1.36351">
        <ele>173.6</ele>
        <time>2025-05-29T14:13:53Z</time>
      </trkpt>
      <trkpt lat="44.50663" lon="1.36354">
        <ele>173</ele>
        <time>2025-05-29T14:13:54Z</time>
      </trkpt>
      <trkpt lat="44.50661" lon="1.36358">
        <ele>172.4</ele>
        <time>2025-05-29T14:13:55Z</time>
      </trkpt>
      <trkpt lat="44.50659" lon="1.36361">
        <ele>171.8</ele>
        <time>2025-05-29T14:13:56Z</time>
      </trkpt>
      <trkpt lat="44.50657" lon="1.36363">
        <ele>171.4</ele>
        <time>2025-05-29T14:13:57Z</time>
      </trkpt>
      <trkpt lat="44.50656" lon="1.36366">
        <ele>171</ele>
        <time>2025-05-29T14:13:58Z</time>
      </trkpt>
      <trkpt lat="44.50655" lon="1.3637">
        <ele>170.6</ele>
        <time>2025-05-29T14:13:59Z</time>
      </trkpt>
      <trkpt lat="44.50653" lon="1.36372">
        <ele>170</ele>
        <time>2025-05-29T14:14:00Z</time>
      </trkpt>
      <trkpt lat="44.50652" lon="1.36375">
        <ele>169.6</ele>
        <time>2025-05-29T14:14:01Z</time>
      </trkpt>
      <trkpt lat="44.5065" lon="1.36379">
        <ele>169</ele>
        <time>2025-05-29T14:14:02Z</time>
      </trkpt>
      <trkpt lat="44.50648" lon="1.36382">
        <ele>168.2</ele>
        <time>2025-05-29T14:14:03Z</time>
      </trkpt>
      <trkpt lat="44.50645" lon="1.36383">
        <ele>167.4</ele>
        <time>2025-05-29T14:14:04Z</time>
      </trkpt>
      <trkpt lat="44.50642" lon="1.36383">
        <ele>166.2</ele>
        <time>2025-05-29T14:14:05Z</time>
      </trkpt>
      <trkpt lat="44.50638" lon="1.36382">
        <ele>165.4</ele>
        <time>2025-05-29T14:14:06Z</time>
      </trkpt>
      <trkpt lat="44.50634" lon="1.36383">
        <ele>164.8</ele>
        <time>2025-05-29T14:14:07Z</time>
      </trkpt>
      <trkpt lat="44.5063" lon="1.36385">
        <ele>164</ele>
        <time>2025-05-29T14:14:08Z</time>
      </trkpt>
      <trkpt lat="44.50627" lon="1.36387">
        <ele>163.2</ele>
        <time>2025-05-29T14:14:09Z</time>
      </trkpt>
      <trkpt lat="44.50624" lon="1.36389">
        <ele>162.4</ele>
        <time>2025-05-29T14:14:10Z</time>
      </trkpt>
      <trkpt lat="44.50622" lon="1.36392">
        <ele>161.2</ele>
        <time>2025-05-29T14:14:11Z</time>
      </trkpt>
      <trkpt lat="44.50622" lon="1.36396">
        <ele>160.2</ele>
        <time>2025-05-29T14:14:12Z</time>
      </trkpt>
      <trkpt lat="44.50621" lon="1.36401">
        <ele>159.2</ele>
        <time>2025-05-29T14:14:13Z</time>
      </trkpt>
      <trkpt lat="44.5062" lon="1.36404">
        <ele>158.6</ele>
        <time>2025-05-29T14:14:14Z</time>
      </trkpt>
      <trkpt lat="44.50618" lon="1.36407">
        <ele>158.2</ele>
        <time>2025-05-29T14:14:15Z</time>
      </trkpt>
      <trkpt lat="44.50615" lon="1.36408">
        <ele>156.8</ele>
        <time>2025-05-29T14:14:16Z</time>
      </trkpt>
      <trkpt lat="44.50611" lon="1.36409">
        <ele>155.8</ele>
        <time>2025-05-29T14:14:17Z</time>
      </trkpt>
      <trkpt lat="44.50607" lon="1.36412">
        <ele>154.8</ele>
        <time>2025-05-29T14:14:18Z</time>
      </trkpt>
      <trkpt lat="44.50605" lon="1.36417">
        <ele>153.6</ele>
        <time>2025-05-29T14:14:19Z</time>
      </trkpt>
      <trkpt lat="44.50603" lon="1.36422">
        <ele>153.2</ele>
        <time>2025-05-29T14:14:20Z</time>
      </trkpt>
      <trkpt lat="44.50602" lon="1.36428">
        <ele>152</ele>
        <time>2025-05-29T14:14:21Z</time>
      </trkpt>
      <trkpt lat="44.506" lon="1.36432">
        <ele>151.2</ele>
        <time>2025-05-29T14:14:22Z</time>
      </trkpt>
      <trkpt lat="44.50598" lon="1.36436">
        <ele>150.4</ele>
        <time>2025-05-29T14:14:23Z</time>
      </trkpt>
      <trkpt lat="44.50597" lon="1.3644">
        <ele>149.8</ele>
        <time>2025-05-29T14:14:24Z</time>
      </trkpt>
      <trkpt lat="44.50597" lon="1.36445">
        <ele>149.4</ele>
        <time>2025-05-29T14:14:25Z</time>
      </trkpt>
      <trkpt lat="44.50595" lon="1.36449">
        <ele>149</ele>
        <time>2025-05-29T14:14:26Z</time>
      </trkpt>
      <trkpt lat="44.50594" lon="1.3645">
        <ele>148.8</ele>
        <time>2025-05-29T14:14:27Z</time>
      </trkpt>
      <trkpt lat="44.50592" lon="1.36452">
        <ele>148.6</ele>
        <time>2025-05-29T14:14:28Z</time>
      </trkpt>
      <trkpt lat="44.5059" lon="1.36452">
        <ele>148.8</ele>
        <time>2025-05-29T14:14:29Z</time>
      </trkpt>
      <trkpt lat="44.50587" lon="1.36452">
        <ele>148.8</ele>
        <time>2025-05-29T14:14:30Z</time>
      </trkpt>
      <trkpt lat="44.50583" lon="1.36452">
        <ele>148.6</ele>
        <time>2025-05-29T14:14:31Z</time>
      </trkpt>
      <trkpt lat="44.5058" lon="1.36452">
        <ele>148.6</ele>
        <time>2025-05-29T14:14:32Z</time>
      </trkpt>
      <trkpt lat="44.50576" lon="1.36451">
        <ele>148.2</ele>
        <time>2025-05-29T14:14:33Z</time>
      </trkpt>
      <trkpt lat="44.50571" lon="1.36451">
        <ele>148</ele>
        <time>2025-05-29T14:14:34Z</time>
      </trkpt>
      <trkpt lat="44.50567" lon="1.36451">
        <ele>147.6</ele>
        <time>2025-05-29T14:14:35Z</time>
      </trkpt>
      <trkpt lat="44.50563" lon="1.36449">
        <ele>147.2</ele>
        <time>2025-05-29T14:14:36Z</time>
      </trkpt>
      <trkpt lat="44.50558" lon="1.36448">
        <ele>146.8</ele>
        <time>2025-05-29T14:14:37Z</time>
      </trkpt>
      <trkpt lat="44.50552" lon="1.36447">
        <ele>146.4</ele>
        <time>2025-05-29T14:14:38Z</time>
      </trkpt>
      <trkpt lat="44.50546" lon="1.36446">
        <ele>145.8</ele>
        <time>2025-05-29T14:14:39Z</time>
      </trkpt>
      <trkpt lat="44.5054" lon="1.36444">
        <ele>145.4</ele>
        <time>2025-05-29T14:14:40Z</time>
      </trkpt>
      <trkpt lat="44.50534" lon="1.36442">
        <ele>144.8</ele>
        <time>2025-05-29T14:14:41Z</time>
      </trkpt>
      <trkpt lat="44.50528" lon="1.36439">
        <ele>144.6</ele>
        <time>2025-05-29T14:14:42Z</time>
      </trkpt>
      <trkpt lat="44.50521" lon="1.36437">
        <ele>144.2</ele>
        <time>2025-05-29T14:14:43Z</time>
      </trkpt>
      <trkpt lat="44.50515" lon="1.36434">
        <ele>143.8</ele>
        <time>2025-05-29T14:14:44Z</time>
      </trkpt>
      <trkpt lat="44.50508" lon="1.36431">
        <ele>143</ele>
        <time>2025-05-29T14:14:45Z</time>
      </trkpt>
      <trkpt lat="44.50502" lon="1.36428">
        <ele>142.4</ele>
        <time>2025-05-29T14:14:46Z</time>
      </trkpt>
      <trkpt lat="44.50496" lon="1.36426">
        <ele>142</ele>
        <time>2025-05-29T14:14:47Z</time>
      </trkpt>
      <trkpt lat="44.50489" lon="1.36423">
        <ele>141.4</ele>
        <time>2025-05-29T14:14:48Z</time>
      </trkpt>
      <trkpt lat="44.50483" lon="1.3642">
        <ele>141</ele>
        <time>2025-05-29T14:14:49Z</time>
      </trkpt>
      <trkpt lat="44.50477" lon="1.36417">
        <ele>140.8</ele>
        <time>2025-05-29T14:14:50Z</time>
      </trkpt>
      <trkpt lat="44.50472" lon="1.36412">
        <ele>140.4</ele>
        <time>2025-05-29T14:14:51Z</time>
      </trkpt>
      <trkpt lat="44.50469" lon="1.36405">
        <ele>140.2</ele>
        <time>2025-05-29T14:14:52Z</time>
      </trkpt>
      <trkpt lat="44.50466" lon="1.36399">
        <ele>139.8</ele>
        <time>2025-05-29T14:14:53Z</time>
      </trkpt>
      <trkpt lat="44.50462" lon="1.36395">
        <ele>139.6</ele>
        <time>2025-05-29T14:14:54Z</time>
      </trkpt>
      <trkpt lat="44.50458" lon="1.36392">
        <ele>139.4</ele>
        <time>2025-05-29T14:14:55Z</time>
      </trkpt>
      <trkpt lat="44.50453" lon="1.36392">
        <ele>139.2</ele>
        <time>2025-05-29T14:14:56Z</time>
      </trkpt>
      <trkpt lat="44.50449" lon="1.36394">
        <ele>139</ele>
        <time>2025-05-29T14:14:57Z</time>
      </trkpt>
      <trkpt lat="44.50445" lon="1.36398">
        <ele>138.8</ele>
        <time>2025-05-29T14:14:58Z</time>
      </trkpt>
      <trkpt lat="44.50441" lon="1.36403">
        <ele>138.8</ele>
        <time>2025-05-29T14:14:59Z</time>
      </trkpt>
      <trkpt lat="44.50438" lon="1.36407">
        <ele>138.6</ele>
        <time>2025-05-29T14:15:00Z</time>
      </trkpt>
      <trkpt lat="44.50436" lon="1.36413">
        <ele>138.4</ele>
        <time>2025-05-29T14:15:01Z</time>
      </trkpt>
      <trkpt lat="44.50433" lon="1.36418">
        <ele>138.4</ele>
        <time>2025-05-29T14:15:02Z</time>
      </trkpt>
      <trkpt lat="44.5043" lon="1.36423">
        <ele>138.4</ele>
        <time>2025-05-29T14:15:03Z</time>
      </trkpt>
      <trkpt lat="44.50428" lon="1.36428">
        <ele>138.2</ele>
        <time>2025-05-29T14:15:04Z</time>
      </trkpt>
      <trkpt lat="44.50425" lon="1.36433">
        <ele>138.2</ele>
        <time>2025-05-29T14:15:05Z</time>
      </trkpt>
      <trkpt lat="44.50422" lon="1.36438">
        <ele>138</ele>
        <time>2025-05-29T14:15:06Z</time>
      </trkpt>
      <trkpt lat="44.50419" lon="1.36443">
        <ele>138</ele>
        <time>2025-05-29T14:15:07Z</time>
      </trkpt>
      <trkpt lat="44.50417" lon="1.36448">
        <ele>138</ele>
        <time>2025-05-29T14:15:08Z</time>
      </trkpt>
      <trkpt lat="44.50414" lon="1.36454">
        <ele>138</ele>
        <time>2025-05-29T14:15:09Z</time>
      </trkpt>
      <trkpt lat="44.50412" lon="1.36459">
        <ele>138</ele>
        <time>2025-05-29T14:15:10Z</time>
      </trkpt>
      <trkpt lat="44.5041" lon="1.36463">
        <ele>138</ele>
        <time>2025-05-29T14:15:11Z</time>
      </trkpt>
      <trkpt lat="44.50408" lon="1.36469">
        <ele>138</ele>
        <time>2025-05-29T14:15:12Z</time>
      </trkpt>
      <trkpt lat="44.50406" lon="1.36474">
        <ele>138</ele>
        <time>2025-05-29T14:15:13Z</time>
      </trkpt>
      <trkpt lat="44.50404" lon="1.36479">
        <ele>138</ele>
        <time>2025-05-29T14:15:14Z</time>
      </trkpt>
      <trkpt lat="44.50401" lon="1.36484">
        <ele>137.8</ele>
        <time>2025-05-29T14:15:15Z</time>
      </trkpt>
      <trkpt lat="44.504" lon="1.36489">
        <ele>137.8</ele>
        <time>2025-05-29T14:15:16Z</time>
      </trkpt>
      <trkpt lat="44.50397" lon="1.36494">
        <ele>137.8</ele>
        <time>2025-05-29T14:15:17Z</time>
      </trkpt>
      <trkpt lat="44.50395" lon="1.36499">
        <ele>138</ele>
        <time>2025-05-29T14:15:18Z</time>
      </trkpt>
      <trkpt lat="44.50393" lon="1.36504">
        <ele>138</ele>
        <time>2025-05-29T14:15:19Z</time>
      </trkpt>
      <trkpt lat="44.50391" lon="1.36509">
        <ele>138.2</ele>
        <time>2025-05-29T14:15:20Z</time>
      </trkpt>
      <trkpt lat="44.50389" lon="1.36513">
        <ele>138.2</ele>
        <time>2025-05-29T14:15:21Z</time>
      </trkpt>
      <trkpt lat="44.50387" lon="1.36518">
        <ele>138.4</ele>
        <time>2025-05-29T14:15:22Z</time>
      </trkpt>
      <trkpt lat="44.50386" lon="1.36523">
        <ele>138.4</ele>
        <time>2025-05-29T14:15:23Z</time>
      </trkpt>
      <trkpt lat="44.50385" lon="1.36527">
        <ele>138.6</ele>
        <time>2025-05-29T14:15:24Z</time>
      </trkpt>
      <trkpt lat="44.50384" lon="1.36531">
        <ele>138.8</ele>
        <time>2025-05-29T14:15:25Z</time>
      </trkpt>
      <trkpt lat="44.50383" lon="1.36537">
        <ele>139</ele>
        <time>2025-05-29T14:15:26Z</time>
      </trkpt>
      <trkpt lat="44.50381" lon="1.36542">
        <ele>139.2</ele>
        <time>2025-05-29T14:15:27Z</time>
      </trkpt>
      <trkpt lat="44.5038" lon="1.36546">
        <ele>139.6</ele>
        <time>2025-05-29T14:15:28Z</time>
      </trkpt>
      <trkpt lat="44.50379" lon="1.36553">
        <ele>139.8</ele>
        <time>2025-05-29T14:15:29Z</time>
      </trkpt>
      <trkpt lat="44.50378" lon="1.3656">
        <ele>140</ele>
        <time>2025-05-29T14:15:30Z</time>
      </trkpt>
      <trkpt lat="44.50376" lon="1.36566">
        <ele>140</ele>
        <time>2025-05-29T14:15:31Z</time>
      </trkpt>
      <trkpt lat="44.50375" lon="1.36573">
        <ele>140</ele>
        <time>2025-05-29T14:15:32Z</time>
      </trkpt>
      <trkpt lat="44.50374" lon="1.36579">
        <ele>140</ele>
        <time>2025-05-29T14:15:33Z</time>
      </trkpt>
      <trkpt lat="44.50372" lon="1.36587">
        <ele>140</ele>
        <time>2025-05-29T14:15:34Z</time>
      </trkpt>
      <trkpt lat="44.50371" lon="1.36595">
        <ele>140</ele>
        <time>2025-05-29T14:15:35Z</time>
      </trkpt>
      <trkpt lat="44.50369" lon="1.36603">
        <ele>139.8</ele>
        <time>2025-05-29T14:15:36Z</time>
      </trkpt>
      <trkpt lat="44.50367" lon="1.36611">
        <ele>139.6</ele>
        <time>2025-05-29T14:15:37Z</time>
      </trkpt>
      <trkpt lat="44.50365" lon="1.36619">
        <ele>139.4</ele>
        <time>2025-05-29T14:15:38Z</time>
      </trkpt>
      <trkpt lat="44.50362" lon="1.36627">
        <ele>139</ele>
        <time>2025-05-29T14:15:39Z</time>
      </trkpt>
      <trkpt lat="44.5036" lon="1.36635">
        <ele>138.6</ele>
        <time>2025-05-29T14:15:40Z</time>
      </trkpt>
      <trkpt lat="44.50357" lon="1.36643">
        <ele>138.2</ele>
        <time>2025-05-29T14:15:41Z</time>
      </trkpt>
      <trkpt lat="44.50355" lon="1.3665">
        <ele>138</ele>
        <time>2025-05-29T14:15:42Z</time>
      </trkpt>
      <trkpt lat="44.50353" lon="1.36657">
        <ele>137.8</ele>
        <time>2025-05-29T14:15:43Z</time>
      </trkpt>
      <trkpt lat="44.50351" lon="1.36663">
        <ele>137.8</ele>
        <time>2025-05-29T14:15:44Z</time>
      </trkpt>
      <trkpt lat="44.5035" lon="1.36669">
        <ele>137.8</ele>
        <time>2025-05-29T14:15:45Z</time>
      </trkpt>
      <trkpt lat="44.50348" lon="1.36675">
        <ele>137.8</ele>
        <time>2025-05-29T14:15:46Z</time>
      </trkpt>
      <trkpt lat="44.50346" lon="1.36681">
        <ele>138</ele>
        <time>2025-05-29T14:15:47Z</time>
      </trkpt>
      <trkpt lat="44.50345" lon="1.36687">
        <ele>138</ele>
        <time>2025-05-29T14:15:48Z</time>
      </trkpt>
      <trkpt lat="44.50344" lon="1.36692">
        <ele>138.2</ele>
        <time>2025-05-29T14:15:49Z</time>
      </trkpt>
      <trkpt lat="44.50342" lon="1.36698">
        <ele>138.4</ele>
        <time>2025-05-29T14:15:50Z</time>
      </trkpt>
      <trkpt lat="44.5034" lon="1.36702">
        <ele>138.4</ele>
        <time>2025-05-29T14:15:51Z</time>
      </trkpt>
      <trkpt lat="44.50337" lon="1.36705">
        <ele>138.8</ele>
        <time>2025-05-29T14:15:52Z</time>
      </trkpt>
      <trkpt lat="44.50334" lon="1.36707">
        <ele>138.8</ele>
        <time>2025-05-29T14:15:53Z</time>
      </trkpt>
      <trkpt lat="44.5033" lon="1.36707">
        <ele>138.8</ele>
        <time>2025-05-29T14:15:54Z</time>
      </trkpt>
      <trkpt lat="44.50327" lon="1.36704">
        <ele>138.8</ele>
        <time>2025-05-29T14:15:55Z</time>
      </trkpt>
      <trkpt lat="44.50324" lon="1.36699">
        <ele>138.8</ele>
        <time>2025-05-29T14:15:56Z</time>
      </trkpt>
      <trkpt lat="44.5032" lon="1.36694">
        <ele>138.6</ele>
        <time>2025-05-29T14:15:57Z</time>
      </trkpt>
      <trkpt lat="44.50316" lon="1.36689">
        <ele>138</ele>
        <time>2025-05-29T14:15:58Z</time>
      </trkpt>
      <trkpt lat="44.50312" lon="1.36683">
        <ele>137.6</ele>
        <time>2025-05-29T14:15:59Z</time>
      </trkpt>
      <trkpt lat="44.50308" lon="1.36676">
        <ele>137.2</ele>
        <time>2025-05-29T14:16:00Z</time>
      </trkpt>
      <trkpt lat="44.50303" lon="1.3667">
        <ele>136.6</ele>
        <time>2025-05-29T14:16:01Z</time>
      </trkpt>
      <trkpt lat="44.50298" lon="1.36663">
        <ele>136.2</ele>
        <time>2025-05-29T14:16:02Z</time>
      </trkpt>
      <trkpt lat="44.50294" lon="1.36656">
        <ele>135.6</ele>
        <time>2025-05-29T14:16:03Z</time>
      </trkpt>
      <trkpt lat="44.50289" lon="1.36649">
        <ele>135.2</ele>
        <time>2025-05-29T14:16:04Z</time>
      </trkpt>
      <trkpt lat="44.50284" lon="1.36642">
        <ele>134.8</ele>
        <time>2025-05-29T14:16:05Z</time>
      </trkpt>
      <trkpt lat="44.50279" lon="1.36635">
        <ele>134.4</ele>
        <time>2025-05-29T14:16:06Z</time>
      </trkpt>
      <trkpt lat="44.50275" lon="1.36628">
        <ele>134.2</ele>
        <time>2025-05-29T14:16:07Z</time>
      </trkpt>
      <trkpt lat="44.5027" lon="1.36622">
        <ele>133.8</ele>
        <time>2025-05-29T14:16:08Z</time>
      </trkpt>
      <trkpt lat="44.50265" lon="1.36615">
        <ele>133.8</ele>
        <time>2025-05-29T14:16:09Z</time>
      </trkpt>
      <trkpt lat="44.5026" lon="1.36609">
        <ele>133.6</ele>
        <time>2025-05-29T14:16:10Z</time>
      </trkpt>
      <trkpt lat="44.50256" lon="1.36603">
        <ele>133.6</ele>
        <time>2025-05-29T14:16:11Z</time>
      </trkpt>
      <trkpt lat="44.50251" lon="1.36596">
        <ele>133.6</ele>
        <time>2025-05-29T14:16:12Z</time>
      </trkpt>
      <trkpt lat="44.50246" lon="1.36591">
        <ele>133.6</ele>
        <time>2025-05-29T14:16:13Z</time>
      </trkpt>
      <trkpt lat="44.50242" lon="1.36585">
        <ele>133.6</ele>
        <time>2025-05-29T14:16:14Z</time>
      </trkpt>
      <trkpt lat="44.50237" lon="1.3658">
        <ele>133.6</ele>
        <time>2025-05-29T14:16:15Z</time>
      </trkpt>
      <trkpt lat="44.50233" lon="1.36575">
        <ele>133.4</ele>
        <time>2025-05-29T14:16:16Z</time>
      </trkpt>
      <trkpt lat="44.50228" lon="1.36571">
        <ele>133.2</ele>
        <time>2025-05-29T14:16:17Z</time>
      </trkpt>
      <trkpt lat="44.50224" lon="1.36566">
        <ele>133</ele>
        <time>2025-05-29T14:16:18Z</time>
      </trkpt>
      <trkpt lat="44.5022" lon="1.36561">
        <ele>133</ele>
        <time>2025-05-29T14:16:19Z</time>
      </trkpt>
      <trkpt lat="44.50216" lon="1.36557">
        <ele>133.2</ele>
        <time>2025-05-29T14:16:20Z</time>
      </trkpt>
      <trkpt lat="44.50212" lon="1.36552">
        <ele>133.2</ele>
        <time>2025-05-29T14:16:21Z</time>
      </trkpt>
      <trkpt lat="44.50209" lon="1.36548">
        <ele>133.4</ele>
        <time>2025-05-29T14:16:22Z</time>
      </trkpt>
      <trkpt lat="44.50205" lon="1.36544">
        <ele>133.6</ele>
        <time>2025-05-29T14:16:23Z</time>
      </trkpt>
      <trkpt lat="44.50202" lon="1.3654">
        <ele>133.8</ele>
        <time>2025-05-29T14:16:24Z</time>
      </trkpt>
      <trkpt lat="44.50198" lon="1.36536">
        <ele>134.2</ele>
        <time>2025-05-29T14:16:25Z</time>
      </trkpt>
      <trkpt lat="44.50195" lon="1.36532">
        <ele>134.4</ele>
        <time>2025-05-29T14:16:26Z</time>
      </trkpt>
      <trkpt lat="44.50191" lon="1.36528">
        <ele>134.8</ele>
        <time>2025-05-29T14:16:27Z</time>
      </trkpt>
      <trkpt lat="44.50188" lon="1.36525">
        <ele>135</ele>
        <time>2025-05-29T14:16:28Z</time>
      </trkpt>
      <trkpt lat="44.50185" lon="1.36521">
        <ele>135.4</ele>
        <time>2025-05-29T14:16:29Z</time>
      </trkpt>
      <trkpt lat="44.50182" lon="1.36517">
        <ele>135.8</ele>
        <time>2025-05-29T14:16:30Z</time>
      </trkpt>
      <trkpt lat="44.50179" lon="1.36514">
        <ele>136</ele>
        <time>2025-05-29T14:16:31Z</time>
      </trkpt>
      <trkpt lat="44.50176" lon="1.3651">
        <ele>136.4</ele>
        <time>2025-05-29T14:16:32Z</time>
      </trkpt>
      <trkpt lat="44.50173" lon="1.36506">
        <ele>136.6</ele>
        <time>2025-05-29T14:16:33Z</time>
      </trkpt>
      <trkpt lat="44.50171" lon="1.36503">
        <ele>136.8</ele>
        <time>2025-05-29T14:16:34Z</time>
      </trkpt>
      <trkpt lat="44.50168" lon="1.365">
        <ele>137.2</ele>
        <time>2025-05-29T14:16:35Z</time>
      </trkpt>
      <trkpt lat="44.50166" lon="1.36497">
        <ele>137.4</ele>
        <time>2025-05-29T14:16:36Z</time>
      </trkpt>
      <trkpt lat="44.50163" lon="1.36494">
        <ele>137.6</ele>
        <time>2025-05-29T14:16:37Z</time>
      </trkpt>
      <trkpt lat="44.5016" lon="1.36491">
        <ele>137.8</ele>
        <time>2025-05-29T14:16:38Z</time>
      </trkpt>
      <trkpt lat="44.50157" lon="1.3649">
        <ele>138</ele>
        <time>2025-05-29T14:16:39Z</time>
      </trkpt>
      <trkpt lat="44.50153" lon="1.36489">
        <ele>138</ele>
        <time>2025-05-29T14:16:40Z</time>
      </trkpt>
      <trkpt lat="44.50148" lon="1.36491">
        <ele>138</ele>
        <time>2025-05-29T14:16:41Z</time>
      </trkpt>
      <trkpt lat="44.50144" lon="1.36494">
        <ele>138</ele>
        <time>2025-05-29T14:16:42Z</time>
      </trkpt>
      <trkpt lat="44.50141" lon="1.36498">
        <ele>138</ele>
        <time>2025-05-29T14:16:43Z</time>
      </trkpt>
      <trkpt lat="44.50139" lon="1.36503">
        <ele>137.8</ele>
        <time>2025-05-29T14:16:44Z</time>
      </trkpt>
      <trkpt lat="44.50136" lon="1.36509">
        <ele>137.8</ele>
        <time>2025-05-29T14:16:45Z</time>
      </trkpt>
      <trkpt lat="44.50134" lon="1.36515">
        <ele>137.6</ele>
        <time>2025-05-29T14:16:46Z</time>
      </trkpt>
      <trkpt lat="44.50131" lon="1.3652">
        <ele>137.6</ele>
        <time>2025-05-29T14:16:47Z</time>
      </trkpt>
      <trkpt lat="44.50129" lon="1.36526">
        <ele>137.6</ele>
        <time>2025-05-29T14:16:48Z</time>
      </trkpt>
      <trkpt lat="44.50126" lon="1.36532">
        <ele>137.6</ele>
        <time>2025-05-29T14:16:49Z</time>
      </trkpt>
      <trkpt lat="44.50123" lon="1.36537">
        <ele>137.6</ele>
        <time>2025-05-29T14:16:50Z</time>
      </trkpt>
      <trkpt lat="44.5012" lon="1.36544">
        <ele>137.4</ele>
        <time>2025-05-29T14:16:51Z</time>
      </trkpt>
      <trkpt lat="44.50117" lon="1.3655">
        <ele>137.2</ele>
        <time>2025-05-29T14:16:52Z</time>
      </trkpt>
      <trkpt lat="44.50114" lon="1.36557">
        <ele>137.2</ele>
        <time>2025-05-29T14:16:53Z</time>
      </trkpt>
      <trkpt lat="44.50111" lon="1.36564">
        <ele>137</ele>
        <time>2025-05-29T14:16:54Z</time>
      </trkpt>
      <trkpt lat="44.50108" lon="1.36571">
        <ele>136.8</ele>
        <time>2025-05-29T14:16:55Z</time>
      </trkpt>
      <trkpt lat="44.50105" lon="1.36577">
        <ele>136.6</ele>
        <time>2025-05-29T14:16:56Z</time>
      </trkpt>
      <trkpt lat="44.50103" lon="1.36585">
        <ele>136.4</ele>
        <time>2025-05-29T14:16:57Z</time>
      </trkpt>
      <trkpt lat="44.501" lon="1.36592">
        <ele>136.2</ele>
        <time>2025-05-29T14:16:58Z</time>
      </trkpt>
      <trkpt lat="44.50098" lon="1.36601">
        <ele>136</ele>
        <time>2025-05-29T14:16:59Z</time>
      </trkpt>
      <trkpt lat="44.50096" lon="1.36609">
        <ele>135.8</ele>
        <time>2025-05-29T14:17:00Z</time>
      </trkpt>
      <trkpt lat="44.50094" lon="1.36617">
        <ele>135.4</ele>
        <time>2025-05-29T14:17:01Z</time>
      </trkpt>
      <trkpt lat="44.50092" lon="1.36626">
        <ele>135</ele>
        <time>2025-05-29T14:17:02Z</time>
      </trkpt>
      <trkpt lat="44.5009" lon="1.36635">
        <ele>134.8</ele>
        <time>2025-05-29T14:17:03Z</time>
      </trkpt>
      <trkpt lat="44.50089" lon="1.36643">
        <ele>134.6</ele>
        <time>2025-05-29T14:17:04Z</time>
      </trkpt>
      <trkpt lat="44.50087" lon="1.36653">
        <ele>134.2</ele>
        <time>2025-05-29T14:17:05Z</time>
      </trkpt>
      <trkpt lat="44.50086" lon="1.36662">
        <ele>133.6</ele>
        <time>2025-05-29T14:17:06Z</time>
      </trkpt>
      <trkpt lat="44.50085" lon="1.36671">
        <ele>133.4</ele>
        <time>2025-05-29T14:17:07Z</time>
      </trkpt>
      <trkpt lat="44.50084" lon="1.36681">
        <ele>133.2</ele>
        <time>2025-05-29T14:17:08Z</time>
      </trkpt>
      <trkpt lat="44.50083" lon="1.36691">
        <ele>132.8</ele>
        <time>2025-05-29T14:17:09Z</time>
      </trkpt>
      <trkpt lat="44.50082" lon="1.367">
        <ele>132.6</ele>
        <time>2025-05-29T14:17:10Z</time>
      </trkpt>
      <trkpt lat="44.50081" lon="1.3671">
        <ele>132.4</ele>
        <time>2025-05-29T14:17:11Z</time>
      </trkpt>
      <trkpt lat="44.50079" lon="1.3672">
        <ele>132</ele>
        <time>2025-05-29T14:17:12Z</time>
      </trkpt>
      <trkpt lat="44.50076" lon="1.3673">
        <ele>131.6</ele>
        <time>2025-05-29T14:17:13Z</time>
      </trkpt>
      <trkpt lat="44.50074" lon="1.3674">
        <ele>131.4</ele>
        <time>2025-05-29T14:17:14Z</time>
      </trkpt>
      <trkpt lat="44.50071" lon="1.36751">
        <ele>131.2</ele>
        <time>2025-05-29T14:17:15Z</time>
      </trkpt>
      <trkpt lat="44.50069" lon="1.36761">
        <ele>131</ele>
        <time>2025-05-29T14:17:16Z</time>
      </trkpt>
      <trkpt lat="44.50066" lon="1.36771">
        <ele>130.6</ele>
        <time>2025-05-29T14:17:17Z</time>
      </trkpt>
      <trkpt lat="44.50063" lon="1.36782">
        <ele>130.2</ele>
        <time>2025-05-29T14:17:18Z</time>
      </trkpt>
      <trkpt lat="44.50061" lon="1.36792">
        <ele>130</ele>
        <time>2025-05-29T14:17:19Z</time>
      </trkpt>
      <trkpt lat="44.50059" lon="1.36802">
        <ele>129.8</ele>
        <time>2025-05-29T14:17:20Z</time>
      </trkpt>
      <trkpt lat="44.50057" lon="1.36812">
        <ele>129.2</ele>
        <time>2025-05-29T14:17:21Z</time>
      </trkpt>
      <trkpt lat="44.50055" lon="1.36822">
        <ele>129.2</ele>
        <time>2025-05-29T14:17:22Z</time>
      </trkpt>
      <trkpt lat="44.50054" lon="1.36832">
        <ele>129</ele>
        <time>2025-05-29T14:17:23Z</time>
      </trkpt>
      <trkpt lat="44.50051" lon="1.36841">
        <ele>129</ele>
        <time>2025-05-29T14:17:24Z</time>
      </trkpt>
      <trkpt lat="44.50048" lon="1.36849">
        <ele>129</ele>
        <time>2025-05-29T14:17:25Z</time>
      </trkpt>
      <trkpt lat="44.50044" lon="1.36856">
        <ele>129.2</ele>
        <time>2025-05-29T14:17:26Z</time>
      </trkpt>
      <trkpt lat="44.5004" lon="1.36863">
        <ele>129.2</ele>
        <time>2025-05-29T14:17:27Z</time>
      </trkpt>
      <trkpt lat="44.50036" lon="1.36868">
        <ele>129</ele>
        <time>2025-05-29T14:17:28Z</time>
      </trkpt>
      <trkpt lat="44.50031" lon="1.36872">
        <ele>129.2</ele>
        <time>2025-05-29T14:17:29Z</time>
      </trkpt>
      <trkpt lat="44.50027" lon="1.36877">
        <ele>129.2</ele>
        <time>2025-05-29T14:17:30Z</time>
      </trkpt>
      <trkpt lat="44.50023" lon="1.36883">
        <ele>129.4</ele>
        <time>2025-05-29T14:17:31Z</time>
      </trkpt>
      <trkpt lat="44.50019" lon="1.36888">
        <ele>129.6</ele>
        <time>2025-05-29T14:17:32Z</time>
      </trkpt>
      <trkpt lat="44.50015" lon="1.36894">
        <ele>129.8</ele>
        <time>2025-05-29T14:17:33Z</time>
      </trkpt>
      <trkpt lat="44.50011" lon="1.36899">
        <ele>130</ele>
        <time>2025-05-29T14:17:34Z</time>
      </trkpt>
      <trkpt lat="44.50007" lon="1.36905">
        <ele>130.2</ele>
        <time>2025-05-29T14:17:35Z</time>
      </trkpt>
      <trkpt lat="44.50003" lon="1.36911">
        <ele>130.4</ele>
        <time>2025-05-29T14:17:36Z</time>
      </trkpt>
      <trkpt lat="44.49999" lon="1.36917">
        <ele>130.4</ele>
        <time>2025-05-29T14:17:37Z</time>
      </trkpt>
      <trkpt lat="44.49994" lon="1.36922">
        <ele>130.4</ele>
        <time>2025-05-29T14:17:38Z</time>
      </trkpt>
      <trkpt lat="44.4999" lon="1.36928">
        <ele>130.4</ele>
        <time>2025-05-29T14:17:39Z</time>
      </trkpt>
      <trkpt lat="44.49985" lon="1.36934">
        <ele>130.2</ele>
        <time>2025-05-29T14:17:40Z</time>
      </trkpt>
      <trkpt lat="44.4998" lon="1.36941">
        <ele>130</ele>
        <time>2025-05-29T14:17:41Z</time>
      </trkpt>
      <trkpt lat="44.49976" lon="1.36947">
        <ele>130</ele>
        <time>2025-05-29T14:17:42Z</time>
      </trkpt>
      <trkpt lat="44.49972" lon="1.36953">
        <ele>129.8</ele>
        <time>2025-05-29T14:17:43Z</time>
      </trkpt>
      <trkpt lat="44.49968" lon="1.36959">
        <ele>129.8</ele>
        <time>2025-05-29T14:17:44Z</time>
      </trkpt>
      <trkpt lat="44.49963" lon="1.36964">
        <ele>129.6</ele>
        <time>2025-05-29T14:17:45Z</time>
      </trkpt>
      <trkpt lat="44.49958" lon="1.36969">
        <ele>129.6</ele>
        <time>2025-05-29T14:17:46Z</time>
      </trkpt>
      <trkpt lat="44.49952" lon="1.36973">
        <ele>129.4</ele>
        <time>2025-05-29T14:17:47Z</time>
      </trkpt>
      <trkpt lat="44.49946" lon="1.36977">
        <ele>129.2</ele>
        <time>2025-05-29T14:17:48Z</time>
      </trkpt>
      <trkpt lat="44.49941" lon="1.3698">
        <ele>128.8</ele>
        <time>2025-05-29T14:17:49Z</time>
      </trkpt>
      <trkpt lat="44.49936" lon="1.36983">
        <ele>128.6</ele>
        <time>2025-05-29T14:17:50Z</time>
      </trkpt>
      <trkpt lat="44.49932" lon="1.36986">
        <ele>128.2</ele>
        <time>2025-05-29T14:17:51Z</time>
      </trkpt>
      <trkpt lat="44.4993" lon="1.36989">
        <ele>128</ele>
        <time>2025-05-29T14:17:52Z</time>
      </trkpt>
      <trkpt lat="44.49928" lon="1.36991">
        <ele>128</ele>
        <time>2025-05-29T14:17:53Z</time>
      </trkpt>
      <trkpt lat="44.49926" lon="1.36994">
        <ele>128</ele>
        <time>2025-05-29T14:17:54Z</time>
      </trkpt>
      <trkpt lat="44.49925" lon="1.36999">
        <ele>127.8</ele>
        <time>2025-05-29T14:17:55Z</time>
      </trkpt>
      <trkpt lat="44.49926" lon="1.37003">
        <ele>127.8</ele>
        <time>2025-05-29T14:17:56Z</time>
      </trkpt>
      <trkpt lat="44.49927" lon="1.37007">
        <ele>127.8</ele>
        <time>2025-05-29T14:17:57Z</time>
      </trkpt>
      <trkpt lat="44.4993" lon="1.37011">
        <ele>127.6</ele>
        <time>2025-05-29T14:17:58Z</time>
      </trkpt>
      <trkpt lat="44.49933" lon="1.37016">
        <ele>127.6</ele>
        <time>2025-05-29T14:17:59Z</time>
      </trkpt>
      <trkpt lat="44.49935" lon="1.3702">
        <ele>127.4</ele>
        <time>2025-05-29T14:18:00Z</time>
      </trkpt>
      <trkpt lat="44.49937" lon="1.37026">
        <ele>127.4</ele>
        <time>2025-05-29T14:18:01Z</time>
      </trkpt>
      <trkpt lat="44.49939" lon="1.37031">
        <ele>127.4</ele>
        <time>2025-05-29T14:18:02Z</time>
      </trkpt>
      <trkpt lat="44.49941" lon="1.37037">
        <ele>127.4</ele>
        <time>2025-05-29T14:18:03Z</time>
      </trkpt>
      <trkpt lat="44.49942" lon="1.37043">
        <ele>127.4</ele>
        <time>2025-05-29T14:18:04Z</time>
      </trkpt>
      <trkpt lat="44.49943" lon="1.3705">
        <ele>127.4</ele>
        <time>2025-05-29T14:18:05Z</time>
      </trkpt>
      <trkpt lat="44.49943" lon="1.37056">
        <ele>127.2</ele>
        <time>2025-05-29T14:18:06Z</time>
      </trkpt>
      <trkpt lat="44.49944" lon="1.37063">
        <ele>127</ele>
        <time>2025-05-29T14:18:07Z</time>
      </trkpt>
      <trkpt lat="44.49944" lon="1.37069">
        <ele>126.8</ele>
        <time>2025-05-29T14:18:08Z</time>
      </trkpt>
      <trkpt lat="44.49944" lon="1.37076">
        <ele>126.8</ele>
        <time>2025-05-29T14:18:09Z</time>
      </trkpt>
      <trkpt lat="44.49944" lon="1.37082">
        <ele>126.6</ele>
        <time>2025-05-29T14:18:10Z</time>
      </trkpt>
      <trkpt lat="44.49943" lon="1.37088">
        <ele>126.4</ele>
        <time>2025-05-29T14:18:11Z</time>
      </trkpt>
      <trkpt lat="44.49942" lon="1.37093">
        <ele>126.4</ele>
        <time>2025-05-29T14:18:12Z</time>
      </trkpt>
      <trkpt lat="44.4994" lon="1.37099">
        <ele>126.4</ele>
        <time>2025-05-29T14:18:13Z</time>
      </trkpt>
      <trkpt lat="44.49938" lon="1.37105">
        <ele>126.4</ele>
        <time>2025-05-29T14:18:14Z</time>
      </trkpt>
      <trkpt lat="44.49936" lon="1.37111">
        <ele>126.4</ele>
        <time>2025-05-29T14:18:15Z</time>
      </trkpt>
      <trkpt lat="44.49934" lon="1.37117">
        <ele>126.4</ele>
        <time>2025-05-29T14:18:16Z</time>
      </trkpt>
      <trkpt lat="44.49931" lon="1.37123">
        <ele>126.4</ele>
        <time>2025-05-29T14:18:17Z</time>
      </trkpt>
      <trkpt lat="44.49928" lon="1.37129">
        <ele>126.4</ele>
        <time>2025-05-29T14:18:18Z</time>
      </trkpt>
      <trkpt lat="44.49925" lon="1.37136">
        <ele>126.4</ele>
        <time>2025-05-29T14:18:19Z</time>
      </trkpt>
      <trkpt lat="44.49922" lon="1.37142">
        <ele>126.4</ele>
        <time>2025-05-29T14:18:20Z</time>
      </trkpt>
      <trkpt lat="44.4992" lon="1.37148">
        <ele>126.4</ele>
        <time>2025-05-29T14:18:21Z</time>
      </trkpt>
      <trkpt lat="44.49917" lon="1.37154">
        <ele>126.4</ele>
        <time>2025-05-29T14:18:22Z</time>
      </trkpt>
      <trkpt lat="44.49914" lon="1.37161">
        <ele>126.4</ele>
        <time>2025-05-29T14:18:23Z</time>
      </trkpt>
      <trkpt lat="44.49912" lon="1.37166">
        <ele>126.4</ele>
        <time>2025-05-29T14:18:24Z</time>
      </trkpt>
      <trkpt lat="44.49909" lon="1.37172">
        <ele>126.4</ele>
        <time>2025-05-29T14:18:25Z</time>
      </trkpt>
      <trkpt lat="44.49906" lon="1.37178">
        <ele>126.4</ele>
        <time>2025-05-29T14:18:26Z</time>
      </trkpt>
      <trkpt lat="44.49904" lon="1.37184">
        <ele>126.4</ele>
        <time>2025-05-29T14:18:27Z</time>
      </trkpt>
      <trkpt lat="44.49901" lon="1.3719">
        <ele>126.4</ele>
        <time>2025-05-29T14:18:28Z</time>
      </trkpt>
      <trkpt lat="44.49898" lon="1.37196">
        <ele>126.4</ele>
        <time>2025-05-29T14:18:29Z</time>
      </trkpt>
      <trkpt lat="44.49896" lon="1.37202">
        <ele>126.4</ele>
        <time>2025-05-29T14:18:30Z</time>
      </trkpt>
      <trkpt lat="44.49893" lon="1.37209">
        <ele>126.4</ele>
        <time>2025-05-29T14:18:31Z</time>
      </trkpt>
      <trkpt lat="44.4989" lon="1.37215">
        <ele>126.6</ele>
        <time>2025-05-29T14:18:32Z</time>
      </trkpt>
      <trkpt lat="44.49887" lon="1.37221">
        <ele>126.6</ele>
        <time>2025-05-29T14:18:33Z</time>
      </trkpt>
      <trkpt lat="44.49885" lon="1.37227">
        <ele>126.6</ele>
        <time>2025-05-29T14:18:34Z</time>
      </trkpt>
      <trkpt lat="44.49882" lon="1.37233">
        <ele>126.6</ele>
        <time>2025-05-29T14:18:35Z</time>
      </trkpt>
      <trkpt lat="44.49879" lon="1.37239">
        <ele>126.6</ele>
        <time>2025-05-29T14:18:36Z</time>
      </trkpt>
      <trkpt lat="44.49876" lon="1.37245">
        <ele>126.6</ele>
        <time>2025-05-29T14:18:37Z</time>
      </trkpt>
      <trkpt lat="44.49873" lon="1.37251">
        <ele>126.6</ele>
        <time>2025-05-29T14:18:38Z</time>
      </trkpt>
      <trkpt lat="44.4987" lon="1.37256">
        <ele>126.6</ele>
        <time>2025-05-29T14:18:39Z</time>
      </trkpt>
      <trkpt lat="44.49868" lon="1.37262">
        <ele>126.6</ele>
        <time>2025-05-29T14:18:40Z</time>
      </trkpt>
      <trkpt lat="44.49865" lon="1.37268">
        <ele>126.8</ele>
        <time>2025-05-29T14:18:41Z</time>
      </trkpt>
      <trkpt lat="44.49862" lon="1.37275">
        <ele>126.6</ele>
        <time>2025-05-29T14:18:42Z</time>
      </trkpt>
      <trkpt lat="44.49859" lon="1.37281">
        <ele>126.6</ele>
        <time>2025-05-29T14:18:43Z</time>
      </trkpt>
      <trkpt lat="44.49856" lon="1.37287">
        <ele>126.6</ele>
        <time>2025-05-29T14:18:44Z</time>
      </trkpt>
      <trkpt lat="44.49854" lon="1.37293">
        <ele>126.8</ele>
        <time>2025-05-29T14:18:45Z</time>
      </trkpt>
      <trkpt lat="44.49852" lon="1.37299">
        <ele>126.8</ele>
        <time>2025-05-29T14:18:46Z</time>
      </trkpt>
      <trkpt lat="44.4985" lon="1.37305">
        <ele>127</ele>
        <time>2025-05-29T14:18:47Z</time>
      </trkpt>
      <trkpt lat="44.49848" lon="1.37311">
        <ele>127.2</ele>
        <time>2025-05-29T14:18:48Z</time>
      </trkpt>
      <trkpt lat="44.49847" lon="1.37317">
        <ele>127.4</ele>
        <time>2025-05-29T14:18:49Z</time>
      </trkpt>
      <trkpt lat="44.49845" lon="1.37322">
        <ele>127.6</ele>
        <time>2025-05-29T14:18:50Z</time>
      </trkpt>
      <trkpt lat="44.49844" lon="1.37328">
        <ele>128</ele>
        <time>2025-05-29T14:18:51Z</time>
      </trkpt>
      <trkpt lat="44.49844" lon="1.37333">
        <ele>128.4</ele>
        <time>2025-05-29T14:18:52Z</time>
      </trkpt>
      <trkpt lat="44.49844" lon="1.37338">
        <ele>128.6</ele>
        <time>2025-05-29T14:18:53Z</time>
      </trkpt>
      <trkpt lat="44.49843" lon="1.37343">
        <ele>129</ele>
        <time>2025-05-29T14:18:54Z</time>
      </trkpt>
      <trkpt lat="44.49843" lon="1.37348">
        <ele>129.4</ele>
        <time>2025-05-29T14:18:55Z</time>
      </trkpt>
      <trkpt lat="44.49844" lon="1.37352">
        <ele>129.6</ele>
        <time>2025-05-29T14:18:56Z</time>
      </trkpt>
      <trkpt lat="44.49844" lon="1.37356">
        <ele>130</ele>
        <time>2025-05-29T14:18:57Z</time>
      </trkpt>
      <trkpt lat="44.49844" lon="1.3736">
        <ele>130.2</ele>
        <time>2025-05-29T14:18:58Z</time>
      </trkpt>
      <trkpt lat="44.49844" lon="1.37364">
        <ele>130.6</ele>
        <time>2025-05-29T14:18:59Z</time>
      </trkpt>
      <trkpt lat="44.49844" lon="1.37368">
        <ele>130.8</ele>
        <time>2025-05-29T14:19:00Z</time>
      </trkpt>
      <trkpt lat="44.49845" lon="1.37372">
        <ele>131</ele>
        <time>2025-05-29T14:19:01Z</time>
      </trkpt>
      <trkpt lat="44.49845" lon="1.37376">
        <ele>131.2</ele>
        <time>2025-05-29T14:19:02Z</time>
      </trkpt>
      <trkpt lat="44.49845" lon="1.37379">
        <ele>131.4</ele>
        <time>2025-05-29T14:19:03Z</time>
      </trkpt>
      <trkpt lat="44.49845" lon="1.37383">
        <ele>131.8</ele>
        <time>2025-05-29T14:19:04Z</time>
      </trkpt>
      <trkpt lat="44.49845" lon="1.37388">
        <ele>132</ele>
        <time>2025-05-29T14:19:05Z</time>
      </trkpt>
      <trkpt lat="44.49846" lon="1.37392">
        <ele>132.2</ele>
        <time>2025-05-29T14:19:06Z</time>
      </trkpt>
      <trkpt lat="44.49846" lon="1.37397">
        <ele>132.4</ele>
        <time>2025-05-29T14:19:07Z</time>
      </trkpt>
      <trkpt lat="44.49846" lon="1.37401">
        <ele>132.6</ele>
        <time>2025-05-29T14:19:08Z</time>
      </trkpt>
      <trkpt lat="44.49846" lon="1.37405">
        <ele>133</ele>
        <time>2025-05-29T14:19:09Z</time>
      </trkpt>
      <trkpt lat="44.49846" lon="1.37409">
        <ele>133.2</ele>
        <time>2025-05-29T14:19:10Z</time>
      </trkpt>
      <trkpt lat="44.49846" lon="1.37413">
        <ele>133.4</ele>
        <time>2025-05-29T14:19:11Z</time>
      </trkpt>
      <trkpt lat="44.49846" lon="1.37417">
        <ele>133.6</ele>
        <time>2025-05-29T14:19:12Z</time>
      </trkpt>
      <trkpt lat="44.49847" lon="1.37421">
        <ele>134</ele>
        <time>2025-05-29T14:19:13Z</time>
      </trkpt>
      <trkpt lat="44.49846" lon="1.37425">
        <ele>134.2</ele>
        <time>2025-05-29T14:19:14Z</time>
      </trkpt>
      <trkpt lat="44.49847" lon="1.37429">
        <ele>134.4</ele>
        <time>2025-05-29T14:19:15Z</time>
      </trkpt>
      <trkpt lat="44.49847" lon="1.37434">
        <ele>134.6</ele>
        <time>2025-05-29T14:19:16Z</time>
      </trkpt>
      <trkpt lat="44.49847" lon="1.37438">
        <ele>134.8</ele>
        <time>2025-05-29T14:19:17Z</time>
      </trkpt>
      <trkpt lat="44.49847" lon="1.37442">
        <ele>135</ele>
        <time>2025-05-29T14:19:18Z</time>
      </trkpt>
      <trkpt lat="44.49847" lon="1.37445">
        <ele>135.2</ele>
        <time>2025-05-29T14:19:19Z</time>
      </trkpt>
      <trkpt lat="44.49847" lon="1.37449">
        <ele>135.6</ele>
        <time>2025-05-29T14:19:20Z</time>
      </trkpt>
      <trkpt lat="44.49847" lon="1.37453">
        <ele>135.6</ele>
        <time>2025-05-29T14:19:21Z</time>
      </trkpt>
      <trkpt lat="44.49847" lon="1.37456">
        <ele>135.8</ele>
        <time>2025-05-29T14:19:22Z</time>
      </trkpt>
      <trkpt lat="44.49847" lon="1.3746">
        <ele>136</ele>
        <time>2025-05-29T14:19:23Z</time>
      </trkpt>
      <trkpt lat="44.49848" lon="1.37464">
        <ele>136.2</ele>
        <time>2025-05-29T14:19:24Z</time>
      </trkpt>
      <trkpt lat="44.49848" lon="1.37468">
        <ele>136.4</ele>
        <time>2025-05-29T14:19:25Z</time>
      </trkpt>
      <trkpt lat="44.49848" lon="1.37473">
        <ele>136.6</ele>
        <time>2025-05-29T14:19:26Z</time>
      </trkpt>
      <trkpt lat="44.49848" lon="1.37477">
        <ele>136.8</ele>
        <time>2025-05-29T14:19:27Z</time>
      </trkpt>
      <trkpt lat="44.49848" lon="1.37481">
        <ele>137</ele>
        <time>2025-05-29T14:19:28Z</time>
      </trkpt>
      <trkpt lat="44.49848" lon="1.37485">
        <ele>137.2</ele>
        <time>2025-05-29T14:19:29Z</time>
      </trkpt>
      <trkpt lat="44.49848" lon="1.3749">
        <ele>137.4</ele>
        <time>2025-05-29T14:19:30Z</time>
      </trkpt>
      <trkpt lat="44.49849" lon="1.37494">
        <ele>137.8</ele>
        <time>2025-05-29T14:19:31Z</time>
      </trkpt>
      <trkpt lat="44.49849" lon="1.37498">
        <ele>137.8</ele>
        <time>2025-05-29T14:19:32Z</time>
      </trkpt>
      <trkpt lat="44.4985" lon="1.37502">
        <ele>138</ele>
        <time>2025-05-29T14:19:33Z</time>
      </trkpt>
      <trkpt lat="44.4985" lon="1.37506">
        <ele>138.2</ele>
        <time>2025-05-29T14:19:34Z</time>
      </trkpt>
      <trkpt lat="44.4985" lon="1.3751">
        <ele>138.4</ele>
        <time>2025-05-29T14:19:35Z</time>
      </trkpt>
      <trkpt lat="44.49851" lon="1.37514">
        <ele>138.8</ele>
        <time>2025-05-29T14:19:36Z</time>
      </trkpt>
      <trkpt lat="44.49851" lon="1.37518">
        <ele>139</ele>
        <time>2025-05-29T14:19:37Z</time>
      </trkpt>
      <trkpt lat="44.49852" lon="1.37522">
        <ele>139.2</ele>
        <time>2025-05-29T14:19:38Z</time>
      </trkpt>
      <trkpt lat="44.49853" lon="1.37526">
        <ele>139.2</ele>
        <time>2025-05-29T14:19:39Z</time>
      </trkpt>
      <trkpt lat="44.49854" lon="1.3753">
        <ele>139.4</ele>
        <time>2025-05-29T14:19:40Z</time>
      </trkpt>
      <trkpt lat="44.49854" lon="1.37533">
        <ele>139.6</ele>
        <time>2025-05-29T14:19:41Z</time>
      </trkpt>
      <trkpt lat="44.49855" lon="1.37537">
        <ele>139.8</ele>
        <time>2025-05-29T14:19:42Z</time>
      </trkpt>
      <trkpt lat="44.49856" lon="1.3754">
        <ele>140</ele>
        <time>2025-05-29T14:19:43Z</time>
      </trkpt>
      <trkpt lat="44.49857" lon="1.37544">
        <ele>140.2</ele>
        <time>2025-05-29T14:19:44Z</time>
      </trkpt>
      <trkpt lat="44.49859" lon="1.37547">
        <ele>140.4</ele>
        <time>2025-05-29T14:19:45Z</time>
      </trkpt>
      <trkpt lat="44.4986" lon="1.3755">
        <ele>140.4</ele>
        <time>2025-05-29T14:19:46Z</time>
      </trkpt>
      <trkpt lat="44.49861" lon="1.37553">
        <ele>140.8</ele>
        <time>2025-05-29T14:19:47Z</time>
      </trkpt>
      <trkpt lat="44.49863" lon="1.37556">
        <ele>140.8</ele>
        <time>2025-05-29T14:19:48Z</time>
      </trkpt>
      <trkpt lat="44.49864" lon="1.37559">
        <ele>141</ele>
        <time>2025-05-29T14:19:49Z</time>
      </trkpt>
      <trkpt lat="44.49865" lon="1.37562">
        <ele>141.4</ele>
        <time>2025-05-29T14:19:50Z</time>
      </trkpt>
      <trkpt lat="44.49866" lon="1.37565">
        <ele>141.6</ele>
        <time>2025-05-29T14:19:51Z</time>
      </trkpt>
      <trkpt lat="44.49867" lon="1.37568">
        <ele>141.8</ele>
        <time>2025-05-29T14:19:52Z</time>
      </trkpt>
      <trkpt lat="44.49868" lon="1.3757">
        <ele>142</ele>
        <time>2025-05-29T14:19:53Z</time>
      </trkpt>
      <trkpt lat="44.49869" lon="1.37573">
        <ele>142.2</ele>
        <time>2025-05-29T14:19:54Z</time>
      </trkpt>
      <trkpt lat="44.4987" lon="1.37575">
        <ele>142.4</ele>
        <time>2025-05-29T14:19:55Z</time>
      </trkpt>
      <trkpt lat="44.49872" lon="1.37578">
        <ele>142.6</ele>
        <time>2025-05-29T14:19:56Z</time>
      </trkpt>
      <trkpt lat="44.49873" lon="1.37581">
        <ele>142.6</ele>
        <time>2025-05-29T14:19:57Z</time>
      </trkpt>
      <trkpt lat="44.49874" lon="1.37583">
        <ele>143</ele>
        <time>2025-05-29T14:19:58Z</time>
      </trkpt>
      <trkpt lat="44.49875" lon="1.37586">
        <ele>143</ele>
        <time>2025-05-29T14:19:59Z</time>
      </trkpt>
      <trkpt lat="44.49877" lon="1.37588">
        <ele>143.2</ele>
        <time>2025-05-29T14:20:00Z</time>
      </trkpt>
      <trkpt lat="44.49877" lon="1.37591">
        <ele>143.6</ele>
        <time>2025-05-29T14:20:01Z</time>
      </trkpt>
      <trkpt lat="44.49878" lon="1.37594">
        <ele>143.8</ele>
        <time>2025-05-29T14:20:02Z</time>
      </trkpt>
      <trkpt lat="44.49879" lon="1.37596">
        <ele>143.8</ele>
        <time>2025-05-29T14:20:03Z</time>
      </trkpt>
      <trkpt lat="44.4988" lon="1.37599">
        <ele>143.8</ele>
        <time>2025-05-29T14:20:04Z</time>
      </trkpt>
      <trkpt lat="44.4988" lon="1.37602">
        <ele>144</ele>
        <time>2025-05-29T14:20:05Z</time>
      </trkpt>
      <trkpt lat="44.49881" lon="1.37604">
        <ele>144</ele>
        <time>2025-05-29T14:20:06Z</time>
      </trkpt>
      <trkpt lat="44.49882" lon="1.37607">
        <ele>144</ele>
        <time>2025-05-29T14:20:07Z</time>
      </trkpt>
      <trkpt lat="44.49883" lon="1.3761">
        <ele>144.4</ele>
        <time>2025-05-29T14:20:08Z</time>
      </trkpt>
      <trkpt lat="44.49884" lon="1.37613">
        <ele>144.6</ele>
        <time>2025-05-29T14:20:09Z</time>
      </trkpt>
      <trkpt lat="44.49884" lon="1.37616">
        <ele>144.8</ele>
        <time>2025-05-29T14:20:10Z</time>
      </trkpt>
      <trkpt lat="44.49885" lon="1.3762">
        <ele>145</ele>
        <time>2025-05-29T14:20:11Z</time>
      </trkpt>
      <trkpt lat="44.49885" lon="1.37623">
        <ele>145.2</ele>
        <time>2025-05-29T14:20:12Z</time>
      </trkpt>
      <trkpt lat="44.49885" lon="1.37626">
        <ele>145.4</ele>
        <time>2025-05-29T14:20:13Z</time>
      </trkpt>
      <trkpt lat="44.49886" lon="1.37629">
        <ele>145.6</ele>
        <time>2025-05-29T14:20:14Z</time>
      </trkpt>
      <trkpt lat="44.49886" lon="1.37632">
        <ele>145.8</ele>
        <time>2025-05-29T14:20:15Z</time>
      </trkpt>
      <trkpt lat="44.49886" lon="1.37636">
        <ele>145.8</ele>
        <time>2025-05-29T14:20:16Z</time>
      </trkpt>
      <trkpt lat="44.49886" lon="1.37639">
        <ele>146</ele>
        <time>2025-05-29T14:20:17Z</time>
      </trkpt>
      <trkpt lat="44.49886" lon="1.37641">
        <ele>146.2</ele>
        <time>2025-05-29T14:20:18Z</time>
      </trkpt>
      <trkpt lat="44.49886" lon="1.37645">
        <ele>146.2</ele>
        <time>2025-05-29T14:20:19Z</time>
      </trkpt>
      <trkpt lat="44.49885" lon="1.37648">
        <ele>146.4</ele>
        <time>2025-05-29T14:20:20Z</time>
      </trkpt>
      <trkpt lat="44.49885" lon="1.37652">
        <ele>146.4</ele>
        <time>2025-05-29T14:20:21Z</time>
      </trkpt>
      <trkpt lat="44.49884" lon="1.37655">
        <ele>146.6</ele>
        <time>2025-05-29T14:20:22Z</time>
      </trkpt>
      <trkpt lat="44.49884" lon="1.37658">
        <ele>146.6</ele>
        <time>2025-05-29T14:20:23Z</time>
      </trkpt>
      <trkpt lat="44.49883" lon="1.37661">
        <ele>146.8</ele>
        <time>2025-05-29T14:20:24Z</time>
      </trkpt>
      <trkpt lat="44.49882" lon="1.37664">
        <ele>147</ele>
        <time>2025-05-29T14:20:25Z</time>
      </trkpt>
      <trkpt lat="44.49881" lon="1.37668">
        <ele>147.2</ele>
        <time>2025-05-29T14:20:26Z</time>
      </trkpt>
      <trkpt lat="44.4988" lon="1.37671">
        <ele>147.2</ele>
        <time>2025-05-29T14:20:27Z</time>
      </trkpt>
      <trkpt lat="44.4988" lon="1.37675">
        <ele>147.4</ele>
        <time>2025-05-29T14:20:28Z</time>
      </trkpt>
      <trkpt lat="44.49879" lon="1.37678">
        <ele>147.6</ele>
        <time>2025-05-29T14:20:29Z</time>
      </trkpt>
      <trkpt lat="44.49878" lon="1.37681">
        <ele>147.8</ele>
        <time>2025-05-29T14:20:30Z</time>
      </trkpt>
      <trkpt lat="44.49878" lon="1.37685">
        <ele>147.8</ele>
        <time>2025-05-29T14:20:31Z</time>
      </trkpt>
      <trkpt lat="44.49877" lon="1.37688">
        <ele>148</ele>
        <time>2025-05-29T14:20:32Z</time>
      </trkpt>
      <trkpt lat="44.49876" lon="1.37691">
        <ele>148.2</ele>
        <time>2025-05-29T14:20:33Z</time>
      </trkpt>
      <trkpt lat="44.49875" lon="1.37695">
        <ele>148.2</ele>
        <time>2025-05-29T14:20:34Z</time>
      </trkpt>
      <trkpt lat="44.49874" lon="1.37699">
        <ele>148.4</ele>
        <time>2025-05-29T14:20:35Z</time>
      </trkpt>
      <trkpt lat="44.49873" lon="1.37702">
        <ele>148.4</ele>
        <time>2025-05-29T14:20:36Z</time>
      </trkpt>
      <trkpt lat="44.49872" lon="1.37706">
        <ele>148.6</ele>
        <time>2025-05-29T14:20:37Z</time>
      </trkpt>
      <trkpt lat="44.49872" lon="1.3771">
        <ele>148.6</ele>
        <time>2025-05-29T14:20:38Z</time>
      </trkpt>
      <trkpt lat="44.49871" lon="1.37715">
        <ele>148.8</ele>
        <time>2025-05-29T14:20:39Z</time>
      </trkpt>
      <trkpt lat="44.4987" lon="1.37719">
        <ele>148.8</ele>
        <time>2025-05-29T14:20:40Z</time>
      </trkpt>
      <trkpt lat="44.49869" lon="1.37723">
        <ele>149</ele>
        <time>2025-05-29T14:20:41Z</time>
      </trkpt>
      <trkpt lat="44.49868" lon="1.37727">
        <ele>149</ele>
        <time>2025-05-29T14:20:42Z</time>
      </trkpt>
      <trkpt lat="44.49867" lon="1.37732">
        <ele>149.2</ele>
        <time>2025-05-29T14:20:43Z</time>
      </trkpt>
      <trkpt lat="44.49866" lon="1.37737">
        <ele>149.4</ele>
        <time>2025-05-29T14:20:44Z</time>
      </trkpt>
      <trkpt lat="44.49865" lon="1.37741">
        <ele>149.4</ele>
        <time>2025-05-29T14:20:45Z</time>
      </trkpt>
      <trkpt lat="44.49865" lon="1.37746">
        <ele>149.6</ele>
        <time>2025-05-29T14:20:46Z</time>
      </trkpt>
      <trkpt lat="44.49864" lon="1.3775">
        <ele>149.8</ele>
        <time>2025-05-29T14:20:47Z</time>
      </trkpt>
      <trkpt lat="44.49863" lon="1.37755">
        <ele>149.8</ele>
        <time>2025-05-29T14:20:48Z</time>
      </trkpt>
      <trkpt lat="44.49862" lon="1.3776">
        <ele>149.8</ele>
        <time>2025-05-29T14:20:49Z</time>
      </trkpt>
      <trkpt lat="44.49862" lon="1.37766">
        <ele>149.8</ele>
        <time>2025-05-29T14:20:50Z</time>
      </trkpt>
      <trkpt lat="44.49861" lon="1.37771">
        <ele>149.8</ele>
        <time>2025-05-29T14:20:51Z</time>
      </trkpt>
      <trkpt lat="44.4986" lon="1.37777">
        <ele>149.8</ele>
        <time>2025-05-29T14:20:52Z</time>
      </trkpt>
      <trkpt lat="44.49859" lon="1.37783">
        <ele>149.8</ele>
        <time>2025-05-29T14:20:53Z</time>
      </trkpt>
      <trkpt lat="44.49858" lon="1.37788">
        <ele>149.8</ele>
        <time>2025-05-29T14:20:54Z</time>
      </trkpt>
      <trkpt lat="44.49857" lon="1.37795">
        <ele>149.8</ele>
        <time>2025-05-29T14:20:55Z</time>
      </trkpt>
      <trkpt lat="44.49856" lon="1.37801">
        <ele>149.8</ele>
        <time>2025-05-29T14:20:56Z</time>
      </trkpt>
      <trkpt lat="44.49855" lon="1.37808">
        <ele>149.6</ele>
        <time>2025-05-29T14:20:57Z</time>
      </trkpt>
      <trkpt lat="44.49853" lon="1.37815">
        <ele>149.6</ele>
        <time>2025-05-29T14:20:58Z</time>
      </trkpt>
      <trkpt lat="44.49852" lon="1.37822">
        <ele>149.6</ele>
        <time>2025-05-29T14:20:59Z</time>
      </trkpt>
      <trkpt lat="44.4985" lon="1.3783">
        <ele>149.4</ele>
        <time>2025-05-29T14:21:00Z</time>
      </trkpt>
      <trkpt lat="44.49849" lon="1.37837">
        <ele>149.2</ele>
        <time>2025-05-29T14:21:01Z</time>
      </trkpt>
      <trkpt lat="44.49847" lon="1.37845">
        <ele>149</ele>
        <time>2025-05-29T14:21:02Z</time>
      </trkpt>
      <trkpt lat="44.49846" lon="1.37852">
        <ele>149</ele>
        <time>2025-05-29T14:21:03Z</time>
      </trkpt>
      <trkpt lat="44.49845" lon="1.3786">
        <ele>148.8</ele>
        <time>2025-05-29T14:21:04Z</time>
      </trkpt>
      <trkpt lat="44.49843" lon="1.37868">
        <ele>148.8</ele>
        <time>2025-05-29T14:21:05Z</time>
      </trkpt>
      <trkpt lat="44.49842" lon="1.37876">
        <ele>148.8</ele>
        <time>2025-05-29T14:21:06Z</time>
      </trkpt>
      <trkpt lat="44.49841" lon="1.37884">
        <ele>148.6</ele>
        <time>2025-05-29T14:21:07Z</time>
      </trkpt>
      <trkpt lat="44.4984" lon="1.37892">
        <ele>148.6</ele>
        <time>2025-05-29T14:21:08Z</time>
      </trkpt>
      <trkpt lat="44.49839" lon="1.379">
        <ele>148.4</ele>
        <time>2025-05-29T14:21:09Z</time>
      </trkpt>
      <trkpt lat="44.49838" lon="1.37908">
        <ele>148.2</ele>
        <time>2025-05-29T14:21:10Z</time>
      </trkpt>
      <trkpt lat="44.49837" lon="1.37917">
        <ele>148.2</ele>
        <time>2025-05-29T14:21:11Z</time>
      </trkpt>
      <trkpt lat="44.49836" lon="1.37925">
        <ele>148</ele>
        <time>2025-05-29T14:21:12Z</time>
      </trkpt>
      <trkpt lat="44.49835" lon="1.37933">
        <ele>148</ele>
        <time>2025-05-29T14:21:13Z</time>
      </trkpt>
      <trkpt lat="44.49835" lon="1.37942">
        <ele>147.8</ele>
        <time>2025-05-29T14:21:14Z</time>
      </trkpt>
      <trkpt lat="44.49834" lon="1.3795">
        <ele>147.8</ele>
        <time>2025-05-29T14:21:15Z</time>
      </trkpt>
      <trkpt lat="44.49833" lon="1.37959">
        <ele>147.6</ele>
        <time>2025-05-29T14:21:16Z</time>
      </trkpt>
      <trkpt lat="44.49833" lon="1.37967">
        <ele>147.6</ele>
        <time>2025-05-29T14:21:17Z</time>
      </trkpt>
      <trkpt lat="44.49832" lon="1.37976">
        <ele>147.4</ele>
        <time>2025-05-29T14:21:18Z</time>
      </trkpt>
      <trkpt lat="44.4983" lon="1.37984">
        <ele>147.4</ele>
        <time>2025-05-29T14:21:19Z</time>
      </trkpt>
      <trkpt lat="44.49828" lon="1.37992">
        <ele>147.2</ele>
        <time>2025-05-29T14:21:20Z</time>
      </trkpt>
      <trkpt lat="44.49826" lon="1.38001">
        <ele>147.2</ele>
        <time>2025-05-29T14:21:21Z</time>
      </trkpt>
      <trkpt lat="44.49823" lon="1.38009">
        <ele>147.2</ele>
        <time>2025-05-29T14:21:22Z</time>
      </trkpt>
      <trkpt lat="44.4982" lon="1.38017">
        <ele>147.2</ele>
        <time>2025-05-29T14:21:23Z</time>
      </trkpt>
      <trkpt lat="44.49816" lon="1.38024">
        <ele>147.2</ele>
        <time>2025-05-29T14:21:24Z</time>
      </trkpt>
      <trkpt lat="44.49813" lon="1.38032">
        <ele>147</ele>
        <time>2025-05-29T14:21:25Z</time>
      </trkpt>
      <trkpt lat="44.49809" lon="1.3804">
        <ele>147</ele>
        <time>2025-05-29T14:21:26Z</time>
      </trkpt>
      <trkpt lat="44.49805" lon="1.38048">
        <ele>147</ele>
        <time>2025-05-29T14:21:27Z</time>
      </trkpt>
      <trkpt lat="44.49801" lon="1.38056">
        <ele>146.8</ele>
        <time>2025-05-29T14:21:28Z</time>
      </trkpt>
      <trkpt lat="44.49796" lon="1.38064">
        <ele>146.8</ele>
        <time>2025-05-29T14:21:29Z</time>
      </trkpt>
      <trkpt lat="44.49792" lon="1.38071">
        <ele>146.6</ele>
        <time>2025-05-29T14:21:30Z</time>
      </trkpt>
      <trkpt lat="44.49788" lon="1.38079">
        <ele>146.4</ele>
        <time>2025-05-29T14:21:31Z</time>
      </trkpt>
      <trkpt lat="44.49784" lon="1.38086">
        <ele>146.4</ele>
        <time>2025-05-29T14:21:32Z</time>
      </trkpt>
      <trkpt lat="44.49779" lon="1.38093">
        <ele>146.2</ele>
        <time>2025-05-29T14:21:33Z</time>
      </trkpt>
      <trkpt lat="44.49775" lon="1.38101">
        <ele>146</ele>
        <time>2025-05-29T14:21:34Z</time>
      </trkpt>
      <trkpt lat="44.49772" lon="1.38109">
        <ele>145.8</ele>
        <time>2025-05-29T14:21:35Z</time>
      </trkpt>
      <trkpt lat="44.49768" lon="1.38117">
        <ele>145.8</ele>
        <time>2025-05-29T14:21:36Z</time>
      </trkpt>
      <trkpt lat="44.49766" lon="1.38125">
        <ele>145.6</ele>
        <time>2025-05-29T14:21:37Z</time>
      </trkpt>
      <trkpt lat="44.49762" lon="1.38133">
        <ele>145.6</ele>
        <time>2025-05-29T14:21:38Z</time>
      </trkpt>
      <trkpt lat="44.49759" lon="1.38141">
        <ele>145.6</ele>
        <time>2025-05-29T14:21:39Z</time>
      </trkpt>
      <trkpt lat="44.49757" lon="1.38149">
        <ele>145.4</ele>
        <time>2025-05-29T14:21:40Z</time>
      </trkpt>
      <trkpt lat="44.49754" lon="1.38157">
        <ele>145.2</ele>
        <time>2025-05-29T14:21:41Z</time>
      </trkpt>
      <trkpt lat="44.49752" lon="1.38165">
        <ele>145</ele>
        <time>2025-05-29T14:21:42Z</time>
      </trkpt>
      <trkpt lat="44.49751" lon="1.38174">
        <ele>145</ele>
        <time>2025-05-29T14:21:43Z</time>
      </trkpt>
      <trkpt lat="44.49749" lon="1.38182">
        <ele>145</ele>
        <time>2025-05-29T14:21:44Z</time>
      </trkpt>
      <trkpt lat="44.49747" lon="1.3819">
        <ele>144.8</ele>
        <time>2025-05-29T14:21:45Z</time>
      </trkpt>
      <trkpt lat="44.49745" lon="1.38199">
        <ele>144.8</ele>
        <time>2025-05-29T14:21:46Z</time>
      </trkpt>
      <trkpt lat="44.49744" lon="1.38208">
        <ele>144.8</ele>
        <time>2025-05-29T14:21:47Z</time>
      </trkpt>
      <trkpt lat="44.49742" lon="1.38217">
        <ele>144.8</ele>
        <time>2025-05-29T14:21:48Z</time>
      </trkpt>
      <trkpt lat="44.49741" lon="1.38226">
        <ele>144.8</ele>
        <time>2025-05-29T14:21:49Z</time>
      </trkpt>
      <trkpt lat="44.4974" lon="1.38234">
        <ele>144.8</ele>
        <time>2025-05-29T14:21:50Z</time>
      </trkpt>
      <trkpt lat="44.49739" lon="1.38242">
        <ele>145</ele>
        <time>2025-05-29T14:21:51Z</time>
      </trkpt>
      <trkpt lat="44.49738" lon="1.3825">
        <ele>145.2</ele>
        <time>2025-05-29T14:21:52Z</time>
      </trkpt>
      <trkpt lat="44.49737" lon="1.38259">
        <ele>145.4</ele>
        <time>2025-05-29T14:21:53Z</time>
      </trkpt>
      <trkpt lat="44.49736" lon="1.38267">
        <ele>145.4</ele>
        <time>2025-05-29T14:21:54Z</time>
      </trkpt>
      <trkpt lat="44.49735" lon="1.38275">
        <ele>145.6</ele>
        <time>2025-05-29T14:21:55Z</time>
      </trkpt>
      <trkpt lat="44.49734" lon="1.38283">
        <ele>145.6</ele>
        <time>2025-05-29T14:21:56Z</time>
      </trkpt>
      <trkpt lat="44.49734" lon="1.38291">
        <ele>145.8</ele>
        <time>2025-05-29T14:21:57Z</time>
      </trkpt>
      <trkpt lat="44.49733" lon="1.383">
        <ele>146</ele>
        <time>2025-05-29T14:21:58Z</time>
      </trkpt>
      <trkpt lat="44.49733" lon="1.38308">
        <ele>146</ele>
        <time>2025-05-29T14:21:59Z</time>
      </trkpt>
      <trkpt lat="44.49732" lon="1.38316">
        <ele>146.2</ele>
        <time>2025-05-29T14:22:00Z</time>
      </trkpt>
      <trkpt lat="44.49731" lon="1.38324">
        <ele>146.4</ele>
        <time>2025-05-29T14:22:01Z</time>
      </trkpt>
      <trkpt lat="44.4973" lon="1.38332">
        <ele>146.4</ele>
        <time>2025-05-29T14:22:02Z</time>
      </trkpt>
      <trkpt lat="44.4973" lon="1.3834">
        <ele>146.4</ele>
        <time>2025-05-29T14:22:03Z</time>
      </trkpt>
      <trkpt lat="44.49729" lon="1.38348">
        <ele>146.4</ele>
        <time>2025-05-29T14:22:04Z</time>
      </trkpt>
      <trkpt lat="44.49728" lon="1.38355">
        <ele>146.4</ele>
        <time>2025-05-29T14:22:05Z</time>
      </trkpt>
      <trkpt lat="44.49726" lon="1.38362">
        <ele>146.6</ele>
        <time>2025-05-29T14:22:06Z</time>
      </trkpt>
      <trkpt lat="44.49725" lon="1.38371">
        <ele>146.6</ele>
        <time>2025-05-29T14:22:07Z</time>
      </trkpt>
      <trkpt lat="44.49724" lon="1.38378">
        <ele>146.8</ele>
        <time>2025-05-29T14:22:08Z</time>
      </trkpt>
      <trkpt lat="44.49723" lon="1.38386">
        <ele>146.8</ele>
        <time>2025-05-29T14:22:09Z</time>
      </trkpt>
      <trkpt lat="44.49723" lon="1.38393">
        <ele>146.8</ele>
        <time>2025-05-29T14:22:10Z</time>
      </trkpt>
      <trkpt lat="44.49722" lon="1.38401">
        <ele>146.8</ele>
        <time>2025-05-29T14:22:11Z</time>
      </trkpt>
      <trkpt lat="44.49721" lon="1.38409">
        <ele>146.8</ele>
        <time>2025-05-29T14:22:12Z</time>
      </trkpt>
      <trkpt lat="44.4972" lon="1.38416">
        <ele>146.8</ele>
        <time>2025-05-29T14:22:13Z</time>
      </trkpt>
      <trkpt lat="44.4972" lon="1.38423">
        <ele>146.8</ele>
        <time>2025-05-29T14:22:14Z</time>
      </trkpt>
      <trkpt lat="44.49719" lon="1.3843">
        <ele>146.8</ele>
        <time>2025-05-29T14:22:15Z</time>
      </trkpt>
      <trkpt lat="44.49718" lon="1.38437">
        <ele>146.8</ele>
        <time>2025-05-29T14:22:16Z</time>
      </trkpt>
      <trkpt lat="44.49717" lon="1.38444">
        <ele>147</ele>
        <time>2025-05-29T14:22:17Z</time>
      </trkpt>
      <trkpt lat="44.49717" lon="1.3845">
        <ele>147</ele>
        <time>2025-05-29T14:22:18Z</time>
      </trkpt>
      <trkpt lat="44.49716" lon="1.38457">
        <ele>147</ele>
        <time>2025-05-29T14:22:19Z</time>
      </trkpt>
      <trkpt lat="44.49715" lon="1.38464">
        <ele>147.2</ele>
        <time>2025-05-29T14:22:20Z</time>
      </trkpt>
      <trkpt lat="44.49714" lon="1.38471">
        <ele>147.4</ele>
        <time>2025-05-29T14:22:21Z</time>
      </trkpt>
      <trkpt lat="44.49714" lon="1.38478">
        <ele>147.6</ele>
        <time>2025-05-29T14:22:22Z</time>
      </trkpt>
      <trkpt lat="44.49713" lon="1.38485">
        <ele>147.8</ele>
        <time>2025-05-29T14:22:23Z</time>
      </trkpt>
      <trkpt lat="44.49712" lon="1.38491">
        <ele>148</ele>
        <time>2025-05-29T14:22:24Z</time>
      </trkpt>
      <trkpt lat="44.49711" lon="1.38498">
        <ele>148.2</ele>
        <time>2025-05-29T14:22:25Z</time>
      </trkpt>
      <trkpt lat="44.4971" lon="1.38505">
        <ele>148.4</ele>
        <time>2025-05-29T14:22:26Z</time>
      </trkpt>
      <trkpt lat="44.49709" lon="1.38511">
        <ele>148.4</ele>
        <time>2025-05-29T14:22:27Z</time>
      </trkpt>
      <trkpt lat="44.49708" lon="1.38518">
        <ele>148.6</ele>
        <time>2025-05-29T14:22:28Z</time>
      </trkpt>
      <trkpt lat="44.49707" lon="1.38524">
        <ele>148.6</ele>
        <time>2025-05-29T14:22:29Z</time>
      </trkpt>
      <trkpt lat="44.49706" lon="1.38531">
        <ele>148.8</ele>
        <time>2025-05-29T14:22:30Z</time>
      </trkpt>
      <trkpt lat="44.49706" lon="1.38537">
        <ele>149</ele>
        <time>2025-05-29T14:22:31Z</time>
      </trkpt>
      <trkpt lat="44.49705" lon="1.38542">
        <ele>149</ele>
        <time>2025-05-29T14:22:32Z</time>
      </trkpt>
      <trkpt lat="44.49704" lon="1.38548">
        <ele>149</ele>
        <time>2025-05-29T14:22:33Z</time>
      </trkpt>
      <trkpt lat="44.49703" lon="1.38554">
        <ele>149</ele>
        <time>2025-05-29T14:22:34Z</time>
      </trkpt>
      <trkpt lat="44.49703" lon="1.38561">
        <ele>149</ele>
        <time>2025-05-29T14:22:35Z</time>
      </trkpt>
      <trkpt lat="44.49703" lon="1.38568">
        <ele>148.8</ele>
        <time>2025-05-29T14:22:36Z</time>
      </trkpt>
      <trkpt lat="44.49703" lon="1.38575">
        <ele>148.8</ele>
        <time>2025-05-29T14:22:37Z</time>
      </trkpt>
      <trkpt lat="44.49703" lon="1.38582">
        <ele>148.8</ele>
        <time>2025-05-29T14:22:38Z</time>
      </trkpt>
      <trkpt lat="44.49703" lon="1.38589">
        <ele>148.8</ele>
        <time>2025-05-29T14:22:39Z</time>
      </trkpt>
      <trkpt lat="44.49702" lon="1.38596">
        <ele>148.8</ele>
        <time>2025-05-29T14:22:40Z</time>
      </trkpt>
      <trkpt lat="44.49701" lon="1.38602">
        <ele>148.8</ele>
        <time>2025-05-29T14:22:41Z</time>
      </trkpt>
      <trkpt lat="44.49699" lon="1.38608">
        <ele>148.8</ele>
        <time>2025-05-29T14:22:42Z</time>
      </trkpt>
      <trkpt lat="44.49698" lon="1.38615">
        <ele>149</ele>
        <time>2025-05-29T14:22:43Z</time>
      </trkpt>
      <trkpt lat="44.49697" lon="1.38621">
        <ele>149</ele>
        <time>2025-05-29T14:22:44Z</time>
      </trkpt>
      <trkpt lat="44.49696" lon="1.38628">
        <ele>149</ele>
        <time>2025-05-29T14:22:45Z</time>
      </trkpt>
      <trkpt lat="44.49696" lon="1.38634">
        <ele>149</ele>
        <time>2025-05-29T14:22:46Z</time>
      </trkpt>
      <trkpt lat="44.49695" lon="1.38641">
        <ele>149</ele>
        <time>2025-05-29T14:22:47Z</time>
      </trkpt>
      <trkpt lat="44.49695" lon="1.38647">
        <ele>149.2</ele>
        <time>2025-05-29T14:22:48Z</time>
      </trkpt>
      <trkpt lat="44.49695" lon="1.38653">
        <ele>149.4</ele>
        <time>2025-05-29T14:22:49Z</time>
      </trkpt>
      <trkpt lat="44.49696" lon="1.3866">
        <ele>149.6</ele>
        <time>2025-05-29T14:22:50Z</time>
      </trkpt>
      <trkpt lat="44.49696" lon="1.38667">
        <ele>149.6</ele>
        <time>2025-05-29T14:22:51Z</time>
      </trkpt>
      <trkpt lat="44.49696" lon="1.38674">
        <ele>149.6</ele>
        <time>2025-05-29T14:22:52Z</time>
      </trkpt>
      <trkpt lat="44.49696" lon="1.38681">
        <ele>149.6</ele>
        <time>2025-05-29T14:22:53Z</time>
      </trkpt>
      <trkpt lat="44.49696" lon="1.38688">
        <ele>149.8</ele>
        <time>2025-05-29T14:22:54Z</time>
      </trkpt>
      <trkpt lat="44.49696" lon="1.38694">
        <ele>149.8</ele>
        <time>2025-05-29T14:22:55Z</time>
      </trkpt>
      <trkpt lat="44.49696" lon="1.38701">
        <ele>149.8</ele>
        <time>2025-05-29T14:22:56Z</time>
      </trkpt>
      <trkpt lat="44.49696" lon="1.38707">
        <ele>149.8</ele>
        <time>2025-05-29T14:22:57Z</time>
      </trkpt>
      <trkpt lat="44.49696" lon="1.38713">
        <ele>150</ele>
        <time>2025-05-29T14:22:58Z</time>
      </trkpt>
      <trkpt lat="44.49697" lon="1.38719">
        <ele>150</ele>
        <time>2025-05-29T14:22:59Z</time>
      </trkpt>
      <trkpt lat="44.49697" lon="1.38725">
        <ele>150.2</ele>
        <time>2025-05-29T14:23:00Z</time>
      </trkpt>
      <trkpt lat="44.49697" lon="1.38731">
        <ele>150.2</ele>
        <time>2025-05-29T14:23:01Z</time>
      </trkpt>
      <trkpt lat="44.49697" lon="1.38737">
        <ele>150.4</ele>
        <time>2025-05-29T14:23:02Z</time>
      </trkpt>
      <trkpt lat="44.49699" lon="1.38741">
        <ele>150.6</ele>
        <time>2025-05-29T14:23:03Z</time>
      </trkpt>
      <trkpt lat="44.49701" lon="1.38746">
        <ele>150.6</ele>
        <time>2025-05-29T14:23:04Z</time>
      </trkpt>
      <trkpt lat="44.49703" lon="1.38751">
        <ele>151</ele>
        <time>2025-05-29T14:23:05Z</time>
      </trkpt>
      <trkpt lat="44.49706" lon="1.38755">
        <ele>151.2</ele>
        <time>2025-05-29T14:23:06Z</time>
      </trkpt>
      <trkpt lat="44.49709" lon="1.38758">
        <ele>151.4</ele>
        <time>2025-05-29T14:23:07Z</time>
      </trkpt>
      <trkpt lat="44.49713" lon="1.38761">
        <ele>151.6</ele>
        <time>2025-05-29T14:23:08Z</time>
      </trkpt>
      <trkpt lat="44.49717" lon="1.38762">
        <ele>151.6</ele>
        <time>2025-05-29T14:23:09Z</time>
      </trkpt>
      <trkpt lat="44.49721" lon="1.38763">
        <ele>151.8</ele>
        <time>2025-05-29T14:23:10Z</time>
      </trkpt>
      <trkpt lat="44.49725" lon="1.38765">
        <ele>151.6</ele>
        <time>2025-05-29T14:23:11Z</time>
      </trkpt>
      <trkpt lat="44.49729" lon="1.38766">
        <ele>151.6</ele>
        <time>2025-05-29T14:23:12Z</time>
      </trkpt>
      <trkpt lat="44.49733" lon="1.38768">
        <ele>151.6</ele>
        <time>2025-05-29T14:23:13Z</time>
      </trkpt>
      <trkpt lat="44.49738" lon="1.3877">
        <ele>151.4</ele>
        <time>2025-05-29T14:23:14Z</time>
      </trkpt>
      <trkpt lat="44.49743" lon="1.38772">
        <ele>151.4</ele>
        <time>2025-05-29T14:23:15Z</time>
      </trkpt>
      <trkpt lat="44.49748" lon="1.38773">
        <ele>151</ele>
        <time>2025-05-29T14:23:16Z</time>
      </trkpt>
      <trkpt lat="44.49753" lon="1.38775">
        <ele>150.8</ele>
        <time>2025-05-29T14:23:17Z</time>
      </trkpt>
      <trkpt lat="44.49758" lon="1.38776">
        <ele>150.8</ele>
        <time>2025-05-29T14:23:18Z</time>
      </trkpt>
      <trkpt lat="44.49763" lon="1.38778">
        <ele>150.6</ele>
        <time>2025-05-29T14:23:19Z</time>
      </trkpt>
      <trkpt lat="44.49768" lon="1.3878">
        <ele>150.4</ele>
        <time>2025-05-29T14:23:20Z</time>
      </trkpt>
      <trkpt lat="44.49773" lon="1.38781">
        <ele>150.2</ele>
        <time>2025-05-29T14:23:21Z</time>
      </trkpt>
      <trkpt lat="44.49778" lon="1.38782">
        <ele>150.2</ele>
        <time>2025-05-29T14:23:22Z</time>
      </trkpt>
      <trkpt lat="44.49782" lon="1.38786">
        <ele>150.2</ele>
        <time>2025-05-29T14:23:23Z</time>
      </trkpt>
      <trkpt lat="44.49784" lon="1.38792">
        <ele>150.4</ele>
        <time>2025-05-29T14:23:24Z</time>
      </trkpt>
      <trkpt lat="44.49785" lon="1.38796">
        <ele>150.4</ele>
        <time>2025-05-29T14:23:25Z</time>
      </trkpt>
      <trkpt lat="44.49785" lon="1.38801">
        <ele>150.6</ele>
        <time>2025-05-29T14:23:26Z</time>
      </trkpt>
      <trkpt lat="44.49786" lon="1.38806">
        <ele>150.8</ele>
        <time>2025-05-29T14:23:27Z</time>
      </trkpt>
      <trkpt lat="44.49787" lon="1.3881">
        <ele>151</ele>
        <time>2025-05-29T14:23:28Z</time>
      </trkpt>
      <trkpt lat="44.49787" lon="1.38814">
        <ele>151</ele>
        <time>2025-05-29T14:23:29Z</time>
      </trkpt>
      <trkpt lat="44.49787" lon="1.38818">
        <ele>151.2</ele>
        <time>2025-05-29T14:23:30Z</time>
      </trkpt>
      <trkpt lat="44.49788" lon="1.38821">
        <ele>151</ele>
        <time>2025-05-29T14:23:31Z</time>
      </trkpt>
      <trkpt lat="44.4979" lon="1.38822">
        <ele>151.2</ele>
        <time>2025-05-29T14:23:32Z</time>
      </trkpt>
      <trkpt lat="44.49792" lon="1.38822">
        <ele>151.2</ele>
        <time>2025-05-29T14:23:33Z</time>
      </trkpt>
      <trkpt lat="44.49793" lon="1.38823">
        <ele>151.4</ele>
        <time>2025-05-29T14:23:34Z</time>
      </trkpt>
      <trkpt lat="44.49794" lon="1.38823">
        <ele>151.6</ele>
        <time>2025-05-29T14:23:35Z</time>
      </trkpt>
    </trkseg>
  </trk>
</gpx>